<?xml version='1.0' encoding='UTF-8'?>
<gpx version="1.1" creator="https://www.komoot.de" xmlns="http://www.topografix.com/GPX/1/1" xmlns:xsi="http://www.w3.org/2001/XMLSchema-instance" xsi:schemaLocation="http://www.topografix.com/GPX/1/1 http://www.topografix.com/GPX/1/1/gpx.xsd">
  <metadata>
    <name>Road ride</name>
    <author>
      <link href="https://www.komoot.de">
        <text>komoot</text>
        <type>text/html</type>
      </link>
    </author>
  </metadata>
  <trk>
    <name>Road ride</name>
    <type>racebike</type>
    <trkseg>
      <trkpt lat="22.774126" lon="108.369340">
        <ele>64.915598</ele>
        <time>2026-08-14T01:49:28.000Z</time>
      </trkpt>
      <trkpt lat="22.774126" lon="108.369340">
        <ele>64.915598</ele>
        <time>2026-08-14T01:49:29.000Z</time>
      </trkpt>
      <trkpt lat="22.774126" lon="108.369366">
        <ele>64.915598</ele>
        <time>2026-08-14T01:49:31.000Z</time>
      </trkpt>
      <trkpt lat="22.774122" lon="108.369394">
        <ele>64.915598</ele>
        <time>2026-08-14T01:49:32.000Z</time>
      </trkpt>
      <trkpt lat="22.774123" lon="108.369409">
        <ele>64.915598</ele>
        <time>2026-08-14T01:49:33.000Z</time>
      </trkpt>
      <trkpt lat="22.774121" lon="108.369423">
        <ele>64.915598</ele>
        <time>2026-08-14T01:49:34.000Z</time>
      </trkpt>
      <trkpt lat="22.774116" lon="108.369442">
        <ele>64.915598</ele>
        <time>2026-08-14T01:49:35.000Z</time>
      </trkpt>
      <trkpt lat="22.774124" lon="108.369443">
        <ele>64.915598</ele>
        <time>2026-08-14T01:49:36.000Z</time>
      </trkpt>
      <trkpt lat="22.774126" lon="108.369468">
        <ele>64.915598</ele>
        <time>2026-08-14T01:49:37.000Z</time>
      </trkpt>
      <trkpt lat="22.774142" lon="108.369473">
        <ele>64.915598</ele>
        <time>2026-08-14T01:49:38.000Z</time>
      </trkpt>
      <trkpt lat="22.774167" lon="108.369472">
        <ele>64.915598</ele>
        <time>2026-08-14T01:49:39.000Z</time>
      </trkpt>
      <trkpt lat="22.774200" lon="108.369478">
        <ele>64.915598</ele>
        <time>2026-08-14T01:49:40.000Z</time>
      </trkpt>
      <trkpt lat="22.774227" lon="108.369487">
        <ele>64.915598</ele>
        <time>2026-08-14T01:49:41.000Z</time>
      </trkpt>
      <trkpt lat="22.774252" lon="108.369503">
        <ele>64.915598</ele>
        <time>2026-08-14T01:49:42.000Z</time>
      </trkpt>
      <trkpt lat="22.774281" lon="108.369523">
        <ele>64.915598</ele>
        <time>2026-08-14T01:49:43.000Z</time>
      </trkpt>
      <trkpt lat="22.774302" lon="108.369555">
        <ele>64.915598</ele>
        <time>2026-08-14T01:49:44.000Z</time>
      </trkpt>
      <trkpt lat="22.774322" lon="108.369585">
        <ele>64.915598</ele>
        <time>2026-08-14T01:49:45.000Z</time>
      </trkpt>
      <trkpt lat="22.774339" lon="108.369617">
        <ele>64.915598</ele>
        <time>2026-08-14T01:49:46.000Z</time>
      </trkpt>
      <trkpt lat="22.774356" lon="108.369648">
        <ele>64.915598</ele>
        <time>2026-08-14T01:49:47.000Z</time>
      </trkpt>
      <trkpt lat="22.774378" lon="108.369678">
        <ele>64.915598</ele>
        <time>2026-08-14T01:49:48.000Z</time>
      </trkpt>
      <trkpt lat="22.774400" lon="108.369707">
        <ele>64.915598</ele>
        <time>2026-08-14T01:49:49.000Z</time>
      </trkpt>
      <trkpt lat="22.774427" lon="108.369737">
        <ele>64.915598</ele>
        <time>2026-08-14T01:49:50.000Z</time>
      </trkpt>
      <trkpt lat="22.774462" lon="108.369754">
        <ele>64.915598</ele>
        <time>2026-08-14T01:49:51.000Z</time>
      </trkpt>
      <trkpt lat="22.774498" lon="108.369758">
        <ele>64.915598</ele>
        <time>2026-08-14T01:49:52.000Z</time>
      </trkpt>
      <trkpt lat="22.774532" lon="108.369762">
        <ele>64.915598</ele>
        <time>2026-08-14T01:49:53.000Z</time>
      </trkpt>
      <trkpt lat="22.774571" lon="108.369769">
        <ele>64.915598</ele>
        <time>2026-08-14T01:49:54.000Z</time>
      </trkpt>
      <trkpt lat="22.774606" lon="108.369782">
        <ele>64.915598</ele>
        <time>2026-08-14T01:49:55.000Z</time>
      </trkpt>
      <trkpt lat="22.774651" lon="108.369790">
        <ele>64.915598</ele>
        <time>2026-08-14T01:49:56.000Z</time>
      </trkpt>
      <trkpt lat="22.774695" lon="108.369801">
        <ele>64.915598</ele>
        <time>2026-08-14T01:49:57.000Z</time>
      </trkpt>
      <trkpt lat="22.774750" lon="108.369803">
        <ele>64.915598</ele>
        <time>2026-08-14T01:49:58.000Z</time>
      </trkpt>
      <trkpt lat="22.774796" lon="108.369808">
        <ele>64.908813</ele>
        <time>2026-08-14T01:49:59.000Z</time>
      </trkpt>
      <trkpt lat="22.774833" lon="108.369823">
        <ele>64.893451</ele>
        <time>2026-08-14T01:50:00.000Z</time>
      </trkpt>
      <trkpt lat="22.774872" lon="108.369842">
        <ele>64.876823</ele>
        <time>2026-08-14T01:50:01.000Z</time>
      </trkpt>
      <trkpt lat="22.774913" lon="108.369871">
        <ele>64.857785</ele>
        <time>2026-08-14T01:50:02.000Z</time>
      </trkpt>
      <trkpt lat="22.774950" lon="108.369883">
        <ele>64.842766</ele>
        <time>2026-08-14T01:50:03.000Z</time>
      </trkpt>
      <trkpt lat="22.774984" lon="108.369899">
        <ele>64.828351</ele>
        <time>2026-08-14T01:50:04.000Z</time>
      </trkpt>
      <trkpt lat="22.775003" lon="108.369906">
        <ele>64.820547</ele>
        <time>2026-08-14T01:50:05.000Z</time>
      </trkpt>
      <trkpt lat="22.775036" lon="108.369906">
        <ele>64.807713</ele>
        <time>2026-08-14T01:50:06.000Z</time>
      </trkpt>
      <trkpt lat="22.775060" lon="108.369907">
        <ele>64.798372</ele>
        <time>2026-08-14T01:50:07.000Z</time>
      </trkpt>
      <trkpt lat="22.775068" lon="108.369915">
        <ele>64.794139</ele>
        <time>2026-08-14T01:50:08.000Z</time>
      </trkpt>
      <trkpt lat="22.775092" lon="108.369916">
        <ele>64.784798</ele>
        <time>2026-08-14T01:50:09.000Z</time>
      </trkpt>
      <trkpt lat="22.775116" lon="108.369906">
        <ele>64.774799</ele>
        <time>2026-08-14T01:50:10.000Z</time>
      </trkpt>
      <trkpt lat="22.775137" lon="108.369916">
        <ele>64.765879</ele>
        <time>2026-08-14T01:50:11.000Z</time>
      </trkpt>
      <trkpt lat="22.775165" lon="108.369916">
        <ele>64.754989</ele>
        <time>2026-08-14T01:50:12.000Z</time>
      </trkpt>
      <trkpt lat="22.775209" lon="108.369905">
        <ele>64.737428</ele>
        <time>2026-08-14T01:50:13.000Z</time>
      </trkpt>
      <trkpt lat="22.775251" lon="108.369916">
        <ele>64.720624</ele>
        <time>2026-08-14T01:50:14.000Z</time>
      </trkpt>
      <trkpt lat="22.775291" lon="108.369916">
        <ele>64.705067</ele>
        <time>2026-08-14T01:50:15.000Z</time>
      </trkpt>
      <trkpt lat="22.775330" lon="108.369932">
        <ele>64.688850</ele>
        <time>2026-08-14T01:50:16.000Z</time>
      </trkpt>
      <trkpt lat="22.775378" lon="108.369923">
        <ele>64.669905</ele>
        <time>2026-08-14T01:50:17.000Z</time>
      </trkpt>
      <trkpt lat="22.775417" lon="108.369919">
        <ele>64.654669</ele>
        <time>2026-08-14T01:50:18.000Z</time>
      </trkpt>
      <trkpt lat="22.775464" lon="108.369919">
        <ele>64.636390</ele>
        <time>2026-08-14T01:50:19.000Z</time>
      </trkpt>
      <trkpt lat="22.775495" lon="108.369910">
        <ele>64.623909</ele>
        <time>2026-08-14T01:50:20.000Z</time>
      </trkpt>
      <trkpt lat="22.775522" lon="108.369912">
        <ele>64.613384</ele>
        <time>2026-08-14T01:50:21.000Z</time>
      </trkpt>
      <trkpt lat="22.775547" lon="108.369920">
        <ele>64.603246</ele>
        <time>2026-08-14T01:50:22.000Z</time>
      </trkpt>
      <trkpt lat="22.775569" lon="108.369929">
        <ele>64.594101</ele>
        <time>2026-08-14T01:50:23.000Z</time>
      </trkpt>
      <trkpt lat="22.775599" lon="108.369930">
        <ele>64.582428</ele>
        <time>2026-08-14T01:50:24.000Z</time>
      </trkpt>
      <trkpt lat="22.775594" lon="108.369961">
        <ele>64.571143</ele>
        <time>2026-08-14T01:50:25.000Z</time>
      </trkpt>
      <trkpt lat="22.775603" lon="108.369999">
        <ele>64.557074</ele>
        <time>2026-08-14T01:50:26.000Z</time>
      </trkpt>
      <trkpt lat="22.775614" lon="108.370039">
        <ele>64.542106</ele>
        <time>2026-08-14T01:50:27.000Z</time>
      </trkpt>
      <trkpt lat="22.775637" lon="108.370062">
        <ele>64.529938</ele>
        <time>2026-08-14T01:50:28.000Z</time>
      </trkpt>
      <trkpt lat="22.775626" lon="108.370104">
        <ele>64.514282</ele>
        <time>2026-08-14T01:50:29.000Z</time>
      </trkpt>
      <trkpt lat="22.775616" lon="108.370162">
        <ele>64.493122</ele>
        <time>2026-08-14T01:50:30.000Z</time>
      </trkpt>
      <trkpt lat="22.775616" lon="108.370196">
        <ele>64.480930</ele>
        <time>2026-08-14T01:50:31.000Z</time>
      </trkpt>
      <trkpt lat="22.775620" lon="108.370248">
        <ele>64.462218</ele>
        <time>2026-08-14T01:50:32.000Z</time>
      </trkpt>
      <trkpt lat="22.775614" lon="108.370301">
        <ele>64.443070</ele>
        <time>2026-08-14T01:50:33.000Z</time>
      </trkpt>
      <trkpt lat="22.775620" lon="108.370353">
        <ele>64.424277</ele>
        <time>2026-08-14T01:50:34.000Z</time>
      </trkpt>
      <trkpt lat="22.775619" lon="108.370420">
        <ele>64.400248</ele>
        <time>2026-08-14T01:50:35.000Z</time>
      </trkpt>
      <trkpt lat="22.775633" lon="108.370465">
        <ele>64.383218</ele>
        <time>2026-08-14T01:50:36.000Z</time>
      </trkpt>
      <trkpt lat="22.775619" lon="108.370516">
        <ele>64.364136</ele>
        <time>2026-08-14T01:50:37.000Z</time>
      </trkpt>
      <trkpt lat="22.775614" lon="108.370572">
        <ele>64.343961</ele>
        <time>2026-08-14T01:50:38.000Z</time>
      </trkpt>
      <trkpt lat="22.775623" lon="108.370625">
        <ele>64.324635</ele>
        <time>2026-08-14T01:50:39.000Z</time>
      </trkpt>
      <trkpt lat="22.775633" lon="108.370687">
        <ele>64.302065</ele>
        <time>2026-08-14T01:50:40.000Z</time>
      </trkpt>
      <trkpt lat="22.775644" lon="108.370732">
        <ele>64.285370</ele>
        <time>2026-08-14T01:50:41.000Z</time>
      </trkpt>
      <trkpt lat="22.775653" lon="108.370787">
        <ele>64.265339</ele>
        <time>2026-08-14T01:50:42.000Z</time>
      </trkpt>
      <trkpt lat="22.775662" lon="108.370826">
        <ele>64.250923</ele>
        <time>2026-08-14T01:50:43.000Z</time>
      </trkpt>
      <trkpt lat="22.775662" lon="108.370881">
        <ele>64.231200</ele>
        <time>2026-08-14T01:50:44.000Z</time>
      </trkpt>
      <trkpt lat="22.775668" lon="108.370921">
        <ele>64.216667</ele>
        <time>2026-08-14T01:50:45.000Z</time>
      </trkpt>
      <trkpt lat="22.775664" lon="108.370962">
        <ele>64.199234</ele>
        <time>2026-08-14T01:50:46.000Z</time>
      </trkpt>
      <trkpt lat="22.775643" lon="108.371006">
        <ele>64.178148</ele>
        <time>2026-08-14T01:50:47.000Z</time>
      </trkpt>
      <trkpt lat="22.775632" lon="108.371063">
        <ele>64.153365</ele>
        <time>2026-08-14T01:50:48.000Z</time>
      </trkpt>
      <trkpt lat="22.775616" lon="108.371118">
        <ele>64.128820</ele>
        <time>2026-08-14T01:50:49.000Z</time>
      </trkpt>
      <trkpt lat="22.775603" lon="108.371163">
        <ele>64.108751</ele>
        <time>2026-08-14T01:50:50.000Z</time>
      </trkpt>
      <trkpt lat="22.775598" lon="108.371214">
        <ele>64.086925</ele>
        <time>2026-08-14T01:50:51.000Z</time>
      </trkpt>
      <trkpt lat="22.775596" lon="108.371258">
        <ele>64.068176</ele>
        <time>2026-08-14T01:50:52.000Z</time>
      </trkpt>
      <trkpt lat="22.775587" lon="108.371304">
        <ele>64.048164</ele>
        <time>2026-08-14T01:50:53.000Z</time>
      </trkpt>
      <trkpt lat="22.775585" lon="108.371382">
        <ele>64.014956</ele>
        <time>2026-08-14T01:50:54.000Z</time>
      </trkpt>
      <trkpt lat="22.775590" lon="108.371432">
        <ele>63.993552</ele>
        <time>2026-08-14T01:50:55.000Z</time>
      </trkpt>
      <trkpt lat="22.775600" lon="108.371494">
        <ele>63.966766</ele>
        <time>2026-08-14T01:50:56.000Z</time>
      </trkpt>
      <trkpt lat="22.775639" lon="108.371555">
        <ele>63.935175</ele>
        <time>2026-08-14T01:50:57.000Z</time>
      </trkpt>
      <trkpt lat="22.775665" lon="108.371608">
        <ele>63.909626</ele>
        <time>2026-08-14T01:50:58.000Z</time>
      </trkpt>
      <trkpt lat="22.775692" lon="108.371656">
        <ele>63.885697</ele>
        <time>2026-08-14T01:50:59.000Z</time>
      </trkpt>
      <trkpt lat="22.775710" lon="108.371714">
        <ele>63.859652</ele>
        <time>2026-08-14T01:51:00.000Z</time>
      </trkpt>
      <trkpt lat="22.775721" lon="108.371768">
        <ele>63.836117</ele>
        <time>2026-08-14T01:51:01.000Z</time>
      </trkpt>
      <trkpt lat="22.775728" lon="108.371826">
        <ele>63.811223</ele>
        <time>2026-08-14T01:51:02.000Z</time>
      </trkpt>
      <trkpt lat="22.775731" lon="108.371882">
        <ele>63.787350</ele>
        <time>2026-08-14T01:51:03.000Z</time>
      </trkpt>
      <trkpt lat="22.775728" lon="108.371964">
        <ele>63.752426</ele>
        <time>2026-08-14T01:51:04.000Z</time>
      </trkpt>
      <trkpt lat="22.775734" lon="108.372021">
        <ele>63.728010</ele>
        <time>2026-08-14T01:51:05.000Z</time>
      </trkpt>
      <trkpt lat="22.775746" lon="108.372079">
        <ele>63.702713</ele>
        <time>2026-08-14T01:51:06.000Z</time>
      </trkpt>
      <trkpt lat="22.775754" lon="108.372132">
        <ele>63.679857</ele>
        <time>2026-08-14T01:51:07.000Z</time>
      </trkpt>
      <trkpt lat="22.775774" lon="108.372204">
        <ele>63.647855</ele>
        <time>2026-08-14T01:51:08.000Z</time>
      </trkpt>
      <trkpt lat="22.775795" lon="108.372263">
        <ele>63.620940</ele>
        <time>2026-08-14T01:51:09.000Z</time>
      </trkpt>
      <trkpt lat="22.775814" lon="108.372324">
        <ele>63.593539</ele>
        <time>2026-08-14T01:51:10.000Z</time>
      </trkpt>
      <trkpt lat="22.775820" lon="108.372391">
        <ele>63.564891</ele>
        <time>2026-08-14T01:51:11.000Z</time>
      </trkpt>
      <trkpt lat="22.775814" lon="108.372477">
        <ele>63.528186</ele>
        <time>2026-08-14T01:51:12.000Z</time>
      </trkpt>
      <trkpt lat="22.775815" lon="108.372537">
        <ele>63.502648</ele>
        <time>2026-08-14T01:51:13.000Z</time>
      </trkpt>
      <trkpt lat="22.775813" lon="108.372616">
        <ele>63.469014</ele>
        <time>2026-08-14T01:51:14.000Z</time>
      </trkpt>
      <trkpt lat="22.775814" lon="108.372682">
        <ele>63.440922</ele>
        <time>2026-08-14T01:51:15.000Z</time>
      </trkpt>
      <trkpt lat="22.775812" lon="108.372754">
        <ele>63.410267</ele>
        <time>2026-08-14T01:51:16.000Z</time>
      </trkpt>
      <trkpt lat="22.775819" lon="108.372812">
        <ele>63.386308</ele>
        <time>2026-08-14T01:51:17.000Z</time>
      </trkpt>
      <trkpt lat="22.775838" lon="108.372870">
        <ele>63.409235</ele>
        <time>2026-08-14T01:51:18.000Z</time>
      </trkpt>
      <trkpt lat="22.775850" lon="108.372943">
        <ele>63.436855</ele>
        <time>2026-08-14T01:51:19.000Z</time>
      </trkpt>
      <trkpt lat="22.775837" lon="108.373023">
        <ele>63.467113</ele>
        <time>2026-08-14T01:51:20.000Z</time>
      </trkpt>
      <trkpt lat="22.775835" lon="108.373086">
        <ele>63.490594</ele>
        <time>2026-08-14T01:51:21.000Z</time>
      </trkpt>
      <trkpt lat="22.775829" lon="108.373163">
        <ele>63.519377</ele>
        <time>2026-08-14T01:51:22.000Z</time>
      </trkpt>
      <trkpt lat="22.775822" lon="108.373239">
        <ele>63.547827</ele>
        <time>2026-08-14T01:51:23.000Z</time>
      </trkpt>
      <trkpt lat="22.775815" lon="108.373307">
        <ele>63.573313</ele>
        <time>2026-08-14T01:51:24.000Z</time>
      </trkpt>
      <trkpt lat="22.775816" lon="108.373377">
        <ele>63.599390</ele>
        <time>2026-08-14T01:51:25.000Z</time>
      </trkpt>
      <trkpt lat="22.775811" lon="108.373443">
        <ele>63.624057</ele>
        <time>2026-08-14T01:51:26.000Z</time>
      </trkpt>
      <trkpt lat="22.775800" lon="108.373509">
        <ele>63.649039</ele>
        <time>2026-08-14T01:51:27.000Z</time>
      </trkpt>
      <trkpt lat="22.775790" lon="108.373573">
        <ele>63.673218</ele>
        <time>2026-08-14T01:51:28.000Z</time>
      </trkpt>
      <trkpt lat="22.775784" lon="108.373637">
        <ele>63.697180</ele>
        <time>2026-08-14T01:51:29.000Z</time>
      </trkpt>
      <trkpt lat="22.775790" lon="108.373705">
        <ele>63.722624</ele>
        <time>2026-08-14T01:51:30.000Z</time>
      </trkpt>
      <trkpt lat="22.775801" lon="108.373771">
        <ele>63.747606</ele>
        <time>2026-08-14T01:51:31.000Z</time>
      </trkpt>
      <trkpt lat="22.775795" lon="108.373835">
        <ele>63.771568</ele>
        <time>2026-08-14T01:51:32.000Z</time>
      </trkpt>
      <trkpt lat="22.775798" lon="108.373894">
        <ele>63.793578</ele>
        <time>2026-08-14T01:51:33.000Z</time>
      </trkpt>
      <trkpt lat="22.775796" lon="108.373951">
        <ele>63.814825</ele>
        <time>2026-08-14T01:51:34.000Z</time>
      </trkpt>
      <trkpt lat="22.775798" lon="108.374018">
        <ele>63.839795</ele>
        <time>2026-08-14T01:51:35.000Z</time>
      </trkpt>
      <trkpt lat="22.775798" lon="108.374079">
        <ele>63.862516</ele>
        <time>2026-08-14T01:51:36.000Z</time>
      </trkpt>
      <trkpt lat="22.775794" lon="108.374131">
        <ele>63.881952</ele>
        <time>2026-08-14T01:51:37.000Z</time>
      </trkpt>
      <trkpt lat="22.775791" lon="108.374179">
        <ele>63.899873</ele>
        <time>2026-08-14T01:51:38.000Z</time>
      </trkpt>
      <trkpt lat="22.775769" lon="108.374226">
        <ele>63.919506</ele>
        <time>2026-08-14T01:51:39.000Z</time>
      </trkpt>
      <trkpt lat="22.775756" lon="108.374266">
        <ele>63.935304</ele>
        <time>2026-08-14T01:51:40.000Z</time>
      </trkpt>
      <trkpt lat="22.775734" lon="108.374304">
        <ele>63.952017</ele>
        <time>2026-08-14T01:51:41.000Z</time>
      </trkpt>
      <trkpt lat="22.775735" lon="108.374332">
        <ele>63.962455</ele>
        <time>2026-08-14T01:51:42.000Z</time>
      </trkpt>
      <trkpt lat="22.775727" lon="108.374346">
        <ele>63.968590</ele>
        <time>2026-08-14T01:51:43.000Z</time>
      </trkpt>
      <trkpt lat="22.775715" lon="108.374363">
        <ele>63.976565</ele>
        <time>2026-08-14T01:51:44.000Z</time>
      </trkpt>
      <trkpt lat="22.775701" lon="108.374367">
        <ele>63.982413</ele>
        <time>2026-08-14T01:51:45.000Z</time>
      </trkpt>
      <trkpt lat="22.775680" lon="108.374372">
        <ele>63.991099</ele>
        <time>2026-08-14T01:51:46.000Z</time>
      </trkpt>
      <trkpt lat="22.775660" lon="108.374370">
        <ele>63.999213</ele>
        <time>2026-08-14T01:51:47.000Z</time>
      </trkpt>
      <trkpt lat="22.775639" lon="108.374375">
        <ele>64.007899</ele>
        <time>2026-08-14T01:51:48.000Z</time>
      </trkpt>
      <trkpt lat="22.775610" lon="108.374378">
        <ele>64.019667</ele>
        <time>2026-08-14T01:51:49.000Z</time>
      </trkpt>
      <trkpt lat="22.775561" lon="108.374382">
        <ele>64.039519</ele>
        <time>2026-08-14T01:51:50.000Z</time>
      </trkpt>
      <trkpt lat="22.775520" lon="108.374381">
        <ele>64.056086</ele>
        <time>2026-08-14T01:51:51.000Z</time>
      </trkpt>
      <trkpt lat="22.775480" lon="108.374382">
        <ele>64.072250</ele>
        <time>2026-08-14T01:51:52.000Z</time>
      </trkpt>
      <trkpt lat="22.775440" lon="108.374388">
        <ele>64.088563</ele>
        <time>2026-08-14T01:51:53.000Z</time>
      </trkpt>
      <trkpt lat="22.775400" lon="108.374379">
        <ele>64.105066</ele>
        <time>2026-08-14T01:51:54.000Z</time>
      </trkpt>
      <trkpt lat="22.775360" lon="108.374374">
        <ele>64.147527</ele>
        <time>2026-08-14T01:51:55.000Z</time>
      </trkpt>
      <trkpt lat="22.775319" lon="108.374377">
        <ele>64.213325</ele>
        <time>2026-08-14T01:51:56.000Z</time>
      </trkpt>
      <trkpt lat="22.775281" lon="108.374391">
        <ele>64.277584</ele>
        <time>2026-08-14T01:51:57.000Z</time>
      </trkpt>
      <trkpt lat="22.775243" lon="108.374399">
        <ele>64.339565</ele>
        <time>2026-08-14T01:51:58.000Z</time>
      </trkpt>
      <trkpt lat="22.775207" lon="108.374418">
        <ele>64.403670</ele>
        <time>2026-08-14T01:51:59.000Z</time>
      </trkpt>
      <trkpt lat="22.775170" lon="108.374420">
        <ele>64.462987</ele>
        <time>2026-08-14T01:52:00.000Z</time>
      </trkpt>
      <trkpt lat="22.775130" lon="108.374432">
        <ele>64.529440</ele>
        <time>2026-08-14T01:52:01.000Z</time>
      </trkpt>
      <trkpt lat="22.775089" lon="108.374440">
        <ele>64.596142</ele>
        <time>2026-08-14T01:52:02.000Z</time>
      </trkpt>
      <trkpt lat="22.775046" lon="108.374447">
        <ele>64.665764</ele>
        <time>2026-08-14T01:52:03.000Z</time>
      </trkpt>
      <trkpt lat="22.775006" lon="108.374448">
        <ele>64.729828</ele>
        <time>2026-08-14T01:52:04.000Z</time>
      </trkpt>
      <trkpt lat="22.774965" lon="108.374448">
        <ele>64.795477</ele>
        <time>2026-08-14T01:52:05.000Z</time>
      </trkpt>
      <trkpt lat="22.774924" lon="108.374456">
        <ele>64.862179</ele>
        <time>2026-08-14T01:52:06.000Z</time>
      </trkpt>
      <trkpt lat="22.774881" lon="108.374461">
        <ele>64.931425</ele>
        <time>2026-08-14T01:52:07.000Z</time>
      </trkpt>
      <trkpt lat="22.774838" lon="108.374473">
        <ele>65.002518</ele>
        <time>2026-08-14T01:52:08.000Z</time>
      </trkpt>
      <trkpt lat="22.774785" lon="108.374488">
        <ele>65.090223</ele>
        <time>2026-08-14T01:52:09.000Z</time>
      </trkpt>
      <trkpt lat="22.774741" lon="108.374507">
        <ele>65.166053</ele>
        <time>2026-08-14T01:52:10.000Z</time>
      </trkpt>
      <trkpt lat="22.774698" lon="108.374518">
        <ele>65.236794</ele>
        <time>2026-08-14T01:52:11.000Z</time>
      </trkpt>
      <trkpt lat="22.774658" lon="108.374531">
        <ele>65.303655</ele>
        <time>2026-08-14T01:52:12.000Z</time>
      </trkpt>
      <trkpt lat="22.774619" lon="108.374531">
        <ele>65.366101</ele>
        <time>2026-08-14T01:52:13.000Z</time>
      </trkpt>
      <trkpt lat="22.774581" lon="108.374529">
        <ele>65.427017</ele>
        <time>2026-08-14T01:52:14.000Z</time>
      </trkpt>
      <trkpt lat="22.774554" lon="108.374512">
        <ele>65.477006</ele>
        <time>2026-08-14T01:52:15.000Z</time>
      </trkpt>
      <trkpt lat="22.774528" lon="108.374489">
        <ele>65.530729</ele>
        <time>2026-08-14T01:52:16.000Z</time>
      </trkpt>
      <trkpt lat="22.774507" lon="108.374461">
        <ele>65.584015</ele>
        <time>2026-08-14T01:52:17.000Z</time>
      </trkpt>
      <trkpt lat="22.774474" lon="108.374452">
        <ele>65.638499</ele>
        <time>2026-08-14T01:52:18.000Z</time>
      </trkpt>
      <trkpt lat="22.774448" lon="108.374455">
        <ele>65.680365</ele>
        <time>2026-08-14T01:52:19.000Z</time>
      </trkpt>
      <trkpt lat="22.774427" lon="108.374466">
        <ele>65.717706</ele>
        <time>2026-08-14T01:52:20.000Z</time>
      </trkpt>
      <trkpt lat="22.774391" lon="108.374488">
        <ele>65.783869</ele>
        <time>2026-08-14T01:52:21.000Z</time>
      </trkpt>
      <trkpt lat="22.774363" lon="108.374511">
        <ele>65.840110</ele>
        <time>2026-08-14T01:52:22.000Z</time>
      </trkpt>
      <trkpt lat="22.774340" lon="108.374544">
        <ele>65.901182</ele>
        <time>2026-08-14T01:52:23.000Z</time>
      </trkpt>
      <trkpt lat="22.774315" lon="108.374580">
        <ele>65.967719</ele>
        <time>2026-08-14T01:52:24.000Z</time>
      </trkpt>
      <trkpt lat="22.774298" lon="108.374615">
        <ele>66.026122</ele>
        <time>2026-08-14T01:52:25.000Z</time>
      </trkpt>
      <trkpt lat="22.774279" lon="108.374657">
        <ele>66.095190</ele>
        <time>2026-08-14T01:52:26.000Z</time>
      </trkpt>
      <trkpt lat="22.774256" lon="108.374699">
        <ele>66.167308</ele>
        <time>2026-08-14T01:52:27.000Z</time>
      </trkpt>
      <trkpt lat="22.774250" lon="108.374752">
        <ele>66.246142</ele>
        <time>2026-08-14T01:52:28.000Z</time>
      </trkpt>
      <trkpt lat="22.774231" lon="108.374790">
        <ele>66.309961</ele>
        <time>2026-08-14T01:52:29.000Z</time>
      </trkpt>
      <trkpt lat="22.774219" lon="108.374829">
        <ele>66.370660</ele>
        <time>2026-08-14T01:52:30.000Z</time>
      </trkpt>
      <trkpt lat="22.774210" lon="108.374861">
        <ele>66.420053</ele>
        <time>2026-08-14T01:52:31.000Z</time>
      </trkpt>
      <trkpt lat="22.774222" lon="108.374892">
        <ele>66.469689</ele>
        <time>2026-08-14T01:52:32.000Z</time>
      </trkpt>
      <trkpt lat="22.774208" lon="108.374924">
        <ele>66.521981</ele>
        <time>2026-08-14T01:52:33.000Z</time>
      </trkpt>
      <trkpt lat="22.774213" lon="108.374960">
        <ele>66.575729</ele>
        <time>2026-08-14T01:52:34.000Z</time>
      </trkpt>
      <trkpt lat="22.774206" lon="108.374992">
        <ele>66.624283</ele>
        <time>2026-08-14T01:52:35.000Z</time>
      </trkpt>
      <trkpt lat="22.774205" lon="108.375029">
        <ele>66.678932</ele>
        <time>2026-08-14T01:52:36.000Z</time>
      </trkpt>
      <trkpt lat="22.774197" lon="108.375074">
        <ele>66.746591</ele>
        <time>2026-08-14T01:52:37.000Z</time>
      </trkpt>
      <trkpt lat="22.774193" lon="108.375124">
        <ele>66.820686</ele>
        <time>2026-08-14T01:52:38.000Z</time>
      </trkpt>
      <trkpt lat="22.774185" lon="108.375170">
        <ele>66.889796</ele>
        <time>2026-08-14T01:52:39.000Z</time>
      </trkpt>
      <trkpt lat="22.774176" lon="108.375222">
        <ele>66.967906</ele>
        <time>2026-08-14T01:52:40.000Z</time>
      </trkpt>
      <trkpt lat="22.774170" lon="108.375282">
        <ele>67.046628</ele>
        <time>2026-08-14T01:52:41.000Z</time>
      </trkpt>
      <trkpt lat="22.774164" lon="108.375328">
        <ele>67.104190</ele>
        <time>2026-08-14T01:52:42.000Z</time>
      </trkpt>
      <trkpt lat="22.774134" lon="108.375356">
        <ele>67.157375</ele>
        <time>2026-08-14T01:52:43.000Z</time>
      </trkpt>
      <trkpt lat="22.774128" lon="108.375391">
        <ele>67.201483</ele>
        <time>2026-08-14T01:52:44.000Z</time>
      </trkpt>
      <trkpt lat="22.774122" lon="108.375428">
        <ele>67.248030</ele>
        <time>2026-08-14T01:52:45.000Z</time>
      </trkpt>
      <trkpt lat="22.774124" lon="108.375470">
        <ele>67.300138</ele>
        <time>2026-08-14T01:52:46.000Z</time>
      </trkpt>
      <trkpt lat="22.774151" lon="108.375507">
        <ele>67.358601</ele>
        <time>2026-08-14T01:52:47.000Z</time>
      </trkpt>
      <trkpt lat="22.774117" lon="108.375542">
        <ele>67.421593</ele>
        <time>2026-08-14T01:52:48.000Z</time>
      </trkpt>
      <trkpt lat="22.774119" lon="108.375561">
        <ele>67.445287</ele>
        <time>2026-08-14T01:52:49.000Z</time>
      </trkpt>
      <trkpt lat="22.774103" lon="108.375583">
        <ele>67.480004</ele>
        <time>2026-08-14T01:52:50.000Z</time>
      </trkpt>
      <trkpt lat="22.774100" lon="108.375593">
        <ele>67.493033</ele>
        <time>2026-08-14T01:52:51.000Z</time>
      </trkpt>
      <trkpt lat="22.774099" lon="108.375623">
        <ele>67.530228</ele>
        <time>2026-08-14T01:52:52.000Z</time>
      </trkpt>
      <trkpt lat="22.774102" lon="108.375655">
        <ele>67.570080</ele>
        <time>2026-08-14T01:52:53.000Z</time>
      </trkpt>
      <trkpt lat="22.774095" lon="108.375723">
        <ele>67.654856</ele>
        <time>2026-08-14T01:52:54.000Z</time>
      </trkpt>
      <trkpt lat="22.774102" lon="108.375779">
        <ele>67.724875</ele>
        <time>2026-08-14T01:52:55.000Z</time>
      </trkpt>
      <trkpt lat="22.774106" lon="108.375838">
        <ele>67.798174</ele>
        <time>2026-08-14T01:52:56.000Z</time>
      </trkpt>
      <trkpt lat="22.774114" lon="108.375910">
        <ele>67.888028</ele>
        <time>2026-08-14T01:52:57.000Z</time>
      </trkpt>
      <trkpt lat="22.774121" lon="108.375996">
        <ele>67.994997</ele>
        <time>2026-08-14T01:52:58.000Z</time>
      </trkpt>
      <trkpt lat="22.774112" lon="108.376050">
        <ele>68.062987</ele>
        <time>2026-08-14T01:52:59.000Z</time>
      </trkpt>
      <trkpt lat="22.774112" lon="108.376113">
        <ele>68.141045</ele>
        <time>2026-08-14T01:53:00.000Z</time>
      </trkpt>
      <trkpt lat="22.774115" lon="108.376172">
        <ele>68.214257</ele>
        <time>2026-08-14T01:53:01.000Z</time>
      </trkpt>
      <trkpt lat="22.774116" lon="108.376228">
        <ele>68.283654</ele>
        <time>2026-08-14T01:53:02.000Z</time>
      </trkpt>
      <trkpt lat="22.774116" lon="108.376294">
        <ele>68.365429</ele>
        <time>2026-08-14T01:53:03.000Z</time>
      </trkpt>
      <trkpt lat="22.774111" lon="108.376347">
        <ele>68.431439</ele>
        <time>2026-08-14T01:53:04.000Z</time>
      </trkpt>
      <trkpt lat="22.774086" lon="108.376402">
        <ele>68.507415</ele>
        <time>2026-08-14T01:53:05.000Z</time>
      </trkpt>
      <trkpt lat="22.774085" lon="108.376458">
        <ele>68.576812</ele>
        <time>2026-08-14T01:53:06.000Z</time>
      </trkpt>
      <trkpt lat="22.774076" lon="108.376503">
        <ele>68.633864</ele>
        <time>2026-08-14T01:53:07.000Z</time>
      </trkpt>
      <trkpt lat="22.774069" lon="108.376549">
        <ele>68.691629</ele>
        <time>2026-08-14T01:53:08.000Z</time>
      </trkpt>
      <trkpt lat="22.774046" lon="108.376587">
        <ele>68.747949</ele>
        <time>2026-08-14T01:53:09.000Z</time>
      </trkpt>
      <trkpt lat="22.774024" lon="108.376622">
        <ele>68.800433</ele>
        <time>2026-08-14T01:53:10.000Z</time>
      </trkpt>
      <trkpt lat="22.773989" lon="108.376646">
        <ele>68.856077</ele>
        <time>2026-08-14T01:53:11.000Z</time>
      </trkpt>
      <trkpt lat="22.773960" lon="108.376659">
        <ele>68.898244</ele>
        <time>2026-08-14T01:53:12.000Z</time>
      </trkpt>
      <trkpt lat="22.773919" lon="108.376660">
        <ele>68.953352</ele>
        <time>2026-08-14T01:53:13.000Z</time>
      </trkpt>
      <trkpt lat="22.773876" lon="108.376657">
        <ele>69.011254</ele>
        <time>2026-08-14T01:53:14.000Z</time>
      </trkpt>
      <trkpt lat="22.773838" lon="108.376658">
        <ele>69.062332</ele>
        <time>2026-08-14T01:53:15.000Z</time>
      </trkpt>
      <trkpt lat="22.773799" lon="108.376656">
        <ele>69.114797</ele>
        <time>2026-08-14T01:53:16.000Z</time>
      </trkpt>
      <trkpt lat="22.773757" lon="108.376652">
        <ele>69.171453</ele>
        <time>2026-08-14T01:53:17.000Z</time>
      </trkpt>
      <trkpt lat="22.773725" lon="108.376641">
        <ele>69.216562</ele>
        <time>2026-08-14T01:53:18.000Z</time>
      </trkpt>
      <trkpt lat="22.773686" lon="108.376642">
        <ele>69.268983</ele>
        <time>2026-08-14T01:53:19.000Z</time>
      </trkpt>
      <trkpt lat="22.773649" lon="108.376641">
        <ele>69.318718</ele>
        <time>2026-08-14T01:53:20.000Z</time>
      </trkpt>
      <trkpt lat="22.773627" lon="108.376640">
        <ele>69.348307</ele>
        <time>2026-08-14T01:53:21.000Z</time>
      </trkpt>
      <trkpt lat="22.773592" lon="108.376647">
        <ele>69.396132</ele>
        <time>2026-08-14T01:53:22.000Z</time>
      </trkpt>
      <trkpt lat="22.773569" lon="108.376647">
        <ele>69.423168</ele>
        <time>2026-08-14T01:53:23.000Z</time>
      </trkpt>
      <trkpt lat="22.773532" lon="108.376655">
        <ele>69.462737</ele>
        <time>2026-08-14T01:53:24.000Z</time>
      </trkpt>
      <trkpt lat="22.773494" lon="108.376672">
        <ele>69.505848</ele>
        <time>2026-08-14T01:53:25.000Z</time>
      </trkpt>
      <trkpt lat="22.773450" lon="108.376678">
        <ele>69.552358</ele>
        <time>2026-08-14T01:53:26.000Z</time>
      </trkpt>
      <trkpt lat="22.773396" lon="108.376677">
        <ele>69.609001</ele>
        <time>2026-08-14T01:53:27.000Z</time>
      </trkpt>
      <trkpt lat="22.773346" lon="108.376678">
        <ele>69.661450</ele>
        <time>2026-08-14T01:53:28.000Z</time>
      </trkpt>
      <trkpt lat="22.773294" lon="108.376697">
        <ele>69.718999</ele>
        <time>2026-08-14T01:53:29.000Z</time>
      </trkpt>
      <trkpt lat="22.773247" lon="108.376707">
        <ele>69.769231</ele>
        <time>2026-08-14T01:53:30.000Z</time>
      </trkpt>
      <trkpt lat="22.773193" lon="108.376710">
        <ele>69.825940</ele>
        <time>2026-08-14T01:53:31.000Z</time>
      </trkpt>
      <trkpt lat="22.773168" lon="108.376684">
        <ele>69.862267</ele>
        <time>2026-08-14T01:53:32.000Z</time>
      </trkpt>
      <trkpt lat="22.773120" lon="108.376685">
        <ele>69.912618</ele>
        <time>2026-08-14T01:53:33.000Z</time>
      </trkpt>
      <trkpt lat="22.773076" lon="108.376695">
        <ele>69.959767</ele>
        <time>2026-08-14T01:53:34.000Z</time>
      </trkpt>
      <trkpt lat="22.773041" lon="108.376697">
        <ele>69.996526</ele>
        <time>2026-08-14T01:53:35.000Z</time>
      </trkpt>
      <trkpt lat="22.773006" lon="108.376704">
        <ele>70.033852</ele>
        <time>2026-08-14T01:53:36.000Z</time>
      </trkpt>
      <trkpt lat="22.772965" lon="108.376712">
        <ele>70.077543</ele>
        <time>2026-08-14T01:53:37.000Z</time>
      </trkpt>
      <trkpt lat="22.772912" lon="108.376716">
        <ele>70.133263</ele>
        <time>2026-08-14T01:53:38.000Z</time>
      </trkpt>
      <trkpt lat="22.772863" lon="108.376719">
        <ele>70.184736</ele>
        <time>2026-08-14T01:53:39.000Z</time>
      </trkpt>
      <trkpt lat="22.772827" lon="108.376713">
        <ele>70.222935</ele>
        <time>2026-08-14T01:53:40.000Z</time>
      </trkpt>
      <trkpt lat="22.772785" lon="108.376713">
        <ele>70.266985</ele>
        <time>2026-08-14T01:53:41.000Z</time>
      </trkpt>
      <trkpt lat="22.772734" lon="108.376714">
        <ele>70.320482</ele>
        <time>2026-08-14T01:53:42.000Z</time>
      </trkpt>
      <trkpt lat="22.772703" lon="108.376700">
        <ele>70.355700</ele>
        <time>2026-08-14T01:53:43.000Z</time>
      </trkpt>
      <trkpt lat="22.772663" lon="108.376686">
        <ele>70.399782</ele>
        <time>2026-08-14T01:53:44.000Z</time>
      </trkpt>
      <trkpt lat="22.772621" lon="108.376686">
        <ele>70.443831</ele>
        <time>2026-08-14T01:53:45.000Z</time>
      </trkpt>
      <trkpt lat="22.772585" lon="108.376694">
        <ele>70.482372</ele>
        <time>2026-08-14T01:53:46.000Z</time>
      </trkpt>
      <trkpt lat="22.772550" lon="108.376696">
        <ele>70.519131</ele>
        <time>2026-08-14T01:53:47.000Z</time>
      </trkpt>
      <trkpt lat="22.772514" lon="108.376700">
        <ele>70.557085</ele>
        <time>2026-08-14T01:53:48.000Z</time>
      </trkpt>
      <trkpt lat="22.772480" lon="108.376703">
        <ele>70.592861</ele>
        <time>2026-08-14T01:53:49.000Z</time>
      </trkpt>
      <trkpt lat="22.772434" lon="108.376705">
        <ele>70.641145</ele>
        <time>2026-08-14T01:53:50.000Z</time>
      </trkpt>
      <trkpt lat="22.772394" lon="108.376696">
        <ele>70.683989</ele>
        <time>2026-08-14T01:53:51.000Z</time>
      </trkpt>
      <trkpt lat="22.772348" lon="108.376693">
        <ele>70.732321</ele>
        <time>2026-08-14T01:53:52.000Z</time>
      </trkpt>
      <trkpt lat="22.772300" lon="108.376692">
        <ele>70.782672</ele>
        <time>2026-08-14T01:53:53.000Z</time>
      </trkpt>
      <trkpt lat="22.772279" lon="108.376692">
        <ele>70.804697</ele>
        <time>2026-08-14T01:53:54.000Z</time>
      </trkpt>
      <trkpt lat="22.772240" lon="108.376698">
        <ele>70.846009</ele>
        <time>2026-08-14T01:53:55.000Z</time>
      </trkpt>
      <trkpt lat="22.772196" lon="108.376697">
        <ele>70.892166</ele>
        <time>2026-08-14T01:53:56.000Z</time>
      </trkpt>
      <trkpt lat="22.772159" lon="108.376697">
        <ele>70.930971</ele>
        <time>2026-08-14T01:53:57.000Z</time>
      </trkpt>
      <trkpt lat="22.772117" lon="108.376694">
        <ele>70.975115</ele>
        <time>2026-08-14T01:53:58.000Z</time>
      </trkpt>
      <trkpt lat="22.772085" lon="108.376695">
        <ele>71.008691</ele>
        <time>2026-08-14T01:53:59.000Z</time>
      </trkpt>
      <trkpt lat="22.772047" lon="108.376681">
        <ele>71.050781</ele>
        <time>2026-08-14T01:54:00.000Z</time>
      </trkpt>
      <trkpt lat="22.771997" lon="108.376659">
        <ele>71.107372</ele>
        <time>2026-08-14T01:54:01.000Z</time>
      </trkpt>
      <trkpt lat="22.771956" lon="108.376661">
        <ele>71.150416</ele>
        <time>2026-08-14T01:54:02.000Z</time>
      </trkpt>
      <trkpt lat="22.771936" lon="108.376637">
        <ele>71.181699</ele>
        <time>2026-08-14T01:54:03.000Z</time>
      </trkpt>
      <trkpt lat="22.771897" lon="108.376644">
        <ele>71.223158</ele>
        <time>2026-08-14T01:54:04.000Z</time>
      </trkpt>
      <trkpt lat="22.771844" lon="108.376657">
        <ele>71.280148</ele>
        <time>2026-08-14T01:54:05.000Z</time>
      </trkpt>
      <trkpt lat="22.771785" lon="108.376652">
        <ele>71.274993</ele>
        <time>2026-08-14T01:54:06.000Z</time>
      </trkpt>
      <trkpt lat="22.771709" lon="108.376641">
        <ele>71.238934</ele>
        <time>2026-08-14T01:54:07.000Z</time>
      </trkpt>
      <trkpt lat="22.771665" lon="108.376641">
        <ele>71.218241</ele>
        <time>2026-08-14T01:54:08.000Z</time>
      </trkpt>
      <trkpt lat="22.771617" lon="108.376643">
        <ele>71.195650</ele>
        <time>2026-08-14T01:54:09.000Z</time>
      </trkpt>
      <trkpt lat="22.771576" lon="108.376635">
        <ele>71.176058</ele>
        <time>2026-08-14T01:54:10.000Z</time>
      </trkpt>
      <trkpt lat="22.771517" lon="108.376629">
        <ele>71.148188</ele>
        <time>2026-08-14T01:54:11.000Z</time>
      </trkpt>
      <trkpt lat="22.771455" lon="108.376622">
        <ele>71.118872</ele>
        <time>2026-08-14T01:54:12.000Z</time>
      </trkpt>
      <trkpt lat="22.771420" lon="108.376609">
        <ele>71.101473</ele>
        <time>2026-08-14T01:54:13.000Z</time>
      </trkpt>
      <trkpt lat="22.771368" lon="108.376591">
        <ele>71.075802</ele>
        <time>2026-08-14T01:54:14.000Z</time>
      </trkpt>
      <trkpt lat="22.771334" lon="108.376576">
        <ele>71.058540</ele>
        <time>2026-08-14T01:54:15.000Z</time>
      </trkpt>
      <trkpt lat="22.771289" lon="108.376570">
        <ele>71.037217</ele>
        <time>2026-08-14T01:54:16.000Z</time>
      </trkpt>
      <trkpt lat="22.771258" lon="108.376561">
        <ele>71.022124</ele>
        <time>2026-08-14T01:54:17.000Z</time>
      </trkpt>
      <trkpt lat="22.771206" lon="108.376560">
        <ele>70.997665</ele>
        <time>2026-08-14T01:54:18.000Z</time>
      </trkpt>
      <trkpt lat="22.771157" lon="108.376557">
        <ele>70.974583</ele>
        <time>2026-08-14T01:54:19.000Z</time>
      </trkpt>
      <trkpt lat="22.771119" lon="108.376546">
        <ele>70.956086</ele>
        <time>2026-08-14T01:54:20.000Z</time>
      </trkpt>
      <trkpt lat="22.771069" lon="108.376545">
        <ele>70.932567</ele>
        <time>2026-08-14T01:54:21.000Z</time>
      </trkpt>
      <trkpt lat="22.771013" lon="108.376541">
        <ele>70.906173</ele>
        <time>2026-08-14T01:54:22.000Z</time>
      </trkpt>
      <trkpt lat="22.770959" lon="108.376526">
        <ele>70.879958</ele>
        <time>2026-08-14T01:54:23.000Z</time>
      </trkpt>
      <trkpt lat="22.770926" lon="108.376515">
        <ele>70.863721</ele>
        <time>2026-08-14T01:54:24.000Z</time>
      </trkpt>
      <trkpt lat="22.770897" lon="108.376494">
        <ele>70.847322</ele>
        <time>2026-08-14T01:54:25.000Z</time>
      </trkpt>
      <trkpt lat="22.770845" lon="108.376490">
        <ele>70.822805</ele>
        <time>2026-08-14T01:54:26.000Z</time>
      </trkpt>
      <trkpt lat="22.770794" lon="108.376496">
        <ele>70.798679</ele>
        <time>2026-08-14T01:54:27.000Z</time>
      </trkpt>
      <trkpt lat="22.770734" lon="108.376484">
        <ele>70.769985</ele>
        <time>2026-08-14T01:54:28.000Z</time>
      </trkpt>
      <trkpt lat="22.770684" lon="108.376484">
        <ele>70.746470</ele>
        <time>2026-08-14T01:54:29.000Z</time>
      </trkpt>
      <trkpt lat="22.770628" lon="108.376496">
        <ele>70.719624</ele>
        <time>2026-08-14T01:54:30.000Z</time>
      </trkpt>
      <trkpt lat="22.770579" lon="108.376502">
        <ele>70.696433</ele>
        <time>2026-08-14T01:54:31.000Z</time>
      </trkpt>
      <trkpt lat="22.770535" lon="108.376502">
        <ele>70.675740</ele>
        <time>2026-08-14T01:54:32.000Z</time>
      </trkpt>
      <trkpt lat="22.770496" lon="108.376501">
        <ele>70.657393</ele>
        <time>2026-08-14T01:54:33.000Z</time>
      </trkpt>
      <trkpt lat="22.770455" lon="108.376508">
        <ele>70.637873</ele>
        <time>2026-08-14T01:54:34.000Z</time>
      </trkpt>
      <trkpt lat="22.770416" lon="108.376509">
        <ele>70.619526</ele>
        <time>2026-08-14T01:54:35.000Z</time>
      </trkpt>
      <trkpt lat="22.770385" lon="108.376513">
        <ele>70.604844</ele>
        <time>2026-08-14T01:54:36.000Z</time>
      </trkpt>
      <trkpt lat="22.770358" lon="108.376513">
        <ele>70.592146</ele>
        <time>2026-08-14T01:54:37.000Z</time>
      </trkpt>
      <trkpt lat="22.770339" lon="108.376517">
        <ele>70.583044</ele>
        <time>2026-08-14T01:54:38.000Z</time>
      </trkpt>
      <trkpt lat="22.770331" lon="108.376522">
        <ele>70.578701</ele>
        <time>2026-08-14T01:54:39.000Z</time>
      </trkpt>
      <trkpt lat="22.770327" lon="108.376524">
        <ele>70.576630</ele>
        <time>2026-08-14T01:54:40.000Z</time>
      </trkpt>
      <trkpt lat="22.770317" lon="108.376527">
        <ele>70.571750</ele>
        <time>2026-08-14T01:54:41.000Z</time>
      </trkpt>
      <trkpt lat="22.770311" lon="108.376531">
        <ele>70.568438</ele>
        <time>2026-08-14T01:54:42.000Z</time>
      </trkpt>
      <trkpt lat="22.770185" lon="108.376683">
        <ele>70.479803</ele>
        <time>2026-08-14T01:55:55.000Z</time>
      </trkpt>
      <trkpt lat="22.770148" lon="108.376680">
        <ele>70.462353</ele>
        <time>2026-08-14T01:55:56.000Z</time>
      </trkpt>
      <trkpt lat="22.770116" lon="108.376686">
        <ele>70.451564</ele>
        <time>2026-08-14T01:55:57.000Z</time>
      </trkpt>
      <trkpt lat="22.770084" lon="108.376699">
        <ele>70.461016</ele>
        <time>2026-08-14T01:55:58.000Z</time>
      </trkpt>
      <trkpt lat="22.770056" lon="108.376718">
        <ele>70.470152</ele>
        <time>2026-08-14T01:55:59.000Z</time>
      </trkpt>
      <trkpt lat="22.770021" lon="108.376743">
        <ele>70.481744</ele>
        <time>2026-08-14T01:56:00.000Z</time>
      </trkpt>
      <trkpt lat="22.769984" lon="108.376767">
        <ele>70.493669</ele>
        <time>2026-08-14T01:56:01.000Z</time>
      </trkpt>
      <trkpt lat="22.769946" lon="108.376790">
        <ele>70.505706</ele>
        <time>2026-08-14T01:56:02.000Z</time>
      </trkpt>
      <trkpt lat="22.769909" lon="108.376815">
        <ele>70.517764</ele>
        <time>2026-08-14T01:56:03.000Z</time>
      </trkpt>
      <trkpt lat="22.769870" lon="108.376842">
        <ele>70.530562</ele>
        <time>2026-08-14T01:56:04.000Z</time>
      </trkpt>
      <trkpt lat="22.769831" lon="108.376871">
        <ele>70.543642</ele>
        <time>2026-08-14T01:56:05.000Z</time>
      </trkpt>
      <trkpt lat="22.769796" lon="108.376902">
        <ele>70.556141</ele>
        <time>2026-08-14T01:56:06.000Z</time>
      </trkpt>
      <trkpt lat="22.769763" lon="108.376938">
        <ele>70.569088</ele>
        <time>2026-08-14T01:56:07.000Z</time>
      </trkpt>
      <trkpt lat="22.769734" lon="108.376980">
        <ele>70.582470</ele>
        <time>2026-08-14T01:56:08.000Z</time>
      </trkpt>
      <trkpt lat="22.769703" lon="108.377022">
        <ele>70.596191</ele>
        <time>2026-08-14T01:56:09.000Z</time>
      </trkpt>
      <trkpt lat="22.769677" lon="108.377066">
        <ele>70.609520</ele>
        <time>2026-08-14T01:56:10.000Z</time>
      </trkpt>
      <trkpt lat="22.769657" lon="108.377113">
        <ele>70.622722</ele>
        <time>2026-08-14T01:56:11.000Z</time>
      </trkpt>
      <trkpt lat="22.769636" lon="108.377161">
        <ele>70.636272</ele>
        <time>2026-08-14T01:56:12.000Z</time>
      </trkpt>
      <trkpt lat="22.769622" lon="108.377216">
        <ele>70.650824</ele>
        <time>2026-08-14T01:56:13.000Z</time>
      </trkpt>
      <trkpt lat="22.769608" lon="108.377269">
        <ele>70.664885</ele>
        <time>2026-08-14T01:56:14.000Z</time>
      </trkpt>
      <trkpt lat="22.769584" lon="108.377316">
        <ele>70.678588</ele>
        <time>2026-08-14T01:56:15.000Z</time>
      </trkpt>
      <trkpt lat="22.769563" lon="108.377364">
        <ele>70.692138</ele>
        <time>2026-08-14T01:56:16.000Z</time>
      </trkpt>
      <trkpt lat="22.769538" lon="108.377414">
        <ele>70.706644</ele>
        <time>2026-08-14T01:56:17.000Z</time>
      </trkpt>
      <trkpt lat="22.769514" lon="108.377463">
        <ele>70.720795</ele>
        <time>2026-08-14T01:56:18.000Z</time>
      </trkpt>
      <trkpt lat="22.769499" lon="108.377515">
        <ele>70.734691</ele>
        <time>2026-08-14T01:56:19.000Z</time>
      </trkpt>
      <trkpt lat="22.769474" lon="108.377565">
        <ele>70.749198</ele>
        <time>2026-08-14T01:56:20.000Z</time>
      </trkpt>
      <trkpt lat="22.769459" lon="108.377618">
        <ele>70.763337</ele>
        <time>2026-08-14T01:56:21.000Z</time>
      </trkpt>
      <trkpt lat="22.769444" lon="108.377666">
        <ele>70.776264</ele>
        <time>2026-08-14T01:56:22.000Z</time>
      </trkpt>
      <trkpt lat="22.769424" lon="108.377719">
        <ele>70.790869</ele>
        <time>2026-08-14T01:56:23.000Z</time>
      </trkpt>
      <trkpt lat="22.769398" lon="108.377770">
        <ele>70.805732</ele>
        <time>2026-08-14T01:56:24.000Z</time>
      </trkpt>
      <trkpt lat="22.769384" lon="108.377821">
        <ele>70.819304</ele>
        <time>2026-08-14T01:56:25.000Z</time>
      </trkpt>
      <trkpt lat="22.769371" lon="108.377871">
        <ele>70.832553</ele>
        <time>2026-08-14T01:56:26.000Z</time>
      </trkpt>
      <trkpt lat="22.769359" lon="108.377921">
        <ele>70.845730</ele>
        <time>2026-08-14T01:56:27.000Z</time>
      </trkpt>
      <trkpt lat="22.769341" lon="108.377974">
        <ele>70.860135</ele>
        <time>2026-08-14T01:56:28.000Z</time>
      </trkpt>
      <trkpt lat="22.769331" lon="108.378027">
        <ele>70.873933</ele>
        <time>2026-08-14T01:56:29.000Z</time>
      </trkpt>
      <trkpt lat="22.769322" lon="108.378079">
        <ele>70.887427</ele>
        <time>2026-08-14T01:56:30.000Z</time>
      </trkpt>
      <trkpt lat="22.769305" lon="108.378132">
        <ele>70.901739</ele>
        <time>2026-08-14T01:56:31.000Z</time>
      </trkpt>
      <trkpt lat="22.769285" lon="108.378183">
        <ele>70.915873</ele>
        <time>2026-08-14T01:56:32.000Z</time>
      </trkpt>
      <trkpt lat="22.769269" lon="108.378235">
        <ele>70.929855</ele>
        <time>2026-08-14T01:56:33.000Z</time>
      </trkpt>
      <trkpt lat="22.769255" lon="108.378287">
        <ele>70.943671</ele>
        <time>2026-08-14T01:56:34.000Z</time>
      </trkpt>
      <trkpt lat="22.769227" lon="108.378354">
        <ele>70.964736</ele>
        <time>2026-08-14T01:56:35.000Z</time>
      </trkpt>
      <trkpt lat="22.769205" lon="108.378415">
        <ele>70.984003</ele>
        <time>2026-08-14T01:56:36.000Z</time>
      </trkpt>
      <trkpt lat="22.769189" lon="108.378468">
        <ele>71.000407</ele>
        <time>2026-08-14T01:56:37.000Z</time>
      </trkpt>
      <trkpt lat="22.769169" lon="108.378523">
        <ele>71.017798</ele>
        <time>2026-08-14T01:56:38.000Z</time>
      </trkpt>
      <trkpt lat="22.769160" lon="108.378587">
        <ele>71.036842</ele>
        <time>2026-08-14T01:56:39.000Z</time>
      </trkpt>
      <trkpt lat="22.769158" lon="108.378634">
        <ele>71.050682</ele>
        <time>2026-08-14T01:56:40.000Z</time>
      </trkpt>
      <trkpt lat="22.769144" lon="108.378686">
        <ele>71.066617</ele>
        <time>2026-08-14T01:56:41.000Z</time>
      </trkpt>
      <trkpt lat="22.769130" lon="108.378734">
        <ele>71.081426</ele>
        <time>2026-08-14T01:56:42.000Z</time>
      </trkpt>
      <trkpt lat="22.769125" lon="108.378789">
        <ele>71.097683</ele>
        <time>2026-08-14T01:56:43.000Z</time>
      </trkpt>
      <trkpt lat="22.769122" lon="108.378848">
        <ele>71.115064</ele>
        <time>2026-08-14T01:56:44.000Z</time>
      </trkpt>
      <trkpt lat="22.769103" lon="108.378897">
        <ele>71.130700</ele>
        <time>2026-08-14T01:56:45.000Z</time>
      </trkpt>
      <trkpt lat="22.769101" lon="108.378950">
        <ele>71.146304</ele>
        <time>2026-08-14T01:56:46.000Z</time>
      </trkpt>
      <trkpt lat="22.769103" lon="108.379004">
        <ele>71.162201</ele>
        <time>2026-08-14T01:56:47.000Z</time>
      </trkpt>
      <trkpt lat="22.769099" lon="108.379058">
        <ele>71.178136</ele>
        <time>2026-08-14T01:56:48.000Z</time>
      </trkpt>
      <trkpt lat="22.769091" lon="108.379108">
        <ele>71.193064</ele>
        <time>2026-08-14T01:56:49.000Z</time>
      </trkpt>
      <trkpt lat="22.769087" lon="108.379159">
        <ele>71.208120</ele>
        <time>2026-08-14T01:56:50.000Z</time>
      </trkpt>
      <trkpt lat="22.769083" lon="108.379213">
        <ele>71.224055</ele>
        <time>2026-08-14T01:56:51.000Z</time>
      </trkpt>
      <trkpt lat="22.769074" lon="108.379268">
        <ele>71.240487</ele>
        <time>2026-08-14T01:56:52.000Z</time>
      </trkpt>
      <trkpt lat="22.769077" lon="108.379319">
        <ele>71.255519</ele>
        <time>2026-08-14T01:56:53.000Z</time>
      </trkpt>
      <trkpt lat="22.769072" lon="108.379373">
        <ele>71.271483</ele>
        <time>2026-08-14T01:56:54.000Z</time>
      </trkpt>
      <trkpt lat="22.769073" lon="108.379422">
        <ele>71.285900</ele>
        <time>2026-08-14T01:56:55.000Z</time>
      </trkpt>
      <trkpt lat="22.769081" lon="108.379465">
        <ele>71.298804</ele>
        <time>2026-08-14T01:56:56.000Z</time>
      </trkpt>
      <trkpt lat="22.769082" lon="108.379511">
        <ele>71.312339</ele>
        <time>2026-08-14T01:56:57.000Z</time>
      </trkpt>
      <trkpt lat="22.769079" lon="108.379563">
        <ele>71.327665</ele>
        <time>2026-08-14T01:56:58.000Z</time>
      </trkpt>
      <trkpt lat="22.769078" lon="108.379610">
        <ele>71.341494</ele>
        <time>2026-08-14T01:56:59.000Z</time>
      </trkpt>
      <trkpt lat="22.769067" lon="108.379660">
        <ele>71.356614</ele>
        <time>2026-08-14T01:57:00.000Z</time>
      </trkpt>
      <trkpt lat="22.769056" lon="108.379715">
        <ele>71.373169</ele>
        <time>2026-08-14T01:57:01.000Z</time>
      </trkpt>
      <trkpt lat="22.769042" lon="108.379767">
        <ele>71.389104</ele>
        <time>2026-08-14T01:57:02.000Z</time>
      </trkpt>
      <trkpt lat="22.769036" lon="108.379823">
        <ele>71.405687</ele>
        <time>2026-08-14T01:57:03.000Z</time>
      </trkpt>
      <trkpt lat="22.769026" lon="108.379879">
        <ele>71.422466</ele>
        <time>2026-08-14T01:57:04.000Z</time>
      </trkpt>
      <trkpt lat="22.769020" lon="108.379937">
        <ele>71.439634</ele>
        <time>2026-08-14T01:57:05.000Z</time>
      </trkpt>
      <trkpt lat="22.769007" lon="108.379991">
        <ele>71.456051</ele>
        <time>2026-08-14T01:57:06.000Z</time>
      </trkpt>
      <trkpt lat="22.769002" lon="108.380056">
        <ele>71.475237</ele>
        <time>2026-08-14T01:57:07.000Z</time>
      </trkpt>
      <trkpt lat="22.768988" lon="108.380111">
        <ele>71.492021</ele>
        <time>2026-08-14T01:57:08.000Z</time>
      </trkpt>
      <trkpt lat="22.768972" lon="108.380167">
        <ele>71.509266</ele>
        <time>2026-08-14T01:57:09.000Z</time>
      </trkpt>
      <trkpt lat="22.768964" lon="108.380222">
        <ele>71.510875</ele>
        <time>2026-08-14T01:57:10.000Z</time>
      </trkpt>
      <trkpt lat="22.768955" lon="108.380279">
        <ele>71.471328</ele>
        <time>2026-08-14T01:57:11.000Z</time>
      </trkpt>
      <trkpt lat="22.768947" lon="108.380337">
        <ele>71.431222</ele>
        <time>2026-08-14T01:57:12.000Z</time>
      </trkpt>
      <trkpt lat="22.768934" lon="108.380393">
        <ele>71.391731</ele>
        <time>2026-08-14T01:57:13.000Z</time>
      </trkpt>
      <trkpt lat="22.768922" lon="108.380449">
        <ele>71.352414</ele>
        <time>2026-08-14T01:57:14.000Z</time>
      </trkpt>
      <trkpt lat="22.768910" lon="108.380504">
        <ele>71.313763</ele>
        <time>2026-08-14T01:57:15.000Z</time>
      </trkpt>
      <trkpt lat="22.768900" lon="108.380561">
        <ele>71.274084</ele>
        <time>2026-08-14T01:57:16.000Z</time>
      </trkpt>
      <trkpt lat="22.768890" lon="108.380618">
        <ele>71.234404</ele>
        <time>2026-08-14T01:57:17.000Z</time>
      </trkpt>
      <trkpt lat="22.768885" lon="108.380673">
        <ele>71.196609</ele>
        <time>2026-08-14T01:57:18.000Z</time>
      </trkpt>
      <trkpt lat="22.768875" lon="108.380731">
        <ele>71.156258</ele>
        <time>2026-08-14T01:57:19.000Z</time>
      </trkpt>
      <trkpt lat="22.768867" lon="108.380788">
        <ele>71.116829</ele>
        <time>2026-08-14T01:57:20.000Z</time>
      </trkpt>
      <trkpt lat="22.768859" lon="108.380845">
        <ele>71.077400</ele>
        <time>2026-08-14T01:57:21.000Z</time>
      </trkpt>
      <trkpt lat="22.768857" lon="108.380910">
        <ele>71.032924</ele>
        <time>2026-08-14T01:57:22.000Z</time>
      </trkpt>
      <trkpt lat="22.768847" lon="108.380969">
        <ele>70.991900</ele>
        <time>2026-08-14T01:57:23.000Z</time>
      </trkpt>
      <trkpt lat="22.768845" lon="108.381037">
        <ele>70.945374</ele>
        <time>2026-08-14T01:57:24.000Z</time>
      </trkpt>
      <trkpt lat="22.768843" lon="108.381101">
        <ele>70.901581</ele>
        <time>2026-08-14T01:57:25.000Z</time>
      </trkpt>
      <trkpt lat="22.768839" lon="108.381164">
        <ele>70.858396</ele>
        <time>2026-08-14T01:57:26.000Z</time>
      </trkpt>
      <trkpt lat="22.768836" lon="108.381222">
        <ele>70.818670</ele>
        <time>2026-08-14T01:57:27.000Z</time>
      </trkpt>
      <trkpt lat="22.768832" lon="108.381283">
        <ele>70.776849</ele>
        <time>2026-08-14T01:57:28.000Z</time>
      </trkpt>
      <trkpt lat="22.768824" lon="108.381343">
        <ele>70.735390</ele>
        <time>2026-08-14T01:57:29.000Z</time>
      </trkpt>
      <trkpt lat="22.768818" lon="108.381403">
        <ele>70.694118</ele>
        <time>2026-08-14T01:57:30.000Z</time>
      </trkpt>
      <trkpt lat="22.768811" lon="108.381462">
        <ele>70.653437</ele>
        <time>2026-08-14T01:57:31.000Z</time>
      </trkpt>
      <trkpt lat="22.768804" lon="108.381524">
        <ele>70.610721</ele>
        <time>2026-08-14T01:57:32.000Z</time>
      </trkpt>
      <trkpt lat="22.768795" lon="108.381585">
        <ele>70.568475</ele>
        <time>2026-08-14T01:57:33.000Z</time>
      </trkpt>
      <trkpt lat="22.768785" lon="108.381642">
        <ele>70.528795</ele>
        <time>2026-08-14T01:57:34.000Z</time>
      </trkpt>
      <trkpt lat="22.768769" lon="108.381696">
        <ele>70.490007</ele>
        <time>2026-08-14T01:57:35.000Z</time>
      </trkpt>
      <trkpt lat="22.768762" lon="108.381745">
        <ele>70.456098</ele>
        <time>2026-08-14T01:57:36.000Z</time>
      </trkpt>
      <trkpt lat="22.768756" lon="108.381792">
        <ele>70.423650</ele>
        <time>2026-08-14T01:57:37.000Z</time>
      </trkpt>
      <trkpt lat="22.768751" lon="108.381834">
        <ele>70.394689</ele>
        <time>2026-08-14T01:57:38.000Z</time>
      </trkpt>
      <trkpt lat="22.768744" lon="108.381867">
        <ele>70.371532</ele>
        <time>2026-08-14T01:57:39.000Z</time>
      </trkpt>
      <trkpt lat="22.768738" lon="108.381897">
        <ele>70.350539</ele>
        <time>2026-08-14T01:57:40.000Z</time>
      </trkpt>
      <trkpt lat="22.768733" lon="108.381917">
        <ele>70.336368</ele>
        <time>2026-08-14T01:57:41.000Z</time>
      </trkpt>
      <trkpt lat="22.768734" lon="108.381926">
        <ele>70.330169</ele>
        <time>2026-08-14T01:57:42.000Z</time>
      </trkpt>
      <trkpt lat="22.768742" lon="108.381933">
        <ele>70.322545</ele>
        <time>2026-08-14T01:57:43.000Z</time>
      </trkpt>
      <trkpt lat="22.768742" lon="108.381933">
        <ele>70.322545</ele>
        <time>2026-08-14T01:57:44.000Z</time>
      </trkpt>
      <trkpt lat="22.768742" lon="108.381933">
        <ele>70.322545</ele>
        <time>2026-08-14T01:57:45.000Z</time>
      </trkpt>
      <trkpt lat="22.768889" lon="108.382034">
        <ele>70.193484</ele>
        <time>2026-08-14T01:59:06.000Z</time>
      </trkpt>
      <trkpt lat="22.768880" lon="108.382059">
        <ele>70.168007</ele>
        <time>2026-08-14T01:59:07.000Z</time>
      </trkpt>
      <trkpt lat="22.768869" lon="108.382086">
        <ele>70.135933</ele>
        <time>2026-08-14T01:59:08.000Z</time>
      </trkpt>
      <trkpt lat="22.768862" lon="108.382115">
        <ele>70.103360</ele>
        <time>2026-08-14T01:59:09.000Z</time>
      </trkpt>
      <trkpt lat="22.768859" lon="108.382146">
        <ele>70.069490</ele>
        <time>2026-08-14T01:59:10.000Z</time>
      </trkpt>
      <trkpt lat="22.768852" lon="108.382180">
        <ele>70.031636</ele>
        <time>2026-08-14T01:59:11.000Z</time>
      </trkpt>
      <trkpt lat="22.768841" lon="108.382222">
        <ele>69.984193</ele>
        <time>2026-08-14T01:59:12.000Z</time>
      </trkpt>
      <trkpt lat="22.768832" lon="108.382266">
        <ele>69.935220</ele>
        <time>2026-08-14T01:59:13.000Z</time>
      </trkpt>
      <trkpt lat="22.768820" lon="108.382312">
        <ele>69.883275</ele>
        <time>2026-08-14T01:59:14.000Z</time>
      </trkpt>
      <trkpt lat="22.768808" lon="108.382360">
        <ele>69.829235</ele>
        <time>2026-08-14T01:59:15.000Z</time>
      </trkpt>
      <trkpt lat="22.768795" lon="108.382408">
        <ele>69.774875</ele>
        <time>2026-08-14T01:59:16.000Z</time>
      </trkpt>
      <trkpt lat="22.768782" lon="108.382458">
        <ele>69.718426</ele>
        <time>2026-08-14T01:59:17.000Z</time>
      </trkpt>
      <trkpt lat="22.768768" lon="108.382506">
        <ele>69.663722</ele>
        <time>2026-08-14T01:59:18.000Z</time>
      </trkpt>
      <trkpt lat="22.768752" lon="108.382554">
        <ele>69.608261</ele>
        <time>2026-08-14T01:59:19.000Z</time>
      </trkpt>
      <trkpt lat="22.768740" lon="108.382605">
        <ele>69.551069</ele>
        <time>2026-08-14T01:59:20.000Z</time>
      </trkpt>
      <trkpt lat="22.768724" lon="108.382659">
        <ele>69.489437</ele>
        <time>2026-08-14T01:59:21.000Z</time>
      </trkpt>
      <trkpt lat="22.768711" lon="108.382714">
        <ele>69.427742</ele>
        <time>2026-08-14T01:59:22.000Z</time>
      </trkpt>
      <trkpt lat="22.768700" lon="108.382768">
        <ele>69.367650</ele>
        <time>2026-08-14T01:59:23.000Z</time>
      </trkpt>
      <trkpt lat="22.768684" lon="108.382826">
        <ele>69.301867</ele>
        <time>2026-08-14T01:59:24.000Z</time>
      </trkpt>
      <trkpt lat="22.768666" lon="108.382882">
        <ele>69.237426</ele>
        <time>2026-08-14T01:59:25.000Z</time>
      </trkpt>
      <trkpt lat="22.768665" lon="108.382935">
        <ele>69.179824</ele>
        <time>2026-08-14T01:59:26.000Z</time>
      </trkpt>
      <trkpt lat="22.768645" lon="108.382991">
        <ele>69.114570</ele>
        <time>2026-08-14T01:59:27.000Z</time>
      </trkpt>
      <trkpt lat="22.768627" lon="108.383045">
        <ele>69.052177</ele>
        <time>2026-08-14T01:59:28.000Z</time>
      </trkpt>
      <trkpt lat="22.768605" lon="108.383089">
        <ele>68.997789</ele>
        <time>2026-08-14T01:59:29.000Z</time>
      </trkpt>
      <trkpt lat="22.768582" lon="108.383132">
        <ele>68.943773</ele>
        <time>2026-08-14T01:59:30.000Z</time>
      </trkpt>
      <trkpt lat="22.768572" lon="108.383177">
        <ele>68.893476</ele>
        <time>2026-08-14T01:59:31.000Z</time>
      </trkpt>
      <trkpt lat="22.768554" lon="108.383231">
        <ele>68.831083</ele>
        <time>2026-08-14T01:59:32.000Z</time>
      </trkpt>
      <trkpt lat="22.768535" lon="108.383289">
        <ele>68.764201</ele>
        <time>2026-08-14T01:59:33.000Z</time>
      </trkpt>
      <trkpt lat="22.768518" lon="108.383342">
        <ele>68.703225</ele>
        <time>2026-08-14T01:59:34.000Z</time>
      </trkpt>
      <trkpt lat="22.768507" lon="108.383400">
        <ele>68.638883</ele>
        <time>2026-08-14T01:59:35.000Z</time>
      </trkpt>
      <trkpt lat="22.768495" lon="108.383453">
        <ele>68.579582</ele>
        <time>2026-08-14T01:59:36.000Z</time>
      </trkpt>
      <trkpt lat="22.768486" lon="108.383512">
        <ele>68.514601</ele>
        <time>2026-08-14T01:59:37.000Z</time>
      </trkpt>
      <trkpt lat="22.768474" lon="108.383572">
        <ele>68.447889</ele>
        <time>2026-08-14T01:59:38.000Z</time>
      </trkpt>
      <trkpt lat="22.768459" lon="108.383633">
        <ele>68.379289</ele>
        <time>2026-08-14T01:59:39.000Z</time>
      </trkpt>
      <trkpt lat="22.768439" lon="108.383679">
        <ele>68.324028</ele>
        <time>2026-08-14T01:59:40.000Z</time>
      </trkpt>
      <trkpt lat="22.768424" lon="108.383738">
        <ele>68.257526</ele>
        <time>2026-08-14T01:59:41.000Z</time>
      </trkpt>
      <trkpt lat="22.768419" lon="108.383809">
        <ele>68.180152</ele>
        <time>2026-08-14T01:59:42.000Z</time>
      </trkpt>
      <trkpt lat="22.768425" lon="108.383885">
        <ele>68.097268</ele>
        <time>2026-08-14T01:59:43.000Z</time>
      </trkpt>
      <trkpt lat="22.768413" lon="108.383951">
        <ele>68.049686</ele>
        <time>2026-08-14T01:59:44.000Z</time>
      </trkpt>
      <trkpt lat="22.768397" lon="108.384018">
        <ele>68.018619</ele>
        <time>2026-08-14T01:59:45.000Z</time>
      </trkpt>
      <trkpt lat="22.768386" lon="108.384077">
        <ele>67.991599</ele>
        <time>2026-08-14T01:59:46.000Z</time>
      </trkpt>
      <trkpt lat="22.768373" lon="108.384146">
        <ele>67.959987</ele>
        <time>2026-08-14T01:59:47.000Z</time>
      </trkpt>
      <trkpt lat="22.768358" lon="108.384214">
        <ele>67.928602</ele>
        <time>2026-08-14T01:59:48.000Z</time>
      </trkpt>
      <trkpt lat="22.768343" lon="108.384286">
        <ele>67.895468</ele>
        <time>2026-08-14T01:59:49.000Z</time>
      </trkpt>
      <trkpt lat="22.768334" lon="108.384355">
        <ele>67.864187</ele>
        <time>2026-08-14T01:59:50.000Z</time>
      </trkpt>
      <trkpt lat="22.768321" lon="108.384424">
        <ele>67.832575</ele>
        <time>2026-08-14T01:59:51.000Z</time>
      </trkpt>
      <trkpt lat="22.768308" lon="108.384493">
        <ele>67.800962</ele>
        <time>2026-08-14T01:59:52.000Z</time>
      </trkpt>
      <trkpt lat="22.768293" lon="108.384561">
        <ele>67.769577</ele>
        <time>2026-08-14T01:59:53.000Z</time>
      </trkpt>
      <trkpt lat="22.768282" lon="108.384634">
        <ele>67.736375</ele>
        <time>2026-08-14T01:59:54.000Z</time>
      </trkpt>
      <trkpt lat="22.768268" lon="108.384703">
        <ele>67.704661</ele>
        <time>2026-08-14T01:59:55.000Z</time>
      </trkpt>
      <trkpt lat="22.768260" lon="108.384772">
        <ele>67.673445</ele>
        <time>2026-08-14T01:59:56.000Z</time>
      </trkpt>
      <trkpt lat="22.768252" lon="108.384840">
        <ele>67.642674</ele>
        <time>2026-08-14T01:59:57.000Z</time>
      </trkpt>
      <trkpt lat="22.768245" lon="108.384908">
        <ele>67.611960</ele>
        <time>2026-08-14T01:59:58.000Z</time>
      </trkpt>
      <trkpt lat="22.768239" lon="108.384972">
        <ele>67.583084</ele>
        <time>2026-08-14T01:59:59.000Z</time>
      </trkpt>
      <trkpt lat="22.768233" lon="108.385036">
        <ele>67.554208</ele>
        <time>2026-08-14T02:00:00.000Z</time>
      </trkpt>
      <trkpt lat="22.768231" lon="108.385098">
        <ele>67.526360</ele>
        <time>2026-08-14T02:00:01.000Z</time>
      </trkpt>
      <trkpt lat="22.768225" lon="108.385161">
        <ele>67.497931</ele>
        <time>2026-08-14T02:00:02.000Z</time>
      </trkpt>
      <trkpt lat="22.768214" lon="108.385224">
        <ele>67.469149</ele>
        <time>2026-08-14T02:00:03.000Z</time>
      </trkpt>
      <trkpt lat="22.768202" lon="108.385286">
        <ele>67.440712</ele>
        <time>2026-08-14T02:00:04.000Z</time>
      </trkpt>
      <trkpt lat="22.768190" lon="108.385350">
        <ele>67.411396</ele>
        <time>2026-08-14T02:00:05.000Z</time>
      </trkpt>
      <trkpt lat="22.768180" lon="108.385412">
        <ele>67.383143</ele>
        <time>2026-08-14T02:00:06.000Z</time>
      </trkpt>
      <trkpt lat="22.768170" lon="108.385472">
        <ele>67.355774</ele>
        <time>2026-08-14T02:00:07.000Z</time>
      </trkpt>
      <trkpt lat="22.768164" lon="108.385531">
        <ele>67.329129</ele>
        <time>2026-08-14T02:00:08.000Z</time>
      </trkpt>
      <trkpt lat="22.768154" lon="108.385594">
        <ele>67.300434</ele>
        <time>2026-08-14T02:00:09.000Z</time>
      </trkpt>
      <trkpt lat="22.768149" lon="108.385651">
        <ele>67.274733</ele>
        <time>2026-08-14T02:00:10.000Z</time>
      </trkpt>
      <trkpt lat="22.768146" lon="108.385709">
        <ele>67.248657</ele>
        <time>2026-08-14T02:00:11.000Z</time>
      </trkpt>
      <trkpt lat="22.768142" lon="108.385764">
        <ele>67.223892</ele>
        <time>2026-08-14T02:00:12.000Z</time>
      </trkpt>
      <trkpt lat="22.768140" lon="108.385820">
        <ele>67.198736</ele>
        <time>2026-08-14T02:00:13.000Z</time>
      </trkpt>
      <trkpt lat="22.768136" lon="108.385881">
        <ele>67.203799</ele>
        <time>2026-08-14T02:00:14.000Z</time>
      </trkpt>
      <trkpt lat="22.768133" lon="108.385941">
        <ele>67.219068</ele>
        <time>2026-08-14T02:00:15.000Z</time>
      </trkpt>
      <trkpt lat="22.768128" lon="108.386001">
        <ele>67.234376</ele>
        <time>2026-08-14T02:00:16.000Z</time>
      </trkpt>
      <trkpt lat="22.768125" lon="108.386059">
        <ele>67.249138</ele>
        <time>2026-08-14T02:00:17.000Z</time>
      </trkpt>
      <trkpt lat="22.768121" lon="108.386118">
        <ele>67.264171</ele>
        <time>2026-08-14T02:00:18.000Z</time>
      </trkpt>
      <trkpt lat="22.768117" lon="108.386176">
        <ele>67.278950</ele>
        <time>2026-08-14T02:00:19.000Z</time>
      </trkpt>
      <trkpt lat="22.768113" lon="108.386231">
        <ele>67.292969</ele>
        <time>2026-08-14T02:00:20.000Z</time>
      </trkpt>
      <trkpt lat="22.768108" lon="108.386286">
        <ele>67.307013</ele>
        <time>2026-08-14T02:00:21.000Z</time>
      </trkpt>
      <trkpt lat="22.768103" lon="108.386327">
        <ele>67.317522</ele>
        <time>2026-08-14T02:00:22.000Z</time>
      </trkpt>
      <trkpt lat="22.768095" lon="108.386357">
        <ele>67.325458</ele>
        <time>2026-08-14T02:00:23.000Z</time>
      </trkpt>
      <trkpt lat="22.768093" lon="108.386377">
        <ele>67.330570</ele>
        <time>2026-08-14T02:00:24.000Z</time>
      </trkpt>
      <trkpt lat="22.768092" lon="108.386399">
        <ele>67.336167</ele>
        <time>2026-08-14T02:00:25.000Z</time>
      </trkpt>
      <trkpt lat="22.768086" lon="108.386422">
        <ele>67.342241</ele>
        <time>2026-08-14T02:00:26.000Z</time>
      </trkpt>
      <trkpt lat="22.768080" lon="108.386444">
        <ele>67.348070</ele>
        <time>2026-08-14T02:00:27.000Z</time>
      </trkpt>
      <trkpt lat="22.768073" lon="108.386463">
        <ele>67.353269</ele>
        <time>2026-08-14T02:00:28.000Z</time>
      </trkpt>
      <trkpt lat="22.768072" lon="108.386475">
        <ele>67.356331</ele>
        <time>2026-08-14T02:00:29.000Z</time>
      </trkpt>
      <trkpt lat="22.768076" lon="108.386479">
        <ele>67.357831</ele>
        <time>2026-08-14T02:00:30.000Z</time>
      </trkpt>
      <trkpt lat="22.768075" lon="108.386484">
        <ele>67.359131</ele>
        <time>2026-08-14T02:00:31.000Z</time>
      </trkpt>
      <trkpt lat="22.768074" lon="108.386490">
        <ele>67.360680</ele>
        <time>2026-08-14T02:00:32.000Z</time>
      </trkpt>
      <trkpt lat="22.767990" lon="108.386635">
        <ele>67.404194</ele>
        <time>2026-08-14T02:01:25.000Z</time>
      </trkpt>
      <trkpt lat="22.767985" lon="108.386669">
        <ele>67.412943</ele>
        <time>2026-08-14T02:01:26.000Z</time>
      </trkpt>
      <trkpt lat="22.767980" lon="108.386704">
        <ele>67.421943</ele>
        <time>2026-08-14T02:01:27.000Z</time>
      </trkpt>
      <trkpt lat="22.767978" lon="108.386740">
        <ele>67.431107</ele>
        <time>2026-08-14T02:01:28.000Z</time>
      </trkpt>
      <trkpt lat="22.767975" lon="108.386774">
        <ele>67.439786</ele>
        <time>2026-08-14T02:01:29.000Z</time>
      </trkpt>
      <trkpt lat="22.767973" lon="108.386806">
        <ele>67.447936</ele>
        <time>2026-08-14T02:01:30.000Z</time>
      </trkpt>
      <trkpt lat="22.767974" lon="108.386848">
        <ele>67.458612</ele>
        <time>2026-08-14T02:01:31.000Z</time>
      </trkpt>
      <trkpt lat="22.767973" lon="108.386895">
        <ele>67.470559</ele>
        <time>2026-08-14T02:01:32.000Z</time>
      </trkpt>
      <trkpt lat="22.767969" lon="108.386938">
        <ele>67.481541</ele>
        <time>2026-08-14T02:01:33.000Z</time>
      </trkpt>
      <trkpt lat="22.767964" lon="108.386982">
        <ele>67.492806</ele>
        <time>2026-08-14T02:01:34.000Z</time>
      </trkpt>
      <trkpt lat="22.767957" lon="108.387030">
        <ele>67.505155</ele>
        <time>2026-08-14T02:01:35.000Z</time>
      </trkpt>
      <trkpt lat="22.767946" lon="108.387078">
        <ele>67.517723</ele>
        <time>2026-08-14T02:01:36.000Z</time>
      </trkpt>
      <trkpt lat="22.767934" lon="108.387124">
        <ele>67.529871</ele>
        <time>2026-08-14T02:01:37.000Z</time>
      </trkpt>
      <trkpt lat="22.767921" lon="108.387171">
        <ele>67.542340</ele>
        <time>2026-08-14T02:01:38.000Z</time>
      </trkpt>
      <trkpt lat="22.767905" lon="108.387219">
        <ele>67.555309</ele>
        <time>2026-08-14T02:01:39.000Z</time>
      </trkpt>
      <trkpt lat="22.767888" lon="108.387263">
        <ele>67.567432</ele>
        <time>2026-08-14T02:01:40.000Z</time>
      </trkpt>
      <trkpt lat="22.767872" lon="108.387308">
        <ele>67.579687</ele>
        <time>2026-08-14T02:01:41.000Z</time>
      </trkpt>
      <trkpt lat="22.767859" lon="108.387358">
        <ele>67.592888</ele>
        <time>2026-08-14T02:01:42.000Z</time>
      </trkpt>
      <trkpt lat="22.767847" lon="108.387409">
        <ele>67.606263</ele>
        <time>2026-08-14T02:01:43.000Z</time>
      </trkpt>
      <trkpt lat="22.767839" lon="108.387460">
        <ele>67.619409</ele>
        <time>2026-08-14T02:01:44.000Z</time>
      </trkpt>
      <trkpt lat="22.767828" lon="108.387513">
        <ele>67.633213</ele>
        <time>2026-08-14T02:01:45.000Z</time>
      </trkpt>
      <trkpt lat="22.767818" lon="108.387567">
        <ele>67.647209</ele>
        <time>2026-08-14T02:01:46.000Z</time>
      </trkpt>
      <trkpt lat="22.767806" lon="108.387622">
        <ele>67.661571</ele>
        <time>2026-08-14T02:01:47.000Z</time>
      </trkpt>
      <trkpt lat="22.767792" lon="108.387675">
        <ele>67.675580</ele>
        <time>2026-08-14T02:01:48.000Z</time>
      </trkpt>
      <trkpt lat="22.767780" lon="108.387728">
        <ele>67.690079</ele>
        <time>2026-08-14T02:01:49.000Z</time>
      </trkpt>
      <trkpt lat="22.767769" lon="108.387780">
        <ele>67.708581</ele>
        <time>2026-08-14T02:01:50.000Z</time>
      </trkpt>
      <trkpt lat="22.767758" lon="108.387835">
        <ele>67.728098</ele>
        <time>2026-08-14T02:01:51.000Z</time>
      </trkpt>
      <trkpt lat="22.767745" lon="108.387888">
        <ele>67.747118</ele>
        <time>2026-08-14T02:01:52.000Z</time>
      </trkpt>
      <trkpt lat="22.767731" lon="108.387941">
        <ele>67.766237</ele>
        <time>2026-08-14T02:01:53.000Z</time>
      </trkpt>
      <trkpt lat="22.767720" lon="108.387991">
        <ele>67.784063</ele>
        <time>2026-08-14T02:01:54.000Z</time>
      </trkpt>
      <trkpt lat="22.767709" lon="108.388041">
        <ele>67.801890</ele>
        <time>2026-08-14T02:01:55.000Z</time>
      </trkpt>
      <trkpt lat="22.767698" lon="108.388094">
        <ele>67.820730</ele>
        <time>2026-08-14T02:01:56.000Z</time>
      </trkpt>
      <trkpt lat="22.767687" lon="108.388148">
        <ele>67.839908</ele>
        <time>2026-08-14T02:01:57.000Z</time>
      </trkpt>
      <trkpt lat="22.767678" lon="108.388201">
        <ele>67.858598</ele>
        <time>2026-08-14T02:01:58.000Z</time>
      </trkpt>
      <trkpt lat="22.767675" lon="108.388251">
        <ele>67.875974</ele>
        <time>2026-08-14T02:01:59.000Z</time>
      </trkpt>
      <trkpt lat="22.767665" lon="108.388303">
        <ele>67.894395</ele>
        <time>2026-08-14T02:02:00.000Z</time>
      </trkpt>
      <trkpt lat="22.767653" lon="108.388359">
        <ele>67.914334</ele>
        <time>2026-08-14T02:02:01.000Z</time>
      </trkpt>
      <trkpt lat="22.767640" lon="108.388413">
        <ele>67.933688</ele>
        <time>2026-08-14T02:02:02.000Z</time>
      </trkpt>
      <trkpt lat="22.767627" lon="108.388466">
        <ele>67.952708</ele>
        <time>2026-08-14T02:02:03.000Z</time>
      </trkpt>
      <trkpt lat="22.767613" lon="108.388520">
        <ele>67.972161</ele>
        <time>2026-08-14T02:02:04.000Z</time>
      </trkpt>
      <trkpt lat="22.767598" lon="108.388570">
        <ele>67.990395</ele>
        <time>2026-08-14T02:02:05.000Z</time>
      </trkpt>
      <trkpt lat="22.767580" lon="108.388622">
        <ele>68.009657</ele>
        <time>2026-08-14T02:02:06.000Z</time>
      </trkpt>
      <trkpt lat="22.767560" lon="108.388673">
        <ele>68.028877</ele>
        <time>2026-08-14T02:02:07.000Z</time>
      </trkpt>
      <trkpt lat="22.767540" lon="108.388725">
        <ele>68.048416</ele>
        <time>2026-08-14T02:02:08.000Z</time>
      </trkpt>
      <trkpt lat="22.767522" lon="108.388777">
        <ele>68.067678</ele>
        <time>2026-08-14T02:02:09.000Z</time>
      </trkpt>
      <trkpt lat="22.767505" lon="108.388829">
        <ele>68.086812</ele>
        <time>2026-08-14T02:02:10.000Z</time>
      </trkpt>
      <trkpt lat="22.767487" lon="108.388880">
        <ele>68.105750</ele>
        <time>2026-08-14T02:02:11.000Z</time>
      </trkpt>
      <trkpt lat="22.767471" lon="108.388934">
        <ele>68.125420</ele>
        <time>2026-08-14T02:02:12.000Z</time>
      </trkpt>
      <trkpt lat="22.767453" lon="108.388984">
        <ele>68.144034</ele>
        <time>2026-08-14T02:02:13.000Z</time>
      </trkpt>
      <trkpt lat="22.767434" lon="108.389036">
        <ele>68.163432</ele>
        <time>2026-08-14T02:02:14.000Z</time>
      </trkpt>
      <trkpt lat="22.767415" lon="108.389087">
        <ele>68.182507</ele>
        <time>2026-08-14T02:02:15.000Z</time>
      </trkpt>
      <trkpt lat="22.767396" lon="108.389139">
        <ele>68.201905</ele>
        <time>2026-08-14T02:02:16.000Z</time>
      </trkpt>
      <trkpt lat="22.767376" lon="108.389192">
        <ele>68.221765</ele>
        <time>2026-08-14T02:02:17.000Z</time>
      </trkpt>
      <trkpt lat="22.767358" lon="108.389245">
        <ele>68.241352</ele>
        <time>2026-08-14T02:02:18.000Z</time>
      </trkpt>
      <trkpt lat="22.767338" lon="108.389297">
        <ele>68.260891</ele>
        <time>2026-08-14T02:02:19.000Z</time>
      </trkpt>
      <trkpt lat="22.767318" lon="108.389348">
        <ele>68.280111</ele>
        <time>2026-08-14T02:02:20.000Z</time>
      </trkpt>
      <trkpt lat="22.767298" lon="108.389400">
        <ele>68.299650</ele>
        <time>2026-08-14T02:02:21.000Z</time>
      </trkpt>
      <trkpt lat="22.767276" lon="108.389451">
        <ele>68.319177</ele>
        <time>2026-08-14T02:02:22.000Z</time>
      </trkpt>
      <trkpt lat="22.767255" lon="108.389499">
        <ele>68.337602</ele>
        <time>2026-08-14T02:02:23.000Z</time>
      </trkpt>
      <trkpt lat="22.767231" lon="108.389549">
        <ele>68.357150</ele>
        <time>2026-08-14T02:02:24.000Z</time>
      </trkpt>
      <trkpt lat="22.767206" lon="108.389597">
        <ele>68.352455</ele>
        <time>2026-08-14T02:02:25.000Z</time>
      </trkpt>
      <trkpt lat="22.767186" lon="108.389647">
        <ele>68.334096</ele>
        <time>2026-08-14T02:02:26.000Z</time>
      </trkpt>
      <trkpt lat="22.767170" lon="108.389691">
        <ele>68.318165</ele>
        <time>2026-08-14T02:02:27.000Z</time>
      </trkpt>
      <trkpt lat="22.767147" lon="108.389745">
        <ele>68.298128</ele>
        <time>2026-08-14T02:02:28.000Z</time>
      </trkpt>
      <trkpt lat="22.767127" lon="108.389796">
        <ele>68.279461</ele>
        <time>2026-08-14T02:02:29.000Z</time>
      </trkpt>
      <trkpt lat="22.767104" lon="108.389843">
        <ele>68.261538</ele>
        <time>2026-08-14T02:02:30.000Z</time>
      </trkpt>
      <trkpt lat="22.767084" lon="108.389891">
        <ele>68.243795</ele>
        <time>2026-08-14T02:02:31.000Z</time>
      </trkpt>
      <trkpt lat="22.767057" lon="108.389940">
        <ele>68.224568</ele>
        <time>2026-08-14T02:02:32.000Z</time>
      </trkpt>
      <trkpt lat="22.767032" lon="108.389991">
        <ele>68.205112</ele>
        <time>2026-08-14T02:02:33.000Z</time>
      </trkpt>
      <trkpt lat="22.767007" lon="108.390041">
        <ele>68.185953</ele>
        <time>2026-08-14T02:02:34.000Z</time>
      </trkpt>
      <trkpt lat="22.766980" lon="108.390091">
        <ele>68.166436</ele>
        <time>2026-08-14T02:02:35.000Z</time>
      </trkpt>
      <trkpt lat="22.766950" lon="108.390142">
        <ele>68.146059</ele>
        <time>2026-08-14T02:02:36.000Z</time>
      </trkpt>
      <trkpt lat="22.766921" lon="108.390197">
        <ele>68.124718</ele>
        <time>2026-08-14T02:02:37.000Z</time>
      </trkpt>
      <trkpt lat="22.766894" lon="108.390248">
        <ele>68.104909</ele>
        <time>2026-08-14T02:02:38.000Z</time>
      </trkpt>
      <trkpt lat="22.766872" lon="108.390295">
        <ele>68.087154</ele>
        <time>2026-08-14T02:02:39.000Z</time>
      </trkpt>
      <trkpt lat="22.766848" lon="108.390343">
        <ele>68.068762</ele>
        <time>2026-08-14T02:02:40.000Z</time>
      </trkpt>
      <trkpt lat="22.766819" lon="108.390398">
        <ele>68.047421</ele>
        <time>2026-08-14T02:02:41.000Z</time>
      </trkpt>
      <trkpt lat="22.766800" lon="108.390444">
        <ele>68.030442</ele>
        <time>2026-08-14T02:02:42.000Z</time>
      </trkpt>
      <trkpt lat="22.766774" lon="108.390493">
        <ele>68.011400</ele>
        <time>2026-08-14T02:02:43.000Z</time>
      </trkpt>
      <trkpt lat="22.766754" lon="108.390534">
        <ele>67.995776</ele>
        <time>2026-08-14T02:02:44.000Z</time>
      </trkpt>
      <trkpt lat="22.766733" lon="108.390576">
        <ele>67.979682</ele>
        <time>2026-08-14T02:02:45.000Z</time>
      </trkpt>
      <trkpt lat="22.766705" lon="108.390624">
        <ele>67.960550</ele>
        <time>2026-08-14T02:02:46.000Z</time>
      </trkpt>
      <trkpt lat="22.766686" lon="108.390660">
        <ele>67.946578</ele>
        <time>2026-08-14T02:02:47.000Z</time>
      </trkpt>
      <trkpt lat="22.766655" lon="108.390707">
        <ele>67.927113</ele>
        <time>2026-08-14T02:02:48.000Z</time>
      </trkpt>
      <trkpt lat="22.766629" lon="108.390750">
        <ele>67.909793</ele>
        <time>2026-08-14T02:02:49.000Z</time>
      </trkpt>
      <trkpt lat="22.766607" lon="108.390792">
        <ele>67.893522</ele>
        <time>2026-08-14T02:02:50.000Z</time>
      </trkpt>
      <trkpt lat="22.766580" lon="108.390832">
        <ele>67.876824</ele>
        <time>2026-08-14T02:02:51.000Z</time>
      </trkpt>
      <trkpt lat="22.766551" lon="108.390873">
        <ele>67.859418</ele>
        <time>2026-08-14T02:02:52.000Z</time>
      </trkpt>
      <trkpt lat="22.766531" lon="108.390912">
        <ele>67.844387</ele>
        <time>2026-08-14T02:02:53.000Z</time>
      </trkpt>
      <trkpt lat="22.766502" lon="108.390954">
        <ele>67.826713</ele>
        <time>2026-08-14T02:02:54.000Z</time>
      </trkpt>
      <trkpt lat="22.766470" lon="108.390998">
        <ele>67.807836</ele>
        <time>2026-08-14T02:02:55.000Z</time>
      </trkpt>
      <trkpt lat="22.766432" lon="108.391047">
        <ele>67.786270</ele>
        <time>2026-08-14T02:02:56.000Z</time>
      </trkpt>
      <trkpt lat="22.766388" lon="108.391094">
        <ele>67.763709</ele>
        <time>2026-08-14T02:02:57.000Z</time>
      </trkpt>
      <trkpt lat="22.766348" lon="108.391139">
        <ele>67.742655</ele>
        <time>2026-08-14T02:02:58.000Z</time>
      </trkpt>
      <trkpt lat="22.766316" lon="108.391181">
        <ele>67.724303</ele>
        <time>2026-08-14T02:02:59.000Z</time>
      </trkpt>
      <trkpt lat="22.766283" lon="108.391224">
        <ele>67.703751</ele>
        <time>2026-08-14T02:03:00.000Z</time>
      </trkpt>
      <trkpt lat="22.766251" lon="108.391271">
        <ele>67.664090</ele>
        <time>2026-08-14T02:03:01.000Z</time>
      </trkpt>
      <trkpt lat="22.766222" lon="108.391315">
        <ele>67.627374</ele>
        <time>2026-08-14T02:03:02.000Z</time>
      </trkpt>
      <trkpt lat="22.766207" lon="108.391354">
        <ele>67.598688</ele>
        <time>2026-08-14T02:03:03.000Z</time>
      </trkpt>
      <trkpt lat="22.766158" lon="108.391405">
        <ele>67.548687</ele>
        <time>2026-08-14T02:03:04.000Z</time>
      </trkpt>
      <trkpt lat="22.766112" lon="108.391450">
        <ele>67.503079</ele>
        <time>2026-08-14T02:03:05.000Z</time>
      </trkpt>
      <trkpt lat="22.766066" lon="108.391501">
        <ele>67.454648</ele>
        <time>2026-08-14T02:03:06.000Z</time>
      </trkpt>
      <trkpt lat="22.766021" lon="108.391552">
        <ele>67.406729</ele>
        <time>2026-08-14T02:03:07.000Z</time>
      </trkpt>
      <trkpt lat="22.765982" lon="108.391603">
        <ele>67.361750</ele>
        <time>2026-08-14T02:03:08.000Z</time>
      </trkpt>
      <trkpt lat="22.765941" lon="108.391650">
        <ele>67.317828</ele>
        <time>2026-08-14T02:03:09.000Z</time>
      </trkpt>
      <trkpt lat="22.765904" lon="108.391702">
        <ele>67.273239</ele>
        <time>2026-08-14T02:03:10.000Z</time>
      </trkpt>
      <trkpt lat="22.765866" lon="108.391759">
        <ele>67.225490</ele>
        <time>2026-08-14T02:03:11.000Z</time>
      </trkpt>
      <trkpt lat="22.765822" lon="108.391814">
        <ele>67.176059</ele>
        <time>2026-08-14T02:03:12.000Z</time>
      </trkpt>
      <trkpt lat="22.765776" lon="108.391869">
        <ele>67.125651</ele>
        <time>2026-08-14T02:03:13.000Z</time>
      </trkpt>
      <trkpt lat="22.765731" lon="108.391921">
        <ele>67.077239</ele>
        <time>2026-08-14T02:03:14.000Z</time>
      </trkpt>
      <trkpt lat="22.765687" lon="108.391978">
        <ele>67.026775</ele>
        <time>2026-08-14T02:03:15.000Z</time>
      </trkpt>
      <trkpt lat="22.765642" lon="108.392034">
        <ele>66.976348</ele>
        <time>2026-08-14T02:03:16.000Z</time>
      </trkpt>
      <trkpt lat="22.765597" lon="108.392085">
        <ele>66.928429</ele>
        <time>2026-08-14T02:03:17.000Z</time>
      </trkpt>
      <trkpt lat="22.765550" lon="108.392136">
        <ele>66.879480</ele>
        <time>2026-08-14T02:03:18.000Z</time>
      </trkpt>
      <trkpt lat="22.765503" lon="108.392190">
        <ele>66.829070</ele>
        <time>2026-08-14T02:03:19.000Z</time>
      </trkpt>
      <trkpt lat="22.765456" lon="108.392243">
        <ele>66.779152</ele>
        <time>2026-08-14T02:03:20.000Z</time>
      </trkpt>
      <trkpt lat="22.765411" lon="108.392291">
        <ele>66.732683</ele>
        <time>2026-08-14T02:03:21.000Z</time>
      </trkpt>
      <trkpt lat="22.765365" lon="108.392341">
        <ele>66.684734</ele>
        <time>2026-08-14T02:03:22.000Z</time>
      </trkpt>
      <trkpt lat="22.765320" lon="108.392393">
        <ele>66.636322</ele>
        <time>2026-08-14T02:03:23.000Z</time>
      </trkpt>
      <trkpt lat="22.765275" lon="108.392445">
        <ele>66.587910</ele>
        <time>2026-08-14T02:03:24.000Z</time>
      </trkpt>
      <trkpt lat="22.765232" lon="108.392499">
        <ele>66.539474</ele>
        <time>2026-08-14T02:03:25.000Z</time>
      </trkpt>
      <trkpt lat="22.765190" lon="108.392554">
        <ele>66.490995</ele>
        <time>2026-08-14T02:03:26.000Z</time>
      </trkpt>
      <trkpt lat="22.765149" lon="108.392607">
        <ele>66.444031</ele>
        <time>2026-08-14T02:03:27.000Z</time>
      </trkpt>
      <trkpt lat="22.765108" lon="108.392661">
        <ele>66.396544</ele>
        <time>2026-08-14T02:03:28.000Z</time>
      </trkpt>
      <trkpt lat="22.765064" lon="108.392714">
        <ele>66.347330</ele>
        <time>2026-08-14T02:03:29.000Z</time>
      </trkpt>
      <trkpt lat="22.765021" lon="108.392766">
        <ele>66.298824</ele>
        <time>2026-08-14T02:03:30.000Z</time>
      </trkpt>
      <trkpt lat="22.764977" lon="108.392818">
        <ele>66.249812</ele>
        <time>2026-08-14T02:03:31.000Z</time>
      </trkpt>
      <trkpt lat="22.764934" lon="108.392867">
        <ele>66.202836</ele>
        <time>2026-08-14T02:03:32.000Z</time>
      </trkpt>
      <trkpt lat="22.764895" lon="108.392917">
        <ele>66.157356</ele>
        <time>2026-08-14T02:03:33.000Z</time>
      </trkpt>
      <trkpt lat="22.764854" lon="108.392968">
        <ele>66.110368</ele>
        <time>2026-08-14T02:03:34.000Z</time>
      </trkpt>
      <trkpt lat="22.764811" lon="108.393016">
        <ele>66.063892</ele>
        <time>2026-08-14T02:03:35.000Z</time>
      </trkpt>
      <trkpt lat="22.764770" lon="108.393067">
        <ele>66.016904</ele>
        <time>2026-08-14T02:03:36.000Z</time>
      </trkpt>
      <trkpt lat="22.764727" lon="108.393117">
        <ele>65.969423</ele>
        <time>2026-08-14T02:03:37.000Z</time>
      </trkpt>
      <trkpt lat="22.764686" lon="108.393168">
        <ele>65.922434</ele>
        <time>2026-08-14T02:03:38.000Z</time>
      </trkpt>
      <trkpt lat="22.764642" lon="108.393215">
        <ele>65.875921</ele>
        <time>2026-08-14T02:03:39.000Z</time>
      </trkpt>
      <trkpt lat="22.764600" lon="108.393268">
        <ele>65.827390</ele>
        <time>2026-08-14T02:03:40.000Z</time>
      </trkpt>
      <trkpt lat="22.764559" lon="108.393320">
        <ele>65.779876</ele>
        <time>2026-08-14T02:03:41.000Z</time>
      </trkpt>
      <trkpt lat="22.764519" lon="108.393373">
        <ele>65.732312</ele>
        <time>2026-08-14T02:03:42.000Z</time>
      </trkpt>
      <trkpt lat="22.764476" lon="108.393423">
        <ele>65.684831</ele>
        <time>2026-08-14T02:03:43.000Z</time>
      </trkpt>
      <trkpt lat="22.764435" lon="108.393479">
        <ele>65.635173</ele>
        <time>2026-08-14T02:03:44.000Z</time>
      </trkpt>
      <trkpt lat="22.764392" lon="108.393530">
        <ele>65.587181</ele>
        <time>2026-08-14T02:03:45.000Z</time>
      </trkpt>
      <trkpt lat="22.764350" lon="108.393583">
        <ele>65.538650</ele>
        <time>2026-08-14T02:03:46.000Z</time>
      </trkpt>
      <trkpt lat="22.764309" lon="108.393635">
        <ele>65.491136</ele>
        <time>2026-08-14T02:03:47.000Z</time>
      </trkpt>
      <trkpt lat="22.764268" lon="108.393687">
        <ele>65.443622</ele>
        <time>2026-08-14T02:03:48.000Z</time>
      </trkpt>
      <trkpt lat="22.764226" lon="108.393738">
        <ele>65.396135</ele>
        <time>2026-08-14T02:03:49.000Z</time>
      </trkpt>
      <trkpt lat="22.764185" lon="108.393788">
        <ele>65.349668</ele>
        <time>2026-08-14T02:03:50.000Z</time>
      </trkpt>
      <trkpt lat="22.764145" lon="108.393841">
        <ele>65.302104</ele>
        <time>2026-08-14T02:03:51.000Z</time>
      </trkpt>
      <trkpt lat="22.764106" lon="108.393894">
        <ele>65.255014</ele>
        <time>2026-08-14T02:03:52.000Z</time>
      </trkpt>
      <trkpt lat="22.764065" lon="108.393943">
        <ele>65.209064</ele>
        <time>2026-08-14T02:03:53.000Z</time>
      </trkpt>
      <trkpt lat="22.764026" lon="108.393994">
        <ele>65.163051</ele>
        <time>2026-08-14T02:03:54.000Z</time>
      </trkpt>
      <trkpt lat="22.763986" lon="108.394046">
        <ele>65.116023</ele>
        <time>2026-08-14T02:03:55.000Z</time>
      </trkpt>
      <trkpt lat="22.763949" lon="108.394097">
        <ele>65.070957</ele>
        <time>2026-08-14T02:03:56.000Z</time>
      </trkpt>
      <trkpt lat="22.763914" lon="108.394146">
        <ele>65.027901</ele>
        <time>2026-08-14T02:03:57.000Z</time>
      </trkpt>
      <trkpt lat="22.763879" lon="108.394196">
        <ele>64.983108</ele>
        <time>2026-08-14T02:03:58.000Z</time>
      </trkpt>
      <trkpt lat="22.763845" lon="108.394245">
        <ele>64.939350</ele>
        <time>2026-08-14T02:03:59.000Z</time>
      </trkpt>
      <trkpt lat="22.763813" lon="108.394292">
        <ele>64.897661</ele>
        <time>2026-08-14T02:04:00.000Z</time>
      </trkpt>
      <trkpt lat="22.763777" lon="108.394336">
        <ele>64.855687</ele>
        <time>2026-08-14T02:04:01.000Z</time>
      </trkpt>
      <trkpt lat="22.763743" lon="108.394382">
        <ele>64.813621</ele>
        <time>2026-08-14T02:04:02.000Z</time>
      </trkpt>
      <trkpt lat="22.763709" lon="108.394427">
        <ele>64.772108</ele>
        <time>2026-08-14T02:04:03.000Z</time>
      </trkpt>
      <trkpt lat="22.763678" lon="108.394466">
        <ele>64.735367</ele>
        <time>2026-08-14T02:04:04.000Z</time>
      </trkpt>
      <trkpt lat="22.763650" lon="108.394503">
        <ele>64.701213</ele>
        <time>2026-08-14T02:04:05.000Z</time>
      </trkpt>
      <trkpt lat="22.763625" lon="108.394540">
        <ele>64.668482</ele>
        <time>2026-08-14T02:04:06.000Z</time>
      </trkpt>
      <trkpt lat="22.763600" lon="108.394572">
        <ele>64.638554</ele>
        <time>2026-08-14T02:04:07.000Z</time>
      </trkpt>
      <trkpt lat="22.763578" lon="108.394602">
        <ele>64.611203</ele>
        <time>2026-08-14T02:04:08.000Z</time>
      </trkpt>
      <trkpt lat="22.763555" lon="108.394627">
        <ele>64.586004</ele>
        <time>2026-08-14T02:04:09.000Z</time>
      </trkpt>
      <trkpt lat="22.763534" lon="108.394650">
        <ele>64.562908</ele>
        <time>2026-08-14T02:04:10.000Z</time>
      </trkpt>
      <trkpt lat="22.763515" lon="108.394669">
        <ele>64.542908</ele>
        <time>2026-08-14T02:04:11.000Z</time>
      </trkpt>
      <trkpt lat="22.763496" lon="108.394684">
        <ele>64.524722</ele>
        <time>2026-08-14T02:04:12.000Z</time>
      </trkpt>
      <trkpt lat="22.763482" lon="108.394697">
        <ele>64.510460</ele>
        <time>2026-08-14T02:04:13.000Z</time>
      </trkpt>
      <trkpt lat="22.763471" lon="108.394707">
        <ele>64.499353</ele>
        <time>2026-08-14T02:04:14.000Z</time>
      </trkpt>
      <trkpt lat="22.763466" lon="108.394713">
        <ele>64.493582</ele>
        <time>2026-08-14T02:04:15.000Z</time>
      </trkpt>
      <trkpt lat="22.763464" lon="108.394717">
        <ele>64.490335</ele>
        <time>2026-08-14T02:04:16.000Z</time>
      </trkpt>
      <trkpt lat="22.763414" lon="108.394759">
        <ele>64.441394</ele>
        <time>2026-08-14T02:04:30.000Z</time>
      </trkpt>
      <trkpt lat="22.763387" lon="108.394778">
        <ele>64.416487</ele>
        <time>2026-08-14T02:04:31.000Z</time>
      </trkpt>
      <trkpt lat="22.763364" lon="108.394800">
        <ele>64.392755</ele>
        <time>2026-08-14T02:04:32.000Z</time>
      </trkpt>
      <trkpt lat="22.763343" lon="108.394819">
        <ele>64.371592</ele>
        <time>2026-08-14T02:04:33.000Z</time>
      </trkpt>
      <trkpt lat="22.763325" lon="108.394837">
        <ele>64.352645</ele>
        <time>2026-08-14T02:04:34.000Z</time>
      </trkpt>
      <trkpt lat="22.763311" lon="108.394851">
        <ele>64.337908</ele>
        <time>2026-08-14T02:04:35.000Z</time>
      </trkpt>
      <trkpt lat="22.763299" lon="108.394863">
        <ele>64.325277</ele>
        <time>2026-08-14T02:04:36.000Z</time>
      </trkpt>
      <trkpt lat="22.763287" lon="108.394875">
        <ele>64.312646</ele>
        <time>2026-08-14T02:04:37.000Z</time>
      </trkpt>
      <trkpt lat="22.763278" lon="108.394885">
        <ele>64.302675</ele>
        <time>2026-08-14T02:04:38.000Z</time>
      </trkpt>
      <trkpt lat="22.763269" lon="108.394894">
        <ele>64.293201</ele>
        <time>2026-08-14T02:04:39.000Z</time>
      </trkpt>
      <trkpt lat="22.763256" lon="108.394906">
        <ele>64.279991</ele>
        <time>2026-08-14T02:04:40.000Z</time>
      </trkpt>
      <trkpt lat="22.763238" lon="108.394926">
        <ele>64.260049</ele>
        <time>2026-08-14T02:04:41.000Z</time>
      </trkpt>
      <trkpt lat="22.763216" lon="108.394954">
        <ele>64.233800</ele>
        <time>2026-08-14T02:04:42.000Z</time>
      </trkpt>
      <trkpt lat="22.763194" lon="108.394986">
        <ele>64.205318</ele>
        <time>2026-08-14T02:04:43.000Z</time>
      </trkpt>
      <trkpt lat="22.763169" lon="108.395022">
        <ele>64.173160</ele>
        <time>2026-08-14T02:04:44.000Z</time>
      </trkpt>
      <trkpt lat="22.763144" lon="108.395058">
        <ele>64.141001</ele>
        <time>2026-08-14T02:04:45.000Z</time>
      </trkpt>
      <trkpt lat="22.763118" lon="108.395094">
        <ele>64.108372</ele>
        <time>2026-08-14T02:04:46.000Z</time>
      </trkpt>
      <trkpt lat="22.763090" lon="108.395133">
        <ele>64.073103</ele>
        <time>2026-08-14T02:04:47.000Z</time>
      </trkpt>
      <trkpt lat="22.763059" lon="108.395171">
        <ele>64.036899</ele>
        <time>2026-08-14T02:04:48.000Z</time>
      </trkpt>
      <trkpt lat="22.763026" lon="108.395208">
        <ele>64.000168</ele>
        <time>2026-08-14T02:04:49.000Z</time>
      </trkpt>
      <trkpt lat="22.762993" lon="108.395247">
        <ele>63.962398</ele>
        <time>2026-08-14T02:04:50.000Z</time>
      </trkpt>
      <trkpt lat="22.762955" lon="108.395286">
        <ele>63.921912</ele>
        <time>2026-08-14T02:04:51.000Z</time>
      </trkpt>
      <trkpt lat="22.762918" lon="108.395324">
        <ele>63.882478</ele>
        <time>2026-08-14T02:04:52.000Z</time>
      </trkpt>
      <trkpt lat="22.762879" lon="108.395363">
        <ele>63.841426</ele>
        <time>2026-08-14T02:04:53.000Z</time>
      </trkpt>
      <trkpt lat="22.762838" lon="108.395402">
        <ele>63.799224</ele>
        <time>2026-08-14T02:04:54.000Z</time>
      </trkpt>
      <trkpt lat="22.762799" lon="108.395442">
        <ele>63.757685</ele>
        <time>2026-08-14T02:04:55.000Z</time>
      </trkpt>
      <trkpt lat="22.762759" lon="108.395484">
        <ele>63.714600</ele>
        <time>2026-08-14T02:04:56.000Z</time>
      </trkpt>
      <trkpt lat="22.762720" lon="108.395526">
        <ele>63.672068</ele>
        <time>2026-08-14T02:04:57.000Z</time>
      </trkpt>
      <trkpt lat="22.762683" lon="108.395569">
        <ele>63.628461</ele>
        <time>2026-08-14T02:04:58.000Z</time>
      </trkpt>
      <trkpt lat="22.762646" lon="108.395613">
        <ele>63.575046</ele>
        <time>2026-08-14T02:04:59.000Z</time>
      </trkpt>
      <trkpt lat="22.762610" lon="108.395658">
        <ele>63.521607</ele>
        <time>2026-08-14T02:05:00.000Z</time>
      </trkpt>
      <trkpt lat="22.762573" lon="108.395702">
        <ele>63.468192</ele>
        <time>2026-08-14T02:05:01.000Z</time>
      </trkpt>
      <trkpt lat="22.762535" lon="108.395748">
        <ele>63.412793</ele>
        <time>2026-08-14T02:05:02.000Z</time>
      </trkpt>
      <trkpt lat="22.762499" lon="108.395796">
        <ele>63.357294</ele>
        <time>2026-08-14T02:05:03.000Z</time>
      </trkpt>
      <trkpt lat="22.762463" lon="108.395841">
        <ele>63.303855</ele>
        <time>2026-08-14T02:05:04.000Z</time>
      </trkpt>
      <trkpt lat="22.762428" lon="108.395885">
        <ele>63.251731</ele>
        <time>2026-08-14T02:05:05.000Z</time>
      </trkpt>
      <trkpt lat="22.762398" lon="108.395933">
        <ele>63.199716</ele>
        <time>2026-08-14T02:05:06.000Z</time>
      </trkpt>
      <trkpt lat="22.762363" lon="108.395979">
        <ele>63.146221</ele>
        <time>2026-08-14T02:05:07.000Z</time>
      </trkpt>
      <trkpt lat="22.762328" lon="108.396026">
        <ele>63.092031</ele>
        <time>2026-08-14T02:05:08.000Z</time>
      </trkpt>
      <trkpt lat="22.762290" lon="108.396072">
        <ele>63.036632</ele>
        <time>2026-08-14T02:05:09.000Z</time>
      </trkpt>
      <trkpt lat="22.762257" lon="108.396120">
        <ele>62.982926</ele>
        <time>2026-08-14T02:05:10.000Z</time>
      </trkpt>
      <trkpt lat="22.762220" lon="108.396167">
        <ele>62.927493</ele>
        <time>2026-08-14T02:05:11.000Z</time>
      </trkpt>
      <trkpt lat="22.762181" lon="108.396212">
        <ele>62.872098</ele>
        <time>2026-08-14T02:05:12.000Z</time>
      </trkpt>
      <trkpt lat="22.762140" lon="108.396260">
        <ele>62.813407</ele>
        <time>2026-08-14T02:05:13.000Z</time>
      </trkpt>
      <trkpt lat="22.762105" lon="108.396309">
        <ele>62.757810</ele>
        <time>2026-08-14T02:05:14.000Z</time>
      </trkpt>
      <trkpt lat="22.762060" lon="108.396345">
        <ele>62.703413</ele>
        <time>2026-08-14T02:05:15.000Z</time>
      </trkpt>
      <trkpt lat="22.762018" lon="108.396388">
        <ele>62.647226</ele>
        <time>2026-08-14T02:05:16.000Z</time>
      </trkpt>
      <trkpt lat="22.761978" lon="108.396428">
        <ele>62.594298</ele>
        <time>2026-08-14T02:05:17.000Z</time>
      </trkpt>
      <trkpt lat="22.761931" lon="108.396470">
        <ele>62.535055</ele>
        <time>2026-08-14T02:05:18.000Z</time>
      </trkpt>
      <trkpt lat="22.761885" lon="108.396509">
        <ele>62.478256</ele>
        <time>2026-08-14T02:05:19.000Z</time>
      </trkpt>
      <trkpt lat="22.761850" lon="108.396560">
        <ele>62.421230</ele>
        <time>2026-08-14T02:05:20.000Z</time>
      </trkpt>
      <trkpt lat="22.761812" lon="108.396598">
        <ele>62.370947</ele>
        <time>2026-08-14T02:05:21.000Z</time>
      </trkpt>
      <trkpt lat="22.761774" lon="108.396650">
        <ele>62.311432</ele>
        <time>2026-08-14T02:05:22.000Z</time>
      </trkpt>
      <trkpt lat="22.761741" lon="108.396702">
        <ele>62.254808</ele>
        <time>2026-08-14T02:05:23.000Z</time>
      </trkpt>
      <trkpt lat="22.761697" lon="108.396752">
        <ele>62.192812</ele>
        <time>2026-08-14T02:05:24.000Z</time>
      </trkpt>
      <trkpt lat="22.761656" lon="108.396808">
        <ele>62.128672</ele>
        <time>2026-08-14T02:05:25.000Z</time>
      </trkpt>
      <trkpt lat="22.761613" lon="108.396855">
        <ele>62.069282</ele>
        <time>2026-08-14T02:05:26.000Z</time>
      </trkpt>
      <trkpt lat="22.761571" lon="108.396902">
        <ele>62.010574</ele>
        <time>2026-08-14T02:05:27.000Z</time>
      </trkpt>
      <trkpt lat="22.761525" lon="108.396946">
        <ele>61.950908</ele>
        <time>2026-08-14T02:05:28.000Z</time>
      </trkpt>
      <trkpt lat="22.761482" lon="108.396996">
        <ele>61.889579</ele>
        <time>2026-08-14T02:05:29.000Z</time>
      </trkpt>
      <trkpt lat="22.761434" lon="108.397039">
        <ele>61.829779</ele>
        <time>2026-08-14T02:05:30.000Z</time>
      </trkpt>
      <trkpt lat="22.761386" lon="108.397083">
        <ele>61.769447</ele>
        <time>2026-08-14T02:05:31.000Z</time>
      </trkpt>
      <trkpt lat="22.761346" lon="108.397135">
        <ele>61.709506</ele>
        <time>2026-08-14T02:05:32.000Z</time>
      </trkpt>
      <trkpt lat="22.761301" lon="108.397185">
        <ele>61.647662</ele>
        <time>2026-08-14T02:05:33.000Z</time>
      </trkpt>
      <trkpt lat="22.761265" lon="108.397241">
        <ele>61.587235</ele>
        <time>2026-08-14T02:05:34.000Z</time>
      </trkpt>
      <trkpt lat="22.761220" lon="108.397289">
        <ele>61.526645</ele>
        <time>2026-08-14T02:05:35.000Z</time>
      </trkpt>
      <trkpt lat="22.761178" lon="108.397335">
        <ele>61.469345</ele>
        <time>2026-08-14T02:05:36.000Z</time>
      </trkpt>
      <trkpt lat="22.761137" lon="108.397393">
        <ele>61.404655</ele>
        <time>2026-08-14T02:05:37.000Z</time>
      </trkpt>
      <trkpt lat="22.761097" lon="108.397449">
        <ele>61.341954</ele>
        <time>2026-08-14T02:05:38.000Z</time>
      </trkpt>
      <trkpt lat="22.761060" lon="108.397506">
        <ele>61.280252</ele>
        <time>2026-08-14T02:05:39.000Z</time>
      </trkpt>
      <trkpt lat="22.761018" lon="108.397566">
        <ele>61.213573</ele>
        <time>2026-08-14T02:05:40.000Z</time>
      </trkpt>
      <trkpt lat="22.760970" lon="108.397616">
        <ele>61.149684</ele>
        <time>2026-08-14T02:05:41.000Z</time>
      </trkpt>
      <trkpt lat="22.760928" lon="108.397667">
        <ele>61.089158</ele>
        <time>2026-08-14T02:05:42.000Z</time>
      </trkpt>
      <trkpt lat="22.760890" lon="108.397720">
        <ele>61.029732</ele>
        <time>2026-08-14T02:05:43.000Z</time>
      </trkpt>
      <trkpt lat="22.760850" lon="108.397778">
        <ele>60.965622</ele>
        <time>2026-08-14T02:05:44.000Z</time>
      </trkpt>
      <trkpt lat="22.760808" lon="108.397834">
        <ele>60.901727</ele>
        <time>2026-08-14T02:05:45.000Z</time>
      </trkpt>
      <trkpt lat="22.760763" lon="108.397888">
        <ele>60.837301</ele>
        <time>2026-08-14T02:05:46.000Z</time>
      </trkpt>
      <trkpt lat="22.760719" lon="108.397940">
        <ele>60.774831</ele>
        <time>2026-08-14T02:05:47.000Z</time>
      </trkpt>
      <trkpt lat="22.760674" lon="108.397987">
        <ele>60.714858</ele>
        <time>2026-08-14T02:05:48.000Z</time>
      </trkpt>
      <trkpt lat="22.760626" lon="108.398033">
        <ele>60.653369</ele>
        <time>2026-08-14T02:05:49.000Z</time>
      </trkpt>
      <trkpt lat="22.760576" lon="108.398083">
        <ele>60.588081</ele>
        <time>2026-08-14T02:05:50.000Z</time>
      </trkpt>
      <trkpt lat="22.760532" lon="108.398138">
        <ele>60.523629</ele>
        <time>2026-08-14T02:05:51.000Z</time>
      </trkpt>
      <trkpt lat="22.760489" lon="108.398192">
        <ele>60.460474</ele>
        <time>2026-08-14T02:05:52.000Z</time>
      </trkpt>
      <trkpt lat="22.760447" lon="108.398246">
        <ele>60.397943</ele>
        <time>2026-08-14T02:05:53.000Z</time>
      </trkpt>
      <trkpt lat="22.760405" lon="108.398300">
        <ele>60.335411</ele>
        <time>2026-08-14T02:05:54.000Z</time>
      </trkpt>
      <trkpt lat="22.760362" lon="108.398353">
        <ele>60.272924</ele>
        <time>2026-08-14T02:05:55.000Z</time>
      </trkpt>
      <trkpt lat="22.760321" lon="108.398407">
        <ele>60.211007</ele>
        <time>2026-08-14T02:05:56.000Z</time>
      </trkpt>
      <trkpt lat="22.760278" lon="108.398462">
        <ele>60.157461</ele>
        <time>2026-08-14T02:05:57.000Z</time>
      </trkpt>
      <trkpt lat="22.760231" lon="108.398512">
        <ele>60.143912</ele>
        <time>2026-08-14T02:05:58.000Z</time>
      </trkpt>
      <trkpt lat="22.760185" lon="108.398559">
        <ele>60.130906</ele>
        <time>2026-08-14T02:05:59.000Z</time>
      </trkpt>
      <trkpt lat="22.760143" lon="108.398607">
        <ele>60.118349</ele>
        <time>2026-08-14T02:06:00.000Z</time>
      </trkpt>
      <trkpt lat="22.760104" lon="108.398653">
        <ele>60.106491</ele>
        <time>2026-08-14T02:06:01.000Z</time>
      </trkpt>
      <trkpt lat="22.760065" lon="108.398699">
        <ele>60.094633</ele>
        <time>2026-08-14T02:06:02.000Z</time>
      </trkpt>
      <trkpt lat="22.760032" lon="108.398751">
        <ele>60.082654</ele>
        <time>2026-08-14T02:06:03.000Z</time>
      </trkpt>
      <trkpt lat="22.759993" lon="108.398797">
        <ele>60.070796</ele>
        <time>2026-08-14T02:06:04.000Z</time>
      </trkpt>
      <trkpt lat="22.759955" lon="108.398844">
        <ele>60.058934</ele>
        <time>2026-08-14T02:06:05.000Z</time>
      </trkpt>
      <trkpt lat="22.759920" lon="108.398887">
        <ele>60.048050</ele>
        <time>2026-08-14T02:06:06.000Z</time>
      </trkpt>
      <trkpt lat="22.759880" lon="108.398935">
        <ele>60.035773</ele>
        <time>2026-08-14T02:06:07.000Z</time>
      </trkpt>
      <trkpt lat="22.759839" lon="108.398986">
        <ele>60.022933</ele>
        <time>2026-08-14T02:06:08.000Z</time>
      </trkpt>
      <trkpt lat="22.759806" lon="108.399044">
        <ele>60.010000</ele>
        <time>2026-08-14T02:06:09.000Z</time>
      </trkpt>
      <trkpt lat="22.759767" lon="108.399099">
        <ele>59.996834</ele>
        <time>2026-08-14T02:06:10.000Z</time>
      </trkpt>
      <trkpt lat="22.759724" lon="108.399149">
        <ele>59.983860</ele>
        <time>2026-08-14T02:06:11.000Z</time>
      </trkpt>
      <trkpt lat="22.759683" lon="108.399201">
        <ele>59.970876</ele>
        <time>2026-08-14T02:06:12.000Z</time>
      </trkpt>
      <trkpt lat="22.759638" lon="108.399254">
        <ele>59.957205</ele>
        <time>2026-08-14T02:06:13.000Z</time>
      </trkpt>
      <trkpt lat="22.759596" lon="108.399307">
        <ele>59.943943</ele>
        <time>2026-08-14T02:06:14.000Z</time>
      </trkpt>
      <trkpt lat="22.759554" lon="108.399357">
        <ele>59.931109</ele>
        <time>2026-08-14T02:06:15.000Z</time>
      </trkpt>
      <trkpt lat="22.759513" lon="108.399409">
        <ele>59.918125</ele>
        <time>2026-08-14T02:06:16.000Z</time>
      </trkpt>
      <trkpt lat="22.759472" lon="108.399461">
        <ele>59.905142</ele>
        <time>2026-08-14T02:06:17.000Z</time>
      </trkpt>
      <trkpt lat="22.759431" lon="108.399509">
        <ele>59.892726</ele>
        <time>2026-08-14T02:06:18.000Z</time>
      </trkpt>
      <trkpt lat="22.759387" lon="108.399555">
        <ele>59.880148</ele>
        <time>2026-08-14T02:06:19.000Z</time>
      </trkpt>
      <trkpt lat="22.759348" lon="108.399603">
        <ele>59.868008</ele>
        <time>2026-08-14T02:06:20.000Z</time>
      </trkpt>
      <trkpt lat="22.759307" lon="108.399648">
        <ele>59.856003</ele>
        <time>2026-08-14T02:06:21.000Z</time>
      </trkpt>
      <trkpt lat="22.759270" lon="108.399694">
        <ele>59.844420</ele>
        <time>2026-08-14T02:06:22.000Z</time>
      </trkpt>
      <trkpt lat="22.759230" lon="108.399738">
        <ele>59.832695</ele>
        <time>2026-08-14T02:06:23.000Z</time>
      </trkpt>
      <trkpt lat="22.759190" lon="108.399782">
        <ele>59.820970</ele>
        <time>2026-08-14T02:06:24.000Z</time>
      </trkpt>
      <trkpt lat="22.759154" lon="108.399826">
        <ele>59.809807</ele>
        <time>2026-08-14T02:06:25.000Z</time>
      </trkpt>
      <trkpt lat="22.759116" lon="108.399874">
        <ele>59.797802</ele>
        <time>2026-08-14T02:06:26.000Z</time>
      </trkpt>
      <trkpt lat="22.759078" lon="108.399924">
        <ele>59.797546</ele>
        <time>2026-08-14T02:06:27.000Z</time>
      </trkpt>
      <trkpt lat="22.759041" lon="108.399972">
        <ele>59.816634</ele>
        <time>2026-08-14T02:06:28.000Z</time>
      </trkpt>
      <trkpt lat="22.759005" lon="108.400017">
        <ele>59.834812</ele>
        <time>2026-08-14T02:06:29.000Z</time>
      </trkpt>
      <trkpt lat="22.758970" lon="108.400059">
        <ele>59.852084</ele>
        <time>2026-08-14T02:06:30.000Z</time>
      </trkpt>
      <trkpt lat="22.758941" lon="108.400101">
        <ele>59.868093</ele>
        <time>2026-08-14T02:06:31.000Z</time>
      </trkpt>
      <trkpt lat="22.758907" lon="108.400147">
        <ele>59.886081</ele>
        <time>2026-08-14T02:06:32.000Z</time>
      </trkpt>
      <trkpt lat="22.758873" lon="108.400191">
        <ele>59.903597</ele>
        <time>2026-08-14T02:06:33.000Z</time>
      </trkpt>
      <trkpt lat="22.758833" lon="108.400238">
        <ele>59.923112</ele>
        <time>2026-08-14T02:06:34.000Z</time>
      </trkpt>
      <trkpt lat="22.758800" lon="108.400282">
        <ele>59.940417</ele>
        <time>2026-08-14T02:06:35.000Z</time>
      </trkpt>
      <trkpt lat="22.758766" lon="108.400324">
        <ele>59.957469</ele>
        <time>2026-08-14T02:06:36.000Z</time>
      </trkpt>
      <trkpt lat="22.758732" lon="108.400363">
        <ele>59.973845</ele>
        <time>2026-08-14T02:06:37.000Z</time>
      </trkpt>
      <trkpt lat="22.758694" lon="108.400404">
        <ele>59.991581</ele>
        <time>2026-08-14T02:06:38.000Z</time>
      </trkpt>
      <trkpt lat="22.758656" lon="108.400447">
        <ele>60.009754</ele>
        <time>2026-08-14T02:06:39.000Z</time>
      </trkpt>
      <trkpt lat="22.758621" lon="108.400484">
        <ele>60.025927</ele>
        <time>2026-08-14T02:06:40.000Z</time>
      </trkpt>
      <trkpt lat="22.758586" lon="108.400521">
        <ele>60.042100</ele>
        <time>2026-08-14T02:06:41.000Z</time>
      </trkpt>
      <trkpt lat="22.758551" lon="108.400561">
        <ele>60.058925</ele>
        <time>2026-08-14T02:06:42.000Z</time>
      </trkpt>
      <trkpt lat="22.758526" lon="108.400596">
        <ele>60.072433</ele>
        <time>2026-08-14T02:06:43.000Z</time>
      </trkpt>
      <trkpt lat="22.758494" lon="108.400633">
        <ele>60.087911</ele>
        <time>2026-08-14T02:06:44.000Z</time>
      </trkpt>
      <trkpt lat="22.758454" lon="108.400677">
        <ele>60.106763</ele>
        <time>2026-08-14T02:06:45.000Z</time>
      </trkpt>
      <trkpt lat="22.758417" lon="108.400718">
        <ele>60.124267</ele>
        <time>2026-08-14T02:06:46.000Z</time>
      </trkpt>
      <trkpt lat="22.758379" lon="108.400766">
        <ele>60.143569</ele>
        <time>2026-08-14T02:06:47.000Z</time>
      </trkpt>
      <trkpt lat="22.758342" lon="108.400813">
        <ele>60.162425</ele>
        <time>2026-08-14T02:06:48.000Z</time>
      </trkpt>
      <trkpt lat="22.758304" lon="108.400859">
        <ele>60.181269</ele>
        <time>2026-08-14T02:06:49.000Z</time>
      </trkpt>
      <trkpt lat="22.758267" lon="108.400905">
        <ele>60.199894</ele>
        <time>2026-08-14T02:06:50.000Z</time>
      </trkpt>
      <trkpt lat="22.758232" lon="108.400957">
        <ele>60.219537</ele>
        <time>2026-08-14T02:06:51.000Z</time>
      </trkpt>
      <trkpt lat="22.758194" lon="108.401003">
        <ele>60.238381</ele>
        <time>2026-08-14T02:06:52.000Z</time>
      </trkpt>
      <trkpt lat="22.758156" lon="108.401049">
        <ele>60.257224</ele>
        <time>2026-08-14T02:06:53.000Z</time>
      </trkpt>
      <trkpt lat="22.758115" lon="108.401093">
        <ele>60.276311</ele>
        <time>2026-08-14T02:06:54.000Z</time>
      </trkpt>
      <trkpt lat="22.758076" lon="108.401136">
        <ele>60.294713</ele>
        <time>2026-08-14T02:06:55.000Z</time>
      </trkpt>
      <trkpt lat="22.758034" lon="108.401180">
        <ele>60.314036</ele>
        <time>2026-08-14T02:06:56.000Z</time>
      </trkpt>
      <trkpt lat="22.757997" lon="108.401222">
        <ele>60.331759</ele>
        <time>2026-08-14T02:06:57.000Z</time>
      </trkpt>
      <trkpt lat="22.757961" lon="108.401260">
        <ele>60.348382</ele>
        <time>2026-08-14T02:06:58.000Z</time>
      </trkpt>
      <trkpt lat="22.757923" lon="108.401300">
        <ele>60.365905</ele>
        <time>2026-08-14T02:06:59.000Z</time>
      </trkpt>
      <trkpt lat="22.757887" lon="108.401336">
        <ele>60.382108</ele>
        <time>2026-08-14T02:07:00.000Z</time>
      </trkpt>
      <trkpt lat="22.757848" lon="108.401374">
        <ele>60.395637</ele>
        <time>2026-08-14T02:07:01.000Z</time>
      </trkpt>
      <trkpt lat="22.757808" lon="108.401418">
        <ele>60.409417</ele>
        <time>2026-08-14T02:07:02.000Z</time>
      </trkpt>
      <trkpt lat="22.757771" lon="108.401465">
        <ele>60.423200</ele>
        <time>2026-08-14T02:07:03.000Z</time>
      </trkpt>
      <trkpt lat="22.757734" lon="108.401513">
        <ele>60.437153</ele>
        <time>2026-08-14T02:07:04.000Z</time>
      </trkpt>
      <trkpt lat="22.757696" lon="108.401560">
        <ele>60.451094</ele>
        <time>2026-08-14T02:07:05.000Z</time>
      </trkpt>
      <trkpt lat="22.757658" lon="108.401606">
        <ele>60.464868</ele>
        <time>2026-08-14T02:07:06.000Z</time>
      </trkpt>
      <trkpt lat="22.757618" lon="108.401654">
        <ele>60.479297</ele>
        <time>2026-08-14T02:07:07.000Z</time>
      </trkpt>
      <trkpt lat="22.757579" lon="108.401700">
        <ele>60.493234</ele>
        <time>2026-08-14T02:07:08.000Z</time>
      </trkpt>
      <trkpt lat="22.757540" lon="108.401746">
        <ele>60.507170</ele>
        <time>2026-08-14T02:07:09.000Z</time>
      </trkpt>
      <trkpt lat="22.757503" lon="108.401790">
        <ele>60.520451</ele>
        <time>2026-08-14T02:07:10.000Z</time>
      </trkpt>
      <trkpt lat="22.757464" lon="108.401833">
        <ele>60.533903</ele>
        <time>2026-08-14T02:07:11.000Z</time>
      </trkpt>
      <trkpt lat="22.757425" lon="108.401875">
        <ele>60.547196</ele>
        <time>2026-08-14T02:07:12.000Z</time>
      </trkpt>
      <trkpt lat="22.757384" lon="108.401918">
        <ele>60.560991</ele>
        <time>2026-08-14T02:07:13.000Z</time>
      </trkpt>
      <trkpt lat="22.757342" lon="108.401959">
        <ele>60.574659</ele>
        <time>2026-08-14T02:07:14.000Z</time>
      </trkpt>
      <trkpt lat="22.757298" lon="108.402000">
        <ele>60.588690</ele>
        <time>2026-08-14T02:07:15.000Z</time>
      </trkpt>
      <trkpt lat="22.757256" lon="108.402039">
        <ele>60.602063</ele>
        <time>2026-08-14T02:07:16.000Z</time>
      </trkpt>
      <trkpt lat="22.757212" lon="108.402077">
        <ele>60.615667</ele>
        <time>2026-08-14T02:07:17.000Z</time>
      </trkpt>
      <trkpt lat="22.757167" lon="108.402114">
        <ele>60.629326</ele>
        <time>2026-08-14T02:07:18.000Z</time>
      </trkpt>
      <trkpt lat="22.757121" lon="108.402150">
        <ele>60.643046</ele>
        <time>2026-08-14T02:07:19.000Z</time>
      </trkpt>
      <trkpt lat="22.757079" lon="108.402187">
        <ele>60.656133</ele>
        <time>2026-08-14T02:07:20.000Z</time>
      </trkpt>
      <trkpt lat="22.757036" lon="108.402222">
        <ele>60.669137</ele>
        <time>2026-08-14T02:07:21.000Z</time>
      </trkpt>
      <trkpt lat="22.756994" lon="108.402262">
        <ele>60.682656</ele>
        <time>2026-08-14T02:07:22.000Z</time>
      </trkpt>
      <trkpt lat="22.756952" lon="108.402305">
        <ele>60.696626</ele>
        <time>2026-08-14T02:07:23.000Z</time>
      </trkpt>
      <trkpt lat="22.756911" lon="108.402350">
        <ele>60.710735</ele>
        <time>2026-08-14T02:07:24.000Z</time>
      </trkpt>
      <trkpt lat="22.756872" lon="108.402393">
        <ele>60.724187</ele>
        <time>2026-08-14T02:07:25.000Z</time>
      </trkpt>
      <trkpt lat="22.756834" lon="108.402437">
        <ele>60.737632</ele>
        <time>2026-08-14T02:07:26.000Z</time>
      </trkpt>
      <trkpt lat="22.756799" lon="108.402483">
        <ele>60.750933</ele>
        <time>2026-08-14T02:07:27.000Z</time>
      </trkpt>
      <trkpt lat="22.756762" lon="108.402529">
        <ele>60.764547</ele>
        <time>2026-08-14T02:07:28.000Z</time>
      </trkpt>
      <trkpt lat="22.756725" lon="108.402575">
        <ele>60.778160</ele>
        <time>2026-08-14T02:07:29.000Z</time>
      </trkpt>
      <trkpt lat="22.756696" lon="108.402620">
        <ele>60.790405</ele>
        <time>2026-08-14T02:07:30.000Z</time>
      </trkpt>
      <trkpt lat="22.756666" lon="108.402669">
        <ele>60.803523</ele>
        <time>2026-08-14T02:07:31.000Z</time>
      </trkpt>
      <trkpt lat="22.756637" lon="108.402716">
        <ele>60.816135</ele>
        <time>2026-08-14T02:07:32.000Z</time>
      </trkpt>
      <trkpt lat="22.756605" lon="108.402762">
        <ele>60.828171</ele>
        <time>2026-08-14T02:07:33.000Z</time>
      </trkpt>
      <trkpt lat="22.756574" lon="108.402810">
        <ele>60.840018</ele>
        <time>2026-08-14T02:07:34.000Z</time>
      </trkpt>
      <trkpt lat="22.756541" lon="108.402858">
        <ele>60.852121</ele>
        <time>2026-08-14T02:07:35.000Z</time>
      </trkpt>
      <trkpt lat="22.756508" lon="108.402907">
        <ele>60.864386</ele>
        <time>2026-08-14T02:07:36.000Z</time>
      </trkpt>
      <trkpt lat="22.756474" lon="108.402953">
        <ele>60.876304</ele>
        <time>2026-08-14T02:07:37.000Z</time>
      </trkpt>
      <trkpt lat="22.756442" lon="108.403001">
        <ele>60.888277</ele>
        <time>2026-08-14T02:07:38.000Z</time>
      </trkpt>
      <trkpt lat="22.756410" lon="108.403045">
        <ele>60.899605</ele>
        <time>2026-08-14T02:07:39.000Z</time>
      </trkpt>
      <trkpt lat="22.756376" lon="108.403093">
        <ele>60.911841</ele>
        <time>2026-08-14T02:07:40.000Z</time>
      </trkpt>
      <trkpt lat="22.756343" lon="108.403143">
        <ele>60.924270</ele>
        <time>2026-08-14T02:07:41.000Z</time>
      </trkpt>
      <trkpt lat="22.756311" lon="108.403194">
        <ele>60.936740</ele>
        <time>2026-08-14T02:07:42.000Z</time>
      </trkpt>
      <trkpt lat="22.756280" lon="108.403241">
        <ele>60.948421</ele>
        <time>2026-08-14T02:07:43.000Z</time>
      </trkpt>
      <trkpt lat="22.756249" lon="108.403293">
        <ele>60.960939</ele>
        <time>2026-08-14T02:07:44.000Z</time>
      </trkpt>
      <trkpt lat="22.756219" lon="108.403339">
        <ele>60.972328</ele>
        <time>2026-08-14T02:07:45.000Z</time>
      </trkpt>
      <trkpt lat="22.756188" lon="108.403388">
        <ele>60.984341</ele>
        <time>2026-08-14T02:07:46.000Z</time>
      </trkpt>
      <trkpt lat="22.756160" lon="108.403434">
        <ele>60.995483</ele>
        <time>2026-08-14T02:07:47.000Z</time>
      </trkpt>
      <trkpt lat="22.756133" lon="108.403479">
        <ele>61.006335</ele>
        <time>2026-08-14T02:07:48.000Z</time>
      </trkpt>
      <trkpt lat="22.756105" lon="108.403526">
        <ele>61.017647</ele>
        <time>2026-08-14T02:07:49.000Z</time>
      </trkpt>
      <trkpt lat="22.756079" lon="108.403574">
        <ele>61.028900</ele>
        <time>2026-08-14T02:07:50.000Z</time>
      </trkpt>
      <trkpt lat="22.756051" lon="108.403627">
        <ele>61.041248</ele>
        <time>2026-08-14T02:07:51.000Z</time>
      </trkpt>
      <trkpt lat="22.756029" lon="108.403690">
        <ele>61.054866</ele>
        <time>2026-08-14T02:07:52.000Z</time>
      </trkpt>
      <trkpt lat="22.756008" lon="108.403750">
        <ele>61.067839</ele>
        <time>2026-08-14T02:07:53.000Z</time>
      </trkpt>
      <trkpt lat="22.755985" lon="108.403810">
        <ele>61.080975</ele>
        <time>2026-08-14T02:07:54.000Z</time>
      </trkpt>
      <trkpt lat="22.755965" lon="108.403868">
        <ele>61.093493</ele>
        <time>2026-08-14T02:07:55.000Z</time>
      </trkpt>
      <trkpt lat="22.755941" lon="108.403925">
        <ele>61.106159</ele>
        <time>2026-08-14T02:07:56.000Z</time>
      </trkpt>
      <trkpt lat="22.755919" lon="108.403980">
        <ele>61.118279</ele>
        <time>2026-08-14T02:07:57.000Z</time>
      </trkpt>
      <trkpt lat="22.755888" lon="108.404032">
        <ele>61.130796</ele>
        <time>2026-08-14T02:07:58.000Z</time>
      </trkpt>
      <trkpt lat="22.755860" lon="108.404082">
        <ele>61.142621</ele>
        <time>2026-08-14T02:07:59.000Z</time>
      </trkpt>
      <trkpt lat="22.755836" lon="108.404131">
        <ele>61.153837</ele>
        <time>2026-08-14T02:08:00.000Z</time>
      </trkpt>
      <trkpt lat="22.755806" lon="108.404181">
        <ele>61.165896</ele>
        <time>2026-08-14T02:08:01.000Z</time>
      </trkpt>
      <trkpt lat="22.755776" lon="108.404234">
        <ele>61.178468</ele>
        <time>2026-08-14T02:08:02.000Z</time>
      </trkpt>
      <trkpt lat="22.755748" lon="108.404285">
        <ele>61.190466</ele>
        <time>2026-08-14T02:08:03.000Z</time>
      </trkpt>
      <trkpt lat="22.755717" lon="108.404335">
        <ele>61.202646</ele>
        <time>2026-08-14T02:08:04.000Z</time>
      </trkpt>
      <trkpt lat="22.755687" lon="108.404381">
        <ele>61.214035</ele>
        <time>2026-08-14T02:08:05.000Z</time>
      </trkpt>
      <trkpt lat="22.755660" lon="108.404429">
        <ele>61.200026</ele>
        <time>2026-08-14T02:08:06.000Z</time>
      </trkpt>
      <trkpt lat="22.755642" lon="108.404478">
        <ele>61.185712</ele>
        <time>2026-08-14T02:08:07.000Z</time>
      </trkpt>
      <trkpt lat="22.755616" lon="108.404523">
        <ele>61.171301</ele>
        <time>2026-08-14T02:08:08.000Z</time>
      </trkpt>
      <trkpt lat="22.755593" lon="108.404571">
        <ele>61.156621</ele>
        <time>2026-08-14T02:08:09.000Z</time>
      </trkpt>
      <trkpt lat="22.755574" lon="108.404628">
        <ele>61.140173</ele>
        <time>2026-08-14T02:08:10.000Z</time>
      </trkpt>
      <trkpt lat="22.755545" lon="108.404675">
        <ele>61.124826</ele>
        <time>2026-08-14T02:08:11.000Z</time>
      </trkpt>
      <trkpt lat="22.755516" lon="108.404731">
        <ele>61.107397</ele>
        <time>2026-08-14T02:08:12.000Z</time>
      </trkpt>
      <trkpt lat="22.755487" lon="108.404784">
        <ele>61.090672</ele>
        <time>2026-08-14T02:08:13.000Z</time>
      </trkpt>
      <trkpt lat="22.755462" lon="108.404843">
        <ele>61.073051</ele>
        <time>2026-08-14T02:08:14.000Z</time>
      </trkpt>
      <trkpt lat="22.755434" lon="108.404904">
        <ele>61.054559</ele>
        <time>2026-08-14T02:08:15.000Z</time>
      </trkpt>
      <trkpt lat="22.755402" lon="108.404960">
        <ele>61.036681</ele>
        <time>2026-08-14T02:08:16.000Z</time>
      </trkpt>
      <trkpt lat="22.755375" lon="108.405018">
        <ele>61.019049</ele>
        <time>2026-08-14T02:08:17.000Z</time>
      </trkpt>
      <trkpt lat="22.755338" lon="108.405074">
        <ele>61.000353</ele>
        <time>2026-08-14T02:08:18.000Z</time>
      </trkpt>
      <trkpt lat="22.755307" lon="108.405131">
        <ele>60.982395</ele>
        <time>2026-08-14T02:08:19.000Z</time>
      </trkpt>
      <trkpt lat="22.755276" lon="108.405191">
        <ele>60.963730</ele>
        <time>2026-08-14T02:08:20.000Z</time>
      </trkpt>
      <trkpt lat="22.755257" lon="108.405255">
        <ele>60.945484</ele>
        <time>2026-08-14T02:08:21.000Z</time>
      </trkpt>
      <trkpt lat="22.755232" lon="108.405314">
        <ele>60.927863</ele>
        <time>2026-08-14T02:08:22.000Z</time>
      </trkpt>
      <trkpt lat="22.755210" lon="108.405373">
        <ele>60.910592</ele>
        <time>2026-08-14T02:08:23.000Z</time>
      </trkpt>
      <trkpt lat="22.755193" lon="108.405439">
        <ele>60.891995</ele>
        <time>2026-08-14T02:08:24.000Z</time>
      </trkpt>
      <trkpt lat="22.755178" lon="108.405502">
        <ele>60.874338</ele>
        <time>2026-08-14T02:08:25.000Z</time>
      </trkpt>
      <trkpt lat="22.755162" lon="108.405565">
        <ele>60.856604</ele>
        <time>2026-08-14T02:08:26.000Z</time>
      </trkpt>
      <trkpt lat="22.755142" lon="108.405627">
        <ele>60.838779</ele>
        <time>2026-08-14T02:08:27.000Z</time>
      </trkpt>
      <trkpt lat="22.755124" lon="108.405692">
        <ele>60.820361</ele>
        <time>2026-08-14T02:08:28.000Z</time>
      </trkpt>
      <trkpt lat="22.755102" lon="108.405757">
        <ele>60.801570</ele>
        <time>2026-08-14T02:08:29.000Z</time>
      </trkpt>
      <trkpt lat="22.755085" lon="108.405822">
        <ele>60.783235</ele>
        <time>2026-08-14T02:08:30.000Z</time>
      </trkpt>
      <trkpt lat="22.755067" lon="108.405884">
        <ele>60.765595</ele>
        <time>2026-08-14T02:08:31.000Z</time>
      </trkpt>
      <trkpt lat="22.755048" lon="108.405947">
        <ele>60.747607</ele>
        <time>2026-08-14T02:08:32.000Z</time>
      </trkpt>
      <trkpt lat="22.755027" lon="108.406007">
        <ele>60.730190</ele>
        <time>2026-08-14T02:08:33.000Z</time>
      </trkpt>
      <trkpt lat="22.755005" lon="108.406071">
        <ele>60.711654</ele>
        <time>2026-08-14T02:08:34.000Z</time>
      </trkpt>
      <trkpt lat="22.754993" lon="108.406133">
        <ele>60.694462</ele>
        <time>2026-08-14T02:08:35.000Z</time>
      </trkpt>
      <trkpt lat="22.754983" lon="108.406201">
        <ele>60.674999</ele>
        <time>2026-08-14T02:08:36.000Z</time>
      </trkpt>
      <trkpt lat="22.754972" lon="108.406267">
        <ele>60.655307</ele>
        <time>2026-08-14T02:08:37.000Z</time>
      </trkpt>
      <trkpt lat="22.754962" lon="108.406334">
        <ele>60.635380</ele>
        <time>2026-08-14T02:08:38.000Z</time>
      </trkpt>
      <trkpt lat="22.754944" lon="108.406403">
        <ele>60.614326</ele>
        <time>2026-08-14T02:08:39.000Z</time>
      </trkpt>
      <trkpt lat="22.754931" lon="108.406469">
        <ele>60.594511</ele>
        <time>2026-08-14T02:08:40.000Z</time>
      </trkpt>
      <trkpt lat="22.754920" lon="108.406532">
        <ele>60.575685</ele>
        <time>2026-08-14T02:08:41.000Z</time>
      </trkpt>
      <trkpt lat="22.754910" lon="108.406594">
        <ele>60.557205</ele>
        <time>2026-08-14T02:08:42.000Z</time>
      </trkpt>
      <trkpt lat="22.754904" lon="108.406657">
        <ele>60.538610</ele>
        <time>2026-08-14T02:08:43.000Z</time>
      </trkpt>
      <trkpt lat="22.754896" lon="108.406719">
        <ele>60.520229</ele>
        <time>2026-08-14T02:08:44.000Z</time>
      </trkpt>
      <trkpt lat="22.754887" lon="108.406784">
        <ele>60.500931</ele>
        <time>2026-08-14T02:08:45.000Z</time>
      </trkpt>
      <trkpt lat="22.754877" lon="108.406847">
        <ele>60.482161</ele>
        <time>2026-08-14T02:08:46.000Z</time>
      </trkpt>
      <trkpt lat="22.754868" lon="108.406913">
        <ele>60.462573</ele>
        <time>2026-08-14T02:08:47.000Z</time>
      </trkpt>
      <trkpt lat="22.754855" lon="108.406977">
        <ele>60.443332</ele>
        <time>2026-08-14T02:08:48.000Z</time>
      </trkpt>
      <trkpt lat="22.754842" lon="108.407042">
        <ele>60.423804</ele>
        <time>2026-08-14T02:08:49.000Z</time>
      </trkpt>
      <trkpt lat="22.754829" lon="108.407105">
        <ele>60.404849</ele>
        <time>2026-08-14T02:08:50.000Z</time>
      </trkpt>
      <trkpt lat="22.754818" lon="108.407169">
        <ele>60.385735</ele>
        <time>2026-08-14T02:08:51.000Z</time>
      </trkpt>
      <trkpt lat="22.754808" lon="108.407233">
        <ele>60.366676</ele>
        <time>2026-08-14T02:08:52.000Z</time>
      </trkpt>
      <trkpt lat="22.754795" lon="108.407299">
        <ele>60.346861</ele>
        <time>2026-08-14T02:08:53.000Z</time>
      </trkpt>
      <trkpt lat="22.754782" lon="108.407363">
        <ele>60.327620</ele>
        <time>2026-08-14T02:08:54.000Z</time>
      </trkpt>
      <trkpt lat="22.754769" lon="108.407428">
        <ele>60.308092</ele>
        <time>2026-08-14T02:08:55.000Z</time>
      </trkpt>
      <trkpt lat="22.754756" lon="108.407494">
        <ele>60.288277</ele>
        <time>2026-08-14T02:08:56.000Z</time>
      </trkpt>
      <trkpt lat="22.754743" lon="108.407559">
        <ele>60.268749</ele>
        <time>2026-08-14T02:08:57.000Z</time>
      </trkpt>
      <trkpt lat="22.754733" lon="108.407625">
        <ele>60.249111</ele>
        <time>2026-08-14T02:08:58.000Z</time>
      </trkpt>
      <trkpt lat="22.754723" lon="108.407692">
        <ele>60.229183</ele>
        <time>2026-08-14T02:08:59.000Z</time>
      </trkpt>
      <trkpt lat="22.754714" lon="108.407760">
        <ele>60.209014</ele>
        <time>2026-08-14T02:09:00.000Z</time>
      </trkpt>
      <trkpt lat="22.754707" lon="108.407828">
        <ele>60.188925</ele>
        <time>2026-08-14T02:09:01.000Z</time>
      </trkpt>
      <trkpt lat="22.754697" lon="108.407895">
        <ele>60.168997</ele>
        <time>2026-08-14T02:09:02.000Z</time>
      </trkpt>
      <trkpt lat="22.754688" lon="108.407959">
        <ele>60.149989</ele>
        <time>2026-08-14T02:09:03.000Z</time>
      </trkpt>
      <trkpt lat="22.754682" lon="108.408027">
        <ele>60.129933</ele>
        <time>2026-08-14T02:09:04.000Z</time>
      </trkpt>
      <trkpt lat="22.754675" lon="108.408094">
        <ele>60.109431</ele>
        <time>2026-08-14T02:09:05.000Z</time>
      </trkpt>
      <trkpt lat="22.754671" lon="108.408160">
        <ele>60.084434</ele>
        <time>2026-08-14T02:09:06.000Z</time>
      </trkpt>
      <trkpt lat="22.754666" lon="108.408225">
        <ele>60.059783</ele>
        <time>2026-08-14T02:09:07.000Z</time>
      </trkpt>
      <trkpt lat="22.754661" lon="108.408290">
        <ele>60.035132</ele>
        <time>2026-08-14T02:09:08.000Z</time>
      </trkpt>
      <trkpt lat="22.754657" lon="108.408355">
        <ele>60.010512</ele>
        <time>2026-08-14T02:09:09.000Z</time>
      </trkpt>
      <trkpt lat="22.754654" lon="108.408421">
        <ele>59.985538</ele>
        <time>2026-08-14T02:09:10.000Z</time>
      </trkpt>
      <trkpt lat="22.754649" lon="108.408485">
        <ele>59.961264</ele>
        <time>2026-08-14T02:09:11.000Z</time>
      </trkpt>
      <trkpt lat="22.754644" lon="108.408550">
        <ele>59.936613</ele>
        <time>2026-08-14T02:09:12.000Z</time>
      </trkpt>
      <trkpt lat="22.754642" lon="108.408616">
        <ele>59.911657</ele>
        <time>2026-08-14T02:09:13.000Z</time>
      </trkpt>
      <trkpt lat="22.754638" lon="108.408681">
        <ele>59.887036</ele>
        <time>2026-08-14T02:09:14.000Z</time>
      </trkpt>
      <trkpt lat="22.754632" lon="108.408746">
        <ele>59.862348</ele>
        <time>2026-08-14T02:09:15.000Z</time>
      </trkpt>
      <trkpt lat="22.754631" lon="108.408810">
        <ele>59.838157</ele>
        <time>2026-08-14T02:09:16.000Z</time>
      </trkpt>
      <trkpt lat="22.754622" lon="108.408864">
        <ele>59.817418</ele>
        <time>2026-08-14T02:09:17.000Z</time>
      </trkpt>
      <trkpt lat="22.754621" lon="108.408926">
        <ele>59.793983</ele>
        <time>2026-08-14T02:09:18.000Z</time>
      </trkpt>
      <trkpt lat="22.754623" lon="108.408980">
        <ele>59.773558</ele>
        <time>2026-08-14T02:09:19.000Z</time>
      </trkpt>
      <trkpt lat="22.754624" lon="108.409042">
        <ele>59.750123</ele>
        <time>2026-08-14T02:09:20.000Z</time>
      </trkpt>
      <trkpt lat="22.754622" lon="108.409107">
        <ele>59.725544</ele>
        <time>2026-08-14T02:09:21.000Z</time>
      </trkpt>
      <trkpt lat="22.754621" lon="108.409171">
        <ele>59.701353</ele>
        <time>2026-08-14T02:09:22.000Z</time>
      </trkpt>
      <trkpt lat="22.754621" lon="108.409236">
        <ele>59.676788</ele>
        <time>2026-08-14T02:09:23.000Z</time>
      </trkpt>
      <trkpt lat="22.754621" lon="108.409302">
        <ele>59.651844</ele>
        <time>2026-08-14T02:09:24.000Z</time>
      </trkpt>
      <trkpt lat="22.754621" lon="108.409364">
        <ele>59.628413</ele>
        <time>2026-08-14T02:09:25.000Z</time>
      </trkpt>
      <trkpt lat="22.754623" lon="108.409427">
        <ele>59.604589</ele>
        <time>2026-08-14T02:09:26.000Z</time>
      </trkpt>
      <trkpt lat="22.754624" lon="108.409491">
        <ele>59.580398</ele>
        <time>2026-08-14T02:09:27.000Z</time>
      </trkpt>
      <trkpt lat="22.754627" lon="108.409552">
        <ele>59.557311</ele>
        <time>2026-08-14T02:09:28.000Z</time>
      </trkpt>
      <trkpt lat="22.754633" lon="108.409613">
        <ele>59.534127</ele>
        <time>2026-08-14T02:09:29.000Z</time>
      </trkpt>
      <trkpt lat="22.754640" lon="108.409674">
        <ele>59.510895</ele>
        <time>2026-08-14T02:09:30.000Z</time>
      </trkpt>
      <trkpt lat="22.754648" lon="108.409736">
        <ele>59.487236</ele>
        <time>2026-08-14T02:09:31.000Z</time>
      </trkpt>
      <trkpt lat="22.754654" lon="108.409799">
        <ele>59.463299</ele>
        <time>2026-08-14T02:09:32.000Z</time>
      </trkpt>
      <trkpt lat="22.754658" lon="108.409860">
        <ele>59.440187</ele>
        <time>2026-08-14T02:09:33.000Z</time>
      </trkpt>
      <trkpt lat="22.754661" lon="108.409914">
        <ele>59.419742</ele>
        <time>2026-08-14T02:09:34.000Z</time>
      </trkpt>
      <trkpt lat="22.754668" lon="108.409967">
        <ele>59.399507</ele>
        <time>2026-08-14T02:09:35.000Z</time>
      </trkpt>
      <trkpt lat="22.754672" lon="108.410023">
        <ele>59.378280</ele>
        <time>2026-08-14T02:09:36.000Z</time>
      </trkpt>
      <trkpt lat="22.754682" lon="108.410081">
        <ele>59.356841</ele>
        <time>2026-08-14T02:09:37.000Z</time>
      </trkpt>
      <trkpt lat="22.754691" lon="108.410134">
        <ele>59.337375</ele>
        <time>2026-08-14T02:09:38.000Z</time>
      </trkpt>
      <trkpt lat="22.754697" lon="108.410194">
        <ele>59.315575</ele>
        <time>2026-08-14T02:09:39.000Z</time>
      </trkpt>
      <trkpt lat="22.754700" lon="108.410252">
        <ele>59.294591</ele>
        <time>2026-08-14T02:09:40.000Z</time>
      </trkpt>
      <trkpt lat="22.754704" lon="108.410312">
        <ele>59.272862</ele>
        <time>2026-08-14T02:09:41.000Z</time>
      </trkpt>
      <trkpt lat="22.754708" lon="108.410370">
        <ele>59.251852</ele>
        <time>2026-08-14T02:09:42.000Z</time>
      </trkpt>
      <trkpt lat="22.754710" lon="108.410427">
        <ele>59.231248</ele>
        <time>2026-08-14T02:09:43.000Z</time>
      </trkpt>
      <trkpt lat="22.754705" lon="108.410481">
        <ele>59.211644</ele>
        <time>2026-08-14T02:09:44.000Z</time>
      </trkpt>
      <trkpt lat="22.754712" lon="108.410539">
        <ele>59.190515</ele>
        <time>2026-08-14T02:09:45.000Z</time>
      </trkpt>
      <trkpt lat="22.754715" lon="108.410598">
        <ele>59.169171</ele>
        <time>2026-08-14T02:09:46.000Z</time>
      </trkpt>
      <trkpt lat="22.754717" lon="108.410660">
        <ele>59.146761</ele>
        <time>2026-08-14T02:09:47.000Z</time>
      </trkpt>
      <trkpt lat="22.754734" lon="108.410718">
        <ele>59.124778</ele>
        <time>2026-08-14T02:09:48.000Z</time>
      </trkpt>
      <trkpt lat="22.754747" lon="108.410761">
        <ele>59.108432</ele>
        <time>2026-08-14T02:09:49.000Z</time>
      </trkpt>
      <trkpt lat="22.754755" lon="108.410823">
        <ele>59.085818</ele>
        <time>2026-08-14T02:09:50.000Z</time>
      </trkpt>
      <trkpt lat="22.754769" lon="108.410879">
        <ele>59.064860</ele>
        <time>2026-08-14T02:09:51.000Z</time>
      </trkpt>
      <trkpt lat="22.754778" lon="108.410941">
        <ele>59.042189</ele>
        <time>2026-08-14T02:09:52.000Z</time>
      </trkpt>
      <trkpt lat="22.754793" lon="108.411001">
        <ele>59.019733</ele>
        <time>2026-08-14T02:09:53.000Z</time>
      </trkpt>
      <trkpt lat="22.754808" lon="108.411061">
        <ele>58.997278</ele>
        <time>2026-08-14T02:09:54.000Z</time>
      </trkpt>
      <trkpt lat="22.754821" lon="108.411121">
        <ele>58.975015</ele>
        <time>2026-08-14T02:09:55.000Z</time>
      </trkpt>
      <trkpt lat="22.754831" lon="108.411184">
        <ele>58.951923</ele>
        <time>2026-08-14T02:09:56.000Z</time>
      </trkpt>
      <trkpt lat="22.754836" lon="108.411248">
        <ele>58.928722</ele>
        <time>2026-08-14T02:09:57.000Z</time>
      </trkpt>
      <trkpt lat="22.754849" lon="108.411313">
        <ele>58.904697</ele>
        <time>2026-08-14T02:09:58.000Z</time>
      </trkpt>
      <trkpt lat="22.754854" lon="108.411373">
        <ele>58.882936</ele>
        <time>2026-08-14T02:09:59.000Z</time>
      </trkpt>
      <trkpt lat="22.754863" lon="108.411437">
        <ele>58.859551</ele>
        <time>2026-08-14T02:10:00.000Z</time>
      </trkpt>
      <trkpt lat="22.754874" lon="108.411501">
        <ele>58.836035</ele>
        <time>2026-08-14T02:10:01.000Z</time>
      </trkpt>
      <trkpt lat="22.754885" lon="108.411565">
        <ele>58.812519</ele>
        <time>2026-08-14T02:10:02.000Z</time>
      </trkpt>
      <trkpt lat="22.754897" lon="108.411628">
        <ele>58.789282</ele>
        <time>2026-08-14T02:10:03.000Z</time>
      </trkpt>
      <trkpt lat="22.754903" lon="108.411688">
        <ele>58.767482</ele>
        <time>2026-08-14T02:10:04.000Z</time>
      </trkpt>
      <trkpt lat="22.754901" lon="108.411749">
        <ele>58.745433</ele>
        <time>2026-08-14T02:10:05.000Z</time>
      </trkpt>
      <trkpt lat="22.754905" lon="108.411807">
        <ele>58.724424</ele>
        <time>2026-08-14T02:10:06.000Z</time>
      </trkpt>
      <trkpt lat="22.754898" lon="108.411874">
        <ele>58.700068</ele>
        <time>2026-08-14T02:10:07.000Z</time>
      </trkpt>
      <trkpt lat="22.754903" lon="108.411938">
        <ele>58.676867</ele>
        <time>2026-08-14T02:10:08.000Z</time>
      </trkpt>
      <trkpt lat="22.754908" lon="108.412001">
        <ele>58.671612</ele>
        <time>2026-08-14T02:10:09.000Z</time>
      </trkpt>
      <trkpt lat="22.754914" lon="108.412062">
        <ele>58.672522</ele>
        <time>2026-08-14T02:10:10.000Z</time>
      </trkpt>
      <trkpt lat="22.754925" lon="108.412124">
        <ele>58.673460</ele>
        <time>2026-08-14T02:10:11.000Z</time>
      </trkpt>
      <trkpt lat="22.754931" lon="108.412189">
        <ele>58.674429</ele>
        <time>2026-08-14T02:10:12.000Z</time>
      </trkpt>
      <trkpt lat="22.754946" lon="108.412251">
        <ele>58.675380</ele>
        <time>2026-08-14T02:10:13.000Z</time>
      </trkpt>
      <trkpt lat="22.754951" lon="108.412312">
        <ele>58.676289</ele>
        <time>2026-08-14T02:10:14.000Z</time>
      </trkpt>
      <trkpt lat="22.754959" lon="108.412374">
        <ele>58.677218</ele>
        <time>2026-08-14T02:10:15.000Z</time>
      </trkpt>
      <trkpt lat="22.754963" lon="108.412436">
        <ele>58.678141</ele>
        <time>2026-08-14T02:10:16.000Z</time>
      </trkpt>
      <trkpt lat="22.754967" lon="108.412498">
        <ele>58.679063</ele>
        <time>2026-08-14T02:10:17.000Z</time>
      </trkpt>
      <trkpt lat="22.754976" lon="108.412559">
        <ele>58.679980</ele>
        <time>2026-08-14T02:10:18.000Z</time>
      </trkpt>
      <trkpt lat="22.754986" lon="108.412620">
        <ele>58.680900</ele>
        <time>2026-08-14T02:10:19.000Z</time>
      </trkpt>
      <trkpt lat="22.754994" lon="108.412679">
        <ele>58.681785</ele>
        <time>2026-08-14T02:10:20.000Z</time>
      </trkpt>
      <trkpt lat="22.755000" lon="108.412740">
        <ele>58.682695</ele>
        <time>2026-08-14T02:10:21.000Z</time>
      </trkpt>
      <trkpt lat="22.755012" lon="108.412804">
        <ele>58.683665</ele>
        <time>2026-08-14T02:10:22.000Z</time>
      </trkpt>
      <trkpt lat="22.755023" lon="108.412866">
        <ele>58.684602</ele>
        <time>2026-08-14T02:10:23.000Z</time>
      </trkpt>
      <trkpt lat="22.755032" lon="108.412925">
        <ele>58.685489</ele>
        <time>2026-08-14T02:10:24.000Z</time>
      </trkpt>
      <trkpt lat="22.755044" lon="108.412985">
        <ele>58.686401</ele>
        <time>2026-08-14T02:10:25.000Z</time>
      </trkpt>
      <trkpt lat="22.755060" lon="108.413046">
        <ele>58.687342</ele>
        <time>2026-08-14T02:10:26.000Z</time>
      </trkpt>
      <trkpt lat="22.755076" lon="108.413105">
        <ele>58.688255</ele>
        <time>2026-08-14T02:10:27.000Z</time>
      </trkpt>
      <trkpt lat="22.755092" lon="108.413166">
        <ele>58.689196</ele>
        <time>2026-08-14T02:10:28.000Z</time>
      </trkpt>
      <trkpt lat="22.755105" lon="108.413228">
        <ele>58.690139</ele>
        <time>2026-08-14T02:10:29.000Z</time>
      </trkpt>
      <trkpt lat="22.755120" lon="108.413289">
        <ele>58.691076</ele>
        <time>2026-08-14T02:10:30.000Z</time>
      </trkpt>
      <trkpt lat="22.755131" lon="108.413349">
        <ele>58.691984</ele>
        <time>2026-08-14T02:10:31.000Z</time>
      </trkpt>
      <trkpt lat="22.755143" lon="108.413410">
        <ele>58.692910</ele>
        <time>2026-08-14T02:10:32.000Z</time>
      </trkpt>
      <trkpt lat="22.755155" lon="108.413469">
        <ele>58.693807</ele>
        <time>2026-08-14T02:10:33.000Z</time>
      </trkpt>
      <trkpt lat="22.755166" lon="108.413528">
        <ele>58.694700</ele>
        <time>2026-08-14T02:10:34.000Z</time>
      </trkpt>
      <trkpt lat="22.755180" lon="108.413589">
        <ele>58.695633</ele>
        <time>2026-08-14T02:10:35.000Z</time>
      </trkpt>
      <trkpt lat="22.755192" lon="108.413649">
        <ele>58.696544</ele>
        <time>2026-08-14T02:10:36.000Z</time>
      </trkpt>
      <trkpt lat="22.755203" lon="108.413709">
        <ele>58.697452</ele>
        <time>2026-08-14T02:10:37.000Z</time>
      </trkpt>
      <trkpt lat="22.755219" lon="108.413767">
        <ele>58.698351</ele>
        <time>2026-08-14T02:10:38.000Z</time>
      </trkpt>
      <trkpt lat="22.755235" lon="108.413823">
        <ele>58.699221</ele>
        <time>2026-08-14T02:10:39.000Z</time>
      </trkpt>
      <trkpt lat="22.755249" lon="108.413880">
        <ele>58.706354</ele>
        <time>2026-08-14T02:10:40.000Z</time>
      </trkpt>
      <trkpt lat="22.755253" lon="108.413937">
        <ele>58.730263</ele>
        <time>2026-08-14T02:10:41.000Z</time>
      </trkpt>
      <trkpt lat="22.755261" lon="108.413997">
        <ele>58.755619</ele>
        <time>2026-08-14T02:10:42.000Z</time>
      </trkpt>
      <trkpt lat="22.755270" lon="108.414056">
        <ele>58.780630</ele>
        <time>2026-08-14T02:10:43.000Z</time>
      </trkpt>
      <trkpt lat="22.755282" lon="108.414115">
        <ele>58.805900</ele>
        <time>2026-08-14T02:10:44.000Z</time>
      </trkpt>
      <trkpt lat="22.755292" lon="108.414172">
        <ele>58.830167</ele>
        <time>2026-08-14T02:10:45.000Z</time>
      </trkpt>
      <trkpt lat="22.755306" lon="108.414230">
        <ele>58.855242</ele>
        <time>2026-08-14T02:10:46.000Z</time>
      </trkpt>
      <trkpt lat="22.755317" lon="108.414290">
        <ele>58.880828</ele>
        <time>2026-08-14T02:10:47.000Z</time>
      </trkpt>
      <trkpt lat="22.755331" lon="108.414350">
        <ele>58.906713</ele>
        <time>2026-08-14T02:10:48.000Z</time>
      </trkpt>
      <trkpt lat="22.755341" lon="108.414407">
        <ele>58.930981</ele>
        <time>2026-08-14T02:10:49.000Z</time>
      </trkpt>
      <trkpt lat="22.755355" lon="108.414464">
        <ele>58.955652</ele>
        <time>2026-08-14T02:10:50.000Z</time>
      </trkpt>
      <trkpt lat="22.755366" lon="108.414520">
        <ele>58.979599</ele>
        <time>2026-08-14T02:10:51.000Z</time>
      </trkpt>
      <trkpt lat="22.755379" lon="108.414567">
        <ele>59.000121</ele>
        <time>2026-08-14T02:10:52.000Z</time>
      </trkpt>
      <trkpt lat="22.755396" lon="108.414616">
        <ele>59.022018</ele>
        <time>2026-08-14T02:10:53.000Z</time>
      </trkpt>
      <trkpt lat="22.755411" lon="108.414666">
        <ele>59.044008</ele>
        <time>2026-08-14T02:10:54.000Z</time>
      </trkpt>
      <trkpt lat="22.755418" lon="108.414715">
        <ele>59.064747</ele>
        <time>2026-08-14T02:10:55.000Z</time>
      </trkpt>
      <trkpt lat="22.755426" lon="108.414766">
        <ele>59.086384</ele>
        <time>2026-08-14T02:10:56.000Z</time>
      </trkpt>
      <trkpt lat="22.755438" lon="108.414817">
        <ele>59.108397</ele>
        <time>2026-08-14T02:10:57.000Z</time>
      </trkpt>
      <trkpt lat="22.755447" lon="108.414865">
        <ele>59.128884</ele>
        <time>2026-08-14T02:10:58.000Z</time>
      </trkpt>
      <trkpt lat="22.755456" lon="108.414904">
        <ele>59.145698</ele>
        <time>2026-08-14T02:10:59.000Z</time>
      </trkpt>
      <trkpt lat="22.755463" lon="108.414944">
        <ele>59.162726</ele>
        <time>2026-08-14T02:11:00.000Z</time>
      </trkpt>
      <trkpt lat="22.755471" lon="108.414976">
        <ele>59.176593</ele>
        <time>2026-08-14T02:11:01.000Z</time>
      </trkpt>
      <trkpt lat="22.755475" lon="108.415006">
        <ele>59.189271</ele>
        <time>2026-08-14T02:11:02.000Z</time>
      </trkpt>
      <trkpt lat="22.755478" lon="108.415035">
        <ele>59.201476</ele>
        <time>2026-08-14T02:11:03.000Z</time>
      </trkpt>
      <trkpt lat="22.755477" lon="108.415061">
        <ele>59.212360</ele>
        <time>2026-08-14T02:11:04.000Z</time>
      </trkpt>
      <trkpt lat="22.755478" lon="108.415087">
        <ele>59.223244</ele>
        <time>2026-08-14T02:11:05.000Z</time>
      </trkpt>
      <trkpt lat="22.755479" lon="108.415116">
        <ele>59.235381</ele>
        <time>2026-08-14T02:11:06.000Z</time>
      </trkpt>
      <trkpt lat="22.755483" lon="108.415144">
        <ele>59.247232</ele>
        <time>2026-08-14T02:11:07.000Z</time>
      </trkpt>
      <trkpt lat="22.755493" lon="108.415172">
        <ele>59.259790</ele>
        <time>2026-08-14T02:11:08.000Z</time>
      </trkpt>
      <trkpt lat="22.755508" lon="108.415201">
        <ele>59.273697</ele>
        <time>2026-08-14T02:11:09.000Z</time>
      </trkpt>
      <trkpt lat="22.755521" lon="108.415239">
        <ele>59.290648</ele>
        <time>2026-08-14T02:11:10.000Z</time>
      </trkpt>
      <trkpt lat="22.755535" lon="108.415276">
        <ele>59.307375</ele>
        <time>2026-08-14T02:11:11.000Z</time>
      </trkpt>
      <trkpt lat="22.755547" lon="108.415312">
        <ele>59.323385</ele>
        <time>2026-08-14T02:11:12.000Z</time>
      </trkpt>
      <trkpt lat="22.755564" lon="108.415354">
        <ele>59.342569</ele>
        <time>2026-08-14T02:11:13.000Z</time>
      </trkpt>
      <trkpt lat="22.755572" lon="108.415395">
        <ele>59.360097</ele>
        <time>2026-08-14T02:11:14.000Z</time>
      </trkpt>
      <trkpt lat="22.755583" lon="108.415439">
        <ele>59.379164</ele>
        <time>2026-08-14T02:11:15.000Z</time>
      </trkpt>
      <trkpt lat="22.755591" lon="108.415488">
        <ele>59.399976</ele>
        <time>2026-08-14T02:11:16.000Z</time>
      </trkpt>
      <trkpt lat="22.755594" lon="108.415541">
        <ele>59.422185</ele>
        <time>2026-08-14T02:11:17.000Z</time>
      </trkpt>
      <trkpt lat="22.755597" lon="108.415592">
        <ele>59.443558</ele>
        <time>2026-08-14T02:11:18.000Z</time>
      </trkpt>
      <trkpt lat="22.755597" lon="108.415648">
        <ele>59.466980</ele>
        <time>2026-08-14T02:11:19.000Z</time>
      </trkpt>
      <trkpt lat="22.755601" lon="108.415699">
        <ele>59.488387</ele>
        <time>2026-08-14T02:11:20.000Z</time>
      </trkpt>
      <trkpt lat="22.755606" lon="108.415756">
        <ele>59.512335</ele>
        <time>2026-08-14T02:11:21.000Z</time>
      </trkpt>
      <trkpt lat="22.755610" lon="108.415805">
        <ele>59.531878</ele>
        <time>2026-08-14T02:11:22.000Z</time>
      </trkpt>
      <trkpt lat="22.755618" lon="108.415857">
        <ele>59.552613</ele>
        <time>2026-08-14T02:11:23.000Z</time>
      </trkpt>
      <trkpt lat="22.755630" lon="108.415909">
        <ele>59.573695</ele>
        <time>2026-08-14T02:11:24.000Z</time>
      </trkpt>
      <trkpt lat="22.755641" lon="108.415962">
        <ele>59.595062</ele>
        <time>2026-08-14T02:11:25.000Z</time>
      </trkpt>
      <trkpt lat="22.755654" lon="108.416013">
        <ele>59.615873</ele>
        <time>2026-08-14T02:11:26.000Z</time>
      </trkpt>
      <trkpt lat="22.755663" lon="108.416067">
        <ele>59.637455</ele>
        <time>2026-08-14T02:11:27.000Z</time>
      </trkpt>
      <trkpt lat="22.755668" lon="108.416113">
        <ele>59.655673</ele>
        <time>2026-08-14T02:11:28.000Z</time>
      </trkpt>
      <trkpt lat="22.755677" lon="108.416166">
        <ele>59.676868</ele>
        <time>2026-08-14T02:11:29.000Z</time>
      </trkpt>
      <trkpt lat="22.755688" lon="108.416221">
        <ele>59.699003</ele>
        <time>2026-08-14T02:11:30.000Z</time>
      </trkpt>
      <trkpt lat="22.755702" lon="108.416275">
        <ele>59.721065</ele>
        <time>2026-08-14T02:11:31.000Z</time>
      </trkpt>
      <trkpt lat="22.755714" lon="108.416329">
        <ele>59.742911</ele>
        <time>2026-08-14T02:11:32.000Z</time>
      </trkpt>
      <trkpt lat="22.755726" lon="108.416389">
        <ele>59.767058</ele>
        <time>2026-08-14T02:11:33.000Z</time>
      </trkpt>
      <trkpt lat="22.755735" lon="108.416441">
        <ele>59.787867</ele>
        <time>2026-08-14T02:11:34.000Z</time>
      </trkpt>
      <trkpt lat="22.755746" lon="108.416495">
        <ele>59.809617</ele>
        <time>2026-08-14T02:11:35.000Z</time>
      </trkpt>
      <trkpt lat="22.755758" lon="108.416547">
        <ele>59.830700</ele>
        <time>2026-08-14T02:11:36.000Z</time>
      </trkpt>
      <trkpt lat="22.755765" lon="108.416597">
        <ele>59.850591</ele>
        <time>2026-08-14T02:11:37.000Z</time>
      </trkpt>
      <trkpt lat="22.755784" lon="108.416652">
        <ele>59.873690</ele>
        <time>2026-08-14T02:11:38.000Z</time>
      </trkpt>
      <trkpt lat="22.755794" lon="108.416708">
        <ele>59.896125</ele>
        <time>2026-08-14T02:11:39.000Z</time>
      </trkpt>
      <trkpt lat="22.755807" lon="108.416765">
        <ele>59.919218</ele>
        <time>2026-08-14T02:11:40.000Z</time>
      </trkpt>
      <trkpt lat="22.755820" lon="108.416824">
        <ele>59.943076</ele>
        <time>2026-08-14T02:11:41.000Z</time>
      </trkpt>
      <trkpt lat="22.755832" lon="108.416881">
        <ele>59.966072</ele>
        <time>2026-08-14T02:11:42.000Z</time>
      </trkpt>
      <trkpt lat="22.755846" lon="108.416941">
        <ele>59.990414</ele>
        <time>2026-08-14T02:11:43.000Z</time>
      </trkpt>
      <trkpt lat="22.755857" lon="108.416997">
        <ele>60.012933</ele>
        <time>2026-08-14T02:11:44.000Z</time>
      </trkpt>
      <trkpt lat="22.755870" lon="108.417057">
        <ele>60.037174</ele>
        <time>2026-08-14T02:11:45.000Z</time>
      </trkpt>
      <trkpt lat="22.755883" lon="108.417117">
        <ele>60.061414</ele>
        <time>2026-08-14T02:11:46.000Z</time>
      </trkpt>
      <trkpt lat="22.755895" lon="108.417176">
        <ele>60.085177</ele>
        <time>2026-08-14T02:11:47.000Z</time>
      </trkpt>
      <trkpt lat="22.755904" lon="108.417237">
        <ele>60.109474</ele>
        <time>2026-08-14T02:11:48.000Z</time>
      </trkpt>
      <trkpt lat="22.755916" lon="108.417296">
        <ele>60.133236</ele>
        <time>2026-08-14T02:11:49.000Z</time>
      </trkpt>
      <trkpt lat="22.755936" lon="108.417355">
        <ele>60.157960</ele>
        <time>2026-08-14T02:11:50.000Z</time>
      </trkpt>
      <trkpt lat="22.755950" lon="108.417410">
        <ele>60.180400</ele>
        <time>2026-08-14T02:11:51.000Z</time>
      </trkpt>
      <trkpt lat="22.755952" lon="108.417464">
        <ele>60.201656</ele>
        <time>2026-08-14T02:11:52.000Z</time>
      </trkpt>
      <trkpt lat="22.755960" lon="108.417520">
        <ele>60.223944</ele>
        <time>2026-08-14T02:11:53.000Z</time>
      </trkpt>
      <trkpt lat="22.755974" lon="108.417575">
        <ele>60.246384</ele>
        <time>2026-08-14T02:11:54.000Z</time>
      </trkpt>
      <trkpt lat="22.755984" lon="108.417629">
        <ele>60.268047</ele>
        <time>2026-08-14T02:11:55.000Z</time>
      </trkpt>
      <trkpt lat="22.756005" lon="108.417689">
        <ele>60.287308</ele>
        <time>2026-08-14T02:11:56.000Z</time>
      </trkpt>
      <trkpt lat="22.756013" lon="108.417737">
        <ele>60.295599</ele>
        <time>2026-08-14T02:11:57.000Z</time>
      </trkpt>
      <trkpt lat="22.756022" lon="108.417791">
        <ele>60.304927</ele>
        <time>2026-08-14T02:11:58.000Z</time>
      </trkpt>
      <trkpt lat="22.756033" lon="108.417848">
        <ele>60.314825</ele>
        <time>2026-08-14T02:11:59.000Z</time>
      </trkpt>
      <trkpt lat="22.756042" lon="108.417909">
        <ele>60.325326</ele>
        <time>2026-08-14T02:12:00.000Z</time>
      </trkpt>
      <trkpt lat="22.756052" lon="108.417969">
        <ele>60.335690</ele>
        <time>2026-08-14T02:12:01.000Z</time>
      </trkpt>
      <trkpt lat="22.756060" lon="108.418025">
        <ele>60.345323</ele>
        <time>2026-08-14T02:12:02.000Z</time>
      </trkpt>
      <trkpt lat="22.756074" lon="108.418086">
        <ele>60.356008</ele>
        <time>2026-08-14T02:12:03.000Z</time>
      </trkpt>
      <trkpt lat="22.756083" lon="108.418145">
        <ele>60.366173</ele>
        <time>2026-08-14T02:12:04.000Z</time>
      </trkpt>
      <trkpt lat="22.756095" lon="108.418204">
        <ele>60.376443</ele>
        <time>2026-08-14T02:12:05.000Z</time>
      </trkpt>
      <trkpt lat="22.756108" lon="108.418266">
        <ele>60.387250</ele>
        <time>2026-08-14T02:12:06.000Z</time>
      </trkpt>
      <trkpt lat="22.756119" lon="108.418327">
        <ele>60.397816</ele>
        <time>2026-08-14T02:12:07.000Z</time>
      </trkpt>
      <trkpt lat="22.756132" lon="108.418389">
        <ele>60.408623</ele>
        <time>2026-08-14T02:12:08.000Z</time>
      </trkpt>
      <trkpt lat="22.756145" lon="108.418450">
        <ele>60.419265</ele>
        <time>2026-08-14T02:12:09.000Z</time>
      </trkpt>
      <trkpt lat="22.756155" lon="108.418509">
        <ele>60.429462</ele>
        <time>2026-08-14T02:12:10.000Z</time>
      </trkpt>
      <trkpt lat="22.756171" lon="108.418576">
        <ele>60.441227</ele>
        <time>2026-08-14T02:12:11.000Z</time>
      </trkpt>
      <trkpt lat="22.756188" lon="108.418644">
        <ele>60.453203</ele>
        <time>2026-08-14T02:12:12.000Z</time>
      </trkpt>
      <trkpt lat="22.756206" lon="108.418711">
        <ele>60.465065</ele>
        <time>2026-08-14T02:12:13.000Z</time>
      </trkpt>
      <trkpt lat="22.756221" lon="108.418774">
        <ele>60.476125</ele>
        <time>2026-08-14T02:12:14.000Z</time>
      </trkpt>
      <trkpt lat="22.756235" lon="108.418837">
        <ele>60.487140</ele>
        <time>2026-08-14T02:12:15.000Z</time>
      </trkpt>
      <trkpt lat="22.756249" lon="108.418894">
        <ele>60.497167</ele>
        <time>2026-08-14T02:12:16.000Z</time>
      </trkpt>
      <trkpt lat="22.756260" lon="108.418952">
        <ele>60.507232</ele>
        <time>2026-08-14T02:12:17.000Z</time>
      </trkpt>
      <trkpt lat="22.756267" lon="108.419007">
        <ele>60.516669</ele>
        <time>2026-08-14T02:12:18.000Z</time>
      </trkpt>
      <trkpt lat="22.756280" lon="108.419059">
        <ele>60.525827</ele>
        <time>2026-08-14T02:12:19.000Z</time>
      </trkpt>
      <trkpt lat="22.756286" lon="108.419107">
        <ele>60.534061</ele>
        <time>2026-08-14T02:12:20.000Z</time>
      </trkpt>
      <trkpt lat="22.756294" lon="108.419163">
        <ele>60.543693</ele>
        <time>2026-08-14T02:12:21.000Z</time>
      </trkpt>
      <trkpt lat="22.756312" lon="108.419221">
        <ele>60.554096</ele>
        <time>2026-08-14T02:12:22.000Z</time>
      </trkpt>
      <trkpt lat="22.756326" lon="108.419283">
        <ele>60.564946</ele>
        <time>2026-08-14T02:12:23.000Z</time>
      </trkpt>
      <trkpt lat="22.756337" lon="108.419344">
        <ele>60.575511</ele>
        <time>2026-08-14T02:12:24.000Z</time>
      </trkpt>
      <trkpt lat="22.756340" lon="108.419403">
        <ele>60.585555</ele>
        <time>2026-08-14T02:12:25.000Z</time>
      </trkpt>
      <trkpt lat="22.756346" lon="108.419454">
        <ele>60.594294</ele>
        <time>2026-08-14T02:12:26.000Z</time>
      </trkpt>
      <trkpt lat="22.756359" lon="108.419508">
        <ele>60.603781</ele>
        <time>2026-08-14T02:12:27.000Z</time>
      </trkpt>
      <trkpt lat="22.756358" lon="108.419560">
        <ele>60.612622</ele>
        <time>2026-08-14T02:12:28.000Z</time>
      </trkpt>
      <trkpt lat="22.756371" lon="108.419611">
        <ele>60.607729</ele>
        <time>2026-08-14T02:12:29.000Z</time>
      </trkpt>
      <trkpt lat="22.756373" lon="108.419663">
        <ele>60.599789</ele>
        <time>2026-08-14T02:12:30.000Z</time>
      </trkpt>
      <trkpt lat="22.756379" lon="108.419717">
        <ele>60.591491</ele>
        <time>2026-08-14T02:12:31.000Z</time>
      </trkpt>
      <trkpt lat="22.756381" lon="108.419774">
        <ele>60.582789</ele>
        <time>2026-08-14T02:12:32.000Z</time>
      </trkpt>
      <trkpt lat="22.756383" lon="108.419821">
        <ele>60.575611</ele>
        <time>2026-08-14T02:12:33.000Z</time>
      </trkpt>
      <trkpt lat="22.756383" lon="108.419874">
        <ele>60.567525</ele>
        <time>2026-08-14T02:12:34.000Z</time>
      </trkpt>
      <trkpt lat="22.756372" lon="108.419922">
        <ele>60.559979</ele>
        <time>2026-08-14T02:12:35.000Z</time>
      </trkpt>
      <trkpt lat="22.756377" lon="108.419978">
        <ele>60.551396</ele>
        <time>2026-08-14T02:12:36.000Z</time>
      </trkpt>
      <trkpt lat="22.756386" lon="108.420031">
        <ele>60.543174</ele>
        <time>2026-08-14T02:12:37.000Z</time>
      </trkpt>
      <trkpt lat="22.756388" lon="108.420093">
        <ele>60.533709</ele>
        <time>2026-08-14T02:12:38.000Z</time>
      </trkpt>
      <trkpt lat="22.756386" lon="108.420153">
        <ele>60.524549</ele>
        <time>2026-08-14T02:12:39.000Z</time>
      </trkpt>
      <trkpt lat="22.756390" lon="108.420214">
        <ele>60.515220</ele>
        <time>2026-08-14T02:12:40.000Z</time>
      </trkpt>
      <trkpt lat="22.756405" lon="108.420279">
        <ele>60.504997</ele>
        <time>2026-08-14T02:12:41.000Z</time>
      </trkpt>
      <trkpt lat="22.756415" lon="108.420339">
        <ele>60.495695</ele>
        <time>2026-08-14T02:12:42.000Z</time>
      </trkpt>
      <trkpt lat="22.756424" lon="108.420398">
        <ele>60.486572</ele>
        <time>2026-08-14T02:12:43.000Z</time>
      </trkpt>
      <trkpt lat="22.756434" lon="108.420462">
        <ele>60.476669</ele>
        <time>2026-08-14T02:12:44.000Z</time>
      </trkpt>
      <trkpt lat="22.756452" lon="108.420534">
        <ele>60.465288</ele>
        <time>2026-08-14T02:12:45.000Z</time>
      </trkpt>
      <trkpt lat="22.756467" lon="108.420605">
        <ele>60.454175</ele>
        <time>2026-08-14T02:12:46.000Z</time>
      </trkpt>
      <trkpt lat="22.756479" lon="108.420676">
        <ele>60.443163</ele>
        <time>2026-08-14T02:12:47.000Z</time>
      </trkpt>
      <trkpt lat="22.756494" lon="108.420748">
        <ele>60.431901</ele>
        <time>2026-08-14T02:12:48.000Z</time>
      </trkpt>
      <trkpt lat="22.756509" lon="108.420823">
        <ele>60.420193</ele>
        <time>2026-08-14T02:12:49.000Z</time>
      </trkpt>
      <trkpt lat="22.756522" lon="108.420898">
        <ele>60.408551</ele>
        <time>2026-08-14T02:12:50.000Z</time>
      </trkpt>
      <trkpt lat="22.756537" lon="108.420975">
        <ele>60.396544</ele>
        <time>2026-08-14T02:12:51.000Z</time>
      </trkpt>
      <trkpt lat="22.756552" lon="108.421053">
        <ele>60.384388</ele>
        <time>2026-08-14T02:12:52.000Z</time>
      </trkpt>
      <trkpt lat="22.756575" lon="108.421133">
        <ele>60.371604</ele>
        <time>2026-08-14T02:12:53.000Z</time>
      </trkpt>
      <trkpt lat="22.756596" lon="108.421209">
        <ele>60.359500</ele>
        <time>2026-08-14T02:12:54.000Z</time>
      </trkpt>
      <trkpt lat="22.756617" lon="108.421291">
        <ele>60.346516</ele>
        <time>2026-08-14T02:12:55.000Z</time>
      </trkpt>
      <trkpt lat="22.756640" lon="108.421371">
        <ele>60.333732</ele>
        <time>2026-08-14T02:12:56.000Z</time>
      </trkpt>
      <trkpt lat="22.756662" lon="108.421455">
        <ele>60.320410</ele>
        <time>2026-08-14T02:12:57.000Z</time>
      </trkpt>
      <trkpt lat="22.756689" lon="108.421533">
        <ele>60.339925</ele>
        <time>2026-08-14T02:12:58.000Z</time>
      </trkpt>
      <trkpt lat="22.756707" lon="108.421602">
        <ele>60.368028</ele>
        <time>2026-08-14T02:12:59.000Z</time>
      </trkpt>
      <trkpt lat="22.756724" lon="108.421663">
        <ele>60.393003</ele>
        <time>2026-08-14T02:13:00.000Z</time>
      </trkpt>
      <trkpt lat="22.756745" lon="108.421724">
        <ele>60.418522</ele>
        <time>2026-08-14T02:13:01.000Z</time>
      </trkpt>
      <trkpt lat="22.756763" lon="108.421793">
        <ele>60.446625</ele>
        <time>2026-08-14T02:13:02.000Z</time>
      </trkpt>
      <trkpt lat="22.756779" lon="108.421859">
        <ele>60.473371</ele>
        <time>2026-08-14T02:13:03.000Z</time>
      </trkpt>
      <trkpt lat="22.756792" lon="108.421919">
        <ele>60.497526</ele>
        <time>2026-08-14T02:13:04.000Z</time>
      </trkpt>
      <trkpt lat="22.756806" lon="108.421983">
        <ele>60.523305</ele>
        <time>2026-08-14T02:13:05.000Z</time>
      </trkpt>
      <trkpt lat="22.756824" lon="108.422050">
        <ele>60.550655</ele>
        <time>2026-08-14T02:13:06.000Z</time>
      </trkpt>
      <trkpt lat="22.756839" lon="108.422107">
        <ele>60.573886</ele>
        <time>2026-08-14T02:13:07.000Z</time>
      </trkpt>
      <trkpt lat="22.756852" lon="108.422162">
        <ele>60.596138</ele>
        <time>2026-08-14T02:13:08.000Z</time>
      </trkpt>
      <trkpt lat="22.756867" lon="108.422234">
        <ele>60.625068</ele>
        <time>2026-08-14T02:13:09.000Z</time>
      </trkpt>
      <trkpt lat="22.756879" lon="108.422285">
        <ele>60.645696</ele>
        <time>2026-08-14T02:13:10.000Z</time>
      </trkpt>
      <trkpt lat="22.756897" lon="108.422340">
        <ele>60.668568</ele>
        <time>2026-08-14T02:13:11.000Z</time>
      </trkpt>
      <trkpt lat="22.756913" lon="108.422408">
        <ele>60.696073</ele>
        <time>2026-08-14T02:13:12.000Z</time>
      </trkpt>
      <trkpt lat="22.756921" lon="108.422458">
        <ele>60.715961</ele>
        <time>2026-08-14T02:13:13.000Z</time>
      </trkpt>
      <trkpt lat="22.756935" lon="108.422516">
        <ele>60.739458</ele>
        <time>2026-08-14T02:13:14.000Z</time>
      </trkpt>
      <trkpt lat="22.756954" lon="108.422576">
        <ele>60.764321</ele>
        <time>2026-08-14T02:13:15.000Z</time>
      </trkpt>
      <trkpt lat="22.756975" lon="108.422642">
        <ele>60.791684</ele>
        <time>2026-08-14T02:13:16.000Z</time>
      </trkpt>
      <trkpt lat="22.756993" lon="108.422707">
        <ele>60.818283</ele>
        <time>2026-08-14T02:13:17.000Z</time>
      </trkpt>
      <trkpt lat="22.757005" lon="108.422780">
        <ele>60.847343</ele>
        <time>2026-08-14T02:13:18.000Z</time>
      </trkpt>
      <trkpt lat="22.757015" lon="108.422851">
        <ele>60.875492</ele>
        <time>2026-08-14T02:13:19.000Z</time>
      </trkpt>
      <trkpt lat="22.757024" lon="108.422923">
        <ele>60.903968</ele>
        <time>2026-08-14T02:13:20.000Z</time>
      </trkpt>
      <trkpt lat="22.757034" lon="108.422994">
        <ele>60.932117</ele>
        <time>2026-08-14T02:13:21.000Z</time>
      </trkpt>
      <trkpt lat="22.757042" lon="108.423065">
        <ele>60.960150</ele>
        <time>2026-08-14T02:13:22.000Z</time>
      </trkpt>
      <trkpt lat="22.757050" lon="108.423135">
        <ele>60.987794</ele>
        <time>2026-08-14T02:13:23.000Z</time>
      </trkpt>
      <trkpt lat="22.757061" lon="108.423203">
        <ele>61.014851</ele>
        <time>2026-08-14T02:13:24.000Z</time>
      </trkpt>
      <trkpt lat="22.757066" lon="108.423272">
        <ele>61.041977</ele>
        <time>2026-08-14T02:13:25.000Z</time>
      </trkpt>
      <trkpt lat="22.757074" lon="108.423340">
        <ele>61.068843</ele>
        <time>2026-08-14T02:13:26.000Z</time>
      </trkpt>
      <trkpt lat="22.757085" lon="108.423406">
        <ele>61.101878</ele>
        <time>2026-08-14T02:13:27.000Z</time>
      </trkpt>
      <trkpt lat="22.757094" lon="108.423476">
        <ele>61.142957</ele>
        <time>2026-08-14T02:13:28.000Z</time>
      </trkpt>
      <trkpt lat="22.757102" lon="108.423544">
        <ele>61.182799</ele>
        <time>2026-08-14T02:13:29.000Z</time>
      </trkpt>
      <trkpt lat="22.757113" lon="108.423617">
        <ele>61.225790</ele>
        <time>2026-08-14T02:13:30.000Z</time>
      </trkpt>
      <trkpt lat="22.757124" lon="108.423691">
        <ele>61.269355</ele>
        <time>2026-08-14T02:13:31.000Z</time>
      </trkpt>
      <trkpt lat="22.757136" lon="108.423766">
        <ele>61.313597</ele>
        <time>2026-08-14T02:13:32.000Z</time>
      </trkpt>
      <trkpt lat="22.757149" lon="108.423845">
        <ele>61.360238</ele>
        <time>2026-08-14T02:13:33.000Z</time>
      </trkpt>
      <trkpt lat="22.757164" lon="108.423920">
        <ele>61.404842</ele>
        <time>2026-08-14T02:13:34.000Z</time>
      </trkpt>
      <trkpt lat="22.757177" lon="108.423998">
        <ele>61.450911</ele>
        <time>2026-08-14T02:13:35.000Z</time>
      </trkpt>
      <trkpt lat="22.757192" lon="108.424077">
        <ele>61.497790</ele>
        <time>2026-08-14T02:13:36.000Z</time>
      </trkpt>
      <trkpt lat="22.757206" lon="108.424156">
        <ele>61.544545</ele>
        <time>2026-08-14T02:13:37.000Z</time>
      </trkpt>
      <trkpt lat="22.757222" lon="108.424232">
        <ele>61.589854</ele>
        <time>2026-08-14T02:13:38.000Z</time>
      </trkpt>
      <trkpt lat="22.757236" lon="108.424311">
        <ele>61.636609</ele>
        <time>2026-08-14T02:13:39.000Z</time>
      </trkpt>
      <trkpt lat="22.757253" lon="108.424387">
        <ele>61.682062</ele>
        <time>2026-08-14T02:13:40.000Z</time>
      </trkpt>
      <trkpt lat="22.757269" lon="108.424465">
        <ele>61.728505</ele>
        <time>2026-08-14T02:13:41.000Z</time>
      </trkpt>
      <trkpt lat="22.757285" lon="108.424537">
        <ele>61.771550</ele>
        <time>2026-08-14T02:13:42.000Z</time>
      </trkpt>
      <trkpt lat="22.757305" lon="108.424611">
        <ele>61.816368</ele>
        <time>2026-08-14T02:13:43.000Z</time>
      </trkpt>
      <trkpt lat="22.757321" lon="108.424679">
        <ele>61.857157</ele>
        <time>2026-08-14T02:13:44.000Z</time>
      </trkpt>
      <trkpt lat="22.757336" lon="108.424746">
        <ele>61.897229</ele>
        <time>2026-08-14T02:13:45.000Z</time>
      </trkpt>
      <trkpt lat="22.757351" lon="108.424815">
        <ele>61.938432</ele>
        <time>2026-08-14T02:13:46.000Z</time>
      </trkpt>
      <trkpt lat="22.757364" lon="108.424880">
        <ele>61.977089</ele>
        <time>2026-08-14T02:13:47.000Z</time>
      </trkpt>
      <trkpt lat="22.757375" lon="108.424944">
        <ele>62.014927</ele>
        <time>2026-08-14T02:13:48.000Z</time>
      </trkpt>
      <trkpt lat="22.757388" lon="108.425013">
        <ele>62.055858</ele>
        <time>2026-08-14T02:13:49.000Z</time>
      </trkpt>
      <trkpt lat="22.757400" lon="108.425079">
        <ele>62.094957</ele>
        <time>2026-08-14T02:13:50.000Z</time>
      </trkpt>
      <trkpt lat="22.757416" lon="108.425141">
        <ele>62.132376</ele>
        <time>2026-08-14T02:13:51.000Z</time>
      </trkpt>
      <trkpt lat="22.757430" lon="108.425205">
        <ele>62.170606</ele>
        <time>2026-08-14T02:13:52.000Z</time>
      </trkpt>
      <trkpt lat="22.757445" lon="108.425268">
        <ele>62.208423</ele>
        <time>2026-08-14T02:13:53.000Z</time>
      </trkpt>
      <trkpt lat="22.757456" lon="108.425331">
        <ele>62.247713</ele>
        <time>2026-08-14T02:13:54.000Z</time>
      </trkpt>
      <trkpt lat="22.757467" lon="108.425395">
        <ele>62.288029</ele>
        <time>2026-08-14T02:13:55.000Z</time>
      </trkpt>
      <trkpt lat="22.757480" lon="108.425460">
        <ele>62.329217</ele>
        <time>2026-08-14T02:13:56.000Z</time>
      </trkpt>
      <trkpt lat="22.757493" lon="108.425525">
        <ele>62.370406</ele>
        <time>2026-08-14T02:13:57.000Z</time>
      </trkpt>
      <trkpt lat="22.757502" lon="108.425587">
        <ele>62.409273</ele>
        <time>2026-08-14T02:13:58.000Z</time>
      </trkpt>
      <trkpt lat="22.757511" lon="108.425649">
        <ele>62.448141</ele>
        <time>2026-08-14T02:13:59.000Z</time>
      </trkpt>
      <trkpt lat="22.757519" lon="108.425712">
        <ele>62.487523</ele>
        <time>2026-08-14T02:14:00.000Z</time>
      </trkpt>
      <trkpt lat="22.757523" lon="108.425764">
        <ele>62.519837</ele>
        <time>2026-08-14T02:14:01.000Z</time>
      </trkpt>
      <trkpt lat="22.757528" lon="108.425823">
        <ele>62.556528</ele>
        <time>2026-08-14T02:14:02.000Z</time>
      </trkpt>
      <trkpt lat="22.757534" lon="108.425888">
        <ele>62.596982</ele>
        <time>2026-08-14T02:14:03.000Z</time>
      </trkpt>
      <trkpt lat="22.757540" lon="108.425949">
        <ele>62.634972</ele>
        <time>2026-08-14T02:14:04.000Z</time>
      </trkpt>
      <trkpt lat="22.757550" lon="108.426010">
        <ele>62.673340</ele>
        <time>2026-08-14T02:14:05.000Z</time>
      </trkpt>
      <trkpt lat="22.757557" lon="108.426067">
        <ele>62.708950</ele>
        <time>2026-08-14T02:14:06.000Z</time>
      </trkpt>
      <trkpt lat="22.757564" lon="108.426129">
        <ele>62.747632</ele>
        <time>2026-08-14T02:14:07.000Z</time>
      </trkpt>
      <trkpt lat="22.757572" lon="108.426191">
        <ele>62.786401</ele>
        <time>2026-08-14T02:14:08.000Z</time>
      </trkpt>
      <trkpt lat="22.757580" lon="108.426253">
        <ele>62.825170</ele>
        <time>2026-08-14T02:14:09.000Z</time>
      </trkpt>
      <trkpt lat="22.757588" lon="108.426316">
        <ele>62.864552</ele>
        <time>2026-08-14T02:14:10.000Z</time>
      </trkpt>
      <trkpt lat="22.757596" lon="108.426381">
        <ele>62.905161</ele>
        <time>2026-08-14T02:14:11.000Z</time>
      </trkpt>
      <trkpt lat="22.757605" lon="108.426447">
        <ele>62.946478</ele>
        <time>2026-08-14T02:14:12.000Z</time>
      </trkpt>
      <trkpt lat="22.757615" lon="108.426515">
        <ele>62.989120</ele>
        <time>2026-08-14T02:14:13.000Z</time>
      </trkpt>
      <trkpt lat="22.757625" lon="108.426579">
        <ele>63.029319</ele>
        <time>2026-08-14T02:14:14.000Z</time>
      </trkpt>
      <trkpt lat="22.757643" lon="108.426640">
        <ele>63.068981</ele>
        <time>2026-08-14T02:14:15.000Z</time>
      </trkpt>
      <trkpt lat="22.757658" lon="108.426704">
        <ele>63.109875</ele>
        <time>2026-08-14T02:14:16.000Z</time>
      </trkpt>
      <trkpt lat="22.757674" lon="108.426763">
        <ele>63.147959</ele>
        <time>2026-08-14T02:14:17.000Z</time>
      </trkpt>
      <trkpt lat="22.757685" lon="108.426827">
        <ele>63.188275</ele>
        <time>2026-08-14T02:14:18.000Z</time>
      </trkpt>
      <trkpt lat="22.757691" lon="108.426889">
        <ele>63.226880</ele>
        <time>2026-08-14T02:14:19.000Z</time>
      </trkpt>
      <trkpt lat="22.757692" lon="108.426954">
        <ele>63.267139</ele>
        <time>2026-08-14T02:14:20.000Z</time>
      </trkpt>
      <trkpt lat="22.757699" lon="108.427012">
        <ele>63.303363</ele>
        <time>2026-08-14T02:14:21.000Z</time>
      </trkpt>
      <trkpt lat="22.757715" lon="108.427074">
        <ele>63.343233</ele>
        <time>2026-08-14T02:14:22.000Z</time>
      </trkpt>
      <trkpt lat="22.757723" lon="108.427131">
        <ele>63.378938</ele>
        <time>2026-08-14T02:14:23.000Z</time>
      </trkpt>
      <trkpt lat="22.757733" lon="108.427186">
        <ele>63.413653</ele>
        <time>2026-08-14T02:14:24.000Z</time>
      </trkpt>
      <trkpt lat="22.757736" lon="108.427238">
        <ele>63.443515</ele>
        <time>2026-08-14T02:14:25.000Z</time>
      </trkpt>
      <trkpt lat="22.757746" lon="108.427300">
        <ele>63.478463</ele>
        <time>2026-08-14T02:14:26.000Z</time>
      </trkpt>
      <trkpt lat="22.757749" lon="108.427358">
        <ele>63.510718</ele>
        <time>2026-08-14T02:14:27.000Z</time>
      </trkpt>
      <trkpt lat="22.757753" lon="108.427414">
        <ele>63.541905</ele>
        <time>2026-08-14T02:14:28.000Z</time>
      </trkpt>
      <trkpt lat="22.757759" lon="108.427475">
        <ele>63.575967</ele>
        <time>2026-08-14T02:14:29.000Z</time>
      </trkpt>
      <trkpt lat="22.757761" lon="108.427533">
        <ele>63.608194</ele>
        <time>2026-08-14T02:14:30.000Z</time>
      </trkpt>
      <trkpt lat="22.757767" lon="108.427589">
        <ele>63.639496</ele>
        <time>2026-08-14T02:14:31.000Z</time>
      </trkpt>
      <trkpt lat="22.757778" lon="108.427649">
        <ele>63.673463</ele>
        <time>2026-08-14T02:14:32.000Z</time>
      </trkpt>
      <trkpt lat="22.757782" lon="108.427706">
        <ele>63.705204</ele>
        <time>2026-08-14T02:14:33.000Z</time>
      </trkpt>
      <trkpt lat="22.757788" lon="108.427757">
        <ele>63.733751</ele>
        <time>2026-08-14T02:14:34.000Z</time>
      </trkpt>
      <trkpt lat="22.757799" lon="108.427816">
        <ele>63.767173</ele>
        <time>2026-08-14T02:14:35.000Z</time>
      </trkpt>
      <trkpt lat="22.757816" lon="108.427872">
        <ele>63.799908</ele>
        <time>2026-08-14T02:14:36.000Z</time>
      </trkpt>
      <trkpt lat="22.757834" lon="108.427932">
        <ele>63.834941</ele>
        <time>2026-08-14T02:14:37.000Z</time>
      </trkpt>
      <trkpt lat="22.757849" lon="108.427984">
        <ele>63.865194</ele>
        <time>2026-08-14T02:14:38.000Z</time>
      </trkpt>
      <trkpt lat="22.757863" lon="108.428043">
        <ele>63.899020</ele>
        <time>2026-08-14T02:14:39.000Z</time>
      </trkpt>
      <trkpt lat="22.757883" lon="108.428087">
        <ele>63.926258</ele>
        <time>2026-08-14T02:14:40.000Z</time>
      </trkpt>
      <trkpt lat="22.757899" lon="108.428146">
        <ele>63.960404</ele>
        <time>2026-08-14T02:14:41.000Z</time>
      </trkpt>
      <trkpt lat="22.757908" lon="108.428198">
        <ele>63.989781</ele>
        <time>2026-08-14T02:14:42.000Z</time>
      </trkpt>
      <trkpt lat="22.757921" lon="108.428252">
        <ele>64.020769</ele>
        <time>2026-08-14T02:14:43.000Z</time>
      </trkpt>
      <trkpt lat="22.757930" lon="108.428307">
        <ele>64.051785</ele>
        <time>2026-08-14T02:14:44.000Z</time>
      </trkpt>
      <trkpt lat="22.757937" lon="108.428350">
        <ele>64.076030</ele>
        <time>2026-08-14T02:14:45.000Z</time>
      </trkpt>
      <trkpt lat="22.757941" lon="108.428397">
        <ele>64.102237</ele>
        <time>2026-08-14T02:14:46.000Z</time>
      </trkpt>
      <trkpt lat="22.757942" lon="108.428460">
        <ele>64.137222</ele>
        <time>2026-08-14T02:14:47.000Z</time>
      </trkpt>
      <trkpt lat="22.757951" lon="108.428525">
        <ele>64.173718</ele>
        <time>2026-08-14T02:14:48.000Z</time>
      </trkpt>
      <trkpt lat="22.757959" lon="108.428586">
        <ele>64.207929</ele>
        <time>2026-08-14T02:14:49.000Z</time>
      </trkpt>
      <trkpt lat="22.757975" lon="108.428648">
        <ele>64.243676</ele>
        <time>2026-08-14T02:14:50.000Z</time>
      </trkpt>
      <trkpt lat="22.757991" lon="108.428706">
        <ele>64.277291</ele>
        <time>2026-08-14T02:14:51.000Z</time>
      </trkpt>
      <trkpt lat="22.758004" lon="108.428764">
        <ele>64.310432</ele>
        <time>2026-08-14T02:14:52.000Z</time>
      </trkpt>
      <trkpt lat="22.758014" lon="108.428826">
        <ele>64.345380</ele>
        <time>2026-08-14T02:14:53.000Z</time>
      </trkpt>
      <trkpt lat="22.758022" lon="108.428875">
        <ele>64.373010</ele>
        <time>2026-08-14T02:14:54.000Z</time>
      </trkpt>
      <trkpt lat="22.758042" lon="108.428934">
        <ele>64.407913</ele>
        <time>2026-08-14T02:14:55.000Z</time>
      </trkpt>
      <trkpt lat="22.758063" lon="108.428997">
        <ele>64.445108</ele>
        <time>2026-08-14T02:14:56.000Z</time>
      </trkpt>
      <trkpt lat="22.758082" lon="108.429055">
        <ele>64.479284</ele>
        <time>2026-08-14T02:14:57.000Z</time>
      </trkpt>
      <trkpt lat="22.758092" lon="108.429121">
        <ele>64.507874</ele>
        <time>2026-08-14T02:14:58.000Z</time>
      </trkpt>
      <trkpt lat="22.758098" lon="108.429187">
        <ele>64.515404</ele>
        <time>2026-08-14T02:14:59.000Z</time>
      </trkpt>
      <trkpt lat="22.758108" lon="108.429250">
        <ele>64.522663</ele>
        <time>2026-08-14T02:15:00.000Z</time>
      </trkpt>
      <trkpt lat="22.758117" lon="108.429312">
        <ele>64.529789</ele>
        <time>2026-08-14T02:15:01.000Z</time>
      </trkpt>
      <trkpt lat="22.758130" lon="108.429378">
        <ele>64.537452</ele>
        <time>2026-08-14T02:15:02.000Z</time>
      </trkpt>
      <trkpt lat="22.758146" lon="108.429436">
        <ele>64.544326</ele>
        <time>2026-08-14T02:15:03.000Z</time>
      </trkpt>
      <trkpt lat="22.758161" lon="108.429501">
        <ele>64.551934</ele>
        <time>2026-08-14T02:15:04.000Z</time>
      </trkpt>
      <trkpt lat="22.758169" lon="108.429561">
        <ele>64.558817</ele>
        <time>2026-08-14T02:15:05.000Z</time>
      </trkpt>
      <trkpt lat="22.758180" lon="108.429627">
        <ele>64.566433</ele>
        <time>2026-08-14T02:15:06.000Z</time>
      </trkpt>
      <trkpt lat="22.758190" lon="108.429692">
        <ele>64.573915</ele>
        <time>2026-08-14T02:15:07.000Z</time>
      </trkpt>
      <trkpt lat="22.758204" lon="108.429757">
        <ele>64.581494</ele>
        <time>2026-08-14T02:15:08.000Z</time>
      </trkpt>
      <trkpt lat="22.758218" lon="108.429820">
        <ele>64.588852</ele>
        <time>2026-08-14T02:15:09.000Z</time>
      </trkpt>
      <trkpt lat="22.758232" lon="108.429884">
        <ele>64.596320</ele>
        <time>2026-08-14T02:15:10.000Z</time>
      </trkpt>
      <trkpt lat="22.758246" lon="108.429952">
        <ele>64.604231</ele>
        <time>2026-08-14T02:15:11.000Z</time>
      </trkpt>
      <trkpt lat="22.758259" lon="108.430017">
        <ele>64.611783</ele>
        <time>2026-08-14T02:15:12.000Z</time>
      </trkpt>
      <trkpt lat="22.758271" lon="108.430080">
        <ele>64.619087</ele>
        <time>2026-08-14T02:15:13.000Z</time>
      </trkpt>
      <trkpt lat="22.758285" lon="108.430148">
        <ele>64.626998</ele>
        <time>2026-08-14T02:15:14.000Z</time>
      </trkpt>
      <trkpt lat="22.758300" lon="108.430211">
        <ele>64.634386</ele>
        <time>2026-08-14T02:15:15.000Z</time>
      </trkpt>
      <trkpt lat="22.758315" lon="108.430278">
        <ele>64.642215</ele>
        <time>2026-08-14T02:15:16.000Z</time>
      </trkpt>
      <trkpt lat="22.758329" lon="108.430343">
        <ele>64.649794</ele>
        <time>2026-08-14T02:15:17.000Z</time>
      </trkpt>
      <trkpt lat="22.758347" lon="108.430414">
        <ele>64.658154</ele>
        <time>2026-08-14T02:15:18.000Z</time>
      </trkpt>
      <trkpt lat="22.758362" lon="108.430483">
        <ele>64.666203</ele>
        <time>2026-08-14T02:15:19.000Z</time>
      </trkpt>
      <trkpt lat="22.758370" lon="108.430544">
        <ele>64.673199</ele>
        <time>2026-08-14T02:15:20.000Z</time>
      </trkpt>
      <trkpt lat="22.758378" lon="108.430609">
        <ele>64.680645</ele>
        <time>2026-08-14T02:15:21.000Z</time>
      </trkpt>
      <trkpt lat="22.758389" lon="108.430678">
        <ele>64.688596</ele>
        <time>2026-08-14T02:15:22.000Z</time>
      </trkpt>
      <trkpt lat="22.758400" lon="108.430747">
        <ele>64.696546</ele>
        <time>2026-08-14T02:15:23.000Z</time>
      </trkpt>
      <trkpt lat="22.758412" lon="108.430813">
        <ele>64.704184</ele>
        <time>2026-08-14T02:15:24.000Z</time>
      </trkpt>
      <trkpt lat="22.758423" lon="108.430880">
        <ele>64.711911</ele>
        <time>2026-08-14T02:15:25.000Z</time>
      </trkpt>
      <trkpt lat="22.758438" lon="108.430947">
        <ele>64.719740</ele>
        <time>2026-08-14T02:15:26.000Z</time>
      </trkpt>
      <trkpt lat="22.758455" lon="108.431013">
        <ele>64.725297</ele>
        <time>2026-08-14T02:15:27.000Z</time>
      </trkpt>
      <trkpt lat="22.758470" lon="108.431082">
        <ele>64.685976</ele>
        <time>2026-08-14T02:15:28.000Z</time>
      </trkpt>
      <trkpt lat="22.758489" lon="108.431154">
        <ele>64.644438</ele>
        <time>2026-08-14T02:15:29.000Z</time>
      </trkpt>
      <trkpt lat="22.758499" lon="108.431218">
        <ele>64.608433</ele>
        <time>2026-08-14T02:15:30.000Z</time>
      </trkpt>
      <trkpt lat="22.758505" lon="108.431270">
        <ele>64.579366</ele>
        <time>2026-08-14T02:15:31.000Z</time>
      </trkpt>
      <trkpt lat="22.758516" lon="108.431304">
        <ele>64.559380</ele>
        <time>2026-08-14T02:15:32.000Z</time>
      </trkpt>
      <trkpt lat="22.758524" lon="108.431327">
        <ele>64.545745</ele>
        <time>2026-08-14T02:15:33.000Z</time>
      </trkpt>
      <trkpt lat="22.758530" lon="108.431364">
        <ele>64.524908</ele>
        <time>2026-08-14T02:15:34.000Z</time>
      </trkpt>
      <trkpt lat="22.758544" lon="108.431451">
        <ele>64.475923</ele>
        <time>2026-08-14T02:15:35.000Z</time>
      </trkpt>
      <trkpt lat="22.758558" lon="108.431520">
        <ele>64.436736</ele>
        <time>2026-08-14T02:15:36.000Z</time>
      </trkpt>
      <trkpt lat="22.758579" lon="108.431591">
        <ele>64.395378</ele>
        <time>2026-08-14T02:15:37.000Z</time>
      </trkpt>
      <trkpt lat="22.758605" lon="108.431658">
        <ele>64.355059</ele>
        <time>2026-08-14T02:15:38.000Z</time>
      </trkpt>
      <trkpt lat="22.758606" lon="108.431729">
        <ele>64.315674</ele>
        <time>2026-08-14T02:15:39.000Z</time>
      </trkpt>
      <trkpt lat="22.758614" lon="108.431802">
        <ele>64.274898</ele>
        <time>2026-08-14T02:15:40.000Z</time>
      </trkpt>
      <trkpt lat="22.758626" lon="108.431877">
        <ele>64.232677</ele>
        <time>2026-08-14T02:15:41.000Z</time>
      </trkpt>
      <trkpt lat="22.758638" lon="108.431945">
        <ele>64.194275</ele>
        <time>2026-08-14T02:15:42.000Z</time>
      </trkpt>
      <trkpt lat="22.758649" lon="108.432017">
        <ele>64.153795</ele>
        <time>2026-08-14T02:15:43.000Z</time>
      </trkpt>
      <trkpt lat="22.758651" lon="108.432091">
        <ele>64.112733</ele>
        <time>2026-08-14T02:15:44.000Z</time>
      </trkpt>
      <trkpt lat="22.758664" lon="108.432161">
        <ele>64.073127</ele>
        <time>2026-08-14T02:15:45.000Z</time>
      </trkpt>
      <trkpt lat="22.758678" lon="108.432236">
        <ele>64.030683</ele>
        <time>2026-08-14T02:15:46.000Z</time>
      </trkpt>
      <trkpt lat="22.758688" lon="108.432310">
        <ele>63.989200</ele>
        <time>2026-08-14T02:15:47.000Z</time>
      </trkpt>
      <trkpt lat="22.758692" lon="108.432388">
        <ele>63.945869</ele>
        <time>2026-08-14T02:15:48.000Z</time>
      </trkpt>
      <trkpt lat="22.758701" lon="108.432463">
        <ele>63.903918</ele>
        <time>2026-08-14T02:15:49.000Z</time>
      </trkpt>
      <trkpt lat="22.758714" lon="108.432536">
        <ele>63.862680</ele>
        <time>2026-08-14T02:15:50.000Z</time>
      </trkpt>
      <trkpt lat="22.758729" lon="108.432606">
        <ele>63.822819</ele>
        <time>2026-08-14T02:15:51.000Z</time>
      </trkpt>
      <trkpt lat="22.758741" lon="108.432678">
        <ele>63.782236</ele>
        <time>2026-08-14T02:15:52.000Z</time>
      </trkpt>
      <trkpt lat="22.758751" lon="108.432754">
        <ele>63.739655</ele>
        <time>2026-08-14T02:15:53.000Z</time>
      </trkpt>
      <trkpt lat="22.758767" lon="108.432828">
        <ele>63.697497</ele>
        <time>2026-08-14T02:15:54.000Z</time>
      </trkpt>
      <trkpt lat="22.758787" lon="108.432902">
        <ele>63.654725</ele>
        <time>2026-08-14T02:15:55.000Z</time>
      </trkpt>
      <trkpt lat="22.758797" lon="108.432971">
        <ele>63.620494</ele>
        <time>2026-08-14T02:15:56.000Z</time>
      </trkpt>
      <trkpt lat="22.758804" lon="108.433043">
        <ele>63.586522</ele>
        <time>2026-08-14T02:15:57.000Z</time>
      </trkpt>
      <trkpt lat="22.758812" lon="108.433109">
        <ele>63.555287</ele>
        <time>2026-08-14T02:15:58.000Z</time>
      </trkpt>
      <trkpt lat="22.758825" lon="108.433183">
        <ele>63.519939</ele>
        <time>2026-08-14T02:15:59.000Z</time>
      </trkpt>
      <trkpt lat="22.758841" lon="108.433253">
        <ele>63.486099</ele>
        <time>2026-08-14T02:16:00.000Z</time>
      </trkpt>
      <trkpt lat="22.758856" lon="108.433323">
        <ele>63.452377</ele>
        <time>2026-08-14T02:16:01.000Z</time>
      </trkpt>
      <trkpt lat="22.758870" lon="108.433396">
        <ele>63.417391</ele>
        <time>2026-08-14T02:16:02.000Z</time>
      </trkpt>
      <trkpt lat="22.758880" lon="108.433468">
        <ele>63.383225</ele>
        <time>2026-08-14T02:16:03.000Z</time>
      </trkpt>
      <trkpt lat="22.758892" lon="108.433540">
        <ele>63.348893</ele>
        <time>2026-08-14T02:16:04.000Z</time>
      </trkpt>
      <trkpt lat="22.758902" lon="108.433613">
        <ele>63.314263</ele>
        <time>2026-08-14T02:16:05.000Z</time>
      </trkpt>
      <trkpt lat="22.758913" lon="108.433685">
        <ele>63.280018</ele>
        <time>2026-08-14T02:16:06.000Z</time>
      </trkpt>
      <trkpt lat="22.758928" lon="108.433760">
        <ele>63.244008</ele>
        <time>2026-08-14T02:16:07.000Z</time>
      </trkpt>
      <trkpt lat="22.758943" lon="108.433834">
        <ele>63.208456</ele>
        <time>2026-08-14T02:16:08.000Z</time>
      </trkpt>
      <trkpt lat="22.758957" lon="108.433911">
        <ele>63.171629</ele>
        <time>2026-08-14T02:16:09.000Z</time>
      </trkpt>
      <trkpt lat="22.758971" lon="108.433984">
        <ele>63.136642</ele>
        <time>2026-08-14T02:16:10.000Z</time>
      </trkpt>
      <trkpt lat="22.758983" lon="108.434055">
        <ele>63.102772</ele>
        <time>2026-08-14T02:16:11.000Z</time>
      </trkpt>
      <trkpt lat="22.758995" lon="108.434126">
        <ele>63.068902</ele>
        <time>2026-08-14T02:16:12.000Z</time>
      </trkpt>
      <trkpt lat="22.759006" lon="108.434197">
        <ele>63.035119</ele>
        <time>2026-08-14T02:16:13.000Z</time>
      </trkpt>
      <trkpt lat="22.759027" lon="108.434267">
        <ele>63.000579</ele>
        <time>2026-08-14T02:16:14.000Z</time>
      </trkpt>
      <trkpt lat="22.759038" lon="108.434333">
        <ele>62.969108</ele>
        <time>2026-08-14T02:16:15.000Z</time>
      </trkpt>
      <trkpt lat="22.759050" lon="108.434396">
        <ele>62.938922</ele>
        <time>2026-08-14T02:16:16.000Z</time>
      </trkpt>
      <trkpt lat="22.759060" lon="108.434460">
        <ele>62.908464</ele>
        <time>2026-08-14T02:16:17.000Z</time>
      </trkpt>
      <trkpt lat="22.759081" lon="108.434520">
        <ele>62.878350</ele>
        <time>2026-08-14T02:16:18.000Z</time>
      </trkpt>
      <trkpt lat="22.759094" lon="108.434585">
        <ele>62.847141</ele>
        <time>2026-08-14T02:16:19.000Z</time>
      </trkpt>
      <trkpt lat="22.759102" lon="108.434652">
        <ele>62.815440</ele>
        <time>2026-08-14T02:16:20.000Z</time>
      </trkpt>
      <trkpt lat="22.759105" lon="108.434715">
        <ele>62.785839</ele>
        <time>2026-08-14T02:16:21.000Z</time>
      </trkpt>
      <trkpt lat="22.759117" lon="108.434781">
        <ele>62.754274</ele>
        <time>2026-08-14T02:16:22.000Z</time>
      </trkpt>
      <trkpt lat="22.759142" lon="108.434845">
        <ele>62.722380</ele>
        <time>2026-08-14T02:16:23.000Z</time>
      </trkpt>
      <trkpt lat="22.759150" lon="108.434907">
        <ele>62.695534</ele>
        <time>2026-08-14T02:16:24.000Z</time>
      </trkpt>
      <trkpt lat="22.759161" lon="108.434975">
        <ele>62.665928</ele>
        <time>2026-08-14T02:16:25.000Z</time>
      </trkpt>
      <trkpt lat="22.759173" lon="108.435043">
        <ele>62.636238</ele>
        <time>2026-08-14T02:16:26.000Z</time>
      </trkpt>
      <trkpt lat="22.759182" lon="108.435110">
        <ele>62.607203</ele>
        <time>2026-08-14T02:16:27.000Z</time>
      </trkpt>
      <trkpt lat="22.759191" lon="108.435177">
        <ele>62.578168</ele>
        <time>2026-08-14T02:16:28.000Z</time>
      </trkpt>
      <trkpt lat="22.759205" lon="108.435242">
        <ele>62.549543</ele>
        <time>2026-08-14T02:16:29.000Z</time>
      </trkpt>
      <trkpt lat="22.759215" lon="108.435309">
        <ele>62.520438</ele>
        <time>2026-08-14T02:16:30.000Z</time>
      </trkpt>
      <trkpt lat="22.759230" lon="108.435378">
        <ele>62.490037</ele>
        <time>2026-08-14T02:16:31.000Z</time>
      </trkpt>
      <trkpt lat="22.759245" lon="108.435444">
        <ele>62.460887</ele>
        <time>2026-08-14T02:16:32.000Z</time>
      </trkpt>
      <trkpt lat="22.759259" lon="108.435512">
        <ele>62.431009</ele>
        <time>2026-08-14T02:16:33.000Z</time>
      </trkpt>
      <trkpt lat="22.759273" lon="108.435581">
        <ele>62.400711</ele>
        <time>2026-08-14T02:16:34.000Z</time>
      </trkpt>
      <trkpt lat="22.759285" lon="108.435648">
        <ele>62.371443</ele>
        <time>2026-08-14T02:16:35.000Z</time>
      </trkpt>
      <trkpt lat="22.759294" lon="108.435716">
        <ele>62.341983</ele>
        <time>2026-08-14T02:16:36.000Z</time>
      </trkpt>
      <trkpt lat="22.759305" lon="108.435784">
        <ele>62.312377</ele>
        <time>2026-08-14T02:16:37.000Z</time>
      </trkpt>
      <trkpt lat="22.759318" lon="108.435852">
        <ele>62.282596</ele>
        <time>2026-08-14T02:16:38.000Z</time>
      </trkpt>
      <trkpt lat="22.759332" lon="108.435923">
        <ele>62.251461</ele>
        <time>2026-08-14T02:16:39.000Z</time>
      </trkpt>
      <trkpt lat="22.759345" lon="108.435997">
        <ele>62.219157</ele>
        <time>2026-08-14T02:16:40.000Z</time>
      </trkpt>
      <trkpt lat="22.759361" lon="108.436068">
        <ele>62.187814</ele>
        <time>2026-08-14T02:16:41.000Z</time>
      </trkpt>
      <trkpt lat="22.759368" lon="108.436142">
        <ele>62.155913</ele>
        <time>2026-08-14T02:16:42.000Z</time>
      </trkpt>
      <trkpt lat="22.759379" lon="108.436216">
        <ele>62.123770</ele>
        <time>2026-08-14T02:16:43.000Z</time>
      </trkpt>
      <trkpt lat="22.759390" lon="108.436294">
        <ele>62.089932</ele>
        <time>2026-08-14T02:16:44.000Z</time>
      </trkpt>
      <trkpt lat="22.759404" lon="108.436372">
        <ele>62.055856</ele>
        <time>2026-08-14T02:16:45.000Z</time>
      </trkpt>
      <trkpt lat="22.759420" lon="108.436449">
        <ele>62.022008</ele>
        <time>2026-08-14T02:16:46.000Z</time>
      </trkpt>
      <trkpt lat="22.759433" lon="108.436525">
        <ele>61.988860</ele>
        <time>2026-08-14T02:16:47.000Z</time>
      </trkpt>
      <trkpt lat="22.759443" lon="108.436600">
        <ele>61.956363</ele>
        <time>2026-08-14T02:16:48.000Z</time>
      </trkpt>
      <trkpt lat="22.759457" lon="108.436675">
        <ele>61.923549</ele>
        <time>2026-08-14T02:16:49.000Z</time>
      </trkpt>
      <trkpt lat="22.759468" lon="108.436745">
        <ele>61.893099</ele>
        <time>2026-08-14T02:16:50.000Z</time>
      </trkpt>
      <trkpt lat="22.759482" lon="108.436819">
        <ele>61.860799</ele>
        <time>2026-08-14T02:16:51.000Z</time>
      </trkpt>
      <trkpt lat="22.759498" lon="108.436891">
        <ele>61.829132</ele>
        <time>2026-08-14T02:16:52.000Z</time>
      </trkpt>
      <trkpt lat="22.759511" lon="108.436961">
        <ele>61.798600</ele>
        <time>2026-08-14T02:16:53.000Z</time>
      </trkpt>
      <trkpt lat="22.759519" lon="108.437032">
        <ele>61.768016</ele>
        <time>2026-08-14T02:16:54.000Z</time>
      </trkpt>
      <trkpt lat="22.759538" lon="108.437103">
        <ele>61.736405</ele>
        <time>2026-08-14T02:16:55.000Z</time>
      </trkpt>
      <trkpt lat="22.759555" lon="108.437178">
        <ele>61.703382</ele>
        <time>2026-08-14T02:16:56.000Z</time>
      </trkpt>
      <trkpt lat="22.759570" lon="108.437252">
        <ele>61.670985</ele>
        <time>2026-08-14T02:16:57.000Z</time>
      </trkpt>
      <trkpt lat="22.759582" lon="108.437327">
        <ele>61.638437</ele>
        <time>2026-08-14T02:16:58.000Z</time>
      </trkpt>
      <trkpt lat="22.759594" lon="108.437400">
        <ele>61.606732</ele>
        <time>2026-08-14T02:16:59.000Z</time>
      </trkpt>
      <trkpt lat="22.759606" lon="108.437471">
        <ele>61.575868</ele>
        <time>2026-08-14T02:17:00.000Z</time>
      </trkpt>
      <trkpt lat="22.759618" lon="108.437544">
        <ele>61.544162</ele>
        <time>2026-08-14T02:17:01.000Z</time>
      </trkpt>
      <trkpt lat="22.759630" lon="108.437616">
        <ele>61.512877</ele>
        <time>2026-08-14T02:17:02.000Z</time>
      </trkpt>
      <trkpt lat="22.759646" lon="108.437689">
        <ele>61.480794</ele>
        <time>2026-08-14T02:17:03.000Z</time>
      </trkpt>
      <trkpt lat="22.759661" lon="108.437760">
        <ele>61.449649</ele>
        <time>2026-08-14T02:17:04.000Z</time>
      </trkpt>
      <trkpt lat="22.759672" lon="108.437833">
        <ele>61.418022</ele>
        <time>2026-08-14T02:17:05.000Z</time>
      </trkpt>
      <trkpt lat="22.759683" lon="108.437905">
        <ele>61.386816</ele>
        <time>2026-08-14T02:17:06.000Z</time>
      </trkpt>
      <trkpt lat="22.759696" lon="108.437979">
        <ele>61.354606</ele>
        <time>2026-08-14T02:17:07.000Z</time>
      </trkpt>
      <trkpt lat="22.759708" lon="108.438052">
        <ele>61.322901</ele>
        <time>2026-08-14T02:17:08.000Z</time>
      </trkpt>
      <trkpt lat="22.759721" lon="108.438122">
        <ele>61.292369</ele>
        <time>2026-08-14T02:17:09.000Z</time>
      </trkpt>
      <trkpt lat="22.759737" lon="108.438194">
        <ele>61.260702</ele>
        <time>2026-08-14T02:17:10.000Z</time>
      </trkpt>
      <trkpt lat="22.759752" lon="108.438266">
        <ele>61.229140</ele>
        <time>2026-08-14T02:17:11.000Z</time>
      </trkpt>
      <trkpt lat="22.759767" lon="108.438337">
        <ele>61.197995</ele>
        <time>2026-08-14T02:17:12.000Z</time>
      </trkpt>
      <trkpt lat="22.759780" lon="108.438407">
        <ele>61.167463</ele>
        <time>2026-08-14T02:17:13.000Z</time>
      </trkpt>
      <trkpt lat="22.759793" lon="108.438480">
        <ele>61.135673</ele>
        <time>2026-08-14T02:17:14.000Z</time>
      </trkpt>
      <trkpt lat="22.759803" lon="108.438550">
        <ele>61.105385</ele>
        <time>2026-08-14T02:17:15.000Z</time>
      </trkpt>
      <trkpt lat="22.759819" lon="108.438619">
        <ele>61.074964</ele>
        <time>2026-08-14T02:17:16.000Z</time>
      </trkpt>
      <trkpt lat="22.759832" lon="108.438690">
        <ele>61.043689</ele>
        <time>2026-08-14T02:17:17.000Z</time>
      </trkpt>
      <trkpt lat="22.759844" lon="108.438763">
        <ele>61.011322</ele>
        <time>2026-08-14T02:17:18.000Z</time>
      </trkpt>
      <trkpt lat="22.759856" lon="108.438835">
        <ele>60.979386</ele>
        <time>2026-08-14T02:17:19.000Z</time>
      </trkpt>
      <trkpt lat="22.759869" lon="108.438906">
        <ele>60.947790</ele>
        <time>2026-08-14T02:17:20.000Z</time>
      </trkpt>
      <trkpt lat="22.759885" lon="108.438976">
        <ele>60.916311</ele>
        <time>2026-08-14T02:17:21.000Z</time>
      </trkpt>
      <trkpt lat="22.759900" lon="108.439045">
        <ele>60.885368</ele>
        <time>2026-08-14T02:17:22.000Z</time>
      </trkpt>
      <trkpt lat="22.759913" lon="108.439114">
        <ele>60.854627</ele>
        <time>2026-08-14T02:17:23.000Z</time>
      </trkpt>
      <trkpt lat="22.759928" lon="108.439182">
        <ele>60.824109</ele>
        <time>2026-08-14T02:17:24.000Z</time>
      </trkpt>
      <trkpt lat="22.759943" lon="108.439251">
        <ele>60.793165</ele>
        <time>2026-08-14T02:17:25.000Z</time>
      </trkpt>
      <trkpt lat="22.759957" lon="108.439319">
        <ele>60.762753</ele>
        <time>2026-08-14T02:17:26.000Z</time>
      </trkpt>
      <trkpt lat="22.759974" lon="108.439387">
        <ele>60.732000</ele>
        <time>2026-08-14T02:17:27.000Z</time>
      </trkpt>
      <trkpt lat="22.759990" lon="108.439456">
        <ele>60.700945</ele>
        <time>2026-08-14T02:17:28.000Z</time>
      </trkpt>
      <trkpt lat="22.760006" lon="108.439527">
        <ele>60.669042</ele>
        <time>2026-08-14T02:17:29.000Z</time>
      </trkpt>
      <trkpt lat="22.760021" lon="108.439599">
        <ele>60.636823</ele>
        <time>2026-08-14T02:17:30.000Z</time>
      </trkpt>
      <trkpt lat="22.760038" lon="108.439669">
        <ele>60.605226</ele>
        <time>2026-08-14T02:17:31.000Z</time>
      </trkpt>
      <trkpt lat="22.760049" lon="108.439741">
        <ele>60.573371</ele>
        <time>2026-08-14T02:17:32.000Z</time>
      </trkpt>
      <trkpt lat="22.760058" lon="108.439814">
        <ele>60.541223</ele>
        <time>2026-08-14T02:17:33.000Z</time>
      </trkpt>
      <trkpt lat="22.760067" lon="108.439885">
        <ele>60.509941</ele>
        <time>2026-08-14T02:17:34.000Z</time>
      </trkpt>
      <trkpt lat="22.760080" lon="108.439956">
        <ele>60.478345</ele>
        <time>2026-08-14T02:17:35.000Z</time>
      </trkpt>
      <trkpt lat="22.760091" lon="108.440027">
        <ele>60.446920</ele>
        <time>2026-08-14T02:17:36.000Z</time>
      </trkpt>
      <trkpt lat="22.760102" lon="108.440100">
        <ele>60.414634</ele>
        <time>2026-08-14T02:17:37.000Z</time>
      </trkpt>
      <trkpt lat="22.760106" lon="108.440177">
        <ele>60.380971</ele>
        <time>2026-08-14T02:17:38.000Z</time>
      </trkpt>
      <trkpt lat="22.760111" lon="108.440245">
        <ele>60.351195</ele>
        <time>2026-08-14T02:17:39.000Z</time>
      </trkpt>
      <trkpt lat="22.760117" lon="108.440313">
        <ele>60.321378</ele>
        <time>2026-08-14T02:17:40.000Z</time>
      </trkpt>
      <trkpt lat="22.760137" lon="108.440374">
        <ele>60.293120</ele>
        <time>2026-08-14T02:17:41.000Z</time>
      </trkpt>
      <trkpt lat="22.760155" lon="108.440442">
        <ele>60.262240</ele>
        <time>2026-08-14T02:17:42.000Z</time>
      </trkpt>
      <trkpt lat="22.760163" lon="108.440510">
        <ele>60.232318</ele>
        <time>2026-08-14T02:17:43.000Z</time>
      </trkpt>
      <trkpt lat="22.760171" lon="108.440582">
        <ele>60.201458</ele>
        <time>2026-08-14T02:17:44.000Z</time>
      </trkpt>
      <trkpt lat="22.760178" lon="108.440653">
        <ele>60.173579</ele>
        <time>2026-08-14T02:17:45.000Z</time>
      </trkpt>
      <trkpt lat="22.760189" lon="108.440720">
        <ele>60.147009</ele>
        <time>2026-08-14T02:17:46.000Z</time>
      </trkpt>
      <trkpt lat="22.760197" lon="108.440783">
        <ele>60.122180</ele>
        <time>2026-08-14T02:17:47.000Z</time>
      </trkpt>
      <trkpt lat="22.760209" lon="108.440849">
        <ele>60.095915</ele>
        <time>2026-08-14T02:17:48.000Z</time>
      </trkpt>
      <trkpt lat="22.760220" lon="108.440915">
        <ele>60.069729</ele>
        <time>2026-08-14T02:17:49.000Z</time>
      </trkpt>
      <trkpt lat="22.760233" lon="108.440980">
        <ele>60.043761</ele>
        <time>2026-08-14T02:17:50.000Z</time>
      </trkpt>
      <trkpt lat="22.760244" lon="108.441044">
        <ele>60.018343</ele>
        <time>2026-08-14T02:17:51.000Z</time>
      </trkpt>
      <trkpt lat="22.760254" lon="108.441107">
        <ele>59.993384</ele>
        <time>2026-08-14T02:17:52.000Z</time>
      </trkpt>
      <trkpt lat="22.760264" lon="108.441169">
        <ele>59.968810</ele>
        <time>2026-08-14T02:17:53.000Z</time>
      </trkpt>
      <trkpt lat="22.760276" lon="108.441231">
        <ele>59.944076</ele>
        <time>2026-08-14T02:17:54.000Z</time>
      </trkpt>
      <trkpt lat="22.760288" lon="108.441288">
        <ele>59.921249</ele>
        <time>2026-08-14T02:17:55.000Z</time>
      </trkpt>
      <trkpt lat="22.760299" lon="108.441346">
        <ele>59.898130</ele>
        <time>2026-08-14T02:17:56.000Z</time>
      </trkpt>
      <trkpt lat="22.760310" lon="108.441401">
        <ele>59.876157</ele>
        <time>2026-08-14T02:17:57.000Z</time>
      </trkpt>
      <trkpt lat="22.760324" lon="108.441458">
        <ele>59.853127</ele>
        <time>2026-08-14T02:17:58.000Z</time>
      </trkpt>
      <trkpt lat="22.760332" lon="108.441513">
        <ele>59.831387</ele>
        <time>2026-08-14T02:17:59.000Z</time>
      </trkpt>
      <trkpt lat="22.760340" lon="108.441570">
        <ele>59.808877</ele>
        <time>2026-08-14T02:18:00.000Z</time>
      </trkpt>
      <trkpt lat="22.760357" lon="108.441626">
        <ele>59.785858</ele>
        <time>2026-08-14T02:18:01.000Z</time>
      </trkpt>
      <trkpt lat="22.760372" lon="108.441678">
        <ele>59.764586</ele>
        <time>2026-08-14T02:18:02.000Z</time>
      </trkpt>
      <trkpt lat="22.760382" lon="108.441736">
        <ele>59.741548</ele>
        <time>2026-08-14T02:18:03.000Z</time>
      </trkpt>
      <trkpt lat="22.760394" lon="108.441791">
        <ele>59.719482</ele>
        <time>2026-08-14T02:18:04.000Z</time>
      </trkpt>
      <trkpt lat="22.760407" lon="108.441849">
        <ele>59.696177</ele>
        <time>2026-08-14T02:18:05.000Z</time>
      </trkpt>
      <trkpt lat="22.760419" lon="108.441901">
        <ele>59.675249</ele>
        <time>2026-08-14T02:18:06.000Z</time>
      </trkpt>
      <trkpt lat="22.760426" lon="108.441955">
        <ele>59.653958</ele>
        <time>2026-08-14T02:18:07.000Z</time>
      </trkpt>
      <trkpt lat="22.760432" lon="108.442009">
        <ele>59.632723</ele>
        <time>2026-08-14T02:18:08.000Z</time>
      </trkpt>
      <trkpt lat="22.760443" lon="108.442063">
        <ele>59.611131</ele>
        <time>2026-08-14T02:18:09.000Z</time>
      </trkpt>
      <trkpt lat="22.760450" lon="108.442118">
        <ele>59.589454</ele>
        <time>2026-08-14T02:18:10.000Z</time>
      </trkpt>
      <trkpt lat="22.760458" lon="108.442176">
        <ele>59.566557</ele>
        <time>2026-08-14T02:18:11.000Z</time>
      </trkpt>
      <trkpt lat="22.760468" lon="108.442233">
        <ele>59.543903</ele>
        <time>2026-08-14T02:18:12.000Z</time>
      </trkpt>
      <trkpt lat="22.760480" lon="108.442289">
        <ele>59.521457</ele>
        <time>2026-08-14T02:18:13.000Z</time>
      </trkpt>
      <trkpt lat="22.760493" lon="108.442344">
        <ele>59.499289</ele>
        <time>2026-08-14T02:18:14.000Z</time>
      </trkpt>
      <trkpt lat="22.760501" lon="108.442398">
        <ele>59.477935</ele>
        <time>2026-08-14T02:18:15.000Z</time>
      </trkpt>
      <trkpt lat="22.760509" lon="108.442455">
        <ele>59.455424</ele>
        <time>2026-08-14T02:18:16.000Z</time>
      </trkpt>
      <trkpt lat="22.760516" lon="108.442512">
        <ele>59.433837</ele>
        <time>2026-08-14T02:18:17.000Z</time>
      </trkpt>
      <trkpt lat="22.760527" lon="108.442574">
        <ele>59.410743</ele>
        <time>2026-08-14T02:18:18.000Z</time>
      </trkpt>
      <trkpt lat="22.760536" lon="108.442634">
        <ele>59.388507</ele>
        <time>2026-08-14T02:18:19.000Z</time>
      </trkpt>
      <trkpt lat="22.760544" lon="108.442693">
        <ele>59.366694</ele>
        <time>2026-08-14T02:18:20.000Z</time>
      </trkpt>
      <trkpt lat="22.760555" lon="108.442751">
        <ele>59.345035</ele>
        <time>2026-08-14T02:18:21.000Z</time>
      </trkpt>
      <trkpt lat="22.760566" lon="108.442811">
        <ele>59.322658</ele>
        <time>2026-08-14T02:18:22.000Z</time>
      </trkpt>
      <trkpt lat="22.760574" lon="108.442869">
        <ele>59.301207</ele>
        <time>2026-08-14T02:18:23.000Z</time>
      </trkpt>
      <trkpt lat="22.760587" lon="108.442928">
        <ele>59.279019</ele>
        <time>2026-08-14T02:18:24.000Z</time>
      </trkpt>
      <trkpt lat="22.760602" lon="108.442988">
        <ele>59.256280</ele>
        <time>2026-08-14T02:18:25.000Z</time>
      </trkpt>
      <trkpt lat="22.760615" lon="108.443046">
        <ele>59.234447</ele>
        <time>2026-08-14T02:18:26.000Z</time>
      </trkpt>
      <trkpt lat="22.760621" lon="108.443105">
        <ele>59.212735</ele>
        <time>2026-08-14T02:18:27.000Z</time>
      </trkpt>
      <trkpt lat="22.760635" lon="108.443167">
        <ele>59.189386</ele>
        <time>2026-08-14T02:18:28.000Z</time>
      </trkpt>
      <trkpt lat="22.760651" lon="108.443232">
        <ele>59.164778</ele>
        <time>2026-08-14T02:18:29.000Z</time>
      </trkpt>
      <trkpt lat="22.760664" lon="108.443294">
        <ele>59.141521</ele>
        <time>2026-08-14T02:18:30.000Z</time>
      </trkpt>
      <trkpt lat="22.760675" lon="108.443356">
        <ele>59.118427</ele>
        <time>2026-08-14T02:18:31.000Z</time>
      </trkpt>
      <trkpt lat="22.760684" lon="108.443419">
        <ele>59.095108</ele>
        <time>2026-08-14T02:18:32.000Z</time>
      </trkpt>
      <trkpt lat="22.760693" lon="108.443482">
        <ele>59.071789</ele>
        <time>2026-08-14T02:18:33.000Z</time>
      </trkpt>
      <trkpt lat="22.760704" lon="108.443546">
        <ele>59.047975</ele>
        <time>2026-08-14T02:18:34.000Z</time>
      </trkpt>
      <trkpt lat="22.760715" lon="108.443609">
        <ele>59.024522</ele>
        <time>2026-08-14T02:18:35.000Z</time>
      </trkpt>
      <trkpt lat="22.760724" lon="108.443673">
        <ele>59.000841</ele>
        <time>2026-08-14T02:18:36.000Z</time>
      </trkpt>
      <trkpt lat="22.760735" lon="108.443736">
        <ele>58.977388</ele>
        <time>2026-08-14T02:18:37.000Z</time>
      </trkpt>
      <trkpt lat="22.760743" lon="108.443800">
        <ele>58.953764</ele>
        <time>2026-08-14T02:18:38.000Z</time>
      </trkpt>
      <trkpt lat="22.760747" lon="108.443864">
        <ele>58.930300</ele>
        <time>2026-08-14T02:18:39.000Z</time>
      </trkpt>
      <trkpt lat="22.760752" lon="108.443927">
        <ele>58.907171</ele>
        <time>2026-08-14T02:18:40.000Z</time>
      </trkpt>
      <trkpt lat="22.760757" lon="108.443992">
        <ele>58.883313</ele>
        <time>2026-08-14T02:18:41.000Z</time>
      </trkpt>
      <trkpt lat="22.760763" lon="108.444056">
        <ele>58.859782</ele>
        <time>2026-08-14T02:18:42.000Z</time>
      </trkpt>
      <trkpt lat="22.760772" lon="108.444122">
        <ele>58.835378</ele>
        <time>2026-08-14T02:18:43.000Z</time>
      </trkpt>
      <trkpt lat="22.760785" lon="108.444185">
        <ele>58.811764</ele>
        <time>2026-08-14T02:18:44.000Z</time>
      </trkpt>
      <trkpt lat="22.760797" lon="108.444250">
        <ele>58.787516</ele>
        <time>2026-08-14T02:18:45.000Z</time>
      </trkpt>
      <trkpt lat="22.760809" lon="108.444316">
        <ele>58.762910</ele>
        <time>2026-08-14T02:18:46.000Z</time>
      </trkpt>
      <trkpt lat="22.760824" lon="108.444384">
        <ele>58.737335</ele>
        <time>2026-08-14T02:18:47.000Z</time>
      </trkpt>
      <trkpt lat="22.760838" lon="108.444449">
        <ele>58.719151</ele>
        <time>2026-08-14T02:18:48.000Z</time>
      </trkpt>
      <trkpt lat="22.760853" lon="108.444513">
        <ele>58.702424</ele>
        <time>2026-08-14T02:18:49.000Z</time>
      </trkpt>
      <trkpt lat="22.760866" lon="108.444579">
        <ele>58.685330</ele>
        <time>2026-08-14T02:18:50.000Z</time>
      </trkpt>
      <trkpt lat="22.760876" lon="108.444645">
        <ele>58.668388</ele>
        <time>2026-08-14T02:18:51.000Z</time>
      </trkpt>
      <trkpt lat="22.760890" lon="108.444709">
        <ele>58.651727</ele>
        <time>2026-08-14T02:18:52.000Z</time>
      </trkpt>
      <trkpt lat="22.760903" lon="108.444772">
        <ele>58.635374</ele>
        <time>2026-08-14T02:18:53.000Z</time>
      </trkpt>
      <trkpt lat="22.760916" lon="108.444833">
        <ele>58.619515</ele>
        <time>2026-08-14T02:18:54.000Z</time>
      </trkpt>
      <trkpt lat="22.760934" lon="108.444892">
        <ele>58.603774</ele>
        <time>2026-08-14T02:18:55.000Z</time>
      </trkpt>
      <trkpt lat="22.760948" lon="108.444947">
        <ele>58.589322</ele>
        <time>2026-08-14T02:18:56.000Z</time>
      </trkpt>
      <trkpt lat="22.760959" lon="108.445003">
        <ele>58.574819</ele>
        <time>2026-08-14T02:18:57.000Z</time>
      </trkpt>
      <trkpt lat="22.760969" lon="108.445049">
        <ele>58.562847</ele>
        <time>2026-08-14T02:18:58.000Z</time>
      </trkpt>
      <trkpt lat="22.760990" lon="108.445097">
        <ele>58.549390</ele>
        <time>2026-08-14T02:18:59.000Z</time>
      </trkpt>
      <trkpt lat="22.761005" lon="108.445151">
        <ele>58.535105</ele>
        <time>2026-08-14T02:19:00.000Z</time>
      </trkpt>
      <trkpt lat="22.761023" lon="108.445206">
        <ele>58.520322</ele>
        <time>2026-08-14T02:19:01.000Z</time>
      </trkpt>
      <trkpt lat="22.761038" lon="108.445266">
        <ele>58.504575</ele>
        <time>2026-08-14T02:19:02.000Z</time>
      </trkpt>
      <trkpt lat="22.761052" lon="108.445324">
        <ele>58.489389</ele>
        <time>2026-08-14T02:19:03.000Z</time>
      </trkpt>
      <trkpt lat="22.761061" lon="108.445385">
        <ele>58.473741</ele>
        <time>2026-08-14T02:19:04.000Z</time>
      </trkpt>
      <trkpt lat="22.761069" lon="108.445450">
        <ele>58.457131</ele>
        <time>2026-08-14T02:19:05.000Z</time>
      </trkpt>
      <trkpt lat="22.761075" lon="108.445511">
        <ele>58.441592</ele>
        <time>2026-08-14T02:19:06.000Z</time>
      </trkpt>
      <trkpt lat="22.761086" lon="108.445576">
        <ele>58.424852</ele>
        <time>2026-08-14T02:19:07.000Z</time>
      </trkpt>
      <trkpt lat="22.761096" lon="108.445640">
        <ele>58.408410</ele>
        <time>2026-08-14T02:19:08.000Z</time>
      </trkpt>
      <trkpt lat="22.761106" lon="108.445704">
        <ele>58.391968</ele>
        <time>2026-08-14T02:19:09.000Z</time>
      </trkpt>
      <trkpt lat="22.761119" lon="108.445768">
        <ele>58.375368</ele>
        <time>2026-08-14T02:19:10.000Z</time>
      </trkpt>
      <trkpt lat="22.761131" lon="108.445831">
        <ele>58.359073</ele>
        <time>2026-08-14T02:19:11.000Z</time>
      </trkpt>
      <trkpt lat="22.761143" lon="108.445894">
        <ele>58.342779</ele>
        <time>2026-08-14T02:19:12.000Z</time>
      </trkpt>
      <trkpt lat="22.761155" lon="108.445956">
        <ele>58.326732</ele>
        <time>2026-08-14T02:19:13.000Z</time>
      </trkpt>
      <trkpt lat="22.761168" lon="108.446020">
        <ele>58.310132</ele>
        <time>2026-08-14T02:19:14.000Z</time>
      </trkpt>
      <trkpt lat="22.761180" lon="108.446085">
        <ele>58.293341</ele>
        <time>2026-08-14T02:19:15.000Z</time>
      </trkpt>
      <trkpt lat="22.761192" lon="108.446148">
        <ele>58.277046</ele>
        <time>2026-08-14T02:19:16.000Z</time>
      </trkpt>
      <trkpt lat="22.761201" lon="108.446213">
        <ele>58.260397</ele>
        <time>2026-08-14T02:19:17.000Z</time>
      </trkpt>
      <trkpt lat="22.761214" lon="108.446276">
        <ele>58.244045</ele>
        <time>2026-08-14T02:19:18.000Z</time>
      </trkpt>
      <trkpt lat="22.761226" lon="108.446340">
        <ele>58.234211</ele>
        <time>2026-08-14T02:19:19.000Z</time>
      </trkpt>
      <trkpt lat="22.761238" lon="108.446406">
        <ele>58.227017</ele>
        <time>2026-08-14T02:19:20.000Z</time>
      </trkpt>
      <trkpt lat="22.761251" lon="108.446473">
        <ele>58.219696</ele>
        <time>2026-08-14T02:19:21.000Z</time>
      </trkpt>
      <trkpt lat="22.761262" lon="108.446537">
        <ele>58.212734</ele>
        <time>2026-08-14T02:19:22.000Z</time>
      </trkpt>
      <trkpt lat="22.761273" lon="108.446607">
        <ele>58.205140</ele>
        <time>2026-08-14T02:19:23.000Z</time>
      </trkpt>
      <trkpt lat="22.761285" lon="108.446675">
        <ele>58.197736</ele>
        <time>2026-08-14T02:19:24.000Z</time>
      </trkpt>
      <trkpt lat="22.761296" lon="108.446743">
        <ele>58.190353</ele>
        <time>2026-08-14T02:19:25.000Z</time>
      </trkpt>
      <trkpt lat="22.761307" lon="108.446810">
        <ele>58.183076</ele>
        <time>2026-08-14T02:19:26.000Z</time>
      </trkpt>
      <trkpt lat="22.761315" lon="108.446874">
        <ele>58.176169</ele>
        <time>2026-08-14T02:19:27.000Z</time>
      </trkpt>
      <trkpt lat="22.761324" lon="108.446937">
        <ele>58.169352</ele>
        <time>2026-08-14T02:19:28.000Z</time>
      </trkpt>
      <trkpt lat="22.761333" lon="108.447008">
        <ele>58.161688</ele>
        <time>2026-08-14T02:19:29.000Z</time>
      </trkpt>
      <trkpt lat="22.761339" lon="108.447072">
        <ele>58.154808</ele>
        <time>2026-08-14T02:19:30.000Z</time>
      </trkpt>
      <trkpt lat="22.761355" lon="108.447144">
        <ele>58.146888</ele>
        <time>2026-08-14T02:19:31.000Z</time>
      </trkpt>
      <trkpt lat="22.761366" lon="108.447210">
        <ele>58.139716</ele>
        <time>2026-08-14T02:19:32.000Z</time>
      </trkpt>
      <trkpt lat="22.761376" lon="108.447274">
        <ele>58.132774</ele>
        <time>2026-08-14T02:19:33.000Z</time>
      </trkpt>
      <trkpt lat="22.761387" lon="108.447332">
        <ele>58.126442</ele>
        <time>2026-08-14T02:19:34.000Z</time>
      </trkpt>
      <trkpt lat="22.761399" lon="108.447394">
        <ele>58.119667</ele>
        <time>2026-08-14T02:19:35.000Z</time>
      </trkpt>
      <trkpt lat="22.761406" lon="108.447456">
        <ele>58.112988</ele>
        <time>2026-08-14T02:19:36.000Z</time>
      </trkpt>
      <trkpt lat="22.761419" lon="108.447524">
        <ele>58.105561</ele>
        <time>2026-08-14T02:19:37.000Z</time>
      </trkpt>
      <trkpt lat="22.761429" lon="108.447589">
        <ele>58.098514</ele>
        <time>2026-08-14T02:19:38.000Z</time>
      </trkpt>
      <trkpt lat="22.761451" lon="108.447662">
        <ele>58.090301</ele>
        <time>2026-08-14T02:19:39.000Z</time>
      </trkpt>
      <trkpt lat="22.761441" lon="108.447709">
        <ele>58.085143</ele>
        <time>2026-08-14T02:19:40.000Z</time>
      </trkpt>
      <trkpt lat="22.761465" lon="108.447767">
        <ele>58.078345</ele>
        <time>2026-08-14T02:19:41.000Z</time>
      </trkpt>
      <trkpt lat="22.761474" lon="108.447834">
        <ele>58.071104</ele>
        <time>2026-08-14T02:19:42.000Z</time>
      </trkpt>
      <trkpt lat="22.761482" lon="108.447901">
        <ele>58.063880</ele>
        <time>2026-08-14T02:19:43.000Z</time>
      </trkpt>
      <trkpt lat="22.761490" lon="108.447970">
        <ele>58.056443</ele>
        <time>2026-08-14T02:19:44.000Z</time>
      </trkpt>
      <trkpt lat="22.761503" lon="108.448040">
        <ele>58.048807</ele>
        <time>2026-08-14T02:19:45.000Z</time>
      </trkpt>
      <trkpt lat="22.761513" lon="108.448112">
        <ele>58.041020</ele>
        <time>2026-08-14T02:19:46.000Z</time>
      </trkpt>
      <trkpt lat="22.761526" lon="108.448184">
        <ele>58.033175</ele>
        <time>2026-08-14T02:19:47.000Z</time>
      </trkpt>
      <trkpt lat="22.761540" lon="108.448253">
        <ele>58.035165</ele>
        <time>2026-08-14T02:19:48.000Z</time>
      </trkpt>
      <trkpt lat="22.761555" lon="108.448323">
        <ele>58.042434</ele>
        <time>2026-08-14T02:19:49.000Z</time>
      </trkpt>
      <trkpt lat="22.761569" lon="108.448394">
        <ele>58.049778</ele>
        <time>2026-08-14T02:19:50.000Z</time>
      </trkpt>
      <trkpt lat="22.761581" lon="108.448468">
        <ele>58.057378</ele>
        <time>2026-08-14T02:19:51.000Z</time>
      </trkpt>
      <trkpt lat="22.761593" lon="108.448541">
        <ele>58.064878</ele>
        <time>2026-08-14T02:19:52.000Z</time>
      </trkpt>
      <trkpt lat="22.761606" lon="108.448612">
        <ele>58.072199</ele>
        <time>2026-08-14T02:19:53.000Z</time>
      </trkpt>
      <trkpt lat="22.761618" lon="108.448682">
        <ele>58.079401</ele>
        <time>2026-08-14T02:19:54.000Z</time>
      </trkpt>
      <trkpt lat="22.761631" lon="108.448756">
        <ele>58.087020</ele>
        <time>2026-08-14T02:19:55.000Z</time>
      </trkpt>
      <trkpt lat="22.761643" lon="108.448831">
        <ele>58.094720</ele>
        <time>2026-08-14T02:19:56.000Z</time>
      </trkpt>
      <trkpt lat="22.761658" lon="108.448907">
        <ele>58.102581</ele>
        <time>2026-08-14T02:19:57.000Z</time>
      </trkpt>
      <trkpt lat="22.761670" lon="108.448982">
        <ele>58.110280</ele>
        <time>2026-08-14T02:19:58.000Z</time>
      </trkpt>
      <trkpt lat="22.761686" lon="108.449056">
        <ele>58.117968</ele>
        <time>2026-08-14T02:19:59.000Z</time>
      </trkpt>
      <trkpt lat="22.761702" lon="108.449129">
        <ele>58.125557</ele>
        <time>2026-08-14T02:20:00.000Z</time>
      </trkpt>
      <trkpt lat="22.761716" lon="108.449205">
        <ele>58.133396</ele>
        <time>2026-08-14T02:20:01.000Z</time>
      </trkpt>
      <trkpt lat="22.761728" lon="108.449282">
        <ele>58.141295</ele>
        <time>2026-08-14T02:20:02.000Z</time>
      </trkpt>
      <trkpt lat="22.761741" lon="108.449358">
        <ele>58.149113</ele>
        <time>2026-08-14T02:20:03.000Z</time>
      </trkpt>
      <trkpt lat="22.761753" lon="108.449436">
        <ele>58.157112</ele>
        <time>2026-08-14T02:20:04.000Z</time>
      </trkpt>
      <trkpt lat="22.761765" lon="108.449516">
        <ele>58.165310</ele>
        <time>2026-08-14T02:20:05.000Z</time>
      </trkpt>
      <trkpt lat="22.761770" lon="108.449588">
        <ele>58.172613</ele>
        <time>2026-08-14T02:20:06.000Z</time>
      </trkpt>
      <trkpt lat="22.761778" lon="108.449657">
        <ele>58.179647</ele>
        <time>2026-08-14T02:20:07.000Z</time>
      </trkpt>
      <trkpt lat="22.761785" lon="108.449727">
        <ele>58.186769</ele>
        <time>2026-08-14T02:20:08.000Z</time>
      </trkpt>
      <trkpt lat="22.761795" lon="108.449799">
        <ele>58.194134</ele>
        <time>2026-08-14T02:20:09.000Z</time>
      </trkpt>
      <trkpt lat="22.761805" lon="108.449875">
        <ele>58.201899</ele>
        <time>2026-08-14T02:20:10.000Z</time>
      </trkpt>
      <trkpt lat="22.761820" lon="108.449945">
        <ele>58.209167</ele>
        <time>2026-08-14T02:20:11.000Z</time>
      </trkpt>
      <trkpt lat="22.761837" lon="108.450018">
        <ele>58.216783</ele>
        <time>2026-08-14T02:20:12.000Z</time>
      </trkpt>
      <trkpt lat="22.761850" lon="108.450092">
        <ele>58.224402</ele>
        <time>2026-08-14T02:20:13.000Z</time>
      </trkpt>
      <trkpt lat="22.761864" lon="108.450165">
        <ele>58.221298</ele>
        <time>2026-08-14T02:20:14.000Z</time>
      </trkpt>
      <trkpt lat="22.761878" lon="108.450241">
        <ele>58.208921</ele>
        <time>2026-08-14T02:20:15.000Z</time>
      </trkpt>
      <trkpt lat="22.761891" lon="108.450317">
        <ele>58.196576</ele>
        <time>2026-08-14T02:20:16.000Z</time>
      </trkpt>
      <trkpt lat="22.761905" lon="108.450392">
        <ele>58.184355</ele>
        <time>2026-08-14T02:20:17.000Z</time>
      </trkpt>
      <trkpt lat="22.761917" lon="108.450466">
        <ele>58.172356</ele>
        <time>2026-08-14T02:20:18.000Z</time>
      </trkpt>
      <trkpt lat="22.761929" lon="108.450540">
        <ele>58.160357</ele>
        <time>2026-08-14T02:20:19.000Z</time>
      </trkpt>
      <trkpt lat="22.761941" lon="108.450615">
        <ele>58.148200</ele>
        <time>2026-08-14T02:20:20.000Z</time>
      </trkpt>
      <trkpt lat="22.761955" lon="108.450689">
        <ele>58.136136</ele>
        <time>2026-08-14T02:20:21.000Z</time>
      </trkpt>
      <trkpt lat="22.761969" lon="108.450762">
        <ele>58.124228</ele>
        <time>2026-08-14T02:20:22.000Z</time>
      </trkpt>
      <trkpt lat="22.761981" lon="108.450836">
        <ele>58.112229</ele>
        <time>2026-08-14T02:20:23.000Z</time>
      </trkpt>
      <trkpt lat="22.761993" lon="108.450909">
        <ele>58.100387</ele>
        <time>2026-08-14T02:20:24.000Z</time>
      </trkpt>
      <trkpt lat="22.762005" lon="108.450982">
        <ele>58.088544</ele>
        <time>2026-08-14T02:20:25.000Z</time>
      </trkpt>
      <trkpt lat="22.762020" lon="108.451053">
        <ele>58.076912</ele>
        <time>2026-08-14T02:20:26.000Z</time>
      </trkpt>
      <trkpt lat="22.762034" lon="108.451128">
        <ele>58.064691</ele>
        <time>2026-08-14T02:20:27.000Z</time>
      </trkpt>
      <trkpt lat="22.762048" lon="108.451202">
        <ele>58.052627</ele>
        <time>2026-08-14T02:20:28.000Z</time>
      </trkpt>
      <trkpt lat="22.762066" lon="108.451276">
        <ele>58.040405</ele>
        <time>2026-08-14T02:20:29.000Z</time>
      </trkpt>
      <trkpt lat="22.762085" lon="108.451353">
        <ele>58.027675</ele>
        <time>2026-08-14T02:20:30.000Z</time>
      </trkpt>
      <trkpt lat="22.762101" lon="108.451427">
        <ele>58.015536</ele>
        <time>2026-08-14T02:20:31.000Z</time>
      </trkpt>
      <trkpt lat="22.762118" lon="108.451503">
        <ele>58.003047</ele>
        <time>2026-08-14T02:20:32.000Z</time>
      </trkpt>
      <trkpt lat="22.762133" lon="108.451580">
        <ele>57.990478</ele>
        <time>2026-08-14T02:20:33.000Z</time>
      </trkpt>
      <trkpt lat="22.762149" lon="108.451656">
        <ele>57.978029</ele>
        <time>2026-08-14T02:20:34.000Z</time>
      </trkpt>
      <trkpt lat="22.762163" lon="108.451729">
        <ele>57.966121</ele>
        <time>2026-08-14T02:20:35.000Z</time>
      </trkpt>
      <trkpt lat="22.762180" lon="108.451801">
        <ele>57.954251</ele>
        <time>2026-08-14T02:20:36.000Z</time>
      </trkpt>
      <trkpt lat="22.762207" lon="108.451870">
        <ele>57.942281</ele>
        <time>2026-08-14T02:20:37.000Z</time>
      </trkpt>
      <trkpt lat="22.762224" lon="108.451942">
        <ele>57.930411</ele>
        <time>2026-08-14T02:20:38.000Z</time>
      </trkpt>
      <trkpt lat="22.762243" lon="108.452014">
        <ele>57.918451</ele>
        <time>2026-08-14T02:20:39.000Z</time>
      </trkpt>
      <trkpt lat="22.762263" lon="108.452084">
        <ele>57.932700</ele>
        <time>2026-08-14T02:20:40.000Z</time>
      </trkpt>
      <trkpt lat="22.762279" lon="108.452152">
        <ele>57.951919</ele>
        <time>2026-08-14T02:20:41.000Z</time>
      </trkpt>
      <trkpt lat="22.762297" lon="108.452221">
        <ele>57.971558</ele>
        <time>2026-08-14T02:20:42.000Z</time>
      </trkpt>
      <trkpt lat="22.762310" lon="108.452291">
        <ele>57.991113</ele>
        <time>2026-08-14T02:20:43.000Z</time>
      </trkpt>
      <trkpt lat="22.762323" lon="108.452364">
        <ele>58.011474</ele>
        <time>2026-08-14T02:20:44.000Z</time>
      </trkpt>
      <trkpt lat="22.762339" lon="108.452437">
        <ele>58.032023</ele>
        <time>2026-08-14T02:20:45.000Z</time>
      </trkpt>
      <trkpt lat="22.762349" lon="108.452509">
        <ele>58.051964</ele>
        <time>2026-08-14T02:20:46.000Z</time>
      </trkpt>
      <trkpt lat="22.762361" lon="108.452580">
        <ele>58.071732</ele>
        <time>2026-08-14T02:20:47.000Z</time>
      </trkpt>
      <trkpt lat="22.762374" lon="108.452650">
        <ele>58.091288</ele>
        <time>2026-08-14T02:20:48.000Z</time>
      </trkpt>
      <trkpt lat="22.762387" lon="108.452720">
        <ele>58.110843</ele>
        <time>2026-08-14T02:20:49.000Z</time>
      </trkpt>
      <trkpt lat="22.762398" lon="108.452784">
        <ele>58.128672</ele>
        <time>2026-08-14T02:20:50.000Z</time>
      </trkpt>
      <trkpt lat="22.762411" lon="108.452852">
        <ele>58.147691</ele>
        <time>2026-08-14T02:20:51.000Z</time>
      </trkpt>
      <trkpt lat="22.762423" lon="108.452920">
        <ele>58.166652</ele>
        <time>2026-08-14T02:20:52.000Z</time>
      </trkpt>
      <trkpt lat="22.762436" lon="108.452989">
        <ele>58.185939</ele>
        <time>2026-08-14T02:20:53.000Z</time>
      </trkpt>
      <trkpt lat="22.762449" lon="108.453056">
        <ele>58.204689</ele>
        <time>2026-08-14T02:20:54.000Z</time>
      </trkpt>
      <trkpt lat="22.762459" lon="108.453124">
        <ele>58.223547</ele>
        <time>2026-08-14T02:20:55.000Z</time>
      </trkpt>
      <trkpt lat="22.762469" lon="108.453191">
        <ele>58.242135</ele>
        <time>2026-08-14T02:20:56.000Z</time>
      </trkpt>
      <trkpt lat="22.762480" lon="108.453258">
        <ele>58.260772</ele>
        <time>2026-08-14T02:20:57.000Z</time>
      </trkpt>
      <trkpt lat="22.762492" lon="108.453323">
        <ele>58.278927</ele>
        <time>2026-08-14T02:20:58.000Z</time>
      </trkpt>
      <trkpt lat="22.762503" lon="108.453385">
        <ele>58.296218</ele>
        <time>2026-08-14T02:20:59.000Z</time>
      </trkpt>
      <trkpt lat="22.762509" lon="108.453443">
        <ele>58.312201</ele>
        <time>2026-08-14T02:21:00.000Z</time>
      </trkpt>
      <trkpt lat="22.762523" lon="108.453501">
        <ele>58.328621</ele>
        <time>2026-08-14T02:21:01.000Z</time>
      </trkpt>
      <trkpt lat="22.762534" lon="108.453544">
        <ele>58.340842</ele>
        <time>2026-08-14T02:21:02.000Z</time>
      </trkpt>
      <trkpt lat="22.762540" lon="108.453604">
        <ele>58.357370</ele>
        <time>2026-08-14T02:21:03.000Z</time>
      </trkpt>
      <trkpt lat="22.762547" lon="108.453668">
        <ele>58.375020</ele>
        <time>2026-08-14T02:21:04.000Z</time>
      </trkpt>
      <trkpt lat="22.762560" lon="108.453736">
        <ele>58.394039</ele>
        <time>2026-08-14T02:21:05.000Z</time>
      </trkpt>
      <trkpt lat="22.762571" lon="108.453802">
        <ele>58.412406</ele>
        <time>2026-08-14T02:21:06.000Z</time>
      </trkpt>
      <trkpt lat="22.762578" lon="108.453870">
        <ele>58.431145</ele>
        <time>2026-08-14T02:21:07.000Z</time>
      </trkpt>
      <trkpt lat="22.762589" lon="108.453939">
        <ele>58.450322</ele>
        <time>2026-08-14T02:21:08.000Z</time>
      </trkpt>
      <trkpt lat="22.762602" lon="108.454009">
        <ele>58.473712</ele>
        <time>2026-08-14T02:21:09.000Z</time>
      </trkpt>
      <trkpt lat="22.762616" lon="108.454073">
        <ele>58.495289</ele>
        <time>2026-08-14T02:21:10.000Z</time>
      </trkpt>
      <trkpt lat="22.762630" lon="108.454134">
        <ele>58.515910</ele>
        <time>2026-08-14T02:21:11.000Z</time>
      </trkpt>
      <trkpt lat="22.762642" lon="108.454191">
        <ele>58.535090</ele>
        <time>2026-08-14T02:21:12.000Z</time>
      </trkpt>
      <trkpt lat="22.762655" lon="108.454251">
        <ele>58.555308</ele>
        <time>2026-08-14T02:21:13.000Z</time>
      </trkpt>
      <trkpt lat="22.762663" lon="108.454313">
        <ele>58.575845</ele>
        <time>2026-08-14T02:21:14.000Z</time>
      </trkpt>
      <trkpt lat="22.762668" lon="108.454378">
        <ele>58.597242</ele>
        <time>2026-08-14T02:21:15.000Z</time>
      </trkpt>
      <trkpt lat="22.762676" lon="108.454437">
        <ele>58.616804</ele>
        <time>2026-08-14T02:21:16.000Z</time>
      </trkpt>
      <trkpt lat="22.762681" lon="108.454496">
        <ele>58.636240</ele>
        <time>2026-08-14T02:21:17.000Z</time>
      </trkpt>
      <trkpt lat="22.762685" lon="108.454555">
        <ele>58.655647</ele>
        <time>2026-08-14T02:21:18.000Z</time>
      </trkpt>
      <trkpt lat="22.762686" lon="108.454611">
        <ele>58.674021</ele>
        <time>2026-08-14T02:21:19.000Z</time>
      </trkpt>
      <trkpt lat="22.762690" lon="108.454671">
        <ele>58.693755</ele>
        <time>2026-08-14T02:21:20.000Z</time>
      </trkpt>
      <trkpt lat="22.762692" lon="108.454725">
        <ele>58.711483</ele>
        <time>2026-08-14T02:21:21.000Z</time>
      </trkpt>
      <trkpt lat="22.762695" lon="108.454780">
        <ele>58.729557</ele>
        <time>2026-08-14T02:21:22.000Z</time>
      </trkpt>
      <trkpt lat="22.762695" lon="108.454841">
        <ele>58.749568</ele>
        <time>2026-08-14T02:21:23.000Z</time>
      </trkpt>
      <trkpt lat="22.762702" lon="108.454899">
        <ele>58.768756</ele>
        <time>2026-08-14T02:21:24.000Z</time>
      </trkpt>
      <trkpt lat="22.762713" lon="108.454959">
        <ele>58.788824</ele>
        <time>2026-08-14T02:21:25.000Z</time>
      </trkpt>
      <trkpt lat="22.762728" lon="108.455018">
        <ele>58.808901</ele>
        <time>2026-08-14T02:21:26.000Z</time>
      </trkpt>
      <trkpt lat="22.762739" lon="108.455079">
        <ele>58.829290</ele>
        <time>2026-08-14T02:21:27.000Z</time>
      </trkpt>
      <trkpt lat="22.762744" lon="108.455138">
        <ele>58.848726</ele>
        <time>2026-08-14T02:21:28.000Z</time>
      </trkpt>
      <trkpt lat="22.762749" lon="108.455197">
        <ele>58.868162</ele>
        <time>2026-08-14T02:21:29.000Z</time>
      </trkpt>
      <trkpt lat="22.762749" lon="108.455261">
        <ele>58.889157</ele>
        <time>2026-08-14T02:21:30.000Z</time>
      </trkpt>
      <trkpt lat="22.762747" lon="108.455324">
        <ele>58.909836</ele>
        <time>2026-08-14T02:21:31.000Z</time>
      </trkpt>
      <trkpt lat="22.762751" lon="108.455382">
        <ele>58.928915</ele>
        <time>2026-08-14T02:21:32.000Z</time>
      </trkpt>
      <trkpt lat="22.762758" lon="108.455444">
        <ele>58.949406</ele>
        <time>2026-08-14T02:21:33.000Z</time>
      </trkpt>
      <trkpt lat="22.762759" lon="108.455511">
        <ele>58.971388</ele>
        <time>2026-08-14T02:21:34.000Z</time>
      </trkpt>
      <trkpt lat="22.762763" lon="108.455573">
        <ele>58.991776</ele>
        <time>2026-08-14T02:21:35.000Z</time>
      </trkpt>
      <trkpt lat="22.762763" lon="108.455634">
        <ele>59.011786</ele>
        <time>2026-08-14T02:21:36.000Z</time>
      </trkpt>
      <trkpt lat="22.762764" lon="108.455691">
        <ele>59.030488</ele>
        <time>2026-08-14T02:21:37.000Z</time>
      </trkpt>
      <trkpt lat="22.762772" lon="108.455751">
        <ele>59.050375</ele>
        <time>2026-08-14T02:21:38.000Z</time>
      </trkpt>
      <trkpt lat="22.762770" lon="108.455816">
        <ele>59.071710</ele>
        <time>2026-08-14T02:21:39.000Z</time>
      </trkpt>
      <trkpt lat="22.762767" lon="108.455884">
        <ele>59.090198</ele>
        <time>2026-08-14T02:21:40.000Z</time>
      </trkpt>
      <trkpt lat="22.762765" lon="108.455944">
        <ele>59.089334</ele>
        <time>2026-08-14T02:21:41.000Z</time>
      </trkpt>
      <trkpt lat="22.762760" lon="108.456004">
        <ele>59.088468</ele>
        <time>2026-08-14T02:21:42.000Z</time>
      </trkpt>
      <trkpt lat="22.762762" lon="108.456064">
        <ele>59.087604</ele>
        <time>2026-08-14T02:21:43.000Z</time>
      </trkpt>
      <trkpt lat="22.762758" lon="108.456112">
        <ele>59.086911</ele>
        <time>2026-08-14T02:21:44.000Z</time>
      </trkpt>
      <trkpt lat="22.762753" lon="108.456166">
        <ele>59.086130</ele>
        <time>2026-08-14T02:21:45.000Z</time>
      </trkpt>
      <trkpt lat="22.762742" lon="108.456221">
        <ele>59.085320</ele>
        <time>2026-08-14T02:21:46.000Z</time>
      </trkpt>
      <trkpt lat="22.762742" lon="108.456276">
        <ele>59.084529</ele>
        <time>2026-08-14T02:21:47.000Z</time>
      </trkpt>
      <trkpt lat="22.762733" lon="108.456322">
        <ele>59.083853</ele>
        <time>2026-08-14T02:21:48.000Z</time>
      </trkpt>
      <trkpt lat="22.762728" lon="108.456373">
        <ele>59.083115</ele>
        <time>2026-08-14T02:21:49.000Z</time>
      </trkpt>
      <trkpt lat="22.762718" lon="108.456426">
        <ele>59.082337</ele>
        <time>2026-08-14T02:21:50.000Z</time>
      </trkpt>
      <trkpt lat="22.762698" lon="108.456480">
        <ele>59.081500</ele>
        <time>2026-08-14T02:21:51.000Z</time>
      </trkpt>
      <trkpt lat="22.762687" lon="108.456547">
        <ele>59.080521</ele>
        <time>2026-08-14T02:21:52.000Z</time>
      </trkpt>
      <trkpt lat="22.762670" lon="108.456608">
        <ele>59.079604</ele>
        <time>2026-08-14T02:21:53.000Z</time>
      </trkpt>
      <trkpt lat="22.762668" lon="108.456663">
        <ele>59.078812</ele>
        <time>2026-08-14T02:21:54.000Z</time>
      </trkpt>
      <trkpt lat="22.762669" lon="108.456732">
        <ele>59.077819</ele>
        <time>2026-08-14T02:21:55.000Z</time>
      </trkpt>
      <trkpt lat="22.762671" lon="108.456791">
        <ele>59.076970</ele>
        <time>2026-08-14T02:21:56.000Z</time>
      </trkpt>
      <trkpt lat="22.762665" lon="108.456854">
        <ele>59.076059</ele>
        <time>2026-08-14T02:21:57.000Z</time>
      </trkpt>
      <trkpt lat="22.762661" lon="108.456924">
        <ele>59.075050</ele>
        <time>2026-08-14T02:21:58.000Z</time>
      </trkpt>
      <trkpt lat="22.762652" lon="108.456993">
        <ele>59.074047</ele>
        <time>2026-08-14T02:21:59.000Z</time>
      </trkpt>
      <trkpt lat="22.762639" lon="108.457067">
        <ele>59.072964</ele>
        <time>2026-08-14T02:22:00.000Z</time>
      </trkpt>
      <trkpt lat="22.762631" lon="108.457136">
        <ele>59.071963</ele>
        <time>2026-08-14T02:22:01.000Z</time>
      </trkpt>
      <trkpt lat="22.762623" lon="108.457198">
        <ele>59.071063</ele>
        <time>2026-08-14T02:22:02.000Z</time>
      </trkpt>
      <trkpt lat="22.762611" lon="108.457267">
        <ele>59.070052</ele>
        <time>2026-08-14T02:22:03.000Z</time>
      </trkpt>
      <trkpt lat="22.762596" lon="108.457330">
        <ele>59.069116</ele>
        <time>2026-08-14T02:22:04.000Z</time>
      </trkpt>
      <trkpt lat="22.762580" lon="108.457397">
        <ele>59.068121</ele>
        <time>2026-08-14T02:22:05.000Z</time>
      </trkpt>
      <trkpt lat="22.762566" lon="108.457460">
        <ele>59.067189</ele>
        <time>2026-08-14T02:22:06.000Z</time>
      </trkpt>
      <trkpt lat="22.762552" lon="108.457531">
        <ele>59.066144</ele>
        <time>2026-08-14T02:22:07.000Z</time>
      </trkpt>
      <trkpt lat="22.762542" lon="108.457596">
        <ele>59.065196</ele>
        <time>2026-08-14T02:22:08.000Z</time>
      </trkpt>
      <trkpt lat="22.762531" lon="108.457663">
        <ele>59.064217</ele>
        <time>2026-08-14T02:22:09.000Z</time>
      </trkpt>
      <trkpt lat="22.762521" lon="108.457730">
        <ele>59.063241</ele>
        <time>2026-08-14T02:22:10.000Z</time>
      </trkpt>
      <trkpt lat="22.762512" lon="108.457798">
        <ele>59.061612</ele>
        <time>2026-08-14T02:22:11.000Z</time>
      </trkpt>
      <trkpt lat="22.762502" lon="108.457865">
        <ele>59.047305</ele>
        <time>2026-08-14T02:22:12.000Z</time>
      </trkpt>
      <trkpt lat="22.762494" lon="108.457933">
        <ele>59.032855</ele>
        <time>2026-08-14T02:22:13.000Z</time>
      </trkpt>
      <trkpt lat="22.762482" lon="108.458000">
        <ele>59.018468</ele>
        <time>2026-08-14T02:22:14.000Z</time>
      </trkpt>
      <trkpt lat="22.762472" lon="108.458064">
        <ele>59.004785</ele>
        <time>2026-08-14T02:22:15.000Z</time>
      </trkpt>
      <trkpt lat="22.762463" lon="108.458130">
        <ele>58.990721</ele>
        <time>2026-08-14T02:22:16.000Z</time>
      </trkpt>
      <trkpt lat="22.762454" lon="108.458195">
        <ele>58.976866</ele>
        <time>2026-08-14T02:22:17.000Z</time>
      </trkpt>
      <trkpt lat="22.762445" lon="108.458260">
        <ele>58.963011</ele>
        <time>2026-08-14T02:22:18.000Z</time>
      </trkpt>
      <trkpt lat="22.762434" lon="108.458326">
        <ele>58.948873</ele>
        <time>2026-08-14T02:22:19.000Z</time>
      </trkpt>
      <trkpt lat="22.762422" lon="108.458388">
        <ele>58.935519</ele>
        <time>2026-08-14T02:22:20.000Z</time>
      </trkpt>
      <trkpt lat="22.762414" lon="108.458448">
        <ele>58.922740</ele>
        <time>2026-08-14T02:22:21.000Z</time>
      </trkpt>
      <trkpt lat="22.762408" lon="108.458510">
        <ele>58.909599</ele>
        <time>2026-08-14T02:22:22.000Z</time>
      </trkpt>
      <trkpt lat="22.762402" lon="108.458569">
        <ele>58.897087</ele>
        <time>2026-08-14T02:22:23.000Z</time>
      </trkpt>
      <trkpt lat="22.762404" lon="108.458633">
        <ele>58.883589</ele>
        <time>2026-08-14T02:22:24.000Z</time>
      </trkpt>
      <trkpt lat="22.762382" lon="108.458699">
        <ele>58.868795</ele>
        <time>2026-08-14T02:22:25.000Z</time>
      </trkpt>
      <trkpt lat="22.762370" lon="108.458765">
        <ele>58.854615</ele>
        <time>2026-08-14T02:22:26.000Z</time>
      </trkpt>
      <trkpt lat="22.762352" lon="108.458830">
        <ele>58.840309</ele>
        <time>2026-08-14T02:22:27.000Z</time>
      </trkpt>
      <trkpt lat="22.762335" lon="108.458894">
        <ele>58.826270</ele>
        <time>2026-08-14T02:22:28.000Z</time>
      </trkpt>
      <trkpt lat="22.762314" lon="108.458958">
        <ele>58.811951</ele>
        <time>2026-08-14T02:22:29.000Z</time>
      </trkpt>
      <trkpt lat="22.762290" lon="108.459021">
        <ele>58.797582</ele>
        <time>2026-08-14T02:22:30.000Z</time>
      </trkpt>
      <trkpt lat="22.762270" lon="108.459087">
        <ele>58.782938</ele>
        <time>2026-08-14T02:22:31.000Z</time>
      </trkpt>
      <trkpt lat="22.762249" lon="108.459152">
        <ele>58.768420</ele>
        <time>2026-08-14T02:22:32.000Z</time>
      </trkpt>
      <trkpt lat="22.762228" lon="108.459217">
        <ele>58.753902</ele>
        <time>2026-08-14T02:22:33.000Z</time>
      </trkpt>
      <trkpt lat="22.762205" lon="108.459281">
        <ele>58.739422</ele>
        <time>2026-08-14T02:22:34.000Z</time>
      </trkpt>
      <trkpt lat="22.762186" lon="108.459346">
        <ele>58.725049</ele>
        <time>2026-08-14T02:22:35.000Z</time>
      </trkpt>
      <trkpt lat="22.762172" lon="108.459411">
        <ele>58.710979</ele>
        <time>2026-08-14T02:22:36.000Z</time>
      </trkpt>
      <trkpt lat="22.762157" lon="108.459478">
        <ele>58.696445</ele>
        <time>2026-08-14T02:22:37.000Z</time>
      </trkpt>
      <trkpt lat="22.762139" lon="108.459543">
        <ele>58.682139</ele>
        <time>2026-08-14T02:22:38.000Z</time>
      </trkpt>
      <trkpt lat="22.762122" lon="108.459609">
        <ele>58.667694</ele>
        <time>2026-08-14T02:22:39.000Z</time>
      </trkpt>
      <trkpt lat="22.762105" lon="108.459673">
        <ele>58.653655</ele>
        <time>2026-08-14T02:22:40.000Z</time>
      </trkpt>
      <trkpt lat="22.762087" lon="108.459737">
        <ele>58.634672</ele>
        <time>2026-08-14T02:22:41.000Z</time>
      </trkpt>
      <trkpt lat="22.762068" lon="108.459802">
        <ele>58.614245</ele>
        <time>2026-08-14T02:22:42.000Z</time>
      </trkpt>
      <trkpt lat="22.762050" lon="108.459868">
        <ele>58.593627</ele>
        <time>2026-08-14T02:22:43.000Z</time>
      </trkpt>
      <trkpt lat="22.762028" lon="108.459932">
        <ele>58.573166</ele>
        <time>2026-08-14T02:22:44.000Z</time>
      </trkpt>
      <trkpt lat="22.762006" lon="108.459997">
        <ele>58.552425</ele>
        <time>2026-08-14T02:22:45.000Z</time>
      </trkpt>
      <trkpt lat="22.761983" lon="108.460061">
        <ele>58.531848</ele>
        <time>2026-08-14T02:22:46.000Z</time>
      </trkpt>
      <trkpt lat="22.761959" lon="108.460125">
        <ele>58.511151</ele>
        <time>2026-08-14T02:22:47.000Z</time>
      </trkpt>
      <trkpt lat="22.761935" lon="108.460189">
        <ele>58.490454</ele>
        <time>2026-08-14T02:22:48.000Z</time>
      </trkpt>
      <trkpt lat="22.761912" lon="108.460251">
        <ele>58.470435</ele>
        <time>2026-08-14T02:22:49.000Z</time>
      </trkpt>
      <trkpt lat="22.761888" lon="108.460315">
        <ele>58.449738</ele>
        <time>2026-08-14T02:22:50.000Z</time>
      </trkpt>
      <trkpt lat="22.761863" lon="108.460377">
        <ele>58.429467</ele>
        <time>2026-08-14T02:22:51.000Z</time>
      </trkpt>
      <trkpt lat="22.761838" lon="108.460438">
        <ele>58.409470</ele>
        <time>2026-08-14T02:22:52.000Z</time>
      </trkpt>
      <trkpt lat="22.761808" lon="108.460501">
        <ele>58.388230</ele>
        <time>2026-08-14T02:22:53.000Z</time>
      </trkpt>
      <trkpt lat="22.761777" lon="108.460567">
        <ele>58.366041</ele>
        <time>2026-08-14T02:22:54.000Z</time>
      </trkpt>
      <trkpt lat="22.761750" lon="108.460631">
        <ele>58.344958</ele>
        <time>2026-08-14T02:22:55.000Z</time>
      </trkpt>
      <trkpt lat="22.761726" lon="108.460697">
        <ele>58.323705</ele>
        <time>2026-08-14T02:22:56.000Z</time>
      </trkpt>
      <trkpt lat="22.761695" lon="108.460760">
        <ele>58.302313</ele>
        <time>2026-08-14T02:22:57.000Z</time>
      </trkpt>
      <trkpt lat="22.761667" lon="108.460824">
        <ele>58.281093</ele>
        <time>2026-08-14T02:22:58.000Z</time>
      </trkpt>
      <trkpt lat="22.761640" lon="108.460887">
        <ele>58.260282</ele>
        <time>2026-08-14T02:22:59.000Z</time>
      </trkpt>
      <trkpt lat="22.761615" lon="108.460951">
        <ele>58.239460</ele>
        <time>2026-08-14T02:23:00.000Z</time>
      </trkpt>
      <trkpt lat="22.761594" lon="108.461013">
        <ele>58.219674</ele>
        <time>2026-08-14T02:23:01.000Z</time>
      </trkpt>
      <trkpt lat="22.761571" lon="108.461077">
        <ele>58.199097</ele>
        <time>2026-08-14T02:23:02.000Z</time>
      </trkpt>
      <trkpt lat="22.761549" lon="108.461142">
        <ele>58.178355</ele>
        <time>2026-08-14T02:23:03.000Z</time>
      </trkpt>
      <trkpt lat="22.761528" lon="108.461207">
        <ele>58.157723</ele>
        <time>2026-08-14T02:23:04.000Z</time>
      </trkpt>
      <trkpt lat="22.761506" lon="108.461269">
        <ele>58.137823</ele>
        <time>2026-08-14T02:23:05.000Z</time>
      </trkpt>
      <trkpt lat="22.761482" lon="108.461332">
        <ele>58.117403</ele>
        <time>2026-08-14T02:23:06.000Z</time>
      </trkpt>
      <trkpt lat="22.761458" lon="108.461397">
        <ele>58.096428</ele>
        <time>2026-08-14T02:23:07.000Z</time>
      </trkpt>
      <trkpt lat="22.761434" lon="108.461461">
        <ele>58.075731</ele>
        <time>2026-08-14T02:23:08.000Z</time>
      </trkpt>
      <trkpt lat="22.761413" lon="108.461524">
        <ele>58.059356</ele>
        <time>2026-08-14T02:23:09.000Z</time>
      </trkpt>
      <trkpt lat="22.761391" lon="108.461590">
        <ele>58.045289</ele>
        <time>2026-08-14T02:23:10.000Z</time>
      </trkpt>
      <trkpt lat="22.761367" lon="108.461654">
        <ele>58.031440</ele>
        <time>2026-08-14T02:23:11.000Z</time>
      </trkpt>
      <trkpt lat="22.761338" lon="108.461719">
        <ele>58.016966</ele>
        <time>2026-08-14T02:23:12.000Z</time>
      </trkpt>
      <trkpt lat="22.761312" lon="108.461784">
        <ele>58.002764</ele>
        <time>2026-08-14T02:23:13.000Z</time>
      </trkpt>
      <trkpt lat="22.761285" lon="108.461849">
        <ele>57.988475</ele>
        <time>2026-08-14T02:23:14.000Z</time>
      </trkpt>
      <trkpt lat="22.761259" lon="108.461914">
        <ele>57.974273</ele>
        <time>2026-08-14T02:23:15.000Z</time>
      </trkpt>
      <trkpt lat="22.761237" lon="108.461977">
        <ele>57.960769</ele>
        <time>2026-08-14T02:23:16.000Z</time>
      </trkpt>
      <trkpt lat="22.761216" lon="108.462041">
        <ele>57.947153</ele>
        <time>2026-08-14T02:23:17.000Z</time>
      </trkpt>
      <trkpt lat="22.761189" lon="108.462104">
        <ele>57.933228</ele>
        <time>2026-08-14T02:23:18.000Z</time>
      </trkpt>
      <trkpt lat="22.761161" lon="108.462167">
        <ele>57.919210</ele>
        <time>2026-08-14T02:23:19.000Z</time>
      </trkpt>
      <trkpt lat="22.761137" lon="108.462229">
        <ele>57.905731</ele>
        <time>2026-08-14T02:23:20.000Z</time>
      </trkpt>
      <trkpt lat="22.761111" lon="108.462292">
        <ele>57.891896</ele>
        <time>2026-08-14T02:23:21.000Z</time>
      </trkpt>
      <trkpt lat="22.761083" lon="108.462354">
        <ele>57.878058</ele>
        <time>2026-08-14T02:23:22.000Z</time>
      </trkpt>
      <trkpt lat="22.761057" lon="108.462414">
        <ele>57.864770</ele>
        <time>2026-08-14T02:23:23.000Z</time>
      </trkpt>
      <trkpt lat="22.761029" lon="108.462471">
        <ele>57.851824</ele>
        <time>2026-08-14T02:23:24.000Z</time>
      </trkpt>
      <trkpt lat="22.761004" lon="108.462533">
        <ele>57.838261</ele>
        <time>2026-08-14T02:23:25.000Z</time>
      </trkpt>
      <trkpt lat="22.760989" lon="108.462584">
        <ele>57.827531</ele>
        <time>2026-08-14T02:23:26.000Z</time>
      </trkpt>
      <trkpt lat="22.760967" lon="108.462647">
        <ele>57.814027</ele>
        <time>2026-08-14T02:23:27.000Z</time>
      </trkpt>
      <trkpt lat="22.760943" lon="108.462708">
        <ele>57.800734</ele>
        <time>2026-08-14T02:23:28.000Z</time>
      </trkpt>
      <trkpt lat="22.760924" lon="108.462765">
        <ele>57.788585</ele>
        <time>2026-08-14T02:23:29.000Z</time>
      </trkpt>
      <trkpt lat="22.760905" lon="108.462827">
        <ele>57.775489</ele>
        <time>2026-08-14T02:23:30.000Z</time>
      </trkpt>
      <trkpt lat="22.760880" lon="108.462891">
        <ele>57.761557</ele>
        <time>2026-08-14T02:23:31.000Z</time>
      </trkpt>
      <trkpt lat="22.760857" lon="108.462950">
        <ele>57.748717</ele>
        <time>2026-08-14T02:23:32.000Z</time>
      </trkpt>
      <trkpt lat="22.760836" lon="108.463008">
        <ele>57.736227</ele>
        <time>2026-08-14T02:23:33.000Z</time>
      </trkpt>
      <trkpt lat="22.760817" lon="108.463064">
        <ele>57.724267</ele>
        <time>2026-08-14T02:23:34.000Z</time>
      </trkpt>
      <trkpt lat="22.760792" lon="108.463118">
        <ele>57.712155</ele>
        <time>2026-08-14T02:23:35.000Z</time>
      </trkpt>
      <trkpt lat="22.760766" lon="108.463174">
        <ele>57.699587</ele>
        <time>2026-08-14T02:23:36.000Z</time>
      </trkpt>
      <trkpt lat="22.760743" lon="108.463233">
        <ele>57.686748</ele>
        <time>2026-08-14T02:23:37.000Z</time>
      </trkpt>
      <trkpt lat="22.760720" lon="108.463285">
        <ele>57.676243</ele>
        <time>2026-08-14T02:23:38.000Z</time>
      </trkpt>
      <trkpt lat="22.760695" lon="108.463331">
        <ele>57.682670</ele>
        <time>2026-08-14T02:23:39.000Z</time>
      </trkpt>
      <trkpt lat="22.760670" lon="108.463385">
        <ele>57.689943</ele>
        <time>2026-08-14T02:23:40.000Z</time>
      </trkpt>
      <trkpt lat="22.760651" lon="108.463441">
        <ele>57.697126</ele>
        <time>2026-08-14T02:23:41.000Z</time>
      </trkpt>
      <trkpt lat="22.760625" lon="108.463497">
        <ele>57.704672</ele>
        <time>2026-08-14T02:23:42.000Z</time>
      </trkpt>
      <trkpt lat="22.760606" lon="108.463548">
        <ele>57.711293</ele>
        <time>2026-08-14T02:23:43.000Z</time>
      </trkpt>
      <trkpt lat="22.760584" lon="108.463598">
        <ele>57.717962</ele>
        <time>2026-08-14T02:23:44.000Z</time>
      </trkpt>
      <trkpt lat="22.760561" lon="108.463659">
        <ele>57.725895</ele>
        <time>2026-08-14T02:23:45.000Z</time>
      </trkpt>
      <trkpt lat="22.760540" lon="108.463715">
        <ele>57.733172</ele>
        <time>2026-08-14T02:23:46.000Z</time>
      </trkpt>
      <trkpt lat="22.760517" lon="108.463764">
        <ele>57.739790</ele>
        <time>2026-08-14T02:23:47.000Z</time>
      </trkpt>
      <trkpt lat="22.760485" lon="108.463813">
        <ele>57.747017</ele>
        <time>2026-08-14T02:23:48.000Z</time>
      </trkpt>
      <trkpt lat="22.760466" lon="108.463866">
        <ele>57.753862</ele>
        <time>2026-08-14T02:23:49.000Z</time>
      </trkpt>
      <trkpt lat="22.760447" lon="108.463928">
        <ele>57.761727</ele>
        <time>2026-08-14T02:23:50.000Z</time>
      </trkpt>
      <trkpt lat="22.760427" lon="108.463991">
        <ele>57.769747</ele>
        <time>2026-08-14T02:23:51.000Z</time>
      </trkpt>
      <trkpt lat="22.760409" lon="108.464048">
        <ele>57.776999</ele>
        <time>2026-08-14T02:23:52.000Z</time>
      </trkpt>
      <trkpt lat="22.760391" lon="108.464103">
        <ele>57.784024</ele>
        <time>2026-08-14T02:23:53.000Z</time>
      </trkpt>
      <trkpt lat="22.760365" lon="108.464166">
        <ele>57.792332</ele>
        <time>2026-08-14T02:23:54.000Z</time>
      </trkpt>
      <trkpt lat="22.760335" lon="108.464232">
        <ele>57.801189</ele>
        <time>2026-08-14T02:23:55.000Z</time>
      </trkpt>
      <trkpt lat="22.760312" lon="108.464294">
        <ele>57.809234</ele>
        <time>2026-08-14T02:23:56.000Z</time>
      </trkpt>
      <trkpt lat="22.760292" lon="108.464355">
        <ele>57.817027</ele>
        <time>2026-08-14T02:23:57.000Z</time>
      </trkpt>
      <trkpt lat="22.760268" lon="108.464418">
        <ele>57.825232</ele>
        <time>2026-08-14T02:23:58.000Z</time>
      </trkpt>
      <trkpt lat="22.760248" lon="108.464479">
        <ele>57.833025</ele>
        <time>2026-08-14T02:23:59.000Z</time>
      </trkpt>
      <trkpt lat="22.760228" lon="108.464546">
        <ele>57.841502</ele>
        <time>2026-08-14T02:24:00.000Z</time>
      </trkpt>
      <trkpt lat="22.760205" lon="108.464614">
        <ele>57.850220</ele>
        <time>2026-08-14T02:24:01.000Z</time>
      </trkpt>
      <trkpt lat="22.760187" lon="108.464681">
        <ele>57.858620</ele>
        <time>2026-08-14T02:24:02.000Z</time>
      </trkpt>
      <trkpt lat="22.760172" lon="108.464750">
        <ele>57.867154</ele>
        <time>2026-08-14T02:24:03.000Z</time>
      </trkpt>
      <trkpt lat="22.760156" lon="108.464820">
        <ele>57.875834</ele>
        <time>2026-08-14T02:24:04.000Z</time>
      </trkpt>
      <trkpt lat="22.760142" lon="108.464891">
        <ele>57.884574</ele>
        <time>2026-08-14T02:24:05.000Z</time>
      </trkpt>
      <trkpt lat="22.760126" lon="108.464959">
        <ele>57.893022</ele>
        <time>2026-08-14T02:24:06.000Z</time>
      </trkpt>
      <trkpt lat="22.760111" lon="108.465028">
        <ele>57.901555</ele>
        <time>2026-08-14T02:24:07.000Z</time>
      </trkpt>
      <trkpt lat="22.760089" lon="108.465096">
        <ele>57.910229</ele>
        <time>2026-08-14T02:24:08.000Z</time>
      </trkpt>
      <trkpt lat="22.760067" lon="108.465163">
        <ele>57.901839</ele>
        <time>2026-08-14T02:24:09.000Z</time>
      </trkpt>
      <trkpt lat="22.760041" lon="108.465231">
        <ele>57.892284</ele>
        <time>2026-08-14T02:24:10.000Z</time>
      </trkpt>
      <trkpt lat="22.760019" lon="108.465295">
        <ele>57.883419</ele>
        <time>2026-08-14T02:24:11.000Z</time>
      </trkpt>
      <trkpt lat="22.759999" lon="108.465357">
        <ele>57.874894</ele>
        <time>2026-08-14T02:24:12.000Z</time>
      </trkpt>
      <trkpt lat="22.759986" lon="108.465420">
        <ele>57.866514</ele>
        <time>2026-08-14T02:24:13.000Z</time>
      </trkpt>
      <trkpt lat="22.759967" lon="108.465489">
        <ele>57.857168</ele>
        <time>2026-08-14T02:24:14.000Z</time>
      </trkpt>
      <trkpt lat="22.759946" lon="108.465560">
        <ele>57.847490</ele>
        <time>2026-08-14T02:24:15.000Z</time>
      </trkpt>
      <trkpt lat="22.759933" lon="108.465634">
        <ele>57.837712</ele>
        <time>2026-08-14T02:24:16.000Z</time>
      </trkpt>
      <trkpt lat="22.759920" lon="108.465710">
        <ele>57.827680</ele>
        <time>2026-08-14T02:24:17.000Z</time>
      </trkpt>
      <trkpt lat="22.759903" lon="108.465781">
        <ele>57.818159</ele>
        <time>2026-08-14T02:24:18.000Z</time>
      </trkpt>
      <trkpt lat="22.759886" lon="108.465852">
        <ele>57.808638</ele>
        <time>2026-08-14T02:24:19.000Z</time>
      </trkpt>
      <trkpt lat="22.759871" lon="108.465924">
        <ele>57.799057</ele>
        <time>2026-08-14T02:24:20.000Z</time>
      </trkpt>
      <trkpt lat="22.759861" lon="108.465992">
        <ele>57.790120</ele>
        <time>2026-08-14T02:24:21.000Z</time>
      </trkpt>
      <trkpt lat="22.759847" lon="108.466061">
        <ele>57.780949</ele>
        <time>2026-08-14T02:24:22.000Z</time>
      </trkpt>
      <trkpt lat="22.759832" lon="108.466132">
        <ele>57.771495</ele>
        <time>2026-08-14T02:24:23.000Z</time>
      </trkpt>
      <trkpt lat="22.759817" lon="108.466200">
        <ele>57.762420</ele>
        <time>2026-08-14T02:24:24.000Z</time>
      </trkpt>
      <trkpt lat="22.759808" lon="108.466267">
        <ele>57.753632</ele>
        <time>2026-08-14T02:24:25.000Z</time>
      </trkpt>
      <trkpt lat="22.759800" lon="108.466335">
        <ele>57.744735</ele>
        <time>2026-08-14T02:24:26.000Z</time>
      </trkpt>
      <trkpt lat="22.759789" lon="108.466411">
        <ele>57.734750</ele>
        <time>2026-08-14T02:24:27.000Z</time>
      </trkpt>
      <trkpt lat="22.759779" lon="108.466481">
        <ele>57.725556</ele>
        <time>2026-08-14T02:24:28.000Z</time>
      </trkpt>
      <trkpt lat="22.759771" lon="108.466548">
        <ele>57.716787</ele>
        <time>2026-08-14T02:24:29.000Z</time>
      </trkpt>
      <trkpt lat="22.759761" lon="108.466616">
        <ele>57.707849</ele>
        <time>2026-08-14T02:24:30.000Z</time>
      </trkpt>
      <trkpt lat="22.759753" lon="108.466685">
        <ele>57.698823</ele>
        <time>2026-08-14T02:24:31.000Z</time>
      </trkpt>
      <trkpt lat="22.759754" lon="108.466750">
        <ele>57.690385</ele>
        <time>2026-08-14T02:24:32.000Z</time>
      </trkpt>
      <trkpt lat="22.759751" lon="108.466823">
        <ele>57.680901</ele>
        <time>2026-08-14T02:24:33.000Z</time>
      </trkpt>
      <trkpt lat="22.759746" lon="108.466891">
        <ele>57.672047</ele>
        <time>2026-08-14T02:24:34.000Z</time>
      </trkpt>
      <trkpt lat="22.759737" lon="108.466964">
        <ele>57.662487</ele>
        <time>2026-08-14T02:24:35.000Z</time>
      </trkpt>
      <trkpt lat="22.759728" lon="108.467039">
        <ele>57.658484</ele>
        <time>2026-08-14T02:24:36.000Z</time>
      </trkpt>
      <trkpt lat="22.759723" lon="108.467115">
        <ele>57.660581</ele>
        <time>2026-08-14T02:24:37.000Z</time>
      </trkpt>
      <trkpt lat="22.759718" lon="108.467190">
        <ele>57.662651</ele>
        <time>2026-08-14T02:24:38.000Z</time>
      </trkpt>
      <trkpt lat="22.759715" lon="108.467263">
        <ele>57.664662</ele>
        <time>2026-08-14T02:24:39.000Z</time>
      </trkpt>
      <trkpt lat="22.759712" lon="108.467338">
        <ele>57.666729</ele>
        <time>2026-08-14T02:24:40.000Z</time>
      </trkpt>
      <trkpt lat="22.759707" lon="108.467411">
        <ele>57.668743</ele>
        <time>2026-08-14T02:24:41.000Z</time>
      </trkpt>
      <trkpt lat="22.759700" lon="108.467486">
        <ele>57.670818</ele>
        <time>2026-08-14T02:24:42.000Z</time>
      </trkpt>
      <trkpt lat="22.759698" lon="108.467559">
        <ele>57.672828</ele>
        <time>2026-08-14T02:24:43.000Z</time>
      </trkpt>
      <trkpt lat="22.759697" lon="108.467634">
        <ele>57.674893</ele>
        <time>2026-08-14T02:24:44.000Z</time>
      </trkpt>
      <trkpt lat="22.759696" lon="108.467708">
        <ele>57.676930</ele>
        <time>2026-08-14T02:24:45.000Z</time>
      </trkpt>
      <trkpt lat="22.759691" lon="108.467781">
        <ele>57.678945</ele>
        <time>2026-08-14T02:24:46.000Z</time>
      </trkpt>
      <trkpt lat="22.759685" lon="108.467849">
        <ele>57.680825</ele>
        <time>2026-08-14T02:24:47.000Z</time>
      </trkpt>
      <trkpt lat="22.759678" lon="108.467916">
        <ele>57.682681</ele>
        <time>2026-08-14T02:24:48.000Z</time>
      </trkpt>
      <trkpt lat="22.759671" lon="108.467987">
        <ele>57.684646</ele>
        <time>2026-08-14T02:24:49.000Z</time>
      </trkpt>
      <trkpt lat="22.759669" lon="108.468059">
        <ele>57.686629</ele>
        <time>2026-08-14T02:24:50.000Z</time>
      </trkpt>
      <trkpt lat="22.759663" lon="108.468133">
        <ele>57.688674</ele>
        <time>2026-08-14T02:24:51.000Z</time>
      </trkpt>
      <trkpt lat="22.759658" lon="108.468210">
        <ele>57.690798</ele>
        <time>2026-08-14T02:24:52.000Z</time>
      </trkpt>
      <trkpt lat="22.759653" lon="108.468284">
        <ele>57.692840</ele>
        <time>2026-08-14T02:24:53.000Z</time>
      </trkpt>
      <trkpt lat="22.759647" lon="108.468355">
        <ele>57.694803</ele>
        <time>2026-08-14T02:24:54.000Z</time>
      </trkpt>
      <trkpt lat="22.759638" lon="108.468428">
        <ele>57.696830</ele>
        <time>2026-08-14T02:24:55.000Z</time>
      </trkpt>
      <trkpt lat="22.759631" lon="108.468497">
        <ele>57.698741</ele>
        <time>2026-08-14T02:24:56.000Z</time>
      </trkpt>
      <trkpt lat="22.759625" lon="108.468566">
        <ele>57.700648</ele>
        <time>2026-08-14T02:24:57.000Z</time>
      </trkpt>
      <trkpt lat="22.759617" lon="108.468630">
        <ele>57.702426</ele>
        <time>2026-08-14T02:24:58.000Z</time>
      </trkpt>
      <trkpt lat="22.759609" lon="108.468689">
        <ele>57.704067</ele>
        <time>2026-08-14T02:24:59.000Z</time>
      </trkpt>
      <trkpt lat="22.759604" lon="108.468744">
        <ele>57.705589</ele>
        <time>2026-08-14T02:25:00.000Z</time>
      </trkpt>
      <trkpt lat="22.759599" lon="108.468801">
        <ele>57.707164</ele>
        <time>2026-08-14T02:25:01.000Z</time>
      </trkpt>
      <trkpt lat="22.759598" lon="108.468856">
        <ele>57.708679</ele>
        <time>2026-08-14T02:25:02.000Z</time>
      </trkpt>
      <trkpt lat="22.759595" lon="108.468908">
        <ele>57.710113</ele>
        <time>2026-08-14T02:25:03.000Z</time>
      </trkpt>
      <trkpt lat="22.759592" lon="108.468960">
        <ele>57.738365</ele>
        <time>2026-08-14T02:25:04.000Z</time>
      </trkpt>
      <trkpt lat="22.759589" lon="108.469009">
        <ele>57.831952</ele>
        <time>2026-08-14T02:25:05.000Z</time>
      </trkpt>
      <trkpt lat="22.759586" lon="108.469060">
        <ele>57.929343</ele>
        <time>2026-08-14T02:25:06.000Z</time>
      </trkpt>
      <trkpt lat="22.759582" lon="108.469110">
        <ele>58.024989</ele>
        <time>2026-08-14T02:25:07.000Z</time>
      </trkpt>
      <trkpt lat="22.759578" lon="108.469155">
        <ele>58.111146</ele>
        <time>2026-08-14T02:25:08.000Z</time>
      </trkpt>
      <trkpt lat="22.759572" lon="108.469195">
        <ele>58.188378</ele>
        <time>2026-08-14T02:25:09.000Z</time>
      </trkpt>
      <trkpt lat="22.759569" lon="108.469230">
        <ele>58.255367</ele>
        <time>2026-08-14T02:25:10.000Z</time>
      </trkpt>
      <trkpt lat="22.759563" lon="108.469255">
        <ele>58.304598</ele>
        <time>2026-08-14T02:25:11.000Z</time>
      </trkpt>
      <trkpt lat="22.759566" lon="108.469276">
        <ele>58.345096</ele>
        <time>2026-08-14T02:25:12.000Z</time>
      </trkpt>
      <trkpt lat="22.759563" lon="108.469288">
        <ele>58.368791</ele>
        <time>2026-08-14T02:25:13.000Z</time>
      </trkpt>
      <trkpt lat="22.759562" lon="108.469298">
        <ele>58.387960</ele>
        <time>2026-08-14T02:25:14.000Z</time>
      </trkpt>
      <trkpt lat="22.759561" lon="108.469302">
        <ele>58.395858</ele>
        <time>2026-08-14T02:25:15.000Z</time>
      </trkpt>
      <trkpt lat="22.759590" lon="108.469522">
        <ele>58.819386</ele>
        <time>2026-08-14T02:26:15.000Z</time>
      </trkpt>
      <trkpt lat="22.759592" lon="108.469556">
        <ele>58.884313</ele>
        <time>2026-08-14T02:26:16.000Z</time>
      </trkpt>
      <trkpt lat="22.759588" lon="108.469591">
        <ele>58.951525</ele>
        <time>2026-08-14T02:26:17.000Z</time>
      </trkpt>
      <trkpt lat="22.759587" lon="108.469625">
        <ele>59.016354</ele>
        <time>2026-08-14T02:26:18.000Z</time>
      </trkpt>
      <trkpt lat="22.759584" lon="108.469661">
        <ele>59.085240</ele>
        <time>2026-08-14T02:26:19.000Z</time>
      </trkpt>
      <trkpt lat="22.759581" lon="108.469698">
        <ele>59.156025</ele>
        <time>2026-08-14T02:26:20.000Z</time>
      </trkpt>
      <trkpt lat="22.759576" lon="108.469735">
        <ele>59.227291</ele>
        <time>2026-08-14T02:26:21.000Z</time>
      </trkpt>
      <trkpt lat="22.759572" lon="108.469772">
        <ele>59.298287</ele>
        <time>2026-08-14T02:26:22.000Z</time>
      </trkpt>
      <trkpt lat="22.759564" lon="108.469813">
        <ele>59.378153</ele>
        <time>2026-08-14T02:26:23.000Z</time>
      </trkpt>
      <trkpt lat="22.759557" lon="108.469852">
        <ele>59.453873</ele>
        <time>2026-08-14T02:26:24.000Z</time>
      </trkpt>
      <trkpt lat="22.759554" lon="108.469893">
        <ele>59.532254</ele>
        <time>2026-08-14T02:26:25.000Z</time>
      </trkpt>
      <trkpt lat="22.759549" lon="108.469933">
        <ele>59.609181</ele>
        <time>2026-08-14T02:26:26.000Z</time>
      </trkpt>
      <trkpt lat="22.759541" lon="108.469972">
        <ele>59.685323</ele>
        <time>2026-08-14T02:26:27.000Z</time>
      </trkpt>
      <trkpt lat="22.759532" lon="108.470009">
        <ele>59.758247</ele>
        <time>2026-08-14T02:26:28.000Z</time>
      </trkpt>
      <trkpt lat="22.759524" lon="108.470049">
        <ele>59.836250</ele>
        <time>2026-08-14T02:26:29.000Z</time>
      </trkpt>
      <trkpt lat="22.759516" lon="108.470090">
        <ele>59.916116</ele>
        <time>2026-08-14T02:26:30.000Z</time>
      </trkpt>
      <trkpt lat="22.759507" lon="108.470128">
        <ele>59.990885</ele>
        <time>2026-08-14T02:26:31.000Z</time>
      </trkpt>
      <trkpt lat="22.759501" lon="108.470166">
        <ele>60.064358</ele>
        <time>2026-08-14T02:26:32.000Z</time>
      </trkpt>
      <trkpt lat="22.759491" lon="108.470205">
        <ele>60.141502</ele>
        <time>2026-08-14T02:26:33.000Z</time>
      </trkpt>
      <trkpt lat="22.759483" lon="108.470246">
        <ele>60.221368</ele>
        <time>2026-08-14T02:26:34.000Z</time>
      </trkpt>
      <trkpt lat="22.759477" lon="108.470287">
        <ele>60.300482</ele>
        <time>2026-08-14T02:26:35.000Z</time>
      </trkpt>
      <trkpt lat="22.759470" lon="108.470328">
        <ele>60.379946</ele>
        <time>2026-08-14T02:26:36.000Z</time>
      </trkpt>
      <trkpt lat="22.759461" lon="108.470365">
        <ele>60.452871</ele>
        <time>2026-08-14T02:26:37.000Z</time>
      </trkpt>
      <trkpt lat="22.759453" lon="108.470405">
        <ele>60.530873</ele>
        <time>2026-08-14T02:26:38.000Z</time>
      </trkpt>
      <trkpt lat="22.759447" lon="108.470447">
        <ele>60.611870</ele>
        <time>2026-08-14T02:26:39.000Z</time>
      </trkpt>
      <trkpt lat="22.759443" lon="108.470487">
        <ele>60.688547</ele>
        <time>2026-08-14T02:26:40.000Z</time>
      </trkpt>
      <trkpt lat="22.759437" lon="108.470527">
        <ele>60.765779</ele>
        <time>2026-08-14T02:26:41.000Z</time>
      </trkpt>
      <trkpt lat="22.759430" lon="108.470567">
        <ele>60.843370</ele>
        <time>2026-08-14T02:26:42.000Z</time>
      </trkpt>
      <trkpt lat="22.759422" lon="108.470611">
        <ele>60.928838</ele>
        <time>2026-08-14T02:26:43.000Z</time>
      </trkpt>
      <trkpt lat="22.759415" lon="108.470654">
        <ele>61.012053</ele>
        <time>2026-08-14T02:26:44.000Z</time>
      </trkpt>
      <trkpt lat="22.759407" lon="108.470696">
        <ele>61.093784</ele>
        <time>2026-08-14T02:26:45.000Z</time>
      </trkpt>
      <trkpt lat="22.759399" lon="108.470740">
        <ele>61.179252</ele>
        <time>2026-08-14T02:26:46.000Z</time>
      </trkpt>
      <trkpt lat="22.759392" lon="108.470784">
        <ele>61.264344</ele>
        <time>2026-08-14T02:26:47.000Z</time>
      </trkpt>
      <trkpt lat="22.759385" lon="108.470826">
        <ele>61.345683</ele>
        <time>2026-08-14T02:26:48.000Z</time>
      </trkpt>
      <trkpt lat="22.759377" lon="108.470869">
        <ele>61.429041</ele>
        <time>2026-08-14T02:26:49.000Z</time>
      </trkpt>
      <trkpt lat="22.759370" lon="108.470911">
        <ele>61.489092</ele>
        <time>2026-08-14T02:26:50.000Z</time>
      </trkpt>
      <trkpt lat="22.759358" lon="108.470955">
        <ele>61.553650</ele>
        <time>2026-08-14T02:26:51.000Z</time>
      </trkpt>
      <trkpt lat="22.759347" lon="108.470999">
        <ele>61.617792</ele>
        <time>2026-08-14T02:26:52.000Z</time>
      </trkpt>
      <trkpt lat="22.759339" lon="108.471046">
        <ele>61.685038</ele>
        <time>2026-08-14T02:26:53.000Z</time>
      </trkpt>
      <trkpt lat="22.759333" lon="108.471090">
        <ele>61.747619</ele>
        <time>2026-08-14T02:26:54.000Z</time>
      </trkpt>
      <trkpt lat="22.759326" lon="108.471133">
        <ele>61.809055</ele>
        <time>2026-08-14T02:26:55.000Z</time>
      </trkpt>
      <trkpt lat="22.759320" lon="108.471175">
        <ele>61.868853</ele>
        <time>2026-08-14T02:26:56.000Z</time>
      </trkpt>
      <trkpt lat="22.759312" lon="108.471220">
        <ele>61.933334</ele>
        <time>2026-08-14T02:26:57.000Z</time>
      </trkpt>
      <trkpt lat="22.759306" lon="108.471266">
        <ele>61.998700</ele>
        <time>2026-08-14T02:26:58.000Z</time>
      </trkpt>
      <trkpt lat="22.759299" lon="108.471311">
        <ele>62.062909</ele>
        <time>2026-08-14T02:26:59.000Z</time>
      </trkpt>
      <trkpt lat="22.759291" lon="108.471356">
        <ele>62.127389</ele>
        <time>2026-08-14T02:27:00.000Z</time>
      </trkpt>
      <trkpt lat="22.759281" lon="108.471402">
        <ele>62.193885</ele>
        <time>2026-08-14T02:27:01.000Z</time>
      </trkpt>
      <trkpt lat="22.759272" lon="108.471446">
        <ele>62.257297</ele>
        <time>2026-08-14T02:27:02.000Z</time>
      </trkpt>
      <trkpt lat="22.759264" lon="108.471491">
        <ele>62.321778</ele>
        <time>2026-08-14T02:27:03.000Z</time>
      </trkpt>
      <trkpt lat="22.759256" lon="108.471538">
        <ele>62.389024</ele>
        <time>2026-08-14T02:27:04.000Z</time>
      </trkpt>
      <trkpt lat="22.759247" lon="108.471584">
        <ele>62.455186</ele>
        <time>2026-08-14T02:27:05.000Z</time>
      </trkpt>
      <trkpt lat="22.759239" lon="108.471629">
        <ele>62.519666</ele>
        <time>2026-08-14T02:27:06.000Z</time>
      </trkpt>
      <trkpt lat="22.759234" lon="108.471675">
        <ele>62.584836</ele>
        <time>2026-08-14T02:27:07.000Z</time>
      </trkpt>
      <trkpt lat="22.759228" lon="108.471720">
        <ele>62.648809</ele>
        <time>2026-08-14T02:27:08.000Z</time>
      </trkpt>
      <trkpt lat="22.759220" lon="108.471766">
        <ele>62.714672</ele>
        <time>2026-08-14T02:27:09.000Z</time>
      </trkpt>
      <trkpt lat="22.759211" lon="108.471812">
        <ele>62.780834</ele>
        <time>2026-08-14T02:27:10.000Z</time>
      </trkpt>
      <trkpt lat="22.759202" lon="108.471859">
        <ele>62.848373</ele>
        <time>2026-08-14T02:27:11.000Z</time>
      </trkpt>
      <trkpt lat="22.759194" lon="108.471906">
        <ele>62.915619</ele>
        <time>2026-08-14T02:27:12.000Z</time>
      </trkpt>
      <trkpt lat="22.759185" lon="108.471952">
        <ele>62.981781</ele>
        <time>2026-08-14T02:27:13.000Z</time>
      </trkpt>
      <trkpt lat="22.759174" lon="108.472000">
        <ele>63.051371</ele>
        <time>2026-08-14T02:27:14.000Z</time>
      </trkpt>
      <trkpt lat="22.759162" lon="108.472046">
        <ele>63.118633</ele>
        <time>2026-08-14T02:27:15.000Z</time>
      </trkpt>
      <trkpt lat="22.759153" lon="108.472092">
        <ele>63.184795</ele>
        <time>2026-08-14T02:27:16.000Z</time>
      </trkpt>
      <trkpt lat="22.759147" lon="108.472141">
        <ele>63.254343</ele>
        <time>2026-08-14T02:27:17.000Z</time>
      </trkpt>
      <trkpt lat="22.759139" lon="108.472190">
        <ele>63.324358</ele>
        <time>2026-08-14T02:27:18.000Z</time>
      </trkpt>
      <trkpt lat="22.759128" lon="108.472237">
        <ele>63.392583</ele>
        <time>2026-08-14T02:27:19.000Z</time>
      </trkpt>
      <trkpt lat="22.759119" lon="108.472285">
        <ele>63.461501</ele>
        <time>2026-08-14T02:27:20.000Z</time>
      </trkpt>
      <trkpt lat="22.759110" lon="108.472335">
        <ele>63.533178</ele>
        <time>2026-08-14T02:27:21.000Z</time>
      </trkpt>
      <trkpt lat="22.759101" lon="108.472384">
        <ele>63.603475</ele>
        <time>2026-08-14T02:27:22.000Z</time>
      </trkpt>
      <trkpt lat="22.759092" lon="108.472433">
        <ele>63.673772</ele>
        <time>2026-08-14T02:27:23.000Z</time>
      </trkpt>
      <trkpt lat="22.759082" lon="108.472482">
        <ele>63.744383</ele>
        <time>2026-08-14T02:27:24.000Z</time>
      </trkpt>
      <trkpt lat="22.759074" lon="108.472534">
        <ele>63.818558</ele>
        <time>2026-08-14T02:27:25.000Z</time>
      </trkpt>
      <trkpt lat="22.759066" lon="108.472586">
        <ele>63.892733</ele>
        <time>2026-08-14T02:27:26.000Z</time>
      </trkpt>
      <trkpt lat="22.759057" lon="108.472639">
        <ele>63.968557</ele>
        <time>2026-08-14T02:27:27.000Z</time>
      </trkpt>
      <trkpt lat="22.759049" lon="108.472694">
        <ele>64.046899</ele>
        <time>2026-08-14T02:27:28.000Z</time>
      </trkpt>
      <trkpt lat="22.759041" lon="108.472749">
        <ele>64.125240</ele>
        <time>2026-08-14T02:27:29.000Z</time>
      </trkpt>
      <trkpt lat="22.759032" lon="108.472805">
        <ele>64.143022</ele>
        <time>2026-08-14T02:27:30.000Z</time>
      </trkpt>
      <trkpt lat="22.759023" lon="108.472861">
        <ele>64.069957</ele>
        <time>2026-08-14T02:27:31.000Z</time>
      </trkpt>
      <trkpt lat="22.759013" lon="108.472917">
        <ele>63.996639</ele>
        <time>2026-08-14T02:27:32.000Z</time>
      </trkpt>
      <trkpt lat="22.759000" lon="108.472972">
        <ele>63.923658</ele>
        <time>2026-08-14T02:27:33.000Z</time>
      </trkpt>
      <trkpt lat="22.758988" lon="108.473027">
        <ele>63.851010</ele>
        <time>2026-08-14T02:27:34.000Z</time>
      </trkpt>
      <trkpt lat="22.758976" lon="108.473084">
        <ele>63.775859</ele>
        <time>2026-08-14T02:27:35.000Z</time>
      </trkpt>
      <trkpt lat="22.758966" lon="108.473143">
        <ele>63.698752</ele>
        <time>2026-08-14T02:27:36.000Z</time>
      </trkpt>
      <trkpt lat="22.758953" lon="108.473203">
        <ele>63.619529</ele>
        <time>2026-08-14T02:27:37.000Z</time>
      </trkpt>
      <trkpt lat="22.758942" lon="108.473262">
        <ele>63.542158</ele>
        <time>2026-08-14T02:27:38.000Z</time>
      </trkpt>
      <trkpt lat="22.758933" lon="108.473321">
        <ele>63.465290</ele>
        <time>2026-08-14T02:27:39.000Z</time>
      </trkpt>
      <trkpt lat="22.758924" lon="108.473376">
        <ele>63.393490</ele>
        <time>2026-08-14T02:27:40.000Z</time>
      </trkpt>
      <trkpt lat="22.758912" lon="108.473435">
        <ele>63.315830</ele>
        <time>2026-08-14T02:27:41.000Z</time>
      </trkpt>
      <trkpt lat="22.758904" lon="108.473495">
        <ele>63.237906</ele>
        <time>2026-08-14T02:27:42.000Z</time>
      </trkpt>
      <trkpt lat="22.758896" lon="108.473558">
        <ele>63.156163</ele>
        <time>2026-08-14T02:27:43.000Z</time>
      </trkpt>
      <trkpt lat="22.758886" lon="108.473619">
        <ele>63.076526</ele>
        <time>2026-08-14T02:27:44.000Z</time>
      </trkpt>
      <trkpt lat="22.758876" lon="108.473680">
        <ele>62.996889</ele>
        <time>2026-08-14T02:27:45.000Z</time>
      </trkpt>
      <trkpt lat="22.758865" lon="108.473742">
        <ele>62.915734</ele>
        <time>2026-08-14T02:27:46.000Z</time>
      </trkpt>
      <trkpt lat="22.758855" lon="108.473805">
        <ele>62.833565</ele>
        <time>2026-08-14T02:27:47.000Z</time>
      </trkpt>
      <trkpt lat="22.758843" lon="108.473869">
        <ele>62.749618</ele>
        <time>2026-08-14T02:27:48.000Z</time>
      </trkpt>
      <trkpt lat="22.758829" lon="108.473932">
        <ele>62.666321</ele>
        <time>2026-08-14T02:27:49.000Z</time>
      </trkpt>
      <trkpt lat="22.758816" lon="108.473995">
        <ele>62.583340</ele>
        <time>2026-08-14T02:27:50.000Z</time>
      </trkpt>
      <trkpt lat="22.758806" lon="108.474063">
        <ele>62.494830</ele>
        <time>2026-08-14T02:27:51.000Z</time>
      </trkpt>
      <trkpt lat="22.758794" lon="108.474128">
        <ele>62.409623</ele>
        <time>2026-08-14T02:27:52.000Z</time>
      </trkpt>
      <trkpt lat="22.758782" lon="108.474195">
        <ele>62.321893</ele>
        <time>2026-08-14T02:27:53.000Z</time>
      </trkpt>
      <trkpt lat="22.758770" lon="108.474265">
        <ele>62.230376</ele>
        <time>2026-08-14T02:27:54.000Z</time>
      </trkpt>
      <trkpt lat="22.758757" lon="108.474338">
        <ele>62.134810</ele>
        <time>2026-08-14T02:27:55.000Z</time>
      </trkpt>
      <trkpt lat="22.758745" lon="108.474412">
        <ele>62.038232</ele>
        <time>2026-08-14T02:27:56.000Z</time>
      </trkpt>
      <trkpt lat="22.758733" lon="108.474487">
        <ele>61.940389</ele>
        <time>2026-08-14T02:27:57.000Z</time>
      </trkpt>
      <trkpt lat="22.758721" lon="108.474565">
        <ele>61.838744</ele>
        <time>2026-08-14T02:27:58.000Z</time>
      </trkpt>
      <trkpt lat="22.758706" lon="108.474643">
        <ele>61.736328</ele>
        <time>2026-08-14T02:27:59.000Z</time>
      </trkpt>
      <trkpt lat="22.758690" lon="108.474721">
        <ele>61.604927</ele>
        <time>2026-08-14T02:28:00.000Z</time>
      </trkpt>
      <trkpt lat="22.758676" lon="108.474799">
        <ele>61.411117</ele>
        <time>2026-08-14T02:28:01.000Z</time>
      </trkpt>
      <trkpt lat="22.758659" lon="108.474877">
        <ele>61.215635</ele>
        <time>2026-08-14T02:28:02.000Z</time>
      </trkpt>
      <trkpt lat="22.758644" lon="108.474955">
        <ele>61.021302</ele>
        <time>2026-08-14T02:28:03.000Z</time>
      </trkpt>
      <trkpt lat="22.758631" lon="108.475035">
        <ele>60.823177</ele>
        <time>2026-08-14T02:28:04.000Z</time>
      </trkpt>
      <trkpt lat="22.758623" lon="108.475114">
        <ele>60.629339</ele>
        <time>2026-08-14T02:28:05.000Z</time>
      </trkpt>
      <trkpt lat="22.758615" lon="108.475194">
        <ele>60.433077</ele>
        <time>2026-08-14T02:28:06.000Z</time>
      </trkpt>
      <trkpt lat="22.758602" lon="108.475276">
        <ele>60.230146</ele>
        <time>2026-08-14T02:28:07.000Z</time>
      </trkpt>
      <trkpt lat="22.758584" lon="108.475357">
        <ele>60.026933</ele>
        <time>2026-08-14T02:28:08.000Z</time>
      </trkpt>
      <trkpt lat="22.758565" lon="108.475441">
        <ele>59.815986</ele>
        <time>2026-08-14T02:28:09.000Z</time>
      </trkpt>
      <trkpt lat="22.758544" lon="108.475523">
        <ele>59.608420</ele>
        <time>2026-08-14T02:28:10.000Z</time>
      </trkpt>
      <trkpt lat="22.758528" lon="108.475600">
        <ele>59.415910</ele>
        <time>2026-08-14T02:28:11.000Z</time>
      </trkpt>
      <trkpt lat="22.758515" lon="108.475677">
        <ele>59.224986</ele>
        <time>2026-08-14T02:28:12.000Z</time>
      </trkpt>
      <trkpt lat="22.758504" lon="108.475748">
        <ele>59.049392</ele>
        <time>2026-08-14T02:28:13.000Z</time>
      </trkpt>
      <trkpt lat="22.758492" lon="108.475813">
        <ele>58.887712</ele>
        <time>2026-08-14T02:28:14.000Z</time>
      </trkpt>
      <trkpt lat="22.758480" lon="108.475873">
        <ele>58.737971</ele>
        <time>2026-08-14T02:28:15.000Z</time>
      </trkpt>
      <trkpt lat="22.758471" lon="108.475925">
        <ele>58.608929</ele>
        <time>2026-08-14T02:28:16.000Z</time>
      </trkpt>
      <trkpt lat="22.758460" lon="108.475970">
        <ele>58.495384</ele>
        <time>2026-08-14T02:28:17.000Z</time>
      </trkpt>
      <trkpt lat="22.758447" lon="108.476017">
        <ele>58.375706</ele>
        <time>2026-08-14T02:28:18.000Z</time>
      </trkpt>
      <trkpt lat="22.758433" lon="108.476058">
        <ele>58.269072</ele>
        <time>2026-08-14T02:28:19.000Z</time>
      </trkpt>
      <trkpt lat="22.758416" lon="108.476104">
        <ele>58.148205</ele>
        <time>2026-08-14T02:28:20.000Z</time>
      </trkpt>
      <trkpt lat="22.758402" lon="108.476155">
        <ele>58.018422</ele>
        <time>2026-08-14T02:28:21.000Z</time>
      </trkpt>
      <trkpt lat="22.758394" lon="108.476199">
        <ele>57.909040</ele>
        <time>2026-08-14T02:28:22.000Z</time>
      </trkpt>
      <trkpt lat="22.758388" lon="108.476240">
        <ele>57.807791</ele>
        <time>2026-08-14T02:28:23.000Z</time>
      </trkpt>
      <trkpt lat="22.758386" lon="108.476273">
        <ele>57.727131</ele>
        <time>2026-08-14T02:28:24.000Z</time>
      </trkpt>
      <trkpt lat="22.758384" lon="108.476293">
        <ele>57.678065</ele>
        <time>2026-08-14T02:28:25.000Z</time>
      </trkpt>
      <trkpt lat="22.758384" lon="108.476310">
        <ele>57.636602</ele>
        <time>2026-08-14T02:28:26.000Z</time>
      </trkpt>
      <trkpt lat="22.758383" lon="108.476319">
        <ele>57.614493</ele>
        <time>2026-08-14T02:28:27.000Z</time>
      </trkpt>
      <trkpt lat="22.758372" lon="108.476447">
        <ele>57.300950</ele>
        <time>2026-08-14T02:29:41.000Z</time>
      </trkpt>
      <trkpt lat="22.758372" lon="108.476483">
        <ele>57.213146</ele>
        <time>2026-08-14T02:29:42.000Z</time>
      </trkpt>
      <trkpt lat="22.758372" lon="108.476522">
        <ele>57.118026</ele>
        <time>2026-08-14T02:29:43.000Z</time>
      </trkpt>
      <trkpt lat="22.758373" lon="108.476561">
        <ele>57.022869</ele>
        <time>2026-08-14T02:29:44.000Z</time>
      </trkpt>
      <trkpt lat="22.758373" lon="108.476600">
        <ele>56.927749</ele>
        <time>2026-08-14T02:29:45.000Z</time>
      </trkpt>
      <trkpt lat="22.758375" lon="108.476643">
        <ele>56.894818</ele>
        <time>2026-08-14T02:29:46.000Z</time>
      </trkpt>
      <trkpt lat="22.758377" lon="108.476684">
        <ele>56.878994</ele>
        <time>2026-08-14T02:29:47.000Z</time>
      </trkpt>
      <trkpt lat="22.758378" lon="108.476730">
        <ele>56.861259</ele>
        <time>2026-08-14T02:29:48.000Z</time>
      </trkpt>
      <trkpt lat="22.758385" lon="108.476775">
        <ele>56.843670</ele>
        <time>2026-08-14T02:29:49.000Z</time>
      </trkpt>
      <trkpt lat="22.758393" lon="108.476820">
        <ele>56.826007</ele>
        <time>2026-08-14T02:29:50.000Z</time>
      </trkpt>
      <trkpt lat="22.758404" lon="108.476863">
        <ele>56.808808</ele>
        <time>2026-08-14T02:29:51.000Z</time>
      </trkpt>
      <trkpt lat="22.758413" lon="108.476915">
        <ele>56.788416</ele>
        <time>2026-08-14T02:29:52.000Z</time>
      </trkpt>
      <trkpt lat="22.758414" lon="108.476966">
        <ele>56.768755</ele>
        <time>2026-08-14T02:29:53.000Z</time>
      </trkpt>
      <trkpt lat="22.758414" lon="108.477031">
        <ele>56.743702</ele>
        <time>2026-08-14T02:29:54.000Z</time>
      </trkpt>
      <trkpt lat="22.758416" lon="108.477094">
        <ele>56.719406</ele>
        <time>2026-08-14T02:29:55.000Z</time>
      </trkpt>
      <trkpt lat="22.758422" lon="108.477159">
        <ele>56.694228</ele>
        <time>2026-08-14T02:29:56.000Z</time>
      </trkpt>
      <trkpt lat="22.758425" lon="108.477224">
        <ele>56.669145</ele>
        <time>2026-08-14T02:29:57.000Z</time>
      </trkpt>
      <trkpt lat="22.758428" lon="108.477294">
        <ele>56.642136</ele>
        <time>2026-08-14T02:29:58.000Z</time>
      </trkpt>
      <trkpt lat="22.758428" lon="108.477360">
        <ele>56.616698</ele>
        <time>2026-08-14T02:29:59.000Z</time>
      </trkpt>
      <trkpt lat="22.758428" lon="108.477426">
        <ele>56.591260</ele>
        <time>2026-08-14T02:30:00.000Z</time>
      </trkpt>
      <trkpt lat="22.758428" lon="108.477490">
        <ele>56.566593</ele>
        <time>2026-08-14T02:30:01.000Z</time>
      </trkpt>
      <trkpt lat="22.758431" lon="108.477552">
        <ele>56.542664</ele>
        <time>2026-08-14T02:30:02.000Z</time>
      </trkpt>
      <trkpt lat="22.758433" lon="108.477617">
        <ele>56.517597</ele>
        <time>2026-08-14T02:30:03.000Z</time>
      </trkpt>
      <trkpt lat="22.758434" lon="108.477681">
        <ele>56.492927</ele>
        <time>2026-08-14T02:30:04.000Z</time>
      </trkpt>
      <trkpt lat="22.758437" lon="108.477745">
        <ele>56.468228</ele>
        <time>2026-08-14T02:30:05.000Z</time>
      </trkpt>
      <trkpt lat="22.758442" lon="108.477808">
        <ele>56.443857</ele>
        <time>2026-08-14T02:30:06.000Z</time>
      </trkpt>
      <trkpt lat="22.758448" lon="108.477871">
        <ele>56.419446</ele>
        <time>2026-08-14T02:30:07.000Z</time>
      </trkpt>
      <trkpt lat="22.758452" lon="108.477932">
        <ele>56.395876</ele>
        <time>2026-08-14T02:30:08.000Z</time>
      </trkpt>
      <trkpt lat="22.758462" lon="108.477991">
        <ele>56.372755</ele>
        <time>2026-08-14T02:30:09.000Z</time>
      </trkpt>
      <trkpt lat="22.758472" lon="108.478055">
        <ele>56.347736</ele>
        <time>2026-08-14T02:30:10.000Z</time>
      </trkpt>
      <trkpt lat="22.758482" lon="108.478118">
        <ele>56.323097</ele>
        <time>2026-08-14T02:30:11.000Z</time>
      </trkpt>
      <trkpt lat="22.758491" lon="108.478184">
        <ele>56.297383</ele>
        <time>2026-08-14T02:30:12.000Z</time>
      </trkpt>
      <trkpt lat="22.758495" lon="108.478251">
        <ele>56.271505</ele>
        <time>2026-08-14T02:30:13.000Z</time>
      </trkpt>
      <trkpt lat="22.758499" lon="108.478316">
        <ele>56.246397</ele>
        <time>2026-08-14T02:30:14.000Z</time>
      </trkpt>
      <trkpt lat="22.758504" lon="108.478380">
        <ele>56.221642</ele>
        <time>2026-08-14T02:30:15.000Z</time>
      </trkpt>
      <trkpt lat="22.758511" lon="108.478444">
        <ele>56.196802</ele>
        <time>2026-08-14T02:30:16.000Z</time>
      </trkpt>
      <trkpt lat="22.758519" lon="108.478506">
        <ele>56.172673</ele>
        <time>2026-08-14T02:30:17.000Z</time>
      </trkpt>
      <trkpt lat="22.758526" lon="108.478568">
        <ele>56.159899</ele>
        <time>2026-08-14T02:30:18.000Z</time>
      </trkpt>
      <trkpt lat="22.758529" lon="108.478628">
        <ele>56.169536</ele>
        <time>2026-08-14T02:30:19.000Z</time>
      </trkpt>
      <trkpt lat="22.758536" lon="108.478692">
        <ele>56.179872</ele>
        <time>2026-08-14T02:30:20.000Z</time>
      </trkpt>
      <trkpt lat="22.758541" lon="108.478753">
        <ele>56.189694</ele>
        <time>2026-08-14T02:30:21.000Z</time>
      </trkpt>
      <trkpt lat="22.758546" lon="108.478815">
        <ele>56.199675</ele>
        <time>2026-08-14T02:30:22.000Z</time>
      </trkpt>
      <trkpt lat="22.758551" lon="108.478875">
        <ele>56.209337</ele>
        <time>2026-08-14T02:30:23.000Z</time>
      </trkpt>
      <trkpt lat="22.758557" lon="108.478931">
        <ele>56.218379</ele>
        <time>2026-08-14T02:30:24.000Z</time>
      </trkpt>
      <trkpt lat="22.758565" lon="108.478988">
        <ele>56.227626</ele>
        <time>2026-08-14T02:30:25.000Z</time>
      </trkpt>
      <trkpt lat="22.758572" lon="108.479044">
        <ele>56.236689</ele>
        <time>2026-08-14T02:30:26.000Z</time>
      </trkpt>
      <trkpt lat="22.758579" lon="108.479097">
        <ele>56.245276</ele>
        <time>2026-08-14T02:30:27.000Z</time>
      </trkpt>
      <trkpt lat="22.758588" lon="108.479149">
        <ele>56.253761</ele>
        <time>2026-08-14T02:30:28.000Z</time>
      </trkpt>
      <trkpt lat="22.758598" lon="108.479199">
        <ele>56.261966</ele>
        <time>2026-08-14T02:30:29.000Z</time>
      </trkpt>
      <trkpt lat="22.758610" lon="108.479248">
        <ele>56.270097</ele>
        <time>2026-08-14T02:30:30.000Z</time>
      </trkpt>
      <trkpt lat="22.758619" lon="108.479292">
        <ele>56.277326</ele>
        <time>2026-08-14T02:30:31.000Z</time>
      </trkpt>
      <trkpt lat="22.758625" lon="108.479334">
        <ele>56.284142</ele>
        <time>2026-08-14T02:30:32.000Z</time>
      </trkpt>
      <trkpt lat="22.758629" lon="108.479371">
        <ele>56.290117</ele>
        <time>2026-08-14T02:30:33.000Z</time>
      </trkpt>
      <trkpt lat="22.758631" lon="108.479405">
        <ele>56.295581</ele>
        <time>2026-08-14T02:30:34.000Z</time>
      </trkpt>
      <trkpt lat="22.758633" lon="108.479437">
        <ele>56.300724</ele>
        <time>2026-08-14T02:30:35.000Z</time>
      </trkpt>
      <trkpt lat="22.758631" lon="108.479473">
        <ele>56.306509</ele>
        <time>2026-08-14T02:30:36.000Z</time>
      </trkpt>
      <trkpt lat="22.758631" lon="108.479509">
        <ele>56.312282</ele>
        <time>2026-08-14T02:30:37.000Z</time>
      </trkpt>
      <trkpt lat="22.758631" lon="108.479547">
        <ele>56.318377</ele>
        <time>2026-08-14T02:30:38.000Z</time>
      </trkpt>
      <trkpt lat="22.758632" lon="108.479590">
        <ele>56.325275</ele>
        <time>2026-08-14T02:30:39.000Z</time>
      </trkpt>
      <trkpt lat="22.758633" lon="108.479637">
        <ele>56.332815</ele>
        <time>2026-08-14T02:30:40.000Z</time>
      </trkpt>
      <trkpt lat="22.758636" lon="108.479683">
        <ele>56.340211</ele>
        <time>2026-08-14T02:30:41.000Z</time>
      </trkpt>
      <trkpt lat="22.758641" lon="108.479733">
        <ele>56.348277</ele>
        <time>2026-08-14T02:30:42.000Z</time>
      </trkpt>
      <trkpt lat="22.758647" lon="108.479781">
        <ele>56.356045</ele>
        <time>2026-08-14T02:30:43.000Z</time>
      </trkpt>
      <trkpt lat="22.758653" lon="108.479827">
        <ele>56.363496</ele>
        <time>2026-08-14T02:30:44.000Z</time>
      </trkpt>
      <trkpt lat="22.758664" lon="108.479878">
        <ele>56.371896</ele>
        <time>2026-08-14T02:30:45.000Z</time>
      </trkpt>
      <trkpt lat="22.758673" lon="108.479927">
        <ele>56.379909</ele>
        <time>2026-08-14T02:30:46.000Z</time>
      </trkpt>
      <trkpt lat="22.758682" lon="108.479972">
        <ele>56.387294</ele>
        <time>2026-08-14T02:30:47.000Z</time>
      </trkpt>
      <trkpt lat="22.758693" lon="108.480022">
        <ele>56.395538</ele>
        <time>2026-08-14T02:30:48.000Z</time>
      </trkpt>
      <trkpt lat="22.758700" lon="108.480075">
        <ele>56.404125</ele>
        <time>2026-08-14T02:30:49.000Z</time>
      </trkpt>
      <trkpt lat="22.758709" lon="108.480128">
        <ele>56.412768</ele>
        <time>2026-08-14T02:30:50.000Z</time>
      </trkpt>
      <trkpt lat="22.758719" lon="108.480179">
        <ele>56.421130</ele>
        <time>2026-08-14T02:30:51.000Z</time>
      </trkpt>
      <trkpt lat="22.758725" lon="108.480231">
        <ele>56.429535</ele>
        <time>2026-08-14T02:30:52.000Z</time>
      </trkpt>
      <trkpt lat="22.758731" lon="108.480286">
        <ele>56.438417</ele>
        <time>2026-08-14T02:30:53.000Z</time>
      </trkpt>
      <trkpt lat="22.758736" lon="108.480341">
        <ele>56.447281</ele>
        <time>2026-08-14T02:30:54.000Z</time>
      </trkpt>
      <trkpt lat="22.758744" lon="108.480395">
        <ele>56.456052</ele>
        <time>2026-08-14T02:30:55.000Z</time>
      </trkpt>
      <trkpt lat="22.758752" lon="108.480453">
        <ele>56.465457</ele>
        <time>2026-08-14T02:30:56.000Z</time>
      </trkpt>
      <trkpt lat="22.758757" lon="108.480510">
        <ele>56.479332</ele>
        <time>2026-08-14T02:30:57.000Z</time>
      </trkpt>
      <trkpt lat="22.758764" lon="108.480565">
        <ele>56.496204</ele>
        <time>2026-08-14T02:30:58.000Z</time>
      </trkpt>
      <trkpt lat="22.758771" lon="108.480617">
        <ele>56.512174</ele>
        <time>2026-08-14T02:30:59.000Z</time>
      </trkpt>
      <trkpt lat="22.758780" lon="108.480670">
        <ele>56.528551</ele>
        <time>2026-08-14T02:31:00.000Z</time>
      </trkpt>
      <trkpt lat="22.758787" lon="108.480709">
        <ele>56.540625</ele>
        <time>2026-08-14T02:31:01.000Z</time>
      </trkpt>
      <trkpt lat="22.758797" lon="108.480741">
        <ele>56.550893</ele>
        <time>2026-08-14T02:31:02.000Z</time>
      </trkpt>
      <trkpt lat="22.758814" lon="108.480785">
        <ele>56.565391</ele>
        <time>2026-08-14T02:31:03.000Z</time>
      </trkpt>
      <trkpt lat="22.758826" lon="108.480833">
        <ele>56.580504</ele>
        <time>2026-08-14T02:31:04.000Z</time>
      </trkpt>
      <trkpt lat="22.758833" lon="108.480875">
        <ele>56.593474</ele>
        <time>2026-08-14T02:31:05.000Z</time>
      </trkpt>
      <trkpt lat="22.758833" lon="108.480924">
        <ele>56.608365</ele>
        <time>2026-08-14T02:31:06.000Z</time>
      </trkpt>
      <trkpt lat="22.758843" lon="108.480971">
        <ele>56.623023</ele>
        <time>2026-08-14T02:31:07.000Z</time>
      </trkpt>
      <trkpt lat="22.758839" lon="108.481017">
        <ele>56.637064</ele>
        <time>2026-08-14T02:31:08.000Z</time>
      </trkpt>
      <trkpt lat="22.758836" lon="108.481059">
        <ele>56.649866</ele>
        <time>2026-08-14T02:31:09.000Z</time>
      </trkpt>
      <trkpt lat="22.758839" lon="108.481104">
        <ele>56.663577</ele>
        <time>2026-08-14T02:31:10.000Z</time>
      </trkpt>
      <trkpt lat="22.758843" lon="108.481158">
        <ele>56.680040</ele>
        <time>2026-08-14T02:31:11.000Z</time>
      </trkpt>
      <trkpt lat="22.758835" lon="108.481213">
        <ele>56.696960</ele>
        <time>2026-08-14T02:31:12.000Z</time>
      </trkpt>
      <trkpt lat="22.758836" lon="108.481273">
        <ele>56.715197</ele>
        <time>2026-08-14T02:31:13.000Z</time>
      </trkpt>
      <trkpt lat="22.758831" lon="108.481334">
        <ele>56.733807</ele>
        <time>2026-08-14T02:31:14.000Z</time>
      </trkpt>
      <trkpt lat="22.758825" lon="108.481397">
        <ele>56.753054</ele>
        <time>2026-08-14T02:31:15.000Z</time>
      </trkpt>
      <trkpt lat="22.758824" lon="108.481465">
        <ele>56.773722</ele>
        <time>2026-08-14T02:31:16.000Z</time>
      </trkpt>
      <trkpt lat="22.758820" lon="108.481529">
        <ele>56.793215</ele>
        <time>2026-08-14T02:31:17.000Z</time>
      </trkpt>
      <trkpt lat="22.758816" lon="108.481586">
        <ele>56.810587</ele>
        <time>2026-08-14T02:31:18.000Z</time>
      </trkpt>
      <trkpt lat="22.758817" lon="108.481639">
        <ele>56.826697</ele>
        <time>2026-08-14T02:31:19.000Z</time>
      </trkpt>
      <trkpt lat="22.758814" lon="108.481697">
        <ele>56.844350</ele>
        <time>2026-08-14T02:31:20.000Z</time>
      </trkpt>
      <trkpt lat="22.758798" lon="108.481762">
        <ele>56.864795</ele>
        <time>2026-08-14T02:31:21.000Z</time>
      </trkpt>
      <trkpt lat="22.758784" lon="108.481830">
        <ele>56.885968</ele>
        <time>2026-08-14T02:31:22.000Z</time>
      </trkpt>
      <trkpt lat="22.758770" lon="108.481893">
        <ele>56.905662</ele>
        <time>2026-08-14T02:31:23.000Z</time>
      </trkpt>
      <trkpt lat="22.758763" lon="108.481956">
        <ele>56.924945</ele>
        <time>2026-08-14T02:31:24.000Z</time>
      </trkpt>
      <trkpt lat="22.758745" lon="108.482014">
        <ele>56.943543</ele>
        <time>2026-08-14T02:31:25.000Z</time>
      </trkpt>
      <trkpt lat="22.758725" lon="108.482073">
        <ele>56.962645</ele>
        <time>2026-08-14T02:31:26.000Z</time>
      </trkpt>
      <trkpt lat="22.758717" lon="108.482128">
        <ele>56.979566</ele>
        <time>2026-08-14T02:31:27.000Z</time>
      </trkpt>
      <trkpt lat="22.758696" lon="108.482184">
        <ele>56.997937</ele>
        <time>2026-08-14T02:31:28.000Z</time>
      </trkpt>
      <trkpt lat="22.758685" lon="108.482251">
        <ele>57.018618</ele>
        <time>2026-08-14T02:31:29.000Z</time>
      </trkpt>
      <trkpt lat="22.758687" lon="108.482302">
        <ele>57.034131</ele>
        <time>2026-08-14T02:31:30.000Z</time>
      </trkpt>
      <trkpt lat="22.758677" lon="108.482355">
        <ele>57.050571</ele>
        <time>2026-08-14T02:31:31.000Z</time>
      </trkpt>
      <trkpt lat="22.758664" lon="108.482402">
        <ele>57.058020</ele>
        <time>2026-08-14T02:31:32.000Z</time>
      </trkpt>
      <trkpt lat="22.758648" lon="108.482465">
        <ele>57.033526</ele>
        <time>2026-08-14T02:31:33.000Z</time>
      </trkpt>
      <trkpt lat="22.758636" lon="108.482524">
        <ele>57.010879</ele>
        <time>2026-08-14T02:31:34.000Z</time>
      </trkpt>
      <trkpt lat="22.758605" lon="108.482566">
        <ele>56.990713</ele>
        <time>2026-08-14T02:31:35.000Z</time>
      </trkpt>
      <trkpt lat="22.758580" lon="108.482614">
        <ele>56.970050</ele>
        <time>2026-08-14T02:31:36.000Z</time>
      </trkpt>
      <trkpt lat="22.758566" lon="108.482674">
        <ele>56.946850</ele>
        <time>2026-08-14T02:31:37.000Z</time>
      </trkpt>
      <trkpt lat="22.758541" lon="108.482713">
        <ele>56.929046</ele>
        <time>2026-08-14T02:31:38.000Z</time>
      </trkpt>
      <trkpt lat="22.758526" lon="108.482763">
        <ele>56.909338</ele>
        <time>2026-08-14T02:31:39.000Z</time>
      </trkpt>
      <trkpt lat="22.758498" lon="108.482819">
        <ele>56.885459</ele>
        <time>2026-08-14T02:31:40.000Z</time>
      </trkpt>
      <trkpt lat="22.758484" lon="108.482866">
        <ele>56.866946</ele>
        <time>2026-08-14T02:31:41.000Z</time>
      </trkpt>
      <trkpt lat="22.758477" lon="108.482933">
        <ele>56.841671</ele>
        <time>2026-08-14T02:31:42.000Z</time>
      </trkpt>
      <trkpt lat="22.758459" lon="108.482996">
        <ele>56.816948</ele>
        <time>2026-08-14T02:31:43.000Z</time>
      </trkpt>
      <trkpt lat="22.758443" lon="108.483060">
        <ele>56.792092</ele>
        <time>2026-08-14T02:31:44.000Z</time>
      </trkpt>
      <trkpt lat="22.758432" lon="108.483134">
        <ele>56.763996</ele>
        <time>2026-08-14T02:31:45.000Z</time>
      </trkpt>
      <trkpt lat="22.758418" lon="108.483202">
        <ele>56.737879</ele>
        <time>2026-08-14T02:31:46.000Z</time>
      </trkpt>
      <trkpt lat="22.758404" lon="108.483272">
        <ele>56.711030</ele>
        <time>2026-08-14T02:31:47.000Z</time>
      </trkpt>
      <trkpt lat="22.758384" lon="108.483340">
        <ele>56.684276</ele>
        <time>2026-08-14T02:31:48.000Z</time>
      </trkpt>
      <trkpt lat="22.758367" lon="108.483404">
        <ele>56.659311</ele>
        <time>2026-08-14T02:31:49.000Z</time>
      </trkpt>
      <trkpt lat="22.758351" lon="108.483468">
        <ele>56.634455</ele>
        <time>2026-08-14T02:31:50.000Z</time>
      </trkpt>
      <trkpt lat="22.758343" lon="108.483533">
        <ele>56.609874</ele>
        <time>2026-08-14T02:31:51.000Z</time>
      </trkpt>
      <trkpt lat="22.758336" lon="108.483604">
        <ele>56.583109</ele>
        <time>2026-08-14T02:31:52.000Z</time>
      </trkpt>
      <trkpt lat="22.758325" lon="108.483669">
        <ele>56.558337</ele>
        <time>2026-08-14T02:31:53.000Z</time>
      </trkpt>
      <trkpt lat="22.758325" lon="108.483734">
        <ele>56.533973</ele>
        <time>2026-08-14T02:31:54.000Z</time>
      </trkpt>
      <trkpt lat="22.758311" lon="108.483809">
        <ele>56.505289</ele>
        <time>2026-08-14T02:31:55.000Z</time>
      </trkpt>
      <trkpt lat="22.758303" lon="108.483878">
        <ele>56.479222</ele>
        <time>2026-08-14T02:31:56.000Z</time>
      </trkpt>
      <trkpt lat="22.758287" lon="108.483951">
        <ele>56.451096</ele>
        <time>2026-08-14T02:31:57.000Z</time>
      </trkpt>
      <trkpt lat="22.758273" lon="108.484020">
        <ele>56.424613</ele>
        <time>2026-08-14T02:31:58.000Z</time>
      </trkpt>
      <trkpt lat="22.758251" lon="108.484087">
        <ele>56.397954</ele>
        <time>2026-08-14T02:31:59.000Z</time>
      </trkpt>
      <trkpt lat="22.758236" lon="108.484145">
        <ele>56.375374</ele>
        <time>2026-08-14T02:32:00.000Z</time>
      </trkpt>
      <trkpt lat="22.758235" lon="108.484198">
        <ele>56.355504</ele>
        <time>2026-08-14T02:32:01.000Z</time>
      </trkpt>
      <trkpt lat="22.758224" lon="108.484249">
        <ele>56.335871</ele>
        <time>2026-08-14T02:32:02.000Z</time>
      </trkpt>
      <trkpt lat="22.758202" lon="108.484291">
        <ele>56.334210</ele>
        <time>2026-08-14T02:32:03.000Z</time>
      </trkpt>
      <trkpt lat="22.758189" lon="108.484343">
        <ele>56.339082</ele>
        <time>2026-08-14T02:32:04.000Z</time>
      </trkpt>
      <trkpt lat="22.758181" lon="108.484405">
        <ele>56.344743</ele>
        <time>2026-08-14T02:32:05.000Z</time>
      </trkpt>
      <trkpt lat="22.758155" lon="108.484455">
        <ele>56.349933</ele>
        <time>2026-08-14T02:32:06.000Z</time>
      </trkpt>
      <trkpt lat="22.758146" lon="108.484529">
        <ele>56.356683</ele>
        <time>2026-08-14T02:32:07.000Z</time>
      </trkpt>
      <trkpt lat="22.758135" lon="108.484606">
        <ele>56.363728</ele>
        <time>2026-08-14T02:32:08.000Z</time>
      </trkpt>
      <trkpt lat="22.758142" lon="108.484676">
        <ele>56.370095</ele>
        <time>2026-08-14T02:32:09.000Z</time>
      </trkpt>
      <trkpt lat="22.758138" lon="108.484747">
        <ele>56.376528</ele>
        <time>2026-08-14T02:32:10.000Z</time>
      </trkpt>
      <trkpt lat="22.758134" lon="108.484819">
        <ele>56.383050</ele>
        <time>2026-08-14T02:32:11.000Z</time>
      </trkpt>
      <trkpt lat="22.758112" lon="108.484880">
        <ele>56.388973</ele>
        <time>2026-08-14T02:32:12.000Z</time>
      </trkpt>
      <trkpt lat="22.758098" lon="108.484950">
        <ele>56.395450</ele>
        <time>2026-08-14T02:32:13.000Z</time>
      </trkpt>
      <trkpt lat="22.758081" lon="108.485015">
        <ele>56.401559</ele>
        <time>2026-08-14T02:32:14.000Z</time>
      </trkpt>
      <trkpt lat="22.758062" lon="108.485080">
        <ele>56.407725</ele>
        <time>2026-08-14T02:32:15.000Z</time>
      </trkpt>
      <trkpt lat="22.758041" lon="108.485141">
        <ele>56.413613</ele>
        <time>2026-08-14T02:32:16.000Z</time>
      </trkpt>
      <trkpt lat="22.758017" lon="108.485200">
        <ele>56.419444</ele>
        <time>2026-08-14T02:32:17.000Z</time>
      </trkpt>
      <trkpt lat="22.757983" lon="108.485248">
        <ele>56.424917</ele>
        <time>2026-08-14T02:32:18.000Z</time>
      </trkpt>
      <trkpt lat="22.757952" lon="108.485305">
        <ele>56.430901</ele>
        <time>2026-08-14T02:32:19.000Z</time>
      </trkpt>
      <trkpt lat="22.757918" lon="108.485363">
        <ele>56.437116</ele>
        <time>2026-08-14T02:32:20.000Z</time>
      </trkpt>
      <trkpt lat="22.757882" lon="108.485417">
        <ele>56.443141</ele>
        <time>2026-08-14T02:32:21.000Z</time>
      </trkpt>
      <trkpt lat="22.757848" lon="108.485475">
        <ele>56.449356</ele>
        <time>2026-08-14T02:32:22.000Z</time>
      </trkpt>
      <trkpt lat="22.757812" lon="108.485536">
        <ele>56.455905</ele>
        <time>2026-08-14T02:32:23.000Z</time>
      </trkpt>
      <trkpt lat="22.757778" lon="108.485604">
        <ele>56.462900</ele>
        <time>2026-08-14T02:32:24.000Z</time>
      </trkpt>
      <trkpt lat="22.757739" lon="108.485665">
        <ele>56.469612</ele>
        <time>2026-08-14T02:32:25.000Z</time>
      </trkpt>
      <trkpt lat="22.757697" lon="108.485725">
        <ele>56.476423</ele>
        <time>2026-08-14T02:32:26.000Z</time>
      </trkpt>
      <trkpt lat="22.757661" lon="108.485789">
        <ele>56.483202</ele>
        <time>2026-08-14T02:32:27.000Z</time>
      </trkpt>
      <trkpt lat="22.757623" lon="108.485852">
        <ele>56.490010</ele>
        <time>2026-08-14T02:32:28.000Z</time>
      </trkpt>
      <trkpt lat="22.757589" lon="108.485918">
        <ele>56.496846</ele>
        <time>2026-08-14T02:32:29.000Z</time>
      </trkpt>
      <trkpt lat="22.757554" lon="108.485983">
        <ele>56.503652</ele>
        <time>2026-08-14T02:32:30.000Z</time>
      </trkpt>
      <trkpt lat="22.757519" lon="108.486049">
        <ele>56.514958</ele>
        <time>2026-08-14T02:32:31.000Z</time>
      </trkpt>
      <trkpt lat="22.757487" lon="108.486119">
        <ele>56.531943</ele>
        <time>2026-08-14T02:32:32.000Z</time>
      </trkpt>
      <trkpt lat="22.757453" lon="108.486183">
        <ele>56.548001</ele>
        <time>2026-08-14T02:32:33.000Z</time>
      </trkpt>
      <trkpt lat="22.757427" lon="108.486256">
        <ele>56.565014</ele>
        <time>2026-08-14T02:32:34.000Z</time>
      </trkpt>
      <trkpt lat="22.757391" lon="108.486320">
        <ele>56.581312</ele>
        <time>2026-08-14T02:32:35.000Z</time>
      </trkpt>
      <trkpt lat="22.757361" lon="108.486388">
        <ele>56.597700</ele>
        <time>2026-08-14T02:32:36.000Z</time>
      </trkpt>
      <trkpt lat="22.757325" lon="108.486453">
        <ele>56.614185</ele>
        <time>2026-08-14T02:32:37.000Z</time>
      </trkpt>
      <trkpt lat="22.757297" lon="108.486526">
        <ele>56.631373</ele>
        <time>2026-08-14T02:32:38.000Z</time>
      </trkpt>
      <trkpt lat="22.757268" lon="108.486589">
        <ele>56.646681</ele>
        <time>2026-08-14T02:32:39.000Z</time>
      </trkpt>
      <trkpt lat="22.757239" lon="108.486653">
        <ele>56.662184</ele>
        <time>2026-08-14T02:32:40.000Z</time>
      </trkpt>
      <trkpt lat="22.757212" lon="108.486716">
        <ele>56.677288</ele>
        <time>2026-08-14T02:32:41.000Z</time>
      </trkpt>
      <trkpt lat="22.757191" lon="108.486788">
        <ele>56.693705</ele>
        <time>2026-08-14T02:32:42.000Z</time>
      </trkpt>
      <trkpt lat="22.757165" lon="108.486851">
        <ele>56.708711</ele>
        <time>2026-08-14T02:32:43.000Z</time>
      </trkpt>
      <trkpt lat="22.757138" lon="108.486913">
        <ele>56.723617</ele>
        <time>2026-08-14T02:32:44.000Z</time>
      </trkpt>
      <trkpt lat="22.757109" lon="108.486976">
        <ele>56.738926</ele>
        <time>2026-08-14T02:32:45.000Z</time>
      </trkpt>
      <trkpt lat="22.757083" lon="108.487043">
        <ele>56.754729</ele>
        <time>2026-08-14T02:32:46.000Z</time>
      </trkpt>
      <trkpt lat="22.757058" lon="108.487106">
        <ele>56.769640</ele>
        <time>2026-08-14T02:32:47.000Z</time>
      </trkpt>
      <trkpt lat="22.757035" lon="108.487169">
        <ele>56.784371</ele>
        <time>2026-08-14T02:32:48.000Z</time>
      </trkpt>
      <trkpt lat="22.757008" lon="108.487228">
        <ele>56.798690</ele>
        <time>2026-08-14T02:32:49.000Z</time>
      </trkpt>
      <trkpt lat="22.756978" lon="108.487286">
        <ele>56.813148</ele>
        <time>2026-08-14T02:32:50.000Z</time>
      </trkpt>
      <trkpt lat="22.756946" lon="108.487339">
        <ele>56.826920</ele>
        <time>2026-08-14T02:32:51.000Z</time>
      </trkpt>
      <trkpt lat="22.756912" lon="108.487399">
        <ele>56.842231</ele>
        <time>2026-08-14T02:32:52.000Z</time>
      </trkpt>
      <trkpt lat="22.756879" lon="108.487460">
        <ele>56.857606</ele>
        <time>2026-08-14T02:32:53.000Z</time>
      </trkpt>
      <trkpt lat="22.756847" lon="108.487513">
        <ele>56.871379</ele>
        <time>2026-08-14T02:32:54.000Z</time>
      </trkpt>
      <trkpt lat="22.756816" lon="108.487565">
        <ele>56.884840</ele>
        <time>2026-08-14T02:32:55.000Z</time>
      </trkpt>
      <trkpt lat="22.756777" lon="108.487614">
        <ele>56.898912</ele>
        <time>2026-08-14T02:32:56.000Z</time>
      </trkpt>
      <trkpt lat="22.756736" lon="108.487670">
        <ele>56.914458</ele>
        <time>2026-08-14T02:32:57.000Z</time>
      </trkpt>
      <trkpt lat="22.756701" lon="108.487726">
        <ele>56.929165</ele>
        <time>2026-08-14T02:32:58.000Z</time>
      </trkpt>
      <trkpt lat="22.756666" lon="108.487781">
        <ele>56.940098</ele>
        <time>2026-08-14T02:32:59.000Z</time>
      </trkpt>
      <trkpt lat="22.756625" lon="108.487832">
        <ele>56.950494</ele>
        <time>2026-08-14T02:33:00.000Z</time>
      </trkpt>
      <trkpt lat="22.756586" lon="108.487886">
        <ele>56.961032</ele>
        <time>2026-08-14T02:33:01.000Z</time>
      </trkpt>
      <trkpt lat="22.756547" lon="108.487943">
        <ele>56.971938</ele>
        <time>2026-08-14T02:33:02.000Z</time>
      </trkpt>
      <trkpt lat="22.756508" lon="108.487999">
        <ele>56.982720</ele>
        <time>2026-08-14T02:33:03.000Z</time>
      </trkpt>
      <trkpt lat="22.756468" lon="108.488054">
        <ele>56.993483</ele>
        <time>2026-08-14T02:33:04.000Z</time>
      </trkpt>
      <trkpt lat="22.756426" lon="108.488105">
        <ele>57.003989</ele>
        <time>2026-08-14T02:33:05.000Z</time>
      </trkpt>
      <trkpt lat="22.756387" lon="108.488161">
        <ele>57.014771</ele>
        <time>2026-08-14T02:33:06.000Z</time>
      </trkpt>
      <trkpt lat="22.756351" lon="108.488220">
        <ele>57.025641</ele>
        <time>2026-08-14T02:33:07.000Z</time>
      </trkpt>
      <trkpt lat="22.756318" lon="108.488278">
        <ele>57.036112</ele>
        <time>2026-08-14T02:33:08.000Z</time>
      </trkpt>
      <trkpt lat="22.756283" lon="108.488334">
        <ele>57.046507</ele>
        <time>2026-08-14T02:33:09.000Z</time>
      </trkpt>
      <trkpt lat="22.756253" lon="108.488396">
        <ele>57.057265</ele>
        <time>2026-08-14T02:33:10.000Z</time>
      </trkpt>
      <trkpt lat="22.756217" lon="108.488457">
        <ele>57.068392</ele>
        <time>2026-08-14T02:33:11.000Z</time>
      </trkpt>
      <trkpt lat="22.756181" lon="108.488516">
        <ele>57.079263</ele>
        <time>2026-08-14T02:33:12.000Z</time>
      </trkpt>
      <trkpt lat="22.756150" lon="108.488570">
        <ele>57.089036</ele>
        <time>2026-08-14T02:33:13.000Z</time>
      </trkpt>
      <trkpt lat="22.756114" lon="108.488625">
        <ele>57.099399</ele>
        <time>2026-08-14T02:33:14.000Z</time>
      </trkpt>
      <trkpt lat="22.756083" lon="108.488680">
        <ele>57.109303</ele>
        <time>2026-08-14T02:33:15.000Z</time>
      </trkpt>
      <trkpt lat="22.756055" lon="108.488749">
        <ele>57.120886</ele>
        <time>2026-08-14T02:33:16.000Z</time>
      </trkpt>
      <trkpt lat="22.756014" lon="108.488797">
        <ele>57.130939</ele>
        <time>2026-08-14T02:33:17.000Z</time>
      </trkpt>
      <trkpt lat="22.755983" lon="108.488858">
        <ele>57.141641</ele>
        <time>2026-08-14T02:33:18.000Z</time>
      </trkpt>
      <trkpt lat="22.755954" lon="108.488919">
        <ele>57.152185</ele>
        <time>2026-08-14T02:33:19.000Z</time>
      </trkpt>
      <trkpt lat="22.755916" lon="108.488973">
        <ele>57.162622</ele>
        <time>2026-08-14T02:33:20.000Z</time>
      </trkpt>
      <trkpt lat="22.755877" lon="108.489029">
        <ele>57.173405</ele>
        <time>2026-08-14T02:33:21.000Z</time>
      </trkpt>
      <trkpt lat="22.755829" lon="108.489065">
        <ele>57.183129</ele>
        <time>2026-08-14T02:33:22.000Z</time>
      </trkpt>
      <trkpt lat="22.755787" lon="108.489114">
        <ele>57.193408</ele>
        <time>2026-08-14T02:33:23.000Z</time>
      </trkpt>
      <trkpt lat="22.755740" lon="108.489166">
        <ele>57.204595</ele>
        <time>2026-08-14T02:33:24.000Z</time>
      </trkpt>
      <trkpt lat="22.755700" lon="108.489212">
        <ele>57.214310</ele>
        <time>2026-08-14T02:33:25.000Z</time>
      </trkpt>
      <trkpt lat="22.755657" lon="108.489263">
        <ele>57.224928</ele>
        <time>2026-08-14T02:33:26.000Z</time>
      </trkpt>
      <trkpt lat="22.755610" lon="108.489311">
        <ele>57.208446</ele>
        <time>2026-08-14T02:33:27.000Z</time>
      </trkpt>
      <trkpt lat="22.755559" lon="108.489353">
        <ele>57.155441</ele>
        <time>2026-08-14T02:33:28.000Z</time>
      </trkpt>
      <trkpt lat="22.755507" lon="108.489388">
        <ele>57.104784</ele>
        <time>2026-08-14T02:33:29.000Z</time>
      </trkpt>
      <trkpt lat="22.755459" lon="108.489429">
        <ele>57.054211</ele>
        <time>2026-08-14T02:33:30.000Z</time>
      </trkpt>
      <trkpt lat="22.755412" lon="108.489467">
        <ele>57.005687</ele>
        <time>2026-08-14T02:33:31.000Z</time>
      </trkpt>
      <trkpt lat="22.755362" lon="108.489496">
        <ele>56.958754</ele>
        <time>2026-08-14T02:33:32.000Z</time>
      </trkpt>
      <trkpt lat="22.755312" lon="108.489526">
        <ele>56.911457</ele>
        <time>2026-08-14T02:33:33.000Z</time>
      </trkpt>
      <trkpt lat="22.755260" lon="108.489553">
        <ele>56.863738</ele>
        <time>2026-08-14T02:33:34.000Z</time>
      </trkpt>
      <trkpt lat="22.755208" lon="108.489577">
        <ele>56.816962</ele>
        <time>2026-08-14T02:33:35.000Z</time>
      </trkpt>
      <trkpt lat="22.755159" lon="108.489601">
        <ele>56.772460</ele>
        <time>2026-08-14T02:33:36.000Z</time>
      </trkpt>
      <trkpt lat="22.755113" lon="108.489621">
        <ele>56.731440</ele>
        <time>2026-08-14T02:33:37.000Z</time>
      </trkpt>
      <trkpt lat="22.755066" lon="108.489642">
        <ele>56.689366</ele>
        <time>2026-08-14T02:33:38.000Z</time>
      </trkpt>
      <trkpt lat="22.755014" lon="108.489668">
        <ele>56.641971</ele>
        <time>2026-08-14T02:33:39.000Z</time>
      </trkpt>
      <trkpt lat="22.754972" lon="108.489705">
        <ele>56.597182</ele>
        <time>2026-08-14T02:33:40.000Z</time>
      </trkpt>
      <trkpt lat="22.754944" lon="108.489734">
        <ele>56.565135</ele>
        <time>2026-08-14T02:33:41.000Z</time>
      </trkpt>
      <trkpt lat="22.754920" lon="108.489764">
        <ele>56.534821</ele>
        <time>2026-08-14T02:33:42.000Z</time>
      </trkpt>
      <trkpt lat="22.754904" lon="108.489792">
        <ele>56.509679</ele>
        <time>2026-08-14T02:33:43.000Z</time>
      </trkpt>
      <trkpt lat="22.754896" lon="108.489816">
        <ele>56.490200</ele>
        <time>2026-08-14T02:33:44.000Z</time>
      </trkpt>
      <trkpt lat="22.754889" lon="108.489834">
        <ele>56.475290</ele>
        <time>2026-08-14T02:33:45.000Z</time>
      </trkpt>
      <trkpt lat="22.754885" lon="108.489865">
        <ele>56.451398</ele>
        <time>2026-08-14T02:33:46.000Z</time>
      </trkpt>
      <trkpt lat="22.754887" lon="108.489894">
        <ele>56.429201</ele>
        <time>2026-08-14T02:33:47.000Z</time>
      </trkpt>
      <trkpt lat="22.754884" lon="108.489923">
        <ele>56.406927</ele>
        <time>2026-08-14T02:33:48.000Z</time>
      </trkpt>
      <trkpt lat="22.754878" lon="108.489954">
        <ele>56.382750</ele>
        <time>2026-08-14T02:33:49.000Z</time>
      </trkpt>
      <trkpt lat="22.754874" lon="108.489984">
        <ele>56.359614</ele>
        <time>2026-08-14T02:33:50.000Z</time>
      </trkpt>
      <trkpt lat="22.754863" lon="108.489996">
        <ele>56.346700</ele>
        <time>2026-08-14T02:33:51.000Z</time>
      </trkpt>
      <trkpt lat="22.754853" lon="108.490008">
        <ele>56.334355</ele>
        <time>2026-08-14T02:33:52.000Z</time>
      </trkpt>
      <trkpt lat="22.754842" lon="108.490022">
        <ele>56.320316</ele>
        <time>2026-08-14T02:33:53.000Z</time>
      </trkpt>
      <trkpt lat="22.754837" lon="108.490038">
        <ele>56.307422</ele>
        <time>2026-08-14T02:33:54.000Z</time>
      </trkpt>
      <trkpt lat="22.754833" lon="108.490053">
        <ele>56.295504</ele>
        <time>2026-08-14T02:33:55.000Z</time>
      </trkpt>
      <trkpt lat="22.754827" lon="108.490072">
        <ele>56.280175</ele>
        <time>2026-08-14T02:33:56.000Z</time>
      </trkpt>
      <trkpt lat="22.754821" lon="108.490094">
        <ele>56.262664</ele>
        <time>2026-08-14T02:33:57.000Z</time>
      </trkpt>
      <trkpt lat="22.754822" lon="108.490124">
        <ele>56.239751</ele>
        <time>2026-08-14T02:33:58.000Z</time>
      </trkpt>
      <trkpt lat="22.754817" lon="108.490158">
        <ele>56.213471</ele>
        <time>2026-08-14T02:33:59.000Z</time>
      </trkpt>
      <trkpt lat="22.754814" lon="108.490185">
        <ele>56.192714</ele>
        <time>2026-08-14T02:34:00.000Z</time>
      </trkpt>
      <trkpt lat="22.754817" lon="108.490214">
        <ele>56.170440</ele>
        <time>2026-08-14T02:34:01.000Z</time>
      </trkpt>
      <trkpt lat="22.754822" lon="108.490248">
        <ele>56.144161</ele>
        <time>2026-08-14T02:34:02.000Z</time>
      </trkpt>
      <trkpt lat="22.754823" lon="108.490281">
        <ele>56.118960</ele>
        <time>2026-08-14T02:34:03.000Z</time>
      </trkpt>
      <trkpt lat="22.754826" lon="108.490313">
        <ele>56.094409</ele>
        <time>2026-08-14T02:34:04.000Z</time>
      </trkpt>
      <trkpt lat="22.754836" lon="108.490350">
        <ele>56.064980</ele>
        <time>2026-08-14T02:34:05.000Z</time>
      </trkpt>
      <trkpt lat="22.754834" lon="108.490389">
        <ele>56.035167</ele>
        <time>2026-08-14T02:34:06.000Z</time>
      </trkpt>
      <trkpt lat="22.754841" lon="108.490428">
        <ele>56.004840</ele>
        <time>2026-08-14T02:34:07.000Z</time>
      </trkpt>
      <trkpt lat="22.754852" lon="108.490470">
        <ele>55.971515</ele>
        <time>2026-08-14T02:34:08.000Z</time>
      </trkpt>
      <trkpt lat="22.754852" lon="108.490505">
        <ele>55.944801</ele>
        <time>2026-08-14T02:34:09.000Z</time>
      </trkpt>
      <trkpt lat="22.754850" lon="108.490535">
        <ele>55.921843</ele>
        <time>2026-08-14T02:34:10.000Z</time>
      </trkpt>
      <trkpt lat="22.754851" lon="108.490571">
        <ele>55.894353</ele>
        <time>2026-08-14T02:34:11.000Z</time>
      </trkpt>
      <trkpt lat="22.754858" lon="108.490615">
        <ele>55.860273</ele>
        <time>2026-08-14T02:34:12.000Z</time>
      </trkpt>
      <trkpt lat="22.754859" lon="108.490648">
        <ele>55.835071</ele>
        <time>2026-08-14T02:34:13.000Z</time>
      </trkpt>
      <trkpt lat="22.754852" lon="108.490684">
        <ele>55.806989</ele>
        <time>2026-08-14T02:34:14.000Z</time>
      </trkpt>
      <trkpt lat="22.754848" lon="108.490720">
        <ele>55.779313</ele>
        <time>2026-08-14T02:34:15.000Z</time>
      </trkpt>
      <trkpt lat="22.754849" lon="108.490770">
        <ele>55.747084</ele>
        <time>2026-08-14T02:34:16.000Z</time>
      </trkpt>
      <trkpt lat="22.754849" lon="108.490816">
        <ele>55.877820</ele>
        <time>2026-08-14T02:34:17.000Z</time>
      </trkpt>
      <trkpt lat="22.754849" lon="108.490856">
        <ele>55.991503</ele>
        <time>2026-08-14T02:34:18.000Z</time>
      </trkpt>
      <trkpt lat="22.754844" lon="108.490889">
        <ele>56.086549</ele>
        <time>2026-08-14T02:34:19.000Z</time>
      </trkpt>
      <trkpt lat="22.754841" lon="108.490920">
        <ele>56.175138</ele>
        <time>2026-08-14T02:34:20.000Z</time>
      </trkpt>
      <trkpt lat="22.754842" lon="108.490949">
        <ele>56.257616</ele>
        <time>2026-08-14T02:34:21.000Z</time>
      </trkpt>
      <trkpt lat="22.754846" lon="108.490974">
        <ele>56.329729</ele>
        <time>2026-08-14T02:34:22.000Z</time>
      </trkpt>
      <trkpt lat="22.754853" lon="108.491001">
        <ele>56.409441</ele>
        <time>2026-08-14T02:34:23.000Z</time>
      </trkpt>
      <trkpt lat="22.754863" lon="108.491026">
        <ele>56.486889</ele>
        <time>2026-08-14T02:34:24.000Z</time>
      </trkpt>
      <trkpt lat="22.754870" lon="108.491061">
        <ele>56.588674</ele>
        <time>2026-08-14T02:34:25.000Z</time>
      </trkpt>
      <trkpt lat="22.754864" lon="108.491102">
        <ele>56.706658</ele>
        <time>2026-08-14T02:34:26.000Z</time>
      </trkpt>
      <trkpt lat="22.754868" lon="108.491140">
        <ele>56.815358</ele>
        <time>2026-08-14T02:34:27.000Z</time>
      </trkpt>
      <trkpt lat="22.754870" lon="108.491195">
        <ele>56.971794</ele>
        <time>2026-08-14T02:34:28.000Z</time>
      </trkpt>
      <trkpt lat="22.754877" lon="108.491220">
        <ele>57.046050</ele>
        <time>2026-08-14T02:34:29.000Z</time>
      </trkpt>
      <trkpt lat="22.754896" lon="108.491242">
        <ele>57.131714</ele>
        <time>2026-08-14T02:34:30.000Z</time>
      </trkpt>
      <trkpt lat="22.754905" lon="108.491280">
        <ele>57.243218</ele>
        <time>2026-08-14T02:34:31.000Z</time>
      </trkpt>
      <trkpt lat="22.754908" lon="108.491327">
        <ele>57.377116</ele>
        <time>2026-08-14T02:34:32.000Z</time>
      </trkpt>
      <trkpt lat="22.754921" lon="108.491378">
        <ele>57.527498</ele>
        <time>2026-08-14T02:34:33.000Z</time>
      </trkpt>
      <trkpt lat="22.754919" lon="108.491412">
        <ele>57.624325</ele>
        <time>2026-08-14T02:34:34.000Z</time>
      </trkpt>
      <trkpt lat="22.754924" lon="108.491453">
        <ele>57.741865</ele>
        <time>2026-08-14T02:34:35.000Z</time>
      </trkpt>
      <trkpt lat="22.754934" lon="108.491496">
        <ele>57.867900</ele>
        <time>2026-08-14T02:34:36.000Z</time>
      </trkpt>
      <trkpt lat="22.754945" lon="108.491539">
        <ele>57.994725</ele>
        <time>2026-08-14T02:34:37.000Z</time>
      </trkpt>
      <trkpt lat="22.754958" lon="108.491580">
        <ele>58.117946</ele>
        <time>2026-08-14T02:34:38.000Z</time>
      </trkpt>
      <trkpt lat="22.754973" lon="108.491625">
        <ele>58.253938</ele>
        <time>2026-08-14T02:34:39.000Z</time>
      </trkpt>
      <trkpt lat="22.754978" lon="108.491660">
        <ele>58.354598</ele>
        <time>2026-08-14T02:34:40.000Z</time>
      </trkpt>
      <trkpt lat="22.754985" lon="108.491692">
        <ele>58.448068</ele>
        <time>2026-08-14T02:34:41.000Z</time>
      </trkpt>
      <trkpt lat="22.754988" lon="108.491713">
        <ele>58.508464</ele>
        <time>2026-08-14T02:34:42.000Z</time>
      </trkpt>
      <trkpt lat="22.754989" lon="108.491743">
        <ele>58.593782</ele>
        <time>2026-08-14T02:34:43.000Z</time>
      </trkpt>
      <trkpt lat="22.755003" lon="108.491771">
        <ele>58.684305</ele>
        <time>2026-08-14T02:34:44.000Z</time>
      </trkpt>
      <trkpt lat="22.755025" lon="108.491801">
        <ele>58.793240</ele>
        <time>2026-08-14T02:34:45.000Z</time>
      </trkpt>
      <trkpt lat="22.755055" lon="108.491822">
        <ele>58.903289</ele>
        <time>2026-08-14T02:34:46.000Z</time>
      </trkpt>
      <trkpt lat="22.755073" lon="108.491839">
        <ele>58.976854</ele>
        <time>2026-08-14T02:34:47.000Z</time>
      </trkpt>
      <trkpt lat="22.755100" lon="108.491851">
        <ele>59.066785</ele>
        <time>2026-08-14T02:34:48.000Z</time>
      </trkpt>
      <trkpt lat="22.755131" lon="108.491858">
        <ele>59.164375</ele>
        <time>2026-08-14T02:34:49.000Z</time>
      </trkpt>
      <trkpt lat="22.755165" lon="108.491869">
        <ele>59.273726</ele>
        <time>2026-08-14T02:34:50.000Z</time>
      </trkpt>
      <trkpt lat="22.755200" lon="108.491877">
        <ele>59.383965</ele>
        <time>2026-08-14T02:34:51.000Z</time>
      </trkpt>
      <trkpt lat="22.755237" lon="108.491885">
        <ele>59.500242</ele>
        <time>2026-08-14T02:34:52.000Z</time>
      </trkpt>
      <trkpt lat="22.755269" lon="108.491892">
        <ele>59.600851</ele>
        <time>2026-08-14T02:34:53.000Z</time>
      </trkpt>
      <trkpt lat="22.755298" lon="108.491900">
        <ele>59.693074</ele>
        <time>2026-08-14T02:34:54.000Z</time>
      </trkpt>
      <trkpt lat="22.755323" lon="108.491915">
        <ele>59.781131</ele>
        <time>2026-08-14T02:34:55.000Z</time>
      </trkpt>
      <trkpt lat="22.755349" lon="108.491925">
        <ele>59.866153</ele>
        <time>2026-08-14T02:34:56.000Z</time>
      </trkpt>
      <trkpt lat="22.755375" lon="108.491937">
        <ele>59.953239</ele>
        <time>2026-08-14T02:34:57.000Z</time>
      </trkpt>
      <trkpt lat="22.755401" lon="108.491956">
        <ele>60.049867</ele>
        <time>2026-08-14T02:34:58.000Z</time>
      </trkpt>
      <trkpt lat="22.755429" lon="108.491980">
        <ele>60.159864</ele>
        <time>2026-08-14T02:34:59.000Z</time>
      </trkpt>
      <trkpt lat="22.755453" lon="108.492010">
        <ele>60.272739</ele>
        <time>2026-08-14T02:35:00.000Z</time>
      </trkpt>
      <trkpt lat="22.755467" lon="108.492042">
        <ele>60.373401</ele>
        <time>2026-08-14T02:35:01.000Z</time>
      </trkpt>
      <trkpt lat="22.755474" lon="108.492079">
        <ele>60.480748</ele>
        <time>2026-08-14T02:35:02.000Z</time>
      </trkpt>
      <trkpt lat="22.755472" lon="108.492121">
        <ele>60.600274</ele>
        <time>2026-08-14T02:35:03.000Z</time>
      </trkpt>
      <trkpt lat="22.755470" lon="108.492164">
        <ele>60.722639</ele>
        <time>2026-08-14T02:35:04.000Z</time>
      </trkpt>
      <trkpt lat="22.755467" lon="108.492211">
        <ele>60.856535</ele>
        <time>2026-08-14T02:35:05.000Z</time>
      </trkpt>
      <trkpt lat="22.755467" lon="108.492255">
        <ele>60.981587</ele>
        <time>2026-08-14T02:35:06.000Z</time>
      </trkpt>
      <trkpt lat="22.755469" lon="108.492300">
        <ele>61.109628</ele>
        <time>2026-08-14T02:35:07.000Z</time>
      </trkpt>
      <trkpt lat="22.755469" lon="108.492350">
        <ele>61.251732</ele>
        <time>2026-08-14T02:35:08.000Z</time>
      </trkpt>
      <trkpt lat="22.755472" lon="108.492399">
        <ele>61.389808</ele>
        <time>2026-08-14T02:35:09.000Z</time>
      </trkpt>
      <trkpt lat="22.755477" lon="108.492444">
        <ele>61.516807</ele>
        <time>2026-08-14T02:35:10.000Z</time>
      </trkpt>
      <trkpt lat="22.755487" lon="108.492492">
        <ele>61.654688</ele>
        <time>2026-08-14T02:35:11.000Z</time>
      </trkpt>
      <trkpt lat="22.755492" lon="108.492542">
        <ele>61.795605</ele>
        <time>2026-08-14T02:35:12.000Z</time>
      </trkpt>
      <trkpt lat="22.755500" lon="108.492590">
        <ele>61.932276</ele>
        <time>2026-08-14T02:35:13.000Z</time>
      </trkpt>
      <trkpt lat="22.755508" lon="108.492636">
        <ele>62.063436</ele>
        <time>2026-08-14T02:35:14.000Z</time>
      </trkpt>
      <trkpt lat="22.755517" lon="108.492682">
        <ele>62.195193</ele>
        <time>2026-08-14T02:35:15.000Z</time>
      </trkpt>
      <trkpt lat="22.755525" lon="108.492727">
        <ele>62.323601</ele>
        <time>2026-08-14T02:35:16.000Z</time>
      </trkpt>
      <trkpt lat="22.755536" lon="108.492774">
        <ele>62.459466</ele>
        <time>2026-08-14T02:35:17.000Z</time>
      </trkpt>
      <trkpt lat="22.755544" lon="108.492821">
        <ele>62.593381</ele>
        <time>2026-08-14T02:35:18.000Z</time>
      </trkpt>
      <trkpt lat="22.755546" lon="108.492869">
        <ele>62.728010</ele>
        <time>2026-08-14T02:35:19.000Z</time>
      </trkpt>
      <trkpt lat="22.755557" lon="108.492917">
        <ele>62.866593</ele>
        <time>2026-08-14T02:35:20.000Z</time>
      </trkpt>
      <trkpt lat="22.755566" lon="108.492963">
        <ele>62.998350</ele>
        <time>2026-08-14T02:35:21.000Z</time>
      </trkpt>
      <trkpt lat="22.755576" lon="108.493008">
        <ele>63.128045</ele>
        <time>2026-08-14T02:35:22.000Z</time>
      </trkpt>
      <trkpt lat="22.755589" lon="108.493054">
        <ele>63.262850</ele>
        <time>2026-08-14T02:35:23.000Z</time>
      </trkpt>
      <trkpt lat="22.755599" lon="108.493101">
        <ele>63.398000</ele>
        <time>2026-08-14T02:35:24.000Z</time>
      </trkpt>
      <trkpt lat="22.755612" lon="108.493147">
        <ele>63.532805</ele>
        <time>2026-08-14T02:35:25.000Z</time>
      </trkpt>
      <trkpt lat="22.755622" lon="108.493192">
        <ele>63.662500</ele>
        <time>2026-08-14T02:35:26.000Z</time>
      </trkpt>
      <trkpt lat="22.755630" lon="108.493238">
        <ele>63.793660</ele>
        <time>2026-08-14T02:35:27.000Z</time>
      </trkpt>
      <trkpt lat="22.755639" lon="108.493282">
        <ele>63.919941</ele>
        <time>2026-08-14T02:35:28.000Z</time>
      </trkpt>
      <trkpt lat="22.755646" lon="108.493327">
        <ele>64.047808</ele>
        <time>2026-08-14T02:35:29.000Z</time>
      </trkpt>
      <trkpt lat="22.755652" lon="108.493374">
        <ele>64.180754</ele>
        <time>2026-08-14T02:35:30.000Z</time>
      </trkpt>
      <trkpt lat="22.755663" lon="108.493418">
        <ele>64.308488</ele>
        <time>2026-08-14T02:35:31.000Z</time>
      </trkpt>
      <trkpt lat="22.755670" lon="108.493464">
        <ele>64.439119</ele>
        <time>2026-08-14T02:35:32.000Z</time>
      </trkpt>
      <trkpt lat="22.755682" lon="108.493510">
        <ele>64.573065</ele>
        <time>2026-08-14T02:35:33.000Z</time>
      </trkpt>
      <trkpt lat="22.755694" lon="108.493556">
        <ele>64.707011</ele>
        <time>2026-08-14T02:35:34.000Z</time>
      </trkpt>
      <trkpt lat="22.755705" lon="108.493599">
        <ele>64.832043</ele>
        <time>2026-08-14T02:35:35.000Z</time>
      </trkpt>
      <trkpt lat="22.755713" lon="108.493642">
        <ele>64.954953</ele>
        <time>2026-08-14T02:35:36.000Z</time>
      </trkpt>
      <trkpt lat="22.755724" lon="108.493682">
        <ele>65.071907</ele>
        <time>2026-08-14T02:35:37.000Z</time>
      </trkpt>
      <trkpt lat="22.755732" lon="108.493720">
        <ele>65.181119</ele>
        <time>2026-08-14T02:35:38.000Z</time>
      </trkpt>
      <trkpt lat="22.755743" lon="108.493760">
        <ele>65.298073</ele>
        <time>2026-08-14T02:35:39.000Z</time>
      </trkpt>
      <trkpt lat="22.755757" lon="108.493802">
        <ele>65.423205</ele>
        <time>2026-08-14T02:35:40.000Z</time>
      </trkpt>
      <trkpt lat="22.755768" lon="108.493839">
        <ele>65.532130</ele>
        <time>2026-08-14T02:35:41.000Z</time>
      </trkpt>
      <trkpt lat="22.755775" lon="108.493877">
        <ele>65.640706</ele>
        <time>2026-08-14T02:35:42.000Z</time>
      </trkpt>
      <trkpt lat="22.755785" lon="108.493917">
        <ele>65.756828</ele>
        <time>2026-08-14T02:35:43.000Z</time>
      </trkpt>
      <trkpt lat="22.755796" lon="108.493956">
        <ele>65.871100</ele>
        <time>2026-08-14T02:35:44.000Z</time>
      </trkpt>
      <trkpt lat="22.755807" lon="108.493994">
        <ele>65.982695</ele>
        <time>2026-08-14T02:35:45.000Z</time>
      </trkpt>
      <trkpt lat="22.755800" lon="108.494044">
        <ele>66.124396</ele>
        <time>2026-08-14T02:35:46.000Z</time>
      </trkpt>
      <trkpt lat="22.755808" lon="108.494086">
        <ele>66.244560</ele>
        <time>2026-08-14T02:35:47.000Z</time>
      </trkpt>
      <trkpt lat="22.755818" lon="108.494128">
        <ele>66.366100</ele>
        <time>2026-08-14T02:35:48.000Z</time>
      </trkpt>
      <trkpt lat="22.755825" lon="108.494170">
        <ele>66.485686</ele>
        <time>2026-08-14T02:35:49.000Z</time>
      </trkpt>
      <trkpt lat="22.755836" lon="108.494210">
        <ele>66.602640</ele>
        <time>2026-08-14T02:35:50.000Z</time>
      </trkpt>
      <trkpt lat="22.755853" lon="108.494251">
        <ele>66.728597</ele>
        <time>2026-08-14T02:35:51.000Z</time>
      </trkpt>
      <trkpt lat="22.755869" lon="108.494296">
        <ele>66.827112</ele>
        <time>2026-08-14T02:35:52.000Z</time>
      </trkpt>
      <trkpt lat="22.755876" lon="108.494338">
        <ele>66.907935</ele>
        <time>2026-08-14T02:35:53.000Z</time>
      </trkpt>
      <trkpt lat="22.755889" lon="108.494379">
        <ele>66.990037</ele>
        <time>2026-08-14T02:35:54.000Z</time>
      </trkpt>
      <trkpt lat="22.755906" lon="108.494415">
        <ele>67.066628</ele>
        <time>2026-08-14T02:35:55.000Z</time>
      </trkpt>
      <trkpt lat="22.755916" lon="108.494455">
        <ele>67.145109</ele>
        <time>2026-08-14T02:35:56.000Z</time>
      </trkpt>
      <trkpt lat="22.755926" lon="108.494496">
        <ele>67.225419</ele>
        <time>2026-08-14T02:35:57.000Z</time>
      </trkpt>
      <trkpt lat="22.755937" lon="108.494539">
        <ele>67.309922</ele>
        <time>2026-08-14T02:35:58.000Z</time>
      </trkpt>
      <trkpt lat="22.755948" lon="108.494582">
        <ele>67.394425</ele>
        <time>2026-08-14T02:35:59.000Z</time>
      </trkpt>
      <trkpt lat="22.755958" lon="108.494621">
        <ele>67.471080</ele>
        <time>2026-08-14T02:36:00.000Z</time>
      </trkpt>
      <trkpt lat="22.755968" lon="108.494660">
        <ele>67.547735</ele>
        <time>2026-08-14T02:36:01.000Z</time>
      </trkpt>
      <trkpt lat="22.755983" lon="108.494699">
        <ele>67.627755</ele>
        <time>2026-08-14T02:36:02.000Z</time>
      </trkpt>
      <trkpt lat="22.755995" lon="108.494737">
        <ele>67.703817</ele>
        <time>2026-08-14T02:36:03.000Z</time>
      </trkpt>
      <trkpt lat="22.756014" lon="108.494774">
        <ele>67.784014</ele>
        <time>2026-08-14T02:36:04.000Z</time>
      </trkpt>
      <trkpt lat="22.756028" lon="108.494816">
        <ele>67.868584</ele>
        <time>2026-08-14T02:36:05.000Z</time>
      </trkpt>
      <trkpt lat="22.756044" lon="108.494854">
        <ele>67.947690</ele>
        <time>2026-08-14T02:36:06.000Z</time>
      </trkpt>
      <trkpt lat="22.756054" lon="108.494898">
        <ele>68.033505</ele>
        <time>2026-08-14T02:36:07.000Z</time>
      </trkpt>
      <trkpt lat="22.756070" lon="108.494936">
        <ele>68.112610</ele>
        <time>2026-08-14T02:36:08.000Z</time>
      </trkpt>
      <trkpt lat="22.756083" lon="108.494976">
        <ele>68.192924</ele>
        <time>2026-08-14T02:36:09.000Z</time>
      </trkpt>
      <trkpt lat="22.756092" lon="108.495017">
        <ele>68.272734</ele>
        <time>2026-08-14T02:36:10.000Z</time>
      </trkpt>
      <trkpt lat="22.756105" lon="108.495060">
        <ele>68.358426</ele>
        <time>2026-08-14T02:36:11.000Z</time>
      </trkpt>
      <trkpt lat="22.756120" lon="108.495099">
        <ele>68.438445</ele>
        <time>2026-08-14T02:36:12.000Z</time>
      </trkpt>
      <trkpt lat="22.756131" lon="108.495141">
        <ele>68.521125</ele>
        <time>2026-08-14T02:36:13.000Z</time>
      </trkpt>
      <trkpt lat="22.756143" lon="108.495182">
        <ele>68.602582</ele>
        <time>2026-08-14T02:36:14.000Z</time>
      </trkpt>
      <trkpt lat="22.756158" lon="108.495221">
        <ele>68.682601</ele>
        <time>2026-08-14T02:36:15.000Z</time>
      </trkpt>
      <trkpt lat="22.756173" lon="108.495268">
        <ele>68.776783</ele>
        <time>2026-08-14T02:36:16.000Z</time>
      </trkpt>
      <trkpt lat="22.756188" lon="108.495314">
        <ele>68.869178</ele>
        <time>2026-08-14T02:36:17.000Z</time>
      </trkpt>
      <trkpt lat="22.756205" lon="108.495359">
        <ele>68.961266</ele>
        <time>2026-08-14T02:36:18.000Z</time>
      </trkpt>
      <trkpt lat="22.756222" lon="108.495404">
        <ele>69.053355</ele>
        <time>2026-08-14T02:36:19.000Z</time>
      </trkpt>
      <trkpt lat="22.756239" lon="108.495448">
        <ele>69.143694</ele>
        <time>2026-08-14T02:36:20.000Z</time>
      </trkpt>
      <trkpt lat="22.756256" lon="108.495491">
        <ele>69.232290</ele>
        <time>2026-08-14T02:36:21.000Z</time>
      </trkpt>
      <trkpt lat="22.756270" lon="108.495537">
        <ele>69.324020</ele>
        <time>2026-08-14T02:36:22.000Z</time>
      </trkpt>
      <trkpt lat="22.756287" lon="108.495583">
        <ele>69.417864</ele>
        <time>2026-08-14T02:36:23.000Z</time>
      </trkpt>
      <trkpt lat="22.756303" lon="108.495627">
        <ele>69.507429</ele>
        <time>2026-08-14T02:36:24.000Z</time>
      </trkpt>
      <trkpt lat="22.756319" lon="108.495671">
        <ele>69.596995</ele>
        <time>2026-08-14T02:36:25.000Z</time>
      </trkpt>
      <trkpt lat="22.756333" lon="108.495717">
        <ele>69.688725</ele>
        <time>2026-08-14T02:36:26.000Z</time>
      </trkpt>
      <trkpt lat="22.756341" lon="108.495767">
        <ele>69.784823</ele>
        <time>2026-08-14T02:36:27.000Z</time>
      </trkpt>
      <trkpt lat="22.756356" lon="108.495816">
        <ele>69.882592</ele>
        <time>2026-08-14T02:36:28.000Z</time>
      </trkpt>
      <trkpt lat="22.756373" lon="108.495863">
        <ele>69.978196</ele>
        <time>2026-08-14T02:36:29.000Z</time>
      </trkpt>
      <trkpt lat="22.756389" lon="108.495909">
        <ele>70.071295</ele>
        <time>2026-08-14T02:36:30.000Z</time>
      </trkpt>
      <trkpt lat="22.756404" lon="108.495954">
        <ele>70.161906</ele>
        <time>2026-08-14T02:36:31.000Z</time>
      </trkpt>
      <trkpt lat="22.756420" lon="108.496001">
        <ele>70.256779</ele>
        <time>2026-08-14T02:36:32.000Z</time>
      </trkpt>
      <trkpt lat="22.756437" lon="108.496047">
        <ele>70.350623</ele>
        <time>2026-08-14T02:36:33.000Z</time>
      </trkpt>
      <trkpt lat="22.756456" lon="108.496092">
        <ele>70.444303</ele>
        <time>2026-08-14T02:36:34.000Z</time>
      </trkpt>
      <trkpt lat="22.756475" lon="108.496134">
        <ele>70.432714</ele>
        <time>2026-08-14T02:36:35.000Z</time>
      </trkpt>
      <trkpt lat="22.756493" lon="108.496178">
        <ele>70.420789</ele>
        <time>2026-08-14T02:36:36.000Z</time>
      </trkpt>
      <trkpt lat="22.756511" lon="108.496225">
        <ele>70.408181</ele>
        <time>2026-08-14T02:36:37.000Z</time>
      </trkpt>
      <trkpt lat="22.756529" lon="108.496271">
        <ele>70.395802</ele>
        <time>2026-08-14T02:36:38.000Z</time>
      </trkpt>
      <trkpt lat="22.756546" lon="108.496317">
        <ele>70.383525</ele>
        <time>2026-08-14T02:36:39.000Z</time>
      </trkpt>
      <trkpt lat="22.756565" lon="108.496364">
        <ele>70.370812</ele>
        <time>2026-08-14T02:36:40.000Z</time>
      </trkpt>
      <trkpt lat="22.756583" lon="108.496410">
        <ele>70.358432</ele>
        <time>2026-08-14T02:36:41.000Z</time>
      </trkpt>
      <trkpt lat="22.756603" lon="108.496455">
        <ele>70.346057</ele>
        <time>2026-08-14T02:36:42.000Z</time>
      </trkpt>
      <trkpt lat="22.756617" lon="108.496503">
        <ele>70.333585</ele>
        <time>2026-08-14T02:36:43.000Z</time>
      </trkpt>
      <trkpt lat="22.756633" lon="108.496551">
        <ele>70.320941</ele>
        <time>2026-08-14T02:36:44.000Z</time>
      </trkpt>
      <trkpt lat="22.756652" lon="108.496598">
        <ele>70.308228</ele>
        <time>2026-08-14T02:36:45.000Z</time>
      </trkpt>
      <trkpt lat="22.756669" lon="108.496647">
        <ele>70.295258</ele>
        <time>2026-08-14T02:36:46.000Z</time>
      </trkpt>
      <trkpt lat="22.756690" lon="108.496693">
        <ele>70.282542</ele>
        <time>2026-08-14T02:36:47.000Z</time>
      </trkpt>
      <trkpt lat="22.756709" lon="108.496740">
        <ele>70.269829</ele>
        <time>2026-08-14T02:36:48.000Z</time>
      </trkpt>
      <trkpt lat="22.756730" lon="108.496789">
        <ele>70.256443</ele>
        <time>2026-08-14T02:36:49.000Z</time>
      </trkpt>
      <trkpt lat="22.756752" lon="108.496836">
        <ele>70.243385</ele>
        <time>2026-08-14T02:36:50.000Z</time>
      </trkpt>
      <trkpt lat="22.756776" lon="108.496883">
        <ele>70.230076</ele>
        <time>2026-08-14T02:36:51.000Z</time>
      </trkpt>
      <trkpt lat="22.756799" lon="108.496931">
        <ele>70.216675</ele>
        <time>2026-08-14T02:36:52.000Z</time>
      </trkpt>
      <trkpt lat="22.756822" lon="108.496978">
        <ele>70.203493</ele>
        <time>2026-08-14T02:36:53.000Z</time>
      </trkpt>
      <trkpt lat="22.756845" lon="108.497027">
        <ele>70.189872</ele>
        <time>2026-08-14T02:36:54.000Z</time>
      </trkpt>
      <trkpt lat="22.756871" lon="108.497076">
        <ele>70.175867</ele>
        <time>2026-08-14T02:36:55.000Z</time>
      </trkpt>
      <trkpt lat="22.756896" lon="108.497124">
        <ele>70.162210</ele>
        <time>2026-08-14T02:36:56.000Z</time>
      </trkpt>
      <trkpt lat="22.756922" lon="108.497175">
        <ele>70.147774</ele>
        <time>2026-08-14T02:36:57.000Z</time>
      </trkpt>
      <trkpt lat="22.756947" lon="108.497225">
        <ele>70.133683</ele>
        <time>2026-08-14T02:36:58.000Z</time>
      </trkpt>
      <trkpt lat="22.756973" lon="108.497274">
        <ele>70.119678</ele>
        <time>2026-08-14T02:36:59.000Z</time>
      </trkpt>
      <trkpt lat="22.756999" lon="108.497324">
        <ele>70.105458</ele>
        <time>2026-08-14T02:37:00.000Z</time>
      </trkpt>
      <trkpt lat="22.757025" lon="108.497375">
        <ele>70.091021</ele>
        <time>2026-08-14T02:37:01.000Z</time>
      </trkpt>
      <trkpt lat="22.757052" lon="108.497428">
        <ele>70.076021</ele>
        <time>2026-08-14T02:37:02.000Z</time>
      </trkpt>
      <trkpt lat="22.757080" lon="108.497482">
        <ele>70.060674</ele>
        <time>2026-08-14T02:37:03.000Z</time>
      </trkpt>
      <trkpt lat="22.757107" lon="108.497537">
        <ele>70.045238</ele>
        <time>2026-08-14T02:37:04.000Z</time>
      </trkpt>
      <trkpt lat="22.757135" lon="108.497592">
        <ele>70.029674</ele>
        <time>2026-08-14T02:37:05.000Z</time>
      </trkpt>
      <trkpt lat="22.757165" lon="108.497649">
        <ele>70.013415</ele>
        <time>2026-08-14T02:37:06.000Z</time>
      </trkpt>
      <trkpt lat="22.757195" lon="108.497706">
        <ele>69.997156</ele>
        <time>2026-08-14T02:37:07.000Z</time>
      </trkpt>
      <trkpt lat="22.757225" lon="108.497765">
        <ele>69.980465</ele>
        <time>2026-08-14T02:37:08.000Z</time>
      </trkpt>
      <trkpt lat="22.757253" lon="108.497825">
        <ele>69.963806</ele>
        <time>2026-08-14T02:37:09.000Z</time>
      </trkpt>
      <trkpt lat="22.757277" lon="108.497888">
        <ele>69.866820</ele>
        <time>2026-08-14T02:37:10.000Z</time>
      </trkpt>
      <trkpt lat="22.757303" lon="108.497950">
        <ele>69.754684</ele>
        <time>2026-08-14T02:37:11.000Z</time>
      </trkpt>
      <trkpt lat="22.757331" lon="108.498012">
        <ele>69.641024</ele>
        <time>2026-08-14T02:37:12.000Z</time>
      </trkpt>
      <trkpt lat="22.757360" lon="108.498076">
        <ele>69.523621</ele>
        <time>2026-08-14T02:37:13.000Z</time>
      </trkpt>
      <trkpt lat="22.757388" lon="108.498140">
        <ele>69.406994</ele>
        <time>2026-08-14T02:37:14.000Z</time>
      </trkpt>
      <trkpt lat="22.757420" lon="108.498205">
        <ele>69.285683</ele>
        <time>2026-08-14T02:37:15.000Z</time>
      </trkpt>
      <trkpt lat="22.757451" lon="108.498269">
        <ele>69.166662</ele>
        <time>2026-08-14T02:37:16.000Z</time>
      </trkpt>
      <trkpt lat="22.757484" lon="108.498333">
        <ele>69.045940</ele>
        <time>2026-08-14T02:37:17.000Z</time>
      </trkpt>
      <trkpt lat="22.757523" lon="108.498392">
        <ele>68.926424</ele>
        <time>2026-08-14T02:37:18.000Z</time>
      </trkpt>
      <trkpt lat="22.757565" lon="108.498448">
        <ele>68.807582</ele>
        <time>2026-08-14T02:37:19.000Z</time>
      </trkpt>
      <trkpt lat="22.757611" lon="108.498501">
        <ele>68.687753</ele>
        <time>2026-08-14T02:37:20.000Z</time>
      </trkpt>
      <trkpt lat="22.757658" lon="108.498553">
        <ele>68.567874</ele>
        <time>2026-08-14T02:37:21.000Z</time>
      </trkpt>
      <trkpt lat="22.757705" lon="108.498603">
        <ele>68.450325</ele>
        <time>2026-08-14T02:37:22.000Z</time>
      </trkpt>
      <trkpt lat="22.757751" lon="108.498656">
        <ele>68.330496</ele>
        <time>2026-08-14T02:37:23.000Z</time>
      </trkpt>
      <trkpt lat="22.757798" lon="108.498709">
        <ele>68.209436</ele>
        <time>2026-08-14T02:37:24.000Z</time>
      </trkpt>
      <trkpt lat="22.757846" lon="108.498761">
        <ele>68.088301</ele>
        <time>2026-08-14T02:37:25.000Z</time>
      </trkpt>
      <trkpt lat="22.757894" lon="108.498814">
        <ele>67.965997</ele>
        <time>2026-08-14T02:37:26.000Z</time>
      </trkpt>
      <trkpt lat="22.757941" lon="108.498867">
        <ele>67.844937</ele>
        <time>2026-08-14T02:37:27.000Z</time>
      </trkpt>
      <trkpt lat="22.757993" lon="108.498916">
        <ele>67.721944</ele>
        <time>2026-08-14T02:37:28.000Z</time>
      </trkpt>
      <trkpt lat="22.758044" lon="108.498968">
        <ele>67.596962</ele>
        <time>2026-08-14T02:37:29.000Z</time>
      </trkpt>
      <trkpt lat="22.758098" lon="108.499015">
        <ele>67.473339</ele>
        <time>2026-08-14T02:37:30.000Z</time>
      </trkpt>
      <trkpt lat="22.758153" lon="108.499063">
        <ele>67.347293</ele>
        <time>2026-08-14T02:37:31.000Z</time>
      </trkpt>
      <trkpt lat="22.758207" lon="108.499112">
        <ele>67.221582</ele>
        <time>2026-08-14T02:37:32.000Z</time>
      </trkpt>
      <trkpt lat="22.758261" lon="108.499158">
        <ele>67.098983</ele>
        <time>2026-08-14T02:37:33.000Z</time>
      </trkpt>
      <trkpt lat="22.758316" lon="108.499205">
        <ele>66.973962</ele>
        <time>2026-08-14T02:37:34.000Z</time>
      </trkpt>
      <trkpt lat="22.758372" lon="108.499251">
        <ele>66.848536</ele>
        <time>2026-08-14T02:37:35.000Z</time>
      </trkpt>
      <trkpt lat="22.758428" lon="108.499299">
        <ele>66.721100</ele>
        <time>2026-08-14T02:37:36.000Z</time>
      </trkpt>
      <trkpt lat="22.758484" lon="108.499343">
        <ele>66.597662</ele>
        <time>2026-08-14T02:37:37.000Z</time>
      </trkpt>
      <trkpt lat="22.758542" lon="108.499387">
        <ele>66.471315</ele>
        <time>2026-08-14T02:37:38.000Z</time>
      </trkpt>
      <trkpt lat="22.758599" lon="108.499431">
        <ele>66.346426</ele>
        <time>2026-08-14T02:37:39.000Z</time>
      </trkpt>
      <trkpt lat="22.758656" lon="108.499476">
        <ele>66.220576</ele>
        <time>2026-08-14T02:37:40.000Z</time>
      </trkpt>
      <trkpt lat="22.758714" lon="108.499519">
        <ele>66.095166</ele>
        <time>2026-08-14T02:37:41.000Z</time>
      </trkpt>
      <trkpt lat="22.758774" lon="108.499562">
        <ele>65.966793</ele>
        <time>2026-08-14T02:37:42.000Z</time>
      </trkpt>
      <trkpt lat="22.758832" lon="108.499606">
        <ele>65.840446</ele>
        <time>2026-08-14T02:37:43.000Z</time>
      </trkpt>
      <trkpt lat="22.758891" lon="108.499651">
        <ele>65.711693</ele>
        <time>2026-08-14T02:37:44.000Z</time>
      </trkpt>
      <trkpt lat="22.758951" lon="108.499695">
        <ele>65.582405</ele>
        <time>2026-08-14T02:37:45.000Z</time>
      </trkpt>
      <trkpt lat="22.759010" lon="108.499737">
        <ele>65.456428</ele>
        <time>2026-08-14T02:37:46.000Z</time>
      </trkpt>
      <trkpt lat="22.759069" lon="108.499782">
        <ele>65.327674</ele>
        <time>2026-08-14T02:37:47.000Z</time>
      </trkpt>
      <trkpt lat="22.759129" lon="108.499827">
        <ele>65.197457</ele>
        <time>2026-08-14T02:37:48.000Z</time>
      </trkpt>
      <trkpt lat="22.759186" lon="108.499873">
        <ele>65.070632</ele>
        <time>2026-08-14T02:37:49.000Z</time>
      </trkpt>
      <trkpt lat="22.759245" lon="108.499918">
        <ele>64.941878</ele>
        <time>2026-08-14T02:37:50.000Z</time>
      </trkpt>
      <trkpt lat="22.759306" lon="108.499963">
        <ele>64.810189</ele>
        <time>2026-08-14T02:37:51.000Z</time>
      </trkpt>
      <trkpt lat="22.759365" lon="108.500007">
        <ele>64.682376</ele>
        <time>2026-08-14T02:37:52.000Z</time>
      </trkpt>
      <trkpt lat="22.759422" lon="108.500053">
        <ele>64.555551</ele>
        <time>2026-08-14T02:37:53.000Z</time>
      </trkpt>
      <trkpt lat="22.759482" lon="108.500097">
        <ele>64.426263</ele>
        <time>2026-08-14T02:37:54.000Z</time>
      </trkpt>
      <trkpt lat="22.759541" lon="108.500142">
        <ele>64.297510</ele>
        <time>2026-08-14T02:37:55.000Z</time>
      </trkpt>
      <trkpt lat="22.759598" lon="108.500187">
        <ele>64.171660</ele>
        <time>2026-08-14T02:37:56.000Z</time>
      </trkpt>
      <trkpt lat="22.759655" lon="108.500230">
        <ele>64.047719</ele>
        <time>2026-08-14T02:37:57.000Z</time>
      </trkpt>
      <trkpt lat="22.759712" lon="108.500274">
        <ele>63.922831</ele>
        <time>2026-08-14T02:37:58.000Z</time>
      </trkpt>
      <trkpt lat="22.759769" lon="108.500318">
        <ele>63.797943</ele>
        <time>2026-08-14T02:37:59.000Z</time>
      </trkpt>
      <trkpt lat="22.759825" lon="108.500363">
        <ele>63.673532</ele>
        <time>2026-08-14T02:38:00.000Z</time>
      </trkpt>
      <trkpt lat="22.759881" lon="108.500408">
        <ele>63.549121</ele>
        <time>2026-08-14T02:38:01.000Z</time>
      </trkpt>
      <trkpt lat="22.759938" lon="108.500453">
        <ele>63.466635</ele>
        <time>2026-08-14T02:38:02.000Z</time>
      </trkpt>
      <trkpt lat="22.759995" lon="108.500498">
        <ele>63.387821</ele>
        <time>2026-08-14T02:38:03.000Z</time>
      </trkpt>
      <trkpt lat="22.760053" lon="108.500541">
        <ele>63.309282</ele>
        <time>2026-08-14T02:38:04.000Z</time>
      </trkpt>
      <trkpt lat="22.760112" lon="108.500584">
        <ele>63.229818</ele>
        <time>2026-08-14T02:38:05.000Z</time>
      </trkpt>
      <trkpt lat="22.760171" lon="108.500626">
        <ele>63.150924</ele>
        <time>2026-08-14T02:38:06.000Z</time>
      </trkpt>
      <trkpt lat="22.760231" lon="108.500668">
        <ele>63.071093</ele>
        <time>2026-08-14T02:38:07.000Z</time>
      </trkpt>
      <trkpt lat="22.760292" lon="108.500711">
        <ele>62.989764</ele>
        <time>2026-08-14T02:38:08.000Z</time>
      </trkpt>
      <trkpt lat="22.760353" lon="108.500754">
        <ele>62.908434</ele>
        <time>2026-08-14T02:38:09.000Z</time>
      </trkpt>
      <trkpt lat="22.760415" lon="108.500797">
        <ele>62.826166</ele>
        <time>2026-08-14T02:38:10.000Z</time>
      </trkpt>
      <trkpt lat="22.760477" lon="108.500839">
        <ele>62.744447</ele>
        <time>2026-08-14T02:38:11.000Z</time>
      </trkpt>
      <trkpt lat="22.760541" lon="108.500883">
        <ele>62.659739</ele>
        <time>2026-08-14T02:38:12.000Z</time>
      </trkpt>
      <trkpt lat="22.760602" lon="108.500930">
        <ele>62.576091</ele>
        <time>2026-08-14T02:38:13.000Z</time>
      </trkpt>
      <trkpt lat="22.760664" lon="108.500979">
        <ele>62.490332</ele>
        <time>2026-08-14T02:38:14.000Z</time>
      </trkpt>
      <trkpt lat="22.760726" lon="108.501027">
        <ele>62.405175</ele>
        <time>2026-08-14T02:38:15.000Z</time>
      </trkpt>
      <trkpt lat="22.760788" lon="108.501077">
        <ele>62.318805</ele>
        <time>2026-08-14T02:38:16.000Z</time>
      </trkpt>
      <trkpt lat="22.760850" lon="108.501128">
        <ele>62.231815</ele>
        <time>2026-08-14T02:38:17.000Z</time>
      </trkpt>
      <trkpt lat="22.760910" lon="108.501179">
        <ele>62.146596</ele>
        <time>2026-08-14T02:38:18.000Z</time>
      </trkpt>
      <trkpt lat="22.760970" lon="108.501232">
        <ele>62.060090</ele>
        <time>2026-08-14T02:38:19.000Z</time>
      </trkpt>
      <trkpt lat="22.761030" lon="108.501283">
        <ele>61.974871</ele>
        <time>2026-08-14T02:38:20.000Z</time>
      </trkpt>
      <trkpt lat="22.761089" lon="108.501334">
        <ele>61.890529</ele>
        <time>2026-08-14T02:38:21.000Z</time>
      </trkpt>
      <trkpt lat="22.761147" lon="108.501388">
        <ele>61.805077</ele>
        <time>2026-08-14T02:38:22.000Z</time>
      </trkpt>
      <trkpt lat="22.761203" lon="108.501441">
        <ele>61.721990</ele>
        <time>2026-08-14T02:38:23.000Z</time>
      </trkpt>
      <trkpt lat="22.761258" lon="108.501494">
        <ele>61.639741</ele>
        <time>2026-08-14T02:38:24.000Z</time>
      </trkpt>
      <trkpt lat="22.761311" lon="108.501547">
        <ele>61.559151</ele>
        <time>2026-08-14T02:38:25.000Z</time>
      </trkpt>
      <trkpt lat="22.761362" lon="108.501598">
        <ele>61.547863</ele>
        <time>2026-08-14T02:38:26.000Z</time>
      </trkpt>
      <trkpt lat="22.761413" lon="108.501648">
        <ele>61.579198</ele>
        <time>2026-08-14T02:38:27.000Z</time>
      </trkpt>
      <trkpt lat="22.761461" lon="108.501699">
        <ele>61.609826</ele>
        <time>2026-08-14T02:38:28.000Z</time>
      </trkpt>
      <trkpt lat="22.761508" lon="108.501749">
        <ele>61.639833</ele>
        <time>2026-08-14T02:38:29.000Z</time>
      </trkpt>
      <trkpt lat="22.761556" lon="108.501796">
        <ele>61.669308</ele>
        <time>2026-08-14T02:38:30.000Z</time>
      </trkpt>
      <trkpt lat="22.761601" lon="108.501844">
        <ele>61.698077</ele>
        <time>2026-08-14T02:38:31.000Z</time>
      </trkpt>
      <trkpt lat="22.761644" lon="108.501892">
        <ele>61.726202</ele>
        <time>2026-08-14T02:38:32.000Z</time>
      </trkpt>
      <trkpt lat="22.761686" lon="108.501941">
        <ele>61.754319</ele>
        <time>2026-08-14T02:38:33.000Z</time>
      </trkpt>
      <trkpt lat="22.761729" lon="108.501987">
        <ele>61.781848</ele>
        <time>2026-08-14T02:38:34.000Z</time>
      </trkpt>
      <trkpt lat="22.761772" lon="108.502034">
        <ele>61.809673</ele>
        <time>2026-08-14T02:38:35.000Z</time>
      </trkpt>
      <trkpt lat="22.761819" lon="108.502078">
        <ele>61.837972</ele>
        <time>2026-08-14T02:38:36.000Z</time>
      </trkpt>
      <trkpt lat="22.761866" lon="108.502125">
        <ele>61.867111</ele>
        <time>2026-08-14T02:38:37.000Z</time>
      </trkpt>
      <trkpt lat="22.761904" lon="108.502176">
        <ele>61.894668</ele>
        <time>2026-08-14T02:38:38.000Z</time>
      </trkpt>
      <trkpt lat="22.761946" lon="108.502225">
        <ele>61.922784</ele>
        <time>2026-08-14T02:38:39.000Z</time>
      </trkpt>
      <trkpt lat="22.761989" lon="108.502274">
        <ele>61.951213</ele>
        <time>2026-08-14T02:38:40.000Z</time>
      </trkpt>
      <trkpt lat="22.762024" lon="108.502329">
        <ele>61.979298</ele>
        <time>2026-08-14T02:38:41.000Z</time>
      </trkpt>
      <trkpt lat="22.762062" lon="108.502379">
        <ele>62.006529</ele>
        <time>2026-08-14T02:38:42.000Z</time>
      </trkpt>
      <trkpt lat="22.762102" lon="108.502428">
        <ele>62.034033</ele>
        <time>2026-08-14T02:38:43.000Z</time>
      </trkpt>
      <trkpt lat="22.762144" lon="108.502475">
        <ele>62.061540</ele>
        <time>2026-08-14T02:38:44.000Z</time>
      </trkpt>
      <trkpt lat="22.762182" lon="108.502524">
        <ele>62.088448</ele>
        <time>2026-08-14T02:38:45.000Z</time>
      </trkpt>
      <trkpt lat="22.762221" lon="108.502574">
        <ele>62.115971</ele>
        <time>2026-08-14T02:38:46.000Z</time>
      </trkpt>
      <trkpt lat="22.762258" lon="108.502621">
        <ele>62.141944</ele>
        <time>2026-08-14T02:38:47.000Z</time>
      </trkpt>
      <trkpt lat="22.762295" lon="108.502672">
        <ele>62.169216</ele>
        <time>2026-08-14T02:38:48.000Z</time>
      </trkpt>
      <trkpt lat="22.762332" lon="108.502722">
        <ele>62.196160</ele>
        <time>2026-08-14T02:38:49.000Z</time>
      </trkpt>
      <trkpt lat="22.762366" lon="108.502774">
        <ele>62.222951</ele>
        <time>2026-08-14T02:38:50.000Z</time>
      </trkpt>
      <trkpt lat="22.762403" lon="108.502825">
        <ele>62.250223</ele>
        <time>2026-08-14T02:38:51.000Z</time>
      </trkpt>
      <trkpt lat="22.762442" lon="108.502875">
        <ele>62.277747</ele>
        <time>2026-08-14T02:38:52.000Z</time>
      </trkpt>
      <trkpt lat="22.762480" lon="108.502926">
        <ele>62.305303</ele>
        <time>2026-08-14T02:38:53.000Z</time>
      </trkpt>
      <trkpt lat="22.762519" lon="108.502977">
        <ele>62.333149</ele>
        <time>2026-08-14T02:38:54.000Z</time>
      </trkpt>
      <trkpt lat="22.762554" lon="108.503031">
        <ele>62.363337</ele>
        <time>2026-08-14T02:38:55.000Z</time>
      </trkpt>
      <trkpt lat="22.762589" lon="108.503084">
        <ele>62.396123</ele>
        <time>2026-08-14T02:38:56.000Z</time>
      </trkpt>
      <trkpt lat="22.762620" lon="108.503140">
        <ele>62.428973</ele>
        <time>2026-08-14T02:38:57.000Z</time>
      </trkpt>
      <trkpt lat="22.762653" lon="108.503194">
        <ele>62.461554</ele>
        <time>2026-08-14T02:38:58.000Z</time>
      </trkpt>
      <trkpt lat="22.762686" lon="108.503249">
        <ele>62.494555</ele>
        <time>2026-08-14T02:38:59.000Z</time>
      </trkpt>
      <trkpt lat="22.762721" lon="108.503302">
        <ele>62.527341</ele>
        <time>2026-08-14T02:39:00.000Z</time>
      </trkpt>
      <trkpt lat="22.762758" lon="108.503353">
        <ele>62.559977</ele>
        <time>2026-08-14T02:39:01.000Z</time>
      </trkpt>
      <trkpt lat="22.762795" lon="108.503404">
        <ele>62.592614</ele>
        <time>2026-08-14T02:39:02.000Z</time>
      </trkpt>
      <trkpt lat="22.762832" lon="108.503454">
        <ele>62.624857</ele>
        <time>2026-08-14T02:39:03.000Z</time>
      </trkpt>
      <trkpt lat="22.762868" lon="108.503504">
        <ele>62.656761</ele>
        <time>2026-08-14T02:39:04.000Z</time>
      </trkpt>
      <trkpt lat="22.762905" lon="108.503554">
        <ele>62.689004</ele>
        <time>2026-08-14T02:39:05.000Z</time>
      </trkpt>
      <trkpt lat="22.762941" lon="108.503604">
        <ele>62.720908</ele>
        <time>2026-08-14T02:39:06.000Z</time>
      </trkpt>
      <trkpt lat="22.762978" lon="108.503655">
        <ele>62.753544</ele>
        <time>2026-08-14T02:39:07.000Z</time>
      </trkpt>
      <trkpt lat="22.763014" lon="108.503707">
        <ele>62.786247</ele>
        <time>2026-08-14T02:39:08.000Z</time>
      </trkpt>
      <trkpt lat="22.763051" lon="108.503758">
        <ele>62.818883</ele>
        <time>2026-08-14T02:39:09.000Z</time>
      </trkpt>
      <trkpt lat="22.763089" lon="108.503808">
        <ele>62.851470</ele>
        <time>2026-08-14T02:39:10.000Z</time>
      </trkpt>
      <trkpt lat="22.763127" lon="108.503859">
        <ele>62.884447</ele>
        <time>2026-08-14T02:39:11.000Z</time>
      </trkpt>
      <trkpt lat="22.763163" lon="108.503910">
        <ele>62.916749</ele>
        <time>2026-08-14T02:39:12.000Z</time>
      </trkpt>
      <trkpt lat="22.763200" lon="108.503961">
        <ele>62.949385</ele>
        <time>2026-08-14T02:39:13.000Z</time>
      </trkpt>
      <trkpt lat="22.763235" lon="108.504012">
        <ele>62.981359</ele>
        <time>2026-08-14T02:39:14.000Z</time>
      </trkpt>
      <trkpt lat="22.763273" lon="108.504064">
        <ele>63.014728</ele>
        <time>2026-08-14T02:39:15.000Z</time>
      </trkpt>
      <trkpt lat="22.763308" lon="108.504113">
        <ele>63.045900</ele>
        <time>2026-08-14T02:39:16.000Z</time>
      </trkpt>
      <trkpt lat="22.763347" lon="108.504163">
        <ele>63.078836</ele>
        <time>2026-08-14T02:39:17.000Z</time>
      </trkpt>
      <trkpt lat="22.763385" lon="108.504214">
        <ele>63.111813</ele>
        <time>2026-08-14T02:39:18.000Z</time>
      </trkpt>
      <trkpt lat="22.763422" lon="108.504263">
        <ele>63.143665</ele>
        <time>2026-08-14T02:39:19.000Z</time>
      </trkpt>
      <trkpt lat="22.763458" lon="108.504313">
        <ele>63.175569</ele>
        <time>2026-08-14T02:39:20.000Z</time>
      </trkpt>
      <trkpt lat="22.763494" lon="108.504363">
        <ele>63.207473</ele>
        <time>2026-08-14T02:39:21.000Z</time>
      </trkpt>
      <trkpt lat="22.763530" lon="108.504413">
        <ele>63.239377</ele>
        <time>2026-08-14T02:39:22.000Z</time>
      </trkpt>
      <trkpt lat="22.763566" lon="108.504464">
        <ele>63.271679</ele>
        <time>2026-08-14T02:39:23.000Z</time>
      </trkpt>
      <trkpt lat="22.763602" lon="108.504516">
        <ele>63.304382</ele>
        <time>2026-08-14T02:39:24.000Z</time>
      </trkpt>
      <trkpt lat="22.763638" lon="108.504566">
        <ele>63.335132</ele>
        <time>2026-08-14T02:39:25.000Z</time>
      </trkpt>
      <trkpt lat="22.763673" lon="108.504618">
        <ele>63.362049</ele>
        <time>2026-08-14T02:39:26.000Z</time>
      </trkpt>
      <trkpt lat="22.763710" lon="108.504670">
        <ele>63.389510</ele>
        <time>2026-08-14T02:39:27.000Z</time>
      </trkpt>
      <trkpt lat="22.763745" lon="108.504720">
        <ele>63.415756</ele>
        <time>2026-08-14T02:39:28.000Z</time>
      </trkpt>
      <trkpt lat="22.763782" lon="108.504768">
        <ele>63.441913</ele>
        <time>2026-08-14T02:39:29.000Z</time>
      </trkpt>
      <trkpt lat="22.763818" lon="108.504815">
        <ele>63.467459</ele>
        <time>2026-08-14T02:39:30.000Z</time>
      </trkpt>
      <trkpt lat="22.763855" lon="108.504863">
        <ele>63.493616</ele>
        <time>2026-08-14T02:39:31.000Z</time>
      </trkpt>
      <trkpt lat="22.763894" lon="108.504911">
        <ele>63.520364</ele>
        <time>2026-08-14T02:39:32.000Z</time>
      </trkpt>
      <trkpt lat="22.763930" lon="108.504959">
        <ele>63.546232</ele>
        <time>2026-08-14T02:39:33.000Z</time>
      </trkpt>
      <trkpt lat="22.763966" lon="108.505008">
        <ele>63.572427</ele>
        <time>2026-08-14T02:39:34.000Z</time>
      </trkpt>
      <trkpt lat="22.763999" lon="108.505057">
        <ele>63.597796</ele>
        <time>2026-08-14T02:39:35.000Z</time>
      </trkpt>
      <trkpt lat="22.764034" lon="108.505104">
        <ele>63.623054</ele>
        <time>2026-08-14T02:39:36.000Z</time>
      </trkpt>
      <trkpt lat="22.764067" lon="108.505151">
        <ele>63.647753</ele>
        <time>2026-08-14T02:39:37.000Z</time>
      </trkpt>
      <trkpt lat="22.764101" lon="108.505198">
        <ele>63.672729</ele>
        <time>2026-08-14T02:39:38.000Z</time>
      </trkpt>
      <trkpt lat="22.764135" lon="108.505244">
        <ele>63.697377</ele>
        <time>2026-08-14T02:39:39.000Z</time>
      </trkpt>
      <trkpt lat="22.764168" lon="108.505292">
        <ele>63.722410</ele>
        <time>2026-08-14T02:39:40.000Z</time>
      </trkpt>
      <trkpt lat="22.764201" lon="108.505338">
        <ele>63.746777</ele>
        <time>2026-08-14T02:39:41.000Z</time>
      </trkpt>
      <trkpt lat="22.764236" lon="108.505385">
        <ele>63.772035</ele>
        <time>2026-08-14T02:39:42.000Z</time>
      </trkpt>
      <trkpt lat="22.764271" lon="108.505432">
        <ele>63.797293</ele>
        <time>2026-08-14T02:39:43.000Z</time>
      </trkpt>
      <trkpt lat="22.764308" lon="108.505475">
        <ele>63.821883</ele>
        <time>2026-08-14T02:39:44.000Z</time>
      </trkpt>
      <trkpt lat="22.764343" lon="108.505518">
        <ele>63.845864</ele>
        <time>2026-08-14T02:39:45.000Z</time>
      </trkpt>
      <trkpt lat="22.764379" lon="108.505563">
        <ele>63.870772</ele>
        <time>2026-08-14T02:39:46.000Z</time>
      </trkpt>
      <trkpt lat="22.764416" lon="108.505608">
        <ele>63.895979</ele>
        <time>2026-08-14T02:39:47.000Z</time>
      </trkpt>
      <trkpt lat="22.764451" lon="108.505651">
        <ele>63.919959</ele>
        <time>2026-08-14T02:39:48.000Z</time>
      </trkpt>
      <trkpt lat="22.764486" lon="108.505693">
        <ele>63.943628</ele>
        <time>2026-08-14T02:39:49.000Z</time>
      </trkpt>
      <trkpt lat="22.764522" lon="108.505737">
        <ele>63.968222</ele>
        <time>2026-08-14T02:39:50.000Z</time>
      </trkpt>
      <trkpt lat="22.764560" lon="108.505780">
        <ele>63.993123</ele>
        <time>2026-08-14T02:39:51.000Z</time>
      </trkpt>
      <trkpt lat="22.764598" lon="108.505822">
        <ele>64.017724</ele>
        <time>2026-08-14T02:39:52.000Z</time>
      </trkpt>
      <trkpt lat="22.764636" lon="108.505865">
        <ele>64.042625</ele>
        <time>2026-08-14T02:39:53.000Z</time>
      </trkpt>
      <trkpt lat="22.764674" lon="108.505909">
        <ele>64.067830</ele>
        <time>2026-08-14T02:39:54.000Z</time>
      </trkpt>
      <trkpt lat="22.764709" lon="108.505952">
        <ele>64.091810</ele>
        <time>2026-08-14T02:39:55.000Z</time>
      </trkpt>
      <trkpt lat="22.764748" lon="108.505995">
        <ele>64.117028</ele>
        <time>2026-08-14T02:39:56.000Z</time>
      </trkpt>
      <trkpt lat="22.764786" lon="108.506039">
        <ele>64.142232</ele>
        <time>2026-08-14T02:39:57.000Z</time>
      </trkpt>
      <trkpt lat="22.764825" lon="108.506080">
        <ele>64.171735</ele>
        <time>2026-08-14T02:39:58.000Z</time>
      </trkpt>
      <trkpt lat="22.764863" lon="108.506122">
        <ele>64.201815</ele>
        <time>2026-08-14T02:39:59.000Z</time>
      </trkpt>
      <trkpt lat="22.764904" lon="108.506163">
        <ele>64.232734</ele>
        <time>2026-08-14T02:40:00.000Z</time>
      </trkpt>
      <trkpt lat="22.764946" lon="108.506205">
        <ele>64.264407</ele>
        <time>2026-08-14T02:40:01.000Z</time>
      </trkpt>
      <trkpt lat="22.764988" lon="108.506248">
        <ele>64.296428</ele>
        <time>2026-08-14T02:40:02.000Z</time>
      </trkpt>
      <trkpt lat="22.765030" lon="108.506290">
        <ele>64.328101</ele>
        <time>2026-08-14T02:40:03.000Z</time>
      </trkpt>
      <trkpt lat="22.765073" lon="108.506332">
        <ele>64.360184</ele>
        <time>2026-08-14T02:40:04.000Z</time>
      </trkpt>
      <trkpt lat="22.765117" lon="108.506374">
        <ele>64.392681</ele>
        <time>2026-08-14T02:40:05.000Z</time>
      </trkpt>
      <trkpt lat="22.765161" lon="108.506415">
        <ele>64.424842</ele>
        <time>2026-08-14T02:40:06.000Z</time>
      </trkpt>
      <trkpt lat="22.765204" lon="108.506455">
        <ele>64.456250</ele>
        <time>2026-08-14T02:40:07.000Z</time>
      </trkpt>
      <trkpt lat="22.765246" lon="108.506496">
        <ele>64.487578</ele>
        <time>2026-08-14T02:40:08.000Z</time>
      </trkpt>
      <trkpt lat="22.765288" lon="108.506537">
        <ele>64.518907</ele>
        <time>2026-08-14T02:40:09.000Z</time>
      </trkpt>
      <trkpt lat="22.765330" lon="108.506575">
        <ele>64.549231</ele>
        <time>2026-08-14T02:40:10.000Z</time>
      </trkpt>
      <trkpt lat="22.765372" lon="108.506614">
        <ele>64.579885</ele>
        <time>2026-08-14T02:40:11.000Z</time>
      </trkpt>
      <trkpt lat="22.765414" lon="108.506653">
        <ele>64.610539</ele>
        <time>2026-08-14T02:40:12.000Z</time>
      </trkpt>
      <trkpt lat="22.765455" lon="108.506693">
        <ele>64.641113</ele>
        <time>2026-08-14T02:40:13.000Z</time>
      </trkpt>
      <trkpt lat="22.765497" lon="108.506732">
        <ele>64.671767</ele>
        <time>2026-08-14T02:40:14.000Z</time>
      </trkpt>
      <trkpt lat="22.765540" lon="108.506771">
        <ele>64.702844</ele>
        <time>2026-08-14T02:40:15.000Z</time>
      </trkpt>
      <trkpt lat="22.765584" lon="108.506810">
        <ele>64.734349</ele>
        <time>2026-08-14T02:40:16.000Z</time>
      </trkpt>
      <trkpt lat="22.765630" lon="108.506847">
        <ele>64.766100</ele>
        <time>2026-08-14T02:40:17.000Z</time>
      </trkpt>
      <trkpt lat="22.765675" lon="108.506882">
        <ele>64.796801</ele>
        <time>2026-08-14T02:40:18.000Z</time>
      </trkpt>
      <trkpt lat="22.765718" lon="108.506920">
        <ele>64.827552</ele>
        <time>2026-08-14T02:40:19.000Z</time>
      </trkpt>
      <trkpt lat="22.765761" lon="108.506958">
        <ele>64.858304</ele>
        <time>2026-08-14T02:40:20.000Z</time>
      </trkpt>
      <trkpt lat="22.765803" lon="108.506996">
        <ele>64.888628</ele>
        <time>2026-08-14T02:40:21.000Z</time>
      </trkpt>
      <trkpt lat="22.765845" lon="108.507034">
        <ele>64.918952</ele>
        <time>2026-08-14T02:40:22.000Z</time>
      </trkpt>
      <trkpt lat="22.765887" lon="108.507072">
        <ele>64.949276</ele>
        <time>2026-08-14T02:40:23.000Z</time>
      </trkpt>
      <trkpt lat="22.765930" lon="108.507107">
        <ele>64.979083</ele>
        <time>2026-08-14T02:40:24.000Z</time>
      </trkpt>
      <trkpt lat="22.765976" lon="108.507141">
        <ele>65.009945</ele>
        <time>2026-08-14T02:40:25.000Z</time>
      </trkpt>
      <trkpt lat="22.766022" lon="108.507174">
        <ele>65.040522</ele>
        <time>2026-08-14T02:40:26.000Z</time>
      </trkpt>
      <trkpt lat="22.766068" lon="108.507209">
        <ele>65.071675</ele>
        <time>2026-08-14T02:40:27.000Z</time>
      </trkpt>
      <trkpt lat="22.766113" lon="108.507243">
        <ele>65.102080</ele>
        <time>2026-08-14T02:40:28.000Z</time>
      </trkpt>
      <trkpt lat="22.766158" lon="108.507276">
        <ele>65.132196</ele>
        <time>2026-08-14T02:40:29.000Z</time>
      </trkpt>
      <trkpt lat="22.766205" lon="108.507309">
        <ele>65.161755</ele>
        <time>2026-08-14T02:40:30.000Z</time>
      </trkpt>
      <trkpt lat="22.766251" lon="108.507342">
        <ele>65.190184</ele>
        <time>2026-08-14T02:40:31.000Z</time>
      </trkpt>
      <trkpt lat="22.766297" lon="108.507375">
        <ele>65.218614</ele>
        <time>2026-08-14T02:40:32.000Z</time>
      </trkpt>
      <trkpt lat="22.766345" lon="108.507408">
        <ele>65.247908</ele>
        <time>2026-08-14T02:40:33.000Z</time>
      </trkpt>
      <trkpt lat="22.766393" lon="108.507438">
        <ele>65.276465</ele>
        <time>2026-08-14T02:40:34.000Z</time>
      </trkpt>
      <trkpt lat="22.766441" lon="108.507468">
        <ele>65.305021</ele>
        <time>2026-08-14T02:40:35.000Z</time>
      </trkpt>
      <trkpt lat="22.766488" lon="108.507499">
        <ele>65.333376</ele>
        <time>2026-08-14T02:40:36.000Z</time>
      </trkpt>
      <trkpt lat="22.766536" lon="108.507530">
        <ele>65.362173</ele>
        <time>2026-08-14T02:40:37.000Z</time>
      </trkpt>
      <trkpt lat="22.766584" lon="108.507560">
        <ele>65.390729</ele>
        <time>2026-08-14T02:40:38.000Z</time>
      </trkpt>
      <trkpt lat="22.766632" lon="108.507589">
        <ele>65.419052</ele>
        <time>2026-08-14T02:40:39.000Z</time>
      </trkpt>
      <trkpt lat="22.766680" lon="108.507619">
        <ele>65.447608</ele>
        <time>2026-08-14T02:40:40.000Z</time>
      </trkpt>
      <trkpt lat="22.766728" lon="108.507648">
        <ele>65.475930</ele>
        <time>2026-08-14T02:40:41.000Z</time>
      </trkpt>
      <trkpt lat="22.766776" lon="108.507677">
        <ele>65.504252</ele>
        <time>2026-08-14T02:40:42.000Z</time>
      </trkpt>
      <trkpt lat="22.766826" lon="108.507708">
        <ele>65.533939</ele>
        <time>2026-08-14T02:40:43.000Z</time>
      </trkpt>
      <trkpt lat="22.766875" lon="108.507737">
        <ele>65.562713</ele>
        <time>2026-08-14T02:40:44.000Z</time>
      </trkpt>
      <trkpt lat="22.766924" lon="108.507765">
        <ele>65.591262</ele>
        <time>2026-08-14T02:40:45.000Z</time>
      </trkpt>
      <trkpt lat="22.766974" lon="108.507792">
        <ele>65.620053</ele>
        <time>2026-08-14T02:40:46.000Z</time>
      </trkpt>
      <trkpt lat="22.767023" lon="108.507819">
        <ele>65.648383</ele>
        <time>2026-08-14T02:40:47.000Z</time>
      </trkpt>
      <trkpt lat="22.767072" lon="108.507846">
        <ele>65.676714</ele>
        <time>2026-08-14T02:40:48.000Z</time>
      </trkpt>
      <trkpt lat="22.767121" lon="108.507872">
        <ele>65.704832</ele>
        <time>2026-08-14T02:40:49.000Z</time>
      </trkpt>
      <trkpt lat="22.767169" lon="108.507899">
        <ele>65.732704</ele>
        <time>2026-08-14T02:40:50.000Z</time>
      </trkpt>
      <trkpt lat="22.767217" lon="108.507927">
        <ele>65.760798</ele>
        <time>2026-08-14T02:40:51.000Z</time>
      </trkpt>
      <trkpt lat="22.767264" lon="108.507954">
        <ele>65.788213</ele>
        <time>2026-08-14T02:40:52.000Z</time>
      </trkpt>
      <trkpt lat="22.767311" lon="108.507982">
        <ele>65.815854</ele>
        <time>2026-08-14T02:40:53.000Z</time>
      </trkpt>
      <trkpt lat="22.767355" lon="108.508011">
        <ele>65.842394</ele>
        <time>2026-08-14T02:40:54.000Z</time>
      </trkpt>
      <trkpt lat="22.767401" lon="108.508042">
        <ele>65.870310</ele>
        <time>2026-08-14T02:40:55.000Z</time>
      </trkpt>
      <trkpt lat="22.767450" lon="108.508070">
        <ele>65.898859</ele>
        <time>2026-08-14T02:40:56.000Z</time>
      </trkpt>
      <trkpt lat="22.767498" lon="108.508098">
        <ele>65.926953</ele>
        <time>2026-08-14T02:40:57.000Z</time>
      </trkpt>
      <trkpt lat="22.767545" lon="108.508127">
        <ele>65.954826</ele>
        <time>2026-08-14T02:40:58.000Z</time>
      </trkpt>
      <trkpt lat="22.767591" lon="108.508156">
        <ele>65.982252</ele>
        <time>2026-08-14T02:40:59.000Z</time>
      </trkpt>
      <trkpt lat="22.767640" lon="108.508184">
        <ele>66.010801</ele>
        <time>2026-08-14T02:41:00.000Z</time>
      </trkpt>
      <trkpt lat="22.767688" lon="108.508211">
        <ele>66.038672</ele>
        <time>2026-08-14T02:41:01.000Z</time>
      </trkpt>
      <trkpt lat="22.767738" lon="108.508237">
        <ele>66.067255</ele>
        <time>2026-08-14T02:41:02.000Z</time>
      </trkpt>
      <trkpt lat="22.767786" lon="108.508265">
        <ele>66.051186</ele>
        <time>2026-08-14T02:41:03.000Z</time>
      </trkpt>
      <trkpt lat="22.767832" lon="108.508295">
        <ele>66.032023</ele>
        <time>2026-08-14T02:41:04.000Z</time>
      </trkpt>
      <trkpt lat="22.767881" lon="108.508325">
        <ele>66.011935</ele>
        <time>2026-08-14T02:41:05.000Z</time>
      </trkpt>
      <trkpt lat="22.767929" lon="108.508354">
        <ele>65.992319</ele>
        <time>2026-08-14T02:41:06.000Z</time>
      </trkpt>
      <trkpt lat="22.767976" lon="108.508382">
        <ele>65.973175</ele>
        <time>2026-08-14T02:41:07.000Z</time>
      </trkpt>
      <trkpt lat="22.768025" lon="108.508413">
        <ele>65.952922</ele>
        <time>2026-08-14T02:41:08.000Z</time>
      </trkpt>
      <trkpt lat="22.768075" lon="108.508444">
        <ele>65.932361</ele>
        <time>2026-08-14T02:41:09.000Z</time>
      </trkpt>
      <trkpt lat="22.768125" lon="108.508474">
        <ele>65.911961</ele>
        <time>2026-08-14T02:41:10.000Z</time>
      </trkpt>
      <trkpt lat="22.768175" lon="108.508503">
        <ele>65.891718</ele>
        <time>2026-08-14T02:41:11.000Z</time>
      </trkpt>
      <trkpt lat="22.768224" lon="108.508532">
        <ele>65.871789</ele>
        <time>2026-08-14T02:41:12.000Z</time>
      </trkpt>
      <trkpt lat="22.768272" lon="108.508560">
        <ele>65.852332</ele>
        <time>2026-08-14T02:41:13.000Z</time>
      </trkpt>
      <trkpt lat="22.768320" lon="108.508589">
        <ele>65.832716</ele>
        <time>2026-08-14T02:41:14.000Z</time>
      </trkpt>
      <trkpt lat="22.768369" lon="108.508619">
        <ele>65.812627</ele>
        <time>2026-08-14T02:41:15.000Z</time>
      </trkpt>
      <trkpt lat="22.768418" lon="108.508649">
        <ele>65.792539</ele>
        <time>2026-08-14T02:41:16.000Z</time>
      </trkpt>
      <trkpt lat="22.768470" lon="108.508677">
        <ele>65.771812</ele>
        <time>2026-08-14T02:41:17.000Z</time>
      </trkpt>
      <trkpt lat="22.768520" lon="108.508707">
        <ele>65.751412</ele>
        <time>2026-08-14T02:41:18.000Z</time>
      </trkpt>
      <trkpt lat="22.768570" lon="108.508739">
        <ele>65.730685</ele>
        <time>2026-08-14T02:41:19.000Z</time>
      </trkpt>
      <trkpt lat="22.768621" lon="108.508770">
        <ele>65.709813</ele>
        <time>2026-08-14T02:41:20.000Z</time>
      </trkpt>
      <trkpt lat="22.768672" lon="108.508800">
        <ele>65.689100</ele>
        <time>2026-08-14T02:41:21.000Z</time>
      </trkpt>
      <trkpt lat="22.768721" lon="108.508832">
        <ele>65.668680</ele>
        <time>2026-08-14T02:41:22.000Z</time>
      </trkpt>
      <trkpt lat="22.768765" lon="108.508862">
        <ele>65.650125</ele>
        <time>2026-08-14T02:41:23.000Z</time>
      </trkpt>
      <trkpt lat="22.768814" lon="108.508891">
        <ele>65.630197</ele>
        <time>2026-08-14T02:41:24.000Z</time>
      </trkpt>
      <trkpt lat="22.768863" lon="108.508921">
        <ele>65.610108</ele>
        <time>2026-08-14T02:41:25.000Z</time>
      </trkpt>
      <trkpt lat="22.768912" lon="108.508952">
        <ele>65.589856</ele>
        <time>2026-08-14T02:41:26.000Z</time>
      </trkpt>
      <trkpt lat="22.768963" lon="108.508980">
        <ele>65.569449</ele>
        <time>2026-08-14T02:41:27.000Z</time>
      </trkpt>
      <trkpt lat="22.769013" lon="108.509008">
        <ele>65.549359</ele>
        <time>2026-08-14T02:41:28.000Z</time>
      </trkpt>
      <trkpt lat="22.769062" lon="108.509036">
        <ele>65.529586</ele>
        <time>2026-08-14T02:41:29.000Z</time>
      </trkpt>
      <trkpt lat="22.769111" lon="108.509064">
        <ele>65.509813</ele>
        <time>2026-08-14T02:41:30.000Z</time>
      </trkpt>
      <trkpt lat="22.769161" lon="108.509094">
        <ele>65.489413</ele>
        <time>2026-08-14T02:41:31.000Z</time>
      </trkpt>
      <trkpt lat="22.769212" lon="108.509126">
        <ele>65.468378</ele>
        <time>2026-08-14T02:41:32.000Z</time>
      </trkpt>
      <trkpt lat="22.769263" lon="108.509155">
        <ele>65.447820</ele>
        <time>2026-08-14T02:41:33.000Z</time>
      </trkpt>
      <trkpt lat="22.769314" lon="108.509184">
        <ele>65.427261</ele>
        <time>2026-08-14T02:41:34.000Z</time>
      </trkpt>
      <trkpt lat="22.769363" lon="108.509214">
        <ele>65.394092</ele>
        <time>2026-08-14T02:41:35.000Z</time>
      </trkpt>
      <trkpt lat="22.769412" lon="108.509245">
        <ele>65.360564</ele>
        <time>2026-08-14T02:41:36.000Z</time>
      </trkpt>
      <trkpt lat="22.769461" lon="108.509274">
        <ele>65.327573</ele>
        <time>2026-08-14T02:41:37.000Z</time>
      </trkpt>
      <trkpt lat="22.769510" lon="108.509303">
        <ele>65.294581</ele>
        <time>2026-08-14T02:41:38.000Z</time>
      </trkpt>
      <trkpt lat="22.769560" lon="108.509336">
        <ele>65.259988</ele>
        <time>2026-08-14T02:41:39.000Z</time>
      </trkpt>
      <trkpt lat="22.769609" lon="108.509368">
        <ele>65.226183</ele>
        <time>2026-08-14T02:41:40.000Z</time>
      </trkpt>
      <trkpt lat="22.769661" lon="108.509396">
        <ele>65.191870</ele>
        <time>2026-08-14T02:41:41.000Z</time>
      </trkpt>
      <trkpt lat="22.769713" lon="108.509425">
        <ele>65.157312</ele>
        <time>2026-08-14T02:41:42.000Z</time>
      </trkpt>
      <trkpt lat="22.769762" lon="108.509456">
        <ele>65.123784</ele>
        <time>2026-08-14T02:41:43.000Z</time>
      </trkpt>
      <trkpt lat="22.769811" lon="108.509485">
        <ele>65.090793</ele>
        <time>2026-08-14T02:41:44.000Z</time>
      </trkpt>
      <trkpt lat="22.769859" lon="108.509515">
        <ele>65.058050</ele>
        <time>2026-08-14T02:41:45.000Z</time>
      </trkpt>
      <trkpt lat="22.769911" lon="108.509548">
        <ele>65.022442</ele>
        <time>2026-08-14T02:41:46.000Z</time>
      </trkpt>
      <trkpt lat="22.769962" lon="108.509578">
        <ele>64.988152</ele>
        <time>2026-08-14T02:41:47.000Z</time>
      </trkpt>
      <trkpt lat="22.770012" lon="108.509608">
        <ele>64.954380</ele>
        <time>2026-08-14T02:41:48.000Z</time>
      </trkpt>
      <trkpt lat="22.770066" lon="108.509638">
        <ele>64.918521</ele>
        <time>2026-08-14T02:41:49.000Z</time>
      </trkpt>
      <trkpt lat="22.770120" lon="108.509668">
        <ele>64.882662</ele>
        <time>2026-08-14T02:41:50.000Z</time>
      </trkpt>
      <trkpt lat="22.770175" lon="108.509695">
        <ele>64.846981</ele>
        <time>2026-08-14T02:41:51.000Z</time>
      </trkpt>
      <trkpt lat="22.770224" lon="108.509721">
        <ele>64.814741</ele>
        <time>2026-08-14T02:41:52.000Z</time>
      </trkpt>
      <trkpt lat="22.770275" lon="108.509749">
        <ele>64.780956</ele>
        <time>2026-08-14T02:41:53.000Z</time>
      </trkpt>
      <trkpt lat="22.770325" lon="108.509779">
        <ele>64.747184</ele>
        <time>2026-08-14T02:41:54.000Z</time>
      </trkpt>
      <trkpt lat="22.770375" lon="108.509811">
        <ele>64.712872</ele>
        <time>2026-08-14T02:41:55.000Z</time>
      </trkpt>
      <trkpt lat="22.770423" lon="108.509842">
        <ele>64.679854</ele>
        <time>2026-08-14T02:41:56.000Z</time>
      </trkpt>
      <trkpt lat="22.770474" lon="108.509873">
        <ele>64.645300</ele>
        <time>2026-08-14T02:41:57.000Z</time>
      </trkpt>
      <trkpt lat="22.770522" lon="108.509902">
        <ele>64.612826</ele>
        <time>2026-08-14T02:41:58.000Z</time>
      </trkpt>
      <trkpt lat="22.770571" lon="108.509929">
        <ele>64.580343</ele>
        <time>2026-08-14T02:41:59.000Z</time>
      </trkpt>
      <trkpt lat="22.770620" lon="108.509957">
        <ele>64.547609</ele>
        <time>2026-08-14T02:42:00.000Z</time>
      </trkpt>
      <trkpt lat="22.770669" lon="108.509985">
        <ele>64.514875</ele>
        <time>2026-08-14T02:42:01.000Z</time>
      </trkpt>
      <trkpt lat="22.770718" lon="108.510013">
        <ele>64.482141</ele>
        <time>2026-08-14T02:42:02.000Z</time>
      </trkpt>
      <trkpt lat="22.770760" lon="108.510043">
        <ele>64.452418</ele>
        <time>2026-08-14T02:42:03.000Z</time>
      </trkpt>
      <trkpt lat="22.770809" lon="108.510074">
        <ele>64.418891</ele>
        <time>2026-08-14T02:42:04.000Z</time>
      </trkpt>
      <trkpt lat="22.770859" lon="108.510106">
        <ele>64.384578</ele>
        <time>2026-08-14T02:42:05.000Z</time>
      </trkpt>
      <trkpt lat="22.770904" lon="108.510141">
        <ele>64.352285</ele>
        <time>2026-08-14T02:42:06.000Z</time>
      </trkpt>
      <trkpt lat="22.770953" lon="108.510176">
        <ele>64.318842</ele>
        <time>2026-08-14T02:42:07.000Z</time>
      </trkpt>
      <trkpt lat="22.771000" lon="108.510212">
        <ele>64.286045</ele>
        <time>2026-08-14T02:42:08.000Z</time>
      </trkpt>
      <trkpt lat="22.771047" lon="108.510247">
        <ele>64.253548</ele>
        <time>2026-08-14T02:42:09.000Z</time>
      </trkpt>
      <trkpt lat="22.771098" lon="108.510282">
        <ele>64.219147</ele>
        <time>2026-08-14T02:42:10.000Z</time>
      </trkpt>
      <trkpt lat="22.771146" lon="108.510315">
        <ele>64.186753</ele>
        <time>2026-08-14T02:42:11.000Z</time>
      </trkpt>
      <trkpt lat="22.771194" lon="108.510350">
        <ele>64.153785</ele>
        <time>2026-08-14T02:42:12.000Z</time>
      </trkpt>
      <trkpt lat="22.771242" lon="108.510385">
        <ele>64.120816</ele>
        <time>2026-08-14T02:42:13.000Z</time>
      </trkpt>
      <trkpt lat="22.771287" lon="108.510419">
        <ele>64.089556</ele>
        <time>2026-08-14T02:42:14.000Z</time>
      </trkpt>
      <trkpt lat="22.771336" lon="108.510452">
        <ele>64.056679</ele>
        <time>2026-08-14T02:42:15.000Z</time>
      </trkpt>
      <trkpt lat="22.771386" lon="108.510487">
        <ele>64.022759</ele>
        <time>2026-08-14T02:42:16.000Z</time>
      </trkpt>
      <trkpt lat="22.771433" lon="108.510525">
        <ele>63.989344</ele>
        <time>2026-08-14T02:42:17.000Z</time>
      </trkpt>
      <trkpt lat="22.771479" lon="108.510564">
        <ele>63.956063</ele>
        <time>2026-08-14T02:42:18.000Z</time>
      </trkpt>
      <trkpt lat="22.771527" lon="108.510602">
        <ele>63.922190</ele>
        <time>2026-08-14T02:42:19.000Z</time>
      </trkpt>
      <trkpt lat="22.771575" lon="108.510642">
        <ele>63.887686</ele>
        <time>2026-08-14T02:42:20.000Z</time>
      </trkpt>
      <trkpt lat="22.771622" lon="108.510680">
        <ele>63.854271</ele>
        <time>2026-08-14T02:42:21.000Z</time>
      </trkpt>
      <trkpt lat="22.771669" lon="108.510718">
        <ele>63.820857</ele>
        <time>2026-08-14T02:42:22.000Z</time>
      </trkpt>
      <trkpt lat="22.771714" lon="108.510757">
        <ele>63.788023</ele>
        <time>2026-08-14T02:42:23.000Z</time>
      </trkpt>
      <trkpt lat="22.771759" lon="108.510798">
        <ele>63.754523</ele>
        <time>2026-08-14T02:42:24.000Z</time>
      </trkpt>
      <trkpt lat="22.771802" lon="108.510840">
        <ele>63.721539</ele>
        <time>2026-08-14T02:42:25.000Z</time>
      </trkpt>
      <trkpt lat="22.771843" lon="108.510883">
        <ele>63.689029</ele>
        <time>2026-08-14T02:42:26.000Z</time>
      </trkpt>
      <trkpt lat="22.771885" lon="108.510924">
        <ele>63.656820</ele>
        <time>2026-08-14T02:42:27.000Z</time>
      </trkpt>
      <trkpt lat="22.771926" lon="108.510965">
        <ele>63.625032</ele>
        <time>2026-08-14T02:42:28.000Z</time>
      </trkpt>
      <trkpt lat="22.771968" lon="108.511006">
        <ele>63.592823</ele>
        <time>2026-08-14T02:42:29.000Z</time>
      </trkpt>
      <trkpt lat="22.772010" lon="108.511049">
        <ele>63.559902</ele>
        <time>2026-08-14T02:42:30.000Z</time>
      </trkpt>
      <trkpt lat="22.772053" lon="108.511091">
        <ele>63.526917</ele>
        <time>2026-08-14T02:42:31.000Z</time>
      </trkpt>
      <trkpt lat="22.772094" lon="108.511134">
        <ele>63.494408</ele>
        <time>2026-08-14T02:42:32.000Z</time>
      </trkpt>
      <trkpt lat="22.772133" lon="108.511178">
        <ele>63.462331</ele>
        <time>2026-08-14T02:42:33.000Z</time>
      </trkpt>
      <trkpt lat="22.772171" lon="108.511224">
        <ele>63.429871</ele>
        <time>2026-08-14T02:42:34.000Z</time>
      </trkpt>
      <trkpt lat="22.772209" lon="108.511269">
        <ele>63.397801</ele>
        <time>2026-08-14T02:42:35.000Z</time>
      </trkpt>
      <trkpt lat="22.772247" lon="108.511314">
        <ele>63.365732</ele>
        <time>2026-08-14T02:42:36.000Z</time>
      </trkpt>
      <trkpt lat="22.772287" lon="108.511357">
        <ele>63.332979</ele>
        <time>2026-08-14T02:42:37.000Z</time>
      </trkpt>
      <trkpt lat="22.772326" lon="108.511400">
        <ele>63.297352</ele>
        <time>2026-08-14T02:42:38.000Z</time>
      </trkpt>
      <trkpt lat="22.772363" lon="108.511445">
        <ele>63.261739</ele>
        <time>2026-08-14T02:42:39.000Z</time>
      </trkpt>
      <trkpt lat="22.772399" lon="108.511493">
        <ele>63.225193</ele>
        <time>2026-08-14T02:42:40.000Z</time>
      </trkpt>
      <trkpt lat="22.772440" lon="108.511539">
        <ele>63.187403</ele>
        <time>2026-08-14T02:42:41.000Z</time>
      </trkpt>
      <trkpt lat="22.772480" lon="108.511582">
        <ele>63.151324</ele>
        <time>2026-08-14T02:42:42.000Z</time>
      </trkpt>
      <trkpt lat="22.772521" lon="108.511625">
        <ele>63.114788</ele>
        <time>2026-08-14T02:42:43.000Z</time>
      </trkpt>
      <trkpt lat="22.772561" lon="108.511669">
        <ele>63.078291</ele>
        <time>2026-08-14T02:42:44.000Z</time>
      </trkpt>
      <trkpt lat="22.772601" lon="108.511714">
        <ele>63.041371</ele>
        <time>2026-08-14T02:42:45.000Z</time>
      </trkpt>
      <trkpt lat="22.772642" lon="108.511758">
        <ele>63.004422</ele>
        <time>2026-08-14T02:42:46.000Z</time>
      </trkpt>
      <trkpt lat="22.772681" lon="108.511802">
        <ele>62.968372</ele>
        <time>2026-08-14T02:42:47.000Z</time>
      </trkpt>
      <trkpt lat="22.772719" lon="108.511849">
        <ele>62.931450</ele>
        <time>2026-08-14T02:42:48.000Z</time>
      </trkpt>
      <trkpt lat="22.772758" lon="108.511896">
        <ele>62.894102</ele>
        <time>2026-08-14T02:42:49.000Z</time>
      </trkpt>
      <trkpt lat="22.772793" lon="108.511944">
        <ele>62.857957</ele>
        <time>2026-08-14T02:42:50.000Z</time>
      </trkpt>
      <trkpt lat="22.772826" lon="108.511994">
        <ele>62.821637</ele>
        <time>2026-08-14T02:42:51.000Z</time>
      </trkpt>
      <trkpt lat="22.772862" lon="108.512045">
        <ele>62.783700</ele>
        <time>2026-08-14T02:42:52.000Z</time>
      </trkpt>
      <trkpt lat="22.772896" lon="108.512099">
        <ele>62.745077</ele>
        <time>2026-08-14T02:42:53.000Z</time>
      </trkpt>
      <trkpt lat="22.772930" lon="108.512151">
        <ele>62.707424</ele>
        <time>2026-08-14T02:42:54.000Z</time>
      </trkpt>
      <trkpt lat="22.772967" lon="108.512204">
        <ele>62.668158</ele>
        <time>2026-08-14T02:42:55.000Z</time>
      </trkpt>
      <trkpt lat="22.773002" lon="108.512256">
        <ele>62.630131</ele>
        <time>2026-08-14T02:42:56.000Z</time>
      </trkpt>
      <trkpt lat="22.773036" lon="108.512309">
        <ele>62.591995</ele>
        <time>2026-08-14T02:42:57.000Z</time>
      </trkpt>
      <trkpt lat="22.773071" lon="108.512363">
        <ele>62.553007</ele>
        <time>2026-08-14T02:42:58.000Z</time>
      </trkpt>
      <trkpt lat="22.773105" lon="108.512418">
        <ele>62.513895</ele>
        <time>2026-08-14T02:42:59.000Z</time>
      </trkpt>
      <trkpt lat="22.773138" lon="108.512470">
        <ele>62.476609</ele>
        <time>2026-08-14T02:43:00.000Z</time>
      </trkpt>
      <trkpt lat="22.773170" lon="108.512526">
        <ele>62.437695</ele>
        <time>2026-08-14T02:43:01.000Z</time>
      </trkpt>
      <trkpt lat="22.773203" lon="108.512585">
        <ele>62.396936</ele>
        <time>2026-08-14T02:43:02.000Z</time>
      </trkpt>
      <trkpt lat="22.773237" lon="108.512637">
        <ele>62.359283</ele>
        <time>2026-08-14T02:43:03.000Z</time>
      </trkpt>
      <trkpt lat="22.773270" lon="108.512690">
        <ele>62.321508</ele>
        <time>2026-08-14T02:43:04.000Z</time>
      </trkpt>
      <trkpt lat="22.773302" lon="108.512746">
        <ele>62.282595</ele>
        <time>2026-08-14T02:43:05.000Z</time>
      </trkpt>
      <trkpt lat="22.773334" lon="108.512802">
        <ele>62.243681</ele>
        <time>2026-08-14T02:43:06.000Z</time>
      </trkpt>
      <trkpt lat="22.773364" lon="108.512856">
        <ele>62.206443</ele>
        <time>2026-08-14T02:43:07.000Z</time>
      </trkpt>
      <trkpt lat="22.773393" lon="108.512912">
        <ele>62.214006</ele>
        <time>2026-08-14T02:43:08.000Z</time>
      </trkpt>
      <trkpt lat="22.773421" lon="108.512968">
        <ele>62.270609</ele>
        <time>2026-08-14T02:43:09.000Z</time>
      </trkpt>
      <trkpt lat="22.773451" lon="108.513023">
        <ele>62.327389</ele>
        <time>2026-08-14T02:43:10.000Z</time>
      </trkpt>
      <trkpt lat="22.773483" lon="108.513077">
        <ele>62.384424</ele>
        <time>2026-08-14T02:43:11.000Z</time>
      </trkpt>
      <trkpt lat="22.773514" lon="108.513132">
        <ele>62.441700</ele>
        <time>2026-08-14T02:43:12.000Z</time>
      </trkpt>
      <trkpt lat="22.773544" lon="108.513188">
        <ele>62.499246</ele>
        <time>2026-08-14T02:43:13.000Z</time>
      </trkpt>
      <trkpt lat="22.773574" lon="108.513245">
        <ele>62.557563</ele>
        <time>2026-08-14T02:43:14.000Z</time>
      </trkpt>
      <trkpt lat="22.773601" lon="108.513301">
        <ele>62.613712</ele>
        <time>2026-08-14T02:43:15.000Z</time>
      </trkpt>
      <trkpt lat="22.773631" lon="108.513357">
        <ele>62.671258</ele>
        <time>2026-08-14T02:43:16.000Z</time>
      </trkpt>
      <trkpt lat="22.773661" lon="108.513413">
        <ele>62.728805</ele>
        <time>2026-08-14T02:43:17.000Z</time>
      </trkpt>
      <trkpt lat="22.773687" lon="108.513469">
        <ele>62.784514</ele>
        <time>2026-08-14T02:43:18.000Z</time>
      </trkpt>
      <trkpt lat="22.773710" lon="108.513525">
        <ele>62.838985</ele>
        <time>2026-08-14T02:43:19.000Z</time>
      </trkpt>
      <trkpt lat="22.773730" lon="108.513585">
        <ele>62.895673</ele>
        <time>2026-08-14T02:43:20.000Z</time>
      </trkpt>
      <trkpt lat="22.773745" lon="108.513645">
        <ele>62.950909</ele>
        <time>2026-08-14T02:43:21.000Z</time>
      </trkpt>
      <trkpt lat="22.773762" lon="108.513706">
        <ele>63.007531</ele>
        <time>2026-08-14T02:43:22.000Z</time>
      </trkpt>
      <trkpt lat="22.773780" lon="108.513765">
        <ele>63.062749</ele>
        <time>2026-08-14T02:43:23.000Z</time>
      </trkpt>
      <trkpt lat="22.773799" lon="108.513823">
        <ele>63.117440</ele>
        <time>2026-08-14T02:43:24.000Z</time>
      </trkpt>
      <trkpt lat="22.773814" lon="108.513880">
        <ele>63.170108</ele>
        <time>2026-08-14T02:43:25.000Z</time>
      </trkpt>
      <trkpt lat="22.773832" lon="108.513934">
        <ele>63.221127</ele>
        <time>2026-08-14T02:43:26.000Z</time>
      </trkpt>
      <trkpt lat="22.773851" lon="108.513987">
        <ele>63.271653</ele>
        <time>2026-08-14T02:43:27.000Z</time>
      </trkpt>
      <trkpt lat="22.773868" lon="108.514041">
        <ele>63.322353</ele>
        <time>2026-08-14T02:43:28.000Z</time>
      </trkpt>
      <trkpt lat="22.773885" lon="108.514092">
        <ele>63.370538</ele>
        <time>2026-08-14T02:43:29.000Z</time>
      </trkpt>
      <trkpt lat="22.773899" lon="108.514140">
        <ele>63.415270</ele>
        <time>2026-08-14T02:43:30.000Z</time>
      </trkpt>
      <trkpt lat="22.773912" lon="108.514187">
        <ele>63.458869</ele>
        <time>2026-08-14T02:43:31.000Z</time>
      </trkpt>
      <trkpt lat="22.773927" lon="108.514236">
        <ele>63.504744</ele>
        <time>2026-08-14T02:43:32.000Z</time>
      </trkpt>
      <trkpt lat="22.773946" lon="108.514282">
        <ele>63.549530</ele>
        <time>2026-08-14T02:43:33.000Z</time>
      </trkpt>
      <trkpt lat="22.773957" lon="108.514322">
        <ele>63.586618</ele>
        <time>2026-08-14T02:43:34.000Z</time>
      </trkpt>
      <trkpt lat="22.773969" lon="108.514364">
        <ele>63.625686</ele>
        <time>2026-08-14T02:43:35.000Z</time>
      </trkpt>
      <trkpt lat="22.773982" lon="108.514408">
        <ele>63.666739</ele>
        <time>2026-08-14T02:43:36.000Z</time>
      </trkpt>
      <trkpt lat="22.773997" lon="108.514450">
        <ele>63.706759</ele>
        <time>2026-08-14T02:43:37.000Z</time>
      </trkpt>
      <trkpt lat="22.774010" lon="108.514490">
        <ele>63.744443</ele>
        <time>2026-08-14T02:43:38.000Z</time>
      </trkpt>
      <trkpt lat="22.774026" lon="108.514532">
        <ele>63.784821</ele>
        <time>2026-08-14T02:43:39.000Z</time>
      </trkpt>
      <trkpt lat="22.774038" lon="108.514575">
        <ele>63.824739</ele>
        <time>2026-08-14T02:43:40.000Z</time>
      </trkpt>
      <trkpt lat="22.774049" lon="108.514617">
        <ele>63.863533</ele>
        <time>2026-08-14T02:43:41.000Z</time>
      </trkpt>
      <trkpt lat="22.774062" lon="108.514659">
        <ele>63.902898</ele>
        <time>2026-08-14T02:43:42.000Z</time>
      </trkpt>
      <trkpt lat="22.774076" lon="108.514700">
        <ele>63.976921</ele>
        <time>2026-08-14T02:43:43.000Z</time>
      </trkpt>
      <trkpt lat="22.774090" lon="108.514741">
        <ele>64.078433</ele>
        <time>2026-08-14T02:43:44.000Z</time>
      </trkpt>
      <trkpt lat="22.774105" lon="108.514781">
        <ele>64.178692</ele>
        <time>2026-08-14T02:43:45.000Z</time>
      </trkpt>
      <trkpt lat="22.774123" lon="108.514820">
        <ele>64.279953</ele>
        <time>2026-08-14T02:43:46.000Z</time>
      </trkpt>
      <trkpt lat="22.774134" lon="108.514856">
        <ele>64.368008</ele>
        <time>2026-08-14T02:43:47.000Z</time>
      </trkpt>
      <trkpt lat="22.774146" lon="108.514894">
        <ele>64.461268</ele>
        <time>2026-08-14T02:43:48.000Z</time>
      </trkpt>
      <trkpt lat="22.774157" lon="108.514931">
        <ele>64.551530</ele>
        <time>2026-08-14T02:43:49.000Z</time>
      </trkpt>
      <trkpt lat="22.774169" lon="108.514970">
        <ele>64.646989</ele>
        <time>2026-08-14T02:43:50.000Z</time>
      </trkpt>
      <trkpt lat="22.774180" lon="108.515009">
        <ele>64.741681</ele>
        <time>2026-08-14T02:43:51.000Z</time>
      </trkpt>
      <trkpt lat="22.774193" lon="108.515048">
        <ele>64.837966</ele>
        <time>2026-08-14T02:43:52.000Z</time>
      </trkpt>
      <trkpt lat="22.774206" lon="108.515089">
        <ele>64.938631</ele>
        <time>2026-08-14T02:43:53.000Z</time>
      </trkpt>
      <trkpt lat="22.774219" lon="108.515129">
        <ele>65.037104</ele>
        <time>2026-08-14T02:43:54.000Z</time>
      </trkpt>
      <trkpt lat="22.774232" lon="108.515171">
        <ele>65.139967</ele>
        <time>2026-08-14T02:43:55.000Z</time>
      </trkpt>
      <trkpt lat="22.774244" lon="108.515211">
        <ele>65.237631</ele>
        <time>2026-08-14T02:43:56.000Z</time>
      </trkpt>
      <trkpt lat="22.774258" lon="108.515251">
        <ele>65.336969</ele>
        <time>2026-08-14T02:43:57.000Z</time>
      </trkpt>
      <trkpt lat="22.774270" lon="108.515288">
        <ele>65.428035</ele>
        <time>2026-08-14T02:43:58.000Z</time>
      </trkpt>
      <trkpt lat="22.774280" lon="108.515327">
        <ele>65.522021</ele>
        <time>2026-08-14T02:43:59.000Z</time>
      </trkpt>
      <trkpt lat="22.774291" lon="108.515367">
        <ele>65.618936</ele>
        <time>2026-08-14T02:44:00.000Z</time>
      </trkpt>
      <trkpt lat="22.774301" lon="108.515408">
        <ele>65.717404</ele>
        <time>2026-08-14T02:44:01.000Z</time>
      </trkpt>
      <trkpt lat="22.774312" lon="108.515450">
        <ele>65.818777</ele>
        <time>2026-08-14T02:44:02.000Z</time>
      </trkpt>
      <trkpt lat="22.774323" lon="108.515491">
        <ele>65.917919</ele>
        <time>2026-08-14T02:44:03.000Z</time>
      </trkpt>
      <trkpt lat="22.774335" lon="108.515534">
        <ele>66.022229</ele>
        <time>2026-08-14T02:44:04.000Z</time>
      </trkpt>
      <trkpt lat="22.774347" lon="108.515575">
        <ele>66.122103</ele>
        <time>2026-08-14T02:44:05.000Z</time>
      </trkpt>
      <trkpt lat="22.774360" lon="108.515619">
        <ele>66.229379</ele>
        <time>2026-08-14T02:44:06.000Z</time>
      </trkpt>
      <trkpt lat="22.774373" lon="108.515662">
        <ele>66.334446</ele>
        <time>2026-08-14T02:44:07.000Z</time>
      </trkpt>
      <trkpt lat="22.774387" lon="108.515702">
        <ele>66.433783</ele>
        <time>2026-08-14T02:44:08.000Z</time>
      </trkpt>
      <trkpt lat="22.774402" lon="108.515742">
        <ele>66.534042</ele>
        <time>2026-08-14T02:44:09.000Z</time>
      </trkpt>
      <trkpt lat="22.774415" lon="108.515783">
        <ele>66.634707</ele>
        <time>2026-08-14T02:44:10.000Z</time>
      </trkpt>
      <trkpt lat="22.774427" lon="108.515824">
        <ele>66.734582</ele>
        <time>2026-08-14T02:44:11.000Z</time>
      </trkpt>
      <trkpt lat="22.774438" lon="108.515866">
        <ele>66.835955</ele>
        <time>2026-08-14T02:44:12.000Z</time>
      </trkpt>
      <trkpt lat="22.774453" lon="108.515905">
        <ele>66.934067</ele>
        <time>2026-08-14T02:44:13.000Z</time>
      </trkpt>
      <trkpt lat="22.774467" lon="108.515946">
        <ele>67.035579</ele>
        <time>2026-08-14T02:44:14.000Z</time>
      </trkpt>
      <trkpt lat="22.774480" lon="108.515987">
        <ele>67.136244</ele>
        <time>2026-08-14T02:44:15.000Z</time>
      </trkpt>
      <trkpt lat="22.774495" lon="108.516028">
        <ele>67.238657</ele>
        <time>2026-08-14T02:44:16.000Z</time>
      </trkpt>
      <trkpt lat="22.774509" lon="108.516069">
        <ele>67.340169</ele>
        <time>2026-08-14T02:44:17.000Z</time>
      </trkpt>
      <trkpt lat="22.774522" lon="108.516110">
        <ele>67.440834</ele>
        <time>2026-08-14T02:44:18.000Z</time>
      </trkpt>
      <trkpt lat="22.774535" lon="108.516151">
        <ele>67.541498</ele>
        <time>2026-08-14T02:44:19.000Z</time>
      </trkpt>
      <trkpt lat="22.774547" lon="108.516191">
        <ele>67.639162</ele>
        <time>2026-08-14T02:44:20.000Z</time>
      </trkpt>
      <trkpt lat="22.774560" lon="108.516233">
        <ele>67.742026</ele>
        <time>2026-08-14T02:44:21.000Z</time>
      </trkpt>
      <trkpt lat="22.774573" lon="108.516272">
        <ele>67.838311</ele>
        <time>2026-08-14T02:44:22.000Z</time>
      </trkpt>
      <trkpt lat="22.774584" lon="108.516313">
        <ele>67.937453</ele>
        <time>2026-08-14T02:44:23.000Z</time>
      </trkpt>
      <trkpt lat="22.774596" lon="108.516353">
        <ele>68.035117</ele>
        <time>2026-08-14T02:44:24.000Z</time>
      </trkpt>
      <trkpt lat="22.774612" lon="108.516394">
        <ele>68.138485</ele>
        <time>2026-08-14T02:44:25.000Z</time>
      </trkpt>
      <trkpt lat="22.774627" lon="108.516435">
        <ele>68.240898</ele>
        <time>2026-08-14T02:44:26.000Z</time>
      </trkpt>
      <trkpt lat="22.774640" lon="108.516475">
        <ele>68.339371</ele>
        <time>2026-08-14T02:44:27.000Z</time>
      </trkpt>
      <trkpt lat="22.774650" lon="108.516515">
        <ele>68.435595</ele>
        <time>2026-08-14T02:44:28.000Z</time>
      </trkpt>
      <trkpt lat="22.774662" lon="108.516554">
        <ele>68.532708</ele>
        <time>2026-08-14T02:44:29.000Z</time>
      </trkpt>
      <trkpt lat="22.774675" lon="108.516594">
        <ele>68.633168</ele>
        <time>2026-08-14T02:44:30.000Z</time>
      </trkpt>
      <trkpt lat="22.774690" lon="108.516634">
        <ele>68.735451</ele>
        <time>2026-08-14T02:44:31.000Z</time>
      </trkpt>
      <trkpt lat="22.774705" lon="108.516674">
        <ele>68.837735</ele>
        <time>2026-08-14T02:44:32.000Z</time>
      </trkpt>
      <trkpt lat="22.774719" lon="108.516715">
        <ele>68.941296</ele>
        <time>2026-08-14T02:44:33.000Z</time>
      </trkpt>
      <trkpt lat="22.774733" lon="108.516757">
        <ele>69.047081</ele>
        <time>2026-08-14T02:44:34.000Z</time>
      </trkpt>
      <trkpt lat="22.774747" lon="108.516798">
        <ele>69.150642</ele>
        <time>2026-08-14T02:44:35.000Z</time>
      </trkpt>
      <trkpt lat="22.774761" lon="108.516838">
        <ele>69.251985</ele>
        <time>2026-08-14T02:44:36.000Z</time>
      </trkpt>
      <trkpt lat="22.774780" lon="108.516876">
        <ele>69.354377</ele>
        <time>2026-08-14T02:44:37.000Z</time>
      </trkpt>
      <trkpt lat="22.774800" lon="108.516913">
        <ele>69.455968</ele>
        <time>2026-08-14T02:44:38.000Z</time>
      </trkpt>
      <trkpt lat="22.774817" lon="108.516951">
        <ele>69.556013</ele>
        <time>2026-08-14T02:44:39.000Z</time>
      </trkpt>
      <trkpt lat="22.774833" lon="108.516989">
        <ele>69.654963</ele>
        <time>2026-08-14T02:44:40.000Z</time>
      </trkpt>
      <trkpt lat="22.774847" lon="108.517026">
        <ele>69.749696</ele>
        <time>2026-08-14T02:44:41.000Z</time>
      </trkpt>
      <trkpt lat="22.774862" lon="108.517064">
        <ele>69.847607</ele>
        <time>2026-08-14T02:44:42.000Z</time>
      </trkpt>
      <trkpt lat="22.774877" lon="108.517101">
        <ele>69.943345</ele>
        <time>2026-08-14T02:44:43.000Z</time>
      </trkpt>
      <trkpt lat="22.774892" lon="108.517140">
        <ele>70.043438</ele>
        <time>2026-08-14T02:44:44.000Z</time>
      </trkpt>
      <trkpt lat="22.774905" lon="108.517179">
        <ele>70.141667</ele>
        <time>2026-08-14T02:44:45.000Z</time>
      </trkpt>
      <trkpt lat="22.774918" lon="108.517218">
        <ele>70.239897</ele>
        <time>2026-08-14T02:44:46.000Z</time>
      </trkpt>
      <trkpt lat="22.774931" lon="108.517259">
        <ele>70.342594</ele>
        <time>2026-08-14T02:44:47.000Z</time>
      </trkpt>
      <trkpt lat="22.774942" lon="108.517301">
        <ele>70.446013</ele>
        <time>2026-08-14T02:44:48.000Z</time>
      </trkpt>
      <trkpt lat="22.774956" lon="108.517340">
        <ele>70.545145</ele>
        <time>2026-08-14T02:44:49.000Z</time>
      </trkpt>
      <trkpt lat="22.774971" lon="108.517383">
        <ele>70.654044</ele>
        <time>2026-08-14T02:44:50.000Z</time>
      </trkpt>
      <trkpt lat="22.774986" lon="108.517427">
        <ele>70.765160</ele>
        <time>2026-08-14T02:44:51.000Z</time>
      </trkpt>
      <trkpt lat="22.774999" lon="108.517470">
        <ele>70.872348</ele>
        <time>2026-08-14T02:44:52.000Z</time>
      </trkpt>
      <trkpt lat="22.775015" lon="108.517515">
        <ele>70.986589</ele>
        <time>2026-08-14T02:44:53.000Z</time>
      </trkpt>
      <trkpt lat="22.775028" lon="108.517558">
        <ele>71.093776</ele>
        <time>2026-08-14T02:44:54.000Z</time>
      </trkpt>
      <trkpt lat="22.775044" lon="108.517598">
        <ele>71.197055</ele>
        <time>2026-08-14T02:44:55.000Z</time>
      </trkpt>
      <trkpt lat="22.775061" lon="108.517640">
        <ele>71.305702</ele>
        <time>2026-08-14T02:44:56.000Z</time>
      </trkpt>
      <trkpt lat="22.775078" lon="108.517682">
        <ele>71.414350</ele>
        <time>2026-08-14T02:44:57.000Z</time>
      </trkpt>
      <trkpt lat="22.775093" lon="108.517721">
        <ele>71.514442</ele>
        <time>2026-08-14T02:44:58.000Z</time>
      </trkpt>
      <trkpt lat="22.775110" lon="108.517760">
        <ele>71.616623</ele>
        <time>2026-08-14T02:44:59.000Z</time>
      </trkpt>
      <trkpt lat="22.775126" lon="108.517797">
        <ele>71.713424</ele>
        <time>2026-08-14T02:45:00.000Z</time>
      </trkpt>
      <trkpt lat="22.775145" lon="108.517834">
        <ele>71.813739</ele>
        <time>2026-08-14T02:45:01.000Z</time>
      </trkpt>
      <trkpt lat="22.775164" lon="108.517871">
        <ele>71.914055</ele>
        <time>2026-08-14T02:45:02.000Z</time>
      </trkpt>
      <trkpt lat="22.775182" lon="108.517910">
        <ele>72.017360</ele>
        <time>2026-08-14T02:45:03.000Z</time>
      </trkpt>
      <trkpt lat="22.775200" lon="108.517948">
        <ele>72.118552</ele>
        <time>2026-08-14T02:45:04.000Z</time>
      </trkpt>
      <trkpt lat="22.775219" lon="108.517988">
        <ele>72.225132</ele>
        <time>2026-08-14T02:45:05.000Z</time>
      </trkpt>
      <trkpt lat="22.775237" lon="108.518027">
        <ele>72.328437</ele>
        <time>2026-08-14T02:45:06.000Z</time>
      </trkpt>
      <trkpt lat="22.775257" lon="108.518066">
        <ele>72.434142</ele>
        <time>2026-08-14T02:45:07.000Z</time>
      </trkpt>
      <trkpt lat="22.775276" lon="108.518105">
        <ele>72.538622</ele>
        <time>2026-08-14T02:45:08.000Z</time>
      </trkpt>
      <trkpt lat="22.775295" lon="108.518143">
        <ele>72.641013</ele>
        <time>2026-08-14T02:45:09.000Z</time>
      </trkpt>
      <trkpt lat="22.775314" lon="108.518181">
        <ele>72.743405</ele>
        <time>2026-08-14T02:45:10.000Z</time>
      </trkpt>
      <trkpt lat="22.775331" lon="108.518219">
        <ele>72.843449</ele>
        <time>2026-08-14T02:45:11.000Z</time>
      </trkpt>
      <trkpt lat="22.775351" lon="108.518259">
        <ele>72.951230</ele>
        <time>2026-08-14T02:45:12.000Z</time>
      </trkpt>
      <trkpt lat="22.775371" lon="108.518300">
        <ele>73.061099</ele>
        <time>2026-08-14T02:45:13.000Z</time>
      </trkpt>
      <trkpt lat="22.775393" lon="108.518340">
        <ele>73.157341</ele>
        <time>2026-08-14T02:45:14.000Z</time>
      </trkpt>
      <trkpt lat="22.775413" lon="108.518381">
        <ele>73.251990</ele>
        <time>2026-08-14T02:45:15.000Z</time>
      </trkpt>
      <trkpt lat="22.775432" lon="108.518420">
        <ele>73.341998</ele>
        <time>2026-08-14T02:45:16.000Z</time>
      </trkpt>
      <trkpt lat="22.775453" lon="108.518461">
        <ele>73.437703</ele>
        <time>2026-08-14T02:45:17.000Z</time>
      </trkpt>
      <trkpt lat="22.775474" lon="108.518500">
        <ele>73.529861</ele>
        <time>2026-08-14T02:45:18.000Z</time>
      </trkpt>
      <trkpt lat="22.775494" lon="108.518539">
        <ele>73.620924</ele>
        <time>2026-08-14T02:45:19.000Z</time>
      </trkpt>
      <trkpt lat="22.775516" lon="108.518578">
        <ele>73.714218</ele>
        <time>2026-08-14T02:45:20.000Z</time>
      </trkpt>
      <trkpt lat="22.775539" lon="108.518616">
        <ele>73.806973</ele>
        <time>2026-08-14T02:45:21.000Z</time>
      </trkpt>
      <trkpt lat="22.775560" lon="108.518653">
        <ele>73.895631</ele>
        <time>2026-08-14T02:45:22.000Z</time>
      </trkpt>
      <trkpt lat="22.775583" lon="108.518689">
        <ele>73.985003</ele>
        <time>2026-08-14T02:45:23.000Z</time>
      </trkpt>
      <trkpt lat="22.775603" lon="108.518725">
        <ele>74.070767</ele>
        <time>2026-08-14T02:45:24.000Z</time>
      </trkpt>
      <trkpt lat="22.775622" lon="108.518760">
        <ele>74.153646</ele>
        <time>2026-08-14T02:45:25.000Z</time>
      </trkpt>
      <trkpt lat="22.775645" lon="108.518795">
        <ele>74.241348</ele>
        <time>2026-08-14T02:45:26.000Z</time>
      </trkpt>
      <trkpt lat="22.775666" lon="108.518830">
        <ele>74.326558</ele>
        <time>2026-08-14T02:45:27.000Z</time>
      </trkpt>
      <trkpt lat="22.775687" lon="108.518867">
        <ele>74.415216</ele>
        <time>2026-08-14T02:45:28.000Z</time>
      </trkpt>
      <trkpt lat="22.775707" lon="108.518903">
        <ele>74.500980</ele>
        <time>2026-08-14T02:45:29.000Z</time>
      </trkpt>
      <trkpt lat="22.775728" lon="108.518938">
        <ele>74.586190</ele>
        <time>2026-08-14T02:45:30.000Z</time>
      </trkpt>
      <trkpt lat="22.775751" lon="108.518974">
        <ele>74.675561</ele>
        <time>2026-08-14T02:45:31.000Z</time>
      </trkpt>
      <trkpt lat="22.775771" lon="108.519013">
        <ele>74.766624</ele>
        <time>2026-08-14T02:45:32.000Z</time>
      </trkpt>
      <trkpt lat="22.775792" lon="108.519050">
        <ele>74.855282</ele>
        <time>2026-08-14T02:45:33.000Z</time>
      </trkpt>
      <trkpt lat="22.775815" lon="108.519085">
        <ele>74.942984</ele>
        <time>2026-08-14T02:45:34.000Z</time>
      </trkpt>
      <trkpt lat="22.775837" lon="108.519121">
        <ele>75.031114</ele>
        <time>2026-08-14T02:45:35.000Z</time>
      </trkpt>
      <trkpt lat="22.775859" lon="108.519158">
        <ele>75.120952</ele>
        <time>2026-08-14T02:45:36.000Z</time>
      </trkpt>
      <trkpt lat="22.775880" lon="108.519195">
        <ele>75.209610</ele>
        <time>2026-08-14T02:45:37.000Z</time>
      </trkpt>
      <trkpt lat="22.775902" lon="108.519228">
        <ele>75.292706</ele>
        <time>2026-08-14T02:45:38.000Z</time>
      </trkpt>
      <trkpt lat="22.775925" lon="108.519263">
        <ele>75.380408</ele>
        <time>2026-08-14T02:45:39.000Z</time>
      </trkpt>
      <trkpt lat="22.775949" lon="108.519299">
        <ele>75.471059</ele>
        <time>2026-08-14T02:45:40.000Z</time>
      </trkpt>
      <trkpt lat="22.775972" lon="108.519335">
        <ele>75.560430</ele>
        <time>2026-08-14T02:45:41.000Z</time>
      </trkpt>
      <trkpt lat="22.775995" lon="108.519370">
        <ele>75.648132</ele>
        <time>2026-08-14T02:45:42.000Z</time>
      </trkpt>
      <trkpt lat="22.776021" lon="108.519404">
        <ele>75.738267</ele>
        <time>2026-08-14T02:45:43.000Z</time>
      </trkpt>
      <trkpt lat="22.776048" lon="108.519438">
        <ele>75.829831</ele>
        <time>2026-08-14T02:45:44.000Z</time>
      </trkpt>
      <trkpt lat="22.776071" lon="108.519473">
        <ele>75.917533</ele>
        <time>2026-08-14T02:45:45.000Z</time>
      </trkpt>
      <trkpt lat="22.776095" lon="108.519505">
        <ele>76.001705</ele>
        <time>2026-08-14T02:45:46.000Z</time>
      </trkpt>
      <trkpt lat="22.776118" lon="108.519537">
        <ele>76.084498</ele>
        <time>2026-08-14T02:45:47.000Z</time>
      </trkpt>
      <trkpt lat="22.776142" lon="108.519571">
        <ele>76.171874</ele>
        <time>2026-08-14T02:45:48.000Z</time>
      </trkpt>
      <trkpt lat="22.776166" lon="108.519605">
        <ele>76.259250</ele>
        <time>2026-08-14T02:45:49.000Z</time>
      </trkpt>
      <trkpt lat="22.776188" lon="108.519638">
        <ele>76.342346</ele>
        <time>2026-08-14T02:45:50.000Z</time>
      </trkpt>
      <trkpt lat="22.776211" lon="108.519668">
        <ele>76.421960</ele>
        <time>2026-08-14T02:45:51.000Z</time>
      </trkpt>
      <trkpt lat="22.776235" lon="108.519700">
        <ele>76.506132</ele>
        <time>2026-08-14T02:45:52.000Z</time>
      </trkpt>
      <trkpt lat="22.776258" lon="108.519732">
        <ele>76.588925</ele>
        <time>2026-08-14T02:45:53.000Z</time>
      </trkpt>
      <trkpt lat="22.776283" lon="108.519764">
        <ele>76.674511</ele>
        <time>2026-08-14T02:45:54.000Z</time>
      </trkpt>
      <trkpt lat="22.776306" lon="108.519796">
        <ele>76.757304</ele>
        <time>2026-08-14T02:45:55.000Z</time>
      </trkpt>
      <trkpt lat="22.776328" lon="108.519829">
        <ele>76.840400</ele>
        <time>2026-08-14T02:45:56.000Z</time>
      </trkpt>
      <trkpt lat="22.776351" lon="108.519865">
        <ele>76.929772</ele>
        <time>2026-08-14T02:45:57.000Z</time>
      </trkpt>
      <trkpt lat="22.776378" lon="108.519896">
        <ele>77.016789</ele>
        <time>2026-08-14T02:45:58.000Z</time>
      </trkpt>
      <trkpt lat="22.776404" lon="108.519928">
        <ele>77.020955</ele>
        <time>2026-08-14T02:45:59.000Z</time>
      </trkpt>
      <trkpt lat="22.776427" lon="108.519962">
        <ele>76.973605</ele>
        <time>2026-08-14T02:46:00.000Z</time>
      </trkpt>
      <trkpt lat="22.776451" lon="108.519994">
        <ele>76.927288</ele>
        <time>2026-08-14T02:46:01.000Z</time>
      </trkpt>
      <trkpt lat="22.776474" lon="108.520026">
        <ele>76.881730</ele>
        <time>2026-08-14T02:46:02.000Z</time>
      </trkpt>
      <trkpt lat="22.776495" lon="108.520060">
        <ele>76.835779</ele>
        <time>2026-08-14T02:46:03.000Z</time>
      </trkpt>
      <trkpt lat="22.776519" lon="108.520095">
        <ele>76.786802</ele>
        <time>2026-08-14T02:46:04.000Z</time>
      </trkpt>
      <trkpt lat="22.776546" lon="108.520128">
        <ele>76.737263</ele>
        <time>2026-08-14T02:46:05.000Z</time>
      </trkpt>
      <trkpt lat="22.776571" lon="108.520163">
        <ele>76.687550</ele>
        <time>2026-08-14T02:46:06.000Z</time>
      </trkpt>
      <trkpt lat="22.776596" lon="108.520198">
        <ele>76.637837</ele>
        <time>2026-08-14T02:46:07.000Z</time>
      </trkpt>
      <trkpt lat="22.776622" lon="108.520230">
        <ele>76.589946</ele>
        <time>2026-08-14T02:46:08.000Z</time>
      </trkpt>
      <trkpt lat="22.776646" lon="108.520266">
        <ele>76.540064</ele>
        <time>2026-08-14T02:46:09.000Z</time>
      </trkpt>
      <trkpt lat="22.776663" lon="108.520305">
        <ele>76.491625</ele>
        <time>2026-08-14T02:46:10.000Z</time>
      </trkpt>
      <trkpt lat="22.776681" lon="108.520346">
        <ele>76.440636</ele>
        <time>2026-08-14T02:46:11.000Z</time>
      </trkpt>
      <trkpt lat="22.776702" lon="108.520385">
        <ele>76.389925</ele>
        <time>2026-08-14T02:46:12.000Z</time>
      </trkpt>
      <trkpt lat="22.776729" lon="108.520422">
        <ele>76.336942</ele>
        <time>2026-08-14T02:46:13.000Z</time>
      </trkpt>
      <trkpt lat="22.776757" lon="108.520463">
        <ele>76.279653</ele>
        <time>2026-08-14T02:46:14.000Z</time>
      </trkpt>
      <trkpt lat="22.776785" lon="108.520502">
        <ele>76.224152</ele>
        <time>2026-08-14T02:46:15.000Z</time>
      </trkpt>
      <trkpt lat="22.776813" lon="108.520541">
        <ele>76.168650</ele>
        <time>2026-08-14T02:46:16.000Z</time>
      </trkpt>
      <trkpt lat="22.776840" lon="108.520579">
        <ele>76.114783</ele>
        <time>2026-08-14T02:46:17.000Z</time>
      </trkpt>
      <trkpt lat="22.776870" lon="108.520621">
        <ele>76.055128</ele>
        <time>2026-08-14T02:46:18.000Z</time>
      </trkpt>
      <trkpt lat="22.776900" lon="108.520663">
        <ele>75.995472</ele>
        <time>2026-08-14T02:46:19.000Z</time>
      </trkpt>
      <trkpt lat="22.776927" lon="108.520708">
        <ele>75.935188</ele>
        <time>2026-08-14T02:46:20.000Z</time>
      </trkpt>
      <trkpt lat="22.776957" lon="108.520752">
        <ele>75.873742</ele>
        <time>2026-08-14T02:46:21.000Z</time>
      </trkpt>
      <trkpt lat="22.776989" lon="108.520800">
        <ele>75.807232</ele>
        <time>2026-08-14T02:46:22.000Z</time>
      </trkpt>
      <trkpt lat="22.777027" lon="108.520848">
        <ele>75.736195</ele>
        <time>2026-08-14T02:46:23.000Z</time>
      </trkpt>
      <trkpt lat="22.777060" lon="108.520891">
        <ele>75.673376</ele>
        <time>2026-08-14T02:46:24.000Z</time>
      </trkpt>
      <trkpt lat="22.777094" lon="108.520937">
        <ele>75.607177</ele>
        <time>2026-08-14T02:46:25.000Z</time>
      </trkpt>
      <trkpt lat="22.777127" lon="108.520984">
        <ele>75.540844</ele>
        <time>2026-08-14T02:46:26.000Z</time>
      </trkpt>
      <trkpt lat="22.777161" lon="108.521035">
        <ele>75.470178</ele>
        <time>2026-08-14T02:46:27.000Z</time>
      </trkpt>
      <trkpt lat="22.777196" lon="108.521084">
        <ele>75.400580</ele>
        <time>2026-08-14T02:46:28.000Z</time>
      </trkpt>
      <trkpt lat="22.777229" lon="108.521136">
        <ele>75.329699</ele>
        <time>2026-08-14T02:46:29.000Z</time>
      </trkpt>
      <trkpt lat="22.777264" lon="108.521187">
        <ele>75.258312</ele>
        <time>2026-08-14T02:46:30.000Z</time>
      </trkpt>
      <trkpt lat="22.777300" lon="108.521239">
        <ele>75.185298</ele>
        <time>2026-08-14T02:46:31.000Z</time>
      </trkpt>
      <trkpt lat="22.777334" lon="108.521292">
        <ele>75.112800</ele>
        <time>2026-08-14T02:46:32.000Z</time>
      </trkpt>
      <trkpt lat="22.777371" lon="108.521345">
        <ele>75.038155</ele>
        <time>2026-08-14T02:46:33.000Z</time>
      </trkpt>
      <trkpt lat="22.777407" lon="108.521398">
        <ele>74.964240</ele>
        <time>2026-08-14T02:46:34.000Z</time>
      </trkpt>
      <trkpt lat="22.777445" lon="108.521451">
        <ele>74.888854</ele>
        <time>2026-08-14T02:46:35.000Z</time>
      </trkpt>
      <trkpt lat="22.777483" lon="108.521505">
        <ele>74.756527</ele>
        <time>2026-08-14T02:46:36.000Z</time>
      </trkpt>
      <trkpt lat="22.777522" lon="108.521560">
        <ele>74.586466</ele>
        <time>2026-08-14T02:46:37.000Z</time>
      </trkpt>
      <trkpt lat="22.777562" lon="108.521616">
        <ele>74.412841</ele>
        <time>2026-08-14T02:46:38.000Z</time>
      </trkpt>
      <trkpt lat="22.777602" lon="108.521674">
        <ele>74.235315</ele>
        <time>2026-08-14T02:46:39.000Z</time>
      </trkpt>
      <trkpt lat="22.777643" lon="108.521733">
        <ele>74.054234</ele>
        <time>2026-08-14T02:46:40.000Z</time>
      </trkpt>
      <trkpt lat="22.777685" lon="108.521792">
        <ele>73.871540</ele>
        <time>2026-08-14T02:46:41.000Z</time>
      </trkpt>
      <trkpt lat="22.777724" lon="108.521851">
        <ele>73.693607</ele>
        <time>2026-08-14T02:46:42.000Z</time>
      </trkpt>
      <trkpt lat="22.777761" lon="108.521913">
        <ele>73.512592</ele>
        <time>2026-08-14T02:46:43.000Z</time>
      </trkpt>
      <trkpt lat="22.777799" lon="108.521974">
        <ele>73.332155</ele>
        <time>2026-08-14T02:46:44.000Z</time>
      </trkpt>
      <trkpt lat="22.777839" lon="108.522034">
        <ele>73.150680</ele>
        <time>2026-08-14T02:46:45.000Z</time>
      </trkpt>
      <trkpt lat="22.777879" lon="108.522093">
        <ele>72.971186</ele>
        <time>2026-08-14T02:46:46.000Z</time>
      </trkpt>
      <trkpt lat="22.777921" lon="108.522155">
        <ele>72.782619</ele>
        <time>2026-08-14T02:46:47.000Z</time>
      </trkpt>
      <trkpt lat="22.777964" lon="108.522218">
        <ele>72.590501</ele>
        <time>2026-08-14T02:46:48.000Z</time>
      </trkpt>
      <trkpt lat="22.778005" lon="108.522280">
        <ele>72.403495</ele>
        <time>2026-08-14T02:46:49.000Z</time>
      </trkpt>
      <trkpt lat="22.778048" lon="108.522339">
        <ele>72.219165</ele>
        <time>2026-08-14T02:46:50.000Z</time>
      </trkpt>
      <trkpt lat="22.778088" lon="108.522399">
        <ele>72.037691</ele>
        <time>2026-08-14T02:46:51.000Z</time>
      </trkpt>
      <trkpt lat="22.778127" lon="108.522456">
        <ele>71.863719</ele>
        <time>2026-08-14T02:46:52.000Z</time>
      </trkpt>
      <trkpt lat="22.778168" lon="108.522515">
        <ele>71.682638</ele>
        <time>2026-08-14T02:46:53.000Z</time>
      </trkpt>
      <trkpt lat="22.778214" lon="108.522572">
        <ele>71.496975</ele>
        <time>2026-08-14T02:46:54.000Z</time>
      </trkpt>
      <trkpt lat="22.778262" lon="108.522631">
        <ele>71.304120</ele>
        <time>2026-08-14T02:46:55.000Z</time>
      </trkpt>
      <trkpt lat="22.778308" lon="108.522691">
        <ele>71.112863</ele>
        <time>2026-08-14T02:46:56.000Z</time>
      </trkpt>
      <trkpt lat="22.778350" lon="108.522754">
        <ele>70.922315</ele>
        <time>2026-08-14T02:46:57.000Z</time>
      </trkpt>
      <trkpt lat="22.778393" lon="108.522817">
        <ele>70.730198</ele>
        <time>2026-08-14T02:46:58.000Z</time>
      </trkpt>
      <trkpt lat="22.778439" lon="108.522878">
        <ele>70.537050</ele>
        <time>2026-08-14T02:46:59.000Z</time>
      </trkpt>
      <trkpt lat="22.778484" lon="108.522940">
        <ele>70.343655</ele>
        <time>2026-08-14T02:47:00.000Z</time>
      </trkpt>
      <trkpt lat="22.778531" lon="108.523002">
        <ele>70.146926</ele>
        <time>2026-08-14T02:47:01.000Z</time>
      </trkpt>
      <trkpt lat="22.778578" lon="108.523064">
        <ele>69.976827</ele>
        <time>2026-08-14T02:47:02.000Z</time>
      </trkpt>
      <trkpt lat="22.778625" lon="108.523128">
        <ele>69.817870</ele>
        <time>2026-08-14T02:47:03.000Z</time>
      </trkpt>
      <trkpt lat="22.778672" lon="108.523191">
        <ele>69.660428</ele>
        <time>2026-08-14T02:47:04.000Z</time>
      </trkpt>
      <trkpt lat="22.778720" lon="108.523255">
        <ele>69.500150</ele>
        <time>2026-08-14T02:47:05.000Z</time>
      </trkpt>
      <trkpt lat="22.778764" lon="108.523318">
        <ele>69.346605</ele>
        <time>2026-08-14T02:47:06.000Z</time>
      </trkpt>
      <trkpt lat="22.778811" lon="108.523380">
        <ele>69.190669</ele>
        <time>2026-08-14T02:47:07.000Z</time>
      </trkpt>
      <trkpt lat="22.778857" lon="108.523441">
        <ele>69.037571</ele>
        <time>2026-08-14T02:47:08.000Z</time>
      </trkpt>
      <trkpt lat="22.778899" lon="108.523503">
        <ele>68.888104</ele>
        <time>2026-08-14T02:47:09.000Z</time>
      </trkpt>
      <trkpt lat="22.778948" lon="108.523563">
        <ele>68.732388</ele>
        <time>2026-08-14T02:47:10.000Z</time>
      </trkpt>
      <trkpt lat="22.778996" lon="108.523624">
        <ele>68.576587</ele>
        <time>2026-08-14T02:47:11.000Z</time>
      </trkpt>
      <trkpt lat="22.779043" lon="108.523686">
        <ele>68.420651</ele>
        <time>2026-08-14T02:47:12.000Z</time>
      </trkpt>
      <trkpt lat="22.779087" lon="108.523749">
        <ele>68.267107</ele>
        <time>2026-08-14T02:47:13.000Z</time>
      </trkpt>
      <trkpt lat="22.779129" lon="108.523813">
        <ele>68.114492</ele>
        <time>2026-08-14T02:47:14.000Z</time>
      </trkpt>
      <trkpt lat="22.779174" lon="108.523875">
        <ele>67.961197</ele>
        <time>2026-08-14T02:47:15.000Z</time>
      </trkpt>
      <trkpt lat="22.779224" lon="108.523937">
        <ele>67.801172</ele>
        <time>2026-08-14T02:47:16.000Z</time>
      </trkpt>
      <trkpt lat="22.779273" lon="108.524001">
        <ele>67.639557</ele>
        <time>2026-08-14T02:47:17.000Z</time>
      </trkpt>
      <trkpt lat="22.779318" lon="108.524068">
        <ele>67.478518</ele>
        <time>2026-08-14T02:47:18.000Z</time>
      </trkpt>
      <trkpt lat="22.779358" lon="108.524133">
        <ele>67.326695</ele>
        <time>2026-08-14T02:47:19.000Z</time>
      </trkpt>
      <trkpt lat="22.779397" lon="108.524204">
        <ele>67.166136</ele>
        <time>2026-08-14T02:47:20.000Z</time>
      </trkpt>
      <trkpt lat="22.779445" lon="108.524273">
        <ele>66.998211</ele>
        <time>2026-08-14T02:47:21.000Z</time>
      </trkpt>
      <trkpt lat="22.779488" lon="108.524337">
        <ele>66.844364</ele>
        <time>2026-08-14T02:47:22.000Z</time>
      </trkpt>
      <trkpt lat="22.779532" lon="108.524404">
        <ele>66.684557</ele>
        <time>2026-08-14T02:47:23.000Z</time>
      </trkpt>
      <trkpt lat="22.779578" lon="108.524474">
        <ele>66.517558</ele>
        <time>2026-08-14T02:47:24.000Z</time>
      </trkpt>
      <trkpt lat="22.779620" lon="108.524541">
        <ele>66.360158</ele>
        <time>2026-08-14T02:47:25.000Z</time>
      </trkpt>
      <trkpt lat="22.779664" lon="108.524605">
        <ele>66.255360</ele>
        <time>2026-08-14T02:47:26.000Z</time>
      </trkpt>
      <trkpt lat="22.779705" lon="108.524672">
        <ele>66.193082</ele>
        <time>2026-08-14T02:47:27.000Z</time>
      </trkpt>
      <trkpt lat="22.779750" lon="108.524743">
        <ele>66.126357</ele>
        <time>2026-08-14T02:47:28.000Z</time>
      </trkpt>
      <trkpt lat="22.779797" lon="108.524811">
        <ele>66.060539</ele>
        <time>2026-08-14T02:47:29.000Z</time>
      </trkpt>
      <trkpt lat="22.779836" lon="108.524876">
        <ele>66.000479</ele>
        <time>2026-08-14T02:47:30.000Z</time>
      </trkpt>
      <trkpt lat="22.779878" lon="108.524940">
        <ele>65.939640</ele>
        <time>2026-08-14T02:47:31.000Z</time>
      </trkpt>
      <trkpt lat="22.779924" lon="108.525000">
        <ele>65.879207</ele>
        <time>2026-08-14T02:47:32.000Z</time>
      </trkpt>
      <trkpt lat="22.779969" lon="108.525062">
        <ele>65.818097</ele>
        <time>2026-08-14T02:47:33.000Z</time>
      </trkpt>
      <trkpt lat="22.780018" lon="108.525121">
        <ele>65.756600</ele>
        <time>2026-08-14T02:47:34.000Z</time>
      </trkpt>
      <trkpt lat="22.780062" lon="108.525181">
        <ele>65.697227</ele>
        <time>2026-08-14T02:47:35.000Z</time>
      </trkpt>
      <trkpt lat="22.780101" lon="108.525243">
        <ele>65.639100</ele>
        <time>2026-08-14T02:47:36.000Z</time>
      </trkpt>
      <trkpt lat="22.780137" lon="108.525305">
        <ele>65.582355</ele>
        <time>2026-08-14T02:47:37.000Z</time>
      </trkpt>
      <trkpt lat="22.780175" lon="108.525364">
        <ele>65.526618</ele>
        <time>2026-08-14T02:47:38.000Z</time>
      </trkpt>
      <trkpt lat="22.780214" lon="108.525422">
        <ele>65.471023</ele>
        <time>2026-08-14T02:47:39.000Z</time>
      </trkpt>
      <trkpt lat="22.780253" lon="108.525476">
        <ele>65.417899</ele>
        <time>2026-08-14T02:47:40.000Z</time>
      </trkpt>
      <trkpt lat="22.780292" lon="108.525532">
        <ele>65.363547</ele>
        <time>2026-08-14T02:47:41.000Z</time>
      </trkpt>
      <trkpt lat="22.780331" lon="108.525582">
        <ele>65.312827</ele>
        <time>2026-08-14T02:47:42.000Z</time>
      </trkpt>
      <trkpt lat="22.780366" lon="108.525631">
        <ele>65.264823</ele>
        <time>2026-08-14T02:47:43.000Z</time>
      </trkpt>
      <trkpt lat="22.780395" lon="108.525679">
        <ele>65.220378</ele>
        <time>2026-08-14T02:47:44.000Z</time>
      </trkpt>
      <trkpt lat="22.780428" lon="108.525718">
        <ele>65.179383</ele>
        <time>2026-08-14T02:47:45.000Z</time>
      </trkpt>
      <trkpt lat="22.780460" lon="108.525756">
        <ele>65.139526</ele>
        <time>2026-08-14T02:47:46.000Z</time>
      </trkpt>
      <trkpt lat="22.780487" lon="108.525797">
        <ele>65.100506</ele>
        <time>2026-08-14T02:47:47.000Z</time>
      </trkpt>
      <trkpt lat="22.780517" lon="108.525835">
        <ele>65.061762</ele>
        <time>2026-08-14T02:47:48.000Z</time>
      </trkpt>
      <trkpt lat="22.780547" lon="108.525872">
        <ele>65.023603</ele>
        <time>2026-08-14T02:47:49.000Z</time>
      </trkpt>
      <trkpt lat="22.780576" lon="108.525910">
        <ele>64.985400</ele>
        <time>2026-08-14T02:47:50.000Z</time>
      </trkpt>
      <trkpt lat="22.780603" lon="108.525951">
        <ele>64.946380</ele>
        <time>2026-08-14T02:47:51.000Z</time>
      </trkpt>
      <trkpt lat="22.780628" lon="108.525996">
        <ele>64.905692</ele>
        <time>2026-08-14T02:47:52.000Z</time>
      </trkpt>
      <trkpt lat="22.780654" lon="108.526041">
        <ele>64.864564</ele>
        <time>2026-08-14T02:47:53.000Z</time>
      </trkpt>
      <trkpt lat="22.780682" lon="108.526085">
        <ele>64.823159</ele>
        <time>2026-08-14T02:47:54.000Z</time>
      </trkpt>
      <trkpt lat="22.780711" lon="108.526131">
        <ele>64.780002</ele>
        <time>2026-08-14T02:47:55.000Z</time>
      </trkpt>
      <trkpt lat="22.780738" lon="108.526178">
        <ele>64.755489</ele>
        <time>2026-08-14T02:47:56.000Z</time>
      </trkpt>
      <trkpt lat="22.780768" lon="108.526221">
        <ele>64.732548</ele>
        <time>2026-08-14T02:47:57.000Z</time>
      </trkpt>
      <trkpt lat="22.780798" lon="108.526261">
        <ele>64.710611</ele>
        <time>2026-08-14T02:47:58.000Z</time>
      </trkpt>
      <trkpt lat="22.780828" lon="108.526302">
        <ele>64.688343</ele>
        <time>2026-08-14T02:47:59.000Z</time>
      </trkpt>
      <trkpt lat="22.780853" lon="108.526335">
        <ele>64.670173</ele>
        <time>2026-08-14T02:48:00.000Z</time>
      </trkpt>
      <trkpt lat="22.780879" lon="108.526377">
        <ele>64.648651</ele>
        <time>2026-08-14T02:48:01.000Z</time>
      </trkpt>
      <trkpt lat="22.780907" lon="108.526421">
        <ele>64.625906</ele>
        <time>2026-08-14T02:48:02.000Z</time>
      </trkpt>
      <trkpt lat="22.780937" lon="108.526465">
        <ele>64.602624</ele>
        <time>2026-08-14T02:48:03.000Z</time>
      </trkpt>
      <trkpt lat="22.780967" lon="108.526509">
        <ele>64.579343</ele>
        <time>2026-08-14T02:48:04.000Z</time>
      </trkpt>
      <trkpt lat="22.780993" lon="108.526555">
        <ele>64.556389</ele>
        <time>2026-08-14T02:48:05.000Z</time>
      </trkpt>
      <trkpt lat="22.781018" lon="108.526604">
        <ele>64.532564</ele>
        <time>2026-08-14T02:48:06.000Z</time>
      </trkpt>
      <trkpt lat="22.781039" lon="108.526657">
        <ele>64.508022</ele>
        <time>2026-08-14T02:48:07.000Z</time>
      </trkpt>
      <trkpt lat="22.781060" lon="108.526708">
        <ele>64.484259</ele>
        <time>2026-08-14T02:48:08.000Z</time>
      </trkpt>
      <trkpt lat="22.781078" lon="108.526761">
        <ele>64.460230</ele>
        <time>2026-08-14T02:48:09.000Z</time>
      </trkpt>
      <trkpt lat="22.781097" lon="108.526817">
        <ele>64.434844</ele>
        <time>2026-08-14T02:48:10.000Z</time>
      </trkpt>
      <trkpt lat="22.781116" lon="108.526873">
        <ele>64.409458</ele>
        <time>2026-08-14T02:48:11.000Z</time>
      </trkpt>
      <trkpt lat="22.781136" lon="108.526930">
        <ele>64.383512</ele>
        <time>2026-08-14T02:48:12.000Z</time>
      </trkpt>
      <trkpt lat="22.781159" lon="108.526988">
        <ele>64.356652</ele>
        <time>2026-08-14T02:48:13.000Z</time>
      </trkpt>
      <trkpt lat="22.781183" lon="108.527047">
        <ele>64.329217</ele>
        <time>2026-08-14T02:48:14.000Z</time>
      </trkpt>
      <trkpt lat="22.781207" lon="108.527107">
        <ele>64.301392</ele>
        <time>2026-08-14T02:48:15.000Z</time>
      </trkpt>
      <trkpt lat="22.781230" lon="108.527166">
        <ele>64.274141</ele>
        <time>2026-08-14T02:48:16.000Z</time>
      </trkpt>
      <trkpt lat="22.781255" lon="108.527229">
        <ele>64.244961</ele>
        <time>2026-08-14T02:48:17.000Z</time>
      </trkpt>
      <trkpt lat="22.781281" lon="108.527289">
        <ele>64.216757</ele>
        <time>2026-08-14T02:48:18.000Z</time>
      </trkpt>
      <trkpt lat="22.781308" lon="108.527349">
        <ele>64.188353</ele>
        <time>2026-08-14T02:48:19.000Z</time>
      </trkpt>
      <trkpt lat="22.781336" lon="108.527408">
        <ele>64.160123</ele>
        <time>2026-08-14T02:48:20.000Z</time>
      </trkpt>
      <trkpt lat="22.781366" lon="108.527468">
        <ele>64.131085</ele>
        <time>2026-08-14T02:48:21.000Z</time>
      </trkpt>
      <trkpt lat="22.781396" lon="108.527525">
        <ele>64.103162</ele>
        <time>2026-08-14T02:48:22.000Z</time>
      </trkpt>
      <trkpt lat="22.781428" lon="108.527581">
        <ele>64.075134</ele>
        <time>2026-08-14T02:48:23.000Z</time>
      </trkpt>
      <trkpt lat="22.781459" lon="108.527640">
        <ele>64.046244</ele>
        <time>2026-08-14T02:48:24.000Z</time>
      </trkpt>
      <trkpt lat="22.781490" lon="108.527696">
        <ele>64.018455</ele>
        <time>2026-08-14T02:48:25.000Z</time>
      </trkpt>
      <trkpt lat="22.781521" lon="108.527752">
        <ele>63.990667</ele>
        <time>2026-08-14T02:48:26.000Z</time>
      </trkpt>
      <trkpt lat="22.781552" lon="108.527811">
        <ele>63.961777</ele>
        <time>2026-08-14T02:48:27.000Z</time>
      </trkpt>
      <trkpt lat="22.781579" lon="108.527865">
        <ele>63.930418</ele>
        <time>2026-08-14T02:48:28.000Z</time>
      </trkpt>
      <trkpt lat="22.781609" lon="108.527924">
        <ele>63.889577</ele>
        <time>2026-08-14T02:48:29.000Z</time>
      </trkpt>
      <trkpt lat="22.781639" lon="108.527982">
        <ele>63.849265</ele>
        <time>2026-08-14T02:48:30.000Z</time>
      </trkpt>
      <trkpt lat="22.781666" lon="108.528040">
        <ele>63.809882</ele>
        <time>2026-08-14T02:48:31.000Z</time>
      </trkpt>
      <trkpt lat="22.781685" lon="108.528099">
        <ele>63.772000</ele>
        <time>2026-08-14T02:48:32.000Z</time>
      </trkpt>
      <trkpt lat="22.781709" lon="108.528160">
        <ele>63.731799</ele>
        <time>2026-08-14T02:48:33.000Z</time>
      </trkpt>
      <trkpt lat="22.781738" lon="108.528220">
        <ele>63.690736</ele>
        <time>2026-08-14T02:48:34.000Z</time>
      </trkpt>
      <trkpt lat="22.781768" lon="108.528280">
        <ele>63.649363</ele>
        <time>2026-08-14T02:48:35.000Z</time>
      </trkpt>
      <trkpt lat="22.781791" lon="108.528341">
        <ele>63.609415</ele>
        <time>2026-08-14T02:48:36.000Z</time>
      </trkpt>
      <trkpt lat="22.781807" lon="108.528407">
        <ele>63.568049</ele>
        <time>2026-08-14T02:48:37.000Z</time>
      </trkpt>
      <trkpt lat="22.781824" lon="108.528473">
        <ele>63.526512</ele>
        <time>2026-08-14T02:48:38.000Z</time>
      </trkpt>
      <trkpt lat="22.781847" lon="108.528531">
        <ele>63.488241</ele>
        <time>2026-08-14T02:48:39.000Z</time>
      </trkpt>
      <trkpt lat="22.781875" lon="108.528588">
        <ele>63.449093</ele>
        <time>2026-08-14T02:48:40.000Z</time>
      </trkpt>
      <trkpt lat="22.781901" lon="108.528647">
        <ele>63.409455</ele>
        <time>2026-08-14T02:48:41.000Z</time>
      </trkpt>
      <trkpt lat="22.781928" lon="108.528707">
        <ele>63.368985</ele>
        <time>2026-08-14T02:48:42.000Z</time>
      </trkpt>
      <trkpt lat="22.781961" lon="108.528768">
        <ele>63.326115</ele>
        <time>2026-08-14T02:48:43.000Z</time>
      </trkpt>
      <trkpt lat="22.781996" lon="108.528830">
        <ele>63.282049</ele>
        <time>2026-08-14T02:48:44.000Z</time>
      </trkpt>
      <trkpt lat="22.782023" lon="108.528887">
        <ele>63.243205</ele>
        <time>2026-08-14T02:48:45.000Z</time>
      </trkpt>
      <trkpt lat="22.782048" lon="108.528945">
        <ele>63.204396</ele>
        <time>2026-08-14T02:48:46.000Z</time>
      </trkpt>
      <trkpt lat="22.782077" lon="108.529007">
        <ele>63.162255</ele>
        <time>2026-08-14T02:48:47.000Z</time>
      </trkpt>
      <trkpt lat="22.782104" lon="108.529067">
        <ele>63.121786</ele>
        <time>2026-08-14T02:48:48.000Z</time>
      </trkpt>
      <trkpt lat="22.782132" lon="108.529134">
        <ele>63.077197</ele>
        <time>2026-08-14T02:48:49.000Z</time>
      </trkpt>
      <trkpt lat="22.782165" lon="108.529195">
        <ele>63.034326</ele>
        <time>2026-08-14T02:48:50.000Z</time>
      </trkpt>
      <trkpt lat="22.782195" lon="108.529257">
        <ele>62.991884</ele>
        <time>2026-08-14T02:48:51.000Z</time>
      </trkpt>
      <trkpt lat="22.782225" lon="108.529321">
        <ele>62.948365</ele>
        <time>2026-08-14T02:48:52.000Z</time>
      </trkpt>
      <trkpt lat="22.782255" lon="108.529385">
        <ele>62.904845</ele>
        <time>2026-08-14T02:48:53.000Z</time>
      </trkpt>
      <trkpt lat="22.782282" lon="108.529450">
        <ele>62.861632</ele>
        <time>2026-08-14T02:48:54.000Z</time>
      </trkpt>
      <trkpt lat="22.782310" lon="108.529511">
        <ele>62.820328</ele>
        <time>2026-08-14T02:48:55.000Z</time>
      </trkpt>
      <trkpt lat="22.782338" lon="108.529573">
        <ele>62.778480</ele>
        <time>2026-08-14T02:48:56.000Z</time>
      </trkpt>
      <trkpt lat="22.782369" lon="108.529632">
        <ele>62.736457</ele>
        <time>2026-08-14T02:48:57.000Z</time>
      </trkpt>
      <trkpt lat="22.782399" lon="108.529692">
        <ele>62.693818</ele>
        <time>2026-08-14T02:48:58.000Z</time>
      </trkpt>
      <trkpt lat="22.782428" lon="108.529751">
        <ele>62.652050</ele>
        <time>2026-08-14T02:48:59.000Z</time>
      </trkpt>
      <trkpt lat="22.782458" lon="108.529812">
        <ele>62.608861</ele>
        <time>2026-08-14T02:49:00.000Z</time>
      </trkpt>
      <trkpt lat="22.782488" lon="108.529873">
        <ele>62.565672</ele>
        <time>2026-08-14T02:49:01.000Z</time>
      </trkpt>
      <trkpt lat="22.782519" lon="108.529934">
        <ele>62.522160</ele>
        <time>2026-08-14T02:49:02.000Z</time>
      </trkpt>
      <trkpt lat="22.782548" lon="108.529996">
        <ele>62.478730</ele>
        <time>2026-08-14T02:49:03.000Z</time>
      </trkpt>
      <trkpt lat="22.782580" lon="108.530058">
        <ele>62.434343</ele>
        <time>2026-08-14T02:49:04.000Z</time>
      </trkpt>
      <trkpt lat="22.782607" lon="108.530120">
        <ele>62.391508</ele>
        <time>2026-08-14T02:49:05.000Z</time>
      </trkpt>
      <trkpt lat="22.782631" lon="108.530186">
        <ele>62.347187</ele>
        <time>2026-08-14T02:49:06.000Z</time>
      </trkpt>
      <trkpt lat="22.782658" lon="108.530248">
        <ele>62.304353</ele>
        <time>2026-08-14T02:49:07.000Z</time>
      </trkpt>
      <trkpt lat="22.782686" lon="108.530310">
        <ele>62.261225</ele>
        <time>2026-08-14T02:49:08.000Z</time>
      </trkpt>
      <trkpt lat="22.782715" lon="108.530371">
        <ele>62.218350</ele>
        <time>2026-08-14T02:49:09.000Z</time>
      </trkpt>
      <trkpt lat="22.782745" lon="108.530429">
        <ele>62.176805</ele>
        <time>2026-08-14T02:49:10.000Z</time>
      </trkpt>
      <trkpt lat="22.782772" lon="108.530492">
        <ele>62.133405</ele>
        <time>2026-08-14T02:49:11.000Z</time>
      </trkpt>
      <trkpt lat="22.782801" lon="108.530555">
        <ele>62.089417</ele>
        <time>2026-08-14T02:49:12.000Z</time>
      </trkpt>
      <trkpt lat="22.782821" lon="108.530621">
        <ele>62.046017</ele>
        <time>2026-08-14T02:49:13.000Z</time>
      </trkpt>
      <trkpt lat="22.782845" lon="108.530681">
        <ele>62.005160</ele>
        <time>2026-08-14T02:49:14.000Z</time>
      </trkpt>
      <trkpt lat="22.782868" lon="108.530744">
        <ele>61.962831</ele>
        <time>2026-08-14T02:49:15.000Z</time>
      </trkpt>
      <trkpt lat="22.782895" lon="108.530807">
        <ele>61.919431</ele>
        <time>2026-08-14T02:49:16.000Z</time>
      </trkpt>
      <trkpt lat="22.782922" lon="108.530869">
        <ele>61.876596</ele>
        <time>2026-08-14T02:49:17.000Z</time>
      </trkpt>
      <trkpt lat="22.782948" lon="108.530930">
        <ele>61.834615</ele>
        <time>2026-08-14T02:49:18.000Z</time>
      </trkpt>
      <trkpt lat="22.782976" lon="108.530991">
        <ele>61.792047</ele>
        <time>2026-08-14T02:49:19.000Z</time>
      </trkpt>
      <trkpt lat="22.783005" lon="108.531054">
        <ele>61.748058</ele>
        <time>2026-08-14T02:49:20.000Z</time>
      </trkpt>
      <trkpt lat="22.783034" lon="108.531111">
        <ele>61.707389</ele>
        <time>2026-08-14T02:49:21.000Z</time>
      </trkpt>
      <trkpt lat="22.783065" lon="108.531175">
        <ele>61.662227</ele>
        <time>2026-08-14T02:49:22.000Z</time>
      </trkpt>
      <trkpt lat="22.783093" lon="108.531237">
        <ele>61.619099</ele>
        <time>2026-08-14T02:49:23.000Z</time>
      </trkpt>
      <trkpt lat="22.783120" lon="108.531301">
        <ele>61.575132</ele>
        <time>2026-08-14T02:49:24.000Z</time>
      </trkpt>
      <trkpt lat="22.783148" lon="108.531365">
        <ele>61.546572</ele>
        <time>2026-08-14T02:49:25.000Z</time>
      </trkpt>
      <trkpt lat="22.783176" lon="108.531427">
        <ele>61.546077</ele>
        <time>2026-08-14T02:49:26.000Z</time>
      </trkpt>
      <trkpt lat="22.783199" lon="108.531490">
        <ele>61.545591</ele>
        <time>2026-08-14T02:49:27.000Z</time>
      </trkpt>
      <trkpt lat="22.783226" lon="108.531553">
        <ele>61.545092</ele>
        <time>2026-08-14T02:49:28.000Z</time>
      </trkpt>
      <trkpt lat="22.783256" lon="108.531615">
        <ele>61.544590</ele>
        <time>2026-08-14T02:49:29.000Z</time>
      </trkpt>
      <trkpt lat="22.783289" lon="108.531676">
        <ele>61.544083</ele>
        <time>2026-08-14T02:49:30.000Z</time>
      </trkpt>
      <trkpt lat="22.783322" lon="108.531736">
        <ele>61.543581</ele>
        <time>2026-08-14T02:49:31.000Z</time>
      </trkpt>
      <trkpt lat="22.783354" lon="108.531795">
        <ele>61.543090</ele>
        <time>2026-08-14T02:49:32.000Z</time>
      </trkpt>
      <trkpt lat="22.783382" lon="108.531856">
        <ele>61.542602</ele>
        <time>2026-08-14T02:49:33.000Z</time>
      </trkpt>
      <trkpt lat="22.783408" lon="108.531918">
        <ele>61.542113</ele>
        <time>2026-08-14T02:49:34.000Z</time>
      </trkpt>
      <trkpt lat="22.783434" lon="108.531981">
        <ele>61.541618</ele>
        <time>2026-08-14T02:49:35.000Z</time>
      </trkpt>
      <trkpt lat="22.783457" lon="108.532045">
        <ele>61.541125</ele>
        <time>2026-08-14T02:49:36.000Z</time>
      </trkpt>
      <trkpt lat="22.783481" lon="108.532109">
        <ele>61.540629</ele>
        <time>2026-08-14T02:49:37.000Z</time>
      </trkpt>
      <trkpt lat="22.783509" lon="108.532170">
        <ele>61.540140</ele>
        <time>2026-08-14T02:49:38.000Z</time>
      </trkpt>
      <trkpt lat="22.783536" lon="108.532229">
        <ele>61.539668</ele>
        <time>2026-08-14T02:49:39.000Z</time>
      </trkpt>
      <trkpt lat="22.783564" lon="108.532290">
        <ele>61.539179</ele>
        <time>2026-08-14T02:49:40.000Z</time>
      </trkpt>
      <trkpt lat="22.783590" lon="108.532348">
        <ele>61.538716</ele>
        <time>2026-08-14T02:49:41.000Z</time>
      </trkpt>
      <trkpt lat="22.783619" lon="108.532406">
        <ele>61.538243</ele>
        <time>2026-08-14T02:49:42.000Z</time>
      </trkpt>
      <trkpt lat="22.783648" lon="108.532465">
        <ele>61.537764</ele>
        <time>2026-08-14T02:49:43.000Z</time>
      </trkpt>
      <trkpt lat="22.783675" lon="108.532523">
        <ele>61.537297</ele>
        <time>2026-08-14T02:49:44.000Z</time>
      </trkpt>
      <trkpt lat="22.783702" lon="108.532584">
        <ele>61.536812</ele>
        <time>2026-08-14T02:49:45.000Z</time>
      </trkpt>
      <trkpt lat="22.783727" lon="108.532645">
        <ele>61.536333</ele>
        <time>2026-08-14T02:49:46.000Z</time>
      </trkpt>
      <trkpt lat="22.783751" lon="108.532706">
        <ele>61.535857</ele>
        <time>2026-08-14T02:49:47.000Z</time>
      </trkpt>
      <trkpt lat="22.783775" lon="108.532765">
        <ele>61.535395</ele>
        <time>2026-08-14T02:49:48.000Z</time>
      </trkpt>
      <trkpt lat="22.783799" lon="108.532823">
        <ele>61.534939</ele>
        <time>2026-08-14T02:49:49.000Z</time>
      </trkpt>
      <trkpt lat="22.783825" lon="108.532880">
        <ele>61.534482</ele>
        <time>2026-08-14T02:49:50.000Z</time>
      </trkpt>
      <trkpt lat="22.783851" lon="108.532937">
        <ele>61.534026</ele>
        <time>2026-08-14T02:49:51.000Z</time>
      </trkpt>
      <trkpt lat="22.783876" lon="108.532994">
        <ele>61.533573</ele>
        <time>2026-08-14T02:49:52.000Z</time>
      </trkpt>
      <trkpt lat="22.783902" lon="108.533050">
        <ele>61.533124</ele>
        <time>2026-08-14T02:49:53.000Z</time>
      </trkpt>
      <trkpt lat="22.783929" lon="108.533107">
        <ele>61.539318</ele>
        <time>2026-08-14T02:49:54.000Z</time>
      </trkpt>
      <trkpt lat="22.783956" lon="108.533160">
        <ele>61.569175</ele>
        <time>2026-08-14T02:49:55.000Z</time>
      </trkpt>
      <trkpt lat="22.783982" lon="108.533213">
        <ele>61.598776</ele>
        <time>2026-08-14T02:49:56.000Z</time>
      </trkpt>
      <trkpt lat="22.784010" lon="108.533266">
        <ele>61.628894</ele>
        <time>2026-08-14T02:49:57.000Z</time>
      </trkpt>
      <trkpt lat="22.784039" lon="108.533320">
        <ele>61.659707</ele>
        <time>2026-08-14T02:49:58.000Z</time>
      </trkpt>
      <trkpt lat="22.784067" lon="108.533374">
        <ele>61.690254</ele>
        <time>2026-08-14T02:49:59.000Z</time>
      </trkpt>
      <trkpt lat="22.784095" lon="108.533427">
        <ele>61.720373</ele>
        <time>2026-08-14T02:50:00.000Z</time>
      </trkpt>
      <trkpt lat="22.784123" lon="108.533480">
        <ele>61.750491</ele>
        <time>2026-08-14T02:50:01.000Z</time>
      </trkpt>
      <trkpt lat="22.784149" lon="108.533533">
        <ele>61.780092</ele>
        <time>2026-08-14T02:50:02.000Z</time>
      </trkpt>
      <trkpt lat="22.784173" lon="108.533582">
        <ele>61.807450</ele>
        <time>2026-08-14T02:50:03.000Z</time>
      </trkpt>
      <trkpt lat="22.784198" lon="108.533632">
        <ele>61.835495</ele>
        <time>2026-08-14T02:50:04.000Z</time>
      </trkpt>
      <trkpt lat="22.784224" lon="108.533682">
        <ele>61.863799</ele>
        <time>2026-08-14T02:50:05.000Z</time>
      </trkpt>
      <trkpt lat="22.784251" lon="108.533732">
        <ele>61.892369</ele>
        <time>2026-08-14T02:50:06.000Z</time>
      </trkpt>
      <trkpt lat="22.784278" lon="108.533780">
        <ele>61.920093</ele>
        <time>2026-08-14T02:50:07.000Z</time>
      </trkpt>
      <trkpt lat="22.784303" lon="108.533831">
        <ele>61.948572</ele>
        <time>2026-08-14T02:50:08.000Z</time>
      </trkpt>
      <trkpt lat="22.784330" lon="108.533881">
        <ele>61.977143</ele>
        <time>2026-08-14T02:50:09.000Z</time>
      </trkpt>
      <trkpt lat="22.784355" lon="108.533932">
        <ele>62.005622</ele>
        <time>2026-08-14T02:50:10.000Z</time>
      </trkpt>
      <trkpt lat="22.784381" lon="108.533986">
        <ele>62.035660</ele>
        <time>2026-08-14T02:50:11.000Z</time>
      </trkpt>
      <trkpt lat="22.784406" lon="108.534036">
        <ele>62.063705</ele>
        <time>2026-08-14T02:50:12.000Z</time>
      </trkpt>
      <trkpt lat="22.784432" lon="108.534089">
        <ele>62.093306</ele>
        <time>2026-08-14T02:50:13.000Z</time>
      </trkpt>
      <trkpt lat="22.784457" lon="108.534140">
        <ele>62.121785</ele>
        <time>2026-08-14T02:50:14.000Z</time>
      </trkpt>
      <trkpt lat="22.784480" lon="108.534193">
        <ele>62.150667</ele>
        <time>2026-08-14T02:50:15.000Z</time>
      </trkpt>
      <trkpt lat="22.784498" lon="108.534248">
        <ele>62.179443</ele>
        <time>2026-08-14T02:50:16.000Z</time>
      </trkpt>
      <trkpt lat="22.784516" lon="108.534304">
        <ele>62.208685</ele>
        <time>2026-08-14T02:50:17.000Z</time>
      </trkpt>
      <trkpt lat="22.784535" lon="108.534359">
        <ele>62.237644</ele>
        <time>2026-08-14T02:50:18.000Z</time>
      </trkpt>
      <trkpt lat="22.784556" lon="108.534415">
        <ele>62.267452</ele>
        <time>2026-08-14T02:50:19.000Z</time>
      </trkpt>
      <trkpt lat="22.784577" lon="108.534471">
        <ele>62.297260</ele>
        <time>2026-08-14T02:50:20.000Z</time>
      </trkpt>
      <trkpt lat="22.784601" lon="108.534527">
        <ele>62.327709</ele>
        <time>2026-08-14T02:50:21.000Z</time>
      </trkpt>
      <trkpt lat="22.784626" lon="108.534583">
        <ele>62.358386</ele>
        <time>2026-08-14T02:50:22.000Z</time>
      </trkpt>
      <trkpt lat="22.784652" lon="108.534635">
        <ele>62.387553</ele>
        <time>2026-08-14T02:50:23.000Z</time>
      </trkpt>
      <trkpt lat="22.784677" lon="108.534687">
        <ele>62.416469</ele>
        <time>2026-08-14T02:50:24.000Z</time>
      </trkpt>
      <trkpt lat="22.784701" lon="108.534740">
        <ele>62.445583</ele>
        <time>2026-08-14T02:50:25.000Z</time>
      </trkpt>
      <trkpt lat="22.784725" lon="108.534793">
        <ele>62.474697</ele>
        <time>2026-08-14T02:50:26.000Z</time>
      </trkpt>
      <trkpt lat="22.784747" lon="108.534846">
        <ele>62.497265</ele>
        <time>2026-08-14T02:50:27.000Z</time>
      </trkpt>
      <trkpt lat="22.784770" lon="108.534898">
        <ele>62.505792</ele>
        <time>2026-08-14T02:50:28.000Z</time>
      </trkpt>
      <trkpt lat="22.784794" lon="108.534949">
        <ele>62.514257</ele>
        <time>2026-08-14T02:50:29.000Z</time>
      </trkpt>
      <trkpt lat="22.784816" lon="108.534999">
        <ele>62.522448</ele>
        <time>2026-08-14T02:50:30.000Z</time>
      </trkpt>
      <trkpt lat="22.784838" lon="108.535051">
        <ele>62.530907</ele>
        <time>2026-08-14T02:50:31.000Z</time>
      </trkpt>
      <trkpt lat="22.784863" lon="108.535104">
        <ele>62.539708</ele>
        <time>2026-08-14T02:50:32.000Z</time>
      </trkpt>
      <trkpt lat="22.784889" lon="108.535155">
        <ele>62.548324</ele>
        <time>2026-08-14T02:50:33.000Z</time>
      </trkpt>
      <trkpt lat="22.784915" lon="108.535206">
        <ele>62.556940</ele>
        <time>2026-08-14T02:50:34.000Z</time>
      </trkpt>
      <trkpt lat="22.784941" lon="108.535258">
        <ele>62.565686</ele>
        <time>2026-08-14T02:50:35.000Z</time>
      </trkpt>
      <trkpt lat="22.784969" lon="108.535309">
        <ele>62.574461</ele>
        <time>2026-08-14T02:50:36.000Z</time>
      </trkpt>
      <trkpt lat="22.784997" lon="108.535360">
        <ele>62.583237</ele>
        <time>2026-08-14T02:50:37.000Z</time>
      </trkpt>
      <trkpt lat="22.785024" lon="108.535411">
        <ele>62.591932</ele>
        <time>2026-08-14T02:50:38.000Z</time>
      </trkpt>
      <trkpt lat="22.785048" lon="108.535463">
        <ele>62.600529</ele>
        <time>2026-08-14T02:50:39.000Z</time>
      </trkpt>
      <trkpt lat="22.785072" lon="108.535515">
        <ele>62.609126</ele>
        <time>2026-08-14T02:50:40.000Z</time>
      </trkpt>
      <trkpt lat="22.785096" lon="108.535566">
        <ele>62.617592</ele>
        <time>2026-08-14T02:50:41.000Z</time>
      </trkpt>
      <trkpt lat="22.785120" lon="108.535616">
        <ele>62.625926</ele>
        <time>2026-08-14T02:50:42.000Z</time>
      </trkpt>
      <trkpt lat="22.785144" lon="108.535666">
        <ele>62.634260</ele>
        <time>2026-08-14T02:50:43.000Z</time>
      </trkpt>
      <trkpt lat="22.785168" lon="108.535716">
        <ele>62.642594</ele>
        <time>2026-08-14T02:50:44.000Z</time>
      </trkpt>
      <trkpt lat="22.785195" lon="108.535766">
        <ele>62.651160</ele>
        <time>2026-08-14T02:50:45.000Z</time>
      </trkpt>
      <trkpt lat="22.785221" lon="108.535817">
        <ele>62.659776</ele>
        <time>2026-08-14T02:50:46.000Z</time>
      </trkpt>
      <trkpt lat="22.785247" lon="108.535867">
        <ele>62.668263</ele>
        <time>2026-08-14T02:50:47.000Z</time>
      </trkpt>
      <trkpt lat="22.785272" lon="108.535917">
        <ele>62.676672</ele>
        <time>2026-08-14T02:50:48.000Z</time>
      </trkpt>
      <trkpt lat="22.785297" lon="108.535971">
        <ele>62.685606</ele>
        <time>2026-08-14T02:50:49.000Z</time>
      </trkpt>
      <trkpt lat="22.785320" lon="108.536025">
        <ele>62.694400</ele>
        <time>2026-08-14T02:50:50.000Z</time>
      </trkpt>
      <trkpt lat="22.785342" lon="108.536080">
        <ele>62.703264</ele>
        <time>2026-08-14T02:50:51.000Z</time>
      </trkpt>
      <trkpt lat="22.785364" lon="108.536134">
        <ele>62.711992</ele>
        <time>2026-08-14T02:50:52.000Z</time>
      </trkpt>
      <trkpt lat="22.785389" lon="108.536188">
        <ele>62.720926</ele>
        <time>2026-08-14T02:50:53.000Z</time>
      </trkpt>
      <trkpt lat="22.785415" lon="108.536241">
        <ele>62.729802</ele>
        <time>2026-08-14T02:50:54.000Z</time>
      </trkpt>
      <trkpt lat="22.785440" lon="108.536295">
        <ele>62.738735</ele>
        <time>2026-08-14T02:50:55.000Z</time>
      </trkpt>
      <trkpt lat="22.785463" lon="108.536348">
        <ele>62.747395</ele>
        <time>2026-08-14T02:50:56.000Z</time>
      </trkpt>
      <trkpt lat="22.785488" lon="108.536401">
        <ele>62.756197</ele>
        <time>2026-08-14T02:50:57.000Z</time>
      </trkpt>
      <trkpt lat="22.785513" lon="108.536455">
        <ele>62.765131</ele>
        <time>2026-08-14T02:50:58.000Z</time>
      </trkpt>
      <trkpt lat="22.785537" lon="108.536507">
        <ele>62.773728</ele>
        <time>2026-08-14T02:50:59.000Z</time>
      </trkpt>
      <trkpt lat="22.785562" lon="108.536559">
        <ele>62.782398</ele>
        <time>2026-08-14T02:51:00.000Z</time>
      </trkpt>
      <trkpt lat="22.785589" lon="108.536614">
        <ele>62.761019</ele>
        <time>2026-08-14T02:51:01.000Z</time>
      </trkpt>
      <trkpt lat="22.785614" lon="108.536667">
        <ele>62.738253</ele>
        <time>2026-08-14T02:51:02.000Z</time>
      </trkpt>
      <trkpt lat="22.785638" lon="108.536720">
        <ele>62.715673</ele>
        <time>2026-08-14T02:51:03.000Z</time>
      </trkpt>
      <trkpt lat="22.785664" lon="108.536773">
        <ele>62.692716</ele>
        <time>2026-08-14T02:51:04.000Z</time>
      </trkpt>
      <trkpt lat="22.785690" lon="108.536826">
        <ele>62.669758</ele>
        <time>2026-08-14T02:51:05.000Z</time>
      </trkpt>
      <trkpt lat="22.785717" lon="108.536880">
        <ele>62.646267</ele>
        <time>2026-08-14T02:51:06.000Z</time>
      </trkpt>
      <trkpt lat="22.785744" lon="108.536934">
        <ele>62.622776</ele>
        <time>2026-08-14T02:51:07.000Z</time>
      </trkpt>
      <trkpt lat="22.785769" lon="108.536988">
        <ele>62.599669</ele>
        <time>2026-08-14T02:51:08.000Z</time>
      </trkpt>
      <trkpt lat="22.785794" lon="108.537043">
        <ele>62.576220</ele>
        <time>2026-08-14T02:51:09.000Z</time>
      </trkpt>
      <trkpt lat="22.785820" lon="108.537100">
        <ele>62.551901</ele>
        <time>2026-08-14T02:51:10.000Z</time>
      </trkpt>
      <trkpt lat="22.785844" lon="108.537154">
        <ele>62.528977</ele>
        <time>2026-08-14T02:51:11.000Z</time>
      </trkpt>
      <trkpt lat="22.785869" lon="108.537208">
        <ele>62.505870</ele>
        <time>2026-08-14T02:51:12.000Z</time>
      </trkpt>
      <trkpt lat="22.785895" lon="108.537262">
        <ele>62.482574</ele>
        <time>2026-08-14T02:51:13.000Z</time>
      </trkpt>
      <trkpt lat="22.785922" lon="108.537314">
        <ele>62.459753</ele>
        <time>2026-08-14T02:51:14.000Z</time>
      </trkpt>
      <trkpt lat="22.785949" lon="108.537366">
        <ele>62.436931</ele>
        <time>2026-08-14T02:51:15.000Z</time>
      </trkpt>
      <trkpt lat="22.785976" lon="108.537419">
        <ele>62.413776</ele>
        <time>2026-08-14T02:51:16.000Z</time>
      </trkpt>
      <trkpt lat="22.786003" lon="108.537474">
        <ele>62.389948</ele>
        <time>2026-08-14T02:51:17.000Z</time>
      </trkpt>
      <trkpt lat="22.786030" lon="108.537528">
        <ele>62.366457</ele>
        <time>2026-08-14T02:51:18.000Z</time>
      </trkpt>
      <trkpt lat="22.786059" lon="108.537581">
        <ele>62.342889</ele>
        <time>2026-08-14T02:51:19.000Z</time>
      </trkpt>
      <trkpt lat="22.786088" lon="108.537636">
        <ele>62.318661</ele>
        <time>2026-08-14T02:51:20.000Z</time>
      </trkpt>
      <trkpt lat="22.786116" lon="108.537690">
        <ele>62.294969</ele>
        <time>2026-08-14T02:51:21.000Z</time>
      </trkpt>
      <trkpt lat="22.786143" lon="108.537748">
        <ele>62.270123</ele>
        <time>2026-08-14T02:51:22.000Z</time>
      </trkpt>
      <trkpt lat="22.786169" lon="108.537803">
        <ele>62.246487</ele>
        <time>2026-08-14T02:51:23.000Z</time>
      </trkpt>
      <trkpt lat="22.786194" lon="108.537858">
        <ele>62.223038</ele>
        <time>2026-08-14T02:51:24.000Z</time>
      </trkpt>
      <trkpt lat="22.786218" lon="108.537914">
        <ele>62.199423</ele>
        <time>2026-08-14T02:51:25.000Z</time>
      </trkpt>
      <trkpt lat="22.786242" lon="108.537972">
        <ele>62.175112</ele>
        <time>2026-08-14T02:51:26.000Z</time>
      </trkpt>
      <trkpt lat="22.786266" lon="108.538030">
        <ele>62.150802</ele>
        <time>2026-08-14T02:51:27.000Z</time>
      </trkpt>
      <trkpt lat="22.786289" lon="108.538088">
        <ele>62.126658</ele>
        <time>2026-08-14T02:51:28.000Z</time>
      </trkpt>
      <trkpt lat="22.786313" lon="108.538147">
        <ele>62.101998</ele>
        <time>2026-08-14T02:51:29.000Z</time>
      </trkpt>
      <trkpt lat="22.786335" lon="108.538202">
        <ele>62.079072</ele>
        <time>2026-08-14T02:51:30.000Z</time>
      </trkpt>
      <trkpt lat="22.786357" lon="108.538259">
        <ele>62.055442</ele>
        <time>2026-08-14T02:51:31.000Z</time>
      </trkpt>
      <trkpt lat="22.786379" lon="108.538318">
        <ele>62.035707</ele>
        <time>2026-08-14T02:51:32.000Z</time>
      </trkpt>
      <trkpt lat="22.786401" lon="108.538377">
        <ele>62.030190</ele>
        <time>2026-08-14T02:51:33.000Z</time>
      </trkpt>
      <trkpt lat="22.786423" lon="108.538437">
        <ele>62.024593</ele>
        <time>2026-08-14T02:51:34.000Z</time>
      </trkpt>
      <trkpt lat="22.786444" lon="108.538498">
        <ele>62.018948</ele>
        <time>2026-08-14T02:51:35.000Z</time>
      </trkpt>
      <trkpt lat="22.786467" lon="108.538559">
        <ele>62.013235</ele>
        <time>2026-08-14T02:51:36.000Z</time>
      </trkpt>
      <trkpt lat="22.786495" lon="108.538619">
        <ele>62.007405</ele>
        <time>2026-08-14T02:51:37.000Z</time>
      </trkpt>
      <trkpt lat="22.786527" lon="108.538679">
        <ele>62.001396</ele>
        <time>2026-08-14T02:51:38.000Z</time>
      </trkpt>
      <trkpt lat="22.786557" lon="108.538735">
        <ele>61.995782</ele>
        <time>2026-08-14T02:51:39.000Z</time>
      </trkpt>
      <trkpt lat="22.786586" lon="108.538790">
        <ele>61.990289</ele>
        <time>2026-08-14T02:51:40.000Z</time>
      </trkpt>
      <trkpt lat="22.786615" lon="108.538846">
        <ele>61.984721</ele>
        <time>2026-08-14T02:51:41.000Z</time>
      </trkpt>
      <trkpt lat="22.786646" lon="108.538901">
        <ele>61.979133</ele>
        <time>2026-08-14T02:51:42.000Z</time>
      </trkpt>
      <trkpt lat="22.786676" lon="108.538958">
        <ele>61.973444</ele>
        <time>2026-08-14T02:51:43.000Z</time>
      </trkpt>
      <trkpt lat="22.786702" lon="108.539015">
        <ele>61.967931</ele>
        <time>2026-08-14T02:51:44.000Z</time>
      </trkpt>
      <trkpt lat="22.786728" lon="108.539075">
        <ele>61.962184</ele>
        <time>2026-08-14T02:51:45.000Z</time>
      </trkpt>
      <trkpt lat="22.786753" lon="108.539133">
        <ele>61.956633</ele>
        <time>2026-08-14T02:51:46.000Z</time>
      </trkpt>
      <trkpt lat="22.786781" lon="108.539191">
        <ele>61.950958</ele>
        <time>2026-08-14T02:51:47.000Z</time>
      </trkpt>
      <trkpt lat="22.786809" lon="108.539248">
        <ele>61.945359</ele>
        <time>2026-08-14T02:51:48.000Z</time>
      </trkpt>
      <trkpt lat="22.786837" lon="108.539306">
        <ele>61.939684</ele>
        <time>2026-08-14T02:51:49.000Z</time>
      </trkpt>
      <trkpt lat="22.786864" lon="108.539364">
        <ele>61.934051</ele>
        <time>2026-08-14T02:51:50.000Z</time>
      </trkpt>
      <trkpt lat="22.786891" lon="108.539422">
        <ele>61.928419</ele>
        <time>2026-08-14T02:51:51.000Z</time>
      </trkpt>
      <trkpt lat="22.786918" lon="108.539479">
        <ele>61.922863</ele>
        <time>2026-08-14T02:51:52.000Z</time>
      </trkpt>
      <trkpt lat="22.786944" lon="108.539535">
        <ele>61.917428</ele>
        <time>2026-08-14T02:51:53.000Z</time>
      </trkpt>
      <trkpt lat="22.786971" lon="108.539592">
        <ele>61.911873</ele>
        <time>2026-08-14T02:51:54.000Z</time>
      </trkpt>
      <trkpt lat="22.786995" lon="108.539650">
        <ele>61.906362</ele>
        <time>2026-08-14T02:51:55.000Z</time>
      </trkpt>
      <trkpt lat="22.787020" lon="108.539707">
        <ele>61.900890</ele>
        <time>2026-08-14T02:51:56.000Z</time>
      </trkpt>
      <trkpt lat="22.787044" lon="108.539764">
        <ele>61.895458</ele>
        <time>2026-08-14T02:51:57.000Z</time>
      </trkpt>
      <trkpt lat="22.787070" lon="108.539819">
        <ele>61.890100</ele>
        <time>2026-08-14T02:51:58.000Z</time>
      </trkpt>
      <trkpt lat="22.787095" lon="108.539874">
        <ele>61.884784</ele>
        <time>2026-08-14T02:51:59.000Z</time>
      </trkpt>
      <trkpt lat="22.787120" lon="108.539928">
        <ele>61.879546</ele>
        <time>2026-08-14T02:52:00.000Z</time>
      </trkpt>
      <trkpt lat="22.787144" lon="108.539984">
        <ele>61.874192</ele>
        <time>2026-08-14T02:52:01.000Z</time>
      </trkpt>
      <trkpt lat="22.787170" lon="108.540040">
        <ele>61.868757</ele>
        <time>2026-08-14T02:52:02.000Z</time>
      </trkpt>
      <trkpt lat="22.787194" lon="108.540096">
        <ele>61.892150</ele>
        <time>2026-08-14T02:52:03.000Z</time>
      </trkpt>
      <trkpt lat="22.787218" lon="108.540150">
        <ele>61.919910</ele>
        <time>2026-08-14T02:52:04.000Z</time>
      </trkpt>
      <trkpt lat="22.787242" lon="108.540205">
        <ele>61.948087</ele>
        <time>2026-08-14T02:52:05.000Z</time>
      </trkpt>
      <trkpt lat="22.787267" lon="108.540261">
        <ele>61.976898</ele>
        <time>2026-08-14T02:52:06.000Z</time>
      </trkpt>
      <trkpt lat="22.787291" lon="108.540315">
        <ele>62.004657</ele>
        <time>2026-08-14T02:52:07.000Z</time>
      </trkpt>
      <trkpt lat="22.787317" lon="108.540369">
        <ele>62.032867</ele>
        <time>2026-08-14T02:52:08.000Z</time>
      </trkpt>
      <trkpt lat="22.787342" lon="108.540425">
        <ele>62.061678</ele>
        <time>2026-08-14T02:52:09.000Z</time>
      </trkpt>
      <trkpt lat="22.787367" lon="108.540480">
        <ele>62.090074</ele>
        <time>2026-08-14T02:52:10.000Z</time>
      </trkpt>
      <trkpt lat="22.787392" lon="108.540536">
        <ele>62.118885</ele>
        <time>2026-08-14T02:52:11.000Z</time>
      </trkpt>
      <trkpt lat="22.787417" lon="108.540590">
        <ele>62.146866</ele>
        <time>2026-08-14T02:52:12.000Z</time>
      </trkpt>
      <trkpt lat="22.787440" lon="108.540644">
        <ele>62.174411</ele>
        <time>2026-08-14T02:52:13.000Z</time>
      </trkpt>
      <trkpt lat="22.787464" lon="108.540694">
        <ele>62.200514</ele>
        <time>2026-08-14T02:52:14.000Z</time>
      </trkpt>
      <trkpt lat="22.787492" lon="108.540746">
        <ele>62.228399</ele>
        <time>2026-08-14T02:52:15.000Z</time>
      </trkpt>
      <trkpt lat="22.787521" lon="108.540798">
        <ele>62.256541</ele>
        <time>2026-08-14T02:52:16.000Z</time>
      </trkpt>
      <trkpt lat="22.787548" lon="108.540850">
        <ele>62.284176</ele>
        <time>2026-08-14T02:52:17.000Z</time>
      </trkpt>
      <trkpt lat="22.787573" lon="108.540901">
        <ele>62.310923</ele>
        <time>2026-08-14T02:52:18.000Z</time>
      </trkpt>
      <trkpt lat="22.787598" lon="108.540948">
        <ele>62.336049</ele>
        <time>2026-08-14T02:52:19.000Z</time>
      </trkpt>
      <trkpt lat="22.787623" lon="108.540998">
        <ele>62.362388</ele>
        <time>2026-08-14T02:52:20.000Z</time>
      </trkpt>
      <trkpt lat="22.787647" lon="108.541049">
        <ele>62.388902</ele>
        <time>2026-08-14T02:52:21.000Z</time>
      </trkpt>
      <trkpt lat="22.787672" lon="108.541100">
        <ele>62.415649</ele>
        <time>2026-08-14T02:52:22.000Z</time>
      </trkpt>
      <trkpt lat="22.787697" lon="108.541152">
        <ele>62.442805</ele>
        <time>2026-08-14T02:52:23.000Z</time>
      </trkpt>
      <trkpt lat="22.787722" lon="108.541203">
        <ele>62.469552</ele>
        <time>2026-08-14T02:52:24.000Z</time>
      </trkpt>
      <trkpt lat="22.787746" lon="108.541250">
        <ele>62.494431</ele>
        <time>2026-08-14T02:52:25.000Z</time>
      </trkpt>
      <trkpt lat="22.787771" lon="108.541298">
        <ele>62.519959</ele>
        <time>2026-08-14T02:52:26.000Z</time>
      </trkpt>
      <trkpt lat="22.787797" lon="108.541345">
        <ele>62.545340</ele>
        <time>2026-08-14T02:52:27.000Z</time>
      </trkpt>
      <trkpt lat="22.787823" lon="108.541393">
        <ele>62.571119</ele>
        <time>2026-08-14T02:52:28.000Z</time>
      </trkpt>
      <trkpt lat="22.787850" lon="108.541440">
        <ele>62.596762</ele>
        <time>2026-08-14T02:52:29.000Z</time>
      </trkpt>
      <trkpt lat="22.787877" lon="108.541489">
        <ele>62.623196</ele>
        <time>2026-08-14T02:52:30.000Z</time>
      </trkpt>
      <trkpt lat="22.787904" lon="108.541539">
        <ele>62.650028</ele>
        <time>2026-08-14T02:52:31.000Z</time>
      </trkpt>
      <trkpt lat="22.787931" lon="108.541588">
        <ele>62.676461</ele>
        <time>2026-08-14T02:52:32.000Z</time>
      </trkpt>
      <trkpt lat="22.787956" lon="108.541639">
        <ele>62.703208</ele>
        <time>2026-08-14T02:52:33.000Z</time>
      </trkpt>
      <trkpt lat="22.787981" lon="108.541689">
        <ele>62.729547</ele>
        <time>2026-08-14T02:52:34.000Z</time>
      </trkpt>
      <trkpt lat="22.788007" lon="108.541738">
        <ele>62.755726</ele>
        <time>2026-08-14T02:52:35.000Z</time>
      </trkpt>
      <trkpt lat="22.788033" lon="108.541789">
        <ele>62.783960</ele>
        <time>2026-08-14T02:52:36.000Z</time>
      </trkpt>
      <trkpt lat="22.788058" lon="108.541842">
        <ele>62.814548</ele>
        <time>2026-08-14T02:52:37.000Z</time>
      </trkpt>
      <trkpt lat="22.788084" lon="108.541893">
        <ele>62.844491</ele>
        <time>2026-08-14T02:52:38.000Z</time>
      </trkpt>
      <trkpt lat="22.788110" lon="108.541942">
        <ele>62.873539</ele>
        <time>2026-08-14T02:52:39.000Z</time>
      </trkpt>
      <trkpt lat="22.788136" lon="108.541991">
        <ele>62.902587</ele>
        <time>2026-08-14T02:52:40.000Z</time>
      </trkpt>
      <trkpt lat="22.788165" lon="108.542042">
        <ele>62.933374</ele>
        <time>2026-08-14T02:52:41.000Z</time>
      </trkpt>
      <trkpt lat="22.788192" lon="108.542093">
        <ele>62.963591</ele>
        <time>2026-08-14T02:52:42.000Z</time>
      </trkpt>
      <trkpt lat="22.788220" lon="108.542139">
        <ele>62.991912</ele>
        <time>2026-08-14T02:52:43.000Z</time>
      </trkpt>
      <trkpt lat="22.788246" lon="108.542186">
        <ele>63.020075</ele>
        <time>2026-08-14T02:52:44.000Z</time>
      </trkpt>
      <trkpt lat="22.788272" lon="108.542235">
        <ele>63.049123</ele>
        <time>2026-08-14T02:52:45.000Z</time>
      </trkpt>
      <trkpt lat="22.788299" lon="108.542281">
        <ele>63.077141</ele>
        <time>2026-08-14T02:52:46.000Z</time>
      </trkpt>
      <trkpt lat="22.788328" lon="108.542326">
        <ele>63.105350</ele>
        <time>2026-08-14T02:52:47.000Z</time>
      </trkpt>
      <trkpt lat="22.788361" lon="108.542370">
        <ele>63.134493</ele>
        <time>2026-08-14T02:52:48.000Z</time>
      </trkpt>
      <trkpt lat="22.788391" lon="108.542414">
        <ele>63.162611</ele>
        <time>2026-08-14T02:52:49.000Z</time>
      </trkpt>
      <trkpt lat="22.788418" lon="108.542458">
        <ele>63.189768</ele>
        <time>2026-08-14T02:52:50.000Z</time>
      </trkpt>
      <trkpt lat="22.788444" lon="108.542507">
        <ele>63.218816</ele>
        <time>2026-08-14T02:52:51.000Z</time>
      </trkpt>
      <trkpt lat="22.788472" lon="108.542557">
        <ele>63.248873</ele>
        <time>2026-08-14T02:52:52.000Z</time>
      </trkpt>
      <trkpt lat="22.788499" lon="108.542606">
        <ele>63.278203</ele>
        <time>2026-08-14T02:52:53.000Z</time>
      </trkpt>
      <trkpt lat="22.788524" lon="108.542654">
        <ele>63.306529</ele>
        <time>2026-08-14T02:52:54.000Z</time>
      </trkpt>
      <trkpt lat="22.788552" lon="108.542702">
        <ele>63.335713</ele>
        <time>2026-08-14T02:52:55.000Z</time>
      </trkpt>
      <trkpt lat="22.788580" lon="108.542751">
        <ele>63.365333</ele>
        <time>2026-08-14T02:52:56.000Z</time>
      </trkpt>
      <trkpt lat="22.788607" lon="108.542798">
        <ele>63.393786</ele>
        <time>2026-08-14T02:52:57.000Z</time>
      </trkpt>
      <trkpt lat="22.788630" lon="108.542843">
        <ele>63.420222</ele>
        <time>2026-08-14T02:52:58.000Z</time>
      </trkpt>
      <trkpt lat="22.788654" lon="108.542887">
        <ele>63.446490</ele>
        <time>2026-08-14T02:52:59.000Z</time>
      </trkpt>
      <trkpt lat="22.788676" lon="108.542932">
        <ele>63.472660</ele>
        <time>2026-08-14T02:53:00.000Z</time>
      </trkpt>
      <trkpt lat="22.788701" lon="108.542975">
        <ele>63.498779</ele>
        <time>2026-08-14T02:53:01.000Z</time>
      </trkpt>
      <trkpt lat="22.788729" lon="108.543015">
        <ele>63.524584</ele>
        <time>2026-08-14T02:53:02.000Z</time>
      </trkpt>
      <trkpt lat="22.788756" lon="108.543055">
        <ele>63.550055</ele>
        <time>2026-08-14T02:53:03.000Z</time>
      </trkpt>
      <trkpt lat="22.788783" lon="108.543097">
        <ele>63.576363</ele>
        <time>2026-08-14T02:53:04.000Z</time>
      </trkpt>
      <trkpt lat="22.788810" lon="108.543141">
        <ele>63.603520</ele>
        <time>2026-08-14T02:53:05.000Z</time>
      </trkpt>
      <trkpt lat="22.788834" lon="108.543184">
        <ele>63.629346</ele>
        <time>2026-08-14T02:53:06.000Z</time>
      </trkpt>
      <trkpt lat="22.788853" lon="108.543227">
        <ele>63.653846</ele>
        <time>2026-08-14T02:53:07.000Z</time>
      </trkpt>
      <trkpt lat="22.788875" lon="108.543270">
        <ele>63.679113</ele>
        <time>2026-08-14T02:53:08.000Z</time>
      </trkpt>
      <trkpt lat="22.788902" lon="108.543313">
        <ele>63.705844</ele>
        <time>2026-08-14T02:53:09.000Z</time>
      </trkpt>
      <trkpt lat="22.788927" lon="108.543356">
        <ele>63.731963</ele>
        <time>2026-08-14T02:53:10.000Z</time>
      </trkpt>
      <trkpt lat="22.788953" lon="108.543396">
        <ele>63.757109</ele>
        <time>2026-08-14T02:53:11.000Z</time>
      </trkpt>
      <trkpt lat="22.788979" lon="108.543437">
        <ele>63.783487</ele>
        <time>2026-08-14T02:53:12.000Z</time>
      </trkpt>
      <trkpt lat="22.789006" lon="108.543477">
        <ele>63.811257</ele>
        <time>2026-08-14T02:53:13.000Z</time>
      </trkpt>
      <trkpt lat="22.789031" lon="108.543518">
        <ele>63.838792</ele>
        <time>2026-08-14T02:53:14.000Z</time>
      </trkpt>
      <trkpt lat="22.789059" lon="108.543557">
        <ele>63.866482</ele>
        <time>2026-08-14T02:53:15.000Z</time>
      </trkpt>
      <trkpt lat="22.789084" lon="108.543595">
        <ele>63.892632</ele>
        <time>2026-08-14T02:53:16.000Z</time>
      </trkpt>
      <trkpt lat="22.789113" lon="108.543635">
        <ele>63.921137</ele>
        <time>2026-08-14T02:53:17.000Z</time>
      </trkpt>
      <trkpt lat="22.789140" lon="108.543673">
        <ele>63.948011</ele>
        <time>2026-08-14T02:53:18.000Z</time>
      </trkpt>
      <trkpt lat="22.789163" lon="108.543715">
        <ele>63.975376</ele>
        <time>2026-08-14T02:53:19.000Z</time>
      </trkpt>
      <trkpt lat="22.789189" lon="108.543756">
        <ele>64.003251</ele>
        <time>2026-08-14T02:53:20.000Z</time>
      </trkpt>
      <trkpt lat="22.789216" lon="108.543794">
        <ele>64.030126</ele>
        <time>2026-08-14T02:53:21.000Z</time>
      </trkpt>
      <trkpt lat="22.789244" lon="108.543834">
        <ele>64.058259</ele>
        <time>2026-08-14T02:53:22.000Z</time>
      </trkpt>
      <trkpt lat="22.789272" lon="108.543875">
        <ele>64.086841</ele>
        <time>2026-08-14T02:53:23.000Z</time>
      </trkpt>
      <trkpt lat="22.789300" lon="108.543924">
        <ele>64.119133</ele>
        <time>2026-08-14T02:53:24.000Z</time>
      </trkpt>
      <trkpt lat="22.789328" lon="108.543971">
        <ele>64.150480</ele>
        <time>2026-08-14T02:53:25.000Z</time>
      </trkpt>
      <trkpt lat="22.789355" lon="108.544021">
        <ele>64.182939</ele>
        <time>2026-08-14T02:53:26.000Z</time>
      </trkpt>
      <trkpt lat="22.789381" lon="108.544068">
        <ele>64.213642</ele>
        <time>2026-08-14T02:53:27.000Z</time>
      </trkpt>
      <trkpt lat="22.789407" lon="108.544116">
        <ele>64.244828</ele>
        <time>2026-08-14T02:53:28.000Z</time>
      </trkpt>
      <trkpt lat="22.789434" lon="108.544164">
        <ele>64.276325</ele>
        <time>2026-08-14T02:53:29.000Z</time>
      </trkpt>
      <trkpt lat="22.789458" lon="108.544213">
        <ele>64.307406</ele>
        <time>2026-08-14T02:53:30.000Z</time>
      </trkpt>
      <trkpt lat="22.789486" lon="108.544260">
        <ele>64.338752</ele>
        <time>2026-08-14T02:53:31.000Z</time>
      </trkpt>
      <trkpt lat="22.789515" lon="108.544305">
        <ele>64.369508</ele>
        <time>2026-08-14T02:53:32.000Z</time>
      </trkpt>
      <trkpt lat="22.789544" lon="108.544349">
        <ele>64.399805</ele>
        <time>2026-08-14T02:53:33.000Z</time>
      </trkpt>
      <trkpt lat="22.789571" lon="108.544393">
        <ele>64.429413</ele>
        <time>2026-08-14T02:53:34.000Z</time>
      </trkpt>
      <trkpt lat="22.789599" lon="108.544436">
        <ele>64.458902</ele>
        <time>2026-08-14T02:53:35.000Z</time>
      </trkpt>
      <trkpt lat="22.789625" lon="108.544476">
        <ele>64.486318</ele>
        <time>2026-08-14T02:53:36.000Z</time>
      </trkpt>
      <trkpt lat="22.789651" lon="108.544518">
        <ele>64.514657</ele>
        <time>2026-08-14T02:53:37.000Z</time>
      </trkpt>
      <trkpt lat="22.789679" lon="108.544560">
        <ele>64.543690</ele>
        <time>2026-08-14T02:53:38.000Z</time>
      </trkpt>
      <trkpt lat="22.789709" lon="108.544595">
        <ele>64.570460</ele>
        <time>2026-08-14T02:53:39.000Z</time>
      </trkpt>
      <trkpt lat="22.789737" lon="108.544633">
        <ele>64.597710</ele>
        <time>2026-08-14T02:53:40.000Z</time>
      </trkpt>
      <trkpt lat="22.789761" lon="108.544675">
        <ele>64.625389</ele>
        <time>2026-08-14T02:53:41.000Z</time>
      </trkpt>
      <trkpt lat="22.789785" lon="108.544717">
        <ele>64.653069</ele>
        <time>2026-08-14T02:53:42.000Z</time>
      </trkpt>
      <trkpt lat="22.789809" lon="108.544750">
        <ele>64.676613</ele>
        <time>2026-08-14T02:53:43.000Z</time>
      </trkpt>
      <trkpt lat="22.789830" lon="108.544790">
        <ele>64.702398</ele>
        <time>2026-08-14T02:53:44.000Z</time>
      </trkpt>
      <trkpt lat="22.789852" lon="108.544832">
        <ele>64.729457</ele>
        <time>2026-08-14T02:53:45.000Z</time>
      </trkpt>
      <trkpt lat="22.789874" lon="108.544875">
        <ele>64.757005</ele>
        <time>2026-08-14T02:53:46.000Z</time>
      </trkpt>
      <trkpt lat="22.789894" lon="108.544916">
        <ele>64.782988</ele>
        <time>2026-08-14T02:53:47.000Z</time>
      </trkpt>
      <trkpt lat="22.789914" lon="108.544961">
        <ele>64.810972</ele>
        <time>2026-08-14T02:53:48.000Z</time>
      </trkpt>
      <trkpt lat="22.789935" lon="108.545007">
        <ele>64.839725</ele>
        <time>2026-08-14T02:53:49.000Z</time>
      </trkpt>
      <trkpt lat="22.789960" lon="108.545055">
        <ele>64.869979</ele>
        <time>2026-08-14T02:53:50.000Z</time>
      </trkpt>
      <trkpt lat="22.789985" lon="108.545101">
        <ele>64.895246</ele>
        <time>2026-08-14T02:53:51.000Z</time>
      </trkpt>
      <trkpt lat="22.790013" lon="108.545143">
        <ele>64.919771</ele>
        <time>2026-08-14T02:53:52.000Z</time>
      </trkpt>
      <trkpt lat="22.790040" lon="108.545187">
        <ele>64.944781</ele>
        <time>2026-08-14T02:53:53.000Z</time>
      </trkpt>
      <trkpt lat="22.790066" lon="108.545232">
        <ele>64.969911</ele>
        <time>2026-08-14T02:53:54.000Z</time>
      </trkpt>
      <trkpt lat="22.790090" lon="108.545276">
        <ele>64.994102</ele>
        <time>2026-08-14T02:53:55.000Z</time>
      </trkpt>
      <trkpt lat="22.790116" lon="108.545322">
        <ele>65.019633</ele>
        <time>2026-08-14T02:53:56.000Z</time>
      </trkpt>
      <trkpt lat="22.790143" lon="108.545368">
        <ele>65.045437</ele>
        <time>2026-08-14T02:53:57.000Z</time>
      </trkpt>
      <trkpt lat="22.790171" lon="108.545412">
        <ele>65.070735</ele>
        <time>2026-08-14T02:53:58.000Z</time>
      </trkpt>
      <trkpt lat="22.790196" lon="108.545456">
        <ele>65.095191</ele>
        <time>2026-08-14T02:53:59.000Z</time>
      </trkpt>
      <trkpt lat="22.790220" lon="108.545501">
        <ele>65.119791</ele>
        <time>2026-08-14T02:54:00.000Z</time>
      </trkpt>
      <trkpt lat="22.790246" lon="108.545547">
        <ele>65.145322</ele>
        <time>2026-08-14T02:54:01.000Z</time>
      </trkpt>
      <trkpt lat="22.790271" lon="108.545591">
        <ele>65.169779</ele>
        <time>2026-08-14T02:54:02.000Z</time>
      </trkpt>
      <trkpt lat="22.790295" lon="108.545637">
        <ele>65.194789</ele>
        <time>2026-08-14T02:54:03.000Z</time>
      </trkpt>
      <trkpt lat="22.790317" lon="108.545681">
        <ele>65.218474</ele>
        <time>2026-08-14T02:54:04.000Z</time>
      </trkpt>
      <trkpt lat="22.790342" lon="108.545722">
        <ele>65.241734</ele>
        <time>2026-08-14T02:54:05.000Z</time>
      </trkpt>
      <trkpt lat="22.790367" lon="108.545763">
        <ele>65.264994</ele>
        <time>2026-08-14T02:54:06.000Z</time>
      </trkpt>
      <trkpt lat="22.790391" lon="108.545807">
        <ele>65.289185</ele>
        <time>2026-08-14T02:54:07.000Z</time>
      </trkpt>
      <trkpt lat="22.790419" lon="108.545850">
        <ele>65.314095</ele>
        <time>2026-08-14T02:54:08.000Z</time>
      </trkpt>
      <trkpt lat="22.790442" lon="108.545896">
        <ele>65.338856</ele>
        <time>2026-08-14T02:54:09.000Z</time>
      </trkpt>
      <trkpt lat="22.790467" lon="108.545944">
        <ele>65.364943</ele>
        <time>2026-08-14T02:54:10.000Z</time>
      </trkpt>
      <trkpt lat="22.790492" lon="108.545989">
        <ele>65.389804</ele>
        <time>2026-08-14T02:54:11.000Z</time>
      </trkpt>
      <trkpt lat="22.790516" lon="108.546035">
        <ele>65.414814</ele>
        <time>2026-08-14T02:54:12.000Z</time>
      </trkpt>
      <trkpt lat="22.790545" lon="108.546079">
        <ele>65.440407</ele>
        <time>2026-08-14T02:54:13.000Z</time>
      </trkpt>
      <trkpt lat="22.790574" lon="108.546123">
        <ele>65.466000</ele>
        <time>2026-08-14T02:54:14.000Z</time>
      </trkpt>
      <trkpt lat="22.790602" lon="108.546166">
        <ele>65.490911</ele>
        <time>2026-08-14T02:54:15.000Z</time>
      </trkpt>
      <trkpt lat="22.790634" lon="108.546213">
        <ele>65.518557</ele>
        <time>2026-08-14T02:54:16.000Z</time>
      </trkpt>
      <trkpt lat="22.790661" lon="108.546262">
        <ele>65.545569</ele>
        <time>2026-08-14T02:54:17.000Z</time>
      </trkpt>
      <trkpt lat="22.790690" lon="108.546307">
        <ele>65.571549</ele>
        <time>2026-08-14T02:54:18.000Z</time>
      </trkpt>
      <trkpt lat="22.790720" lon="108.546353">
        <ele>65.598211</ele>
        <time>2026-08-14T02:54:19.000Z</time>
      </trkpt>
      <trkpt lat="22.790750" lon="108.546404">
        <ele>65.626837</ele>
        <time>2026-08-14T02:54:20.000Z</time>
      </trkpt>
      <trkpt lat="22.790782" lon="108.546450">
        <ele>65.654104</ele>
        <time>2026-08-14T02:54:21.000Z</time>
      </trkpt>
      <trkpt lat="22.790814" lon="108.546497">
        <ele>65.681751</ele>
        <time>2026-08-14T02:54:22.000Z</time>
      </trkpt>
      <trkpt lat="22.790845" lon="108.546546">
        <ele>65.709871</ele>
        <time>2026-08-14T02:54:23.000Z</time>
      </trkpt>
      <trkpt lat="22.790876" lon="108.546592">
        <ele>65.736833</ele>
        <time>2026-08-14T02:54:24.000Z</time>
      </trkpt>
      <trkpt lat="22.790907" lon="108.546637">
        <ele>65.763414</ele>
        <time>2026-08-14T02:54:25.000Z</time>
      </trkpt>
      <trkpt lat="22.790939" lon="108.546683">
        <ele>65.790617</ele>
        <time>2026-08-14T02:54:26.000Z</time>
      </trkpt>
      <trkpt lat="22.790969" lon="108.546730">
        <ele>65.815847</ele>
        <time>2026-08-14T02:54:27.000Z</time>
      </trkpt>
      <trkpt lat="22.790994" lon="108.546778">
        <ele>65.840180</ele>
        <time>2026-08-14T02:54:28.000Z</time>
      </trkpt>
      <trkpt lat="22.791022" lon="108.546821">
        <ele>65.863415</ele>
        <time>2026-08-14T02:54:29.000Z</time>
      </trkpt>
      <trkpt lat="22.791050" lon="108.546866">
        <ele>65.887376</ele>
        <time>2026-08-14T02:54:30.000Z</time>
      </trkpt>
      <trkpt lat="22.791082" lon="108.546912">
        <ele>65.912810</ele>
        <time>2026-08-14T02:54:31.000Z</time>
      </trkpt>
      <trkpt lat="22.791112" lon="108.546959">
        <ele>65.938041</ele>
        <time>2026-08-14T02:54:32.000Z</time>
      </trkpt>
      <trkpt lat="22.791143" lon="108.547007">
        <ele>65.963907</ele>
        <time>2026-08-14T02:54:33.000Z</time>
      </trkpt>
      <trkpt lat="22.791172" lon="108.547054">
        <ele>65.988869</ele>
        <time>2026-08-14T02:54:34.000Z</time>
      </trkpt>
      <trkpt lat="22.791203" lon="108.547101">
        <ele>66.014375</ele>
        <time>2026-08-14T02:54:35.000Z</time>
      </trkpt>
      <trkpt lat="22.791234" lon="108.547147">
        <ele>66.039523</ele>
        <time>2026-08-14T02:54:36.000Z</time>
      </trkpt>
      <trkpt lat="22.791264" lon="108.547193">
        <ele>66.064392</ele>
        <time>2026-08-14T02:54:37.000Z</time>
      </trkpt>
      <trkpt lat="22.791293" lon="108.547239">
        <ele>66.088988</ele>
        <time>2026-08-14T02:54:38.000Z</time>
      </trkpt>
      <trkpt lat="22.791321" lon="108.547284">
        <ele>66.112950</ele>
        <time>2026-08-14T02:54:39.000Z</time>
      </trkpt>
      <trkpt lat="22.791350" lon="108.547328">
        <ele>66.136822</ele>
        <time>2026-08-14T02:54:40.000Z</time>
      </trkpt>
      <trkpt lat="22.791378" lon="108.547372">
        <ele>66.160419</ele>
        <time>2026-08-14T02:54:41.000Z</time>
      </trkpt>
      <trkpt lat="22.791407" lon="108.547419">
        <ele>66.185380</ele>
        <time>2026-08-14T02:54:42.000Z</time>
      </trkpt>
      <trkpt lat="22.791434" lon="108.547465">
        <ele>66.209448</ele>
        <time>2026-08-14T02:54:43.000Z</time>
      </trkpt>
      <trkpt lat="22.791458" lon="108.547509">
        <ele>66.232012</ele>
        <time>2026-08-14T02:54:44.000Z</time>
      </trkpt>
      <trkpt lat="22.791482" lon="108.547554">
        <ele>66.254957</ele>
        <time>2026-08-14T02:54:45.000Z</time>
      </trkpt>
      <trkpt lat="22.791511" lon="108.547600">
        <ele>66.279553</ele>
        <time>2026-08-14T02:54:46.000Z</time>
      </trkpt>
      <trkpt lat="22.791539" lon="108.547644">
        <ele>66.303150</ele>
        <time>2026-08-14T02:54:47.000Z</time>
      </trkpt>
      <trkpt lat="22.791567" lon="108.547687">
        <ele>66.326385</ele>
        <time>2026-08-14T02:54:48.000Z</time>
      </trkpt>
      <trkpt lat="22.791595" lon="108.547733">
        <ele>66.350714</ele>
        <time>2026-08-14T02:54:49.000Z</time>
      </trkpt>
      <trkpt lat="22.791620" lon="108.547778">
        <ele>66.373902</ele>
        <time>2026-08-14T02:54:50.000Z</time>
      </trkpt>
      <trkpt lat="22.791644" lon="108.547827">
        <ele>66.398391</ele>
        <time>2026-08-14T02:54:51.000Z</time>
      </trkpt>
      <trkpt lat="22.791667" lon="108.547876">
        <ele>66.422660</ele>
        <time>2026-08-14T02:54:52.000Z</time>
      </trkpt>
      <trkpt lat="22.791689" lon="108.547926">
        <ele>66.447112</ele>
        <time>2026-08-14T02:54:53.000Z</time>
      </trkpt>
      <trkpt lat="22.791713" lon="108.547977">
        <ele>66.472385</ele>
        <time>2026-08-14T02:54:54.000Z</time>
      </trkpt>
      <trkpt lat="22.791739" lon="108.548026">
        <ele>66.497337</ele>
        <time>2026-08-14T02:54:55.000Z</time>
      </trkpt>
      <trkpt lat="22.791762" lon="108.548072">
        <ele>66.520434</ele>
        <time>2026-08-14T02:54:56.000Z</time>
      </trkpt>
      <trkpt lat="22.791787" lon="108.548119">
        <ele>66.544383</ele>
        <time>2026-08-14T02:54:57.000Z</time>
      </trkpt>
      <trkpt lat="22.791810" lon="108.548167">
        <ele>66.568258</ele>
        <time>2026-08-14T02:54:58.000Z</time>
      </trkpt>
      <trkpt lat="22.791832" lon="108.548214">
        <ele>66.591523</ele>
        <time>2026-08-14T02:54:59.000Z</time>
      </trkpt>
      <trkpt lat="22.791857" lon="108.548263">
        <ele>66.616240</ele>
        <time>2026-08-14T02:55:00.000Z</time>
      </trkpt>
      <trkpt lat="22.791877" lon="108.548312">
        <ele>66.639892</ele>
        <time>2026-08-14T02:55:01.000Z</time>
      </trkpt>
      <trkpt lat="22.791896" lon="108.548362">
        <ele>66.653907</ele>
        <time>2026-08-14T02:55:02.000Z</time>
      </trkpt>
      <trkpt lat="22.791915" lon="108.548412">
        <ele>66.659627</ele>
        <time>2026-08-14T02:55:03.000Z</time>
      </trkpt>
      <trkpt lat="22.791937" lon="108.548459">
        <ele>66.665203</ele>
        <time>2026-08-14T02:55:04.000Z</time>
      </trkpt>
      <trkpt lat="22.791963" lon="108.548507">
        <ele>66.671092</ele>
        <time>2026-08-14T02:55:05.000Z</time>
      </trkpt>
      <trkpt lat="22.791989" lon="108.548554">
        <ele>66.676889</ele>
        <time>2026-08-14T02:55:06.000Z</time>
      </trkpt>
      <trkpt lat="22.792018" lon="108.548599">
        <ele>66.682697</ele>
        <time>2026-08-14T02:55:07.000Z</time>
      </trkpt>
      <trkpt lat="22.792047" lon="108.548641">
        <ele>66.688248</ele>
        <time>2026-08-14T02:55:08.000Z</time>
      </trkpt>
      <trkpt lat="22.792075" lon="108.548682">
        <ele>66.693645</ele>
        <time>2026-08-14T02:55:09.000Z</time>
      </trkpt>
      <trkpt lat="22.792105" lon="108.548724">
        <ele>66.699265</ele>
        <time>2026-08-14T02:55:10.000Z</time>
      </trkpt>
      <trkpt lat="22.792137" lon="108.548766">
        <ele>66.705028</ele>
        <time>2026-08-14T02:55:11.000Z</time>
      </trkpt>
      <trkpt lat="22.792171" lon="108.548807">
        <ele>66.710862</ele>
        <time>2026-08-14T02:55:12.000Z</time>
      </trkpt>
      <trkpt lat="22.792204" lon="108.548851">
        <ele>66.716861</ele>
        <time>2026-08-14T02:55:13.000Z</time>
      </trkpt>
      <trkpt lat="22.792236" lon="108.548897">
        <ele>66.722957</ele>
        <time>2026-08-14T02:55:14.000Z</time>
      </trkpt>
      <trkpt lat="22.792264" lon="108.548943">
        <ele>66.728788</ele>
        <time>2026-08-14T02:55:15.000Z</time>
      </trkpt>
      <trkpt lat="22.792291" lon="108.548991">
        <ele>66.734735</ele>
        <time>2026-08-14T02:55:16.000Z</time>
      </trkpt>
      <trkpt lat="22.792319" lon="108.549037">
        <ele>66.740566</ele>
        <time>2026-08-14T02:55:17.000Z</time>
      </trkpt>
      <trkpt lat="22.792348" lon="108.549083">
        <ele>66.746461</ele>
        <time>2026-08-14T02:55:18.000Z</time>
      </trkpt>
      <trkpt lat="22.792377" lon="108.549130">
        <ele>66.752443</ele>
        <time>2026-08-14T02:55:19.000Z</time>
      </trkpt>
      <trkpt lat="22.792405" lon="108.549176">
        <ele>66.758273</ele>
        <time>2026-08-14T02:55:20.000Z</time>
      </trkpt>
      <trkpt lat="22.792432" lon="108.549223">
        <ele>66.764131</ele>
        <time>2026-08-14T02:55:21.000Z</time>
      </trkpt>
      <trkpt lat="22.792460" lon="108.549269">
        <ele>66.769962</ele>
        <time>2026-08-14T02:55:22.000Z</time>
      </trkpt>
      <trkpt lat="22.792487" lon="108.549315">
        <ele>66.775730</ele>
        <time>2026-08-14T02:55:23.000Z</time>
      </trkpt>
      <trkpt lat="22.792513" lon="108.549361">
        <ele>66.781437</ele>
        <time>2026-08-14T02:55:24.000Z</time>
      </trkpt>
      <trkpt lat="22.792540" lon="108.549407">
        <ele>66.787206</ele>
        <time>2026-08-14T02:55:25.000Z</time>
      </trkpt>
      <trkpt lat="22.792569" lon="108.549452">
        <ele>66.793013</ele>
        <time>2026-08-14T02:55:26.000Z</time>
      </trkpt>
      <trkpt lat="22.792597" lon="108.549496">
        <ele>66.798669</ele>
        <time>2026-08-14T02:55:27.000Z</time>
      </trkpt>
      <trkpt lat="22.792625" lon="108.549541">
        <ele>66.804411</ele>
        <time>2026-08-14T02:55:28.000Z</time>
      </trkpt>
      <trkpt lat="22.792651" lon="108.549585">
        <ele>66.809939</ele>
        <time>2026-08-14T02:55:29.000Z</time>
      </trkpt>
      <trkpt lat="22.792678" lon="108.549629">
        <ele>66.815530</ele>
        <time>2026-08-14T02:55:30.000Z</time>
      </trkpt>
      <trkpt lat="22.792705" lon="108.549674">
        <ele>66.821210</ele>
        <time>2026-08-14T02:55:31.000Z</time>
      </trkpt>
      <trkpt lat="22.792731" lon="108.549718">
        <ele>66.826738</ele>
        <time>2026-08-14T02:55:32.000Z</time>
      </trkpt>
      <trkpt lat="22.792762" lon="108.549762">
        <ele>66.832595</ele>
        <time>2026-08-14T02:55:33.000Z</time>
      </trkpt>
      <trkpt lat="22.792790" lon="108.549808">
        <ele>66.838426</ele>
        <time>2026-08-14T02:55:34.000Z</time>
      </trkpt>
      <trkpt lat="22.792816" lon="108.549856">
        <ele>66.844315</ele>
        <time>2026-08-14T02:55:35.000Z</time>
      </trkpt>
      <trkpt lat="22.792841" lon="108.549904">
        <ele>66.850146</ele>
        <time>2026-08-14T02:55:36.000Z</time>
      </trkpt>
      <trkpt lat="22.792868" lon="108.549952">
        <ele>66.856094</ele>
        <time>2026-08-14T02:55:37.000Z</time>
      </trkpt>
      <trkpt lat="22.792898" lon="108.549999">
        <ele>66.805911</ele>
        <time>2026-08-14T02:55:38.000Z</time>
      </trkpt>
      <trkpt lat="22.792926" lon="108.550046">
        <ele>66.744872</ele>
        <time>2026-08-14T02:55:39.000Z</time>
      </trkpt>
      <trkpt lat="22.792953" lon="108.550093">
        <ele>66.684467</ele>
        <time>2026-08-14T02:55:40.000Z</time>
      </trkpt>
      <trkpt lat="22.792979" lon="108.550141">
        <ele>66.623741</ele>
        <time>2026-08-14T02:55:41.000Z</time>
      </trkpt>
      <trkpt lat="22.793005" lon="108.550190">
        <ele>66.562072</ele>
        <time>2026-08-14T02:55:42.000Z</time>
      </trkpt>
      <trkpt lat="22.793032" lon="108.550239">
        <ele>66.499805</ele>
        <time>2026-08-14T02:55:43.000Z</time>
      </trkpt>
      <trkpt lat="22.793061" lon="108.550288">
        <ele>66.436291</ele>
        <time>2026-08-14T02:55:44.000Z</time>
      </trkpt>
      <trkpt lat="22.793091" lon="108.550337">
        <ele>66.372131</ele>
        <time>2026-08-14T02:55:45.000Z</time>
      </trkpt>
      <trkpt lat="22.793121" lon="108.550386">
        <ele>66.307970</ele>
        <time>2026-08-14T02:55:46.000Z</time>
      </trkpt>
      <trkpt lat="22.793150" lon="108.550435">
        <ele>66.244456</ele>
        <time>2026-08-14T02:55:47.000Z</time>
      </trkpt>
      <trkpt lat="22.793179" lon="108.550483">
        <ele>66.181857</ele>
        <time>2026-08-14T02:55:48.000Z</time>
      </trkpt>
      <trkpt lat="22.793209" lon="108.550531">
        <ele>66.118602</ele>
        <time>2026-08-14T02:55:49.000Z</time>
      </trkpt>
      <trkpt lat="22.793237" lon="108.550580">
        <ele>66.055720</ele>
        <time>2026-08-14T02:55:50.000Z</time>
      </trkpt>
      <trkpt lat="22.793266" lon="108.550630">
        <ele>65.991286</ele>
        <time>2026-08-14T02:55:51.000Z</time>
      </trkpt>
      <trkpt lat="22.793298" lon="108.550680">
        <ele>65.924893</ele>
        <time>2026-08-14T02:55:52.000Z</time>
      </trkpt>
      <trkpt lat="22.793330" lon="108.550729">
        <ele>65.859394</ele>
        <time>2026-08-14T02:55:53.000Z</time>
      </trkpt>
      <trkpt lat="22.793364" lon="108.550778">
        <ele>65.792499</ele>
        <time>2026-08-14T02:55:54.000Z</time>
      </trkpt>
      <trkpt lat="22.793395" lon="108.550830">
        <ele>65.724952</ele>
        <time>2026-08-14T02:55:55.000Z</time>
      </trkpt>
      <trkpt lat="22.793428" lon="108.550883">
        <ele>65.655191</ele>
        <time>2026-08-14T02:55:56.000Z</time>
      </trkpt>
      <trkpt lat="22.793460" lon="108.550936">
        <ele>65.586086</ele>
        <time>2026-08-14T02:55:57.000Z</time>
      </trkpt>
      <trkpt lat="22.793493" lon="108.550989">
        <ele>65.516325</ele>
        <time>2026-08-14T02:55:58.000Z</time>
      </trkpt>
      <trkpt lat="22.793525" lon="108.551044">
        <ele>65.445384</ele>
        <time>2026-08-14T02:55:59.000Z</time>
      </trkpt>
      <trkpt lat="22.793558" lon="108.551097">
        <ele>65.375623</ele>
        <time>2026-08-14T02:56:00.000Z</time>
      </trkpt>
      <trkpt lat="22.793589" lon="108.551151">
        <ele>65.306235</ele>
        <time>2026-08-14T02:56:01.000Z</time>
      </trkpt>
      <trkpt lat="22.793619" lon="108.551205">
        <ele>65.237465</ele>
        <time>2026-08-14T02:56:02.000Z</time>
      </trkpt>
      <trkpt lat="22.793651" lon="108.551259">
        <ele>65.167444</ele>
        <time>2026-08-14T02:56:03.000Z</time>
      </trkpt>
      <trkpt lat="22.793684" lon="108.551315">
        <ele>65.094948</ele>
        <time>2026-08-14T02:56:04.000Z</time>
      </trkpt>
      <trkpt lat="22.793717" lon="108.551368">
        <ele>65.025187</ele>
        <time>2026-08-14T02:56:05.000Z</time>
      </trkpt>
      <trkpt lat="22.793752" lon="108.551420">
        <ele>64.954959</ele>
        <time>2026-08-14T02:56:06.000Z</time>
      </trkpt>
      <trkpt lat="22.793789" lon="108.551469">
        <ele>64.885871</ele>
        <time>2026-08-14T02:56:07.000Z</time>
      </trkpt>
      <trkpt lat="22.793825" lon="108.551519">
        <ele>64.816671</ele>
        <time>2026-08-14T02:56:08.000Z</time>
      </trkpt>
      <trkpt lat="22.793861" lon="108.551571">
        <ele>64.745738</ele>
        <time>2026-08-14T02:56:09.000Z</time>
      </trkpt>
      <trkpt lat="22.793895" lon="108.551626">
        <ele>64.656102</ele>
        <time>2026-08-14T02:56:10.000Z</time>
      </trkpt>
      <trkpt lat="22.793929" lon="108.551681">
        <ele>64.561243</ele>
        <time>2026-08-14T02:56:11.000Z</time>
      </trkpt>
      <trkpt lat="22.793964" lon="108.551737">
        <ele>64.464329</ele>
        <time>2026-08-14T02:56:12.000Z</time>
      </trkpt>
      <trkpt lat="22.793998" lon="108.551795">
        <ele>64.365872</ele>
        <time>2026-08-14T02:56:13.000Z</time>
      </trkpt>
      <trkpt lat="22.794032" lon="108.551853">
        <ele>64.267416</ele>
        <time>2026-08-14T02:56:14.000Z</time>
      </trkpt>
      <trkpt lat="22.794065" lon="108.551911">
        <ele>64.169784</ele>
        <time>2026-08-14T02:56:15.000Z</time>
      </trkpt>
      <trkpt lat="22.794097" lon="108.551971">
        <ele>64.070491</ele>
        <time>2026-08-14T02:56:16.000Z</time>
      </trkpt>
      <trkpt lat="22.794130" lon="108.552030">
        <ele>63.971637</ele>
        <time>2026-08-14T02:56:17.000Z</time>
      </trkpt>
      <trkpt lat="22.794164" lon="108.552089">
        <ele>63.871969</ele>
        <time>2026-08-14T02:56:18.000Z</time>
      </trkpt>
      <trkpt lat="22.794201" lon="108.552146">
        <ele>63.772110</ele>
        <time>2026-08-14T02:56:19.000Z</time>
      </trkpt>
      <trkpt lat="22.794237" lon="108.552204">
        <ele>63.671952</ele>
        <time>2026-08-14T02:56:20.000Z</time>
      </trkpt>
      <trkpt lat="22.794271" lon="108.552262">
        <ele>63.573495</ele>
        <time>2026-08-14T02:56:21.000Z</time>
      </trkpt>
      <trkpt lat="22.794306" lon="108.552320">
        <ele>63.474197</ele>
        <time>2026-08-14T02:56:22.000Z</time>
      </trkpt>
      <trkpt lat="22.794343" lon="108.552379">
        <ele>63.371981</ele>
        <time>2026-08-14T02:56:23.000Z</time>
      </trkpt>
      <trkpt lat="22.794378" lon="108.552438">
        <ele>63.271481</ele>
        <time>2026-08-14T02:56:24.000Z</time>
      </trkpt>
      <trkpt lat="22.794413" lon="108.552496">
        <ele>63.172182</ele>
        <time>2026-08-14T02:56:25.000Z</time>
      </trkpt>
      <trkpt lat="22.794451" lon="108.552556">
        <ele>63.067908</ele>
        <time>2026-08-14T02:56:26.000Z</time>
      </trkpt>
      <trkpt lat="22.794485" lon="108.552618">
        <ele>62.964570</ele>
        <time>2026-08-14T02:56:27.000Z</time>
      </trkpt>
      <trkpt lat="22.794521" lon="108.552678">
        <ele>62.862024</ele>
        <time>2026-08-14T02:56:28.000Z</time>
      </trkpt>
      <trkpt lat="22.794558" lon="108.552737">
        <ele>62.759808</ele>
        <time>2026-08-14T02:56:29.000Z</time>
      </trkpt>
      <trkpt lat="22.794595" lon="108.552795">
        <ele>62.658774</ele>
        <time>2026-08-14T02:56:30.000Z</time>
      </trkpt>
      <trkpt lat="22.794633" lon="108.552853">
        <ele>62.556848</ele>
        <time>2026-08-14T02:56:31.000Z</time>
      </trkpt>
      <trkpt lat="22.794669" lon="108.552912">
        <ele>62.455499</ele>
        <time>2026-08-14T02:56:32.000Z</time>
      </trkpt>
      <trkpt lat="22.794704" lon="108.552973">
        <ele>62.352578</ele>
        <time>2026-08-14T02:56:33.000Z</time>
      </trkpt>
      <trkpt lat="22.794739" lon="108.553033">
        <ele>62.250870</ele>
        <time>2026-08-14T02:56:34.000Z</time>
      </trkpt>
      <trkpt lat="22.794775" lon="108.553093">
        <ele>62.148323</ele>
        <time>2026-08-14T02:56:35.000Z</time>
      </trkpt>
      <trkpt lat="22.794813" lon="108.553151">
        <ele>62.046397</ele>
        <time>2026-08-14T02:56:36.000Z</time>
      </trkpt>
      <trkpt lat="22.794849" lon="108.553209">
        <ele>61.946239</ele>
        <time>2026-08-14T02:56:37.000Z</time>
      </trkpt>
      <trkpt lat="22.794884" lon="108.553267">
        <ele>61.869426</ele>
        <time>2026-08-14T02:56:38.000Z</time>
      </trkpt>
      <trkpt lat="22.794917" lon="108.553326">
        <ele>61.796009</ele>
        <time>2026-08-14T02:56:39.000Z</time>
      </trkpt>
      <trkpt lat="22.794951" lon="108.553384">
        <ele>61.722887</ele>
        <time>2026-08-14T02:56:40.000Z</time>
      </trkpt>
      <trkpt lat="22.794985" lon="108.553442">
        <ele>61.649765</ele>
        <time>2026-08-14T02:56:41.000Z</time>
      </trkpt>
      <trkpt lat="22.795019" lon="108.553500">
        <ele>61.576642</ele>
        <time>2026-08-14T02:56:42.000Z</time>
      </trkpt>
      <trkpt lat="22.795052" lon="108.553558">
        <ele>61.504133</ele>
        <time>2026-08-14T02:56:43.000Z</time>
      </trkpt>
      <trkpt lat="22.795085" lon="108.553617">
        <ele>61.430716</ele>
        <time>2026-08-14T02:56:44.000Z</time>
      </trkpt>
      <trkpt lat="22.795120" lon="108.553675">
        <ele>61.356968</ele>
        <time>2026-08-14T02:56:45.000Z</time>
      </trkpt>
      <trkpt lat="22.795156" lon="108.553734">
        <ele>61.281698</ele>
        <time>2026-08-14T02:56:46.000Z</time>
      </trkpt>
      <trkpt lat="22.795190" lon="108.553794">
        <ele>61.206771</ele>
        <time>2026-08-14T02:56:47.000Z</time>
      </trkpt>
      <trkpt lat="22.795219" lon="108.553858">
        <ele>61.130904</ele>
        <time>2026-08-14T02:56:48.000Z</time>
      </trkpt>
      <trkpt lat="22.795248" lon="108.553922">
        <ele>61.055037</ele>
        <time>2026-08-14T02:56:49.000Z</time>
      </trkpt>
      <trkpt lat="22.795277" lon="108.553986">
        <ele>60.979170</ele>
        <time>2026-08-14T02:56:50.000Z</time>
      </trkpt>
      <trkpt lat="22.795307" lon="108.554050">
        <ele>60.902786</ele>
        <time>2026-08-14T02:56:51.000Z</time>
      </trkpt>
      <trkpt lat="22.795338" lon="108.554114">
        <ele>60.825873</ele>
        <time>2026-08-14T02:56:52.000Z</time>
      </trkpt>
      <trkpt lat="22.795372" lon="108.554177">
        <ele>60.748210</ele>
        <time>2026-08-14T02:56:53.000Z</time>
      </trkpt>
      <trkpt lat="22.795408" lon="108.554238">
        <ele>60.671156</ele>
        <time>2026-08-14T02:56:54.000Z</time>
      </trkpt>
      <trkpt lat="22.795444" lon="108.554298">
        <ele>60.594996</ele>
        <time>2026-08-14T02:56:55.000Z</time>
      </trkpt>
      <trkpt lat="22.795480" lon="108.554358">
        <ele>60.518836</ele>
        <time>2026-08-14T02:56:56.000Z</time>
      </trkpt>
      <trkpt lat="22.795515" lon="108.554418">
        <ele>60.443299</ele>
        <time>2026-08-14T02:56:57.000Z</time>
      </trkpt>
      <trkpt lat="22.795549" lon="108.554478">
        <ele>60.368373</ele>
        <time>2026-08-14T02:56:58.000Z</time>
      </trkpt>
      <trkpt lat="22.795582" lon="108.554538">
        <ele>60.294045</ele>
        <time>2026-08-14T02:56:59.000Z</time>
      </trkpt>
      <trkpt lat="22.795617" lon="108.554598">
        <ele>60.218508</ele>
        <time>2026-08-14T02:57:00.000Z</time>
      </trkpt>
      <trkpt lat="22.795653" lon="108.554656">
        <ele>60.144122</ele>
        <time>2026-08-14T02:57:01.000Z</time>
      </trkpt>
      <trkpt lat="22.795687" lon="108.554716">
        <ele>60.069196</ele>
        <time>2026-08-14T02:57:02.000Z</time>
      </trkpt>
      <trkpt lat="22.795724" lon="108.554774">
        <ele>59.994160</ele>
        <time>2026-08-14T02:57:03.000Z</time>
      </trkpt>
      <trkpt lat="22.795762" lon="108.554831">
        <ele>59.919325</ele>
        <time>2026-08-14T02:57:04.000Z</time>
      </trkpt>
      <trkpt lat="22.795800" lon="108.554886">
        <ele>59.863964</ele>
        <time>2026-08-14T02:57:05.000Z</time>
      </trkpt>
      <trkpt lat="22.795838" lon="108.554940">
        <ele>59.894406</ele>
        <time>2026-08-14T02:57:06.000Z</time>
      </trkpt>
      <trkpt lat="22.795876" lon="108.554994">
        <ele>59.924848</ele>
        <time>2026-08-14T02:57:07.000Z</time>
      </trkpt>
      <trkpt lat="22.795912" lon="108.555047">
        <ele>59.954348</ele>
        <time>2026-08-14T02:57:08.000Z</time>
      </trkpt>
      <trkpt lat="22.795947" lon="108.555101">
        <ele>59.983928</ele>
        <time>2026-08-14T02:57:09.000Z</time>
      </trkpt>
      <trkpt lat="22.795978" lon="108.555156">
        <ele>60.012816</ele>
        <time>2026-08-14T02:57:10.000Z</time>
      </trkpt>
      <trkpt lat="22.796008" lon="108.555210">
        <ele>60.041068</ele>
        <time>2026-08-14T02:57:11.000Z</time>
      </trkpt>
      <trkpt lat="22.796040" lon="108.555262">
        <ele>60.069084</ele>
        <time>2026-08-14T02:57:12.000Z</time>
      </trkpt>
      <trkpt lat="22.796071" lon="108.555316">
        <ele>60.097590</ele>
        <time>2026-08-14T02:57:13.000Z</time>
      </trkpt>
      <trkpt lat="22.796100" lon="108.555369">
        <ele>60.125208</ele>
        <time>2026-08-14T02:57:14.000Z</time>
      </trkpt>
      <trkpt lat="22.796130" lon="108.555422">
        <ele>60.153077</ele>
        <time>2026-08-14T02:57:15.000Z</time>
      </trkpt>
      <trkpt lat="22.796159" lon="108.555475">
        <ele>60.180695</ele>
        <time>2026-08-14T02:57:16.000Z</time>
      </trkpt>
      <trkpt lat="22.796191" lon="108.555525">
        <ele>60.207971</ele>
        <time>2026-08-14T02:57:17.000Z</time>
      </trkpt>
      <trkpt lat="22.796224" lon="108.555576">
        <ele>60.235892</ele>
        <time>2026-08-14T02:57:18.000Z</time>
      </trkpt>
      <trkpt lat="22.796256" lon="108.555627">
        <ele>60.263536</ele>
        <time>2026-08-14T02:57:19.000Z</time>
      </trkpt>
      <trkpt lat="22.796286" lon="108.555677">
        <ele>60.290269</ele>
        <time>2026-08-14T02:57:20.000Z</time>
      </trkpt>
      <trkpt lat="22.796317" lon="108.555727">
        <ele>60.317270</ele>
        <time>2026-08-14T02:57:21.000Z</time>
      </trkpt>
      <trkpt lat="22.796347" lon="108.555778">
        <ele>60.344380</ele>
        <time>2026-08-14T02:57:22.000Z</time>
      </trkpt>
      <trkpt lat="22.796375" lon="108.555828">
        <ele>60.370595</ele>
        <time>2026-08-14T02:57:23.000Z</time>
      </trkpt>
      <trkpt lat="22.796404" lon="108.555877">
        <ele>60.396688</ele>
        <time>2026-08-14T02:57:24.000Z</time>
      </trkpt>
      <trkpt lat="22.796433" lon="108.555925">
        <ele>60.422405</ele>
        <time>2026-08-14T02:57:25.000Z</time>
      </trkpt>
      <trkpt lat="22.796461" lon="108.555973">
        <ele>60.447858</ele>
        <time>2026-08-14T02:57:26.000Z</time>
      </trkpt>
      <trkpt lat="22.796492" lon="108.556022">
        <ele>60.474489</ele>
        <time>2026-08-14T02:57:27.000Z</time>
      </trkpt>
      <trkpt lat="22.796521" lon="108.556071">
        <ele>60.500581</ele>
        <time>2026-08-14T02:57:28.000Z</time>
      </trkpt>
      <trkpt lat="22.796549" lon="108.556120">
        <ele>60.526415</ele>
        <time>2026-08-14T02:57:29.000Z</time>
      </trkpt>
      <trkpt lat="22.796577" lon="108.556168">
        <ele>60.551868</ele>
        <time>2026-08-14T02:57:30.000Z</time>
      </trkpt>
      <trkpt lat="22.796605" lon="108.556214">
        <ele>60.576569</ele>
        <time>2026-08-14T02:57:31.000Z</time>
      </trkpt>
      <trkpt lat="22.796631" lon="108.556258">
        <ele>60.599988</ele>
        <time>2026-08-14T02:57:32.000Z</time>
      </trkpt>
      <trkpt lat="22.796661" lon="108.556301">
        <ele>60.624153</ele>
        <time>2026-08-14T02:57:33.000Z</time>
      </trkpt>
      <trkpt lat="22.796684" lon="108.556345">
        <ele>60.646819</ele>
        <time>2026-08-14T02:57:34.000Z</time>
      </trkpt>
      <trkpt lat="22.796708" lon="108.556388">
        <ele>60.669344</ele>
        <time>2026-08-14T02:57:35.000Z</time>
      </trkpt>
      <trkpt lat="22.796733" lon="108.556434">
        <ele>60.693272</ele>
        <time>2026-08-14T02:57:36.000Z</time>
      </trkpt>
      <trkpt lat="22.796758" lon="108.556476">
        <ele>60.715675</ele>
        <time>2026-08-14T02:57:37.000Z</time>
      </trkpt>
      <trkpt lat="22.796786" lon="108.556517">
        <ele>60.742173</ele>
        <time>2026-08-14T02:57:38.000Z</time>
      </trkpt>
      <trkpt lat="22.796817" lon="108.556558">
        <ele>60.781469</ele>
        <time>2026-08-14T02:57:39.000Z</time>
      </trkpt>
      <trkpt lat="22.796847" lon="108.556598">
        <ele>60.819682</ele>
        <time>2026-08-14T02:57:40.000Z</time>
      </trkpt>
      <trkpt lat="22.796874" lon="108.556642">
        <ele>60.858852</ele>
        <time>2026-08-14T02:57:41.000Z</time>
      </trkpt>
      <trkpt lat="22.796896" lon="108.556681">
        <ele>60.892734</ele>
        <time>2026-08-14T02:57:42.000Z</time>
      </trkpt>
      <trkpt lat="22.796919" lon="108.556722">
        <ele>60.928301</ele>
        <time>2026-08-14T02:57:43.000Z</time>
      </trkpt>
      <trkpt lat="22.796941" lon="108.556769">
        <ele>60.967363</ele>
        <time>2026-08-14T02:57:44.000Z</time>
      </trkpt>
      <trkpt lat="22.796963" lon="108.556813">
        <ele>61.004457</ele>
        <time>2026-08-14T02:57:45.000Z</time>
      </trkpt>
      <trkpt lat="22.796990" lon="108.556860">
        <ele>61.045496</ele>
        <time>2026-08-14T02:57:46.000Z</time>
      </trkpt>
      <trkpt lat="22.797014" lon="108.556905">
        <ele>61.084022</ele>
        <time>2026-08-14T02:57:47.000Z</time>
      </trkpt>
      <trkpt lat="22.797039" lon="108.556952">
        <ele>61.124234</ele>
        <time>2026-08-14T02:57:48.000Z</time>
      </trkpt>
      <trkpt lat="22.797066" lon="108.556997">
        <ele>61.164023</ele>
        <time>2026-08-14T02:57:49.000Z</time>
      </trkpt>
      <trkpt lat="22.797095" lon="108.557043">
        <ele>61.205320</ele>
        <time>2026-08-14T02:57:50.000Z</time>
      </trkpt>
      <trkpt lat="22.797121" lon="108.557090">
        <ele>61.245939</ele>
        <time>2026-08-14T02:57:51.000Z</time>
      </trkpt>
      <trkpt lat="22.797148" lon="108.557135">
        <ele>61.285728</ele>
        <time>2026-08-14T02:57:52.000Z</time>
      </trkpt>
      <trkpt lat="22.797172" lon="108.557180">
        <ele>61.324254</ele>
        <time>2026-08-14T02:57:53.000Z</time>
      </trkpt>
      <trkpt lat="22.797197" lon="108.557229">
        <ele>61.365756</ele>
        <time>2026-08-14T02:57:54.000Z</time>
      </trkpt>
      <trkpt lat="22.797223" lon="108.557277">
        <ele>61.407013</ele>
        <time>2026-08-14T02:57:55.000Z</time>
      </trkpt>
      <trkpt lat="22.797246" lon="108.557325">
        <ele>61.447102</ele>
        <time>2026-08-14T02:57:56.000Z</time>
      </trkpt>
      <trkpt lat="22.797270" lon="108.557371">
        <ele>61.486271</ele>
        <time>2026-08-14T02:57:57.000Z</time>
      </trkpt>
      <trkpt lat="22.797295" lon="108.557417">
        <ele>61.525843</ele>
        <time>2026-08-14T02:57:58.000Z</time>
      </trkpt>
      <trkpt lat="22.797319" lon="108.557463">
        <ele>61.565012</ele>
        <time>2026-08-14T02:57:59.000Z</time>
      </trkpt>
      <trkpt lat="22.797341" lon="108.557508">
        <ele>61.602759</ele>
        <time>2026-08-14T02:58:00.000Z</time>
      </trkpt>
      <trkpt lat="22.797365" lon="108.557551">
        <ele>61.640009</ele>
        <time>2026-08-14T02:58:01.000Z</time>
      </trkpt>
      <trkpt lat="22.797388" lon="108.557594">
        <ele>61.676850</ele>
        <time>2026-08-14T02:58:02.000Z</time>
      </trkpt>
      <trkpt lat="22.797410" lon="108.557639">
        <ele>61.714597</ele>
        <time>2026-08-14T02:58:03.000Z</time>
      </trkpt>
      <trkpt lat="22.797431" lon="108.557682">
        <ele>61.750658</ele>
        <time>2026-08-14T02:58:04.000Z</time>
      </trkpt>
      <trkpt lat="22.797453" lon="108.557725">
        <ele>61.787102</ele>
        <time>2026-08-14T02:58:05.000Z</time>
      </trkpt>
      <trkpt lat="22.797474" lon="108.557769">
        <ele>61.823819</ele>
        <time>2026-08-14T02:58:06.000Z</time>
      </trkpt>
      <trkpt lat="22.797497" lon="108.557813">
        <ele>61.861302</ele>
        <time>2026-08-14T02:58:07.000Z</time>
      </trkpt>
      <trkpt lat="22.797519" lon="108.557860">
        <ele>61.900365</ele>
        <time>2026-08-14T02:58:08.000Z</time>
      </trkpt>
      <trkpt lat="22.797538" lon="108.557905">
        <ele>61.937043</ele>
        <time>2026-08-14T02:58:09.000Z</time>
      </trkpt>
      <trkpt lat="22.797557" lon="108.557953">
        <ele>61.975754</ele>
        <time>2026-08-14T02:58:10.000Z</time>
      </trkpt>
      <trkpt lat="22.797577" lon="108.557999">
        <ele>62.013444</ele>
        <time>2026-08-14T02:58:11.000Z</time>
      </trkpt>
      <trkpt lat="22.797598" lon="108.558043">
        <ele>62.050161</ele>
        <time>2026-08-14T02:58:12.000Z</time>
      </trkpt>
      <trkpt lat="22.797619" lon="108.558089">
        <ele>62.088201</ele>
        <time>2026-08-14T02:58:13.000Z</time>
      </trkpt>
      <trkpt lat="22.797640" lon="108.558136">
        <ele>62.126906</ele>
        <time>2026-08-14T02:58:14.000Z</time>
      </trkpt>
      <trkpt lat="22.797661" lon="108.558184">
        <ele>62.166279</ele>
        <time>2026-08-14T02:58:15.000Z</time>
      </trkpt>
      <trkpt lat="22.797682" lon="108.558232">
        <ele>62.182625</ele>
        <time>2026-08-14T02:58:16.000Z</time>
      </trkpt>
      <trkpt lat="22.797704" lon="108.558281">
        <ele>62.188341</ele>
        <time>2026-08-14T02:58:17.000Z</time>
      </trkpt>
      <trkpt lat="22.797724" lon="108.558330">
        <ele>62.193962</ele>
        <time>2026-08-14T02:58:18.000Z</time>
      </trkpt>
      <trkpt lat="22.797744" lon="108.558381">
        <ele>62.199776</ele>
        <time>2026-08-14T02:58:19.000Z</time>
      </trkpt>
      <trkpt lat="22.797765" lon="108.558432">
        <ele>62.205635</ele>
        <time>2026-08-14T02:58:20.000Z</time>
      </trkpt>
      <trkpt lat="22.797787" lon="108.558483">
        <ele>62.211541</ele>
        <time>2026-08-14T02:58:21.000Z</time>
      </trkpt>
      <trkpt lat="22.797806" lon="108.558534">
        <ele>62.217311</ele>
        <time>2026-08-14T02:58:22.000Z</time>
      </trkpt>
      <trkpt lat="22.797824" lon="108.558586">
        <ele>62.223137</ele>
        <time>2026-08-14T02:58:23.000Z</time>
      </trkpt>
      <trkpt lat="22.797839" lon="108.558637">
        <ele>62.228752</ele>
        <time>2026-08-14T02:58:24.000Z</time>
      </trkpt>
      <trkpt lat="22.797855" lon="108.558688">
        <ele>62.234403</ele>
        <time>2026-08-14T02:58:25.000Z</time>
      </trkpt>
      <trkpt lat="22.797871" lon="108.558738">
        <ele>62.239955</ele>
        <time>2026-08-14T02:58:26.000Z</time>
      </trkpt>
      <trkpt lat="22.797892" lon="108.558792">
        <ele>62.246102</ele>
        <time>2026-08-14T02:58:27.000Z</time>
      </trkpt>
      <trkpt lat="22.797910" lon="108.558848">
        <ele>62.252323</ele>
        <time>2026-08-14T02:58:28.000Z</time>
      </trkpt>
      <trkpt lat="22.797926" lon="108.558904">
        <ele>62.258473</ele>
        <time>2026-08-14T02:58:29.000Z</time>
      </trkpt>
      <trkpt lat="22.797940" lon="108.558959">
        <ele>62.264458</ele>
        <time>2026-08-14T02:58:30.000Z</time>
      </trkpt>
      <trkpt lat="22.797956" lon="108.559013">
        <ele>62.270408</ele>
        <time>2026-08-14T02:58:31.000Z</time>
      </trkpt>
      <trkpt lat="22.797973" lon="108.559067">
        <ele>62.276393</ele>
        <time>2026-08-14T02:58:32.000Z</time>
      </trkpt>
      <trkpt lat="22.797990" lon="108.559122">
        <ele>62.282478</ele>
        <time>2026-08-14T02:58:33.000Z</time>
      </trkpt>
      <trkpt lat="22.798005" lon="108.559178">
        <ele>62.288595</ele>
        <time>2026-08-14T02:58:34.000Z</time>
      </trkpt>
      <trkpt lat="22.798020" lon="108.559236">
        <ele>62.294913</ele>
        <time>2026-08-14T02:58:35.000Z</time>
      </trkpt>
      <trkpt lat="22.798035" lon="108.559292">
        <ele>62.301030</ele>
        <time>2026-08-14T02:58:36.000Z</time>
      </trkpt>
      <trkpt lat="22.798050" lon="108.559348">
        <ele>62.307147</ele>
        <time>2026-08-14T02:58:37.000Z</time>
      </trkpt>
      <trkpt lat="22.798064" lon="108.559404">
        <ele>62.313233</ele>
        <time>2026-08-14T02:58:38.000Z</time>
      </trkpt>
      <trkpt lat="22.798079" lon="108.559461">
        <ele>62.319451</ele>
        <time>2026-08-14T02:58:39.000Z</time>
      </trkpt>
      <trkpt lat="22.798093" lon="108.559517">
        <ele>62.325537</ele>
        <time>2026-08-14T02:58:40.000Z</time>
      </trkpt>
      <trkpt lat="22.798107" lon="108.559574">
        <ele>62.331725</ele>
        <time>2026-08-14T02:58:41.000Z</time>
      </trkpt>
      <trkpt lat="22.798122" lon="108.559632">
        <ele>62.338043</ele>
        <time>2026-08-14T02:58:42.000Z</time>
      </trkpt>
      <trkpt lat="22.798137" lon="108.559689">
        <ele>62.344261</ele>
        <time>2026-08-14T02:58:43.000Z</time>
      </trkpt>
      <trkpt lat="22.798152" lon="108.559747">
        <ele>62.350580</ele>
        <time>2026-08-14T02:58:44.000Z</time>
      </trkpt>
      <trkpt lat="22.798165" lon="108.559806">
        <ele>62.356943</ele>
        <time>2026-08-14T02:58:45.000Z</time>
      </trkpt>
      <trkpt lat="22.798178" lon="108.559866">
        <ele>62.363408</ele>
        <time>2026-08-14T02:58:46.000Z</time>
      </trkpt>
      <trkpt lat="22.798191" lon="108.559928">
        <ele>62.370077</ele>
        <time>2026-08-14T02:58:47.000Z</time>
      </trkpt>
      <trkpt lat="22.798202" lon="108.559988">
        <ele>62.376494</ele>
        <time>2026-08-14T02:58:48.000Z</time>
      </trkpt>
      <trkpt lat="22.798216" lon="108.560046">
        <ele>62.382783</ele>
        <time>2026-08-14T02:58:49.000Z</time>
      </trkpt>
      <trkpt lat="22.798230" lon="108.560105">
        <ele>62.352652</ele>
        <time>2026-08-14T02:58:50.000Z</time>
      </trkpt>
      <trkpt lat="22.798244" lon="108.560163">
        <ele>62.318593</ele>
        <time>2026-08-14T02:58:51.000Z</time>
      </trkpt>
      <trkpt lat="22.798254" lon="108.560222">
        <ele>62.284515</ele>
        <time>2026-08-14T02:58:52.000Z</time>
      </trkpt>
      <trkpt lat="22.798265" lon="108.560281">
        <ele>62.250320</ele>
        <time>2026-08-14T02:58:53.000Z</time>
      </trkpt>
      <trkpt lat="22.798276" lon="108.560341">
        <ele>62.215568</ele>
        <time>2026-08-14T02:58:54.000Z</time>
      </trkpt>
      <trkpt lat="22.798285" lon="108.560400">
        <ele>62.181596</ele>
        <time>2026-08-14T02:58:55.000Z</time>
      </trkpt>
      <trkpt lat="22.798295" lon="108.560463">
        <ele>62.145280</ele>
        <time>2026-08-14T02:58:56.000Z</time>
      </trkpt>
      <trkpt lat="22.798304" lon="108.560525">
        <ele>62.109626</ele>
        <time>2026-08-14T02:58:57.000Z</time>
      </trkpt>
      <trkpt lat="22.798315" lon="108.560588">
        <ele>62.073201</ele>
        <time>2026-08-14T02:58:58.000Z</time>
      </trkpt>
      <trkpt lat="22.798325" lon="108.560650">
        <ele>62.037445</ele>
        <time>2026-08-14T02:58:59.000Z</time>
      </trkpt>
      <trkpt lat="22.798333" lon="108.560714">
        <ele>62.000756</ele>
        <time>2026-08-14T02:59:00.000Z</time>
      </trkpt>
      <trkpt lat="22.798339" lon="108.560777">
        <ele>61.964777</ele>
        <time>2026-08-14T02:59:01.000Z</time>
      </trkpt>
      <trkpt lat="22.798346" lon="108.560840">
        <ele>61.928729</ele>
        <time>2026-08-14T02:59:02.000Z</time>
      </trkpt>
      <trkpt lat="22.798355" lon="108.560904">
        <ele>61.891951</ele>
        <time>2026-08-14T02:59:03.000Z</time>
      </trkpt>
      <trkpt lat="22.798364" lon="108.560970">
        <ele>61.854051</ele>
        <time>2026-08-14T02:59:04.000Z</time>
      </trkpt>
      <trkpt lat="22.798372" lon="108.561034">
        <ele>61.817361</ele>
        <time>2026-08-14T02:59:05.000Z</time>
      </trkpt>
      <trkpt lat="22.798379" lon="108.561095">
        <ele>61.782441</ele>
        <time>2026-08-14T02:59:06.000Z</time>
      </trkpt>
      <trkpt lat="22.798384" lon="108.561159">
        <ele>61.745954</ele>
        <time>2026-08-14T02:59:07.000Z</time>
      </trkpt>
      <trkpt lat="22.798388" lon="108.561223">
        <ele>61.709514</ele>
        <time>2026-08-14T02:59:08.000Z</time>
      </trkpt>
      <trkpt lat="22.798391" lon="108.561287">
        <ele>61.673110</ele>
        <time>2026-08-14T02:59:09.000Z</time>
      </trkpt>
      <trkpt lat="22.798395" lon="108.561351">
        <ele>61.636670</ele>
        <time>2026-08-14T02:59:10.000Z</time>
      </trkpt>
      <trkpt lat="22.798399" lon="108.561416">
        <ele>61.599663</ele>
        <time>2026-08-14T02:59:11.000Z</time>
      </trkpt>
      <trkpt lat="22.798404" lon="108.561480">
        <ele>61.563176</ele>
        <time>2026-08-14T02:59:12.000Z</time>
      </trkpt>
      <trkpt lat="22.798409" lon="108.561547">
        <ele>61.524990</ele>
        <time>2026-08-14T02:59:13.000Z</time>
      </trkpt>
      <trkpt lat="22.798415" lon="108.561614">
        <ele>61.486750</ele>
        <time>2026-08-14T02:59:14.000Z</time>
      </trkpt>
      <trkpt lat="22.798420" lon="108.561681">
        <ele>61.448565</ele>
        <time>2026-08-14T02:59:15.000Z</time>
      </trkpt>
      <trkpt lat="22.798425" lon="108.561747">
        <ele>61.410945</ele>
        <time>2026-08-14T02:59:16.000Z</time>
      </trkpt>
      <trkpt lat="22.798430" lon="108.561813">
        <ele>61.373326</ele>
        <time>2026-08-14T02:59:17.000Z</time>
      </trkpt>
      <trkpt lat="22.798435" lon="108.561880">
        <ele>61.335141</ele>
        <time>2026-08-14T02:59:18.000Z</time>
      </trkpt>
      <trkpt lat="22.798440" lon="108.561948">
        <ele>61.296389</ele>
        <time>2026-08-14T02:59:19.000Z</time>
      </trkpt>
      <trkpt lat="22.798443" lon="108.562013">
        <ele>61.257369</ele>
        <time>2026-08-14T02:59:20.000Z</time>
      </trkpt>
      <trkpt lat="22.798446" lon="108.562078">
        <ele>61.215575</ele>
        <time>2026-08-14T02:59:21.000Z</time>
      </trkpt>
      <trkpt lat="22.798449" lon="108.562145">
        <ele>61.172498</ele>
        <time>2026-08-14T02:59:22.000Z</time>
      </trkpt>
      <trkpt lat="22.798451" lon="108.562212">
        <ele>61.129449</ele>
        <time>2026-08-14T02:59:23.000Z</time>
      </trkpt>
      <trkpt lat="22.798454" lon="108.562279">
        <ele>61.086372</ele>
        <time>2026-08-14T02:59:24.000Z</time>
      </trkpt>
      <trkpt lat="22.798458" lon="108.562346">
        <ele>61.043256</ele>
        <time>2026-08-14T02:59:25.000Z</time>
      </trkpt>
      <trkpt lat="22.798463" lon="108.562412">
        <ele>61.000729</ele>
        <time>2026-08-14T02:59:26.000Z</time>
      </trkpt>
      <trkpt lat="22.798467" lon="108.562479">
        <ele>60.957613</ele>
        <time>2026-08-14T02:59:27.000Z</time>
      </trkpt>
      <trkpt lat="22.798471" lon="108.562547">
        <ele>60.913856</ele>
        <time>2026-08-14T02:59:28.000Z</time>
      </trkpt>
      <trkpt lat="22.798475" lon="108.562614">
        <ele>60.870740</ele>
        <time>2026-08-14T02:59:29.000Z</time>
      </trkpt>
      <trkpt lat="22.798479" lon="108.562683">
        <ele>60.826342</ele>
        <time>2026-08-14T02:59:30.000Z</time>
      </trkpt>
      <trkpt lat="22.798482" lon="108.562750">
        <ele>60.783265</ele>
        <time>2026-08-14T02:59:31.000Z</time>
      </trkpt>
      <trkpt lat="22.798484" lon="108.562815">
        <ele>60.741500</ele>
        <time>2026-08-14T02:59:32.000Z</time>
      </trkpt>
      <trkpt lat="22.798488" lon="108.562881">
        <ele>60.699025</ele>
        <time>2026-08-14T02:59:33.000Z</time>
      </trkpt>
      <trkpt lat="22.798491" lon="108.562944">
        <ele>60.658514</ele>
        <time>2026-08-14T02:59:34.000Z</time>
      </trkpt>
      <trkpt lat="22.798495" lon="108.563006">
        <ele>60.618601</ele>
        <time>2026-08-14T02:59:35.000Z</time>
      </trkpt>
      <trkpt lat="22.798499" lon="108.563069">
        <ele>60.578048</ele>
        <time>2026-08-14T02:59:36.000Z</time>
      </trkpt>
      <trkpt lat="22.798502" lon="108.563132">
        <ele>60.537537</ele>
        <time>2026-08-14T02:59:37.000Z</time>
      </trkpt>
      <trkpt lat="22.798506" lon="108.563197">
        <ele>60.495702</ele>
        <time>2026-08-14T02:59:38.000Z</time>
      </trkpt>
      <trkpt lat="22.798509" lon="108.563261">
        <ele>60.454549</ele>
        <time>2026-08-14T02:59:39.000Z</time>
      </trkpt>
      <trkpt lat="22.798513" lon="108.563327">
        <ele>60.412074</ele>
        <time>2026-08-14T02:59:40.000Z</time>
      </trkpt>
      <trkpt lat="22.798517" lon="108.563391">
        <ele>60.370880</ele>
        <time>2026-08-14T02:59:41.000Z</time>
      </trkpt>
      <trkpt lat="22.798520" lon="108.563456">
        <ele>60.329086</ele>
        <time>2026-08-14T02:59:42.000Z</time>
      </trkpt>
      <trkpt lat="22.798522" lon="108.563522">
        <ele>60.286679</ele>
        <time>2026-08-14T02:59:43.000Z</time>
      </trkpt>
      <trkpt lat="22.798525" lon="108.563588">
        <ele>60.244244</ele>
        <time>2026-08-14T02:59:44.000Z</time>
      </trkpt>
      <trkpt lat="22.798529" lon="108.563654">
        <ele>60.201769</ele>
        <time>2026-08-14T02:59:45.000Z</time>
      </trkpt>
      <trkpt lat="22.798532" lon="108.563719">
        <ele>60.159975</ele>
        <time>2026-08-14T02:59:46.000Z</time>
      </trkpt>
      <trkpt lat="22.798538" lon="108.563786">
        <ele>60.116746</ele>
        <time>2026-08-14T02:59:47.000Z</time>
      </trkpt>
      <trkpt lat="22.798542" lon="108.563853">
        <ele>60.073630</ele>
        <time>2026-08-14T02:59:48.000Z</time>
      </trkpt>
      <trkpt lat="22.798546" lon="108.563920">
        <ele>60.030514</ele>
        <time>2026-08-14T02:59:49.000Z</time>
      </trkpt>
      <trkpt lat="22.798549" lon="108.563987">
        <ele>60.046733</ele>
        <time>2026-08-14T02:59:50.000Z</time>
      </trkpt>
      <trkpt lat="22.798548" lon="108.564054">
        <ele>60.077133</ele>
        <time>2026-08-14T02:59:51.000Z</time>
      </trkpt>
      <trkpt lat="22.798545" lon="108.564119">
        <ele>60.106658</ele>
        <time>2026-08-14T02:59:52.000Z</time>
      </trkpt>
      <trkpt lat="22.798543" lon="108.564186">
        <ele>60.137069</ele>
        <time>2026-08-14T02:59:53.000Z</time>
      </trkpt>
      <trkpt lat="22.798545" lon="108.564253">
        <ele>60.167481</ele>
        <time>2026-08-14T02:59:54.000Z</time>
      </trkpt>
      <trkpt lat="22.798548" lon="108.564318">
        <ele>60.197006</ele>
        <time>2026-08-14T02:59:55.000Z</time>
      </trkpt>
      <trkpt lat="22.798552" lon="108.564385">
        <ele>60.227465</ele>
        <time>2026-08-14T02:59:56.000Z</time>
      </trkpt>
      <trkpt lat="22.798557" lon="108.564450">
        <ele>60.257055</ele>
        <time>2026-08-14T02:59:57.000Z</time>
      </trkpt>
      <trkpt lat="22.798562" lon="108.564515">
        <ele>60.286646</ele>
        <time>2026-08-14T02:59:58.000Z</time>
      </trkpt>
      <trkpt lat="22.798566" lon="108.564581">
        <ele>60.316652</ele>
        <time>2026-08-14T02:59:59.000Z</time>
      </trkpt>
      <trkpt lat="22.798569" lon="108.564646">
        <ele>60.346177</ele>
        <time>2026-08-14T03:00:00.000Z</time>
      </trkpt>
      <trkpt lat="22.798570" lon="108.564709">
        <ele>60.374762</ele>
        <time>2026-08-14T03:00:01.000Z</time>
      </trkpt>
      <trkpt lat="22.798573" lon="108.564773">
        <ele>60.403834</ele>
        <time>2026-08-14T03:00:02.000Z</time>
      </trkpt>
      <trkpt lat="22.798576" lon="108.564836">
        <ele>60.432453</ele>
        <time>2026-08-14T03:00:03.000Z</time>
      </trkpt>
      <trkpt lat="22.798579" lon="108.564899">
        <ele>60.461072</ele>
        <time>2026-08-14T03:00:04.000Z</time>
      </trkpt>
      <trkpt lat="22.798580" lon="108.564962">
        <ele>60.489657</ele>
        <time>2026-08-14T03:00:05.000Z</time>
      </trkpt>
      <trkpt lat="22.798582" lon="108.565024">
        <ele>60.517801</ele>
        <time>2026-08-14T03:00:06.000Z</time>
      </trkpt>
      <trkpt lat="22.798584" lon="108.565086">
        <ele>60.545946</ele>
        <time>2026-08-14T03:00:07.000Z</time>
      </trkpt>
      <trkpt lat="22.798588" lon="108.565145">
        <ele>60.572784</ele>
        <time>2026-08-14T03:00:08.000Z</time>
      </trkpt>
      <trkpt lat="22.798592" lon="108.565203">
        <ele>60.599170</ele>
        <time>2026-08-14T03:00:09.000Z</time>
      </trkpt>
      <trkpt lat="22.798596" lon="108.565261">
        <ele>60.625556</ele>
        <time>2026-08-14T03:00:10.000Z</time>
      </trkpt>
      <trkpt lat="22.798599" lon="108.565316">
        <ele>60.650551</ele>
        <time>2026-08-14T03:00:11.000Z</time>
      </trkpt>
      <trkpt lat="22.798603" lon="108.565372">
        <ele>60.676032</ele>
        <time>2026-08-14T03:00:12.000Z</time>
      </trkpt>
      <trkpt lat="22.798606" lon="108.565425">
        <ele>60.700122</ele>
        <time>2026-08-14T03:00:13.000Z</time>
      </trkpt>
      <trkpt lat="22.798608" lon="108.565480">
        <ele>60.725093</ele>
        <time>2026-08-14T03:00:14.000Z</time>
      </trkpt>
      <trkpt lat="22.798608" lon="108.565537">
        <ele>60.750952</ele>
        <time>2026-08-14T03:00:15.000Z</time>
      </trkpt>
      <trkpt lat="22.798610" lon="108.565594">
        <ele>60.776829</ele>
        <time>2026-08-14T03:00:16.000Z</time>
      </trkpt>
      <trkpt lat="22.798613" lon="108.565650">
        <ele>60.802277</ele>
        <time>2026-08-14T03:00:17.000Z</time>
      </trkpt>
      <trkpt lat="22.798617" lon="108.565704">
        <ele>60.826854</ele>
        <time>2026-08-14T03:00:18.000Z</time>
      </trkpt>
      <trkpt lat="22.798621" lon="108.565759">
        <ele>60.851883</ele>
        <time>2026-08-14T03:00:19.000Z</time>
      </trkpt>
      <trkpt lat="22.798625" lon="108.565814">
        <ele>60.876912</ele>
        <time>2026-08-14T03:00:20.000Z</time>
      </trkpt>
      <trkpt lat="22.798627" lon="108.565869">
        <ele>60.901883</ele>
        <time>2026-08-14T03:00:21.000Z</time>
      </trkpt>
      <trkpt lat="22.798631" lon="108.565925">
        <ele>60.964214</ele>
        <time>2026-08-14T03:00:22.000Z</time>
      </trkpt>
      <trkpt lat="22.798635" lon="108.565981">
        <ele>61.036534</ele>
        <time>2026-08-14T03:00:23.000Z</time>
      </trkpt>
      <trkpt lat="22.798640" lon="108.566036">
        <ele>61.107693</ele>
        <time>2026-08-14T03:00:24.000Z</time>
      </trkpt>
      <trkpt lat="22.798642" lon="108.566091">
        <ele>61.178564</ele>
        <time>2026-08-14T03:00:25.000Z</time>
      </trkpt>
      <trkpt lat="22.798645" lon="108.566144">
        <ele>61.246933</ele>
        <time>2026-08-14T03:00:26.000Z</time>
      </trkpt>
      <trkpt lat="22.798648" lon="108.566197">
        <ele>61.315303</ele>
        <time>2026-08-14T03:00:27.000Z</time>
      </trkpt>
      <trkpt lat="22.798651" lon="108.566253">
        <ele>61.387528</ele>
        <time>2026-08-14T03:00:28.000Z</time>
      </trkpt>
      <trkpt lat="22.798653" lon="108.566308">
        <ele>61.458399</ele>
        <time>2026-08-14T03:00:29.000Z</time>
      </trkpt>
      <trkpt lat="22.798657" lon="108.566364">
        <ele>61.530718</ele>
        <time>2026-08-14T03:00:30.000Z</time>
      </trkpt>
      <trkpt lat="22.798660" lon="108.566420">
        <ele>61.602944</ele>
        <time>2026-08-14T03:00:31.000Z</time>
      </trkpt>
      <trkpt lat="22.798663" lon="108.566475">
        <ele>61.673883</ele>
        <time>2026-08-14T03:00:32.000Z</time>
      </trkpt>
      <trkpt lat="22.798667" lon="108.566530">
        <ele>61.744919</ele>
        <time>2026-08-14T03:00:33.000Z</time>
      </trkpt>
      <trkpt lat="22.798670" lon="108.566587">
        <ele>61.818430</ele>
        <time>2026-08-14T03:00:34.000Z</time>
      </trkpt>
      <trkpt lat="22.798672" lon="108.566643">
        <ele>61.890587</ele>
        <time>2026-08-14T03:00:35.000Z</time>
      </trkpt>
      <trkpt lat="22.798675" lon="108.566698">
        <ele>61.961527</ele>
        <time>2026-08-14T03:00:36.000Z</time>
      </trkpt>
      <trkpt lat="22.798680" lon="108.566754">
        <ele>62.033968</ele>
        <time>2026-08-14T03:00:37.000Z</time>
      </trkpt>
      <trkpt lat="22.798683" lon="108.566810">
        <ele>62.106193</ele>
        <time>2026-08-14T03:00:38.000Z</time>
      </trkpt>
      <trkpt lat="22.798685" lon="108.566866">
        <ele>62.178351</ele>
        <time>2026-08-14T03:00:39.000Z</time>
      </trkpt>
      <trkpt lat="22.798688" lon="108.566922">
        <ele>62.250576</ele>
        <time>2026-08-14T03:00:40.000Z</time>
      </trkpt>
      <trkpt lat="22.798692" lon="108.566977">
        <ele>62.321612</ele>
        <time>2026-08-14T03:00:41.000Z</time>
      </trkpt>
      <trkpt lat="22.798695" lon="108.567035">
        <ele>62.396408</ele>
        <time>2026-08-14T03:00:42.000Z</time>
      </trkpt>
      <trkpt lat="22.798697" lon="108.567093">
        <ele>62.471138</ele>
        <time>2026-08-14T03:00:43.000Z</time>
      </trkpt>
      <trkpt lat="22.798700" lon="108.567151">
        <ele>62.545935</ele>
        <time>2026-08-14T03:00:44.000Z</time>
      </trkpt>
      <trkpt lat="22.798703" lon="108.567208">
        <ele>62.619445</ele>
        <time>2026-08-14T03:00:45.000Z</time>
      </trkpt>
      <trkpt lat="22.798706" lon="108.567263">
        <ele>62.690385</ele>
        <time>2026-08-14T03:00:46.000Z</time>
      </trkpt>
      <trkpt lat="22.798710" lon="108.567317">
        <ele>62.760137</ele>
        <time>2026-08-14T03:00:47.000Z</time>
      </trkpt>
      <trkpt lat="22.798713" lon="108.567370">
        <ele>62.828506</ele>
        <time>2026-08-14T03:00:48.000Z</time>
      </trkpt>
      <trkpt lat="22.798716" lon="108.567426">
        <ele>62.900732</ele>
        <time>2026-08-14T03:00:49.000Z</time>
      </trkpt>
      <trkpt lat="22.798720" lon="108.567482">
        <ele>62.973051</ele>
        <time>2026-08-14T03:00:50.000Z</time>
      </trkpt>
      <trkpt lat="22.798724" lon="108.567537">
        <ele>63.044087</ele>
        <time>2026-08-14T03:00:51.000Z</time>
      </trkpt>
      <trkpt lat="22.798728" lon="108.567587">
        <ele>63.108707</ele>
        <time>2026-08-14T03:00:52.000Z</time>
      </trkpt>
      <trkpt lat="22.798730" lon="108.567637">
        <ele>63.173146</ele>
        <time>2026-08-14T03:00:53.000Z</time>
      </trkpt>
      <trkpt lat="22.798733" lon="108.567689">
        <ele>63.240230</ele>
        <time>2026-08-14T03:00:54.000Z</time>
      </trkpt>
      <trkpt lat="22.798736" lon="108.567738">
        <ele>63.303459</ele>
        <time>2026-08-14T03:00:55.000Z</time>
      </trkpt>
      <trkpt lat="22.798738" lon="108.567783">
        <ele>63.361467</ele>
        <time>2026-08-14T03:00:56.000Z</time>
      </trkpt>
      <trkpt lat="22.798739" lon="108.567828">
        <ele>63.419424</ele>
        <time>2026-08-14T03:00:57.000Z</time>
      </trkpt>
      <trkpt lat="22.798742" lon="108.567876">
        <ele>63.469380</ele>
        <time>2026-08-14T03:00:58.000Z</time>
      </trkpt>
      <trkpt lat="22.798743" lon="108.567922">
        <ele>63.517154</ele>
        <time>2026-08-14T03:00:59.000Z</time>
      </trkpt>
      <trkpt lat="22.798744" lon="108.567968">
        <ele>63.564927</ele>
        <time>2026-08-14T03:01:00.000Z</time>
      </trkpt>
      <trkpt lat="22.798744" lon="108.568014">
        <ele>63.612688</ele>
        <time>2026-08-14T03:01:01.000Z</time>
      </trkpt>
      <trkpt lat="22.798745" lon="108.568060">
        <ele>63.660461</ele>
        <time>2026-08-14T03:01:02.000Z</time>
      </trkpt>
      <trkpt lat="22.798745" lon="108.568106">
        <ele>63.708222</ele>
        <time>2026-08-14T03:01:03.000Z</time>
      </trkpt>
      <trkpt lat="22.798746" lon="108.568151">
        <ele>63.754957</ele>
        <time>2026-08-14T03:01:04.000Z</time>
      </trkpt>
      <trkpt lat="22.798747" lon="108.568197">
        <ele>63.802731</ele>
        <time>2026-08-14T03:01:05.000Z</time>
      </trkpt>
      <trkpt lat="22.798748" lon="108.568242">
        <ele>63.849467</ele>
        <time>2026-08-14T03:01:06.000Z</time>
      </trkpt>
      <trkpt lat="22.798750" lon="108.568288">
        <ele>63.897280</ele>
        <time>2026-08-14T03:01:07.000Z</time>
      </trkpt>
      <trkpt lat="22.798753" lon="108.568337">
        <ele>63.948267</ele>
        <time>2026-08-14T03:01:08.000Z</time>
      </trkpt>
      <trkpt lat="22.798755" lon="108.568385">
        <ele>63.998155</ele>
        <time>2026-08-14T03:01:09.000Z</time>
      </trkpt>
      <trkpt lat="22.798758" lon="108.568435">
        <ele>64.050178</ele>
        <time>2026-08-14T03:01:10.000Z</time>
      </trkpt>
      <trkpt lat="22.798760" lon="108.568482">
        <ele>64.099029</ele>
        <time>2026-08-14T03:01:11.000Z</time>
      </trkpt>
      <trkpt lat="22.798759" lon="108.568529">
        <ele>64.147841</ele>
        <time>2026-08-14T03:01:12.000Z</time>
      </trkpt>
      <trkpt lat="22.798758" lon="108.568577">
        <ele>64.197690</ele>
        <time>2026-08-14T03:01:13.000Z</time>
      </trkpt>
      <trkpt lat="22.798758" lon="108.568625">
        <ele>64.247527</ele>
        <time>2026-08-14T03:01:14.000Z</time>
      </trkpt>
      <trkpt lat="22.798759" lon="108.568676">
        <ele>64.300491</ele>
        <time>2026-08-14T03:01:15.000Z</time>
      </trkpt>
      <trkpt lat="22.798760" lon="108.568724">
        <ele>64.350340</ele>
        <time>2026-08-14T03:01:16.000Z</time>
      </trkpt>
      <trkpt lat="22.798764" lon="108.568775">
        <ele>64.403483</ele>
        <time>2026-08-14T03:01:17.000Z</time>
      </trkpt>
      <trkpt lat="22.798768" lon="108.568824">
        <ele>64.454558</ele>
        <time>2026-08-14T03:01:18.000Z</time>
      </trkpt>
      <trkpt lat="22.798770" lon="108.568876">
        <ele>64.508595</ele>
        <time>2026-08-14T03:01:19.000Z</time>
      </trkpt>
      <trkpt lat="22.798772" lon="108.568928">
        <ele>64.562631</ele>
        <time>2026-08-14T03:01:20.000Z</time>
      </trkpt>
      <trkpt lat="22.798774" lon="108.568980">
        <ele>64.616668</ele>
        <time>2026-08-14T03:01:21.000Z</time>
      </trkpt>
      <trkpt lat="22.798775" lon="108.569032">
        <ele>64.670670</ele>
        <time>2026-08-14T03:01:22.000Z</time>
      </trkpt>
      <trkpt lat="22.798779" lon="108.569092">
        <ele>64.733129</ele>
        <time>2026-08-14T03:01:23.000Z</time>
      </trkpt>
      <trkpt lat="22.798784" lon="108.569149">
        <ele>64.792577</ele>
        <time>2026-08-14T03:01:24.000Z</time>
      </trkpt>
      <trkpt lat="22.798787" lon="108.569203">
        <ele>64.848746</ele>
        <time>2026-08-14T03:01:25.000Z</time>
      </trkpt>
      <trkpt lat="22.798789" lon="108.569257">
        <ele>64.904857</ele>
        <time>2026-08-14T03:01:26.000Z</time>
      </trkpt>
      <trkpt lat="22.798793" lon="108.569309">
        <ele>64.959035</ele>
        <time>2026-08-14T03:01:27.000Z</time>
      </trkpt>
      <trkpt lat="22.798797" lon="108.569363">
        <ele>65.015282</ele>
        <time>2026-08-14T03:01:28.000Z</time>
      </trkpt>
      <trkpt lat="22.798798" lon="108.569414">
        <ele>65.068246</ele>
        <time>2026-08-14T03:01:29.000Z</time>
      </trkpt>
      <trkpt lat="22.798799" lon="108.569466">
        <ele>65.122248</ele>
        <time>2026-08-14T03:01:30.000Z</time>
      </trkpt>
      <trkpt lat="22.798803" lon="108.569522">
        <ele>65.180565</ele>
        <time>2026-08-14T03:01:31.000Z</time>
      </trkpt>
      <trkpt lat="22.798805" lon="108.569577">
        <ele>65.237714</ele>
        <time>2026-08-14T03:01:32.000Z</time>
      </trkpt>
      <trkpt lat="22.798809" lon="108.569631">
        <ele>65.293961</ele>
        <time>2026-08-14T03:01:33.000Z</time>
      </trkpt>
      <trkpt lat="22.798817" lon="108.569686">
        <ele>65.351772</ele>
        <time>2026-08-14T03:01:34.000Z</time>
      </trkpt>
      <trkpt lat="22.798828" lon="108.569752">
        <ele>65.421409</ele>
        <time>2026-08-14T03:01:35.000Z</time>
      </trkpt>
      <trkpt lat="22.798838" lon="108.569807">
        <ele>65.466826</ele>
        <time>2026-08-14T03:01:36.000Z</time>
      </trkpt>
      <trkpt lat="22.798845" lon="108.569864">
        <ele>65.504350</ele>
        <time>2026-08-14T03:01:37.000Z</time>
      </trkpt>
      <trkpt lat="22.798845" lon="108.569917">
        <ele>65.538936</ele>
        <time>2026-08-14T03:01:38.000Z</time>
      </trkpt>
      <trkpt lat="22.798841" lon="108.569973">
        <ele>65.575588</ele>
        <time>2026-08-14T03:01:39.000Z</time>
      </trkpt>
      <trkpt lat="22.798836" lon="108.570030">
        <ele>65.612952</ele>
        <time>2026-08-14T03:01:40.000Z</time>
      </trkpt>
      <trkpt lat="22.798836" lon="108.570086">
        <ele>65.649495</ele>
        <time>2026-08-14T03:01:41.000Z</time>
      </trkpt>
      <trkpt lat="22.798840" lon="108.570143">
        <ele>65.686798</ele>
        <time>2026-08-14T03:01:42.000Z</time>
      </trkpt>
      <trkpt lat="22.798842" lon="108.570199">
        <ele>65.723369</ele>
        <time>2026-08-14T03:01:43.000Z</time>
      </trkpt>
      <trkpt lat="22.798846" lon="108.570253">
        <ele>65.758720</ele>
        <time>2026-08-14T03:01:44.000Z</time>
      </trkpt>
      <trkpt lat="22.798850" lon="108.570307">
        <ele>65.794072</ele>
        <time>2026-08-14T03:01:45.000Z</time>
      </trkpt>
      <trkpt lat="22.798855" lon="108.570361">
        <ele>65.829487</ele>
        <time>2026-08-14T03:01:46.000Z</time>
      </trkpt>
      <trkpt lat="22.798859" lon="108.570417">
        <ele>65.866140</ele>
        <time>2026-08-14T03:01:47.000Z</time>
      </trkpt>
      <trkpt lat="22.798864" lon="108.570472">
        <ele>65.902204</ele>
        <time>2026-08-14T03:01:48.000Z</time>
      </trkpt>
      <trkpt lat="22.798869" lon="108.570527">
        <ele>65.938269</ele>
        <time>2026-08-14T03:01:49.000Z</time>
      </trkpt>
      <trkpt lat="22.798872" lon="108.570582">
        <ele>65.974222</ele>
        <time>2026-08-14T03:01:50.000Z</time>
      </trkpt>
      <trkpt lat="22.798875" lon="108.570637">
        <ele>66.010176</ele>
        <time>2026-08-14T03:01:51.000Z</time>
      </trkpt>
      <trkpt lat="22.798878" lon="108.570692">
        <ele>66.046129</ele>
        <time>2026-08-14T03:01:52.000Z</time>
      </trkpt>
      <trkpt lat="22.798882" lon="108.570746">
        <ele>66.081480</ele>
        <time>2026-08-14T03:01:53.000Z</time>
      </trkpt>
      <trkpt lat="22.798886" lon="108.570799">
        <ele>66.116182</ele>
        <time>2026-08-14T03:01:54.000Z</time>
      </trkpt>
      <trkpt lat="22.798889" lon="108.570851">
        <ele>66.150181</ele>
        <time>2026-08-14T03:01:55.000Z</time>
      </trkpt>
      <trkpt lat="22.798892" lon="108.570902">
        <ele>66.183529</ele>
        <time>2026-08-14T03:01:56.000Z</time>
      </trkpt>
      <trkpt lat="22.798896" lon="108.570953">
        <ele>66.216929</ele>
        <time>2026-08-14T03:01:57.000Z</time>
      </trkpt>
      <trkpt lat="22.798900" lon="108.571006">
        <ele>66.251630</ele>
        <time>2026-08-14T03:01:58.000Z</time>
      </trkpt>
      <trkpt lat="22.798902" lon="108.571058">
        <ele>66.285593</ele>
        <time>2026-08-14T03:01:59.000Z</time>
      </trkpt>
      <trkpt lat="22.798904" lon="108.571111">
        <ele>66.320207</ele>
        <time>2026-08-14T03:02:00.000Z</time>
      </trkpt>
      <trkpt lat="22.798907" lon="108.571165">
        <ele>66.355509</ele>
        <time>2026-08-14T03:02:01.000Z</time>
      </trkpt>
      <trkpt lat="22.798910" lon="108.571218">
        <ele>66.390160</ele>
        <time>2026-08-14T03:02:02.000Z</time>
      </trkpt>
      <trkpt lat="22.798914" lon="108.571274">
        <ele>66.426812</ele>
        <time>2026-08-14T03:02:03.000Z</time>
      </trkpt>
      <trkpt lat="22.798915" lon="108.571329">
        <ele>66.462710</ele>
        <time>2026-08-14T03:02:04.000Z</time>
      </trkpt>
      <trkpt lat="22.798917" lon="108.571384">
        <ele>66.498628</ele>
        <time>2026-08-14T03:02:05.000Z</time>
      </trkpt>
      <trkpt lat="22.798922" lon="108.571439">
        <ele>66.534693</ele>
        <time>2026-08-14T03:02:06.000Z</time>
      </trkpt>
      <trkpt lat="22.798929" lon="108.571493">
        <ele>66.570277</ele>
        <time>2026-08-14T03:02:07.000Z</time>
      </trkpt>
      <trkpt lat="22.798933" lon="108.571548">
        <ele>66.606279</ele>
        <time>2026-08-14T03:02:08.000Z</time>
      </trkpt>
      <trkpt lat="22.798936" lon="108.571602">
        <ele>66.641581</ele>
        <time>2026-08-14T03:02:09.000Z</time>
      </trkpt>
      <trkpt lat="22.798938" lon="108.571655">
        <ele>66.676196</ele>
        <time>2026-08-14T03:02:10.000Z</time>
      </trkpt>
      <trkpt lat="22.798941" lon="108.571708">
        <ele>66.710846</ele>
        <time>2026-08-14T03:02:11.000Z</time>
      </trkpt>
      <trkpt lat="22.798943" lon="108.571761">
        <ele>66.730262</ele>
        <time>2026-08-14T03:02:12.000Z</time>
      </trkpt>
      <trkpt lat="22.798944" lon="108.571815">
        <ele>66.745727</ele>
        <time>2026-08-14T03:02:13.000Z</time>
      </trkpt>
      <trkpt lat="22.798945" lon="108.571869">
        <ele>66.761192</ele>
        <time>2026-08-14T03:02:14.000Z</time>
      </trkpt>
      <trkpt lat="22.798945" lon="108.571923">
        <ele>66.776655</ele>
        <time>2026-08-14T03:02:15.000Z</time>
      </trkpt>
      <trkpt lat="22.798948" lon="108.571977">
        <ele>66.792145</ele>
        <time>2026-08-14T03:02:16.000Z</time>
      </trkpt>
      <trkpt lat="22.798952" lon="108.572029">
        <ele>66.807086</ele>
        <time>2026-08-14T03:02:17.000Z</time>
      </trkpt>
      <trkpt lat="22.798956" lon="108.572082">
        <ele>66.822313</ele>
        <time>2026-08-14T03:02:18.000Z</time>
      </trkpt>
      <trkpt lat="22.798961" lon="108.572137">
        <ele>66.838138</ele>
        <time>2026-08-14T03:02:19.000Z</time>
      </trkpt>
      <trkpt lat="22.798965" lon="108.572189">
        <ele>66.853079</ele>
        <time>2026-08-14T03:02:20.000Z</time>
      </trkpt>
      <trkpt lat="22.798968" lon="108.572244">
        <ele>66.868855</ele>
        <time>2026-08-14T03:02:21.000Z</time>
      </trkpt>
      <trkpt lat="22.798970" lon="108.572297">
        <ele>66.884043</ele>
        <time>2026-08-14T03:02:22.000Z</time>
      </trkpt>
      <trkpt lat="22.798972" lon="108.572351">
        <ele>66.899518</ele>
        <time>2026-08-14T03:02:23.000Z</time>
      </trkpt>
      <trkpt lat="22.798975" lon="108.572407">
        <ele>66.915580</ele>
        <time>2026-08-14T03:02:24.000Z</time>
      </trkpt>
      <trkpt lat="22.798977" lon="108.572462">
        <ele>66.931341</ele>
        <time>2026-08-14T03:02:25.000Z</time>
      </trkpt>
      <trkpt lat="22.798980" lon="108.572516">
        <ele>66.946831</ele>
        <time>2026-08-14T03:02:26.000Z</time>
      </trkpt>
      <trkpt lat="22.798983" lon="108.572571">
        <ele>66.962607</ele>
        <time>2026-08-14T03:02:27.000Z</time>
      </trkpt>
      <trkpt lat="22.798985" lon="108.572625">
        <ele>66.978082</ele>
        <time>2026-08-14T03:02:28.000Z</time>
      </trkpt>
      <trkpt lat="22.798988" lon="108.572681">
        <ele>66.994143</ele>
        <time>2026-08-14T03:02:29.000Z</time>
      </trkpt>
      <trkpt lat="22.798990" lon="108.572737">
        <ele>67.010190</ele>
        <time>2026-08-14T03:02:30.000Z</time>
      </trkpt>
      <trkpt lat="22.798992" lon="108.572794">
        <ele>67.026523</ele>
        <time>2026-08-14T03:02:31.000Z</time>
      </trkpt>
      <trkpt lat="22.798992" lon="108.572848">
        <ele>67.041985</ele>
        <time>2026-08-14T03:02:32.000Z</time>
      </trkpt>
      <trkpt lat="22.798995" lon="108.572902">
        <ele>67.057476</ele>
        <time>2026-08-14T03:02:33.000Z</time>
      </trkpt>
      <trkpt lat="22.798998" lon="108.572957">
        <ele>67.073252</ele>
        <time>2026-08-14T03:02:34.000Z</time>
      </trkpt>
      <trkpt lat="22.799003" lon="108.573012">
        <ele>67.089077</ele>
        <time>2026-08-14T03:02:35.000Z</time>
      </trkpt>
      <trkpt lat="22.799006" lon="108.573068">
        <ele>67.105138</ele>
        <time>2026-08-14T03:02:36.000Z</time>
      </trkpt>
      <trkpt lat="22.799008" lon="108.573123">
        <ele>67.120899</ele>
        <time>2026-08-14T03:02:37.000Z</time>
      </trkpt>
      <trkpt lat="22.799011" lon="108.573179">
        <ele>67.136961</ele>
        <time>2026-08-14T03:02:38.000Z</time>
      </trkpt>
      <trkpt lat="22.799014" lon="108.573235">
        <ele>67.153023</ele>
        <time>2026-08-14T03:02:39.000Z</time>
      </trkpt>
      <trkpt lat="22.799016" lon="108.573292">
        <ele>67.169356</ele>
        <time>2026-08-14T03:02:40.000Z</time>
      </trkpt>
      <trkpt lat="22.799016" lon="108.573348">
        <ele>67.185391</ele>
        <time>2026-08-14T03:02:41.000Z</time>
      </trkpt>
      <trkpt lat="22.799019" lon="108.573406">
        <ele>67.202024</ele>
        <time>2026-08-14T03:02:42.000Z</time>
      </trkpt>
      <trkpt lat="22.799023" lon="108.573462">
        <ele>67.218107</ele>
        <time>2026-08-14T03:02:43.000Z</time>
      </trkpt>
      <trkpt lat="22.799026" lon="108.573516">
        <ele>67.233598</ele>
        <time>2026-08-14T03:02:44.000Z</time>
      </trkpt>
      <trkpt lat="22.799029" lon="108.573573">
        <ele>67.249945</ele>
        <time>2026-08-14T03:02:45.000Z</time>
      </trkpt>
      <trkpt lat="22.799034" lon="108.573627">
        <ele>67.265485</ele>
        <time>2026-08-14T03:02:46.000Z</time>
      </trkpt>
      <trkpt lat="22.799038" lon="108.573681">
        <ele>67.287836</ele>
        <time>2026-08-14T03:02:47.000Z</time>
      </trkpt>
      <trkpt lat="22.799040" lon="108.573735">
        <ele>67.330080</ele>
        <time>2026-08-14T03:02:48.000Z</time>
      </trkpt>
      <trkpt lat="22.799044" lon="108.573791">
        <ele>67.373983</ele>
        <time>2026-08-14T03:02:49.000Z</time>
      </trkpt>
      <trkpt lat="22.799047" lon="108.573847">
        <ele>67.417830</ele>
        <time>2026-08-14T03:02:50.000Z</time>
      </trkpt>
      <trkpt lat="22.799049" lon="108.573904">
        <ele>67.462416</ele>
        <time>2026-08-14T03:02:51.000Z</time>
      </trkpt>
      <trkpt lat="22.799053" lon="108.573961">
        <ele>67.507100</ele>
        <time>2026-08-14T03:02:52.000Z</time>
      </trkpt>
      <trkpt lat="22.799057" lon="108.574015">
        <ele>67.549445</ele>
        <time>2026-08-14T03:02:53.000Z</time>
      </trkpt>
      <trkpt lat="22.799061" lon="108.574069">
        <ele>67.591790</ele>
        <time>2026-08-14T03:02:54.000Z</time>
      </trkpt>
      <trkpt lat="22.799065" lon="108.574126">
        <ele>67.636474</ele>
        <time>2026-08-14T03:02:55.000Z</time>
      </trkpt>
      <trkpt lat="22.799068" lon="108.574183">
        <ele>67.681100</ele>
        <time>2026-08-14T03:02:56.000Z</time>
      </trkpt>
      <trkpt lat="22.799070" lon="108.574238">
        <ele>67.724125</ele>
        <time>2026-08-14T03:02:57.000Z</time>
      </trkpt>
      <trkpt lat="22.799073" lon="108.574293">
        <ele>67.767191</ele>
        <time>2026-08-14T03:02:58.000Z</time>
      </trkpt>
      <trkpt lat="22.799077" lon="108.574350">
        <ele>67.811874</ele>
        <time>2026-08-14T03:02:59.000Z</time>
      </trkpt>
      <trkpt lat="22.799082" lon="108.574407">
        <ele>67.856630</ele>
        <time>2026-08-14T03:03:00.000Z</time>
      </trkpt>
      <trkpt lat="22.799088" lon="108.574464">
        <ele>67.901474</ele>
        <time>2026-08-14T03:03:01.000Z</time>
      </trkpt>
      <trkpt lat="22.799092" lon="108.574519">
        <ele>67.944598</ele>
        <time>2026-08-14T03:03:02.000Z</time>
      </trkpt>
      <trkpt lat="22.799097" lon="108.574576">
        <ele>67.989354</ele>
        <time>2026-08-14T03:03:03.000Z</time>
      </trkpt>
      <trkpt lat="22.799102" lon="108.574632">
        <ele>68.033331</ele>
        <time>2026-08-14T03:03:04.000Z</time>
      </trkpt>
      <trkpt lat="22.799106" lon="108.574685">
        <ele>68.074897</ele>
        <time>2026-08-14T03:03:05.000Z</time>
      </trkpt>
      <trkpt lat="22.799110" lon="108.574738">
        <ele>68.116464</ele>
        <time>2026-08-14T03:03:06.000Z</time>
      </trkpt>
      <trkpt lat="22.799115" lon="108.574791">
        <ele>68.158108</ele>
        <time>2026-08-14T03:03:07.000Z</time>
      </trkpt>
      <trkpt lat="22.799119" lon="108.574844">
        <ele>68.199674</ele>
        <time>2026-08-14T03:03:08.000Z</time>
      </trkpt>
      <trkpt lat="22.799124" lon="108.574895">
        <ele>68.239763</ele>
        <time>2026-08-14T03:03:09.000Z</time>
      </trkpt>
      <trkpt lat="22.799129" lon="108.574951">
        <ele>68.283741</ele>
        <time>2026-08-14T03:03:10.000Z</time>
      </trkpt>
      <trkpt lat="22.799133" lon="108.575004">
        <ele>68.325307</ele>
        <time>2026-08-14T03:03:11.000Z</time>
      </trkpt>
      <trkpt lat="22.799138" lon="108.575059">
        <ele>68.368506</ele>
        <time>2026-08-14T03:03:12.000Z</time>
      </trkpt>
      <trkpt lat="22.799141" lon="108.575112">
        <ele>68.410012</ele>
        <time>2026-08-14T03:03:13.000Z</time>
      </trkpt>
      <trkpt lat="22.799144" lon="108.575166">
        <ele>68.452298</ele>
        <time>2026-08-14T03:03:14.000Z</time>
      </trkpt>
      <trkpt lat="22.799146" lon="108.575218">
        <ele>68.492979</ele>
        <time>2026-08-14T03:03:15.000Z</time>
      </trkpt>
      <trkpt lat="22.799146" lon="108.575270">
        <ele>68.533625</ele>
        <time>2026-08-14T03:03:16.000Z</time>
      </trkpt>
      <trkpt lat="22.799146" lon="108.575320">
        <ele>68.572708</ele>
        <time>2026-08-14T03:03:17.000Z</time>
      </trkpt>
      <trkpt lat="22.799148" lon="108.575370">
        <ele>68.611827</ele>
        <time>2026-08-14T03:03:18.000Z</time>
      </trkpt>
      <trkpt lat="22.799150" lon="108.575422">
        <ele>68.652509</ele>
        <time>2026-08-14T03:03:19.000Z</time>
      </trkpt>
      <trkpt lat="22.799153" lon="108.575475">
        <ele>68.694014</ele>
        <time>2026-08-14T03:03:20.000Z</time>
      </trkpt>
      <trkpt lat="22.799152" lon="108.575529">
        <ele>68.736232</ele>
        <time>2026-08-14T03:03:21.000Z</time>
      </trkpt>
      <trkpt lat="22.799150" lon="108.575583">
        <ele>68.778476</ele>
        <time>2026-08-14T03:03:22.000Z</time>
      </trkpt>
      <trkpt lat="22.799149" lon="108.575638">
        <ele>68.850257</ele>
        <time>2026-08-14T03:03:23.000Z</time>
      </trkpt>
      <trkpt lat="22.799149" lon="108.575691">
        <ele>68.953275</ele>
        <time>2026-08-14T03:03:24.000Z</time>
      </trkpt>
      <trkpt lat="22.799152" lon="108.575741">
        <ele>69.050668</ele>
        <time>2026-08-14T03:03:25.000Z</time>
      </trkpt>
      <trkpt lat="22.799155" lon="108.575792">
        <ele>69.150001</ele>
        <time>2026-08-14T03:03:26.000Z</time>
      </trkpt>
      <trkpt lat="22.799158" lon="108.575843">
        <ele>69.249334</ele>
        <time>2026-08-14T03:03:27.000Z</time>
      </trkpt>
      <trkpt lat="22.799159" lon="108.575893">
        <ele>69.346544</ele>
        <time>2026-08-14T03:03:28.000Z</time>
      </trkpt>
      <trkpt lat="22.799161" lon="108.575945">
        <ele>69.447707</ele>
        <time>2026-08-14T03:03:29.000Z</time>
      </trkpt>
      <trkpt lat="22.799165" lon="108.575996">
        <ele>69.547197</ele>
        <time>2026-08-14T03:03:30.000Z</time>
      </trkpt>
      <trkpt lat="22.799169" lon="108.576045">
        <ele>69.642813</ele>
        <time>2026-08-14T03:03:31.000Z</time>
      </trkpt>
      <trkpt lat="22.799171" lon="108.576094">
        <ele>69.738150</ele>
        <time>2026-08-14T03:03:32.000Z</time>
      </trkpt>
      <trkpt lat="22.799172" lon="108.576142">
        <ele>69.831474</ele>
        <time>2026-08-14T03:03:33.000Z</time>
      </trkpt>
      <trkpt lat="22.799175" lon="108.576190">
        <ele>69.924988</ele>
        <time>2026-08-14T03:03:34.000Z</time>
      </trkpt>
      <trkpt lat="22.799180" lon="108.576239">
        <ele>70.020814</ele>
        <time>2026-08-14T03:03:35.000Z</time>
      </trkpt>
      <trkpt lat="22.799184" lon="108.576288">
        <ele>70.116430</ele>
        <time>2026-08-14T03:03:36.000Z</time>
      </trkpt>
      <trkpt lat="22.799187" lon="108.576335">
        <ele>70.208005</ele>
        <time>2026-08-14T03:03:37.000Z</time>
      </trkpt>
      <trkpt lat="22.799189" lon="108.576382">
        <ele>70.299458</ele>
        <time>2026-08-14T03:03:38.000Z</time>
      </trkpt>
      <trkpt lat="22.799190" lon="108.576429">
        <ele>70.390839</ele>
        <time>2026-08-14T03:03:39.000Z</time>
      </trkpt>
      <trkpt lat="22.799192" lon="108.576476">
        <ele>70.482292</ele>
        <time>2026-08-14T03:03:40.000Z</time>
      </trkpt>
      <trkpt lat="22.799194" lon="108.576521">
        <ele>70.569863</ele>
        <time>2026-08-14T03:03:41.000Z</time>
      </trkpt>
      <trkpt lat="22.799196" lon="108.576565">
        <ele>70.655492</ele>
        <time>2026-08-14T03:03:42.000Z</time>
      </trkpt>
      <trkpt lat="22.799197" lon="108.576610">
        <ele>70.742986</ele>
        <time>2026-08-14T03:03:43.000Z</time>
      </trkpt>
      <trkpt lat="22.799200" lon="108.576657">
        <ele>70.834561</ele>
        <time>2026-08-14T03:03:44.000Z</time>
      </trkpt>
      <trkpt lat="22.799203" lon="108.576700">
        <ele>70.918381</ele>
        <time>2026-08-14T03:03:45.000Z</time>
      </trkpt>
      <trkpt lat="22.799207" lon="108.576742">
        <ele>71.000453</ele>
        <time>2026-08-14T03:03:46.000Z</time>
      </trkpt>
      <trkpt lat="22.799210" lon="108.576784">
        <ele>71.082335</ele>
        <time>2026-08-14T03:03:47.000Z</time>
      </trkpt>
      <trkpt lat="22.799212" lon="108.576826">
        <ele>71.164081</ele>
        <time>2026-08-14T03:03:48.000Z</time>
      </trkpt>
      <trkpt lat="22.799214" lon="108.576869">
        <ele>71.247769</ele>
        <time>2026-08-14T03:03:49.000Z</time>
      </trkpt>
      <trkpt lat="22.799217" lon="108.576914">
        <ele>71.335466</ele>
        <time>2026-08-14T03:03:50.000Z</time>
      </trkpt>
      <trkpt lat="22.799218" lon="108.576957">
        <ele>71.419074</ele>
        <time>2026-08-14T03:03:51.000Z</time>
      </trkpt>
      <trkpt lat="22.799219" lon="108.577001">
        <ele>71.504625</ele>
        <time>2026-08-14T03:03:52.000Z</time>
      </trkpt>
      <trkpt lat="22.799221" lon="108.577047">
        <ele>71.594137</ele>
        <time>2026-08-14T03:03:53.000Z</time>
      </trkpt>
      <trkpt lat="22.799224" lon="108.577093">
        <ele>71.683772</ele>
        <time>2026-08-14T03:03:54.000Z</time>
      </trkpt>
      <trkpt lat="22.799229" lon="108.577141">
        <ele>71.777666</ele>
        <time>2026-08-14T03:03:55.000Z</time>
      </trkpt>
      <trkpt lat="22.799234" lon="108.577187">
        <ele>71.867698</ele>
        <time>2026-08-14T03:03:56.000Z</time>
      </trkpt>
      <trkpt lat="22.799235" lon="108.577235">
        <ele>71.961022</ele>
        <time>2026-08-14T03:03:57.000Z</time>
      </trkpt>
      <trkpt lat="22.799237" lon="108.577281">
        <ele>72.050534</ele>
        <time>2026-08-14T03:03:58.000Z</time>
      </trkpt>
      <trkpt lat="22.799240" lon="108.577327">
        <ele>72.140169</ele>
        <time>2026-08-14T03:03:59.000Z</time>
      </trkpt>
      <trkpt lat="22.799245" lon="108.577372">
        <ele>72.228271</ele>
        <time>2026-08-14T03:04:00.000Z</time>
      </trkpt>
      <trkpt lat="22.799248" lon="108.577417">
        <ele>72.315968</ele>
        <time>2026-08-14T03:04:01.000Z</time>
      </trkpt>
      <trkpt lat="22.799251" lon="108.577463">
        <ele>72.405604</ele>
        <time>2026-08-14T03:04:02.000Z</time>
      </trkpt>
      <trkpt lat="22.799253" lon="108.577509">
        <ele>72.495116</ele>
        <time>2026-08-14T03:04:03.000Z</time>
      </trkpt>
      <trkpt lat="22.799255" lon="108.577554">
        <ele>72.582686</ele>
        <time>2026-08-14T03:04:04.000Z</time>
      </trkpt>
      <trkpt lat="22.799255" lon="108.577602">
        <ele>72.569688</ele>
        <time>2026-08-14T03:04:05.000Z</time>
      </trkpt>
      <trkpt lat="22.799255" lon="108.577649">
        <ele>72.541820</ele>
        <time>2026-08-14T03:04:06.000Z</time>
      </trkpt>
      <trkpt lat="22.799256" lon="108.577697">
        <ele>72.513353</ele>
        <time>2026-08-14T03:04:07.000Z</time>
      </trkpt>
      <trkpt lat="22.799259" lon="108.577745">
        <ele>72.484827</ele>
        <time>2026-08-14T03:04:08.000Z</time>
      </trkpt>
      <trkpt lat="22.799262" lon="108.577792">
        <ele>72.456893</ele>
        <time>2026-08-14T03:04:09.000Z</time>
      </trkpt>
      <trkpt lat="22.799263" lon="108.577840">
        <ele>72.428426</ele>
        <time>2026-08-14T03:04:10.000Z</time>
      </trkpt>
      <trkpt lat="22.799264" lon="108.577888">
        <ele>72.399959</ele>
        <time>2026-08-14T03:04:11.000Z</time>
      </trkpt>
      <trkpt lat="22.799266" lon="108.577935">
        <ele>72.372062</ele>
        <time>2026-08-14T03:04:12.000Z</time>
      </trkpt>
      <trkpt lat="22.799268" lon="108.577981">
        <ele>72.344757</ele>
        <time>2026-08-14T03:04:13.000Z</time>
      </trkpt>
      <trkpt lat="22.799271" lon="108.578028">
        <ele>72.316823</ele>
        <time>2026-08-14T03:04:14.000Z</time>
      </trkpt>
      <trkpt lat="22.799273" lon="108.578077">
        <ele>72.287741</ele>
        <time>2026-08-14T03:04:15.000Z</time>
      </trkpt>
      <trkpt lat="22.799275" lon="108.578126">
        <ele>72.258660</ele>
        <time>2026-08-14T03:04:16.000Z</time>
      </trkpt>
      <trkpt lat="22.799278" lon="108.578174">
        <ele>72.230134</ele>
        <time>2026-08-14T03:04:17.000Z</time>
      </trkpt>
      <trkpt lat="22.799280" lon="108.578223">
        <ele>72.201053</ele>
        <time>2026-08-14T03:04:18.000Z</time>
      </trkpt>
      <trkpt lat="22.799283" lon="108.578274">
        <ele>72.170752</ele>
        <time>2026-08-14T03:04:19.000Z</time>
      </trkpt>
      <trkpt lat="22.799287" lon="108.578324">
        <ele>72.140995</ele>
        <time>2026-08-14T03:04:20.000Z</time>
      </trkpt>
      <trkpt lat="22.799291" lon="108.578375">
        <ele>72.110647</ele>
        <time>2026-08-14T03:04:21.000Z</time>
      </trkpt>
      <trkpt lat="22.799294" lon="108.578426">
        <ele>72.080346</ele>
        <time>2026-08-14T03:04:22.000Z</time>
      </trkpt>
      <trkpt lat="22.799297" lon="108.578479">
        <ele>72.048862</ele>
        <time>2026-08-14T03:04:23.000Z</time>
      </trkpt>
      <trkpt lat="22.799299" lon="108.578531">
        <ele>72.018004</ele>
        <time>2026-08-14T03:04:24.000Z</time>
      </trkpt>
      <trkpt lat="22.799302" lon="108.578585">
        <ele>71.985928</ele>
        <time>2026-08-14T03:04:25.000Z</time>
      </trkpt>
      <trkpt lat="22.799304" lon="108.578641">
        <ele>71.952699</ele>
        <time>2026-08-14T03:04:26.000Z</time>
      </trkpt>
      <trkpt lat="22.799306" lon="108.578698">
        <ele>71.918878</ele>
        <time>2026-08-14T03:04:27.000Z</time>
      </trkpt>
      <trkpt lat="22.799310" lon="108.578754">
        <ele>71.885575</ele>
        <time>2026-08-14T03:04:28.000Z</time>
      </trkpt>
      <trkpt lat="22.799313" lon="108.578811">
        <ele>71.851724</ele>
        <time>2026-08-14T03:04:29.000Z</time>
      </trkpt>
      <trkpt lat="22.799316" lon="108.578869">
        <ele>71.817280</ele>
        <time>2026-08-14T03:04:30.000Z</time>
      </trkpt>
      <trkpt lat="22.799318" lon="108.578928">
        <ele>71.782274</ele>
        <time>2026-08-14T03:04:31.000Z</time>
      </trkpt>
      <trkpt lat="22.799322" lon="108.578986">
        <ele>71.747789</ele>
        <time>2026-08-14T03:04:32.000Z</time>
      </trkpt>
      <trkpt lat="22.799327" lon="108.579046">
        <ele>71.712069</ele>
        <time>2026-08-14T03:04:33.000Z</time>
      </trkpt>
      <trkpt lat="22.799330" lon="108.579107">
        <ele>71.675849</ele>
        <time>2026-08-14T03:04:34.000Z</time>
      </trkpt>
      <trkpt lat="22.799333" lon="108.579170">
        <ele>71.638445</ele>
        <time>2026-08-14T03:04:35.000Z</time>
      </trkpt>
      <trkpt lat="22.799336" lon="108.579236">
        <ele>71.599265</ele>
        <time>2026-08-14T03:04:36.000Z</time>
      </trkpt>
      <trkpt lat="22.799339" lon="108.579303">
        <ele>71.559493</ele>
        <time>2026-08-14T03:04:37.000Z</time>
      </trkpt>
      <trkpt lat="22.799342" lon="108.579372">
        <ele>71.518536</ele>
        <time>2026-08-14T03:04:38.000Z</time>
      </trkpt>
      <trkpt lat="22.799345" lon="108.579444">
        <ele>71.475802</ele>
        <time>2026-08-14T03:04:39.000Z</time>
      </trkpt>
      <trkpt lat="22.799349" lon="108.579517">
        <ele>71.421174</ele>
        <time>2026-08-14T03:04:40.000Z</time>
      </trkpt>
      <trkpt lat="22.799353" lon="108.579590">
        <ele>71.284803</ele>
        <time>2026-08-14T03:04:41.000Z</time>
      </trkpt>
      <trkpt lat="22.799356" lon="108.579662">
        <ele>71.150400</ele>
        <time>2026-08-14T03:04:42.000Z</time>
      </trkpt>
      <trkpt lat="22.799359" lon="108.579736">
        <ele>71.012272</ele>
        <time>2026-08-14T03:04:43.000Z</time>
      </trkpt>
      <trkpt lat="22.799360" lon="108.579810">
        <ele>70.874262</ele>
        <time>2026-08-14T03:04:44.000Z</time>
      </trkpt>
      <trkpt lat="22.799362" lon="108.579886">
        <ele>70.732479</ele>
        <time>2026-08-14T03:04:45.000Z</time>
      </trkpt>
      <trkpt lat="22.799364" lon="108.579961">
        <ele>70.592561</ele>
        <time>2026-08-14T03:04:46.000Z</time>
      </trkpt>
      <trkpt lat="22.799367" lon="108.580038">
        <ele>70.448843</ele>
        <time>2026-08-14T03:04:47.000Z</time>
      </trkpt>
      <trkpt lat="22.799369" lon="108.580115">
        <ele>70.305197</ele>
        <time>2026-08-14T03:04:48.000Z</time>
      </trkpt>
      <trkpt lat="22.799369" lon="108.580191">
        <ele>70.163472</ele>
        <time>2026-08-14T03:04:49.000Z</time>
      </trkpt>
      <trkpt lat="22.799369" lon="108.580265">
        <ele>70.025477</ele>
        <time>2026-08-14T03:04:50.000Z</time>
      </trkpt>
      <trkpt lat="22.799369" lon="108.580340">
        <ele>69.885617</ele>
        <time>2026-08-14T03:04:51.000Z</time>
      </trkpt>
      <trkpt lat="22.799368" lon="108.580417">
        <ele>69.742013</ele>
        <time>2026-08-14T03:04:52.000Z</time>
      </trkpt>
      <trkpt lat="22.799366" lon="108.580495">
        <ele>69.596502</ele>
        <time>2026-08-14T03:04:53.000Z</time>
      </trkpt>
      <trkpt lat="22.799363" lon="108.580574">
        <ele>69.449058</ele>
        <time>2026-08-14T03:04:54.000Z</time>
      </trkpt>
      <trkpt lat="22.799361" lon="108.580653">
        <ele>69.301683</ele>
        <time>2026-08-14T03:04:55.000Z</time>
      </trkpt>
      <trkpt lat="22.799358" lon="108.580732">
        <ele>69.154239</ele>
        <time>2026-08-14T03:04:56.000Z</time>
      </trkpt>
      <trkpt lat="22.799355" lon="108.580810">
        <ele>69.008658</ele>
        <time>2026-08-14T03:04:57.000Z</time>
      </trkpt>
      <trkpt lat="22.799350" lon="108.580888">
        <ele>68.862853</ele>
        <time>2026-08-14T03:04:58.000Z</time>
      </trkpt>
      <trkpt lat="22.799343" lon="108.580966">
        <ele>68.716711</ele>
        <time>2026-08-14T03:04:59.000Z</time>
      </trkpt>
      <trkpt lat="22.799337" lon="108.581043">
        <ele>68.572609</ele>
        <time>2026-08-14T03:05:00.000Z</time>
      </trkpt>
      <trkpt lat="22.799333" lon="108.581122">
        <ele>68.425068</ele>
        <time>2026-08-14T03:05:01.000Z</time>
      </trkpt>
      <trkpt lat="22.799330" lon="108.581198">
        <ele>68.283213</ele>
        <time>2026-08-14T03:05:02.000Z</time>
      </trkpt>
      <trkpt lat="22.799324" lon="108.581274">
        <ele>68.140970</ele>
        <time>2026-08-14T03:05:03.000Z</time>
      </trkpt>
      <trkpt lat="22.799316" lon="108.581351">
        <ele>67.996471</ele>
        <time>2026-08-14T03:05:04.000Z</time>
      </trkpt>
      <trkpt lat="22.799308" lon="108.581430">
        <ele>67.848266</ele>
        <time>2026-08-14T03:05:05.000Z</time>
      </trkpt>
      <trkpt lat="22.799301" lon="108.581507">
        <ele>67.744978</ele>
        <time>2026-08-14T03:05:06.000Z</time>
      </trkpt>
      <trkpt lat="22.799293" lon="108.581584">
        <ele>67.662623</ele>
        <time>2026-08-14T03:05:07.000Z</time>
      </trkpt>
      <trkpt lat="22.799285" lon="108.581660">
        <ele>67.581324</ele>
        <time>2026-08-14T03:05:08.000Z</time>
      </trkpt>
      <trkpt lat="22.799277" lon="108.581737">
        <ele>67.498970</ele>
        <time>2026-08-14T03:05:09.000Z</time>
      </trkpt>
      <trkpt lat="22.799268" lon="108.581813">
        <ele>67.417532</ele>
        <time>2026-08-14T03:05:10.000Z</time>
      </trkpt>
      <trkpt lat="22.799258" lon="108.581889">
        <ele>67.335939</ele>
        <time>2026-08-14T03:05:11.000Z</time>
      </trkpt>
      <trkpt lat="22.799248" lon="108.581964">
        <ele>67.255399</ele>
        <time>2026-08-14T03:05:12.000Z</time>
      </trkpt>
      <trkpt lat="22.799237" lon="108.582040">
        <ele>67.173636</ele>
        <time>2026-08-14T03:05:13.000Z</time>
      </trkpt>
      <trkpt lat="22.799226" lon="108.582116">
        <ele>67.091872</ele>
        <time>2026-08-14T03:05:14.000Z</time>
      </trkpt>
      <trkpt lat="22.799215" lon="108.582192">
        <ele>67.010109</ele>
        <time>2026-08-14T03:05:15.000Z</time>
      </trkpt>
      <trkpt lat="22.799204" lon="108.582267">
        <ele>66.929395</ele>
        <time>2026-08-14T03:05:16.000Z</time>
      </trkpt>
      <trkpt lat="22.799191" lon="108.582342">
        <ele>66.848287</ele>
        <time>2026-08-14T03:05:17.000Z</time>
      </trkpt>
      <trkpt lat="22.799178" lon="108.582416">
        <ele>66.768224</ele>
        <time>2026-08-14T03:05:18.000Z</time>
      </trkpt>
      <trkpt lat="22.799166" lon="108.582493">
        <ele>66.685226</ele>
        <time>2026-08-14T03:05:19.000Z</time>
      </trkpt>
      <trkpt lat="22.799155" lon="108.582570">
        <ele>66.602412</ele>
        <time>2026-08-14T03:05:20.000Z</time>
      </trkpt>
      <trkpt lat="22.799143" lon="108.582653">
        <ele>66.513120</ele>
        <time>2026-08-14T03:05:21.000Z</time>
      </trkpt>
      <trkpt lat="22.799131" lon="108.582731">
        <ele>66.429074</ele>
        <time>2026-08-14T03:05:22.000Z</time>
      </trkpt>
      <trkpt lat="22.799120" lon="108.582810">
        <ele>66.344160</ele>
        <time>2026-08-14T03:05:23.000Z</time>
      </trkpt>
      <trkpt lat="22.799107" lon="108.582889">
        <ele>66.258870</ele>
        <time>2026-08-14T03:05:24.000Z</time>
      </trkpt>
      <trkpt lat="22.799096" lon="108.582966">
        <ele>66.176056</ele>
        <time>2026-08-14T03:05:25.000Z</time>
      </trkpt>
      <trkpt lat="22.799083" lon="108.583044">
        <ele>66.091813</ele>
        <time>2026-08-14T03:05:26.000Z</time>
      </trkpt>
      <trkpt lat="22.799070" lon="108.583123">
        <ele>66.006523</ele>
        <time>2026-08-14T03:05:27.000Z</time>
      </trkpt>
      <trkpt lat="22.799058" lon="108.583201">
        <ele>65.922477</ele>
        <time>2026-08-14T03:05:28.000Z</time>
      </trkpt>
      <trkpt lat="22.799045" lon="108.583279">
        <ele>65.838233</ele>
        <time>2026-08-14T03:05:29.000Z</time>
      </trkpt>
      <trkpt lat="22.799033" lon="108.583355">
        <ele>65.756283</ele>
        <time>2026-08-14T03:05:30.000Z</time>
      </trkpt>
      <trkpt lat="22.799023" lon="108.583430">
        <ele>65.686034</ele>
        <time>2026-08-14T03:05:31.000Z</time>
      </trkpt>
      <trkpt lat="22.799013" lon="108.583504">
        <ele>65.622931</ele>
        <time>2026-08-14T03:05:32.000Z</time>
      </trkpt>
      <trkpt lat="22.799002" lon="108.583579">
        <ele>65.558855</ele>
        <time>2026-08-14T03:05:33.000Z</time>
      </trkpt>
      <trkpt lat="22.798991" lon="108.583656">
        <ele>65.493112</ele>
        <time>2026-08-14T03:05:34.000Z</time>
      </trkpt>
      <trkpt lat="22.798983" lon="108.583732">
        <ele>65.428571</ele>
        <time>2026-08-14T03:05:35.000Z</time>
      </trkpt>
      <trkpt lat="22.798976" lon="108.583807">
        <ele>65.364968</ele>
        <time>2026-08-14T03:05:36.000Z</time>
      </trkpt>
      <trkpt lat="22.798970" lon="108.583882">
        <ele>65.301450</ele>
        <time>2026-08-14T03:05:37.000Z</time>
      </trkpt>
      <trkpt lat="22.798964" lon="108.583958">
        <ele>65.237091</ele>
        <time>2026-08-14T03:05:38.000Z</time>
      </trkpt>
      <trkpt lat="22.798959" lon="108.584035">
        <ele>65.171963</ele>
        <time>2026-08-14T03:05:39.000Z</time>
      </trkpt>
      <trkpt lat="22.798954" lon="108.584113">
        <ele>65.105993</ele>
        <time>2026-08-14T03:05:40.000Z</time>
      </trkpt>
      <trkpt lat="22.798951" lon="108.584187">
        <ele>65.043496</ele>
        <time>2026-08-14T03:05:41.000Z</time>
      </trkpt>
      <trkpt lat="22.798947" lon="108.584263">
        <ele>64.979268</ele>
        <time>2026-08-14T03:05:42.000Z</time>
      </trkpt>
      <trkpt lat="22.798945" lon="108.584338">
        <ele>64.915961</ele>
        <time>2026-08-14T03:05:43.000Z</time>
      </trkpt>
      <trkpt lat="22.798945" lon="108.584414">
        <ele>64.851837</ele>
        <time>2026-08-14T03:05:44.000Z</time>
      </trkpt>
      <trkpt lat="22.798944" lon="108.584491">
        <ele>64.786863</ele>
        <time>2026-08-14T03:05:45.000Z</time>
      </trkpt>
      <trkpt lat="22.798943" lon="108.584568">
        <ele>64.721890</ele>
        <time>2026-08-14T03:05:46.000Z</time>
      </trkpt>
      <trkpt lat="22.798944" lon="108.584643">
        <ele>64.658603</ele>
        <time>2026-08-14T03:05:47.000Z</time>
      </trkpt>
      <trkpt lat="22.798946" lon="108.584718">
        <ele>64.595296</ele>
        <time>2026-08-14T03:05:48.000Z</time>
      </trkpt>
      <trkpt lat="22.798949" lon="108.584793">
        <ele>64.531957</ele>
        <time>2026-08-14T03:05:49.000Z</time>
      </trkpt>
      <trkpt lat="22.798953" lon="108.584868">
        <ele>64.468571</ele>
        <time>2026-08-14T03:05:50.000Z</time>
      </trkpt>
      <trkpt lat="22.798959" lon="108.584943">
        <ele>64.405053</ele>
        <time>2026-08-14T03:05:51.000Z</time>
      </trkpt>
      <trkpt lat="22.798965" lon="108.585017">
        <ele>64.342376</ele>
        <time>2026-08-14T03:05:52.000Z</time>
      </trkpt>
      <trkpt lat="22.798971" lon="108.585090">
        <ele>64.280539</ele>
        <time>2026-08-14T03:05:53.000Z</time>
      </trkpt>
      <trkpt lat="22.798979" lon="108.585162">
        <ele>64.219350</ele>
        <time>2026-08-14T03:05:54.000Z</time>
      </trkpt>
      <trkpt lat="22.798988" lon="108.585235">
        <ele>64.157209</ele>
        <time>2026-08-14T03:05:55.000Z</time>
      </trkpt>
      <trkpt lat="22.798997" lon="108.585309">
        <ele>64.094232</ele>
        <time>2026-08-14T03:05:56.000Z</time>
      </trkpt>
      <trkpt lat="22.799008" lon="108.585382">
        <ele>64.048281</ele>
        <time>2026-08-14T03:05:57.000Z</time>
      </trkpt>
      <trkpt lat="22.799016" lon="108.585456">
        <ele>64.007131</ele>
        <time>2026-08-14T03:05:58.000Z</time>
      </trkpt>
      <trkpt lat="22.799026" lon="108.585529">
        <ele>63.966369</ele>
        <time>2026-08-14T03:05:59.000Z</time>
      </trkpt>
      <trkpt lat="22.799038" lon="108.585599">
        <ele>63.927045</ele>
        <time>2026-08-14T03:06:00.000Z</time>
      </trkpt>
      <trkpt lat="22.799050" lon="108.585669">
        <ele>63.887721</ele>
        <time>2026-08-14T03:06:01.000Z</time>
      </trkpt>
      <trkpt lat="22.799062" lon="108.585739">
        <ele>63.848396</ele>
        <time>2026-08-14T03:06:02.000Z</time>
      </trkpt>
      <trkpt lat="22.799075" lon="108.585807">
        <ele>63.810040</ele>
        <time>2026-08-14T03:06:03.000Z</time>
      </trkpt>
      <trkpt lat="22.799089" lon="108.585874">
        <ele>63.772097</ele>
        <time>2026-08-14T03:06:04.000Z</time>
      </trkpt>
      <trkpt lat="22.799104" lon="108.585940">
        <ele>63.734553</ele>
        <time>2026-08-14T03:06:05.000Z</time>
      </trkpt>
      <trkpt lat="22.799121" lon="108.586007">
        <ele>63.696173</ele>
        <time>2026-08-14T03:06:06.000Z</time>
      </trkpt>
      <trkpt lat="22.799136" lon="108.586072">
        <ele>63.659165</ele>
        <time>2026-08-14T03:06:07.000Z</time>
      </trkpt>
      <trkpt lat="22.799151" lon="108.586138">
        <ele>63.621621</ele>
        <time>2026-08-14T03:06:08.000Z</time>
      </trkpt>
      <trkpt lat="22.799167" lon="108.586206">
        <ele>63.582860</ele>
        <time>2026-08-14T03:06:09.000Z</time>
      </trkpt>
      <trkpt lat="22.799185" lon="108.586274">
        <ele>63.543786</ele>
        <time>2026-08-14T03:06:10.000Z</time>
      </trkpt>
      <trkpt lat="22.799205" lon="108.586340">
        <ele>63.505415</ele>
        <time>2026-08-14T03:06:11.000Z</time>
      </trkpt>
      <trkpt lat="22.799226" lon="108.586405">
        <ele>63.467374</ele>
        <time>2026-08-14T03:06:12.000Z</time>
      </trkpt>
      <trkpt lat="22.799248" lon="108.586472">
        <ele>63.428092</ele>
        <time>2026-08-14T03:06:13.000Z</time>
      </trkpt>
      <trkpt lat="22.799268" lon="108.586538">
        <ele>63.389721</ele>
        <time>2026-08-14T03:06:14.000Z</time>
      </trkpt>
      <trkpt lat="22.799286" lon="108.586603">
        <ele>63.352236</ele>
        <time>2026-08-14T03:06:15.000Z</time>
      </trkpt>
      <trkpt lat="22.799306" lon="108.586669">
        <ele>63.313865</ele>
        <time>2026-08-14T03:06:16.000Z</time>
      </trkpt>
      <trkpt lat="22.799327" lon="108.586734">
        <ele>63.275824</ele>
        <time>2026-08-14T03:06:17.000Z</time>
      </trkpt>
      <trkpt lat="22.799348" lon="108.586798">
        <ele>63.238304</ele>
        <time>2026-08-14T03:06:18.000Z</time>
      </trkpt>
      <trkpt lat="22.799368" lon="108.586863">
        <ele>63.200457</ele>
        <time>2026-08-14T03:06:19.000Z</time>
      </trkpt>
      <trkpt lat="22.799388" lon="108.586927">
        <ele>63.163134</ele>
        <time>2026-08-14T03:06:20.000Z</time>
      </trkpt>
      <trkpt lat="22.799409" lon="108.586990">
        <ele>63.126134</ele>
        <time>2026-08-14T03:06:21.000Z</time>
      </trkpt>
      <trkpt lat="22.799431" lon="108.587054">
        <ele>63.088409</ele>
        <time>2026-08-14T03:06:22.000Z</time>
      </trkpt>
      <trkpt lat="22.799452" lon="108.587118">
        <ele>63.050889</ele>
        <time>2026-08-14T03:06:23.000Z</time>
      </trkpt>
      <trkpt lat="22.799473" lon="108.587183">
        <ele>63.012848</ele>
        <time>2026-08-14T03:06:24.000Z</time>
      </trkpt>
      <trkpt lat="22.799493" lon="108.587247">
        <ele>62.978433</ele>
        <time>2026-08-14T03:06:25.000Z</time>
      </trkpt>
      <trkpt lat="22.799514" lon="108.587311">
        <ele>62.945055</ele>
        <time>2026-08-14T03:06:26.000Z</time>
      </trkpt>
      <trkpt lat="22.799534" lon="108.587375">
        <ele>62.911851</ele>
        <time>2026-08-14T03:06:27.000Z</time>
      </trkpt>
      <trkpt lat="22.799553" lon="108.587440">
        <ele>62.878346</ele>
        <time>2026-08-14T03:06:28.000Z</time>
      </trkpt>
      <trkpt lat="22.799575" lon="108.587504">
        <ele>62.844785</ele>
        <time>2026-08-14T03:06:29.000Z</time>
      </trkpt>
      <trkpt lat="22.799597" lon="108.587569">
        <ele>62.810762</ele>
        <time>2026-08-14T03:06:30.000Z</time>
      </trkpt>
      <trkpt lat="22.799618" lon="108.587633">
        <ele>62.777383</ele>
        <time>2026-08-14T03:06:31.000Z</time>
      </trkpt>
      <trkpt lat="22.799640" lon="108.587699">
        <ele>62.742900</ele>
        <time>2026-08-14T03:06:32.000Z</time>
      </trkpt>
      <trkpt lat="22.799663" lon="108.587764">
        <ele>62.708690</ele>
        <time>2026-08-14T03:06:33.000Z</time>
      </trkpt>
      <trkpt lat="22.799683" lon="108.587830">
        <ele>62.674554</ele>
        <time>2026-08-14T03:06:34.000Z</time>
      </trkpt>
      <trkpt lat="22.799704" lon="108.587895">
        <ele>62.640712</ele>
        <time>2026-08-14T03:06:35.000Z</time>
      </trkpt>
      <trkpt lat="22.799725" lon="108.587959">
        <ele>62.607333</ele>
        <time>2026-08-14T03:06:36.000Z</time>
      </trkpt>
      <trkpt lat="22.799747" lon="108.588024">
        <ele>62.573311</ele>
        <time>2026-08-14T03:06:37.000Z</time>
      </trkpt>
      <trkpt lat="22.799769" lon="108.588088">
        <ele>62.539750</ele>
        <time>2026-08-14T03:06:38.000Z</time>
      </trkpt>
      <trkpt lat="22.799791" lon="108.588153">
        <ele>62.505727</ele>
        <time>2026-08-14T03:06:39.000Z</time>
      </trkpt>
      <trkpt lat="22.799813" lon="108.588219">
        <ele>62.471244</ele>
        <time>2026-08-14T03:06:40.000Z</time>
      </trkpt>
      <trkpt lat="22.799835" lon="108.588285">
        <ele>62.436760</ele>
        <time>2026-08-14T03:06:41.000Z</time>
      </trkpt>
      <trkpt lat="22.799857" lon="108.588352">
        <ele>62.401814</ele>
        <time>2026-08-14T03:06:42.000Z</time>
      </trkpt>
      <trkpt lat="22.799879" lon="108.588418">
        <ele>62.367330</ele>
        <time>2026-08-14T03:06:43.000Z</time>
      </trkpt>
      <trkpt lat="22.799900" lon="108.588485">
        <ele>62.332559</ele>
        <time>2026-08-14T03:06:44.000Z</time>
      </trkpt>
      <trkpt lat="22.799922" lon="108.588550">
        <ele>62.298537</ele>
        <time>2026-08-14T03:06:45.000Z</time>
      </trkpt>
      <trkpt lat="22.799944" lon="108.588615">
        <ele>62.264515</ele>
        <time>2026-08-14T03:06:46.000Z</time>
      </trkpt>
      <trkpt lat="22.799966" lon="108.588679">
        <ele>62.230953</ele>
        <time>2026-08-14T03:06:47.000Z</time>
      </trkpt>
      <trkpt lat="22.799987" lon="108.588744">
        <ele>62.197111</ele>
        <time>2026-08-14T03:06:48.000Z</time>
      </trkpt>
      <trkpt lat="22.800008" lon="108.588809">
        <ele>62.163269</ele>
        <time>2026-08-14T03:06:49.000Z</time>
      </trkpt>
      <trkpt lat="22.800029" lon="108.588875">
        <ele>62.128963</ele>
        <time>2026-08-14T03:06:50.000Z</time>
      </trkpt>
      <trkpt lat="22.800050" lon="108.588939">
        <ele>62.095584</ele>
        <time>2026-08-14T03:06:51.000Z</time>
      </trkpt>
      <trkpt lat="22.800071" lon="108.589003">
        <ele>62.062206</ele>
        <time>2026-08-14T03:06:52.000Z</time>
      </trkpt>
      <trkpt lat="22.800091" lon="108.589067">
        <ele>62.030733</ele>
        <time>2026-08-14T03:06:53.000Z</time>
      </trkpt>
      <trkpt lat="22.800112" lon="108.589131">
        <ele>62.001420</ele>
        <time>2026-08-14T03:06:54.000Z</time>
      </trkpt>
      <trkpt lat="22.800132" lon="108.589196">
        <ele>61.971852</ele>
        <time>2026-08-14T03:06:55.000Z</time>
      </trkpt>
      <trkpt lat="22.800152" lon="108.589261">
        <ele>61.942285</ele>
        <time>2026-08-14T03:06:56.000Z</time>
      </trkpt>
      <trkpt lat="22.800172" lon="108.589324">
        <ele>61.913534</ele>
        <time>2026-08-14T03:06:57.000Z</time>
      </trkpt>
      <trkpt lat="22.800192" lon="108.589388">
        <ele>61.884375</ele>
        <time>2026-08-14T03:06:58.000Z</time>
      </trkpt>
      <trkpt lat="22.800212" lon="108.589450">
        <ele>61.856032</ele>
        <time>2026-08-14T03:06:59.000Z</time>
      </trkpt>
      <trkpt lat="22.800232" lon="108.589512">
        <ele>61.827689</ele>
        <time>2026-08-14T03:07:00.000Z</time>
      </trkpt>
      <trkpt lat="22.800255" lon="108.589576">
        <ele>61.798050</ele>
        <time>2026-08-14T03:07:01.000Z</time>
      </trkpt>
      <trkpt lat="22.800274" lon="108.589637">
        <ele>61.770267</ele>
        <time>2026-08-14T03:07:02.000Z</time>
      </trkpt>
      <trkpt lat="22.800294" lon="108.589698">
        <ele>61.742331</ele>
        <time>2026-08-14T03:07:03.000Z</time>
      </trkpt>
      <trkpt lat="22.800313" lon="108.589763">
        <ele>61.712908</ele>
        <time>2026-08-14T03:07:04.000Z</time>
      </trkpt>
      <trkpt lat="22.800330" lon="108.589826">
        <ele>61.684583</ele>
        <time>2026-08-14T03:07:05.000Z</time>
      </trkpt>
      <trkpt lat="22.800347" lon="108.589885">
        <ele>61.657911</ele>
        <time>2026-08-14T03:07:06.000Z</time>
      </trkpt>
      <trkpt lat="22.800368" lon="108.589948">
        <ele>61.629005</ele>
        <time>2026-08-14T03:07:07.000Z</time>
      </trkpt>
      <trkpt lat="22.800390" lon="108.590012">
        <ele>61.599532</ele>
        <time>2026-08-14T03:07:08.000Z</time>
      </trkpt>
      <trkpt lat="22.800412" lon="108.590077">
        <ele>61.569654</ele>
        <time>2026-08-14T03:07:09.000Z</time>
      </trkpt>
      <trkpt lat="22.800432" lon="108.590141">
        <ele>61.540495</ele>
        <time>2026-08-14T03:07:10.000Z</time>
      </trkpt>
      <trkpt lat="22.800455" lon="108.590203">
        <ele>61.511658</ele>
        <time>2026-08-14T03:07:11.000Z</time>
      </trkpt>
      <trkpt lat="22.800477" lon="108.590267">
        <ele>61.482186</ele>
        <time>2026-08-14T03:07:12.000Z</time>
      </trkpt>
      <trkpt lat="22.800499" lon="108.590330">
        <ele>61.453117</ele>
        <time>2026-08-14T03:07:13.000Z</time>
      </trkpt>
      <trkpt lat="22.800521" lon="108.590392">
        <ele>61.424451</ele>
        <time>2026-08-14T03:07:14.000Z</time>
      </trkpt>
      <trkpt lat="22.800544" lon="108.590456">
        <ele>61.394811</ele>
        <time>2026-08-14T03:07:15.000Z</time>
      </trkpt>
      <trkpt lat="22.800567" lon="108.590520">
        <ele>61.365172</ele>
        <time>2026-08-14T03:07:16.000Z</time>
      </trkpt>
      <trkpt lat="22.800587" lon="108.590583">
        <ele>61.336421</ele>
        <time>2026-08-14T03:07:17.000Z</time>
      </trkpt>
      <trkpt lat="22.800608" lon="108.590649">
        <ele>61.306295</ele>
        <time>2026-08-14T03:07:18.000Z</time>
      </trkpt>
      <trkpt lat="22.800628" lon="108.590712">
        <ele>61.277544</ele>
        <time>2026-08-14T03:07:19.000Z</time>
      </trkpt>
      <trkpt lat="22.800647" lon="108.590776">
        <ele>61.248532</ele>
        <time>2026-08-14T03:07:20.000Z</time>
      </trkpt>
      <trkpt lat="22.800665" lon="108.590838">
        <ele>61.220485</ele>
        <time>2026-08-14T03:07:21.000Z</time>
      </trkpt>
      <trkpt lat="22.800685" lon="108.590901">
        <ele>61.182730</ele>
        <time>2026-08-14T03:07:22.000Z</time>
      </trkpt>
      <trkpt lat="22.800704" lon="108.590963">
        <ele>61.128095</ele>
        <time>2026-08-14T03:07:23.000Z</time>
      </trkpt>
      <trkpt lat="22.800723" lon="108.591026">
        <ele>61.072666</ele>
        <time>2026-08-14T03:07:24.000Z</time>
      </trkpt>
      <trkpt lat="22.800741" lon="108.591087">
        <ele>61.019107</ele>
        <time>2026-08-14T03:07:25.000Z</time>
      </trkpt>
      <trkpt lat="22.800760" lon="108.591147">
        <ele>60.966056</ele>
        <time>2026-08-14T03:07:26.000Z</time>
      </trkpt>
      <trkpt lat="22.800780" lon="108.591207">
        <ele>60.912703</ele>
        <time>2026-08-14T03:07:27.000Z</time>
      </trkpt>
      <trkpt lat="22.800800" lon="108.591267">
        <ele>60.859351</ele>
        <time>2026-08-14T03:07:28.000Z</time>
      </trkpt>
      <trkpt lat="22.800819" lon="108.591326">
        <ele>60.807090</ele>
        <time>2026-08-14T03:07:29.000Z</time>
      </trkpt>
      <trkpt lat="22.800840" lon="108.591388">
        <ele>60.751856</ele>
        <time>2026-08-14T03:07:30.000Z</time>
      </trkpt>
      <trkpt lat="22.800860" lon="108.591449">
        <ele>60.697716</ele>
        <time>2026-08-14T03:07:31.000Z</time>
      </trkpt>
      <trkpt lat="22.800879" lon="108.591510">
        <ele>60.643874</ele>
        <time>2026-08-14T03:07:32.000Z</time>
      </trkpt>
      <trkpt lat="22.800897" lon="108.591568">
        <ele>60.592699</ele>
        <time>2026-08-14T03:07:33.000Z</time>
      </trkpt>
      <trkpt lat="22.800916" lon="108.591628">
        <ele>60.539648</ele>
        <time>2026-08-14T03:07:34.000Z</time>
      </trkpt>
      <trkpt lat="22.800937" lon="108.591690">
        <ele>60.484414</ele>
        <time>2026-08-14T03:07:35.000Z</time>
      </trkpt>
      <trkpt lat="22.800957" lon="108.591752">
        <ele>60.429486</ele>
        <time>2026-08-14T03:07:36.000Z</time>
      </trkpt>
      <trkpt lat="22.800979" lon="108.591816">
        <ele>60.372368</ele>
        <time>2026-08-14T03:07:37.000Z</time>
      </trkpt>
      <trkpt lat="22.801002" lon="108.591879">
        <ele>60.315705</ele>
        <time>2026-08-14T03:07:38.000Z</time>
      </trkpt>
      <trkpt lat="22.801025" lon="108.591941">
        <ele>60.259819</ele>
        <time>2026-08-14T03:07:39.000Z</time>
      </trkpt>
      <trkpt lat="22.801046" lon="108.592004">
        <ele>60.203800</ele>
        <time>2026-08-14T03:07:40.000Z</time>
      </trkpt>
      <trkpt lat="22.801067" lon="108.592068">
        <ele>60.146993</ele>
        <time>2026-08-14T03:07:41.000Z</time>
      </trkpt>
      <trkpt lat="22.801090" lon="108.592139">
        <ele>60.084062</ele>
        <time>2026-08-14T03:07:42.000Z</time>
      </trkpt>
      <trkpt lat="22.801111" lon="108.592207">
        <ele>60.024093</ele>
        <time>2026-08-14T03:07:43.000Z</time>
      </trkpt>
      <trkpt lat="22.801131" lon="108.592278">
        <ele>59.962012</ele>
        <time>2026-08-14T03:07:44.000Z</time>
      </trkpt>
      <trkpt lat="22.801151" lon="108.592346">
        <ele>59.902325</ele>
        <time>2026-08-14T03:07:45.000Z</time>
      </trkpt>
      <trkpt lat="22.801172" lon="108.592412">
        <ele>59.843940</ele>
        <time>2026-08-14T03:07:46.000Z</time>
      </trkpt>
      <trkpt lat="22.801190" lon="108.592477">
        <ele>59.787186</ele>
        <time>2026-08-14T03:07:47.000Z</time>
      </trkpt>
      <trkpt lat="22.801212" lon="108.592544">
        <ele>59.727712</ele>
        <time>2026-08-14T03:07:48.000Z</time>
      </trkpt>
      <trkpt lat="22.801236" lon="108.592610">
        <ele>59.668383</ele>
        <time>2026-08-14T03:07:49.000Z</time>
      </trkpt>
      <trkpt lat="22.801260" lon="108.592678">
        <ele>59.607495</ele>
        <time>2026-08-14T03:07:50.000Z</time>
      </trkpt>
      <trkpt lat="22.801283" lon="108.592745">
        <ele>59.532113</ele>
        <time>2026-08-14T03:07:51.000Z</time>
      </trkpt>
      <trkpt lat="22.801304" lon="108.592814">
        <ele>59.428410</ele>
        <time>2026-08-14T03:07:52.000Z</time>
      </trkpt>
      <trkpt lat="22.801326" lon="108.592883">
        <ele>59.324211</ele>
        <time>2026-08-14T03:07:53.000Z</time>
      </trkpt>
      <trkpt lat="22.801350" lon="108.592952">
        <ele>59.218960</ele>
        <time>2026-08-14T03:07:54.000Z</time>
      </trkpt>
      <trkpt lat="22.801373" lon="108.593022">
        <ele>59.112902</ele>
        <time>2026-08-14T03:07:55.000Z</time>
      </trkpt>
      <trkpt lat="22.801395" lon="108.593092">
        <ele>59.007353</ele>
        <time>2026-08-14T03:07:56.000Z</time>
      </trkpt>
      <trkpt lat="22.801418" lon="108.593163">
        <ele>58.899949</ele>
        <time>2026-08-14T03:07:57.000Z</time>
      </trkpt>
      <trkpt lat="22.801442" lon="108.593232">
        <ele>58.794698</ele>
        <time>2026-08-14T03:07:58.000Z</time>
      </trkpt>
      <trkpt lat="22.801466" lon="108.593303">
        <ele>58.686771</ele>
        <time>2026-08-14T03:07:59.000Z</time>
      </trkpt>
      <trkpt lat="22.801489" lon="108.593373">
        <ele>58.580713</ele>
        <time>2026-08-14T03:08:00.000Z</time>
      </trkpt>
      <trkpt lat="22.801512" lon="108.593444">
        <ele>58.473309</ele>
        <time>2026-08-14T03:08:01.000Z</time>
      </trkpt>
      <trkpt lat="22.801534" lon="108.593516">
        <ele>58.365055</ele>
        <time>2026-08-14T03:08:02.000Z</time>
      </trkpt>
      <trkpt lat="22.801557" lon="108.593589">
        <ele>58.254955</ele>
        <time>2026-08-14T03:08:03.000Z</time>
      </trkpt>
      <trkpt lat="22.801581" lon="108.593660">
        <ele>58.147028</ele>
        <time>2026-08-14T03:08:04.000Z</time>
      </trkpt>
      <trkpt lat="22.801606" lon="108.593732">
        <ele>58.037224</ele>
        <time>2026-08-14T03:08:05.000Z</time>
      </trkpt>
      <trkpt lat="22.801630" lon="108.593804">
        <ele>57.927957</ele>
        <time>2026-08-14T03:08:06.000Z</time>
      </trkpt>
      <trkpt lat="22.801653" lon="108.593876">
        <ele>57.819206</ele>
        <time>2026-08-14T03:08:07.000Z</time>
      </trkpt>
      <trkpt lat="22.801676" lon="108.593948">
        <ele>57.710455</ele>
        <time>2026-08-14T03:08:08.000Z</time>
      </trkpt>
      <trkpt lat="22.801701" lon="108.594021">
        <ele>57.599314</ele>
        <time>2026-08-14T03:08:09.000Z</time>
      </trkpt>
      <trkpt lat="22.801725" lon="108.594094">
        <ele>57.488703</ele>
        <time>2026-08-14T03:08:10.000Z</time>
      </trkpt>
      <trkpt lat="22.801749" lon="108.594166">
        <ele>57.379436</ele>
        <time>2026-08-14T03:08:11.000Z</time>
      </trkpt>
      <trkpt lat="22.801773" lon="108.594241">
        <ele>57.266133</ele>
        <time>2026-08-14T03:08:12.000Z</time>
      </trkpt>
      <trkpt lat="22.801796" lon="108.594314">
        <ele>57.156032</ele>
        <time>2026-08-14T03:08:13.000Z</time>
      </trkpt>
      <trkpt lat="22.801820" lon="108.594389">
        <ele>57.042729</ele>
        <time>2026-08-14T03:08:14.000Z</time>
      </trkpt>
      <trkpt lat="22.801843" lon="108.594460">
        <ele>56.935326</ele>
        <time>2026-08-14T03:08:15.000Z</time>
      </trkpt>
      <trkpt lat="22.801866" lon="108.594534">
        <ele>56.823874</ele>
        <time>2026-08-14T03:08:16.000Z</time>
      </trkpt>
      <trkpt lat="22.801888" lon="108.594607">
        <ele>56.731837</ele>
        <time>2026-08-14T03:08:17.000Z</time>
      </trkpt>
      <trkpt lat="22.801911" lon="108.594679">
        <ele>56.650027</ele>
        <time>2026-08-14T03:08:18.000Z</time>
      </trkpt>
      <trkpt lat="22.801934" lon="108.594754">
        <ele>56.565167</ele>
        <time>2026-08-14T03:08:19.000Z</time>
      </trkpt>
      <trkpt lat="22.801958" lon="108.594827">
        <ele>56.481959</ele>
        <time>2026-08-14T03:08:20.000Z</time>
      </trkpt>
      <trkpt lat="22.801984" lon="108.594900">
        <ele>56.397939</ele>
        <time>2026-08-14T03:08:21.000Z</time>
      </trkpt>
      <trkpt lat="22.802008" lon="108.594973">
        <ele>56.314730</ele>
        <time>2026-08-14T03:08:22.000Z</time>
      </trkpt>
      <trkpt lat="22.802032" lon="108.595048">
        <ele>56.229495</ele>
        <time>2026-08-14T03:08:23.000Z</time>
      </trkpt>
      <trkpt lat="22.802057" lon="108.595123">
        <ele>56.143872</ele>
        <time>2026-08-14T03:08:24.000Z</time>
      </trkpt>
      <trkpt lat="22.802082" lon="108.595198">
        <ele>56.058249</ele>
        <time>2026-08-14T03:08:25.000Z</time>
      </trkpt>
      <trkpt lat="22.802107" lon="108.595273">
        <ele>55.972626</ele>
        <time>2026-08-14T03:08:26.000Z</time>
      </trkpt>
      <trkpt lat="22.802133" lon="108.595348">
        <ele>55.886599</ele>
        <time>2026-08-14T03:08:27.000Z</time>
      </trkpt>
      <trkpt lat="22.802160" lon="108.595424">
        <ele>55.799155</ele>
        <time>2026-08-14T03:08:28.000Z</time>
      </trkpt>
      <trkpt lat="22.802187" lon="108.595500">
        <ele>55.711711</ele>
        <time>2026-08-14T03:08:29.000Z</time>
      </trkpt>
      <trkpt lat="22.802214" lon="108.595577">
        <ele>55.623265</ele>
        <time>2026-08-14T03:08:30.000Z</time>
      </trkpt>
      <trkpt lat="22.802241" lon="108.595655">
        <ele>55.533814</ele>
        <time>2026-08-14T03:08:31.000Z</time>
      </trkpt>
      <trkpt lat="22.802267" lon="108.595729">
        <ele>55.448792</ele>
        <time>2026-08-14T03:08:32.000Z</time>
      </trkpt>
      <trkpt lat="22.802294" lon="108.595803">
        <ele>55.363348</ele>
        <time>2026-08-14T03:08:33.000Z</time>
      </trkpt>
      <trkpt lat="22.802321" lon="108.595876">
        <ele>55.278901</ele>
        <time>2026-08-14T03:08:34.000Z</time>
      </trkpt>
      <trkpt lat="22.802347" lon="108.595950">
        <ele>55.193879</ele>
        <time>2026-08-14T03:08:35.000Z</time>
      </trkpt>
      <trkpt lat="22.802371" lon="108.596023">
        <ele>55.110671</ele>
        <time>2026-08-14T03:08:36.000Z</time>
      </trkpt>
      <trkpt lat="22.802397" lon="108.596097">
        <ele>55.025649</ele>
        <time>2026-08-14T03:08:37.000Z</time>
      </trkpt>
      <trkpt lat="22.802424" lon="108.596170">
        <ele>54.941202</ele>
        <time>2026-08-14T03:08:38.000Z</time>
      </trkpt>
      <trkpt lat="22.802450" lon="108.596243">
        <ele>54.857183</ele>
        <time>2026-08-14T03:08:39.000Z</time>
      </trkpt>
      <trkpt lat="22.802475" lon="108.596316">
        <ele>54.773576</ele>
        <time>2026-08-14T03:08:40.000Z</time>
      </trkpt>
      <trkpt lat="22.802502" lon="108.596388">
        <ele>54.690477</ele>
        <time>2026-08-14T03:08:41.000Z</time>
      </trkpt>
      <trkpt lat="22.802531" lon="108.596459">
        <ele>54.698819</ele>
        <time>2026-08-14T03:08:42.000Z</time>
      </trkpt>
      <trkpt lat="22.802557" lon="108.596532">
        <ele>54.707226</ele>
        <time>2026-08-14T03:08:43.000Z</time>
      </trkpt>
      <trkpt lat="22.802584" lon="108.596603">
        <ele>54.715476</ele>
        <time>2026-08-14T03:08:44.000Z</time>
      </trkpt>
      <trkpt lat="22.802611" lon="108.596673">
        <ele>54.723628</ele>
        <time>2026-08-14T03:08:45.000Z</time>
      </trkpt>
      <trkpt lat="22.802639" lon="108.596742">
        <ele>54.731726</ele>
        <time>2026-08-14T03:08:46.000Z</time>
      </trkpt>
      <trkpt lat="22.802666" lon="108.596809">
        <ele>54.739581</ele>
        <time>2026-08-14T03:08:47.000Z</time>
      </trkpt>
      <trkpt lat="22.802693" lon="108.596875">
        <ele>54.747338</ele>
        <time>2026-08-14T03:08:48.000Z</time>
      </trkpt>
      <trkpt lat="22.802719" lon="108.596942">
        <ele>54.755147</ele>
        <time>2026-08-14T03:08:49.000Z</time>
      </trkpt>
      <trkpt lat="22.802743" lon="108.597009">
        <ele>54.762869</ele>
        <time>2026-08-14T03:08:50.000Z</time>
      </trkpt>
      <trkpt lat="22.802768" lon="108.597076">
        <ele>54.770633</ele>
        <time>2026-08-14T03:08:51.000Z</time>
      </trkpt>
      <trkpt lat="22.802793" lon="108.597140">
        <ele>54.778100</ele>
        <time>2026-08-14T03:08:52.000Z</time>
      </trkpt>
      <trkpt lat="22.802818" lon="108.597205">
        <ele>54.785666</ele>
        <time>2026-08-14T03:08:53.000Z</time>
      </trkpt>
      <trkpt lat="22.802845" lon="108.597270">
        <ele>54.793325</ele>
        <time>2026-08-14T03:08:54.000Z</time>
      </trkpt>
      <trkpt lat="22.802873" lon="108.597332">
        <ele>54.800741</ele>
        <time>2026-08-14T03:08:55.000Z</time>
      </trkpt>
      <trkpt lat="22.802900" lon="108.597395">
        <ele>54.808204</ele>
        <time>2026-08-14T03:08:56.000Z</time>
      </trkpt>
      <trkpt lat="22.802926" lon="108.597460">
        <ele>54.815816</ele>
        <time>2026-08-14T03:08:57.000Z</time>
      </trkpt>
      <trkpt lat="22.802952" lon="108.597524">
        <ele>54.823329</ele>
        <time>2026-08-14T03:08:58.000Z</time>
      </trkpt>
      <trkpt lat="22.802976" lon="108.597588">
        <ele>54.830751</ele>
        <time>2026-08-14T03:08:59.000Z</time>
      </trkpt>
      <trkpt lat="22.803001" lon="108.597651">
        <ele>54.838119</ele>
        <time>2026-08-14T03:09:00.000Z</time>
      </trkpt>
      <trkpt lat="22.803025" lon="108.597713">
        <ele>54.845343</ele>
        <time>2026-08-14T03:09:01.000Z</time>
      </trkpt>
      <trkpt lat="22.803049" lon="108.597777">
        <ele>54.852765</ele>
        <time>2026-08-14T03:09:02.000Z</time>
      </trkpt>
      <trkpt lat="22.803074" lon="108.597837">
        <ele>54.859838</ele>
        <time>2026-08-14T03:09:03.000Z</time>
      </trkpt>
      <trkpt lat="22.803099" lon="108.597899">
        <ele>54.867107</ele>
        <time>2026-08-14T03:09:04.000Z</time>
      </trkpt>
      <trkpt lat="22.803122" lon="108.597960">
        <ele>54.874187</ele>
        <time>2026-08-14T03:09:05.000Z</time>
      </trkpt>
      <trkpt lat="22.803144" lon="108.598019">
        <ele>54.881024</ele>
        <time>2026-08-14T03:09:06.000Z</time>
      </trkpt>
      <trkpt lat="22.803167" lon="108.598079">
        <ele>54.888004</ele>
        <time>2026-08-14T03:09:07.000Z</time>
      </trkpt>
      <trkpt lat="22.803191" lon="108.598140">
        <ele>54.895129</ele>
        <time>2026-08-14T03:09:08.000Z</time>
      </trkpt>
      <trkpt lat="22.803214" lon="108.598201">
        <ele>54.903911</ele>
        <time>2026-08-14T03:09:09.000Z</time>
      </trkpt>
      <trkpt lat="22.803236" lon="108.598262">
        <ele>54.916474</ele>
        <time>2026-08-14T03:09:10.000Z</time>
      </trkpt>
      <trkpt lat="22.803258" lon="108.598319">
        <ele>54.928326</ele>
        <time>2026-08-14T03:09:11.000Z</time>
      </trkpt>
      <trkpt lat="22.803281" lon="108.598376">
        <ele>54.940260</ele>
        <time>2026-08-14T03:09:12.000Z</time>
      </trkpt>
      <trkpt lat="22.803304" lon="108.598434">
        <ele>54.952369</ele>
        <time>2026-08-14T03:09:13.000Z</time>
      </trkpt>
      <trkpt lat="22.803327" lon="108.598494">
        <ele>54.964832</ele>
        <time>2026-08-14T03:09:14.000Z</time>
      </trkpt>
      <trkpt lat="22.803349" lon="108.598552">
        <ele>54.976861</ele>
        <time>2026-08-14T03:09:15.000Z</time>
      </trkpt>
      <trkpt lat="22.803372" lon="108.598610">
        <ele>54.988971</ele>
        <time>2026-08-14T03:09:16.000Z</time>
      </trkpt>
      <trkpt lat="22.803394" lon="108.598668">
        <ele>55.001000</ele>
        <time>2026-08-14T03:09:17.000Z</time>
      </trkpt>
      <trkpt lat="22.803416" lon="108.598724">
        <ele>55.012675</ele>
        <time>2026-08-14T03:09:18.000Z</time>
      </trkpt>
      <trkpt lat="22.803437" lon="108.598781">
        <ele>55.024448</ele>
        <time>2026-08-14T03:09:19.000Z</time>
      </trkpt>
      <trkpt lat="22.803458" lon="108.598837">
        <ele>55.036044</ele>
        <time>2026-08-14T03:09:20.000Z</time>
      </trkpt>
      <trkpt lat="22.803478" lon="108.598893">
        <ele>55.047562</ele>
        <time>2026-08-14T03:09:21.000Z</time>
      </trkpt>
      <trkpt lat="22.803498" lon="108.598951">
        <ele>55.059439</ele>
        <time>2026-08-14T03:09:22.000Z</time>
      </trkpt>
      <trkpt lat="22.803519" lon="108.599007">
        <ele>55.071034</ele>
        <time>2026-08-14T03:09:23.000Z</time>
      </trkpt>
      <trkpt lat="22.803538" lon="108.599063">
        <ele>55.082479</ele>
        <time>2026-08-14T03:09:24.000Z</time>
      </trkpt>
      <trkpt lat="22.803558" lon="108.599120">
        <ele>55.094177</ele>
        <time>2026-08-14T03:09:25.000Z</time>
      </trkpt>
      <trkpt lat="22.803578" lon="108.599177">
        <ele>55.105874</ele>
        <time>2026-08-14T03:09:26.000Z</time>
      </trkpt>
      <trkpt lat="22.803598" lon="108.599233">
        <ele>55.117392</ele>
        <time>2026-08-14T03:09:27.000Z</time>
      </trkpt>
      <trkpt lat="22.803617" lon="108.599288">
        <ele>55.128657</ele>
        <time>2026-08-14T03:09:28.000Z</time>
      </trkpt>
      <trkpt lat="22.803635" lon="108.599344">
        <ele>55.140032</ele>
        <time>2026-08-14T03:09:29.000Z</time>
      </trkpt>
      <trkpt lat="22.803654" lon="108.599399">
        <ele>55.151297</ele>
        <time>2026-08-14T03:09:30.000Z</time>
      </trkpt>
      <trkpt lat="22.803674" lon="108.599456">
        <ele>55.162995</ele>
        <time>2026-08-14T03:09:31.000Z</time>
      </trkpt>
      <trkpt lat="22.803692" lon="108.599513">
        <ele>55.174551</ele>
        <time>2026-08-14T03:09:32.000Z</time>
      </trkpt>
      <trkpt lat="22.803710" lon="108.599570">
        <ele>55.186107</ele>
        <time>2026-08-14T03:09:33.000Z</time>
      </trkpt>
      <trkpt lat="22.803728" lon="108.599627">
        <ele>55.197663</ele>
        <time>2026-08-14T03:09:34.000Z</time>
      </trkpt>
      <trkpt lat="22.803746" lon="108.599684">
        <ele>55.209219</ele>
        <time>2026-08-14T03:09:35.000Z</time>
      </trkpt>
      <trkpt lat="22.803766" lon="108.599741">
        <ele>55.220916</ele>
        <time>2026-08-14T03:09:36.000Z</time>
      </trkpt>
      <trkpt lat="22.803787" lon="108.599798">
        <ele>55.232689</ele>
        <time>2026-08-14T03:09:37.000Z</time>
      </trkpt>
      <trkpt lat="22.803806" lon="108.599857">
        <ele>55.244676</ele>
        <time>2026-08-14T03:09:38.000Z</time>
      </trkpt>
      <trkpt lat="22.803825" lon="108.599917">
        <ele>55.256843</ele>
        <time>2026-08-14T03:09:39.000Z</time>
      </trkpt>
      <trkpt lat="22.803844" lon="108.599975">
        <ele>55.268649</ele>
        <time>2026-08-14T03:09:40.000Z</time>
      </trkpt>
      <trkpt lat="22.803862" lon="108.600034">
        <ele>55.291720</ele>
        <time>2026-08-14T03:09:41.000Z</time>
      </trkpt>
      <trkpt lat="22.803879" lon="108.600092">
        <ele>55.324033</ele>
        <time>2026-08-14T03:09:42.000Z</time>
      </trkpt>
      <trkpt lat="22.803899" lon="108.600150">
        <ele>55.356911</ele>
        <time>2026-08-14T03:09:43.000Z</time>
      </trkpt>
      <trkpt lat="22.803920" lon="108.600208">
        <ele>55.389995</ele>
        <time>2026-08-14T03:09:44.000Z</time>
      </trkpt>
      <trkpt lat="22.803939" lon="108.600266">
        <ele>55.422675</ele>
        <time>2026-08-14T03:09:45.000Z</time>
      </trkpt>
      <trkpt lat="22.803958" lon="108.600323">
        <ele>55.454856</ele>
        <time>2026-08-14T03:09:46.000Z</time>
      </trkpt>
      <trkpt lat="22.803976" lon="108.600381">
        <ele>55.487348</ele>
        <time>2026-08-14T03:09:47.000Z</time>
      </trkpt>
      <trkpt lat="22.803994" lon="108.600440">
        <ele>55.520343</ele>
        <time>2026-08-14T03:09:48.000Z</time>
      </trkpt>
      <trkpt lat="22.804014" lon="108.600499">
        <ele>55.553719</ele>
        <time>2026-08-14T03:09:49.000Z</time>
      </trkpt>
      <trkpt lat="22.804034" lon="108.600559">
        <ele>55.587593</ele>
        <time>2026-08-14T03:09:50.000Z</time>
      </trkpt>
      <trkpt lat="22.804054" lon="108.600619">
        <ele>55.621467</ele>
        <time>2026-08-14T03:09:51.000Z</time>
      </trkpt>
      <trkpt lat="22.804074" lon="108.600677">
        <ele>55.654345</ele>
        <time>2026-08-14T03:09:52.000Z</time>
      </trkpt>
      <trkpt lat="22.804093" lon="108.600734">
        <ele>55.686525</ele>
        <time>2026-08-14T03:09:53.000Z</time>
      </trkpt>
      <trkpt lat="22.804110" lon="108.600792">
        <ele>55.718838</ele>
        <time>2026-08-14T03:09:54.000Z</time>
      </trkpt>
      <trkpt lat="22.804128" lon="108.600851">
        <ele>55.751834</ele>
        <time>2026-08-14T03:09:55.000Z</time>
      </trkpt>
      <trkpt lat="22.804146" lon="108.600907">
        <ele>55.783321</ele>
        <time>2026-08-14T03:09:56.000Z</time>
      </trkpt>
      <trkpt lat="22.804164" lon="108.600962">
        <ele>55.814308</ele>
        <time>2026-08-14T03:09:57.000Z</time>
      </trkpt>
      <trkpt lat="22.804183" lon="108.601019">
        <ele>55.846488</ele>
        <time>2026-08-14T03:09:58.000Z</time>
      </trkpt>
      <trkpt lat="22.804202" lon="108.601075">
        <ele>55.878170</ele>
        <time>2026-08-14T03:09:59.000Z</time>
      </trkpt>
      <trkpt lat="22.804220" lon="108.601130">
        <ele>55.909157</ele>
        <time>2026-08-14T03:10:00.000Z</time>
      </trkpt>
      <trkpt lat="22.804237" lon="108.601185">
        <ele>55.939956</ele>
        <time>2026-08-14T03:10:01.000Z</time>
      </trkpt>
      <trkpt lat="22.804255" lon="108.601241">
        <ele>55.971443</ele>
        <time>2026-08-14T03:10:02.000Z</time>
      </trkpt>
      <trkpt lat="22.804273" lon="108.601298">
        <ele>56.003432</ele>
        <time>2026-08-14T03:10:03.000Z</time>
      </trkpt>
      <trkpt lat="22.804291" lon="108.601353">
        <ele>56.034419</ele>
        <time>2026-08-14T03:10:04.000Z</time>
      </trkpt>
      <trkpt lat="22.804310" lon="108.601408">
        <ele>56.065603</ele>
        <time>2026-08-14T03:10:05.000Z</time>
      </trkpt>
      <trkpt lat="22.804329" lon="108.601465">
        <ele>56.097783</ele>
        <time>2026-08-14T03:10:06.000Z</time>
      </trkpt>
      <trkpt lat="22.804348" lon="108.601519">
        <ele>56.128471</ele>
        <time>2026-08-14T03:10:07.000Z</time>
      </trkpt>
      <trkpt lat="22.804367" lon="108.601574">
        <ele>56.159655</ele>
        <time>2026-08-14T03:10:08.000Z</time>
      </trkpt>
      <trkpt lat="22.804386" lon="108.601630">
        <ele>56.191336</ele>
        <time>2026-08-14T03:10:09.000Z</time>
      </trkpt>
      <trkpt lat="22.804404" lon="108.601686">
        <ele>56.222824</ele>
        <time>2026-08-14T03:10:10.000Z</time>
      </trkpt>
      <trkpt lat="22.804422" lon="108.601741">
        <ele>56.253810</ele>
        <time>2026-08-14T03:10:11.000Z</time>
      </trkpt>
      <trkpt lat="22.804440" lon="108.601795">
        <ele>56.284297</ele>
        <time>2026-08-14T03:10:12.000Z</time>
      </trkpt>
      <trkpt lat="22.804458" lon="108.601850">
        <ele>56.319208</ele>
        <time>2026-08-14T03:10:13.000Z</time>
      </trkpt>
      <trkpt lat="22.804477" lon="108.601905">
        <ele>56.374375</ele>
        <time>2026-08-14T03:10:14.000Z</time>
      </trkpt>
      <trkpt lat="22.804494" lon="108.601958">
        <ele>56.427084</ele>
        <time>2026-08-14T03:10:15.000Z</time>
      </trkpt>
      <trkpt lat="22.804508" lon="108.602011">
        <ele>56.478868</ele>
        <time>2026-08-14T03:10:16.000Z</time>
      </trkpt>
      <trkpt lat="22.804524" lon="108.602065">
        <ele>56.532144</ele>
        <time>2026-08-14T03:10:17.000Z</time>
      </trkpt>
      <trkpt lat="22.804541" lon="108.602118">
        <ele>56.584852</ele>
        <time>2026-08-14T03:10:18.000Z</time>
      </trkpt>
      <trkpt lat="22.804557" lon="108.602171">
        <ele>56.637234</ele>
        <time>2026-08-14T03:10:19.000Z</time>
      </trkpt>
      <trkpt lat="22.804575" lon="108.602223">
        <ele>56.689406</ele>
        <time>2026-08-14T03:10:20.000Z</time>
      </trkpt>
      <trkpt lat="22.804591" lon="108.602275">
        <ele>56.740896</ele>
        <time>2026-08-14T03:10:21.000Z</time>
      </trkpt>
      <trkpt lat="22.804608" lon="108.602326">
        <ele>56.791834</ele>
        <time>2026-08-14T03:10:22.000Z</time>
      </trkpt>
      <trkpt lat="22.804626" lon="108.602379">
        <ele>56.844886</ele>
        <time>2026-08-14T03:10:23.000Z</time>
      </trkpt>
      <trkpt lat="22.804643" lon="108.602431">
        <ele>56.896708</ele>
        <time>2026-08-14T03:10:24.000Z</time>
      </trkpt>
      <trkpt lat="22.804660" lon="108.602482">
        <ele>56.947646</ele>
        <time>2026-08-14T03:10:25.000Z</time>
      </trkpt>
      <trkpt lat="22.804674" lon="108.602532">
        <ele>56.996727</ele>
        <time>2026-08-14T03:10:26.000Z</time>
      </trkpt>
      <trkpt lat="22.804691" lon="108.602587">
        <ele>57.051213</ele>
        <time>2026-08-14T03:10:27.000Z</time>
      </trkpt>
      <trkpt lat="22.804708" lon="108.602641">
        <ele>57.104809</ele>
        <time>2026-08-14T03:10:28.000Z</time>
      </trkpt>
      <trkpt lat="22.804725" lon="108.602694">
        <ele>57.157518</ele>
        <time>2026-08-14T03:10:29.000Z</time>
      </trkpt>
      <trkpt lat="22.804742" lon="108.602747">
        <ele>57.210226</ele>
        <time>2026-08-14T03:10:30.000Z</time>
      </trkpt>
      <trkpt lat="22.804759" lon="108.602800">
        <ele>57.262934</ele>
        <time>2026-08-14T03:10:31.000Z</time>
      </trkpt>
      <trkpt lat="22.804776" lon="108.602852">
        <ele>57.314756</ele>
        <time>2026-08-14T03:10:32.000Z</time>
      </trkpt>
      <trkpt lat="22.804794" lon="108.602903">
        <ele>57.366049</ele>
        <time>2026-08-14T03:10:33.000Z</time>
      </trkpt>
      <trkpt lat="22.804812" lon="108.602954">
        <ele>57.417342</ele>
        <time>2026-08-14T03:10:34.000Z</time>
      </trkpt>
      <trkpt lat="22.804829" lon="108.603005">
        <ele>57.468280</ele>
        <time>2026-08-14T03:10:35.000Z</time>
      </trkpt>
      <trkpt lat="22.804845" lon="108.603056">
        <ele>57.518880</ele>
        <time>2026-08-14T03:10:36.000Z</time>
      </trkpt>
      <trkpt lat="22.804861" lon="108.603107">
        <ele>57.569481</ele>
        <time>2026-08-14T03:10:37.000Z</time>
      </trkpt>
      <trkpt lat="22.804878" lon="108.603160">
        <ele>57.622189</ele>
        <time>2026-08-14T03:10:38.000Z</time>
      </trkpt>
      <trkpt lat="22.804896" lon="108.603210">
        <ele>57.672606</ele>
        <time>2026-08-14T03:10:39.000Z</time>
      </trkpt>
      <trkpt lat="22.804913" lon="108.603262">
        <ele>57.724428</ele>
        <time>2026-08-14T03:10:40.000Z</time>
      </trkpt>
      <trkpt lat="22.804931" lon="108.603313">
        <ele>57.775721</ele>
        <time>2026-08-14T03:10:41.000Z</time>
      </trkpt>
      <trkpt lat="22.804947" lon="108.603364">
        <ele>57.826321</ele>
        <time>2026-08-14T03:10:42.000Z</time>
      </trkpt>
      <trkpt lat="22.804963" lon="108.603415">
        <ele>57.876922</ele>
        <time>2026-08-14T03:10:43.000Z</time>
      </trkpt>
      <trkpt lat="22.804980" lon="108.603465">
        <ele>57.926977</ele>
        <time>2026-08-14T03:10:44.000Z</time>
      </trkpt>
      <trkpt lat="22.804999" lon="108.603515">
        <ele>57.977774</ele>
        <time>2026-08-14T03:10:45.000Z</time>
      </trkpt>
      <trkpt lat="22.805018" lon="108.603565">
        <ele>58.028570</ele>
        <time>2026-08-14T03:10:46.000Z</time>
      </trkpt>
      <trkpt lat="22.805035" lon="108.603615">
        <ele>58.078626</ele>
        <time>2026-08-14T03:10:47.000Z</time>
      </trkpt>
      <trkpt lat="22.805052" lon="108.603665">
        <ele>58.128681</ele>
        <time>2026-08-14T03:10:48.000Z</time>
      </trkpt>
      <trkpt lat="22.805068" lon="108.603716">
        <ele>58.149839</ele>
        <time>2026-08-14T03:10:49.000Z</time>
      </trkpt>
      <trkpt lat="22.805083" lon="108.603766">
        <ele>58.159334</ele>
        <time>2026-08-14T03:10:50.000Z</time>
      </trkpt>
      <trkpt lat="22.805099" lon="108.603815">
        <ele>58.168722</ele>
        <time>2026-08-14T03:10:51.000Z</time>
      </trkpt>
      <trkpt lat="22.805115" lon="108.603862">
        <ele>58.177770</ele>
        <time>2026-08-14T03:10:52.000Z</time>
      </trkpt>
      <trkpt lat="22.805131" lon="108.603911">
        <ele>58.187157</ele>
        <time>2026-08-14T03:10:53.000Z</time>
      </trkpt>
      <trkpt lat="22.805147" lon="108.603959">
        <ele>58.196375</ele>
        <time>2026-08-14T03:10:54.000Z</time>
      </trkpt>
      <trkpt lat="22.805163" lon="108.604007">
        <ele>58.205592</ele>
        <time>2026-08-14T03:10:55.000Z</time>
      </trkpt>
      <trkpt lat="22.805178" lon="108.604055">
        <ele>58.214745</ele>
        <time>2026-08-14T03:10:56.000Z</time>
      </trkpt>
      <trkpt lat="22.805195" lon="108.604104">
        <ele>58.224200</ele>
        <time>2026-08-14T03:10:57.000Z</time>
      </trkpt>
      <trkpt lat="22.805212" lon="108.604152">
        <ele>58.233486</ele>
        <time>2026-08-14T03:10:58.000Z</time>
      </trkpt>
      <trkpt lat="22.805228" lon="108.604203">
        <ele>58.243214</ele>
        <time>2026-08-14T03:10:59.000Z</time>
      </trkpt>
      <trkpt lat="22.805243" lon="108.604253">
        <ele>58.252710</ele>
        <time>2026-08-14T03:11:00.000Z</time>
      </trkpt>
      <trkpt lat="22.805261" lon="108.604306">
        <ele>58.262910</ele>
        <time>2026-08-14T03:11:01.000Z</time>
      </trkpt>
      <trkpt lat="22.805279" lon="108.604358">
        <ele>58.272941</ele>
        <time>2026-08-14T03:11:02.000Z</time>
      </trkpt>
      <trkpt lat="22.805297" lon="108.604409">
        <ele>58.282803</ele>
        <time>2026-08-14T03:11:03.000Z</time>
      </trkpt>
      <trkpt lat="22.805314" lon="108.604462">
        <ele>58.292937</ele>
        <time>2026-08-14T03:11:04.000Z</time>
      </trkpt>
      <trkpt lat="22.805332" lon="108.604515">
        <ele>58.303137</ele>
        <time>2026-08-14T03:11:05.000Z</time>
      </trkpt>
      <trkpt lat="22.805348" lon="108.604568">
        <ele>58.313208</ele>
        <time>2026-08-14T03:11:06.000Z</time>
      </trkpt>
      <trkpt lat="22.805365" lon="108.604620">
        <ele>58.323171</ele>
        <time>2026-08-14T03:11:07.000Z</time>
      </trkpt>
      <trkpt lat="22.805382" lon="108.604673">
        <ele>58.333305</ele>
        <time>2026-08-14T03:11:08.000Z</time>
      </trkpt>
      <trkpt lat="22.805399" lon="108.604727">
        <ele>58.343610</ele>
        <time>2026-08-14T03:11:09.000Z</time>
      </trkpt>
      <trkpt lat="22.805417" lon="108.604782">
        <ele>58.354150</ele>
        <time>2026-08-14T03:11:10.000Z</time>
      </trkpt>
      <trkpt lat="22.805433" lon="108.604837">
        <ele>58.364565</ele>
        <time>2026-08-14T03:11:11.000Z</time>
      </trkpt>
      <trkpt lat="22.805450" lon="108.604892">
        <ele>58.375041</ele>
        <time>2026-08-14T03:11:12.000Z</time>
      </trkpt>
      <trkpt lat="22.805469" lon="108.604946">
        <ele>58.385479</ele>
        <time>2026-08-14T03:11:13.000Z</time>
      </trkpt>
      <trkpt lat="22.805489" lon="108.605001">
        <ele>58.396156</ele>
        <time>2026-08-14T03:11:14.000Z</time>
      </trkpt>
      <trkpt lat="22.805508" lon="108.605054">
        <ele>58.406425</ele>
        <time>2026-08-14T03:11:15.000Z</time>
      </trkpt>
      <trkpt lat="22.805526" lon="108.605109">
        <ele>58.416965</ele>
        <time>2026-08-14T03:11:16.000Z</time>
      </trkpt>
      <trkpt lat="22.805542" lon="108.605164">
        <ele>58.427380</ele>
        <time>2026-08-14T03:11:17.000Z</time>
      </trkpt>
      <trkpt lat="22.805558" lon="108.605222">
        <ele>58.438313</ele>
        <time>2026-08-14T03:11:18.000Z</time>
      </trkpt>
      <trkpt lat="22.805575" lon="108.605277">
        <ele>58.448789</ele>
        <time>2026-08-14T03:11:19.000Z</time>
      </trkpt>
      <trkpt lat="22.805593" lon="108.605334">
        <ele>58.459669</ele>
        <time>2026-08-14T03:11:20.000Z</time>
      </trkpt>
      <trkpt lat="22.805612" lon="108.605390">
        <ele>58.470445</ele>
        <time>2026-08-14T03:11:21.000Z</time>
      </trkpt>
      <trkpt lat="22.805630" lon="108.605447">
        <ele>58.481326</ele>
        <time>2026-08-14T03:11:22.000Z</time>
      </trkpt>
      <trkpt lat="22.805649" lon="108.605505">
        <ele>58.492442</ele>
        <time>2026-08-14T03:11:23.000Z</time>
      </trkpt>
      <trkpt lat="22.805669" lon="108.605564">
        <ele>58.493173</ele>
        <time>2026-08-14T03:11:24.000Z</time>
      </trkpt>
      <trkpt lat="22.805688" lon="108.605623">
        <ele>58.490533</ele>
        <time>2026-08-14T03:11:25.000Z</time>
      </trkpt>
      <trkpt lat="22.805705" lon="108.605681">
        <ele>58.487961</ele>
        <time>2026-08-14T03:11:26.000Z</time>
      </trkpt>
      <trkpt lat="22.805724" lon="108.605741">
        <ele>58.485281</ele>
        <time>2026-08-14T03:11:27.000Z</time>
      </trkpt>
      <trkpt lat="22.805744" lon="108.605800">
        <ele>58.482625</ele>
        <time>2026-08-14T03:11:28.000Z</time>
      </trkpt>
      <trkpt lat="22.805764" lon="108.605859">
        <ele>58.479969</ele>
        <time>2026-08-14T03:11:29.000Z</time>
      </trkpt>
      <trkpt lat="22.805784" lon="108.605918">
        <ele>58.477313</ele>
        <time>2026-08-14T03:11:30.000Z</time>
      </trkpt>
      <trkpt lat="22.805803" lon="108.605976">
        <ele>58.474712</ele>
        <time>2026-08-14T03:11:31.000Z</time>
      </trkpt>
      <trkpt lat="22.805822" lon="108.606035">
        <ele>58.472071</ele>
        <time>2026-08-14T03:11:32.000Z</time>
      </trkpt>
      <trkpt lat="22.805841" lon="108.606093">
        <ele>58.469470</ele>
        <time>2026-08-14T03:11:33.000Z</time>
      </trkpt>
      <trkpt lat="22.805860" lon="108.606153">
        <ele>58.466790</ele>
        <time>2026-08-14T03:11:34.000Z</time>
      </trkpt>
      <trkpt lat="22.805878" lon="108.606215">
        <ele>58.464043</ele>
        <time>2026-08-14T03:11:35.000Z</time>
      </trkpt>
      <trkpt lat="22.805897" lon="108.606276">
        <ele>58.461323</ele>
        <time>2026-08-14T03:11:36.000Z</time>
      </trkpt>
      <trkpt lat="22.805916" lon="108.606335">
        <ele>58.458682</ele>
        <time>2026-08-14T03:11:37.000Z</time>
      </trkpt>
      <trkpt lat="22.805937" lon="108.606395">
        <ele>58.455971</ele>
        <time>2026-08-14T03:11:38.000Z</time>
      </trkpt>
      <trkpt lat="22.805955" lon="108.606455">
        <ele>58.453305</ele>
        <time>2026-08-14T03:11:39.000Z</time>
      </trkpt>
      <trkpt lat="22.805971" lon="108.606517">
        <ele>58.450584</ele>
        <time>2026-08-14T03:11:40.000Z</time>
      </trkpt>
      <trkpt lat="22.805988" lon="108.606577">
        <ele>58.447932</ele>
        <time>2026-08-14T03:11:41.000Z</time>
      </trkpt>
      <trkpt lat="22.806006" lon="108.606636">
        <ele>58.445306</ele>
        <time>2026-08-14T03:11:42.000Z</time>
      </trkpt>
      <trkpt lat="22.806023" lon="108.606696">
        <ele>58.442654</ele>
        <time>2026-08-14T03:11:43.000Z</time>
      </trkpt>
      <trkpt lat="22.806041" lon="108.606755">
        <ele>58.440028</ele>
        <time>2026-08-14T03:11:44.000Z</time>
      </trkpt>
      <trkpt lat="22.806059" lon="108.606812">
        <ele>58.437483</ele>
        <time>2026-08-14T03:11:45.000Z</time>
      </trkpt>
      <trkpt lat="22.806076" lon="108.606873">
        <ele>58.434790</ele>
        <time>2026-08-14T03:11:46.000Z</time>
      </trkpt>
      <trkpt lat="22.806093" lon="108.606934">
        <ele>58.432097</ele>
        <time>2026-08-14T03:11:47.000Z</time>
      </trkpt>
      <trkpt lat="22.806111" lon="108.606995">
        <ele>58.429391</ele>
        <time>2026-08-14T03:11:48.000Z</time>
      </trkpt>
      <trkpt lat="22.806129" lon="108.607055">
        <ele>58.426725</ele>
        <time>2026-08-14T03:11:49.000Z</time>
      </trkpt>
      <trkpt lat="22.806147" lon="108.607116">
        <ele>58.424019</ele>
        <time>2026-08-14T03:11:50.000Z</time>
      </trkpt>
      <trkpt lat="22.806164" lon="108.607177">
        <ele>58.421327</ele>
        <time>2026-08-14T03:11:51.000Z</time>
      </trkpt>
      <trkpt lat="22.806181" lon="108.607239">
        <ele>58.418593</ele>
        <time>2026-08-14T03:11:52.000Z</time>
      </trkpt>
      <trkpt lat="22.806198" lon="108.607300">
        <ele>58.415901</ele>
        <time>2026-08-14T03:11:53.000Z</time>
      </trkpt>
      <trkpt lat="22.806216" lon="108.607362">
        <ele>58.413154</ele>
        <time>2026-08-14T03:11:54.000Z</time>
      </trkpt>
      <trkpt lat="22.806232" lon="108.607425">
        <ele>58.383884</ele>
        <time>2026-08-14T03:11:55.000Z</time>
      </trkpt>
      <trkpt lat="22.806249" lon="108.607489">
        <ele>58.349362</ele>
        <time>2026-08-14T03:11:56.000Z</time>
      </trkpt>
      <trkpt lat="22.806264" lon="108.607551">
        <ele>58.316137</ele>
        <time>2026-08-14T03:11:57.000Z</time>
      </trkpt>
      <trkpt lat="22.806280" lon="108.607614">
        <ele>58.282266</ele>
        <time>2026-08-14T03:11:58.000Z</time>
      </trkpt>
      <trkpt lat="22.806296" lon="108.607676">
        <ele>58.248895</ele>
        <time>2026-08-14T03:11:59.000Z</time>
      </trkpt>
      <trkpt lat="22.806311" lon="108.607738">
        <ele>58.215670</ele>
        <time>2026-08-14T03:12:00.000Z</time>
      </trkpt>
      <trkpt lat="22.806326" lon="108.607799">
        <ele>58.182947</ele>
        <time>2026-08-14T03:12:01.000Z</time>
      </trkpt>
      <trkpt lat="22.806343" lon="108.607861">
        <ele>58.149419</ele>
        <time>2026-08-14T03:12:02.000Z</time>
      </trkpt>
      <trkpt lat="22.806360" lon="108.607923">
        <ele>58.115891</ele>
        <time>2026-08-14T03:12:03.000Z</time>
      </trkpt>
      <trkpt lat="22.806377" lon="108.607985">
        <ele>58.082364</ele>
        <time>2026-08-14T03:12:04.000Z</time>
      </trkpt>
      <trkpt lat="22.806394" lon="108.608045">
        <ele>58.049828</ele>
        <time>2026-08-14T03:12:05.000Z</time>
      </trkpt>
      <trkpt lat="22.806410" lon="108.608105">
        <ele>58.017454</ele>
        <time>2026-08-14T03:12:06.000Z</time>
      </trkpt>
      <trkpt lat="22.806428" lon="108.608166">
        <ele>57.984256</ele>
        <time>2026-08-14T03:12:07.000Z</time>
      </trkpt>
      <trkpt lat="22.806443" lon="108.608225">
        <ele>57.952533</ele>
        <time>2026-08-14T03:12:08.000Z</time>
      </trkpt>
      <trkpt lat="22.806455" lon="108.608284">
        <ele>57.921216</ele>
        <time>2026-08-14T03:12:09.000Z</time>
      </trkpt>
      <trkpt lat="22.806470" lon="108.608347">
        <ele>57.887490</ele>
        <time>2026-08-14T03:12:10.000Z</time>
      </trkpt>
      <trkpt lat="22.806485" lon="108.608407">
        <ele>57.855267</ele>
        <time>2026-08-14T03:12:11.000Z</time>
      </trkpt>
      <trkpt lat="22.806500" lon="108.608467">
        <ele>57.823044</ele>
        <time>2026-08-14T03:12:12.000Z</time>
      </trkpt>
      <trkpt lat="22.806512" lon="108.608529">
        <ele>57.790207</ele>
        <time>2026-08-14T03:12:13.000Z</time>
      </trkpt>
      <trkpt lat="22.806524" lon="108.608592">
        <ele>57.756863</ele>
        <time>2026-08-14T03:12:14.000Z</time>
      </trkpt>
      <trkpt lat="22.806538" lon="108.608655">
        <ele>57.723273</ele>
        <time>2026-08-14T03:12:15.000Z</time>
      </trkpt>
      <trkpt lat="22.806557" lon="108.608717">
        <ele>57.689408</ele>
        <time>2026-08-14T03:12:16.000Z</time>
      </trkpt>
      <trkpt lat="22.806576" lon="108.608781">
        <ele>57.654557</ele>
        <time>2026-08-14T03:12:17.000Z</time>
      </trkpt>
      <trkpt lat="22.806596" lon="108.608845">
        <ele>57.619530</ele>
        <time>2026-08-14T03:12:18.000Z</time>
      </trkpt>
      <trkpt lat="22.806616" lon="108.608907">
        <ele>57.585483</ele>
        <time>2026-08-14T03:12:19.000Z</time>
      </trkpt>
      <trkpt lat="22.806636" lon="108.608968">
        <ele>57.551925</ele>
        <time>2026-08-14T03:12:20.000Z</time>
      </trkpt>
      <trkpt lat="22.806654" lon="108.609033">
        <ele>57.516747</ele>
        <time>2026-08-14T03:12:21.000Z</time>
      </trkpt>
      <trkpt lat="22.806668" lon="108.609101">
        <ele>57.480632</ele>
        <time>2026-08-14T03:12:22.000Z</time>
      </trkpt>
      <trkpt lat="22.806685" lon="108.609166">
        <ele>57.445611</ele>
        <time>2026-08-14T03:12:23.000Z</time>
      </trkpt>
      <trkpt lat="22.806707" lon="108.609231">
        <ele>57.409721</ele>
        <time>2026-08-14T03:12:24.000Z</time>
      </trkpt>
      <trkpt lat="22.806726" lon="108.609298">
        <ele>57.364004</ele>
        <time>2026-08-14T03:12:25.000Z</time>
      </trkpt>
      <trkpt lat="22.806748" lon="108.609365">
        <ele>57.314790</ele>
        <time>2026-08-14T03:12:26.000Z</time>
      </trkpt>
      <trkpt lat="22.806768" lon="108.609433">
        <ele>57.265400</ele>
        <time>2026-08-14T03:12:27.000Z</time>
      </trkpt>
      <trkpt lat="22.806787" lon="108.609498">
        <ele>57.218216</ele>
        <time>2026-08-14T03:12:28.000Z</time>
      </trkpt>
      <trkpt lat="22.806809" lon="108.609562">
        <ele>57.170953</ele>
        <time>2026-08-14T03:12:29.000Z</time>
      </trkpt>
      <trkpt lat="22.806829" lon="108.609626">
        <ele>57.124192</ele>
        <time>2026-08-14T03:12:30.000Z</time>
      </trkpt>
      <trkpt lat="22.806852" lon="108.609691">
        <ele>57.076016</ele>
        <time>2026-08-14T03:12:31.000Z</time>
      </trkpt>
      <trkpt lat="22.806872" lon="108.609755">
        <ele>57.029255</ele>
        <time>2026-08-14T03:12:32.000Z</time>
      </trkpt>
      <trkpt lat="22.806894" lon="108.609819">
        <ele>56.981991</ele>
        <time>2026-08-14T03:12:33.000Z</time>
      </trkpt>
      <trkpt lat="22.806916" lon="108.609884">
        <ele>56.934078</ele>
        <time>2026-08-14T03:12:34.000Z</time>
      </trkpt>
      <trkpt lat="22.806937" lon="108.609948">
        <ele>56.887072</ele>
        <time>2026-08-14T03:12:35.000Z</time>
      </trkpt>
      <trkpt lat="22.806958" lon="108.610013">
        <ele>56.839412</ele>
        <time>2026-08-14T03:12:36.000Z</time>
      </trkpt>
      <trkpt lat="22.806981" lon="108.610077">
        <ele>56.791881</ele>
        <time>2026-08-14T03:12:37.000Z</time>
      </trkpt>
      <trkpt lat="22.807004" lon="108.610142">
        <ele>56.743705</ele>
        <time>2026-08-14T03:12:38.000Z</time>
      </trkpt>
      <trkpt lat="22.807027" lon="108.610207">
        <ele>56.695528</ele>
        <time>2026-08-14T03:12:39.000Z</time>
      </trkpt>
      <trkpt lat="22.807050" lon="108.610273">
        <ele>56.646705</ele>
        <time>2026-08-14T03:12:40.000Z</time>
      </trkpt>
      <trkpt lat="22.807074" lon="108.610337">
        <ele>56.598896</ele>
        <time>2026-08-14T03:12:41.000Z</time>
      </trkpt>
      <trkpt lat="22.807097" lon="108.610403">
        <ele>56.550073</ele>
        <time>2026-08-14T03:12:42.000Z</time>
      </trkpt>
      <trkpt lat="22.807122" lon="108.610466">
        <ele>56.502612</ele>
        <time>2026-08-14T03:12:43.000Z</time>
      </trkpt>
      <trkpt lat="22.807146" lon="108.610530">
        <ele>56.454803</ele>
        <time>2026-08-14T03:12:44.000Z</time>
      </trkpt>
      <trkpt lat="22.807170" lon="108.610595">
        <ele>56.406352</ele>
        <time>2026-08-14T03:12:45.000Z</time>
      </trkpt>
      <trkpt lat="22.807194" lon="108.610659">
        <ele>56.358543</ele>
        <time>2026-08-14T03:12:46.000Z</time>
      </trkpt>
      <trkpt lat="22.807218" lon="108.610724">
        <ele>56.310093</ele>
        <time>2026-08-14T03:12:47.000Z</time>
      </trkpt>
      <trkpt lat="22.807243" lon="108.610788">
        <ele>56.261996</ele>
        <time>2026-08-14T03:12:48.000Z</time>
      </trkpt>
      <trkpt lat="22.807266" lon="108.610852">
        <ele>56.214465</ele>
        <time>2026-08-14T03:12:49.000Z</time>
      </trkpt>
      <trkpt lat="22.807291" lon="108.610916">
        <ele>56.166368</ele>
        <time>2026-08-14T03:12:50.000Z</time>
      </trkpt>
      <trkpt lat="22.807315" lon="108.610981">
        <ele>56.117917</ele>
        <time>2026-08-14T03:12:51.000Z</time>
      </trkpt>
      <trkpt lat="22.807339" lon="108.611045">
        <ele>56.070108</ele>
        <time>2026-08-14T03:12:52.000Z</time>
      </trkpt>
      <trkpt lat="22.807364" lon="108.611108">
        <ele>56.036968</ele>
        <time>2026-08-14T03:12:53.000Z</time>
      </trkpt>
      <trkpt lat="22.807390" lon="108.611171">
        <ele>56.013107</ele>
        <time>2026-08-14T03:12:54.000Z</time>
      </trkpt>
      <trkpt lat="22.807415" lon="108.611232">
        <ele>55.990030</ele>
        <time>2026-08-14T03:12:55.000Z</time>
      </trkpt>
      <trkpt lat="22.807441" lon="108.611293">
        <ele>55.966798</ele>
        <time>2026-08-14T03:12:56.000Z</time>
      </trkpt>
      <trkpt lat="22.807469" lon="108.611352">
        <ele>55.943858</ele>
        <time>2026-08-14T03:12:57.000Z</time>
      </trkpt>
      <trkpt lat="22.807496" lon="108.611413">
        <ele>55.920466</ele>
        <time>2026-08-14T03:12:58.000Z</time>
      </trkpt>
      <trkpt lat="22.807521" lon="108.611475">
        <ele>55.897073</ele>
        <time>2026-08-14T03:12:59.000Z</time>
      </trkpt>
      <trkpt lat="22.807550" lon="108.611535">
        <ele>55.873653</ele>
        <time>2026-08-14T03:13:00.000Z</time>
      </trkpt>
      <trkpt lat="22.807580" lon="108.611595">
        <ele>55.850057</ele>
        <time>2026-08-14T03:13:01.000Z</time>
      </trkpt>
      <trkpt lat="22.807607" lon="108.611656">
        <ele>55.826665</ele>
        <time>2026-08-14T03:13:02.000Z</time>
      </trkpt>
      <trkpt lat="22.807632" lon="108.611719">
        <ele>55.802955</ele>
        <time>2026-08-14T03:13:03.000Z</time>
      </trkpt>
      <trkpt lat="22.807658" lon="108.611781">
        <ele>55.779408</ele>
        <time>2026-08-14T03:13:04.000Z</time>
      </trkpt>
      <trkpt lat="22.807687" lon="108.611842">
        <ele>55.755682</ele>
        <time>2026-08-14T03:13:05.000Z</time>
      </trkpt>
      <trkpt lat="22.807715" lon="108.611901">
        <ele>55.732742</ele>
        <time>2026-08-14T03:13:06.000Z</time>
      </trkpt>
      <trkpt lat="22.807742" lon="108.611962">
        <ele>55.709350</ele>
        <time>2026-08-14T03:13:07.000Z</time>
      </trkpt>
      <trkpt lat="22.807766" lon="108.612023">
        <ele>55.686423</ele>
        <time>2026-08-14T03:13:08.000Z</time>
      </trkpt>
      <trkpt lat="22.807793" lon="108.612084">
        <ele>55.663031</ele>
        <time>2026-08-14T03:13:09.000Z</time>
      </trkpt>
      <trkpt lat="22.807819" lon="108.612146">
        <ele>55.639485</ele>
        <time>2026-08-14T03:13:10.000Z</time>
      </trkpt>
      <trkpt lat="22.807844" lon="108.612208">
        <ele>55.616092</ele>
        <time>2026-08-14T03:13:11.000Z</time>
      </trkpt>
      <trkpt lat="22.807869" lon="108.612269">
        <ele>55.593014</ele>
        <time>2026-08-14T03:13:12.000Z</time>
      </trkpt>
      <trkpt lat="22.807895" lon="108.612330">
        <ele>55.569782</ele>
        <time>2026-08-14T03:13:13.000Z</time>
      </trkpt>
      <trkpt lat="22.807922" lon="108.612391">
        <ele>55.546391</ele>
        <time>2026-08-14T03:13:14.000Z</time>
      </trkpt>
      <trkpt lat="22.807948" lon="108.612452">
        <ele>55.523159</ele>
        <time>2026-08-14T03:13:15.000Z</time>
      </trkpt>
      <trkpt lat="22.807974" lon="108.612514">
        <ele>55.499612</ele>
        <time>2026-08-14T03:13:16.000Z</time>
      </trkpt>
      <trkpt lat="22.807999" lon="108.612576">
        <ele>55.476219</ele>
        <time>2026-08-14T03:13:17.000Z</time>
      </trkpt>
      <trkpt lat="22.808025" lon="108.612638">
        <ele>55.452673</ele>
        <time>2026-08-14T03:13:18.000Z</time>
      </trkpt>
      <trkpt lat="22.808050" lon="108.612699">
        <ele>55.429596</ele>
        <time>2026-08-14T03:13:19.000Z</time>
      </trkpt>
      <trkpt lat="22.808075" lon="108.612759">
        <ele>55.406834</ele>
        <time>2026-08-14T03:13:20.000Z</time>
      </trkpt>
      <trkpt lat="22.808098" lon="108.612819">
        <ele>55.384371</ele>
        <time>2026-08-14T03:13:21.000Z</time>
      </trkpt>
      <trkpt lat="22.808122" lon="108.612879">
        <ele>55.393468</ele>
        <time>2026-08-14T03:13:22.000Z</time>
      </trkpt>
      <trkpt lat="22.808145" lon="108.612938">
        <ele>55.418144</ele>
        <time>2026-08-14T03:13:23.000Z</time>
      </trkpt>
      <trkpt lat="22.808168" lon="108.612998">
        <ele>55.443176</ele>
        <time>2026-08-14T03:13:24.000Z</time>
      </trkpt>
      <trkpt lat="22.808190" lon="108.613060">
        <ele>55.468768</ele>
        <time>2026-08-14T03:13:25.000Z</time>
      </trkpt>
      <trkpt lat="22.808211" lon="108.613126">
        <ele>55.495664</ele>
        <time>2026-08-14T03:13:26.000Z</time>
      </trkpt>
      <trkpt lat="22.808232" lon="108.613187">
        <ele>55.520747</ele>
        <time>2026-08-14T03:13:27.000Z</time>
      </trkpt>
      <trkpt lat="22.808255" lon="108.613247">
        <ele>55.545779</ele>
        <time>2026-08-14T03:13:28.000Z</time>
      </trkpt>
      <trkpt lat="22.808278" lon="108.613307">
        <ele>55.570811</ele>
        <time>2026-08-14T03:13:29.000Z</time>
      </trkpt>
      <trkpt lat="22.808301" lon="108.613367">
        <ele>55.595843</ele>
        <time>2026-08-14T03:13:30.000Z</time>
      </trkpt>
      <trkpt lat="22.808324" lon="108.613425">
        <ele>55.620165</ele>
        <time>2026-08-14T03:13:31.000Z</time>
      </trkpt>
      <trkpt lat="22.808347" lon="108.613486">
        <ele>55.645552</ele>
        <time>2026-08-14T03:13:32.000Z</time>
      </trkpt>
      <trkpt lat="22.808373" lon="108.613551">
        <ele>55.672847</ele>
        <time>2026-08-14T03:13:33.000Z</time>
      </trkpt>
      <trkpt lat="22.808396" lon="108.613611">
        <ele>55.697879</ele>
        <time>2026-08-14T03:13:34.000Z</time>
      </trkpt>
      <trkpt lat="22.808418" lon="108.613670">
        <ele>55.722396</ele>
        <time>2026-08-14T03:13:35.000Z</time>
      </trkpt>
      <trkpt lat="22.808440" lon="108.613729">
        <ele>55.746912</ele>
        <time>2026-08-14T03:13:36.000Z</time>
      </trkpt>
      <trkpt lat="22.808460" lon="108.613789">
        <ele>55.771490</ele>
        <time>2026-08-14T03:13:37.000Z</time>
      </trkpt>
      <trkpt lat="22.808481" lon="108.613849">
        <ele>55.796213</ele>
        <time>2026-08-14T03:13:38.000Z</time>
      </trkpt>
      <trkpt lat="22.808500" lon="108.613909">
        <ele>55.820651</ele>
        <time>2026-08-14T03:13:39.000Z</time>
      </trkpt>
      <trkpt lat="22.808519" lon="108.613965">
        <ele>55.843638</ele>
        <time>2026-08-14T03:13:40.000Z</time>
      </trkpt>
      <trkpt lat="22.808539" lon="108.614022">
        <ele>55.867132</ele>
        <time>2026-08-14T03:13:41.000Z</time>
      </trkpt>
      <trkpt lat="22.808558" lon="108.614079">
        <ele>55.890481</ele>
        <time>2026-08-14T03:13:42.000Z</time>
      </trkpt>
      <trkpt lat="22.808578" lon="108.614136">
        <ele>55.913975</ele>
        <time>2026-08-14T03:13:43.000Z</time>
      </trkpt>
      <trkpt lat="22.808599" lon="108.614192">
        <ele>55.937264</ele>
        <time>2026-08-14T03:13:44.000Z</time>
      </trkpt>
      <trkpt lat="22.808620" lon="108.614247">
        <ele>55.960196</ele>
        <time>2026-08-14T03:13:45.000Z</time>
      </trkpt>
      <trkpt lat="22.808642" lon="108.614303">
        <ele>55.983646</ele>
        <time>2026-08-14T03:13:46.000Z</time>
      </trkpt>
      <trkpt lat="22.808661" lon="108.614360">
        <ele>56.006994</ele>
        <time>2026-08-14T03:13:47.000Z</time>
      </trkpt>
      <trkpt lat="22.808680" lon="108.614416">
        <ele>56.029981</ele>
        <time>2026-08-14T03:13:48.000Z</time>
      </trkpt>
      <trkpt lat="22.808699" lon="108.614473">
        <ele>56.053330</ele>
        <time>2026-08-14T03:13:49.000Z</time>
      </trkpt>
      <trkpt lat="22.808718" lon="108.614529">
        <ele>56.076316</ele>
        <time>2026-08-14T03:13:50.000Z</time>
      </trkpt>
      <trkpt lat="22.808737" lon="108.614585">
        <ele>56.099303</ele>
        <time>2026-08-14T03:13:51.000Z</time>
      </trkpt>
      <trkpt lat="22.808756" lon="108.614641">
        <ele>56.122290</ele>
        <time>2026-08-14T03:13:52.000Z</time>
      </trkpt>
      <trkpt lat="22.808775" lon="108.614700">
        <ele>56.143377</ele>
        <time>2026-08-14T03:13:53.000Z</time>
      </trkpt>
      <trkpt lat="22.808793" lon="108.614759">
        <ele>56.163337</ele>
        <time>2026-08-14T03:13:54.000Z</time>
      </trkpt>
      <trkpt lat="22.808812" lon="108.614818">
        <ele>56.183409</ele>
        <time>2026-08-14T03:13:55.000Z</time>
      </trkpt>
      <trkpt lat="22.808830" lon="108.614874">
        <ele>56.202456</ele>
        <time>2026-08-14T03:13:56.000Z</time>
      </trkpt>
      <trkpt lat="22.808850" lon="108.614931">
        <ele>56.222044</ele>
        <time>2026-08-14T03:13:57.000Z</time>
      </trkpt>
      <trkpt lat="22.808871" lon="108.614985">
        <ele>56.240868</ele>
        <time>2026-08-14T03:13:58.000Z</time>
      </trkpt>
      <trkpt lat="22.808892" lon="108.615042">
        <ele>56.260582</ele>
        <time>2026-08-14T03:13:59.000Z</time>
      </trkpt>
      <trkpt lat="22.808912" lon="108.615099">
        <ele>56.280170</ele>
        <time>2026-08-14T03:14:00.000Z</time>
      </trkpt>
      <trkpt lat="22.808931" lon="108.615156">
        <ele>56.299637</ele>
        <time>2026-08-14T03:14:01.000Z</time>
      </trkpt>
      <trkpt lat="22.808950" lon="108.615212">
        <ele>56.318802</ele>
        <time>2026-08-14T03:14:02.000Z</time>
      </trkpt>
      <trkpt lat="22.808969" lon="108.615267">
        <ele>56.337666</ele>
        <time>2026-08-14T03:14:03.000Z</time>
      </trkpt>
      <trkpt lat="22.808988" lon="108.615325">
        <ele>56.357435</ele>
        <time>2026-08-14T03:14:04.000Z</time>
      </trkpt>
      <trkpt lat="22.809007" lon="108.615382">
        <ele>56.376902</ele>
        <time>2026-08-14T03:14:05.000Z</time>
      </trkpt>
      <trkpt lat="22.809028" lon="108.615436">
        <ele>56.395725</ele>
        <time>2026-08-14T03:14:06.000Z</time>
      </trkpt>
      <trkpt lat="22.809049" lon="108.615492">
        <ele>56.415142</ele>
        <time>2026-08-14T03:14:07.000Z</time>
      </trkpt>
      <trkpt lat="22.809069" lon="108.615548">
        <ele>56.434430</ele>
        <time>2026-08-14T03:14:08.000Z</time>
      </trkpt>
      <trkpt lat="22.809088" lon="108.615604">
        <ele>56.453595</ele>
        <time>2026-08-14T03:14:09.000Z</time>
      </trkpt>
      <trkpt lat="22.809106" lon="108.615662">
        <ele>56.473250</ele>
        <time>2026-08-14T03:14:10.000Z</time>
      </trkpt>
      <trkpt lat="22.809125" lon="108.615719">
        <ele>56.492717</ele>
        <time>2026-08-14T03:14:11.000Z</time>
      </trkpt>
      <trkpt lat="22.809144" lon="108.615777">
        <ele>56.512486</ele>
        <time>2026-08-14T03:14:12.000Z</time>
      </trkpt>
      <trkpt lat="22.809165" lon="108.615835">
        <ele>56.532499</ele>
        <time>2026-08-14T03:14:13.000Z</time>
      </trkpt>
      <trkpt lat="22.809186" lon="108.615894">
        <ele>56.552812</ele>
        <time>2026-08-14T03:14:14.000Z</time>
      </trkpt>
      <trkpt lat="22.809206" lon="108.615953">
        <ele>56.573001</ele>
        <time>2026-08-14T03:14:15.000Z</time>
      </trkpt>
      <trkpt lat="22.809225" lon="108.616010">
        <ele>56.592468</ele>
        <time>2026-08-14T03:14:16.000Z</time>
      </trkpt>
      <trkpt lat="22.809244" lon="108.616069">
        <ele>56.612540</ele>
        <time>2026-08-14T03:14:17.000Z</time>
      </trkpt>
      <trkpt lat="22.809264" lon="108.616127">
        <ele>56.632428</ele>
        <time>2026-08-14T03:14:18.000Z</time>
      </trkpt>
      <trkpt lat="22.809284" lon="108.616184">
        <ele>56.652016</ele>
        <time>2026-08-14T03:14:19.000Z</time>
      </trkpt>
      <trkpt lat="22.809305" lon="108.616244">
        <ele>56.672629</ele>
        <time>2026-08-14T03:14:20.000Z</time>
      </trkpt>
      <trkpt lat="22.809326" lon="108.616303">
        <ele>56.692941</ele>
        <time>2026-08-14T03:14:21.000Z</time>
      </trkpt>
      <trkpt lat="22.809346" lon="108.616361">
        <ele>56.712830</ele>
        <time>2026-08-14T03:14:22.000Z</time>
      </trkpt>
      <trkpt lat="22.809366" lon="108.616420">
        <ele>56.733019</ele>
        <time>2026-08-14T03:14:23.000Z</time>
      </trkpt>
      <trkpt lat="22.809386" lon="108.616479">
        <ele>56.753209</ele>
        <time>2026-08-14T03:14:24.000Z</time>
      </trkpt>
      <trkpt lat="22.809408" lon="108.616538">
        <ele>56.750602</ele>
        <time>2026-08-14T03:14:25.000Z</time>
      </trkpt>
      <trkpt lat="22.809427" lon="108.616595">
        <ele>56.745925</ele>
        <time>2026-08-14T03:14:26.000Z</time>
      </trkpt>
      <trkpt lat="22.809445" lon="108.616653">
        <ele>56.741202</ele>
        <time>2026-08-14T03:14:27.000Z</time>
      </trkpt>
      <trkpt lat="22.809464" lon="108.616710">
        <ele>56.736525</ele>
        <time>2026-08-14T03:14:28.000Z</time>
      </trkpt>
      <trkpt lat="22.809485" lon="108.616767">
        <ele>56.731789</ele>
        <time>2026-08-14T03:14:29.000Z</time>
      </trkpt>
      <trkpt lat="22.809505" lon="108.616826">
        <ele>56.726938</ele>
        <time>2026-08-14T03:14:30.000Z</time>
      </trkpt>
      <trkpt lat="22.809524" lon="108.616885">
        <ele>56.722116</ele>
        <time>2026-08-14T03:14:31.000Z</time>
      </trkpt>
      <trkpt lat="22.809543" lon="108.616942">
        <ele>56.717439</ele>
        <time>2026-08-14T03:14:32.000Z</time>
      </trkpt>
      <trkpt lat="22.809562" lon="108.617000">
        <ele>56.712689</ele>
        <time>2026-08-14T03:14:33.000Z</time>
      </trkpt>
      <trkpt lat="22.809580" lon="108.617059">
        <ele>56.707894</ele>
        <time>2026-08-14T03:14:34.000Z</time>
      </trkpt>
      <trkpt lat="22.809600" lon="108.617117">
        <ele>56.703115</ele>
        <time>2026-08-14T03:14:35.000Z</time>
      </trkpt>
      <trkpt lat="22.809619" lon="108.617176">
        <ele>56.698293</ele>
        <time>2026-08-14T03:14:36.000Z</time>
      </trkpt>
      <trkpt lat="22.809639" lon="108.617234">
        <ele>56.693514</ele>
        <time>2026-08-14T03:14:37.000Z</time>
      </trkpt>
      <trkpt lat="22.809658" lon="108.617292">
        <ele>56.688765</ele>
        <time>2026-08-14T03:14:38.000Z</time>
      </trkpt>
      <trkpt lat="22.809678" lon="108.617351">
        <ele>56.683914</ele>
        <time>2026-08-14T03:14:39.000Z</time>
      </trkpt>
      <trkpt lat="22.809698" lon="108.617410">
        <ele>56.679063</ele>
        <time>2026-08-14T03:14:40.000Z</time>
      </trkpt>
      <trkpt lat="22.809719" lon="108.617468">
        <ele>56.674255</ele>
        <time>2026-08-14T03:14:41.000Z</time>
      </trkpt>
      <trkpt lat="22.809740" lon="108.617526">
        <ele>56.669447</ele>
        <time>2026-08-14T03:14:42.000Z</time>
      </trkpt>
      <trkpt lat="22.809761" lon="108.617583">
        <ele>56.664710</ele>
        <time>2026-08-14T03:14:43.000Z</time>
      </trkpt>
      <trkpt lat="22.809781" lon="108.617640">
        <ele>56.660004</ele>
        <time>2026-08-14T03:14:44.000Z</time>
      </trkpt>
      <trkpt lat="22.809802" lon="108.617700">
        <ele>56.655052</ele>
        <time>2026-08-14T03:14:45.000Z</time>
      </trkpt>
      <trkpt lat="22.809822" lon="108.617759">
        <ele>56.650201</ele>
        <time>2026-08-14T03:14:46.000Z</time>
      </trkpt>
      <trkpt lat="22.809844" lon="108.617818">
        <ele>56.645290</ele>
        <time>2026-08-14T03:14:47.000Z</time>
      </trkpt>
      <trkpt lat="22.809866" lon="108.617876">
        <ele>56.640451</ele>
        <time>2026-08-14T03:14:48.000Z</time>
      </trkpt>
      <trkpt lat="22.809887" lon="108.617934">
        <ele>56.635642</ele>
        <time>2026-08-14T03:14:49.000Z</time>
      </trkpt>
      <trkpt lat="22.809907" lon="108.617993">
        <ele>56.630792</ele>
        <time>2026-08-14T03:14:50.000Z</time>
      </trkpt>
      <trkpt lat="22.809927" lon="108.618051">
        <ele>56.626014</ele>
        <time>2026-08-14T03:14:51.000Z</time>
      </trkpt>
      <trkpt lat="22.809947" lon="108.618110">
        <ele>56.621163</ele>
        <time>2026-08-14T03:14:52.000Z</time>
      </trkpt>
      <trkpt lat="22.809967" lon="108.618168">
        <ele>56.616385</ele>
        <time>2026-08-14T03:14:53.000Z</time>
      </trkpt>
      <trkpt lat="22.809987" lon="108.618228">
        <ele>56.611461</ele>
        <time>2026-08-14T03:14:54.000Z</time>
      </trkpt>
      <trkpt lat="22.810007" lon="108.618287">
        <ele>56.606611</ele>
        <time>2026-08-14T03:14:55.000Z</time>
      </trkpt>
      <trkpt lat="22.810027" lon="108.618345">
        <ele>56.599134</ele>
        <time>2026-08-14T03:14:56.000Z</time>
      </trkpt>
      <trkpt lat="22.810047" lon="108.618405">
        <ele>56.589239</ele>
        <time>2026-08-14T03:14:57.000Z</time>
      </trkpt>
      <trkpt lat="22.810066" lon="108.618465">
        <ele>56.579399</ele>
        <time>2026-08-14T03:14:58.000Z</time>
      </trkpt>
      <trkpt lat="22.810085" lon="108.618525">
        <ele>56.569560</ele>
        <time>2026-08-14T03:14:59.000Z</time>
      </trkpt>
      <trkpt lat="22.810106" lon="108.618584">
        <ele>56.559751</ele>
        <time>2026-08-14T03:15:00.000Z</time>
      </trkpt>
      <trkpt lat="22.810125" lon="108.618643">
        <ele>56.550058</ele>
        <time>2026-08-14T03:15:01.000Z</time>
      </trkpt>
      <trkpt lat="22.810143" lon="108.618702">
        <ele>56.540419</ele>
        <time>2026-08-14T03:15:02.000Z</time>
      </trkpt>
      <trkpt lat="22.810159" lon="108.618763">
        <ele>56.530583</ele>
        <time>2026-08-14T03:15:03.000Z</time>
      </trkpt>
      <trkpt lat="22.810174" lon="108.618825">
        <ele>56.520641</ele>
        <time>2026-08-14T03:15:04.000Z</time>
      </trkpt>
      <trkpt lat="22.810189" lon="108.618884">
        <ele>56.511149</ele>
        <time>2026-08-14T03:15:05.000Z</time>
      </trkpt>
      <trkpt lat="22.810205" lon="108.618945">
        <ele>56.501312</ele>
        <time>2026-08-14T03:15:06.000Z</time>
      </trkpt>
      <trkpt lat="22.810220" lon="108.619005">
        <ele>56.491670</ele>
        <time>2026-08-14T03:15:07.000Z</time>
      </trkpt>
      <trkpt lat="22.810235" lon="108.619066">
        <ele>56.481879</ele>
        <time>2026-08-14T03:15:08.000Z</time>
      </trkpt>
      <trkpt lat="22.810249" lon="108.619127">
        <ele>56.472129</ele>
        <time>2026-08-14T03:15:09.000Z</time>
      </trkpt>
      <trkpt lat="22.810263" lon="108.619189">
        <ele>56.462229</ele>
        <time>2026-08-14T03:15:10.000Z</time>
      </trkpt>
      <trkpt lat="22.810280" lon="108.619250">
        <ele>56.452345</ele>
        <time>2026-08-14T03:15:11.000Z</time>
      </trkpt>
      <trkpt lat="22.810296" lon="108.619309">
        <ele>56.442807</ele>
        <time>2026-08-14T03:15:12.000Z</time>
      </trkpt>
      <trkpt lat="22.810311" lon="108.619368">
        <ele>56.433315</ele>
        <time>2026-08-14T03:15:13.000Z</time>
      </trkpt>
      <trkpt lat="22.810327" lon="108.619429">
        <ele>56.423478</ele>
        <time>2026-08-14T03:15:14.000Z</time>
      </trkpt>
      <trkpt lat="22.810344" lon="108.619489">
        <ele>56.413743</ele>
        <time>2026-08-14T03:15:15.000Z</time>
      </trkpt>
      <trkpt lat="22.810363" lon="108.619547">
        <ele>56.404196</ele>
        <time>2026-08-14T03:15:16.000Z</time>
      </trkpt>
      <trkpt lat="22.810387" lon="108.619605">
        <ele>56.394336</ele>
        <time>2026-08-14T03:15:17.000Z</time>
      </trkpt>
      <trkpt lat="22.810413" lon="108.619660">
        <ele>56.384749</ele>
        <time>2026-08-14T03:15:18.000Z</time>
      </trkpt>
      <trkpt lat="22.810443" lon="108.619713">
        <ele>56.375103</ele>
        <time>2026-08-14T03:15:19.000Z</time>
      </trkpt>
      <trkpt lat="22.810474" lon="108.619765">
        <ele>56.365499</ele>
        <time>2026-08-14T03:15:20.000Z</time>
      </trkpt>
      <trkpt lat="22.810508" lon="108.619814">
        <ele>56.355986</ele>
        <time>2026-08-14T03:15:21.000Z</time>
      </trkpt>
      <trkpt lat="22.810543" lon="108.619863">
        <ele>56.346372</ele>
        <time>2026-08-14T03:15:22.000Z</time>
      </trkpt>
      <trkpt lat="22.810579" lon="108.619911">
        <ele>56.336775</ele>
        <time>2026-08-14T03:15:23.000Z</time>
      </trkpt>
      <trkpt lat="22.810616" lon="108.619960">
        <ele>56.326951</ele>
        <time>2026-08-14T03:15:24.000Z</time>
      </trkpt>
      <trkpt lat="22.810655" lon="108.620008">
        <ele>56.317027</ele>
        <time>2026-08-14T03:15:25.000Z</time>
      </trkpt>
      <trkpt lat="22.810690" lon="108.620055">
        <ele>56.307656</ele>
        <time>2026-08-14T03:15:26.000Z</time>
      </trkpt>
      <trkpt lat="22.810726" lon="108.620103">
        <ele>56.308242</ele>
        <time>2026-08-14T03:15:27.000Z</time>
      </trkpt>
      <trkpt lat="22.810757" lon="108.620153">
        <ele>56.323830</ele>
        <time>2026-08-14T03:15:28.000Z</time>
      </trkpt>
      <trkpt lat="22.810787" lon="108.620205">
        <ele>56.339699</ele>
        <time>2026-08-14T03:15:29.000Z</time>
      </trkpt>
      <trkpt lat="22.810818" lon="108.620259">
        <ele>56.356156</ele>
        <time>2026-08-14T03:15:30.000Z</time>
      </trkpt>
      <trkpt lat="22.810848" lon="108.620312">
        <ele>56.372246</ele>
        <time>2026-08-14T03:15:31.000Z</time>
      </trkpt>
      <trkpt lat="22.810877" lon="108.620366">
        <ele>56.388413</ele>
        <time>2026-08-14T03:15:32.000Z</time>
      </trkpt>
      <trkpt lat="22.810906" lon="108.620420">
        <ele>56.404580</ele>
        <time>2026-08-14T03:15:33.000Z</time>
      </trkpt>
      <trkpt lat="22.810933" lon="108.620475">
        <ele>56.420700</ele>
        <time>2026-08-14T03:15:34.000Z</time>
      </trkpt>
      <trkpt lat="22.810959" lon="108.620530">
        <ele>56.436690</ele>
        <time>2026-08-14T03:15:35.000Z</time>
      </trkpt>
      <trkpt lat="22.810985" lon="108.620585">
        <ele>56.452680</ele>
        <time>2026-08-14T03:15:36.000Z</time>
      </trkpt>
      <trkpt lat="22.811012" lon="108.620641">
        <ele>56.469029</ele>
        <time>2026-08-14T03:15:37.000Z</time>
      </trkpt>
      <trkpt lat="22.811037" lon="108.620695">
        <ele>56.484662</ele>
        <time>2026-08-14T03:15:38.000Z</time>
      </trkpt>
      <trkpt lat="22.811062" lon="108.620749">
        <ele>56.500294</ele>
        <time>2026-08-14T03:15:39.000Z</time>
      </trkpt>
      <trkpt lat="22.811087" lon="108.620803">
        <ele>56.515926</ele>
        <time>2026-08-14T03:15:40.000Z</time>
      </trkpt>
      <trkpt lat="22.811112" lon="108.620858">
        <ele>56.531790</ele>
        <time>2026-08-14T03:15:41.000Z</time>
      </trkpt>
      <trkpt lat="22.811138" lon="108.620913">
        <ele>56.547780</ele>
        <time>2026-08-14T03:15:42.000Z</time>
      </trkpt>
      <trkpt lat="22.811164" lon="108.620967">
        <ele>56.563540</ele>
        <time>2026-08-14T03:15:43.000Z</time>
      </trkpt>
      <trkpt lat="22.811187" lon="108.621022">
        <ele>56.579164</ele>
        <time>2026-08-14T03:15:44.000Z</time>
      </trkpt>
      <trkpt lat="22.811212" lon="108.621077">
        <ele>56.595028</ele>
        <time>2026-08-14T03:15:45.000Z</time>
      </trkpt>
      <trkpt lat="22.811238" lon="108.621132">
        <ele>56.611018</ele>
        <time>2026-08-14T03:15:46.000Z</time>
      </trkpt>
      <trkpt lat="22.811264" lon="108.621187">
        <ele>56.627008</ele>
        <time>2026-08-14T03:15:47.000Z</time>
      </trkpt>
      <trkpt lat="22.811288" lon="108.621242">
        <ele>56.642750</ele>
        <time>2026-08-14T03:15:48.000Z</time>
      </trkpt>
      <trkpt lat="22.811314" lon="108.621297">
        <ele>56.658740</ele>
        <time>2026-08-14T03:15:49.000Z</time>
      </trkpt>
      <trkpt lat="22.811338" lon="108.621351">
        <ele>56.674248</ele>
        <time>2026-08-14T03:15:50.000Z</time>
      </trkpt>
      <trkpt lat="22.811360" lon="108.621404">
        <ele>56.689285</ele>
        <time>2026-08-14T03:15:51.000Z</time>
      </trkpt>
      <trkpt lat="22.811383" lon="108.621456">
        <ele>56.704205</ele>
        <time>2026-08-14T03:15:52.000Z</time>
      </trkpt>
      <trkpt lat="22.811406" lon="108.621509">
        <ele>56.719359</ele>
        <time>2026-08-14T03:15:53.000Z</time>
      </trkpt>
      <trkpt lat="22.811429" lon="108.621561">
        <ele>56.734280</ele>
        <time>2026-08-14T03:15:54.000Z</time>
      </trkpt>
      <trkpt lat="22.811450" lon="108.621613">
        <ele>56.748966</ele>
        <time>2026-08-14T03:15:55.000Z</time>
      </trkpt>
      <trkpt lat="22.811472" lon="108.621667">
        <ele>56.764239</ele>
        <time>2026-08-14T03:15:56.000Z</time>
      </trkpt>
      <trkpt lat="22.811493" lon="108.621729">
        <ele>56.781327</ele>
        <time>2026-08-14T03:15:57.000Z</time>
      </trkpt>
      <trkpt lat="22.811512" lon="108.621782">
        <ele>56.796038</ele>
        <time>2026-08-14T03:15:58.000Z</time>
      </trkpt>
      <trkpt lat="22.811532" lon="108.621836">
        <ele>56.812513</ele>
        <time>2026-08-14T03:15:59.000Z</time>
      </trkpt>
      <trkpt lat="22.811551" lon="108.621891">
        <ele>56.832565</ele>
        <time>2026-08-14T03:16:00.000Z</time>
      </trkpt>
      <trkpt lat="22.811571" lon="108.621946">
        <ele>56.852751</ele>
        <time>2026-08-14T03:16:01.000Z</time>
      </trkpt>
      <trkpt lat="22.811593" lon="108.622001">
        <ele>56.873220</ele>
        <time>2026-08-14T03:16:02.000Z</time>
      </trkpt>
      <trkpt lat="22.811614" lon="108.622055">
        <ele>56.893230</ele>
        <time>2026-08-14T03:16:03.000Z</time>
      </trkpt>
      <trkpt lat="22.811637" lon="108.622105">
        <ele>56.912308</ele>
        <time>2026-08-14T03:16:04.000Z</time>
      </trkpt>
      <trkpt lat="22.811659" lon="108.622158">
        <ele>56.932152</ele>
        <time>2026-08-14T03:16:05.000Z</time>
      </trkpt>
      <trkpt lat="22.811679" lon="108.622212">
        <ele>56.952021</ele>
        <time>2026-08-14T03:16:06.000Z</time>
      </trkpt>
      <trkpt lat="22.811699" lon="108.622267">
        <ele>56.972206</ele>
        <time>2026-08-14T03:16:07.000Z</time>
      </trkpt>
      <trkpt lat="22.811719" lon="108.622321">
        <ele>56.992075</ele>
        <time>2026-08-14T03:16:08.000Z</time>
      </trkpt>
      <trkpt lat="22.811741" lon="108.622376">
        <ele>57.012544</ele>
        <time>2026-08-14T03:16:09.000Z</time>
      </trkpt>
      <trkpt lat="22.811763" lon="108.622431">
        <ele>57.033013</ele>
        <time>2026-08-14T03:16:10.000Z</time>
      </trkpt>
      <trkpt lat="22.811788" lon="108.622484">
        <ele>57.053339</ele>
        <time>2026-08-14T03:16:11.000Z</time>
      </trkpt>
      <trkpt lat="22.811812" lon="108.622537">
        <ele>57.073499</ele>
        <time>2026-08-14T03:16:12.000Z</time>
      </trkpt>
      <trkpt lat="22.811836" lon="108.622591">
        <ele>57.093966</ele>
        <time>2026-08-14T03:16:13.000Z</time>
      </trkpt>
      <trkpt lat="22.811862" lon="108.622645">
        <ele>57.114765</ele>
        <time>2026-08-14T03:16:14.000Z</time>
      </trkpt>
      <trkpt lat="22.811887" lon="108.622699">
        <ele>57.135396</ele>
        <time>2026-08-14T03:16:15.000Z</time>
      </trkpt>
      <trkpt lat="22.811908" lon="108.622755">
        <ele>57.156036</ele>
        <time>2026-08-14T03:16:16.000Z</time>
      </trkpt>
      <trkpt lat="22.811928" lon="108.622813">
        <ele>57.177178</ele>
        <time>2026-08-14T03:16:17.000Z</time>
      </trkpt>
      <trkpt lat="22.811947" lon="108.622870">
        <ele>57.197871</ele>
        <time>2026-08-14T03:16:18.000Z</time>
      </trkpt>
      <trkpt lat="22.811965" lon="108.622924">
        <ele>57.217476</ele>
        <time>2026-08-14T03:16:19.000Z</time>
      </trkpt>
      <trkpt lat="22.811985" lon="108.622978">
        <ele>57.237344</ele>
        <time>2026-08-14T03:16:20.000Z</time>
      </trkpt>
      <trkpt lat="22.812007" lon="108.623035">
        <ele>57.258441</ele>
        <time>2026-08-14T03:16:21.000Z</time>
      </trkpt>
      <trkpt lat="22.812028" lon="108.623091">
        <ele>57.279082</ele>
        <time>2026-08-14T03:16:22.000Z</time>
      </trkpt>
      <trkpt lat="22.812049" lon="108.623146">
        <ele>57.299406</ele>
        <time>2026-08-14T03:16:23.000Z</time>
      </trkpt>
      <trkpt lat="22.812068" lon="108.623201">
        <ele>57.319459</ele>
        <time>2026-08-14T03:16:24.000Z</time>
      </trkpt>
      <trkpt lat="22.812088" lon="108.623258">
        <ele>57.340281</ele>
        <time>2026-08-14T03:16:25.000Z</time>
      </trkpt>
      <trkpt lat="22.812107" lon="108.623315">
        <ele>57.360974</ele>
        <time>2026-08-14T03:16:26.000Z</time>
      </trkpt>
      <trkpt lat="22.812128" lon="108.623372">
        <ele>57.381931</ele>
        <time>2026-08-14T03:16:27.000Z</time>
      </trkpt>
      <trkpt lat="22.812148" lon="108.623428">
        <ele>57.402435</ele>
        <time>2026-08-14T03:16:28.000Z</time>
      </trkpt>
      <trkpt lat="22.812169" lon="108.623484">
        <ele>57.423075</ele>
        <time>2026-08-14T03:16:29.000Z</time>
      </trkpt>
      <trkpt lat="22.812191" lon="108.623541">
        <ele>57.444172</ele>
        <time>2026-08-14T03:16:30.000Z</time>
      </trkpt>
      <trkpt lat="22.812214" lon="108.623598">
        <ele>57.465415</ele>
        <time>2026-08-14T03:16:31.000Z</time>
      </trkpt>
      <trkpt lat="22.812235" lon="108.623656">
        <ele>57.487113</ele>
        <time>2026-08-14T03:16:32.000Z</time>
      </trkpt>
      <trkpt lat="22.812256" lon="108.623713">
        <ele>57.508709</ele>
        <time>2026-08-14T03:16:33.000Z</time>
      </trkpt>
      <trkpt lat="22.812276" lon="108.623770">
        <ele>57.530167</ele>
        <time>2026-08-14T03:16:34.000Z</time>
      </trkpt>
      <trkpt lat="22.812297" lon="108.623827">
        <ele>57.551763</ele>
        <time>2026-08-14T03:16:35.000Z</time>
      </trkpt>
      <trkpt lat="22.812318" lon="108.623883">
        <ele>57.573033</ele>
        <time>2026-08-14T03:16:36.000Z</time>
      </trkpt>
      <trkpt lat="22.812338" lon="108.623940">
        <ele>57.594491</ele>
        <time>2026-08-14T03:16:37.000Z</time>
      </trkpt>
      <trkpt lat="22.812360" lon="108.623994">
        <ele>57.615263</ele>
        <time>2026-08-14T03:16:38.000Z</time>
      </trkpt>
      <trkpt lat="22.812381" lon="108.624051">
        <ele>57.636859</ele>
        <time>2026-08-14T03:16:39.000Z</time>
      </trkpt>
      <trkpt lat="22.812400" lon="108.624107">
        <ele>57.657854</ele>
        <time>2026-08-14T03:16:40.000Z</time>
      </trkpt>
      <trkpt lat="22.812419" lon="108.624162">
        <ele>57.678518</ele>
        <time>2026-08-14T03:16:41.000Z</time>
      </trkpt>
      <trkpt lat="22.812438" lon="108.624216">
        <ele>57.698854</ele>
        <time>2026-08-14T03:16:42.000Z</time>
      </trkpt>
      <trkpt lat="22.812459" lon="108.624272">
        <ele>57.720124</ele>
        <time>2026-08-14T03:16:43.000Z</time>
      </trkpt>
      <trkpt lat="22.812479" lon="108.624329">
        <ele>57.741582</ele>
        <time>2026-08-14T03:16:44.000Z</time>
      </trkpt>
      <trkpt lat="22.812500" lon="108.624384">
        <ele>57.762526</ele>
        <time>2026-08-14T03:16:45.000Z</time>
      </trkpt>
      <trkpt lat="22.812521" lon="108.624442">
        <ele>57.784450</ele>
        <time>2026-08-14T03:16:46.000Z</time>
      </trkpt>
      <trkpt lat="22.812542" lon="108.624499">
        <ele>57.806046</ele>
        <time>2026-08-14T03:16:47.000Z</time>
      </trkpt>
      <trkpt lat="22.812561" lon="108.624556">
        <ele>57.827371</ele>
        <time>2026-08-14T03:16:48.000Z</time>
      </trkpt>
      <trkpt lat="22.812580" lon="108.624611">
        <ele>57.848036</ele>
        <time>2026-08-14T03:16:49.000Z</time>
      </trkpt>
      <trkpt lat="22.812600" lon="108.624666">
        <ele>57.868837</ele>
        <time>2026-08-14T03:16:50.000Z</time>
      </trkpt>
      <trkpt lat="22.812621" lon="108.624720">
        <ele>57.889457</ele>
        <time>2026-08-14T03:16:51.000Z</time>
      </trkpt>
      <trkpt lat="22.812641" lon="108.624775">
        <ele>57.910259</ele>
        <time>2026-08-14T03:16:52.000Z</time>
      </trkpt>
      <trkpt lat="22.812660" lon="108.624828">
        <ele>57.930266</ele>
        <time>2026-08-14T03:16:53.000Z</time>
      </trkpt>
      <trkpt lat="22.812680" lon="108.624882">
        <ele>57.950741</ele>
        <time>2026-08-14T03:16:54.000Z</time>
      </trkpt>
      <trkpt lat="22.812700" lon="108.624937">
        <ele>57.971543</ele>
        <time>2026-08-14T03:16:55.000Z</time>
      </trkpt>
      <trkpt lat="22.812722" lon="108.624992">
        <ele>57.992636</ele>
        <time>2026-08-14T03:16:56.000Z</time>
      </trkpt>
      <trkpt lat="22.812743" lon="108.625048">
        <ele>58.013906</ele>
        <time>2026-08-14T03:16:57.000Z</time>
      </trkpt>
      <trkpt lat="22.812762" lon="108.625102">
        <ele>58.034242</ele>
        <time>2026-08-14T03:16:58.000Z</time>
      </trkpt>
      <trkpt lat="22.812779" lon="108.625157">
        <ele>58.054651</ele>
        <time>2026-08-14T03:16:59.000Z</time>
      </trkpt>
      <trkpt lat="22.812798" lon="108.625212">
        <ele>58.075316</ele>
        <time>2026-08-14T03:17:00.000Z</time>
      </trkpt>
      <trkpt lat="22.812817" lon="108.625266">
        <ele>58.095651</ele>
        <time>2026-08-14T03:17:01.000Z</time>
      </trkpt>
      <trkpt lat="22.812839" lon="108.625319">
        <ele>58.116101</ele>
        <time>2026-08-14T03:17:02.000Z</time>
      </trkpt>
      <trkpt lat="22.812861" lon="108.625371">
        <ele>58.136231</ele>
        <time>2026-08-14T03:17:03.000Z</time>
      </trkpt>
      <trkpt lat="22.812885" lon="108.625425">
        <ele>58.157323</ele>
        <time>2026-08-14T03:17:04.000Z</time>
      </trkpt>
      <trkpt lat="22.812907" lon="108.625479">
        <ele>58.168392</ele>
        <time>2026-08-14T03:17:05.000Z</time>
      </trkpt>
      <trkpt lat="22.812928" lon="108.625533">
        <ele>58.178350</ele>
        <time>2026-08-14T03:17:06.000Z</time>
      </trkpt>
      <trkpt lat="22.812948" lon="108.625587">
        <ele>58.188239</ele>
        <time>2026-08-14T03:17:07.000Z</time>
      </trkpt>
      <trkpt lat="22.812966" lon="108.625643">
        <ele>58.198315</ele>
        <time>2026-08-14T03:17:08.000Z</time>
      </trkpt>
      <trkpt lat="22.812984" lon="108.625697">
        <ele>58.208072</ele>
        <time>2026-08-14T03:17:09.000Z</time>
      </trkpt>
      <trkpt lat="22.813002" lon="108.625752">
        <ele>58.217989</ele>
        <time>2026-08-14T03:17:10.000Z</time>
      </trkpt>
      <trkpt lat="22.813024" lon="108.625806">
        <ele>58.228020</ele>
        <time>2026-08-14T03:17:11.000Z</time>
      </trkpt>
      <trkpt lat="22.813044" lon="108.625861">
        <ele>58.238066</ele>
        <time>2026-08-14T03:17:12.000Z</time>
      </trkpt>
      <trkpt lat="22.813064" lon="108.625916">
        <ele>58.248112</ele>
        <time>2026-08-14T03:17:13.000Z</time>
      </trkpt>
      <trkpt lat="22.813084" lon="108.625967">
        <ele>58.257529</ele>
        <time>2026-08-14T03:17:14.000Z</time>
      </trkpt>
      <trkpt lat="22.813104" lon="108.626021">
        <ele>58.267417</ele>
        <time>2026-08-14T03:17:15.000Z</time>
      </trkpt>
      <trkpt lat="22.813124" lon="108.626078">
        <ele>58.277780</ele>
        <time>2026-08-14T03:17:16.000Z</time>
      </trkpt>
      <trkpt lat="22.813144" lon="108.626134">
        <ele>58.287984</ele>
        <time>2026-08-14T03:17:17.000Z</time>
      </trkpt>
      <trkpt lat="22.813165" lon="108.626191">
        <ele>58.298414</ele>
        <time>2026-08-14T03:17:18.000Z</time>
      </trkpt>
      <trkpt lat="22.813187" lon="108.626247">
        <ele>58.308757</ele>
        <time>2026-08-14T03:17:19.000Z</time>
      </trkpt>
      <trkpt lat="22.813209" lon="108.626304">
        <ele>58.319257</ele>
        <time>2026-08-14T03:17:20.000Z</time>
      </trkpt>
      <trkpt lat="22.813230" lon="108.626361">
        <ele>58.329687</ele>
        <time>2026-08-14T03:17:21.000Z</time>
      </trkpt>
      <trkpt lat="22.813253" lon="108.626418">
        <ele>58.340259</ele>
        <time>2026-08-14T03:17:22.000Z</time>
      </trkpt>
      <trkpt lat="22.813275" lon="108.626476">
        <ele>58.350915</ele>
        <time>2026-08-14T03:17:23.000Z</time>
      </trkpt>
      <trkpt lat="22.813296" lon="108.626534">
        <ele>58.361503</ele>
        <time>2026-08-14T03:17:24.000Z</time>
      </trkpt>
      <trkpt lat="22.813317" lon="108.626592">
        <ele>58.372091</ele>
        <time>2026-08-14T03:17:25.000Z</time>
      </trkpt>
      <trkpt lat="22.813338" lon="108.626651">
        <ele>58.382837</ele>
        <time>2026-08-14T03:17:26.000Z</time>
      </trkpt>
      <trkpt lat="22.813358" lon="108.626710">
        <ele>58.393518</ele>
        <time>2026-08-14T03:17:27.000Z</time>
      </trkpt>
      <trkpt lat="22.813378" lon="108.626769">
        <ele>58.404199</ele>
        <time>2026-08-14T03:17:28.000Z</time>
      </trkpt>
      <trkpt lat="22.813398" lon="108.626828">
        <ele>58.414880</ele>
        <time>2026-08-14T03:17:29.000Z</time>
      </trkpt>
      <trkpt lat="22.813418" lon="108.626888">
        <ele>58.425721</ele>
        <time>2026-08-14T03:17:30.000Z</time>
      </trkpt>
      <trkpt lat="22.813437" lon="108.626948">
        <ele>58.436500</ele>
        <time>2026-08-14T03:17:31.000Z</time>
      </trkpt>
      <trkpt lat="22.813458" lon="108.627007">
        <ele>58.447246</ele>
        <time>2026-08-14T03:17:32.000Z</time>
      </trkpt>
      <trkpt lat="22.813479" lon="108.627066">
        <ele>58.457993</ele>
        <time>2026-08-14T03:17:33.000Z</time>
      </trkpt>
      <trkpt lat="22.813500" lon="108.627124">
        <ele>58.468580</ele>
        <time>2026-08-14T03:17:34.000Z</time>
      </trkpt>
      <trkpt lat="22.813521" lon="108.627183">
        <ele>58.479326</ele>
        <time>2026-08-14T03:17:35.000Z</time>
      </trkpt>
      <trkpt lat="22.813543" lon="108.627241">
        <ele>58.489983</ele>
        <time>2026-08-14T03:17:36.000Z</time>
      </trkpt>
      <trkpt lat="22.813567" lon="108.627298">
        <ele>58.501339</ele>
        <time>2026-08-14T03:17:37.000Z</time>
      </trkpt>
      <trkpt lat="22.813591" lon="108.627355">
        <ele>58.512760</ele>
        <time>2026-08-14T03:17:38.000Z</time>
      </trkpt>
      <trkpt lat="22.813614" lon="108.627411">
        <ele>58.523934</ele>
        <time>2026-08-14T03:17:39.000Z</time>
      </trkpt>
      <trkpt lat="22.813637" lon="108.627469">
        <ele>58.535441</ele>
        <time>2026-08-14T03:17:40.000Z</time>
      </trkpt>
      <trkpt lat="22.813659" lon="108.627525">
        <ele>58.546536</ele>
        <time>2026-08-14T03:17:41.000Z</time>
      </trkpt>
      <trkpt lat="22.813681" lon="108.627582">
        <ele>58.557798</ele>
        <time>2026-08-14T03:17:42.000Z</time>
      </trkpt>
      <trkpt lat="22.813701" lon="108.627639">
        <ele>58.568914</ele>
        <time>2026-08-14T03:17:43.000Z</time>
      </trkpt>
      <trkpt lat="22.813721" lon="108.627697">
        <ele>58.580200</ele>
        <time>2026-08-14T03:17:44.000Z</time>
      </trkpt>
      <trkpt lat="22.813739" lon="108.627754">
        <ele>58.591181</ele>
        <time>2026-08-14T03:17:45.000Z</time>
      </trkpt>
      <trkpt lat="22.813758" lon="108.627812">
        <ele>58.602399</ele>
        <time>2026-08-14T03:17:46.000Z</time>
      </trkpt>
      <trkpt lat="22.813776" lon="108.627870">
        <ele>58.613553</ele>
        <time>2026-08-14T03:17:47.000Z</time>
      </trkpt>
      <trkpt lat="22.813797" lon="108.627927">
        <ele>58.624741</ele>
        <time>2026-08-14T03:17:48.000Z</time>
      </trkpt>
      <trkpt lat="22.813819" lon="108.627984">
        <ele>58.636003</ele>
        <time>2026-08-14T03:17:49.000Z</time>
      </trkpt>
      <trkpt lat="22.813841" lon="108.628041">
        <ele>58.647265</ele>
        <time>2026-08-14T03:17:50.000Z</time>
      </trkpt>
      <trkpt lat="22.813861" lon="108.628098">
        <ele>58.658381</ele>
        <time>2026-08-14T03:17:51.000Z</time>
      </trkpt>
      <trkpt lat="22.813881" lon="108.628156">
        <ele>58.669667</ele>
        <time>2026-08-14T03:17:52.000Z</time>
      </trkpt>
      <trkpt lat="22.813902" lon="108.628215">
        <ele>58.681194</ele>
        <time>2026-08-14T03:17:53.000Z</time>
      </trkpt>
      <trkpt lat="22.813922" lon="108.628273">
        <ele>58.692480</ele>
        <time>2026-08-14T03:17:54.000Z</time>
      </trkpt>
      <trkpt lat="22.813943" lon="108.628330">
        <ele>58.703668</ele>
        <time>2026-08-14T03:17:55.000Z</time>
      </trkpt>
      <trkpt lat="22.813965" lon="108.628389">
        <ele>58.715267</ele>
        <time>2026-08-14T03:17:56.000Z</time>
      </trkpt>
      <trkpt lat="22.813987" lon="108.628446">
        <ele>58.726529</ele>
        <time>2026-08-14T03:17:57.000Z</time>
      </trkpt>
      <trkpt lat="22.814009" lon="108.628503">
        <ele>58.737792</ele>
        <time>2026-08-14T03:17:58.000Z</time>
      </trkpt>
      <trkpt lat="22.814030" lon="108.628561">
        <ele>58.749149</ele>
        <time>2026-08-14T03:17:59.000Z</time>
      </trkpt>
      <trkpt lat="22.814051" lon="108.628619">
        <ele>58.760506</ele>
        <time>2026-08-14T03:18:00.000Z</time>
      </trkpt>
      <trkpt lat="22.814073" lon="108.628677">
        <ele>58.771936</ele>
        <time>2026-08-14T03:18:01.000Z</time>
      </trkpt>
      <trkpt lat="22.814095" lon="108.628735">
        <ele>58.783367</ele>
        <time>2026-08-14T03:18:02.000Z</time>
      </trkpt>
      <trkpt lat="22.814116" lon="108.628794">
        <ele>58.794894</ele>
        <time>2026-08-14T03:18:03.000Z</time>
      </trkpt>
      <trkpt lat="22.814136" lon="108.628852">
        <ele>58.806180</ele>
        <time>2026-08-14T03:18:04.000Z</time>
      </trkpt>
      <trkpt lat="22.814152" lon="108.628909">
        <ele>58.817039</ele>
        <time>2026-08-14T03:18:05.000Z</time>
      </trkpt>
      <trkpt lat="22.814169" lon="108.628967">
        <ele>58.828132</ele>
        <time>2026-08-14T03:18:06.000Z</time>
      </trkpt>
      <trkpt lat="22.814185" lon="108.629026">
        <ele>58.839340</ele>
        <time>2026-08-14T03:18:07.000Z</time>
      </trkpt>
      <trkpt lat="22.814203" lon="108.629084">
        <ele>58.878721</ele>
        <time>2026-08-14T03:18:08.000Z</time>
      </trkpt>
      <trkpt lat="22.814222" lon="108.629142">
        <ele>58.969301</ele>
        <time>2026-08-14T03:18:09.000Z</time>
      </trkpt>
      <trkpt lat="22.814242" lon="108.629198">
        <ele>59.057678</ele>
        <time>2026-08-14T03:18:10.000Z</time>
      </trkpt>
      <trkpt lat="22.814262" lon="108.629255">
        <ele>59.147428</ele>
        <time>2026-08-14T03:18:11.000Z</time>
      </trkpt>
      <trkpt lat="22.814282" lon="108.629311">
        <ele>59.235805</ele>
        <time>2026-08-14T03:18:12.000Z</time>
      </trkpt>
      <trkpt lat="22.814304" lon="108.629367">
        <ele>59.325385</ele>
        <time>2026-08-14T03:18:13.000Z</time>
      </trkpt>
      <trkpt lat="22.814325" lon="108.629425">
        <ele>59.417084</ele>
        <time>2026-08-14T03:18:14.000Z</time>
      </trkpt>
      <trkpt lat="22.814344" lon="108.629481">
        <ele>59.504896</ele>
        <time>2026-08-14T03:18:15.000Z</time>
      </trkpt>
      <trkpt lat="22.814365" lon="108.629537">
        <ele>59.593862</ele>
        <time>2026-08-14T03:18:16.000Z</time>
      </trkpt>
      <trkpt lat="22.814385" lon="108.629594">
        <ele>59.683613</ele>
        <time>2026-08-14T03:18:17.000Z</time>
      </trkpt>
      <trkpt lat="22.814403" lon="108.629648">
        <ele>59.768113</ele>
        <time>2026-08-14T03:18:18.000Z</time>
      </trkpt>
      <trkpt lat="22.814423" lon="108.629701">
        <ele>59.852388</ele>
        <time>2026-08-14T03:18:19.000Z</time>
      </trkpt>
      <trkpt lat="22.814443" lon="108.629753">
        <ele>59.935304</ele>
        <time>2026-08-14T03:18:20.000Z</time>
      </trkpt>
      <trkpt lat="22.814462" lon="108.629805">
        <ele>60.017617</ele>
        <time>2026-08-14T03:18:21.000Z</time>
      </trkpt>
      <trkpt lat="22.814481" lon="108.629857">
        <ele>60.099931</ele>
        <time>2026-08-14T03:18:22.000Z</time>
      </trkpt>
      <trkpt lat="22.814500" lon="108.629907">
        <ele>60.179516</ele>
        <time>2026-08-14T03:18:23.000Z</time>
      </trkpt>
      <trkpt lat="22.814519" lon="108.629956">
        <ele>60.257743</ele>
        <time>2026-08-14T03:18:24.000Z</time>
      </trkpt>
      <trkpt lat="22.814536" lon="108.630004">
        <ele>60.333412</ele>
        <time>2026-08-14T03:18:25.000Z</time>
      </trkpt>
      <trkpt lat="22.814553" lon="108.630053">
        <ele>60.410457</ele>
        <time>2026-08-14T03:18:26.000Z</time>
      </trkpt>
      <trkpt lat="22.814570" lon="108.630103">
        <ele>60.488880</ele>
        <time>2026-08-14T03:18:27.000Z</time>
      </trkpt>
      <trkpt lat="22.814589" lon="108.630151">
        <ele>60.565752</ele>
        <time>2026-08-14T03:18:28.000Z</time>
      </trkpt>
      <trkpt lat="22.814607" lon="108.630197">
        <ele>60.639291</ele>
        <time>2026-08-14T03:18:29.000Z</time>
      </trkpt>
      <trkpt lat="22.814626" lon="108.630243">
        <ele>60.713468</ele>
        <time>2026-08-14T03:18:30.000Z</time>
      </trkpt>
      <trkpt lat="22.814643" lon="108.630291">
        <ele>60.789137</ele>
        <time>2026-08-14T03:18:31.000Z</time>
      </trkpt>
      <trkpt lat="22.814660" lon="108.630338">
        <ele>60.863435</ele>
        <time>2026-08-14T03:18:32.000Z</time>
      </trkpt>
      <trkpt lat="22.814677" lon="108.630384">
        <ele>60.936364</ele>
        <time>2026-08-14T03:18:33.000Z</time>
      </trkpt>
      <trkpt lat="22.814693" lon="108.630430">
        <ele>61.008715</ele>
        <time>2026-08-14T03:18:34.000Z</time>
      </trkpt>
      <trkpt lat="22.814710" lon="108.630474">
        <ele>61.078921</ele>
        <time>2026-08-14T03:18:35.000Z</time>
      </trkpt>
      <trkpt lat="22.814729" lon="108.630517">
        <ele>61.149093</ele>
        <time>2026-08-14T03:18:36.000Z</time>
      </trkpt>
      <trkpt lat="22.814748" lon="108.630562">
        <ele>61.221929</ele>
        <time>2026-08-14T03:18:37.000Z</time>
      </trkpt>
      <trkpt lat="22.814766" lon="108.630607">
        <ele>61.294115</ele>
        <time>2026-08-14T03:18:38.000Z</time>
      </trkpt>
      <trkpt lat="22.814781" lon="108.630652">
        <ele>61.364532</ele>
        <time>2026-08-14T03:18:39.000Z</time>
      </trkpt>
      <trkpt lat="22.814798" lon="108.630697">
        <ele>61.436098</ele>
        <time>2026-08-14T03:18:40.000Z</time>
      </trkpt>
      <trkpt lat="22.814816" lon="108.630739">
        <ele>61.504257</ele>
        <time>2026-08-14T03:18:41.000Z</time>
      </trkpt>
      <trkpt lat="22.814834" lon="108.630783">
        <ele>61.575096</ele>
        <time>2026-08-14T03:18:42.000Z</time>
      </trkpt>
      <trkpt lat="22.814852" lon="108.630825">
        <ele>61.643255</ele>
        <time>2026-08-14T03:18:43.000Z</time>
      </trkpt>
      <trkpt lat="22.814868" lon="108.630867">
        <ele>61.710131</ele>
        <time>2026-08-14T03:18:44.000Z</time>
      </trkpt>
      <trkpt lat="22.814883" lon="108.630907">
        <ele>61.820224</ele>
        <time>2026-08-14T03:18:45.000Z</time>
      </trkpt>
      <trkpt lat="22.814897" lon="108.630946">
        <ele>61.933265</ele>
        <time>2026-08-14T03:18:46.000Z</time>
      </trkpt>
      <trkpt lat="22.814913" lon="108.630984">
        <ele>62.046100</ele>
        <time>2026-08-14T03:18:47.000Z</time>
      </trkpt>
      <trkpt lat="22.814926" lon="108.631021">
        <ele>62.153047</ele>
        <time>2026-08-14T03:18:48.000Z</time>
      </trkpt>
      <trkpt lat="22.814941" lon="108.631058">
        <ele>62.262219</ele>
        <time>2026-08-14T03:18:49.000Z</time>
      </trkpt>
      <trkpt lat="22.814957" lon="108.631096">
        <ele>62.375054</ele>
        <time>2026-08-14T03:18:50.000Z</time>
      </trkpt>
      <trkpt lat="22.814972" lon="108.631134">
        <ele>62.486703</ele>
        <time>2026-08-14T03:18:51.000Z</time>
      </trkpt>
      <trkpt lat="22.814987" lon="108.631172">
        <ele>62.598352</ele>
        <time>2026-08-14T03:18:52.000Z</time>
      </trkpt>
      <trkpt lat="22.815003" lon="108.631212">
        <ele>62.716122</ele>
        <time>2026-08-14T03:18:53.000Z</time>
      </trkpt>
      <trkpt lat="22.815017" lon="108.631250">
        <ele>62.826651</ele>
        <time>2026-08-14T03:18:54.000Z</time>
      </trkpt>
      <trkpt lat="22.815033" lon="108.631286">
        <ele>62.934595</ele>
        <time>2026-08-14T03:18:55.000Z</time>
      </trkpt>
      <trkpt lat="22.815051" lon="108.631323">
        <ele>63.047593</ele>
        <time>2026-08-14T03:18:56.000Z</time>
      </trkpt>
      <trkpt lat="22.815071" lon="108.631357">
        <ele>63.156529</ele>
        <time>2026-08-14T03:18:57.000Z</time>
      </trkpt>
      <trkpt lat="22.815088" lon="108.631393">
        <ele>63.265778</ele>
        <time>2026-08-14T03:18:58.000Z</time>
      </trkpt>
      <trkpt lat="22.815103" lon="108.631431">
        <ele>63.377427</ele>
        <time>2026-08-14T03:18:59.000Z</time>
      </trkpt>
      <trkpt lat="22.815117" lon="108.631468">
        <ele>63.485453</ele>
        <time>2026-08-14T03:19:00.000Z</time>
      </trkpt>
      <trkpt lat="22.815135" lon="108.631505">
        <ele>63.598450</ele>
        <time>2026-08-14T03:19:01.000Z</time>
      </trkpt>
      <trkpt lat="22.815151" lon="108.631541">
        <ele>63.706395</ele>
        <time>2026-08-14T03:19:02.000Z</time>
      </trkpt>
      <trkpt lat="22.815168" lon="108.631577">
        <ele>63.815644</ele>
        <time>2026-08-14T03:19:03.000Z</time>
      </trkpt>
      <trkpt lat="22.815184" lon="108.631613">
        <ele>63.923589</ele>
        <time>2026-08-14T03:19:04.000Z</time>
      </trkpt>
      <trkpt lat="22.815199" lon="108.631651">
        <ele>64.035238</ele>
        <time>2026-08-14T03:19:05.000Z</time>
      </trkpt>
      <trkpt lat="22.815213" lon="108.631688">
        <ele>64.143263</ele>
        <time>2026-08-14T03:19:06.000Z</time>
      </trkpt>
      <trkpt lat="22.815228" lon="108.631723">
        <ele>64.247512</ele>
        <time>2026-08-14T03:19:07.000Z</time>
      </trkpt>
      <trkpt lat="22.815243" lon="108.631758">
        <ele>64.351762</ele>
        <time>2026-08-14T03:19:08.000Z</time>
      </trkpt>
      <trkpt lat="22.815259" lon="108.631794">
        <ele>64.459706</ele>
        <time>2026-08-14T03:19:09.000Z</time>
      </trkpt>
      <trkpt lat="22.815274" lon="108.631831">
        <ele>64.568878</ele>
        <time>2026-08-14T03:19:10.000Z</time>
      </trkpt>
      <trkpt lat="22.815288" lon="108.631868">
        <ele>64.676903</ele>
        <time>2026-08-14T03:19:11.000Z</time>
      </trkpt>
      <trkpt lat="22.815303" lon="108.631905">
        <ele>64.786074</ele>
        <time>2026-08-14T03:19:12.000Z</time>
      </trkpt>
      <trkpt lat="22.815318" lon="108.631942">
        <ele>64.895246</ele>
        <time>2026-08-14T03:19:13.000Z</time>
      </trkpt>
      <trkpt lat="22.815333" lon="108.631977">
        <ele>64.999495</ele>
        <time>2026-08-14T03:19:14.000Z</time>
      </trkpt>
      <trkpt lat="22.815349" lon="108.632012">
        <ele>65.105013</ele>
        <time>2026-08-14T03:19:15.000Z</time>
      </trkpt>
      <trkpt lat="22.815367" lon="108.632046">
        <ele>65.210912</ele>
        <time>2026-08-14T03:19:16.000Z</time>
      </trkpt>
      <trkpt lat="22.815386" lon="108.632080">
        <ele>65.318300</ele>
        <time>2026-08-14T03:19:17.000Z</time>
      </trkpt>
      <trkpt lat="22.815404" lon="108.632117">
        <ele>65.431298</ele>
        <time>2026-08-14T03:19:18.000Z</time>
      </trkpt>
      <trkpt lat="22.815421" lon="108.632153">
        <ele>65.540547</ele>
        <time>2026-08-14T03:19:19.000Z</time>
      </trkpt>
      <trkpt lat="22.815437" lon="108.632189">
        <ele>65.648491</ele>
        <time>2026-08-14T03:19:20.000Z</time>
      </trkpt>
      <trkpt lat="22.815452" lon="108.632225">
        <ele>65.755196</ele>
        <time>2026-08-14T03:19:21.000Z</time>
      </trkpt>
      <trkpt lat="22.815469" lon="108.632263">
        <ele>65.869279</ele>
        <time>2026-08-14T03:19:22.000Z</time>
      </trkpt>
      <trkpt lat="22.815488" lon="108.632300">
        <ele>65.983673</ele>
        <time>2026-08-14T03:19:23.000Z</time>
      </trkpt>
      <trkpt lat="22.815506" lon="108.632336">
        <ele>66.094289</ele>
        <time>2026-08-14T03:19:24.000Z</time>
      </trkpt>
      <trkpt lat="22.815524" lon="108.632372">
        <ele>66.204904</ele>
        <time>2026-08-14T03:19:25.000Z</time>
      </trkpt>
      <trkpt lat="22.815541" lon="108.632407">
        <ele>66.311757</ele>
        <time>2026-08-14T03:19:26.000Z</time>
      </trkpt>
      <trkpt lat="22.815560" lon="108.632445">
        <ele>66.428518</ele>
        <time>2026-08-14T03:19:27.000Z</time>
      </trkpt>
      <trkpt lat="22.815577" lon="108.632483">
        <ele>66.542601</ele>
        <time>2026-08-14T03:19:28.000Z</time>
      </trkpt>
      <trkpt lat="22.815593" lon="108.632520">
        <ele>66.652984</ele>
        <time>2026-08-14T03:19:29.000Z</time>
      </trkpt>
      <trkpt lat="22.815607" lon="108.632557">
        <ele>66.761009</ele>
        <time>2026-08-14T03:19:30.000Z</time>
      </trkpt>
      <trkpt lat="22.815623" lon="108.632594">
        <ele>66.871392</ele>
        <time>2026-08-14T03:19:31.000Z</time>
      </trkpt>
      <trkpt lat="22.815639" lon="108.632630">
        <ele>66.979337</ele>
        <time>2026-08-14T03:19:32.000Z</time>
      </trkpt>
      <trkpt lat="22.815655" lon="108.632667">
        <ele>67.084803</ele>
        <time>2026-08-14T03:19:33.000Z</time>
      </trkpt>
      <trkpt lat="22.815673" lon="108.632704">
        <ele>67.192323</ele>
        <time>2026-08-14T03:19:34.000Z</time>
      </trkpt>
      <trkpt lat="22.815690" lon="108.632740">
        <ele>67.296277</ele>
        <time>2026-08-14T03:19:35.000Z</time>
      </trkpt>
      <trkpt lat="22.815706" lon="108.632778">
        <ele>67.403643</ele>
        <time>2026-08-14T03:19:36.000Z</time>
      </trkpt>
      <trkpt lat="22.815723" lon="108.632814">
        <ele>67.507598</ele>
        <time>2026-08-14T03:19:37.000Z</time>
      </trkpt>
      <trkpt lat="22.815740" lon="108.632850">
        <ele>67.611552</ele>
        <time>2026-08-14T03:19:38.000Z</time>
      </trkpt>
      <trkpt lat="22.815758" lon="108.632886">
        <ele>67.716806</ele>
        <time>2026-08-14T03:19:39.000Z</time>
      </trkpt>
      <trkpt lat="22.815775" lon="108.632923">
        <ele>67.823054</ele>
        <time>2026-08-14T03:19:40.000Z</time>
      </trkpt>
      <trkpt lat="22.815790" lon="108.632959">
        <ele>67.924587</ele>
        <time>2026-08-14T03:19:41.000Z</time>
      </trkpt>
      <trkpt lat="22.815807" lon="108.632995">
        <ele>68.028541</ele>
        <time>2026-08-14T03:19:42.000Z</time>
      </trkpt>
      <trkpt lat="22.815824" lon="108.633032">
        <ele>68.134789</ele>
        <time>2026-08-14T03:19:43.000Z</time>
      </trkpt>
      <trkpt lat="22.815841" lon="108.633068">
        <ele>68.238743</ele>
        <time>2026-08-14T03:19:44.000Z</time>
      </trkpt>
      <trkpt lat="22.815857" lon="108.633105">
        <ele>68.343777</ele>
        <time>2026-08-14T03:19:45.000Z</time>
      </trkpt>
      <trkpt lat="22.815874" lon="108.633142">
        <ele>68.450025</ele>
        <time>2026-08-14T03:19:46.000Z</time>
      </trkpt>
      <trkpt lat="22.815890" lon="108.633180">
        <ele>68.557391</ele>
        <time>2026-08-14T03:19:47.000Z</time>
      </trkpt>
      <trkpt lat="22.815904" lon="108.633217">
        <ele>68.660180</ele>
        <time>2026-08-14T03:19:48.000Z</time>
      </trkpt>
      <trkpt lat="22.815918" lon="108.633255">
        <ele>68.765351</ele>
        <time>2026-08-14T03:19:49.000Z</time>
      </trkpt>
      <trkpt lat="22.815934" lon="108.633290">
        <ele>68.865755</ele>
        <time>2026-08-14T03:19:50.000Z</time>
      </trkpt>
      <trkpt lat="22.815950" lon="108.633324">
        <ele>68.963864</ele>
        <time>2026-08-14T03:19:51.000Z</time>
      </trkpt>
      <trkpt lat="22.815966" lon="108.633360">
        <ele>69.066576</ele>
        <time>2026-08-14T03:19:52.000Z</time>
      </trkpt>
      <trkpt lat="22.815984" lon="108.633397">
        <ele>69.174097</ele>
        <time>2026-08-14T03:19:53.000Z</time>
      </trkpt>
      <trkpt lat="22.816002" lon="108.633430">
        <ele>69.272643</ele>
        <time>2026-08-14T03:19:54.000Z</time>
      </trkpt>
      <trkpt lat="22.816017" lon="108.633466">
        <ele>69.374176</ele>
        <time>2026-08-14T03:19:55.000Z</time>
      </trkpt>
      <trkpt lat="22.816035" lon="108.633501">
        <ele>69.477178</ele>
        <time>2026-08-14T03:19:56.000Z</time>
      </trkpt>
      <trkpt lat="22.816052" lon="108.633537">
        <ele>69.581132</ele>
        <time>2026-08-14T03:19:57.000Z</time>
      </trkpt>
      <trkpt lat="22.816068" lon="108.633574">
        <ele>69.686166</ele>
        <time>2026-08-14T03:19:58.000Z</time>
      </trkpt>
      <trkpt lat="22.816087" lon="108.633613">
        <ele>69.799533</ele>
        <time>2026-08-14T03:19:59.000Z</time>
      </trkpt>
      <trkpt lat="22.816107" lon="108.633650">
        <ele>69.909767</ele>
        <time>2026-08-14T03:20:00.000Z</time>
      </trkpt>
      <trkpt lat="22.816129" lon="108.633687">
        <ele>70.022924</ele>
        <time>2026-08-14T03:20:01.000Z</time>
      </trkpt>
      <trkpt lat="22.816144" lon="108.633723">
        <ele>70.124457</ele>
        <time>2026-08-14T03:20:02.000Z</time>
      </trkpt>
      <trkpt lat="22.816156" lon="108.633762">
        <ele>70.230123</ele>
        <time>2026-08-14T03:20:03.000Z</time>
      </trkpt>
      <trkpt lat="22.816171" lon="108.633797">
        <ele>70.329319</ele>
        <time>2026-08-14T03:20:04.000Z</time>
      </trkpt>
      <trkpt lat="22.816187" lon="108.633832">
        <ele>70.429723</ele>
        <time>2026-08-14T03:20:05.000Z</time>
      </trkpt>
      <trkpt lat="22.816203" lon="108.633868">
        <ele>70.532436</ele>
        <time>2026-08-14T03:20:06.000Z</time>
      </trkpt>
      <trkpt lat="22.816217" lon="108.633903">
        <ele>70.630489</ele>
        <time>2026-08-14T03:20:07.000Z</time>
      </trkpt>
      <trkpt lat="22.816232" lon="108.633940">
        <ele>70.734369</ele>
        <time>2026-08-14T03:20:08.000Z</time>
      </trkpt>
      <trkpt lat="22.816247" lon="108.633976">
        <ele>70.835902</ele>
        <time>2026-08-14T03:20:09.000Z</time>
      </trkpt>
      <trkpt lat="22.816263" lon="108.634012">
        <ele>70.938614</ele>
        <time>2026-08-14T03:20:10.000Z</time>
      </trkpt>
      <trkpt lat="22.816280" lon="108.634047">
        <ele>71.040288</ele>
        <time>2026-08-14T03:20:11.000Z</time>
      </trkpt>
      <trkpt lat="22.816294" lon="108.634082">
        <ele>71.138341</ele>
        <time>2026-08-14T03:20:12.000Z</time>
      </trkpt>
      <trkpt lat="22.816311" lon="108.634118">
        <ele>71.242295</ele>
        <time>2026-08-14T03:20:13.000Z</time>
      </trkpt>
      <trkpt lat="22.816328" lon="108.634155">
        <ele>71.348543</ele>
        <time>2026-08-14T03:20:14.000Z</time>
      </trkpt>
      <trkpt lat="22.816343" lon="108.634191">
        <ele>71.450075</ele>
        <time>2026-08-14T03:20:15.000Z</time>
      </trkpt>
      <trkpt lat="22.816358" lon="108.634227">
        <ele>71.551608</ele>
        <time>2026-08-14T03:20:16.000Z</time>
      </trkpt>
      <trkpt lat="22.816373" lon="108.634264">
        <ele>71.655488</ele>
        <time>2026-08-14T03:20:17.000Z</time>
      </trkpt>
      <trkpt lat="22.816388" lon="108.634303">
        <ele>71.764092</ele>
        <time>2026-08-14T03:20:18.000Z</time>
      </trkpt>
      <trkpt lat="22.816405" lon="108.634342">
        <ele>71.874963</ele>
        <time>2026-08-14T03:20:19.000Z</time>
      </trkpt>
      <trkpt lat="22.816421" lon="108.634379">
        <ele>71.979997</ele>
        <time>2026-08-14T03:20:20.000Z</time>
      </trkpt>
      <trkpt lat="22.816437" lon="108.634417">
        <ele>72.043388</ele>
        <time>2026-08-14T03:20:21.000Z</time>
      </trkpt>
      <trkpt lat="22.816453" lon="108.634456">
        <ele>72.095831</ele>
        <time>2026-08-14T03:20:22.000Z</time>
      </trkpt>
      <trkpt lat="22.816468" lon="108.634496">
        <ele>72.148882</ele>
        <time>2026-08-14T03:20:23.000Z</time>
      </trkpt>
      <trkpt lat="22.816484" lon="108.634536">
        <ele>72.202449</ele>
        <time>2026-08-14T03:20:24.000Z</time>
      </trkpt>
      <trkpt lat="22.816500" lon="108.634573">
        <ele>72.252657</ele>
        <time>2026-08-14T03:20:25.000Z</time>
      </trkpt>
      <trkpt lat="22.816518" lon="108.634611">
        <ele>72.305143</ele>
        <time>2026-08-14T03:20:26.000Z</time>
      </trkpt>
      <trkpt lat="22.816533" lon="108.634649">
        <ele>72.355927</ele>
        <time>2026-08-14T03:20:27.000Z</time>
      </trkpt>
      <trkpt lat="22.816549" lon="108.634689">
        <ele>72.409494</ele>
        <time>2026-08-14T03:20:28.000Z</time>
      </trkpt>
      <trkpt lat="22.816563" lon="108.634731">
        <ele>72.464361</ele>
        <time>2026-08-14T03:20:29.000Z</time>
      </trkpt>
      <trkpt lat="22.816577" lon="108.634770">
        <ele>72.515777</ele>
        <time>2026-08-14T03:20:30.000Z</time>
      </trkpt>
      <trkpt lat="22.816592" lon="108.634811">
        <ele>72.569968</ele>
        <time>2026-08-14T03:20:31.000Z</time>
      </trkpt>
      <trkpt lat="22.816607" lon="108.634852">
        <ele>72.624159</ele>
        <time>2026-08-14T03:20:32.000Z</time>
      </trkpt>
      <trkpt lat="22.816623" lon="108.634894">
        <ele>72.679989</ele>
        <time>2026-08-14T03:20:33.000Z</time>
      </trkpt>
      <trkpt lat="22.816638" lon="108.634937">
        <ele>72.736470</ele>
        <time>2026-08-14T03:20:34.000Z</time>
      </trkpt>
      <trkpt lat="22.816652" lon="108.634981">
        <ele>72.793654</ele>
        <time>2026-08-14T03:20:35.000Z</time>
      </trkpt>
      <trkpt lat="22.816669" lon="108.635024">
        <ele>72.851133</ele>
        <time>2026-08-14T03:20:36.000Z</time>
      </trkpt>
      <trkpt lat="22.816684" lon="108.635065">
        <ele>72.905324</ele>
        <time>2026-08-14T03:20:37.000Z</time>
      </trkpt>
      <trkpt lat="22.816703" lon="108.635111">
        <ele>72.967249</ele>
        <time>2026-08-14T03:20:38.000Z</time>
      </trkpt>
      <trkpt lat="22.816718" lon="108.635156">
        <ele>73.026035</ele>
        <time>2026-08-14T03:20:39.000Z</time>
      </trkpt>
      <trkpt lat="22.816733" lon="108.635199">
        <ele>73.082517</ele>
        <time>2026-08-14T03:20:40.000Z</time>
      </trkpt>
      <trkpt lat="22.816747" lon="108.635245">
        <ele>73.142028</ele>
        <time>2026-08-14T03:20:41.000Z</time>
      </trkpt>
      <trkpt lat="22.816761" lon="108.635291">
        <ele>73.201540</ele>
        <time>2026-08-14T03:20:42.000Z</time>
      </trkpt>
      <trkpt lat="22.816774" lon="108.635338">
        <ele>73.261823</ele>
        <time>2026-08-14T03:20:43.000Z</time>
      </trkpt>
      <trkpt lat="22.816786" lon="108.635385">
        <ele>73.321736</ele>
        <time>2026-08-14T03:20:44.000Z</time>
      </trkpt>
      <trkpt lat="22.816797" lon="108.635435">
        <ele>73.384886</ele>
        <time>2026-08-14T03:20:45.000Z</time>
      </trkpt>
      <trkpt lat="22.816810" lon="108.635483">
        <ele>73.446346</ele>
        <time>2026-08-14T03:20:46.000Z</time>
      </trkpt>
      <trkpt lat="22.816823" lon="108.635531">
        <ele>73.507807</ele>
        <time>2026-08-14T03:20:47.000Z</time>
      </trkpt>
      <trkpt lat="22.816837" lon="108.635580">
        <ele>73.570828</ele>
        <time>2026-08-14T03:20:48.000Z</time>
      </trkpt>
      <trkpt lat="22.816851" lon="108.635631">
        <ele>73.636201</ele>
        <time>2026-08-14T03:20:49.000Z</time>
      </trkpt>
      <trkpt lat="22.816864" lon="108.635679">
        <ele>73.697661</ele>
        <time>2026-08-14T03:20:50.000Z</time>
      </trkpt>
      <trkpt lat="22.816873" lon="108.635726">
        <ele>73.756633</ele>
        <time>2026-08-14T03:20:51.000Z</time>
      </trkpt>
      <trkpt lat="22.816883" lon="108.635776">
        <ele>73.819487</ele>
        <time>2026-08-14T03:20:52.000Z</time>
      </trkpt>
      <trkpt lat="22.816892" lon="108.635824">
        <ele>73.879663</ele>
        <time>2026-08-14T03:20:53.000Z</time>
      </trkpt>
      <trkpt lat="22.816901" lon="108.635871">
        <ele>73.938635</ele>
        <time>2026-08-14T03:20:54.000Z</time>
      </trkpt>
      <trkpt lat="22.816912" lon="108.635921">
        <ele>74.001785</ele>
        <time>2026-08-14T03:20:55.000Z</time>
      </trkpt>
      <trkpt lat="22.816924" lon="108.635968">
        <ele>74.061698</ele>
        <time>2026-08-14T03:20:56.000Z</time>
      </trkpt>
      <trkpt lat="22.816936" lon="108.636017">
        <ele>74.123982</ele>
        <time>2026-08-14T03:20:57.000Z</time>
      </trkpt>
      <trkpt lat="22.816948" lon="108.636065">
        <ele>74.185080</ele>
        <time>2026-08-14T03:20:58.000Z</time>
      </trkpt>
      <trkpt lat="22.816959" lon="108.636115">
        <ele>74.248230</ele>
        <time>2026-08-14T03:20:59.000Z</time>
      </trkpt>
      <trkpt lat="22.816969" lon="108.636166">
        <ele>74.312285</ele>
        <time>2026-08-14T03:21:00.000Z</time>
      </trkpt>
      <trkpt lat="22.816978" lon="108.636216">
        <ele>74.374870</ele>
        <time>2026-08-14T03:21:01.000Z</time>
      </trkpt>
      <trkpt lat="22.816988" lon="108.636263">
        <ele>74.385116</ele>
        <time>2026-08-14T03:21:02.000Z</time>
      </trkpt>
      <trkpt lat="22.816994" lon="108.636312">
        <ele>74.357804</ele>
        <time>2026-08-14T03:21:03.000Z</time>
      </trkpt>
      <trkpt lat="22.817003" lon="108.636365">
        <ele>74.328027</ele>
        <time>2026-08-14T03:21:04.000Z</time>
      </trkpt>
      <trkpt lat="22.817011" lon="108.636418">
        <ele>74.298353</ele>
        <time>2026-08-14T03:21:05.000Z</time>
      </trkpt>
      <trkpt lat="22.817019" lon="108.636468">
        <ele>74.270313</ele>
        <time>2026-08-14T03:21:06.000Z</time>
      </trkpt>
      <trkpt lat="22.817028" lon="108.636521">
        <ele>74.240536</ele>
        <time>2026-08-14T03:21:07.000Z</time>
      </trkpt>
      <trkpt lat="22.817036" lon="108.636576">
        <ele>74.209770</ele>
        <time>2026-08-14T03:21:08.000Z</time>
      </trkpt>
      <trkpt lat="22.817039" lon="108.636631">
        <ele>74.179328</ele>
        <time>2026-08-14T03:21:09.000Z</time>
      </trkpt>
      <trkpt lat="22.817048" lon="108.636688">
        <ele>74.147375</ele>
        <time>2026-08-14T03:21:10.000Z</time>
      </trkpt>
      <trkpt lat="22.817057" lon="108.636744">
        <ele>74.115966</ele>
        <time>2026-08-14T03:21:11.000Z</time>
      </trkpt>
      <trkpt lat="22.817071" lon="108.636799">
        <ele>74.084439</ele>
        <time>2026-08-14T03:21:12.000Z</time>
      </trkpt>
      <trkpt lat="22.817085" lon="108.636857">
        <ele>74.051312</ele>
        <time>2026-08-14T03:21:13.000Z</time>
      </trkpt>
      <trkpt lat="22.817095" lon="108.636912">
        <ele>74.020337</ele>
        <time>2026-08-14T03:21:14.000Z</time>
      </trkpt>
      <trkpt lat="22.817104" lon="108.636969">
        <ele>73.988384</ele>
        <time>2026-08-14T03:21:15.000Z</time>
      </trkpt>
      <trkpt lat="22.817115" lon="108.637028">
        <ele>73.955124</ele>
        <time>2026-08-14T03:21:16.000Z</time>
      </trkpt>
      <trkpt lat="22.817126" lon="108.637087">
        <ele>73.921864</ele>
        <time>2026-08-14T03:21:17.000Z</time>
      </trkpt>
      <trkpt lat="22.817138" lon="108.637145">
        <ele>73.889020</ele>
        <time>2026-08-14T03:21:18.000Z</time>
      </trkpt>
      <trkpt lat="22.817149" lon="108.637205">
        <ele>73.855219</ele>
        <time>2026-08-14T03:21:19.000Z</time>
      </trkpt>
      <trkpt lat="22.817161" lon="108.637266">
        <ele>73.820755</ele>
        <time>2026-08-14T03:21:20.000Z</time>
      </trkpt>
      <trkpt lat="22.817169" lon="108.637323">
        <ele>73.788898</ele>
        <time>2026-08-14T03:21:21.000Z</time>
      </trkpt>
      <trkpt lat="22.817177" lon="108.637385">
        <ele>73.754307</ele>
        <time>2026-08-14T03:21:22.000Z</time>
      </trkpt>
      <trkpt lat="22.817183" lon="108.637445">
        <ele>73.720960</ele>
        <time>2026-08-14T03:21:23.000Z</time>
      </trkpt>
      <trkpt lat="22.817188" lon="108.637505">
        <ele>73.687673</ele>
        <time>2026-08-14T03:21:24.000Z</time>
      </trkpt>
      <trkpt lat="22.817194" lon="108.637566">
        <ele>73.653777</ele>
        <time>2026-08-14T03:21:25.000Z</time>
      </trkpt>
      <trkpt lat="22.817196" lon="108.637630">
        <ele>73.618395</ele>
        <time>2026-08-14T03:21:26.000Z</time>
      </trkpt>
      <trkpt lat="22.817200" lon="108.637694">
        <ele>73.582951</ele>
        <time>2026-08-14T03:21:27.000Z</time>
      </trkpt>
      <trkpt lat="22.817204" lon="108.637757">
        <ele>73.548059</ele>
        <time>2026-08-14T03:21:28.000Z</time>
      </trkpt>
      <trkpt lat="22.817210" lon="108.637820">
        <ele>73.513065</ele>
        <time>2026-08-14T03:21:29.000Z</time>
      </trkpt>
      <trkpt lat="22.817214" lon="108.637885">
        <ele>73.477070</ele>
        <time>2026-08-14T03:21:30.000Z</time>
      </trkpt>
      <trkpt lat="22.817219" lon="108.637949">
        <ele>73.441581</ele>
        <time>2026-08-14T03:21:31.000Z</time>
      </trkpt>
      <trkpt lat="22.817225" lon="108.638012">
        <ele>73.406586</ele>
        <time>2026-08-14T03:21:32.000Z</time>
      </trkpt>
      <trkpt lat="22.817228" lon="108.638077">
        <ele>73.370627</ele>
        <time>2026-08-14T03:21:33.000Z</time>
      </trkpt>
      <trkpt lat="22.817233" lon="108.638142">
        <ele>73.334587</ele>
        <time>2026-08-14T03:21:34.000Z</time>
      </trkpt>
      <trkpt lat="22.817235" lon="108.638208">
        <ele>73.244797</ele>
        <time>2026-08-14T03:21:35.000Z</time>
      </trkpt>
      <trkpt lat="22.817236" lon="108.638274">
        <ele>73.127459</ele>
        <time>2026-08-14T03:21:36.000Z</time>
      </trkpt>
      <trkpt lat="22.817243" lon="108.638342">
        <ele>73.005829</ele>
        <time>2026-08-14T03:21:37.000Z</time>
      </trkpt>
      <trkpt lat="22.817248" lon="108.638413">
        <ele>72.879250</ele>
        <time>2026-08-14T03:21:38.000Z</time>
      </trkpt>
      <trkpt lat="22.817251" lon="108.638478">
        <ele>72.763560</ele>
        <time>2026-08-14T03:21:39.000Z</time>
      </trkpt>
      <trkpt lat="22.817254" lon="108.638547">
        <ele>72.640768</ele>
        <time>2026-08-14T03:21:40.000Z</time>
      </trkpt>
      <trkpt lat="22.817255" lon="108.638618">
        <ele>72.514542</ele>
        <time>2026-08-14T03:21:41.000Z</time>
      </trkpt>
      <trkpt lat="22.817256" lon="108.638688">
        <ele>72.390093</ele>
        <time>2026-08-14T03:21:42.000Z</time>
      </trkpt>
      <trkpt lat="22.817257" lon="108.638760">
        <ele>72.262090</ele>
        <time>2026-08-14T03:21:43.000Z</time>
      </trkpt>
      <trkpt lat="22.817255" lon="108.638832">
        <ele>72.134043</ele>
        <time>2026-08-14T03:21:44.000Z</time>
      </trkpt>
      <trkpt lat="22.817252" lon="108.638905">
        <ele>72.004148</ele>
        <time>2026-08-14T03:21:45.000Z</time>
      </trkpt>
      <trkpt lat="22.817248" lon="108.638978">
        <ele>71.874153</ele>
        <time>2026-08-14T03:21:46.000Z</time>
      </trkpt>
      <trkpt lat="22.817243" lon="108.639054">
        <ele>71.738710</ele>
        <time>2026-08-14T03:21:47.000Z</time>
      </trkpt>
      <trkpt lat="22.817238" lon="108.639128">
        <ele>71.606813</ele>
        <time>2026-08-14T03:21:48.000Z</time>
      </trkpt>
      <trkpt lat="22.817236" lon="108.639203">
        <ele>71.473436</ele>
        <time>2026-08-14T03:21:49.000Z</time>
      </trkpt>
      <trkpt lat="22.817236" lon="108.639277">
        <ele>71.341892</ele>
        <time>2026-08-14T03:21:50.000Z</time>
      </trkpt>
      <trkpt lat="22.817236" lon="108.639352">
        <ele>71.208570</ele>
        <time>2026-08-14T03:21:51.000Z</time>
      </trkpt>
      <trkpt lat="22.817235" lon="108.639427">
        <ele>71.075235</ele>
        <time>2026-08-14T03:21:52.000Z</time>
      </trkpt>
      <trkpt lat="22.817234" lon="108.639506">
        <ele>70.934789</ele>
        <time>2026-08-14T03:21:53.000Z</time>
      </trkpt>
      <trkpt lat="22.817232" lon="108.639584">
        <ele>70.796081</ele>
        <time>2026-08-14T03:21:54.000Z</time>
      </trkpt>
      <trkpt lat="22.817231" lon="108.639662">
        <ele>70.657413</ele>
        <time>2026-08-14T03:21:55.000Z</time>
      </trkpt>
      <trkpt lat="22.817231" lon="108.639740">
        <ele>70.518759</ele>
        <time>2026-08-14T03:21:56.000Z</time>
      </trkpt>
      <trkpt lat="22.817230" lon="108.639820">
        <ele>70.376536</ele>
        <time>2026-08-14T03:21:57.000Z</time>
      </trkpt>
      <trkpt lat="22.817227" lon="108.639899">
        <ele>70.235985</ele>
        <time>2026-08-14T03:21:58.000Z</time>
      </trkpt>
      <trkpt lat="22.817223" lon="108.639979">
        <ele>70.093566</ele>
        <time>2026-08-14T03:21:59.000Z</time>
      </trkpt>
      <trkpt lat="22.817221" lon="108.640062">
        <ele>69.945973</ele>
        <time>2026-08-14T03:22:00.000Z</time>
      </trkpt>
      <trkpt lat="22.817220" lon="108.640145">
        <ele>69.792228</ele>
        <time>2026-08-14T03:22:01.000Z</time>
      </trkpt>
      <trkpt lat="22.817218" lon="108.640229">
        <ele>69.626039</ele>
        <time>2026-08-14T03:22:02.000Z</time>
      </trkpt>
      <trkpt lat="22.817215" lon="108.640313">
        <ele>69.459780</ele>
        <time>2026-08-14T03:22:03.000Z</time>
      </trkpt>
      <trkpt lat="22.817213" lon="108.640396">
        <ele>69.295568</ele>
        <time>2026-08-14T03:22:04.000Z</time>
      </trkpt>
      <trkpt lat="22.817211" lon="108.640481">
        <ele>69.127402</ele>
        <time>2026-08-14T03:22:05.000Z</time>
      </trkpt>
      <trkpt lat="22.817210" lon="108.640565">
        <ele>68.961254</ele>
        <time>2026-08-14T03:22:06.000Z</time>
      </trkpt>
      <trkpt lat="22.817208" lon="108.640648">
        <ele>68.797042</ele>
        <time>2026-08-14T03:22:07.000Z</time>
      </trkpt>
      <trkpt lat="22.817205" lon="108.640734">
        <ele>68.626831</ele>
        <time>2026-08-14T03:22:08.000Z</time>
      </trkpt>
      <trkpt lat="22.817203" lon="108.640819">
        <ele>68.458665</ele>
        <time>2026-08-14T03:22:09.000Z</time>
      </trkpt>
      <trkpt lat="22.817202" lon="108.640904">
        <ele>68.290540</ele>
        <time>2026-08-14T03:22:10.000Z</time>
      </trkpt>
      <trkpt lat="22.817202" lon="108.640989">
        <ele>68.122428</ele>
        <time>2026-08-14T03:22:11.000Z</time>
      </trkpt>
      <trkpt lat="22.817202" lon="108.641073">
        <ele>67.956295</ele>
        <time>2026-08-14T03:22:12.000Z</time>
      </trkpt>
      <trkpt lat="22.817202" lon="108.641158">
        <ele>67.788183</ele>
        <time>2026-08-14T03:22:13.000Z</time>
      </trkpt>
      <trkpt lat="22.817205" lon="108.641244">
        <ele>67.617972</ele>
        <time>2026-08-14T03:22:14.000Z</time>
      </trkpt>
      <trkpt lat="22.817208" lon="108.641330">
        <ele>67.447761</ele>
        <time>2026-08-14T03:22:15.000Z</time>
      </trkpt>
      <trkpt lat="22.817212" lon="108.641416">
        <ele>67.277455</ele>
        <time>2026-08-14T03:22:16.000Z</time>
      </trkpt>
      <trkpt lat="22.817210" lon="108.641503">
        <ele>67.105335</ele>
        <time>2026-08-14T03:22:17.000Z</time>
      </trkpt>
      <trkpt lat="22.817205" lon="108.641590">
        <ele>66.932933</ele>
        <time>2026-08-14T03:22:18.000Z</time>
      </trkpt>
      <trkpt lat="22.817199" lon="108.641676">
        <ele>66.762358</ele>
        <time>2026-08-14T03:22:19.000Z</time>
      </trkpt>
      <trkpt lat="22.817193" lon="108.641762">
        <ele>66.591782</ele>
        <time>2026-08-14T03:22:20.000Z</time>
      </trkpt>
      <trkpt lat="22.817189" lon="108.641848">
        <ele>66.421476</ele>
        <time>2026-08-14T03:22:21.000Z</time>
      </trkpt>
      <trkpt lat="22.817188" lon="108.641933">
        <ele>66.253351</ele>
        <time>2026-08-14T03:22:22.000Z</time>
      </trkpt>
      <trkpt lat="22.817188" lon="108.642019">
        <ele>66.083261</ele>
        <time>2026-08-14T03:22:23.000Z</time>
      </trkpt>
      <trkpt lat="22.817187" lon="108.642106">
        <ele>65.958607</ele>
        <time>2026-08-14T03:22:24.000Z</time>
      </trkpt>
      <trkpt lat="22.817183" lon="108.642192">
        <ele>65.885754</ele>
        <time>2026-08-14T03:22:25.000Z</time>
      </trkpt>
      <trkpt lat="22.817183" lon="108.642278">
        <ele>65.812992</ele>
        <time>2026-08-14T03:22:26.000Z</time>
      </trkpt>
      <trkpt lat="22.817184" lon="108.642364">
        <ele>65.740225</ele>
        <time>2026-08-14T03:22:27.000Z</time>
      </trkpt>
      <trkpt lat="22.817184" lon="108.642449">
        <ele>65.668310</ele>
        <time>2026-08-14T03:22:28.000Z</time>
      </trkpt>
      <trkpt lat="22.817185" lon="108.642533">
        <ele>65.597235</ele>
        <time>2026-08-14T03:22:29.000Z</time>
      </trkpt>
      <trkpt lat="22.817187" lon="108.642619">
        <ele>65.524451</ele>
        <time>2026-08-14T03:22:30.000Z</time>
      </trkpt>
      <trkpt lat="22.817189" lon="108.642706">
        <ele>65.450821</ele>
        <time>2026-08-14T03:22:31.000Z</time>
      </trkpt>
      <trkpt lat="22.817193" lon="108.642790">
        <ele>65.379657</ele>
        <time>2026-08-14T03:22:32.000Z</time>
      </trkpt>
      <trkpt lat="22.817197" lon="108.642875">
        <ele>65.307648</ele>
        <time>2026-08-14T03:22:33.000Z</time>
      </trkpt>
      <trkpt lat="22.817199" lon="108.642960">
        <ele>65.235709</ele>
        <time>2026-08-14T03:22:34.000Z</time>
      </trkpt>
      <trkpt lat="22.817202" lon="108.643045">
        <ele>65.163742</ele>
        <time>2026-08-14T03:22:35.000Z</time>
      </trkpt>
      <trkpt lat="22.817205" lon="108.643127">
        <ele>65.094310</ele>
        <time>2026-08-14T03:22:36.000Z</time>
      </trkpt>
      <trkpt lat="22.817208" lon="108.643211">
        <ele>65.023188</ele>
        <time>2026-08-14T03:22:37.000Z</time>
      </trkpt>
      <trkpt lat="22.817211" lon="108.643296">
        <ele>64.951220</ele>
        <time>2026-08-14T03:22:38.000Z</time>
      </trkpt>
      <trkpt lat="22.817215" lon="108.643380">
        <ele>64.880056</ele>
        <time>2026-08-14T03:22:39.000Z</time>
      </trkpt>
      <trkpt lat="22.817220" lon="108.643465">
        <ele>64.807994</ele>
        <time>2026-08-14T03:22:40.000Z</time>
      </trkpt>
      <trkpt lat="22.817223" lon="108.643549">
        <ele>64.736872</ele>
        <time>2026-08-14T03:22:41.000Z</time>
      </trkpt>
      <trkpt lat="22.817230" lon="108.643633">
        <ele>64.665513</ele>
        <time>2026-08-14T03:22:42.000Z</time>
      </trkpt>
      <trkpt lat="22.817237" lon="108.643717">
        <ele>64.594154</ele>
        <time>2026-08-14T03:22:43.000Z</time>
      </trkpt>
      <trkpt lat="22.817246" lon="108.643800">
        <ele>64.523447</ele>
        <time>2026-08-14T03:22:44.000Z</time>
      </trkpt>
      <trkpt lat="22.817257" lon="108.643882">
        <ele>64.453339</ele>
        <time>2026-08-14T03:22:45.000Z</time>
      </trkpt>
      <trkpt lat="22.817268" lon="108.643964">
        <ele>64.383231</ele>
        <time>2026-08-14T03:22:46.000Z</time>
      </trkpt>
      <trkpt lat="22.817278" lon="108.644042">
        <ele>64.357266</ele>
        <time>2026-08-14T03:22:47.000Z</time>
      </trkpt>
      <trkpt lat="22.817285" lon="108.644122">
        <ele>64.393580</ele>
        <time>2026-08-14T03:22:48.000Z</time>
      </trkpt>
      <trkpt lat="22.817295" lon="108.644200">
        <ele>64.429166</ele>
        <time>2026-08-14T03:22:49.000Z</time>
      </trkpt>
      <trkpt lat="22.817306" lon="108.644277">
        <ele>64.464377</ele>
        <time>2026-08-14T03:22:50.000Z</time>
      </trkpt>
      <trkpt lat="22.817316" lon="108.644355">
        <ele>64.499964</ele>
        <time>2026-08-14T03:22:51.000Z</time>
      </trkpt>
      <trkpt lat="22.817331" lon="108.644429">
        <ele>64.534202</ele>
        <time>2026-08-14T03:22:52.000Z</time>
      </trkpt>
      <trkpt lat="22.817345" lon="108.644505">
        <ele>64.569225</ele>
        <time>2026-08-14T03:22:53.000Z</time>
      </trkpt>
      <trkpt lat="22.817362" lon="108.644576">
        <ele>64.602374</ele>
        <time>2026-08-14T03:22:54.000Z</time>
      </trkpt>
      <trkpt lat="22.817377" lon="108.644646">
        <ele>64.634849</ele>
        <time>2026-08-14T03:22:55.000Z</time>
      </trkpt>
      <trkpt lat="22.817391" lon="108.644715">
        <ele>64.666776</ele>
        <time>2026-08-14T03:22:56.000Z</time>
      </trkpt>
      <trkpt lat="22.817404" lon="108.644787">
        <ele>64.699930</ele>
        <time>2026-08-14T03:22:57.000Z</time>
      </trkpt>
      <trkpt lat="22.817418" lon="108.644857">
        <ele>64.732298</ele>
        <time>2026-08-14T03:22:58.000Z</time>
      </trkpt>
      <trkpt lat="22.817431" lon="108.644926">
        <ele>64.764123</ele>
        <time>2026-08-14T03:22:59.000Z</time>
      </trkpt>
      <trkpt lat="22.817446" lon="108.644995">
        <ele>64.796159</ele>
        <time>2026-08-14T03:23:00.000Z</time>
      </trkpt>
      <trkpt lat="22.817461" lon="108.645063">
        <ele>64.827755</ele>
        <time>2026-08-14T03:23:01.000Z</time>
      </trkpt>
      <trkpt lat="22.817476" lon="108.645130">
        <ele>64.858911</ele>
        <time>2026-08-14T03:23:02.000Z</time>
      </trkpt>
      <trkpt lat="22.817492" lon="108.645195">
        <ele>64.889313</ele>
        <time>2026-08-14T03:23:03.000Z</time>
      </trkpt>
      <trkpt lat="22.817507" lon="108.645259">
        <ele>64.919154</ele>
        <time>2026-08-14T03:23:04.000Z</time>
      </trkpt>
      <trkpt lat="22.817521" lon="108.645324">
        <ele>64.949318</ele>
        <time>2026-08-14T03:23:05.000Z</time>
      </trkpt>
      <trkpt lat="22.817535" lon="108.645388">
        <ele>64.979042</ele>
        <time>2026-08-14T03:23:06.000Z</time>
      </trkpt>
      <trkpt lat="22.817550" lon="108.645449">
        <ele>65.007571</ele>
        <time>2026-08-14T03:23:07.000Z</time>
      </trkpt>
      <trkpt lat="22.817566" lon="108.645510">
        <ele>65.036231</ele>
        <time>2026-08-14T03:23:08.000Z</time>
      </trkpt>
      <trkpt lat="22.817582" lon="108.645570">
        <ele>65.064456</ele>
        <time>2026-08-14T03:23:09.000Z</time>
      </trkpt>
      <trkpt lat="22.817599" lon="108.645629">
        <ele>65.092389</ele>
        <time>2026-08-14T03:23:10.000Z</time>
      </trkpt>
      <trkpt lat="22.817615" lon="108.645686">
        <ele>65.119315</ele>
        <time>2026-08-14T03:23:11.000Z</time>
      </trkpt>
      <trkpt lat="22.817630" lon="108.645744">
        <ele>65.146536</ele>
        <time>2026-08-14T03:23:12.000Z</time>
      </trkpt>
      <trkpt lat="22.817646" lon="108.645799">
        <ele>65.172598</ele>
        <time>2026-08-14T03:23:13.000Z</time>
      </trkpt>
      <trkpt lat="22.817663" lon="108.645854">
        <ele>65.198812</ele>
        <time>2026-08-14T03:23:14.000Z</time>
      </trkpt>
      <trkpt lat="22.817679" lon="108.645908">
        <ele>65.224444</ele>
        <time>2026-08-14T03:23:15.000Z</time>
      </trkpt>
      <trkpt lat="22.817692" lon="108.645963">
        <ele>65.326529</ele>
        <time>2026-08-14T03:23:16.000Z</time>
      </trkpt>
      <trkpt lat="22.817707" lon="108.646019">
        <ele>65.432787</ele>
        <time>2026-08-14T03:23:17.000Z</time>
      </trkpt>
      <trkpt lat="22.817721" lon="108.646070">
        <ele>65.529747</ele>
        <time>2026-08-14T03:23:18.000Z</time>
      </trkpt>
      <trkpt lat="22.817734" lon="108.646123">
        <ele>65.629679</ele>
        <time>2026-08-14T03:23:19.000Z</time>
      </trkpt>
      <trkpt lat="22.817750" lon="108.646177">
        <ele>65.733030</ele>
        <time>2026-08-14T03:23:20.000Z</time>
      </trkpt>
      <trkpt lat="22.817767" lon="108.646229">
        <ele>65.833561</ele>
        <time>2026-08-14T03:23:21.000Z</time>
      </trkpt>
      <trkpt lat="22.817781" lon="108.646281">
        <ele>65.932269</ele>
        <time>2026-08-14T03:23:22.000Z</time>
      </trkpt>
      <trkpt lat="22.817797" lon="108.646334">
        <ele>66.033887</ele>
        <time>2026-08-14T03:23:23.000Z</time>
      </trkpt>
      <trkpt lat="22.817812" lon="108.646386">
        <ele>66.133167</ele>
        <time>2026-08-14T03:23:24.000Z</time>
      </trkpt>
      <trkpt lat="22.817828" lon="108.646438">
        <ele>66.233055</ele>
        <time>2026-08-14T03:23:25.000Z</time>
      </trkpt>
      <trkpt lat="22.817844" lon="108.646489">
        <ele>66.331216</ele>
        <time>2026-08-14T03:23:26.000Z</time>
      </trkpt>
      <trkpt lat="22.817857" lon="108.646541">
        <ele>66.429388</ele>
        <time>2026-08-14T03:23:27.000Z</time>
      </trkpt>
      <trkpt lat="22.817873" lon="108.646591">
        <ele>66.525826</ele>
        <time>2026-08-14T03:23:28.000Z</time>
      </trkpt>
      <trkpt lat="22.817887" lon="108.646638">
        <ele>66.615825</ele>
        <time>2026-08-14T03:23:29.000Z</time>
      </trkpt>
      <trkpt lat="22.817901" lon="108.646687">
        <ele>66.709298</ele>
        <time>2026-08-14T03:23:30.000Z</time>
      </trkpt>
      <trkpt lat="22.817916" lon="108.646734">
        <ele>66.799924</ele>
        <time>2026-08-14T03:23:31.000Z</time>
      </trkpt>
      <trkpt lat="22.817931" lon="108.646782">
        <ele>66.892274</ele>
        <time>2026-08-14T03:23:32.000Z</time>
      </trkpt>
      <trkpt lat="22.817945" lon="108.646831">
        <ele>66.985747</ele>
        <time>2026-08-14T03:23:33.000Z</time>
      </trkpt>
      <trkpt lat="22.817959" lon="108.646880">
        <ele>67.079220</ele>
        <time>2026-08-14T03:23:34.000Z</time>
      </trkpt>
      <trkpt lat="22.817972" lon="108.646928">
        <ele>67.170377</ele>
        <time>2026-08-14T03:23:35.000Z</time>
      </trkpt>
      <trkpt lat="22.817986" lon="108.646976">
        <ele>67.262111</ele>
        <time>2026-08-14T03:23:36.000Z</time>
      </trkpt>
      <trkpt lat="22.818001" lon="108.647025">
        <ele>67.356188</ele>
        <time>2026-08-14T03:23:37.000Z</time>
      </trkpt>
      <trkpt lat="22.818016" lon="108.647073">
        <ele>67.448538</ele>
        <time>2026-08-14T03:23:38.000Z</time>
      </trkpt>
      <trkpt lat="22.818031" lon="108.647123">
        <ele>67.544346</ele>
        <time>2026-08-14T03:23:39.000Z</time>
      </trkpt>
      <trkpt lat="22.818046" lon="108.647173">
        <ele>67.640154</ele>
        <time>2026-08-14T03:23:40.000Z</time>
      </trkpt>
      <trkpt lat="22.818059" lon="108.647225">
        <ele>67.738326</ele>
        <time>2026-08-14T03:23:41.000Z</time>
      </trkpt>
      <trkpt lat="22.818073" lon="108.647276">
        <ele>67.835285</ele>
        <time>2026-08-14T03:23:42.000Z</time>
      </trkpt>
      <trkpt lat="22.818088" lon="108.647325">
        <ele>67.929362</ele>
        <time>2026-08-14T03:23:43.000Z</time>
      </trkpt>
      <trkpt lat="22.818104" lon="108.647376">
        <ele>68.027524</ele>
        <time>2026-08-14T03:23:44.000Z</time>
      </trkpt>
      <trkpt lat="22.818121" lon="108.647424">
        <ele>68.121218</ele>
        <time>2026-08-14T03:23:45.000Z</time>
      </trkpt>
      <trkpt lat="22.818137" lon="108.647470">
        <ele>68.210802</ele>
        <time>2026-08-14T03:23:46.000Z</time>
      </trkpt>
      <trkpt lat="22.818152" lon="108.647518">
        <ele>68.303152</ele>
        <time>2026-08-14T03:23:47.000Z</time>
      </trkpt>
      <trkpt lat="22.818168" lon="108.647566">
        <ele>68.396155</ele>
        <time>2026-08-14T03:23:48.000Z</time>
      </trkpt>
      <trkpt lat="22.818180" lon="108.647616">
        <ele>68.490297</ele>
        <time>2026-08-14T03:23:49.000Z</time>
      </trkpt>
      <trkpt lat="22.818192" lon="108.647665">
        <ele>68.582676</ele>
        <time>2026-08-14T03:23:50.000Z</time>
      </trkpt>
      <trkpt lat="22.818205" lon="108.647713">
        <ele>68.673833</ele>
        <time>2026-08-14T03:23:51.000Z</time>
      </trkpt>
      <trkpt lat="22.818219" lon="108.647760">
        <ele>68.763832</ele>
        <time>2026-08-14T03:23:52.000Z</time>
      </trkpt>
      <trkpt lat="22.818235" lon="108.647808">
        <ele>68.869035</ele>
        <time>2026-08-14T03:23:53.000Z</time>
      </trkpt>
      <trkpt lat="22.818252" lon="108.647856">
        <ele>68.977687</ele>
        <time>2026-08-14T03:23:54.000Z</time>
      </trkpt>
      <trkpt lat="22.818266" lon="108.647902">
        <ele>69.080046</ele>
        <time>2026-08-14T03:23:55.000Z</time>
      </trkpt>
      <trkpt lat="22.818281" lon="108.647949">
        <ele>69.185141</ele>
        <time>2026-08-14T03:23:56.000Z</time>
      </trkpt>
      <trkpt lat="22.818295" lon="108.647996">
        <ele>69.289508</ele>
        <time>2026-08-14T03:23:57.000Z</time>
      </trkpt>
      <trkpt lat="22.818308" lon="108.648041">
        <ele>69.389153</ele>
        <time>2026-08-14T03:23:58.000Z</time>
      </trkpt>
      <trkpt lat="22.818322" lon="108.648083">
        <ele>69.483523</ele>
        <time>2026-08-14T03:23:59.000Z</time>
      </trkpt>
      <trkpt lat="22.818335" lon="108.648125">
        <ele>69.577139</ele>
        <time>2026-08-14T03:24:00.000Z</time>
      </trkpt>
      <trkpt lat="22.818349" lon="108.648167">
        <ele>69.671509</ele>
        <time>2026-08-14T03:24:01.000Z</time>
      </trkpt>
      <trkpt lat="22.818363" lon="108.648209">
        <ele>69.765879</ele>
        <time>2026-08-14T03:24:02.000Z</time>
      </trkpt>
      <trkpt lat="22.818376" lon="108.648250">
        <ele>69.857494</ele>
        <time>2026-08-14T03:24:03.000Z</time>
      </trkpt>
      <trkpt lat="22.818386" lon="108.648291">
        <ele>69.947107</ele>
        <time>2026-08-14T03:24:04.000Z</time>
      </trkpt>
      <trkpt lat="22.818397" lon="108.648331">
        <ele>70.035308</ele>
        <time>2026-08-14T03:24:05.000Z</time>
      </trkpt>
      <trkpt lat="22.818410" lon="108.648373">
        <ele>70.128924</ele>
        <time>2026-08-14T03:24:06.000Z</time>
      </trkpt>
      <trkpt lat="22.818422" lon="108.648414">
        <ele>70.219818</ele>
        <time>2026-08-14T03:24:07.000Z</time>
      </trkpt>
      <trkpt lat="22.818435" lon="108.648456">
        <ele>70.313434</ele>
        <time>2026-08-14T03:24:08.000Z</time>
      </trkpt>
      <trkpt lat="22.818448" lon="108.648497">
        <ele>70.405049</ele>
        <time>2026-08-14T03:24:09.000Z</time>
      </trkpt>
      <trkpt lat="22.818461" lon="108.648540">
        <ele>70.500669</ele>
        <time>2026-08-14T03:24:10.000Z</time>
      </trkpt>
      <trkpt lat="22.818474" lon="108.648583">
        <ele>70.596290</ele>
        <time>2026-08-14T03:24:11.000Z</time>
      </trkpt>
      <trkpt lat="22.818487" lon="108.648623">
        <ele>70.685909</ele>
        <time>2026-08-14T03:24:12.000Z</time>
      </trkpt>
      <trkpt lat="22.818500" lon="108.648665">
        <ele>70.779524</ele>
        <time>2026-08-14T03:24:13.000Z</time>
      </trkpt>
      <trkpt lat="22.818513" lon="108.648707">
        <ele>70.873140</ele>
        <time>2026-08-14T03:24:14.000Z</time>
      </trkpt>
      <trkpt lat="22.818524" lon="108.648748">
        <ele>70.963367</ele>
        <time>2026-08-14T03:24:15.000Z</time>
      </trkpt>
      <trkpt lat="22.818536" lon="108.648792">
        <ele>71.060323</ele>
        <time>2026-08-14T03:24:16.000Z</time>
      </trkpt>
      <trkpt lat="22.818548" lon="108.648835">
        <ele>71.155254</ele>
        <time>2026-08-14T03:24:17.000Z</time>
      </trkpt>
      <trkpt lat="22.818561" lon="108.648876">
        <ele>71.246869</ele>
        <time>2026-08-14T03:24:18.000Z</time>
      </trkpt>
      <trkpt lat="22.818572" lon="108.648918">
        <ele>71.339127</ele>
        <time>2026-08-14T03:24:19.000Z</time>
      </trkpt>
      <trkpt lat="22.818585" lon="108.648961">
        <ele>71.434747</ele>
        <time>2026-08-14T03:24:20.000Z</time>
      </trkpt>
      <trkpt lat="22.818597" lon="108.649002">
        <ele>71.525642</ele>
        <time>2026-08-14T03:24:21.000Z</time>
      </trkpt>
      <trkpt lat="22.818608" lon="108.649042">
        <ele>71.613843</ele>
        <time>2026-08-14T03:24:22.000Z</time>
      </trkpt>
      <trkpt lat="22.818620" lon="108.649083">
        <ele>71.704738</ele>
        <time>2026-08-14T03:24:23.000Z</time>
      </trkpt>
      <trkpt lat="22.818632" lon="108.649125">
        <ele>71.797648</ele>
        <time>2026-08-14T03:24:24.000Z</time>
      </trkpt>
      <trkpt lat="22.818645" lon="108.649167">
        <ele>71.891264</ele>
        <time>2026-08-14T03:24:25.000Z</time>
      </trkpt>
      <trkpt lat="22.818659" lon="108.649209">
        <ele>71.985634</ele>
        <time>2026-08-14T03:24:26.000Z</time>
      </trkpt>
      <trkpt lat="22.818672" lon="108.649251">
        <ele>72.079249</ele>
        <time>2026-08-14T03:24:27.000Z</time>
      </trkpt>
      <trkpt lat="22.818685" lon="108.649293">
        <ele>72.172864</ele>
        <time>2026-08-14T03:24:28.000Z</time>
      </trkpt>
      <trkpt lat="22.818697" lon="108.649335">
        <ele>72.265775</ele>
        <time>2026-08-14T03:24:29.000Z</time>
      </trkpt>
      <trkpt lat="22.818709" lon="108.649377">
        <ele>72.358685</ele>
        <time>2026-08-14T03:24:30.000Z</time>
      </trkpt>
      <trkpt lat="22.818721" lon="108.649418">
        <ele>72.449580</ele>
        <time>2026-08-14T03:24:31.000Z</time>
      </trkpt>
      <trkpt lat="22.818734" lon="108.649460">
        <ele>72.543195</ele>
        <time>2026-08-14T03:24:32.000Z</time>
      </trkpt>
      <trkpt lat="22.818746" lon="108.649500">
        <ele>72.632078</ele>
        <time>2026-08-14T03:24:33.000Z</time>
      </trkpt>
      <trkpt lat="22.818759" lon="108.649541">
        <ele>72.723693</ele>
        <time>2026-08-14T03:24:34.000Z</time>
      </trkpt>
      <trkpt lat="22.818772" lon="108.649583">
        <ele>72.817308</ele>
        <time>2026-08-14T03:24:35.000Z</time>
      </trkpt>
      <trkpt lat="22.818785" lon="108.649623">
        <ele>72.905503</ele>
        <time>2026-08-14T03:24:36.000Z</time>
      </trkpt>
      <trkpt lat="22.818797" lon="108.649665">
        <ele>72.958490</ele>
        <time>2026-08-14T03:24:37.000Z</time>
      </trkpt>
      <trkpt lat="22.818809" lon="108.649708">
        <ele>73.012629</ele>
        <time>2026-08-14T03:24:38.000Z</time>
      </trkpt>
      <trkpt lat="22.818820" lon="108.649750">
        <ele>73.065244</ele>
        <time>2026-08-14T03:24:39.000Z</time>
      </trkpt>
      <trkpt lat="22.818831" lon="108.649791">
        <ele>73.116700</ele>
        <time>2026-08-14T03:24:40.000Z</time>
      </trkpt>
      <trkpt lat="22.818843" lon="108.649832">
        <ele>73.168537</ele>
        <time>2026-08-14T03:24:41.000Z</time>
      </trkpt>
      <trkpt lat="22.818855" lon="108.649872">
        <ele>73.219227</ele>
        <time>2026-08-14T03:24:42.000Z</time>
      </trkpt>
      <trkpt lat="22.818867" lon="108.649914">
        <ele>73.272214</ele>
        <time>2026-08-14T03:24:43.000Z</time>
      </trkpt>
      <trkpt lat="22.818880" lon="108.649955">
        <ele>73.324462</ele>
        <time>2026-08-14T03:24:44.000Z</time>
      </trkpt>
      <trkpt lat="22.818892" lon="108.649997">
        <ele>73.377448</ele>
        <time>2026-08-14T03:24:45.000Z</time>
      </trkpt>
      <trkpt lat="22.818903" lon="108.650041">
        <ele>73.432385</ele>
        <time>2026-08-14T03:24:46.000Z</time>
      </trkpt>
      <trkpt lat="22.818914" lon="108.650083">
        <ele>73.485000</ele>
        <time>2026-08-14T03:24:47.000Z</time>
      </trkpt>
      <trkpt lat="22.818928" lon="108.650123">
        <ele>73.536559</ele>
        <time>2026-08-14T03:24:48.000Z</time>
      </trkpt>
      <trkpt lat="22.818940" lon="108.650166">
        <ele>73.590698</ele>
        <time>2026-08-14T03:24:49.000Z</time>
      </trkpt>
      <trkpt lat="22.818953" lon="108.650209">
        <ele>73.645230</ele>
        <time>2026-08-14T03:24:50.000Z</time>
      </trkpt>
      <trkpt lat="22.818965" lon="108.650253">
        <ele>73.700524</ele>
        <time>2026-08-14T03:24:51.000Z</time>
      </trkpt>
      <trkpt lat="22.818978" lon="108.650296">
        <ele>73.755056</ele>
        <time>2026-08-14T03:24:52.000Z</time>
      </trkpt>
      <trkpt lat="22.818992" lon="108.650337">
        <ele>73.807743</ele>
        <time>2026-08-14T03:24:53.000Z</time>
      </trkpt>
      <trkpt lat="22.819007" lon="108.650380">
        <ele>73.863146</ele>
        <time>2026-08-14T03:24:54.000Z</time>
      </trkpt>
      <trkpt lat="22.819020" lon="108.650426">
        <ele>73.921124</ele>
        <time>2026-08-14T03:24:55.000Z</time>
      </trkpt>
      <trkpt lat="22.819034" lon="108.650472">
        <ele>73.979499</ele>
        <time>2026-08-14T03:24:56.000Z</time>
      </trkpt>
      <trkpt lat="22.819048" lon="108.650517">
        <ele>74.036731</ele>
        <time>2026-08-14T03:24:57.000Z</time>
      </trkpt>
      <trkpt lat="22.819061" lon="108.650563">
        <ele>74.094709</ele>
        <time>2026-08-14T03:24:58.000Z</time>
      </trkpt>
      <trkpt lat="22.819074" lon="108.650609">
        <ele>74.152687</ele>
        <time>2026-08-14T03:24:59.000Z</time>
      </trkpt>
      <trkpt lat="22.819086" lon="108.650656">
        <ele>74.211456</ele>
        <time>2026-08-14T03:25:00.000Z</time>
      </trkpt>
      <trkpt lat="22.819097" lon="108.650701">
        <ele>74.267556</ele>
        <time>2026-08-14T03:25:01.000Z</time>
      </trkpt>
      <trkpt lat="22.819110" lon="108.650746">
        <ele>74.324384</ele>
        <time>2026-08-14T03:25:02.000Z</time>
      </trkpt>
      <trkpt lat="22.819122" lon="108.650792">
        <ele>74.381992</ele>
        <time>2026-08-14T03:25:03.000Z</time>
      </trkpt>
      <trkpt lat="22.819137" lon="108.650837">
        <ele>74.439655</ele>
        <time>2026-08-14T03:25:04.000Z</time>
      </trkpt>
      <trkpt lat="22.819151" lon="108.650881">
        <ele>74.495746</ele>
        <time>2026-08-14T03:25:05.000Z</time>
      </trkpt>
      <trkpt lat="22.819165" lon="108.650927">
        <ele>74.554121</ele>
        <time>2026-08-14T03:25:06.000Z</time>
      </trkpt>
      <trkpt lat="22.819177" lon="108.650973">
        <ele>74.611730</ele>
        <time>2026-08-14T03:25:07.000Z</time>
      </trkpt>
      <trkpt lat="22.819193" lon="108.651018">
        <ele>74.669850</ele>
        <time>2026-08-14T03:25:08.000Z</time>
      </trkpt>
      <trkpt lat="22.819208" lon="108.651063">
        <ele>74.727513</ele>
        <time>2026-08-14T03:25:09.000Z</time>
      </trkpt>
      <trkpt lat="22.819222" lon="108.651108">
        <ele>74.784745</ele>
        <time>2026-08-14T03:25:10.000Z</time>
      </trkpt>
      <trkpt lat="22.819235" lon="108.651154">
        <ele>74.842723</ele>
        <time>2026-08-14T03:25:11.000Z</time>
      </trkpt>
      <trkpt lat="22.819248" lon="108.651201">
        <ele>74.901854</ele>
        <time>2026-08-14T03:25:12.000Z</time>
      </trkpt>
      <trkpt lat="22.819262" lon="108.651250">
        <ele>74.963672</ele>
        <time>2026-08-14T03:25:13.000Z</time>
      </trkpt>
      <trkpt lat="22.819277" lon="108.651298">
        <ele>75.024747</ele>
        <time>2026-08-14T03:25:14.000Z</time>
      </trkpt>
      <trkpt lat="22.819291" lon="108.651346">
        <ele>75.085415</ele>
        <time>2026-08-14T03:25:15.000Z</time>
      </trkpt>
      <trkpt lat="22.819304" lon="108.651394">
        <ele>75.145701</ele>
        <time>2026-08-14T03:25:16.000Z</time>
      </trkpt>
      <trkpt lat="22.819318" lon="108.651443">
        <ele>75.207519</ele>
        <time>2026-08-14T03:25:17.000Z</time>
      </trkpt>
      <trkpt lat="22.819332" lon="108.651491">
        <ele>75.246181</ele>
        <time>2026-08-14T03:25:18.000Z</time>
      </trkpt>
      <trkpt lat="22.819347" lon="108.651540">
        <ele>75.204074</ele>
        <time>2026-08-14T03:25:19.000Z</time>
      </trkpt>
      <trkpt lat="22.819362" lon="108.651593">
        <ele>75.158861</ele>
        <time>2026-08-14T03:25:20.000Z</time>
      </trkpt>
      <trkpt lat="22.819375" lon="108.651645">
        <ele>75.114922</ele>
        <time>2026-08-14T03:25:21.000Z</time>
      </trkpt>
      <trkpt lat="22.819393" lon="108.651698">
        <ele>75.068859</ele>
        <time>2026-08-14T03:25:22.000Z</time>
      </trkpt>
      <trkpt lat="22.819410" lon="108.651751">
        <ele>75.023095</ele>
        <time>2026-08-14T03:25:23.000Z</time>
      </trkpt>
      <trkpt lat="22.819425" lon="108.651804">
        <ele>74.977881</ele>
        <time>2026-08-14T03:25:24.000Z</time>
      </trkpt>
      <trkpt lat="22.819440" lon="108.651858">
        <ele>74.931887</ele>
        <time>2026-08-14T03:25:25.000Z</time>
      </trkpt>
      <trkpt lat="22.819455" lon="108.651911">
        <ele>74.886673</ele>
        <time>2026-08-14T03:25:26.000Z</time>
      </trkpt>
      <trkpt lat="22.819472" lon="108.651964">
        <ele>74.840909</ele>
        <time>2026-08-14T03:25:27.000Z</time>
      </trkpt>
      <trkpt lat="22.819488" lon="108.652018">
        <ele>74.794652</ele>
        <time>2026-08-14T03:25:28.000Z</time>
      </trkpt>
      <trkpt lat="22.819505" lon="108.652074">
        <ele>74.746570</ele>
        <time>2026-08-14T03:25:29.000Z</time>
      </trkpt>
      <trkpt lat="22.819520" lon="108.652128">
        <ele>74.700576</ele>
        <time>2026-08-14T03:25:30.000Z</time>
      </trkpt>
      <trkpt lat="22.819535" lon="108.652182">
        <ele>74.654582</ele>
        <time>2026-08-14T03:25:31.000Z</time>
      </trkpt>
      <trkpt lat="22.819552" lon="108.652237">
        <ele>74.607274</ele>
        <time>2026-08-14T03:25:32.000Z</time>
      </trkpt>
      <trkpt lat="22.819569" lon="108.652292">
        <ele>74.559966</ele>
        <time>2026-08-14T03:25:33.000Z</time>
      </trkpt>
      <trkpt lat="22.819589" lon="108.652349">
        <ele>74.510228</ele>
        <time>2026-08-14T03:25:34.000Z</time>
      </trkpt>
      <trkpt lat="22.819607" lon="108.652407">
        <ele>74.460319</ele>
        <time>2026-08-14T03:25:35.000Z</time>
      </trkpt>
      <trkpt lat="22.819627" lon="108.652465">
        <ele>74.409818</ele>
        <time>2026-08-14T03:25:36.000Z</time>
      </trkpt>
      <trkpt lat="22.819646" lon="108.652523">
        <ele>74.359620</ele>
        <time>2026-08-14T03:25:37.000Z</time>
      </trkpt>
      <trkpt lat="22.819662" lon="108.652581">
        <ele>74.310247</ele>
        <time>2026-08-14T03:25:38.000Z</time>
      </trkpt>
      <trkpt lat="22.819680" lon="108.652638">
        <ele>74.261111</ele>
        <time>2026-08-14T03:25:39.000Z</time>
      </trkpt>
      <trkpt lat="22.819698" lon="108.652697">
        <ele>74.210428</ele>
        <time>2026-08-14T03:25:40.000Z</time>
      </trkpt>
      <trkpt lat="22.819718" lon="108.652756">
        <ele>74.159162</ele>
        <time>2026-08-14T03:25:41.000Z</time>
      </trkpt>
      <trkpt lat="22.819738" lon="108.652817">
        <ele>74.106363</ele>
        <time>2026-08-14T03:25:42.000Z</time>
      </trkpt>
      <trkpt lat="22.819759" lon="108.652876">
        <ele>74.054785</ele>
        <time>2026-08-14T03:25:43.000Z</time>
      </trkpt>
      <trkpt lat="22.819781" lon="108.652937">
        <ele>74.001366</ele>
        <time>2026-08-14T03:25:44.000Z</time>
      </trkpt>
      <trkpt lat="22.819799" lon="108.653001">
        <ele>73.946798</ele>
        <time>2026-08-14T03:25:45.000Z</time>
      </trkpt>
      <trkpt lat="22.819817" lon="108.653064">
        <ele>73.893009</ele>
        <time>2026-08-14T03:25:46.000Z</time>
      </trkpt>
      <trkpt lat="22.819839" lon="108.653127">
        <ele>73.838068</ele>
        <time>2026-08-14T03:25:47.000Z</time>
      </trkpt>
      <trkpt lat="22.819859" lon="108.653190">
        <ele>73.783729</ele>
        <time>2026-08-14T03:25:48.000Z</time>
      </trkpt>
      <trkpt lat="22.819880" lon="108.653256">
        <ele>73.726789</ele>
        <time>2026-08-14T03:25:49.000Z</time>
      </trkpt>
      <trkpt lat="22.819899" lon="108.653322">
        <ele>73.670401</ele>
        <time>2026-08-14T03:25:50.000Z</time>
      </trkpt>
      <trkpt lat="22.819919" lon="108.653386">
        <ele>73.547320</ele>
        <time>2026-08-14T03:25:51.000Z</time>
      </trkpt>
      <trkpt lat="22.819940" lon="108.653452">
        <ele>73.410419</ele>
        <time>2026-08-14T03:25:52.000Z</time>
      </trkpt>
      <trkpt lat="22.819961" lon="108.653519">
        <ele>73.271663</ele>
        <time>2026-08-14T03:25:53.000Z</time>
      </trkpt>
      <trkpt lat="22.819981" lon="108.653586">
        <ele>73.133578</ele>
        <time>2026-08-14T03:25:54.000Z</time>
      </trkpt>
      <trkpt lat="22.820000" lon="108.653654">
        <ele>72.994258</ele>
        <time>2026-08-14T03:25:55.000Z</time>
      </trkpt>
      <trkpt lat="22.820021" lon="108.653721">
        <ele>72.855502</ele>
        <time>2026-08-14T03:25:56.000Z</time>
      </trkpt>
      <trkpt lat="22.820041" lon="108.653789">
        <ele>72.715550</ele>
        <time>2026-08-14T03:25:57.000Z</time>
      </trkpt>
      <trkpt lat="22.820061" lon="108.653858">
        <ele>72.573729</ele>
        <time>2026-08-14T03:25:58.000Z</time>
      </trkpt>
      <trkpt lat="22.820081" lon="108.653928">
        <ele>72.430036</ele>
        <time>2026-08-14T03:25:59.000Z</time>
      </trkpt>
      <trkpt lat="22.820101" lon="108.653998">
        <ele>72.286344</ele>
        <time>2026-08-14T03:26:00.000Z</time>
      </trkpt>
      <trkpt lat="22.820124" lon="108.654070">
        <ele>72.136934</ele>
        <time>2026-08-14T03:26:01.000Z</time>
      </trkpt>
      <trkpt lat="22.820147" lon="108.654140">
        <ele>71.991225</ele>
        <time>2026-08-14T03:26:02.000Z</time>
      </trkpt>
      <trkpt lat="22.820169" lon="108.654213">
        <ele>71.840636</ele>
        <time>2026-08-14T03:26:03.000Z</time>
      </trkpt>
      <trkpt lat="22.820191" lon="108.654286">
        <ele>71.690047</ele>
        <time>2026-08-14T03:26:04.000Z</time>
      </trkpt>
      <trkpt lat="22.820214" lon="108.654360">
        <ele>71.536928</ele>
        <time>2026-08-14T03:26:05.000Z</time>
      </trkpt>
      <trkpt lat="22.820237" lon="108.654434">
        <ele>71.383808</ele>
        <time>2026-08-14T03:26:06.000Z</time>
      </trkpt>
      <trkpt lat="22.820261" lon="108.654509">
        <ele>71.228144</ele>
        <time>2026-08-14T03:26:07.000Z</time>
      </trkpt>
      <trkpt lat="22.820285" lon="108.654582">
        <ele>71.076180</ele>
        <time>2026-08-14T03:26:08.000Z</time>
      </trkpt>
      <trkpt lat="22.820309" lon="108.654658">
        <ele>70.918663</ele>
        <time>2026-08-14T03:26:09.000Z</time>
      </trkpt>
      <trkpt lat="22.820332" lon="108.654735">
        <ele>70.759958</ele>
        <time>2026-08-14T03:26:10.000Z</time>
      </trkpt>
      <trkpt lat="22.820355" lon="108.654812">
        <ele>70.601254</ele>
        <time>2026-08-14T03:26:11.000Z</time>
      </trkpt>
      <trkpt lat="22.820380" lon="108.654888">
        <ele>70.443034</ele>
        <time>2026-08-14T03:26:12.000Z</time>
      </trkpt>
      <trkpt lat="22.820405" lon="108.654966">
        <ele>70.281116</ele>
        <time>2026-08-14T03:26:13.000Z</time>
      </trkpt>
      <trkpt lat="22.820428" lon="108.655045">
        <ele>70.118677</ele>
        <time>2026-08-14T03:26:14.000Z</time>
      </trkpt>
      <trkpt lat="22.820452" lon="108.655124">
        <ele>69.955584</ele>
        <time>2026-08-14T03:26:15.000Z</time>
      </trkpt>
      <trkpt lat="22.820477" lon="108.655203">
        <ele>69.790152</ele>
        <time>2026-08-14T03:26:16.000Z</time>
      </trkpt>
      <trkpt lat="22.820501" lon="108.655281">
        <ele>69.623070</ele>
        <time>2026-08-14T03:26:17.000Z</time>
      </trkpt>
      <trkpt lat="22.820526" lon="108.655355">
        <ele>69.462931</ele>
        <time>2026-08-14T03:26:18.000Z</time>
      </trkpt>
      <trkpt lat="22.820550" lon="108.655433">
        <ele>69.295849</ele>
        <time>2026-08-14T03:26:19.000Z</time>
      </trkpt>
      <trkpt lat="22.820576" lon="108.655512">
        <ele>69.125407</ele>
        <time>2026-08-14T03:26:20.000Z</time>
      </trkpt>
      <trkpt lat="22.820598" lon="108.655591">
        <ele>68.957724</ele>
        <time>2026-08-14T03:26:21.000Z</time>
      </trkpt>
      <trkpt lat="22.820614" lon="108.655671">
        <ele>68.791393</ele>
        <time>2026-08-14T03:26:22.000Z</time>
      </trkpt>
      <trkpt lat="22.820631" lon="108.655756">
        <ele>68.614666</ele>
        <time>2026-08-14T03:26:23.000Z</time>
      </trkpt>
      <trkpt lat="22.820648" lon="108.655841">
        <ele>68.437940</ele>
        <time>2026-08-14T03:26:24.000Z</time>
      </trkpt>
      <trkpt lat="22.820668" lon="108.655925">
        <ele>68.261662</ele>
        <time>2026-08-14T03:26:25.000Z</time>
      </trkpt>
      <trkpt lat="22.820689" lon="108.656011">
        <ele>68.080894</ele>
        <time>2026-08-14T03:26:26.000Z</time>
      </trkpt>
      <trkpt lat="22.820712" lon="108.656094">
        <ele>67.904794</ele>
        <time>2026-08-14T03:26:27.000Z</time>
      </trkpt>
      <trkpt lat="22.820732" lon="108.656176">
        <ele>67.732447</ele>
        <time>2026-08-14T03:26:28.000Z</time>
      </trkpt>
      <trkpt lat="22.820755" lon="108.656262">
        <ele>67.550501</ele>
        <time>2026-08-14T03:26:29.000Z</time>
      </trkpt>
      <trkpt lat="22.820776" lon="108.656349">
        <ele>67.367769</ele>
        <time>2026-08-14T03:26:30.000Z</time>
      </trkpt>
      <trkpt lat="22.820796" lon="108.656431">
        <ele>67.195422</ele>
        <time>2026-08-14T03:26:31.000Z</time>
      </trkpt>
      <trkpt lat="22.820822" lon="108.656515">
        <ele>67.015380</ele>
        <time>2026-08-14T03:26:32.000Z</time>
      </trkpt>
      <trkpt lat="22.820846" lon="108.656600">
        <ele>66.834751</ele>
        <time>2026-08-14T03:26:33.000Z</time>
      </trkpt>
      <trkpt lat="22.820874" lon="108.656685">
        <ele>66.651346</ele>
        <time>2026-08-14T03:26:34.000Z</time>
      </trkpt>
      <trkpt lat="22.820898" lon="108.656765">
        <ele>66.480404</ele>
        <time>2026-08-14T03:26:35.000Z</time>
      </trkpt>
      <trkpt lat="22.820924" lon="108.656843">
        <ele>66.311875</ele>
        <time>2026-08-14T03:26:36.000Z</time>
      </trkpt>
      <trkpt lat="22.820950" lon="108.656923">
        <ele>66.139518</ele>
        <time>2026-08-14T03:26:37.000Z</time>
      </trkpt>
      <trkpt lat="22.820975" lon="108.657007">
        <ele>65.960166</ele>
        <time>2026-08-14T03:26:38.000Z</time>
      </trkpt>
      <trkpt lat="22.821001" lon="108.657091">
        <ele>65.791260</ele>
        <time>2026-08-14T03:26:39.000Z</time>
      </trkpt>
      <trkpt lat="22.821029" lon="108.657175">
        <ele>65.631613</ele>
        <time>2026-08-14T03:26:40.000Z</time>
      </trkpt>
      <trkpt lat="22.821056" lon="108.657259">
        <ele>65.472614</ele>
        <time>2026-08-14T03:26:41.000Z</time>
      </trkpt>
      <trkpt lat="22.821082" lon="108.657347">
        <ele>65.307451</ele>
        <time>2026-08-14T03:26:42.000Z</time>
      </trkpt>
      <trkpt lat="22.821105" lon="108.657435">
        <ele>65.143970</ele>
        <time>2026-08-14T03:26:43.000Z</time>
      </trkpt>
      <trkpt lat="22.821128" lon="108.657521">
        <ele>64.983924</ele>
        <time>2026-08-14T03:26:44.000Z</time>
      </trkpt>
      <trkpt lat="22.821155" lon="108.657607">
        <ele>64.821546</ele>
        <time>2026-08-14T03:26:45.000Z</time>
      </trkpt>
      <trkpt lat="22.821183" lon="108.657690">
        <ele>64.663579</ele>
        <time>2026-08-14T03:26:46.000Z</time>
      </trkpt>
      <trkpt lat="22.821209" lon="108.657773">
        <ele>64.506902</ele>
        <time>2026-08-14T03:26:47.000Z</time>
      </trkpt>
      <trkpt lat="22.821233" lon="108.657857">
        <ele>64.349723</ele>
        <time>2026-08-14T03:26:48.000Z</time>
      </trkpt>
      <trkpt lat="22.821257" lon="108.657942">
        <ele>64.190836</ele>
        <time>2026-08-14T03:26:49.000Z</time>
      </trkpt>
      <trkpt lat="22.821282" lon="108.658026">
        <ele>64.033072</ele>
        <time>2026-08-14T03:26:50.000Z</time>
      </trkpt>
      <trkpt lat="22.821305" lon="108.658111">
        <ele>63.874743</ele>
        <time>2026-08-14T03:26:51.000Z</time>
      </trkpt>
      <trkpt lat="22.821327" lon="108.658196">
        <ele>63.716948</ele>
        <time>2026-08-14T03:26:52.000Z</time>
      </trkpt>
      <trkpt lat="22.821346" lon="108.658280">
        <ele>63.562363</ele>
        <time>2026-08-14T03:26:53.000Z</time>
      </trkpt>
      <trkpt lat="22.821366" lon="108.658365">
        <ele>63.405572</ele>
        <time>2026-08-14T03:26:54.000Z</time>
      </trkpt>
      <trkpt lat="22.821389" lon="108.658451">
        <ele>63.245527</ele>
        <time>2026-08-14T03:26:55.000Z</time>
      </trkpt>
      <trkpt lat="22.821410" lon="108.658536">
        <ele>63.088246</ele>
        <time>2026-08-14T03:26:56.000Z</time>
      </trkpt>
      <trkpt lat="22.821428" lon="108.658621">
        <ele>62.932370</ele>
        <time>2026-08-14T03:26:57.000Z</time>
      </trkpt>
      <trkpt lat="22.821443" lon="108.658707">
        <ele>62.775936</ele>
        <time>2026-08-14T03:26:58.000Z</time>
      </trkpt>
      <trkpt lat="22.821457" lon="108.658795">
        <ele>62.616331</ele>
        <time>2026-08-14T03:26:59.000Z</time>
      </trkpt>
      <trkpt lat="22.821472" lon="108.658882">
        <ele>62.458141</ele>
        <time>2026-08-14T03:27:00.000Z</time>
      </trkpt>
      <trkpt lat="22.821487" lon="108.658969">
        <ele>62.394362</ele>
        <time>2026-08-14T03:27:01.000Z</time>
      </trkpt>
      <trkpt lat="22.821502" lon="108.659055">
        <ele>62.411681</ele>
        <time>2026-08-14T03:27:02.000Z</time>
      </trkpt>
      <trkpt lat="22.821516" lon="108.659139">
        <ele>62.428573</ele>
        <time>2026-08-14T03:27:03.000Z</time>
      </trkpt>
      <trkpt lat="22.821531" lon="108.659223">
        <ele>62.445504</ele>
        <time>2026-08-14T03:27:04.000Z</time>
      </trkpt>
      <trkpt lat="22.821546" lon="108.659308">
        <ele>62.462629</ele>
        <time>2026-08-14T03:27:05.000Z</time>
      </trkpt>
      <trkpt lat="22.821560" lon="108.659392">
        <ele>62.479521</ele>
        <time>2026-08-14T03:27:06.000Z</time>
      </trkpt>
      <trkpt lat="22.821572" lon="108.659473">
        <ele>62.495755</ele>
        <time>2026-08-14T03:27:07.000Z</time>
      </trkpt>
      <trkpt lat="22.821581" lon="108.659554">
        <ele>62.511900</ele>
        <time>2026-08-14T03:27:08.000Z</time>
      </trkpt>
      <trkpt lat="22.821588" lon="108.659635">
        <ele>62.527998</ele>
        <time>2026-08-14T03:27:09.000Z</time>
      </trkpt>
      <trkpt lat="22.821594" lon="108.659715">
        <ele>62.543881</ele>
        <time>2026-08-14T03:27:10.000Z</time>
      </trkpt>
      <trkpt lat="22.821602" lon="108.659792">
        <ele>62.559214</ele>
        <time>2026-08-14T03:27:11.000Z</time>
      </trkpt>
      <trkpt lat="22.821612" lon="108.659867">
        <ele>62.574210</ele>
        <time>2026-08-14T03:27:12.000Z</time>
      </trkpt>
      <trkpt lat="22.821620" lon="108.659942">
        <ele>62.589150</ele>
        <time>2026-08-14T03:27:13.000Z</time>
      </trkpt>
      <trkpt lat="22.821627" lon="108.660018">
        <ele>62.604264</ele>
        <time>2026-08-14T03:27:14.000Z</time>
      </trkpt>
      <trkpt lat="22.821633" lon="108.660091">
        <ele>62.618767</ele>
        <time>2026-08-14T03:27:15.000Z</time>
      </trkpt>
      <trkpt lat="22.821638" lon="108.660163">
        <ele>62.633054</ele>
        <time>2026-08-14T03:27:16.000Z</time>
      </trkpt>
      <trkpt lat="22.821642" lon="108.660236">
        <ele>62.647525</ele>
        <time>2026-08-14T03:27:17.000Z</time>
      </trkpt>
      <trkpt lat="22.821648" lon="108.660306">
        <ele>62.661437</ele>
        <time>2026-08-14T03:27:18.000Z</time>
      </trkpt>
      <trkpt lat="22.821653" lon="108.660377">
        <ele>62.675527</ele>
        <time>2026-08-14T03:27:19.000Z</time>
      </trkpt>
      <trkpt lat="22.821656" lon="108.660446">
        <ele>62.689196</ele>
        <time>2026-08-14T03:27:20.000Z</time>
      </trkpt>
      <trkpt lat="22.821657" lon="108.660512">
        <ele>62.702258</ele>
        <time>2026-08-14T03:27:21.000Z</time>
      </trkpt>
      <trkpt lat="22.821660" lon="108.660578">
        <ele>62.715334</ele>
        <time>2026-08-14T03:27:22.000Z</time>
      </trkpt>
      <trkpt lat="22.821662" lon="108.660644">
        <ele>62.728401</ele>
        <time>2026-08-14T03:27:23.000Z</time>
      </trkpt>
      <trkpt lat="22.821664" lon="108.660708">
        <ele>62.741073</ele>
        <time>2026-08-14T03:27:24.000Z</time>
      </trkpt>
      <trkpt lat="22.821667" lon="108.660773">
        <ele>62.753951</ele>
        <time>2026-08-14T03:27:25.000Z</time>
      </trkpt>
      <trkpt lat="22.821671" lon="108.660838">
        <ele>62.766842</ele>
        <time>2026-08-14T03:27:26.000Z</time>
      </trkpt>
      <trkpt lat="22.821674" lon="108.660899">
        <ele>62.807082</ele>
        <time>2026-08-14T03:27:27.000Z</time>
      </trkpt>
      <trkpt lat="22.821677" lon="108.660959">
        <ele>62.861705</ele>
        <time>2026-08-14T03:27:28.000Z</time>
      </trkpt>
      <trkpt lat="22.821680" lon="108.661020">
        <ele>62.917235</ele>
        <time>2026-08-14T03:27:29.000Z</time>
      </trkpt>
      <trkpt lat="22.821680" lon="108.661079">
        <ele>62.970869</ele>
        <time>2026-08-14T03:27:30.000Z</time>
      </trkpt>
      <trkpt lat="22.821681" lon="108.661139">
        <ele>63.025420</ele>
        <time>2026-08-14T03:27:31.000Z</time>
      </trkpt>
      <trkpt lat="22.821684" lon="108.661197">
        <ele>63.078227</ele>
        <time>2026-08-14T03:27:32.000Z</time>
      </trkpt>
      <trkpt lat="22.821688" lon="108.661256">
        <ele>63.132006</ele>
        <time>2026-08-14T03:27:33.000Z</time>
      </trkpt>
      <trkpt lat="22.821691" lon="108.661314">
        <ele>63.184813</ele>
        <time>2026-08-14T03:27:34.000Z</time>
      </trkpt>
      <trkpt lat="22.821692" lon="108.661372">
        <ele>63.237547</ele>
        <time>2026-08-14T03:27:35.000Z</time>
      </trkpt>
      <trkpt lat="22.821695" lon="108.661428">
        <ele>63.288539</ele>
        <time>2026-08-14T03:27:36.000Z</time>
      </trkpt>
      <trkpt lat="22.821697" lon="108.661484">
        <ele>63.339484</ele>
        <time>2026-08-14T03:27:37.000Z</time>
      </trkpt>
      <trkpt lat="22.821698" lon="108.661539">
        <ele>63.389491</ele>
        <time>2026-08-14T03:27:38.000Z</time>
      </trkpt>
      <trkpt lat="22.821700" lon="108.661595">
        <ele>63.440435</ele>
        <time>2026-08-14T03:27:39.000Z</time>
      </trkpt>
      <trkpt lat="22.821702" lon="108.661650">
        <ele>63.490471</ele>
        <time>2026-08-14T03:27:40.000Z</time>
      </trkpt>
      <trkpt lat="22.821705" lon="108.661705">
        <ele>63.540556</ele>
        <time>2026-08-14T03:27:41.000Z</time>
      </trkpt>
      <trkpt lat="22.821707" lon="108.661758">
        <ele>63.588776</ele>
        <time>2026-08-14T03:27:42.000Z</time>
      </trkpt>
      <trkpt lat="22.821708" lon="108.661811">
        <ele>63.636965</ele>
        <time>2026-08-14T03:27:43.000Z</time>
      </trkpt>
      <trkpt lat="22.821708" lon="108.661864">
        <ele>63.685144</ele>
        <time>2026-08-14T03:27:44.000Z</time>
      </trkpt>
      <trkpt lat="22.821708" lon="108.661918">
        <ele>63.734233</ele>
        <time>2026-08-14T03:27:45.000Z</time>
      </trkpt>
      <trkpt lat="22.821709" lon="108.661972">
        <ele>63.783331</ele>
        <time>2026-08-14T03:27:46.000Z</time>
      </trkpt>
      <trkpt lat="22.821711" lon="108.662026">
        <ele>63.832459</ele>
        <time>2026-08-14T03:27:47.000Z</time>
      </trkpt>
      <trkpt lat="22.821714" lon="108.662079">
        <ele>63.880729</ele>
        <time>2026-08-14T03:27:48.000Z</time>
      </trkpt>
      <trkpt lat="22.821715" lon="108.662133">
        <ele>63.929827</ele>
        <time>2026-08-14T03:27:49.000Z</time>
      </trkpt>
      <trkpt lat="22.821715" lon="108.662184">
        <ele>63.976188</ele>
        <time>2026-08-14T03:27:50.000Z</time>
      </trkpt>
      <trkpt lat="22.821717" lon="108.662236">
        <ele>64.023499</ele>
        <time>2026-08-14T03:27:51.000Z</time>
      </trkpt>
      <trkpt lat="22.821719" lon="108.662289">
        <ele>64.071719</ele>
        <time>2026-08-14T03:27:52.000Z</time>
      </trkpt>
      <trkpt lat="22.821720" lon="108.662343">
        <ele>64.120817</ele>
        <time>2026-08-14T03:27:53.000Z</time>
      </trkpt>
      <trkpt lat="22.821719" lon="108.662397">
        <ele>64.169915</ele>
        <time>2026-08-14T03:27:54.000Z</time>
      </trkpt>
      <trkpt lat="22.821718" lon="108.662451">
        <ele>64.219013</ele>
        <time>2026-08-14T03:27:55.000Z</time>
      </trkpt>
      <trkpt lat="22.821718" lon="108.662507">
        <ele>64.269920</ele>
        <time>2026-08-14T03:27:56.000Z</time>
      </trkpt>
      <trkpt lat="22.821718" lon="108.662564">
        <ele>64.321735</ele>
        <time>2026-08-14T03:27:57.000Z</time>
      </trkpt>
      <trkpt lat="22.821719" lon="108.662619">
        <ele>64.371742</ele>
        <time>2026-08-14T03:27:58.000Z</time>
      </trkpt>
      <trkpt lat="22.821721" lon="108.662674">
        <ele>64.421778</ele>
        <time>2026-08-14T03:27:59.000Z</time>
      </trkpt>
      <trkpt lat="22.821723" lon="108.662730">
        <ele>64.472723</ele>
        <time>2026-08-14T03:28:00.000Z</time>
      </trkpt>
      <trkpt lat="22.821725" lon="108.662787">
        <ele>64.524576</ele>
        <time>2026-08-14T03:28:01.000Z</time>
      </trkpt>
      <trkpt lat="22.821728" lon="108.662844">
        <ele>64.533142</ele>
        <time>2026-08-14T03:28:02.000Z</time>
      </trkpt>
      <trkpt lat="22.821730" lon="108.662900">
        <ele>64.513933</ele>
        <time>2026-08-14T03:28:03.000Z</time>
      </trkpt>
      <trkpt lat="22.821731" lon="108.662955">
        <ele>64.495078</ele>
        <time>2026-08-14T03:28:04.000Z</time>
      </trkpt>
      <trkpt lat="22.821732" lon="108.663011">
        <ele>64.475879</ele>
        <time>2026-08-14T03:28:05.000Z</time>
      </trkpt>
      <trkpt lat="22.821733" lon="108.663067">
        <ele>64.456681</ele>
        <time>2026-08-14T03:28:06.000Z</time>
      </trkpt>
      <trkpt lat="22.821733" lon="108.663122">
        <ele>64.437829</ele>
        <time>2026-08-14T03:28:07.000Z</time>
      </trkpt>
      <trkpt lat="22.821733" lon="108.663179">
        <ele>64.418292</ele>
        <time>2026-08-14T03:28:08.000Z</time>
      </trkpt>
      <trkpt lat="22.821733" lon="108.663234">
        <ele>64.399440</ele>
        <time>2026-08-14T03:28:09.000Z</time>
      </trkpt>
      <trkpt lat="22.821731" lon="108.663291">
        <ele>64.379888</ele>
        <time>2026-08-14T03:28:10.000Z</time>
      </trkpt>
      <trkpt lat="22.821729" lon="108.663349">
        <ele>64.359994</ele>
        <time>2026-08-14T03:28:11.000Z</time>
      </trkpt>
      <trkpt lat="22.821730" lon="108.663408">
        <ele>64.339768</ele>
        <time>2026-08-14T03:28:12.000Z</time>
      </trkpt>
      <trkpt lat="22.821732" lon="108.663467">
        <ele>64.319531</ele>
        <time>2026-08-14T03:28:13.000Z</time>
      </trkpt>
      <trkpt lat="22.821733" lon="108.663529">
        <ele>64.298277</ele>
        <time>2026-08-14T03:28:14.000Z</time>
      </trkpt>
      <trkpt lat="22.821733" lon="108.663590">
        <ele>64.277368</ele>
        <time>2026-08-14T03:28:15.000Z</time>
      </trkpt>
      <trkpt lat="22.821734" lon="108.663650">
        <ele>64.256799</ele>
        <time>2026-08-14T03:28:16.000Z</time>
      </trkpt>
      <trkpt lat="22.821734" lon="108.663710">
        <ele>64.236233</ele>
        <time>2026-08-14T03:28:17.000Z</time>
      </trkpt>
      <trkpt lat="22.821734" lon="108.663772">
        <ele>64.214982</ele>
        <time>2026-08-14T03:28:18.000Z</time>
      </trkpt>
      <trkpt lat="22.821736" lon="108.663834">
        <ele>64.193718</ele>
        <time>2026-08-14T03:28:19.000Z</time>
      </trkpt>
      <trkpt lat="22.821739" lon="108.663895">
        <ele>64.172780</ele>
        <time>2026-08-14T03:28:20.000Z</time>
      </trkpt>
      <trkpt lat="22.821741" lon="108.663955">
        <ele>64.152201</ele>
        <time>2026-08-14T03:28:21.000Z</time>
      </trkpt>
      <trkpt lat="22.821744" lon="108.664016">
        <ele>64.131262</ele>
        <time>2026-08-14T03:28:22.000Z</time>
      </trkpt>
      <trkpt lat="22.821747" lon="108.664078">
        <ele>64.109982</ele>
        <time>2026-08-14T03:28:23.000Z</time>
      </trkpt>
      <trkpt lat="22.821751" lon="108.664139">
        <ele>64.089021</ele>
        <time>2026-08-14T03:28:24.000Z</time>
      </trkpt>
      <trkpt lat="22.821754" lon="108.664201">
        <ele>64.067740</ele>
        <time>2026-08-14T03:28:25.000Z</time>
      </trkpt>
      <trkpt lat="22.821756" lon="108.664266">
        <ele>64.045448</ele>
        <time>2026-08-14T03:28:26.000Z</time>
      </trkpt>
      <trkpt lat="22.821757" lon="108.664331">
        <ele>64.023165</ele>
        <time>2026-08-14T03:28:27.000Z</time>
      </trkpt>
      <trkpt lat="22.821759" lon="108.664396">
        <ele>64.000874</ele>
        <time>2026-08-14T03:28:28.000Z</time>
      </trkpt>
      <trkpt lat="22.821761" lon="108.664461">
        <ele>63.978582</ele>
        <time>2026-08-14T03:28:29.000Z</time>
      </trkpt>
      <trkpt lat="22.821763" lon="108.664528">
        <ele>63.955605</ele>
        <time>2026-08-14T03:28:30.000Z</time>
      </trkpt>
      <trkpt lat="22.821764" lon="108.664595">
        <ele>63.932636</ele>
        <time>2026-08-14T03:28:31.000Z</time>
      </trkpt>
      <trkpt lat="22.821764" lon="108.664663">
        <ele>63.909329</ele>
        <time>2026-08-14T03:28:32.000Z</time>
      </trkpt>
      <trkpt lat="22.821765" lon="108.664730">
        <ele>63.886361</ele>
        <time>2026-08-14T03:28:33.000Z</time>
      </trkpt>
      <trkpt lat="22.821767" lon="108.664797">
        <ele>63.903915</ele>
        <time>2026-08-14T03:28:34.000Z</time>
      </trkpt>
      <trkpt lat="22.821770" lon="108.664866">
        <ele>63.955471</ele>
        <time>2026-08-14T03:28:35.000Z</time>
      </trkpt>
      <trkpt lat="22.821772" lon="108.664935">
        <ele>64.006994</ele>
        <time>2026-08-14T03:28:36.000Z</time>
      </trkpt>
      <trkpt lat="22.821774" lon="108.665007">
        <ele>64.060756</ele>
        <time>2026-08-14T03:28:37.000Z</time>
      </trkpt>
      <trkpt lat="22.821776" lon="108.665075">
        <ele>64.111533</ele>
        <time>2026-08-14T03:28:38.000Z</time>
      </trkpt>
      <trkpt lat="22.821778" lon="108.665143">
        <ele>64.162311</ele>
        <time>2026-08-14T03:28:39.000Z</time>
      </trkpt>
      <trkpt lat="22.821779" lon="108.665215">
        <ele>64.216054</ele>
        <time>2026-08-14T03:28:40.000Z</time>
      </trkpt>
      <trkpt lat="22.821782" lon="108.665286">
        <ele>64.269100</ele>
        <time>2026-08-14T03:28:41.000Z</time>
      </trkpt>
      <trkpt lat="22.821783" lon="108.665357">
        <ele>64.322097</ele>
        <time>2026-08-14T03:28:42.000Z</time>
      </trkpt>
      <trkpt lat="22.821785" lon="108.665429">
        <ele>64.375859</ele>
        <time>2026-08-14T03:28:43.000Z</time>
      </trkpt>
      <trkpt lat="22.821787" lon="108.665500">
        <ele>64.428874</ele>
        <time>2026-08-14T03:28:44.000Z</time>
      </trkpt>
      <trkpt lat="22.821787" lon="108.665571">
        <ele>64.481865</ele>
        <time>2026-08-14T03:28:45.000Z</time>
      </trkpt>
      <trkpt lat="22.821788" lon="108.665640">
        <ele>64.533369</ele>
        <time>2026-08-14T03:28:46.000Z</time>
      </trkpt>
      <trkpt lat="22.821789" lon="108.665707">
        <ele>64.583381</ele>
        <time>2026-08-14T03:28:47.000Z</time>
      </trkpt>
      <trkpt lat="22.821791" lon="108.665773">
        <ele>64.632667</ele>
        <time>2026-08-14T03:28:48.000Z</time>
      </trkpt>
      <trkpt lat="22.821794" lon="108.665840">
        <ele>64.682731</ele>
        <time>2026-08-14T03:28:49.000Z</time>
      </trkpt>
      <trkpt lat="22.821797" lon="108.665907">
        <ele>64.732795</ele>
        <time>2026-08-14T03:28:50.000Z</time>
      </trkpt>
      <trkpt lat="22.821799" lon="108.665972">
        <ele>64.781335</ele>
        <time>2026-08-14T03:28:51.000Z</time>
      </trkpt>
      <trkpt lat="22.821801" lon="108.666037">
        <ele>64.829875</ele>
        <time>2026-08-14T03:28:52.000Z</time>
      </trkpt>
      <trkpt lat="22.821800" lon="108.666101">
        <ele>64.877648</ele>
        <time>2026-08-14T03:28:53.000Z</time>
      </trkpt>
      <trkpt lat="22.821801" lon="108.666166">
        <ele>64.926167</ele>
        <time>2026-08-14T03:28:54.000Z</time>
      </trkpt>
      <trkpt lat="22.821802" lon="108.666229">
        <ele>64.973194</ele>
        <time>2026-08-14T03:28:55.000Z</time>
      </trkpt>
      <trkpt lat="22.821805" lon="108.666290">
        <ele>65.018786</ele>
        <time>2026-08-14T03:28:56.000Z</time>
      </trkpt>
      <trkpt lat="22.821808" lon="108.666349">
        <ele>65.062888</ele>
        <time>2026-08-14T03:28:57.000Z</time>
      </trkpt>
      <trkpt lat="22.821811" lon="108.666406">
        <ele>65.105499</ele>
        <time>2026-08-14T03:28:58.000Z</time>
      </trkpt>
      <trkpt lat="22.821812" lon="108.666463">
        <ele>65.148048</ele>
        <time>2026-08-14T03:28:59.000Z</time>
      </trkpt>
      <trkpt lat="22.821814" lon="108.666518">
        <ele>65.189129</ele>
        <time>2026-08-14T03:29:00.000Z</time>
      </trkpt>
      <trkpt lat="22.821817" lon="108.666570">
        <ele>65.228015</ele>
        <time>2026-08-14T03:29:01.000Z</time>
      </trkpt>
      <trkpt lat="22.821820" lon="108.666620">
        <ele>65.265412</ele>
        <time>2026-08-14T03:29:02.000Z</time>
      </trkpt>
      <trkpt lat="22.821820" lon="108.666672">
        <ele>65.304222</ele>
        <time>2026-08-14T03:29:03.000Z</time>
      </trkpt>
      <trkpt lat="22.821823" lon="108.666723">
        <ele>65.362221</ele>
        <time>2026-08-14T03:29:04.000Z</time>
      </trkpt>
      <trkpt lat="22.821825" lon="108.666771">
        <ele>65.470797</ele>
        <time>2026-08-14T03:29:05.000Z</time>
      </trkpt>
      <trkpt lat="22.821827" lon="108.666820">
        <ele>65.581631</ele>
        <time>2026-08-14T03:29:06.000Z</time>
      </trkpt>
      <trkpt lat="22.821828" lon="108.666866">
        <ele>65.685606</ele>
        <time>2026-08-14T03:29:07.000Z</time>
      </trkpt>
      <trkpt lat="22.821827" lon="108.666911">
        <ele>65.787321</ele>
        <time>2026-08-14T03:29:08.000Z</time>
      </trkpt>
      <trkpt lat="22.821828" lon="108.666958">
        <ele>65.893555</ele>
        <time>2026-08-14T03:29:09.000Z</time>
      </trkpt>
      <trkpt lat="22.821832" lon="108.667006">
        <ele>66.002463</ele>
        <time>2026-08-14T03:29:10.000Z</time>
      </trkpt>
      <trkpt lat="22.821833" lon="108.667053">
        <ele>66.108697</ele>
        <time>2026-08-14T03:29:11.000Z</time>
      </trkpt>
      <trkpt lat="22.821835" lon="108.667100">
        <ele>66.215015</ele>
        <time>2026-08-14T03:29:12.000Z</time>
      </trkpt>
      <trkpt lat="22.821835" lon="108.667146">
        <ele>66.318961</ele>
        <time>2026-08-14T03:29:13.000Z</time>
      </trkpt>
      <trkpt lat="22.821835" lon="108.667193">
        <ele>66.425167</ele>
        <time>2026-08-14T03:29:14.000Z</time>
      </trkpt>
      <trkpt lat="22.821834" lon="108.667239">
        <ele>66.529141</ele>
        <time>2026-08-14T03:29:15.000Z</time>
      </trkpt>
      <trkpt lat="22.821835" lon="108.667285">
        <ele>66.633116</ele>
        <time>2026-08-14T03:29:16.000Z</time>
      </trkpt>
      <trkpt lat="22.821836" lon="108.667331">
        <ele>66.737091</ele>
        <time>2026-08-14T03:29:17.000Z</time>
      </trkpt>
      <trkpt lat="22.821838" lon="108.667375">
        <ele>66.836638</ele>
        <time>2026-08-14T03:29:18.000Z</time>
      </trkpt>
      <trkpt lat="22.821842" lon="108.667421">
        <ele>66.941046</ele>
        <time>2026-08-14T03:29:19.000Z</time>
      </trkpt>
      <trkpt lat="22.821842" lon="108.667466">
        <ele>67.042732</ele>
        <time>2026-08-14T03:29:20.000Z</time>
      </trkpt>
      <trkpt lat="22.821843" lon="108.667510">
        <ele>67.142188</ele>
        <time>2026-08-14T03:29:21.000Z</time>
      </trkpt>
      <trkpt lat="22.821846" lon="108.667552">
        <ele>67.237380</ele>
        <time>2026-08-14T03:29:22.000Z</time>
      </trkpt>
      <trkpt lat="22.821848" lon="108.667592">
        <ele>67.327901</ele>
        <time>2026-08-14T03:29:23.000Z</time>
      </trkpt>
      <trkpt lat="22.821850" lon="108.667634">
        <ele>67.422934</ele>
        <time>2026-08-14T03:29:24.000Z</time>
      </trkpt>
      <trkpt lat="22.821852" lon="108.667677">
        <ele>67.520225</ele>
        <time>2026-08-14T03:29:25.000Z</time>
      </trkpt>
      <trkpt lat="22.821855" lon="108.667720">
        <ele>67.617669</ele>
        <time>2026-08-14T03:29:26.000Z</time>
      </trkpt>
      <trkpt lat="22.821860" lon="108.667761">
        <ele>67.711124</ele>
        <time>2026-08-14T03:29:27.000Z</time>
      </trkpt>
      <trkpt lat="22.821863" lon="108.667804">
        <ele>67.808569</ele>
        <time>2026-08-14T03:29:28.000Z</time>
      </trkpt>
      <trkpt lat="22.821865" lon="108.667845">
        <ele>67.901346</ele>
        <time>2026-08-14T03:29:29.000Z</time>
      </trkpt>
      <trkpt lat="22.821866" lon="108.667888">
        <ele>67.998543</ele>
        <time>2026-08-14T03:29:30.000Z</time>
      </trkpt>
      <trkpt lat="22.821865" lon="108.667931">
        <ele>68.095741</ele>
        <time>2026-08-14T03:29:31.000Z</time>
      </trkpt>
      <trkpt lat="22.821863" lon="108.667975">
        <ele>68.195288</ele>
        <time>2026-08-14T03:29:32.000Z</time>
      </trkpt>
      <trkpt lat="22.821862" lon="108.668017">
        <ele>68.290227</ele>
        <time>2026-08-14T03:29:33.000Z</time>
      </trkpt>
      <trkpt lat="22.821861" lon="108.668061">
        <ele>68.389684</ele>
        <time>2026-08-14T03:29:34.000Z</time>
      </trkpt>
      <trkpt lat="22.821861" lon="108.668105">
        <ele>68.489110</ele>
        <time>2026-08-14T03:29:35.000Z</time>
      </trkpt>
      <trkpt lat="22.821862" lon="108.668149">
        <ele>68.588567</ele>
        <time>2026-08-14T03:29:36.000Z</time>
      </trkpt>
      <trkpt lat="22.821860" lon="108.668192">
        <ele>68.685857</ele>
        <time>2026-08-14T03:29:37.000Z</time>
      </trkpt>
      <trkpt lat="22.821861" lon="108.668233">
        <ele>68.778537</ele>
        <time>2026-08-14T03:29:38.000Z</time>
      </trkpt>
      <trkpt lat="22.821862" lon="108.668276">
        <ele>68.875735</ele>
        <time>2026-08-14T03:29:39.000Z</time>
      </trkpt>
      <trkpt lat="22.821863" lon="108.668318">
        <ele>68.970673</ele>
        <time>2026-08-14T03:29:40.000Z</time>
      </trkpt>
      <trkpt lat="22.821861" lon="108.668359">
        <ele>69.063450</ele>
        <time>2026-08-14T03:29:41.000Z</time>
      </trkpt>
      <trkpt lat="22.821861" lon="108.668402">
        <ele>69.160617</ele>
        <time>2026-08-14T03:29:42.000Z</time>
      </trkpt>
      <trkpt lat="22.821861" lon="108.668445">
        <ele>69.257784</ele>
        <time>2026-08-14T03:29:43.000Z</time>
      </trkpt>
      <trkpt lat="22.821860" lon="108.668488">
        <ele>69.354981</ele>
        <time>2026-08-14T03:29:44.000Z</time>
      </trkpt>
      <trkpt lat="22.821859" lon="108.668530">
        <ele>69.449920</ele>
        <time>2026-08-14T03:29:45.000Z</time>
      </trkpt>
      <trkpt lat="22.821862" lon="108.668575">
        <ele>69.551872</ele>
        <time>2026-08-14T03:29:46.000Z</time>
      </trkpt>
      <trkpt lat="22.821865" lon="108.668618">
        <ele>69.649317</ele>
        <time>2026-08-14T03:29:47.000Z</time>
      </trkpt>
      <trkpt lat="22.821868" lon="108.668660">
        <ele>69.743219</ele>
        <time>2026-08-14T03:29:48.000Z</time>
      </trkpt>
      <trkpt lat="22.821867" lon="108.668703">
        <ele>69.787259</ele>
        <time>2026-08-14T03:29:49.000Z</time>
      </trkpt>
      <trkpt lat="22.821868" lon="108.668746">
        <ele>69.831299</ele>
        <time>2026-08-14T03:29:50.000Z</time>
      </trkpt>
      <trkpt lat="22.821869" lon="108.668790">
        <ele>69.876362</ele>
        <time>2026-08-14T03:29:51.000Z</time>
      </trkpt>
      <trkpt lat="22.821870" lon="108.668835">
        <ele>69.922449</ele>
        <time>2026-08-14T03:29:52.000Z</time>
      </trkpt>
      <trkpt lat="22.821871" lon="108.668878">
        <ele>69.966488</ele>
        <time>2026-08-14T03:29:53.000Z</time>
      </trkpt>
      <trkpt lat="22.821873" lon="108.668921">
        <ele>70.010570</ele>
        <time>2026-08-14T03:29:54.000Z</time>
      </trkpt>
      <trkpt lat="22.821873" lon="108.668967">
        <ele>70.057667</ele>
        <time>2026-08-14T03:29:55.000Z</time>
      </trkpt>
      <trkpt lat="22.821876" lon="108.669013">
        <ele>70.104882</ele>
        <time>2026-08-14T03:29:56.000Z</time>
      </trkpt>
      <trkpt lat="22.821879" lon="108.669056">
        <ele>70.149034</ele>
        <time>2026-08-14T03:29:57.000Z</time>
      </trkpt>
      <trkpt lat="22.821882" lon="108.669101">
        <ele>70.195227</ele>
        <time>2026-08-14T03:29:58.000Z</time>
      </trkpt>
      <trkpt lat="22.821887" lon="108.669149">
        <ele>70.244685</ele>
        <time>2026-08-14T03:29:59.000Z</time>
      </trkpt>
      <trkpt lat="22.821888" lon="108.669195">
        <ele>70.291795</ele>
        <time>2026-08-14T03:30:00.000Z</time>
      </trkpt>
      <trkpt lat="22.821888" lon="108.669241">
        <ele>70.338893</ele>
        <time>2026-08-14T03:30:01.000Z</time>
      </trkpt>
      <trkpt lat="22.821889" lon="108.669288">
        <ele>70.387026</ele>
        <time>2026-08-14T03:30:02.000Z</time>
      </trkpt>
      <trkpt lat="22.821891" lon="108.669334">
        <ele>70.434176</ele>
        <time>2026-08-14T03:30:03.000Z</time>
      </trkpt>
      <trkpt lat="22.821891" lon="108.669379">
        <ele>70.480249</ele>
        <time>2026-08-14T03:30:04.000Z</time>
      </trkpt>
      <trkpt lat="22.821891" lon="108.669427">
        <ele>70.529394</ele>
        <time>2026-08-14T03:30:05.000Z</time>
      </trkpt>
      <trkpt lat="22.821890" lon="108.669473">
        <ele>70.576504</ele>
        <time>2026-08-14T03:30:06.000Z</time>
      </trkpt>
      <trkpt lat="22.821888" lon="108.669519">
        <ele>70.623654</ele>
        <time>2026-08-14T03:30:07.000Z</time>
      </trkpt>
      <trkpt lat="22.821885" lon="108.669567">
        <ele>70.672912</ele>
        <time>2026-08-14T03:30:08.000Z</time>
      </trkpt>
      <trkpt lat="22.821883" lon="108.669615">
        <ele>70.722107</ele>
        <time>2026-08-14T03:30:09.000Z</time>
      </trkpt>
      <trkpt lat="22.821885" lon="108.669660">
        <ele>70.768234</ele>
        <time>2026-08-14T03:30:10.000Z</time>
      </trkpt>
      <trkpt lat="22.821891" lon="108.669708">
        <ele>70.817829</ele>
        <time>2026-08-14T03:30:11.000Z</time>
      </trkpt>
      <trkpt lat="22.821894" lon="108.669761">
        <ele>70.872195</ele>
        <time>2026-08-14T03:30:12.000Z</time>
      </trkpt>
      <trkpt lat="22.821896" lon="108.669813">
        <ele>70.925482</ele>
        <time>2026-08-14T03:30:13.000Z</time>
      </trkpt>
      <trkpt lat="22.821899" lon="108.669866">
        <ele>70.979848</ele>
        <time>2026-08-14T03:30:14.000Z</time>
      </trkpt>
      <trkpt lat="22.821900" lon="108.669917">
        <ele>71.032076</ele>
        <time>2026-08-14T03:30:15.000Z</time>
      </trkpt>
      <trkpt lat="22.821902" lon="108.669968">
        <ele>71.084340</ele>
        <time>2026-08-14T03:30:16.000Z</time>
      </trkpt>
      <trkpt lat="22.821904" lon="108.670018">
        <ele>71.135581</ele>
        <time>2026-08-14T03:30:17.000Z</time>
      </trkpt>
      <trkpt lat="22.821905" lon="108.670068">
        <ele>71.186785</ele>
        <time>2026-08-14T03:30:18.000Z</time>
      </trkpt>
      <trkpt lat="22.821906" lon="108.670119">
        <ele>71.239014</ele>
        <time>2026-08-14T03:30:19.000Z</time>
      </trkpt>
      <trkpt lat="22.821908" lon="108.670170">
        <ele>71.291277</ele>
        <time>2026-08-14T03:30:20.000Z</time>
      </trkpt>
      <trkpt lat="22.821911" lon="108.670221">
        <ele>71.343600</ele>
        <time>2026-08-14T03:30:21.000Z</time>
      </trkpt>
      <trkpt lat="22.821913" lon="108.670272">
        <ele>71.395864</ele>
        <time>2026-08-14T03:30:22.000Z</time>
      </trkpt>
      <trkpt lat="22.821916" lon="108.670322">
        <ele>71.447165</ele>
        <time>2026-08-14T03:30:23.000Z</time>
      </trkpt>
      <trkpt lat="22.821918" lon="108.670374">
        <ele>71.500451</ele>
        <time>2026-08-14T03:30:24.000Z</time>
      </trkpt>
      <trkpt lat="22.821918" lon="108.670428">
        <ele>71.555739</ele>
        <time>2026-08-14T03:30:25.000Z</time>
      </trkpt>
      <trkpt lat="22.821918" lon="108.670483">
        <ele>71.612051</ele>
        <time>2026-08-14T03:30:26.000Z</time>
      </trkpt>
      <trkpt lat="22.821918" lon="108.670536">
        <ele>71.666315</ele>
        <time>2026-08-14T03:30:27.000Z</time>
      </trkpt>
      <trkpt lat="22.821918" lon="108.670589">
        <ele>71.720579</ele>
        <time>2026-08-14T03:30:28.000Z</time>
      </trkpt>
      <trkpt lat="22.821920" lon="108.670645">
        <ele>71.761415</ele>
        <time>2026-08-14T03:30:29.000Z</time>
      </trkpt>
      <trkpt lat="22.821919" lon="108.670702">
        <ele>71.794274</ele>
        <time>2026-08-14T03:30:30.000Z</time>
      </trkpt>
      <trkpt lat="22.821919" lon="108.670758">
        <ele>71.826552</ele>
        <time>2026-08-14T03:30:31.000Z</time>
      </trkpt>
      <trkpt lat="22.821919" lon="108.670812">
        <ele>71.857676</ele>
        <time>2026-08-14T03:30:32.000Z</time>
      </trkpt>
      <trkpt lat="22.821921" lon="108.670868">
        <ele>71.889978</ele>
        <time>2026-08-14T03:30:33.000Z</time>
      </trkpt>
      <trkpt lat="22.821923" lon="108.670923">
        <ele>71.921703</ele>
        <time>2026-08-14T03:30:34.000Z</time>
      </trkpt>
      <trkpt lat="22.821925" lon="108.670977">
        <ele>71.952853</ele>
        <time>2026-08-14T03:30:35.000Z</time>
      </trkpt>
      <trkpt lat="22.821927" lon="108.671033">
        <ele>71.985154</ele>
        <time>2026-08-14T03:30:36.000Z</time>
      </trkpt>
      <trkpt lat="22.821929" lon="108.671087">
        <ele>72.016304</ele>
        <time>2026-08-14T03:30:37.000Z</time>
      </trkpt>
      <trkpt lat="22.821932" lon="108.671140">
        <ele>72.046909</ele>
        <time>2026-08-14T03:30:38.000Z</time>
      </trkpt>
      <trkpt lat="22.821934" lon="108.671193">
        <ele>72.077483</ele>
        <time>2026-08-14T03:30:39.000Z</time>
      </trkpt>
      <trkpt lat="22.821937" lon="108.671242">
        <ele>72.105788</ele>
        <time>2026-08-14T03:30:40.000Z</time>
      </trkpt>
      <trkpt lat="22.821948" lon="108.671288">
        <ele>72.133179</ele>
        <time>2026-08-14T03:30:41.000Z</time>
      </trkpt>
      <trkpt lat="22.821961" lon="108.671336">
        <ele>72.162015</ele>
        <time>2026-08-14T03:30:42.000Z</time>
      </trkpt>
      <trkpt lat="22.821967" lon="108.671386">
        <ele>72.191077</ele>
        <time>2026-08-14T03:30:43.000Z</time>
      </trkpt>
      <trkpt lat="22.821966" lon="108.671437">
        <ele>72.220479</ele>
        <time>2026-08-14T03:30:44.000Z</time>
      </trkpt>
      <trkpt lat="22.821961" lon="108.671489">
        <ele>72.250613</ele>
        <time>2026-08-14T03:30:45.000Z</time>
      </trkpt>
      <trkpt lat="22.821956" lon="108.671541">
        <ele>72.280748</ele>
        <time>2026-08-14T03:30:46.000Z</time>
      </trkpt>
      <trkpt lat="22.821954" lon="108.671595">
        <ele>72.311897</ele>
        <time>2026-08-14T03:30:47.000Z</time>
      </trkpt>
      <trkpt lat="22.821953" lon="108.671650">
        <ele>72.343604</ele>
        <time>2026-08-14T03:30:48.000Z</time>
      </trkpt>
      <trkpt lat="22.821952" lon="108.671704">
        <ele>72.374735</ele>
        <time>2026-08-14T03:30:49.000Z</time>
      </trkpt>
      <trkpt lat="22.821957" lon="108.671758">
        <ele>72.406016</ele>
        <time>2026-08-14T03:30:50.000Z</time>
      </trkpt>
      <trkpt lat="22.821959" lon="108.671811">
        <ele>72.436590</ele>
        <time>2026-08-14T03:30:51.000Z</time>
      </trkpt>
      <trkpt lat="22.821961" lon="108.671867">
        <ele>72.468891</ele>
        <time>2026-08-14T03:30:52.000Z</time>
      </trkpt>
      <trkpt lat="22.821965" lon="108.671923">
        <ele>72.501265</ele>
        <time>2026-08-14T03:30:53.000Z</time>
      </trkpt>
      <trkpt lat="22.821966" lon="108.671979">
        <ele>72.533548</ele>
        <time>2026-08-14T03:30:54.000Z</time>
      </trkpt>
      <trkpt lat="22.821967" lon="108.672036">
        <ele>72.566408</ele>
        <time>2026-08-14T03:30:55.000Z</time>
      </trkpt>
      <trkpt lat="22.821967" lon="108.672093">
        <ele>72.599262</ele>
        <time>2026-08-14T03:30:56.000Z</time>
      </trkpt>
      <trkpt lat="22.821968" lon="108.672150">
        <ele>72.632121</ele>
        <time>2026-08-14T03:30:57.000Z</time>
      </trkpt>
      <trkpt lat="22.821970" lon="108.672207">
        <ele>72.664998</ele>
        <time>2026-08-14T03:30:58.000Z</time>
      </trkpt>
      <trkpt lat="22.821972" lon="108.672262">
        <ele>72.696724</ele>
        <time>2026-08-14T03:30:59.000Z</time>
      </trkpt>
      <trkpt lat="22.821973" lon="108.672319">
        <ele>72.729584</ele>
        <time>2026-08-14T03:31:00.000Z</time>
      </trkpt>
      <trkpt lat="22.821974" lon="108.672377">
        <ele>72.763019</ele>
        <time>2026-08-14T03:31:01.000Z</time>
      </trkpt>
      <trkpt lat="22.821974" lon="108.672436">
        <ele>72.797026</ele>
        <time>2026-08-14T03:31:02.000Z</time>
      </trkpt>
      <trkpt lat="22.821973" lon="108.672494">
        <ele>72.830461</ele>
        <time>2026-08-14T03:31:03.000Z</time>
      </trkpt>
      <trkpt lat="22.821970" lon="108.672552">
        <ele>72.863944</ele>
        <time>2026-08-14T03:31:04.000Z</time>
      </trkpt>
      <trkpt lat="22.821969" lon="108.672612">
        <ele>72.850311</ele>
        <time>2026-08-14T03:31:05.000Z</time>
      </trkpt>
      <trkpt lat="22.821969" lon="108.672671">
        <ele>72.835621</ele>
        <time>2026-08-14T03:31:06.000Z</time>
      </trkpt>
      <trkpt lat="22.821970" lon="108.672730">
        <ele>72.820929</ele>
        <time>2026-08-14T03:31:07.000Z</time>
      </trkpt>
      <trkpt lat="22.821973" lon="108.672787">
        <ele>72.806714</ele>
        <time>2026-08-14T03:31:08.000Z</time>
      </trkpt>
      <trkpt lat="22.821976" lon="108.672846">
        <ele>72.792003</ele>
        <time>2026-08-14T03:31:09.000Z</time>
      </trkpt>
      <trkpt lat="22.821978" lon="108.672905">
        <ele>72.777303</ele>
        <time>2026-08-14T03:31:10.000Z</time>
      </trkpt>
      <trkpt lat="22.821979" lon="108.672964">
        <ele>72.762611</ele>
        <time>2026-08-14T03:31:11.000Z</time>
      </trkpt>
      <trkpt lat="22.821980" lon="108.673023">
        <ele>72.747919</ele>
        <time>2026-08-14T03:31:12.000Z</time>
      </trkpt>
      <trkpt lat="22.821982" lon="108.673083">
        <ele>72.732971</ele>
        <time>2026-08-14T03:31:13.000Z</time>
      </trkpt>
      <trkpt lat="22.821981" lon="108.673142">
        <ele>72.718278</ele>
        <time>2026-08-14T03:31:14.000Z</time>
      </trkpt>
      <trkpt lat="22.821981" lon="108.673203">
        <ele>72.703091</ele>
        <time>2026-08-14T03:31:15.000Z</time>
      </trkpt>
      <trkpt lat="22.821982" lon="108.673264">
        <ele>72.687901</ele>
        <time>2026-08-14T03:31:16.000Z</time>
      </trkpt>
      <trkpt lat="22.821983" lon="108.673324">
        <ele>72.672960</ele>
        <time>2026-08-14T03:31:17.000Z</time>
      </trkpt>
      <trkpt lat="22.821985" lon="108.673384">
        <ele>72.658012</ele>
        <time>2026-08-14T03:31:18.000Z</time>
      </trkpt>
      <trkpt lat="22.821985" lon="108.673443">
        <ele>72.643322</ele>
        <time>2026-08-14T03:31:19.000Z</time>
      </trkpt>
      <trkpt lat="22.821987" lon="108.673502">
        <ele>72.628622</ele>
        <time>2026-08-14T03:31:20.000Z</time>
      </trkpt>
      <trkpt lat="22.821989" lon="108.673562">
        <ele>72.613674</ele>
        <time>2026-08-14T03:31:21.000Z</time>
      </trkpt>
      <trkpt lat="22.821992" lon="108.673622">
        <ele>72.598714</ele>
        <time>2026-08-14T03:31:22.000Z</time>
      </trkpt>
      <trkpt lat="22.821996" lon="108.673684">
        <ele>72.583239</ele>
        <time>2026-08-14T03:31:23.000Z</time>
      </trkpt>
      <trkpt lat="22.822002" lon="108.673746">
        <ele>72.567718</ele>
        <time>2026-08-14T03:31:24.000Z</time>
      </trkpt>
      <trkpt lat="22.822010" lon="108.673806">
        <ele>72.552624</ele>
        <time>2026-08-14T03:31:25.000Z</time>
      </trkpt>
      <trkpt lat="22.822021" lon="108.673867">
        <ele>72.537148</ele>
        <time>2026-08-14T03:31:26.000Z</time>
      </trkpt>
      <trkpt lat="22.822030" lon="108.673929">
        <ele>72.521522</ele>
        <time>2026-08-14T03:31:27.000Z</time>
      </trkpt>
      <trkpt lat="22.822037" lon="108.673990">
        <ele>72.506217</ele>
        <time>2026-08-14T03:31:28.000Z</time>
      </trkpt>
      <trkpt lat="22.822041" lon="108.674053">
        <ele>72.490494</ele>
        <time>2026-08-14T03:31:29.000Z</time>
      </trkpt>
      <trkpt lat="22.822045" lon="108.674116">
        <ele>72.474771</ele>
        <time>2026-08-14T03:31:30.000Z</time>
      </trkpt>
      <trkpt lat="22.822048" lon="108.674179">
        <ele>72.459065</ele>
        <time>2026-08-14T03:31:31.000Z</time>
      </trkpt>
      <trkpt lat="22.822052" lon="108.674243">
        <ele>72.443094</ele>
        <time>2026-08-14T03:31:32.000Z</time>
      </trkpt>
      <trkpt lat="22.822058" lon="108.674307">
        <ele>72.427077</ele>
        <time>2026-08-14T03:31:33.000Z</time>
      </trkpt>
      <trkpt lat="22.822065" lon="108.674372">
        <ele>72.410784</ele>
        <time>2026-08-14T03:31:34.000Z</time>
      </trkpt>
      <trkpt lat="22.822072" lon="108.674437">
        <ele>72.394490</ele>
        <time>2026-08-14T03:31:35.000Z</time>
      </trkpt>
      <trkpt lat="22.822079" lon="108.674502">
        <ele>72.374933</ele>
        <time>2026-08-14T03:31:36.000Z</time>
      </trkpt>
      <trkpt lat="22.822086" lon="108.674567">
        <ele>72.292655</ele>
        <time>2026-08-14T03:31:37.000Z</time>
      </trkpt>
      <trkpt lat="22.822095" lon="108.674632">
        <ele>72.210016</ele>
        <time>2026-08-14T03:31:38.000Z</time>
      </trkpt>
      <trkpt lat="22.822105" lon="108.674698">
        <ele>72.125923</ele>
        <time>2026-08-14T03:31:39.000Z</time>
      </trkpt>
      <trkpt lat="22.822116" lon="108.674765">
        <ele>72.040360</ele>
        <time>2026-08-14T03:31:40.000Z</time>
      </trkpt>
      <trkpt lat="22.822126" lon="108.674831">
        <ele>71.956267</ele>
        <time>2026-08-14T03:31:41.000Z</time>
      </trkpt>
      <trkpt lat="22.822136" lon="108.674898">
        <ele>71.870933</ele>
        <time>2026-08-14T03:31:42.000Z</time>
      </trkpt>
      <trkpt lat="22.822145" lon="108.674966">
        <ele>71.784562</ele>
        <time>2026-08-14T03:31:43.000Z</time>
      </trkpt>
      <trkpt lat="22.822155" lon="108.675032">
        <ele>71.700469</ele>
        <time>2026-08-14T03:31:44.000Z</time>
      </trkpt>
      <trkpt lat="22.822162" lon="108.675098">
        <ele>71.616942</ele>
        <time>2026-08-14T03:31:45.000Z</time>
      </trkpt>
      <trkpt lat="22.822168" lon="108.675166">
        <ele>71.531057</ele>
        <time>2026-08-14T03:31:46.000Z</time>
      </trkpt>
      <trkpt lat="22.822177" lon="108.675232">
        <ele>71.447174</ele>
        <time>2026-08-14T03:31:47.000Z</time>
      </trkpt>
      <trkpt lat="22.822190" lon="108.675298">
        <ele>71.362321</ele>
        <time>2026-08-14T03:31:48.000Z</time>
      </trkpt>
      <trkpt lat="22.822204" lon="108.675364">
        <ele>71.277173</ele>
        <time>2026-08-14T03:31:49.000Z</time>
      </trkpt>
      <trkpt lat="22.822219" lon="108.675430">
        <ele>71.191708</ele>
        <time>2026-08-14T03:31:50.000Z</time>
      </trkpt>
      <trkpt lat="22.822233" lon="108.675498">
        <ele>71.104107</ele>
        <time>2026-08-14T03:31:51.000Z</time>
      </trkpt>
      <trkpt lat="22.822247" lon="108.675565">
        <ele>71.017733</ele>
        <time>2026-08-14T03:31:52.000Z</time>
      </trkpt>
      <trkpt lat="22.822263" lon="108.675632">
        <ele>70.930715</ele>
        <time>2026-08-14T03:31:53.000Z</time>
      </trkpt>
      <trkpt lat="22.822279" lon="108.675702">
        <ele>70.840041</ele>
        <time>2026-08-14T03:31:54.000Z</time>
      </trkpt>
      <trkpt lat="22.822296" lon="108.675769">
        <ele>70.752670</ele>
        <time>2026-08-14T03:31:55.000Z</time>
      </trkpt>
      <trkpt lat="22.822313" lon="108.675836">
        <ele>70.665300</ele>
        <time>2026-08-14T03:31:56.000Z</time>
      </trkpt>
      <trkpt lat="22.822331" lon="108.675904">
        <ele>70.576351</ele>
        <time>2026-08-14T03:31:57.000Z</time>
      </trkpt>
      <trkpt lat="22.822350" lon="108.675973">
        <ele>70.485811</ele>
        <time>2026-08-14T03:31:58.000Z</time>
      </trkpt>
      <trkpt lat="22.822370" lon="108.676043">
        <ele>70.393671</ele>
        <time>2026-08-14T03:31:59.000Z</time>
      </trkpt>
      <trkpt lat="22.822389" lon="108.676114">
        <ele>70.300719</ele>
        <time>2026-08-14T03:32:00.000Z</time>
      </trkpt>
      <trkpt lat="22.822408" lon="108.676187">
        <ele>70.205350</ele>
        <time>2026-08-14T03:32:01.000Z</time>
      </trkpt>
      <trkpt lat="22.822427" lon="108.676258">
        <ele>70.112398</ele>
        <time>2026-08-14T03:32:02.000Z</time>
      </trkpt>
      <trkpt lat="22.822446" lon="108.676329">
        <ele>70.019446</ele>
        <time>2026-08-14T03:32:03.000Z</time>
      </trkpt>
      <trkpt lat="22.822468" lon="108.676400">
        <ele>69.925089</ele>
        <time>2026-08-14T03:32:04.000Z</time>
      </trkpt>
      <trkpt lat="22.822490" lon="108.676469">
        <ele>69.775164</ele>
        <time>2026-08-14T03:32:05.000Z</time>
      </trkpt>
      <trkpt lat="22.822513" lon="108.676539">
        <ele>69.622564</ele>
        <time>2026-08-14T03:32:06.000Z</time>
      </trkpt>
      <trkpt lat="22.822537" lon="108.676611">
        <ele>69.465346</ele>
        <time>2026-08-14T03:32:07.000Z</time>
      </trkpt>
      <trkpt lat="22.822562" lon="108.676683">
        <ele>69.307356</ele>
        <time>2026-08-14T03:32:08.000Z</time>
      </trkpt>
      <trkpt lat="22.822588" lon="108.676753">
        <ele>69.152384</ele>
        <time>2026-08-14T03:32:09.000Z</time>
      </trkpt>
      <trkpt lat="22.822616" lon="108.676823">
        <ele>68.995691</ele>
        <time>2026-08-14T03:32:10.000Z</time>
      </trkpt>
      <trkpt lat="22.822643" lon="108.676895">
        <ele>68.836076</ele>
        <time>2026-08-14T03:32:11.000Z</time>
      </trkpt>
      <trkpt lat="22.822668" lon="108.676968">
        <ele>68.676163</ele>
        <time>2026-08-14T03:32:12.000Z</time>
      </trkpt>
      <trkpt lat="22.822692" lon="108.677042">
        <ele>68.515077</ele>
        <time>2026-08-14T03:32:13.000Z</time>
      </trkpt>
      <trkpt lat="22.822716" lon="108.677116">
        <ele>68.353991</ele>
        <time>2026-08-14T03:32:14.000Z</time>
      </trkpt>
      <trkpt lat="22.822740" lon="108.677190">
        <ele>68.192905</ele>
        <time>2026-08-14T03:32:15.000Z</time>
      </trkpt>
      <trkpt lat="22.822766" lon="108.677264">
        <ele>68.030285</ele>
        <time>2026-08-14T03:32:16.000Z</time>
      </trkpt>
      <trkpt lat="22.822793" lon="108.677337">
        <ele>67.868766</ele>
        <time>2026-08-14T03:32:17.000Z</time>
      </trkpt>
      <trkpt lat="22.822821" lon="108.677411">
        <ele>67.704507</ele>
        <time>2026-08-14T03:32:18.000Z</time>
      </trkpt>
      <trkpt lat="22.822848" lon="108.677486">
        <ele>67.539170</ele>
        <time>2026-08-14T03:32:19.000Z</time>
      </trkpt>
      <trkpt lat="22.822875" lon="108.677563">
        <ele>67.370001</ele>
        <time>2026-08-14T03:32:20.000Z</time>
      </trkpt>
      <trkpt lat="22.822901" lon="108.677640">
        <ele>67.201611</ele>
        <time>2026-08-14T03:32:21.000Z</time>
      </trkpt>
      <trkpt lat="22.822928" lon="108.677718">
        <ele>67.030521</ele>
        <time>2026-08-14T03:32:22.000Z</time>
      </trkpt>
      <trkpt lat="22.822953" lon="108.677796">
        <ele>66.860946</ele>
        <time>2026-08-14T03:32:23.000Z</time>
      </trkpt>
      <trkpt lat="22.822982" lon="108.677874">
        <ele>66.688239</ele>
        <time>2026-08-14T03:32:24.000Z</time>
      </trkpt>
      <trkpt lat="22.823012" lon="108.677954">
        <ele>66.510890</ele>
        <time>2026-08-14T03:32:25.000Z</time>
      </trkpt>
      <trkpt lat="22.823039" lon="108.678035">
        <ele>66.334019</ele>
        <time>2026-08-14T03:32:26.000Z</time>
      </trkpt>
      <trkpt lat="22.823067" lon="108.678117">
        <ele>66.154455</ele>
        <time>2026-08-14T03:32:27.000Z</time>
      </trkpt>
      <trkpt lat="22.823094" lon="108.678200">
        <ele>65.973718</ele>
        <time>2026-08-14T03:32:28.000Z</time>
      </trkpt>
      <trkpt lat="22.823121" lon="108.678281">
        <ele>65.782268</ele>
        <time>2026-08-14T03:32:29.000Z</time>
      </trkpt>
      <trkpt lat="22.823150" lon="108.678363">
        <ele>65.580297</ele>
        <time>2026-08-14T03:32:30.000Z</time>
      </trkpt>
      <trkpt lat="22.823180" lon="108.678446">
        <ele>65.375278</ele>
        <time>2026-08-14T03:32:31.000Z</time>
      </trkpt>
      <trkpt lat="22.823209" lon="108.678532">
        <ele>65.164693</ele>
        <time>2026-08-14T03:32:32.000Z</time>
      </trkpt>
      <trkpt lat="22.823238" lon="108.678614">
        <ele>64.962721</ele>
        <time>2026-08-14T03:32:33.000Z</time>
      </trkpt>
      <trkpt lat="22.823269" lon="108.678698">
        <ele>64.754646</ele>
        <time>2026-08-14T03:32:34.000Z</time>
      </trkpt>
      <trkpt lat="22.823300" lon="108.678783">
        <ele>64.544435</ele>
        <time>2026-08-14T03:32:35.000Z</time>
      </trkpt>
      <trkpt lat="22.823330" lon="108.678867">
        <ele>64.337274</ele>
        <time>2026-08-14T03:32:36.000Z</time>
      </trkpt>
      <trkpt lat="22.823362" lon="108.678951">
        <ele>64.128259</ele>
        <time>2026-08-14T03:32:37.000Z</time>
      </trkpt>
      <trkpt lat="22.823393" lon="108.679038">
        <ele>63.913764</ele>
        <time>2026-08-14T03:32:38.000Z</time>
      </trkpt>
      <trkpt lat="22.823424" lon="108.679125">
        <ele>63.699270</ele>
        <time>2026-08-14T03:32:39.000Z</time>
      </trkpt>
      <trkpt lat="22.823455" lon="108.679213">
        <ele>63.482629</ele>
        <time>2026-08-14T03:32:40.000Z</time>
      </trkpt>
      <trkpt lat="22.823487" lon="108.679303">
        <ele>63.260800</ele>
        <time>2026-08-14T03:32:41.000Z</time>
      </trkpt>
      <trkpt lat="22.823519" lon="108.679392">
        <ele>63.041115</ele>
        <time>2026-08-14T03:32:42.000Z</time>
      </trkpt>
      <trkpt lat="22.823549" lon="108.679479">
        <ele>62.827507</ele>
        <time>2026-08-14T03:32:43.000Z</time>
      </trkpt>
      <trkpt lat="22.823579" lon="108.679569">
        <ele>62.607425</ele>
        <time>2026-08-14T03:32:44.000Z</time>
      </trkpt>
      <trkpt lat="22.823608" lon="108.679660">
        <ele>62.386007</ele>
        <time>2026-08-14T03:32:45.000Z</time>
      </trkpt>
      <trkpt lat="22.823638" lon="108.679750">
        <ele>62.165925</ele>
        <time>2026-08-14T03:32:46.000Z</time>
      </trkpt>
      <trkpt lat="22.823668" lon="108.679840">
        <ele>61.945843</ele>
        <time>2026-08-14T03:32:47.000Z</time>
      </trkpt>
      <trkpt lat="22.823697" lon="108.679932">
        <ele>61.722250</ele>
        <time>2026-08-14T03:32:48.000Z</time>
      </trkpt>
      <trkpt lat="22.823725" lon="108.680020">
        <ele>61.508168</ele>
        <time>2026-08-14T03:32:49.000Z</time>
      </trkpt>
      <trkpt lat="22.823753" lon="108.680112">
        <ele>61.388904</ele>
        <time>2026-08-14T03:32:50.000Z</time>
      </trkpt>
      <trkpt lat="22.823781" lon="108.680201">
        <ele>61.326445</ele>
        <time>2026-08-14T03:32:51.000Z</time>
      </trkpt>
      <trkpt lat="22.823807" lon="108.680293">
        <ele>61.262533</ele>
        <time>2026-08-14T03:32:52.000Z</time>
      </trkpt>
      <trkpt lat="22.823833" lon="108.680382">
        <ele>61.200524</ele>
        <time>2026-08-14T03:32:53.000Z</time>
      </trkpt>
      <trkpt lat="22.823856" lon="108.680475">
        <ele>61.136571</ele>
        <time>2026-08-14T03:32:54.000Z</time>
      </trkpt>
      <trkpt lat="22.823877" lon="108.680567">
        <ele>61.073621</ele>
        <time>2026-08-14T03:32:55.000Z</time>
      </trkpt>
      <trkpt lat="22.823898" lon="108.680657">
        <ele>61.011960</ele>
        <time>2026-08-14T03:32:56.000Z</time>
      </trkpt>
      <trkpt lat="22.823919" lon="108.680746">
        <ele>60.950942</ele>
        <time>2026-08-14T03:32:57.000Z</time>
      </trkpt>
      <trkpt lat="22.823938" lon="108.680833">
        <ele>60.891560</ele>
        <time>2026-08-14T03:32:58.000Z</time>
      </trkpt>
      <trkpt lat="22.823955" lon="108.680918">
        <ele>60.833791</ele>
        <time>2026-08-14T03:32:59.000Z</time>
      </trkpt>
      <trkpt lat="22.823972" lon="108.681003">
        <ele>60.776023</ele>
        <time>2026-08-14T03:33:00.000Z</time>
      </trkpt>
      <trkpt lat="22.823989" lon="108.681087">
        <ele>60.718904</ele>
        <time>2026-08-14T03:33:01.000Z</time>
      </trkpt>
      <trkpt lat="22.824006" lon="108.681173">
        <ele>60.660486</ele>
        <time>2026-08-14T03:33:02.000Z</time>
      </trkpt>
      <trkpt lat="22.824020" lon="108.681255">
        <ele>60.605098</ele>
        <time>2026-08-14T03:33:03.000Z</time>
      </trkpt>
      <trkpt lat="22.824033" lon="108.681337">
        <ele>60.549836</ele>
        <time>2026-08-14T03:33:04.000Z</time>
      </trkpt>
      <trkpt lat="22.824044" lon="108.681418">
        <ele>60.495457</ele>
        <time>2026-08-14T03:33:05.000Z</time>
      </trkpt>
      <trkpt lat="22.824054" lon="108.681498">
        <ele>60.441837</ele>
        <time>2026-08-14T03:33:06.000Z</time>
      </trkpt>
      <trkpt lat="22.824062" lon="108.681579">
        <ele>60.387731</ele>
        <time>2026-08-14T03:33:07.000Z</time>
      </trkpt>
      <trkpt lat="22.824072" lon="108.681660">
        <ele>60.333453</ele>
        <time>2026-08-14T03:33:08.000Z</time>
      </trkpt>
      <trkpt lat="22.824083" lon="108.681738">
        <ele>60.281045</ele>
        <time>2026-08-14T03:33:09.000Z</time>
      </trkpt>
      <trkpt lat="22.824093" lon="108.681816">
        <ele>60.228741</ele>
        <time>2026-08-14T03:33:10.000Z</time>
      </trkpt>
      <trkpt lat="22.824103" lon="108.681895">
        <ele>60.175779</ele>
        <time>2026-08-14T03:33:11.000Z</time>
      </trkpt>
      <trkpt lat="22.824110" lon="108.681972">
        <ele>60.143424</ele>
        <time>2026-08-14T03:33:12.000Z</time>
      </trkpt>
      <trkpt lat="22.824115" lon="108.682048">
        <ele>60.184792</ele>
        <time>2026-08-14T03:33:13.000Z</time>
      </trkpt>
      <trkpt lat="22.824122" lon="108.682124">
        <ele>60.226261</ele>
        <time>2026-08-14T03:33:14.000Z</time>
      </trkpt>
      <trkpt lat="22.824128" lon="108.682197">
        <ele>60.266054</ele>
        <time>2026-08-14T03:33:15.000Z</time>
      </trkpt>
      <trkpt lat="22.824134" lon="108.682269">
        <ele>60.305305</ele>
        <time>2026-08-14T03:33:16.000Z</time>
      </trkpt>
      <trkpt lat="22.824140" lon="108.682339">
        <ele>60.343475</ele>
        <time>2026-08-14T03:33:17.000Z</time>
      </trkpt>
      <trkpt lat="22.824143" lon="108.682407">
        <ele>60.380437</ele>
        <time>2026-08-14T03:33:18.000Z</time>
      </trkpt>
      <trkpt lat="22.824146" lon="108.682475">
        <ele>60.417400</ele>
        <time>2026-08-14T03:33:19.000Z</time>
      </trkpt>
      <trkpt lat="22.824148" lon="108.682542">
        <ele>60.453796</ele>
        <time>2026-08-14T03:33:20.000Z</time>
      </trkpt>
      <trkpt lat="22.824150" lon="108.682607">
        <ele>60.489107</ele>
        <time>2026-08-14T03:33:21.000Z</time>
      </trkpt>
      <trkpt lat="22.824152" lon="108.682672">
        <ele>60.524418</ele>
        <time>2026-08-14T03:33:22.000Z</time>
      </trkpt>
      <trkpt lat="22.824154" lon="108.682736">
        <ele>60.559186</ele>
        <time>2026-08-14T03:33:23.000Z</time>
      </trkpt>
      <trkpt lat="22.824157" lon="108.682800">
        <ele>60.593980</ele>
        <time>2026-08-14T03:33:24.000Z</time>
      </trkpt>
      <trkpt lat="22.824159" lon="108.682864">
        <ele>60.628748</ele>
        <time>2026-08-14T03:33:25.000Z</time>
      </trkpt>
      <trkpt lat="22.824158" lon="108.682928">
        <ele>60.663501</ele>
        <time>2026-08-14T03:33:26.000Z</time>
      </trkpt>
      <trkpt lat="22.824155" lon="108.682992">
        <ele>60.698295</ele>
        <time>2026-08-14T03:33:27.000Z</time>
      </trkpt>
      <trkpt lat="22.824154" lon="108.683055">
        <ele>60.732505</ele>
        <time>2026-08-14T03:33:28.000Z</time>
      </trkpt>
      <trkpt lat="22.824154" lon="108.683118">
        <ele>60.766711</ele>
        <time>2026-08-14T03:33:29.000Z</time>
      </trkpt>
      <trkpt lat="22.824153" lon="108.683180">
        <ele>60.800378</ele>
        <time>2026-08-14T03:33:30.000Z</time>
      </trkpt>
      <trkpt lat="22.824154" lon="108.683240">
        <ele>60.832960</ele>
        <time>2026-08-14T03:33:31.000Z</time>
      </trkpt>
      <trkpt lat="22.824156" lon="108.683300">
        <ele>60.865558</ele>
        <time>2026-08-14T03:33:32.000Z</time>
      </trkpt>
      <trkpt lat="22.824156" lon="108.683361">
        <ele>60.898678</ele>
        <time>2026-08-14T03:33:33.000Z</time>
      </trkpt>
      <trkpt lat="22.824157" lon="108.683418">
        <ele>60.929631</ele>
        <time>2026-08-14T03:33:34.000Z</time>
      </trkpt>
      <trkpt lat="22.824157" lon="108.683478">
        <ele>60.962208</ele>
        <time>2026-08-14T03:33:35.000Z</time>
      </trkpt>
      <trkpt lat="22.824157" lon="108.683537">
        <ele>60.994241</ele>
        <time>2026-08-14T03:33:36.000Z</time>
      </trkpt>
      <trkpt lat="22.824157" lon="108.683597">
        <ele>61.026818</ele>
        <time>2026-08-14T03:33:37.000Z</time>
      </trkpt>
      <trkpt lat="22.824159" lon="108.683657">
        <ele>61.059416</ele>
        <time>2026-08-14T03:33:38.000Z</time>
      </trkpt>
      <trkpt lat="22.824159" lon="108.683714">
        <ele>61.090363</ele>
        <time>2026-08-14T03:33:39.000Z</time>
      </trkpt>
      <trkpt lat="22.824159" lon="108.683773">
        <ele>61.122397</ele>
        <time>2026-08-14T03:33:40.000Z</time>
      </trkpt>
      <trkpt lat="22.824159" lon="108.683833">
        <ele>61.154974</ele>
        <time>2026-08-14T03:33:41.000Z</time>
      </trkpt>
      <trkpt lat="22.824161" lon="108.683892">
        <ele>61.187029</ele>
        <time>2026-08-14T03:33:42.000Z</time>
      </trkpt>
      <trkpt lat="22.824161" lon="108.683950">
        <ele>61.210625</ele>
        <time>2026-08-14T03:33:43.000Z</time>
      </trkpt>
      <trkpt lat="22.824160" lon="108.684007">
        <ele>61.231454</ele>
        <time>2026-08-14T03:33:44.000Z</time>
      </trkpt>
      <trkpt lat="22.824161" lon="108.684062">
        <ele>61.251552</ele>
        <time>2026-08-14T03:33:45.000Z</time>
      </trkpt>
      <trkpt lat="22.824162" lon="108.684119">
        <ele>61.272380</ele>
        <time>2026-08-14T03:33:46.000Z</time>
      </trkpt>
      <trkpt lat="22.824163" lon="108.684176">
        <ele>61.293209</ele>
        <time>2026-08-14T03:33:47.000Z</time>
      </trkpt>
      <trkpt lat="22.824164" lon="108.684231">
        <ele>61.313307</ele>
        <time>2026-08-14T03:33:48.000Z</time>
      </trkpt>
      <trkpt lat="22.824165" lon="108.684288">
        <ele>61.334135</ele>
        <time>2026-08-14T03:33:49.000Z</time>
      </trkpt>
      <trkpt lat="22.824167" lon="108.684343">
        <ele>61.354245</ele>
        <time>2026-08-14T03:33:50.000Z</time>
      </trkpt>
      <trkpt lat="22.824166" lon="108.684398">
        <ele>61.374343</ele>
        <time>2026-08-14T03:33:51.000Z</time>
      </trkpt>
      <trkpt lat="22.824167" lon="108.684453">
        <ele>61.394441</ele>
        <time>2026-08-14T03:33:52.000Z</time>
      </trkpt>
      <trkpt lat="22.824170" lon="108.684508">
        <ele>61.414570</ele>
        <time>2026-08-14T03:33:53.000Z</time>
      </trkpt>
      <trkpt lat="22.824172" lon="108.684561">
        <ele>61.433950</ele>
        <time>2026-08-14T03:33:54.000Z</time>
      </trkpt>
      <trkpt lat="22.824171" lon="108.684614">
        <ele>61.453317</ele>
        <time>2026-08-14T03:33:55.000Z</time>
      </trkpt>
      <trkpt lat="22.824171" lon="108.684670">
        <ele>61.473777</ele>
        <time>2026-08-14T03:33:56.000Z</time>
      </trkpt>
      <trkpt lat="22.824170" lon="108.684725">
        <ele>61.493875</ele>
        <time>2026-08-14T03:33:57.000Z</time>
      </trkpt>
      <trkpt lat="22.824169" lon="108.684780">
        <ele>61.513973</ele>
        <time>2026-08-14T03:33:58.000Z</time>
      </trkpt>
      <trkpt lat="22.824168" lon="108.684835">
        <ele>61.534071</ele>
        <time>2026-08-14T03:33:59.000Z</time>
      </trkpt>
      <trkpt lat="22.824167" lon="108.684890">
        <ele>61.554169</ele>
        <time>2026-08-14T03:34:00.000Z</time>
      </trkpt>
      <trkpt lat="22.824169" lon="108.684947">
        <ele>61.575008</ele>
        <time>2026-08-14T03:34:01.000Z</time>
      </trkpt>
      <trkpt lat="22.824171" lon="108.685005">
        <ele>61.596213</ele>
        <time>2026-08-14T03:34:02.000Z</time>
      </trkpt>
      <trkpt lat="22.824174" lon="108.685060">
        <ele>61.616343</ele>
        <time>2026-08-14T03:34:03.000Z</time>
      </trkpt>
      <trkpt lat="22.824175" lon="108.685117">
        <ele>61.637171</ele>
        <time>2026-08-14T03:34:04.000Z</time>
      </trkpt>
      <trkpt lat="22.824176" lon="108.685174">
        <ele>61.658000</ele>
        <time>2026-08-14T03:34:05.000Z</time>
      </trkpt>
      <trkpt lat="22.824177" lon="108.685230">
        <ele>61.678463</ele>
        <time>2026-08-14T03:34:06.000Z</time>
      </trkpt>
      <trkpt lat="22.824179" lon="108.685287">
        <ele>61.699303</ele>
        <time>2026-08-14T03:34:07.000Z</time>
      </trkpt>
      <trkpt lat="22.824177" lon="108.685344">
        <ele>61.720143</ele>
        <time>2026-08-14T03:34:08.000Z</time>
      </trkpt>
      <trkpt lat="22.824177" lon="108.685403">
        <ele>61.741698</ele>
        <time>2026-08-14T03:34:09.000Z</time>
      </trkpt>
      <trkpt lat="22.824178" lon="108.685460">
        <ele>61.762527</ele>
        <time>2026-08-14T03:34:10.000Z</time>
      </trkpt>
      <trkpt lat="22.824180" lon="108.685521">
        <ele>61.784827</ele>
        <time>2026-08-14T03:34:11.000Z</time>
      </trkpt>
      <trkpt lat="22.824178" lon="108.685582">
        <ele>61.807127</ele>
        <time>2026-08-14T03:34:12.000Z</time>
      </trkpt>
      <trkpt lat="22.824178" lon="108.685641">
        <ele>61.828683</ele>
        <time>2026-08-14T03:34:13.000Z</time>
      </trkpt>
      <trkpt lat="22.824179" lon="108.685700">
        <ele>61.850242</ele>
        <time>2026-08-14T03:34:14.000Z</time>
      </trkpt>
      <trkpt lat="22.824179" lon="108.685759">
        <ele>61.871797</ele>
        <time>2026-08-14T03:34:15.000Z</time>
      </trkpt>
      <trkpt lat="22.824178" lon="108.685817">
        <ele>61.892991</ele>
        <time>2026-08-14T03:34:16.000Z</time>
      </trkpt>
      <trkpt lat="22.824176" lon="108.685875">
        <ele>61.910562</ele>
        <time>2026-08-14T03:34:17.000Z</time>
      </trkpt>
      <trkpt lat="22.824175" lon="108.685933">
        <ele>61.920524</ele>
        <time>2026-08-14T03:34:18.000Z</time>
      </trkpt>
      <trkpt lat="22.824176" lon="108.685990">
        <ele>61.930315</ele>
        <time>2026-08-14T03:34:19.000Z</time>
      </trkpt>
      <trkpt lat="22.824176" lon="108.686048">
        <ele>61.940277</ele>
        <time>2026-08-14T03:34:20.000Z</time>
      </trkpt>
      <trkpt lat="22.824176" lon="108.686104">
        <ele>61.949894</ele>
        <time>2026-08-14T03:34:21.000Z</time>
      </trkpt>
      <trkpt lat="22.824176" lon="108.686161">
        <ele>61.959683</ele>
        <time>2026-08-14T03:34:22.000Z</time>
      </trkpt>
      <trkpt lat="22.824175" lon="108.686217">
        <ele>61.969303</ele>
        <time>2026-08-14T03:34:23.000Z</time>
      </trkpt>
      <trkpt lat="22.824175" lon="108.686274">
        <ele>61.979092</ele>
        <time>2026-08-14T03:34:24.000Z</time>
      </trkpt>
      <trkpt lat="22.824175" lon="108.686329">
        <ele>61.988538</ele>
        <time>2026-08-14T03:34:25.000Z</time>
      </trkpt>
      <trkpt lat="22.824176" lon="108.686384">
        <ele>61.997986</ele>
        <time>2026-08-14T03:34:26.000Z</time>
      </trkpt>
      <trkpt lat="22.824176" lon="108.686438">
        <ele>62.007260</ele>
        <time>2026-08-14T03:34:27.000Z</time>
      </trkpt>
      <trkpt lat="22.824175" lon="108.686492">
        <ele>62.016536</ele>
        <time>2026-08-14T03:34:28.000Z</time>
      </trkpt>
      <trkpt lat="22.824174" lon="108.686545">
        <ele>62.025640</ele>
        <time>2026-08-14T03:34:29.000Z</time>
      </trkpt>
      <trkpt lat="22.824176" lon="108.686597">
        <ele>62.034578</ele>
        <time>2026-08-14T03:34:30.000Z</time>
      </trkpt>
      <trkpt lat="22.824178" lon="108.686648">
        <ele>62.043345</ele>
        <time>2026-08-14T03:34:31.000Z</time>
      </trkpt>
      <trkpt lat="22.824179" lon="108.686700">
        <ele>62.052278</ele>
        <time>2026-08-14T03:34:32.000Z</time>
      </trkpt>
      <trkpt lat="22.824179" lon="108.686751">
        <ele>62.061037</ele>
        <time>2026-08-14T03:34:33.000Z</time>
      </trkpt>
      <trkpt lat="22.824181" lon="108.686801">
        <ele>62.069632</ele>
        <time>2026-08-14T03:34:34.000Z</time>
      </trkpt>
      <trkpt lat="22.824182" lon="108.686848">
        <ele>62.077706</ele>
        <time>2026-08-14T03:34:35.000Z</time>
      </trkpt>
      <trkpt lat="22.824181" lon="108.686894">
        <ele>62.085608</ele>
        <time>2026-08-14T03:34:36.000Z</time>
      </trkpt>
      <trkpt lat="22.824182" lon="108.686938">
        <ele>62.093167</ele>
        <time>2026-08-14T03:34:37.000Z</time>
      </trkpt>
      <trkpt lat="22.824182" lon="108.686978">
        <ele>62.100037</ele>
        <time>2026-08-14T03:34:38.000Z</time>
      </trkpt>
      <trkpt lat="22.824182" lon="108.687019">
        <ele>62.107078</ele>
        <time>2026-08-14T03:34:39.000Z</time>
      </trkpt>
      <trkpt lat="22.824181" lon="108.687058">
        <ele>62.113779</ele>
        <time>2026-08-14T03:34:40.000Z</time>
      </trkpt>
      <trkpt lat="22.824181" lon="108.687096">
        <ele>62.120305</ele>
        <time>2026-08-14T03:34:41.000Z</time>
      </trkpt>
      <trkpt lat="22.824180" lon="108.687134">
        <ele>62.126834</ele>
        <time>2026-08-14T03:34:42.000Z</time>
      </trkpt>
      <trkpt lat="22.824172" lon="108.687165">
        <ele>62.132363</ele>
        <time>2026-08-14T03:34:43.000Z</time>
      </trkpt>
      <trkpt lat="22.824158" lon="108.687185">
        <ele>62.136676</ele>
        <time>2026-08-14T03:34:44.000Z</time>
      </trkpt>
      <trkpt lat="22.824150" lon="108.687196">
        <ele>62.139083</ele>
        <time>2026-08-14T03:34:45.000Z</time>
      </trkpt>
      <trkpt lat="22.824145" lon="108.687201">
        <ele>62.140350</ele>
        <time>2026-08-14T03:34:46.000Z</time>
      </trkpt>
      <trkpt lat="22.824116" lon="108.687249">
        <ele>62.150206</ele>
        <time>2026-08-14T03:38:15.000Z</time>
      </trkpt>
      <trkpt lat="22.824101" lon="108.687260">
        <ele>62.153580</ele>
        <time>2026-08-14T03:38:16.000Z</time>
      </trkpt>
      <trkpt lat="22.824083" lon="108.687272">
        <ele>62.157517</ele>
        <time>2026-08-14T03:38:17.000Z</time>
      </trkpt>
      <trkpt lat="22.824060" lon="108.687283">
        <ele>62.162200</ele>
        <time>2026-08-14T03:38:18.000Z</time>
      </trkpt>
      <trkpt lat="22.824032" lon="108.687292">
        <ele>62.167642</ele>
        <time>2026-08-14T03:38:19.000Z</time>
      </trkpt>
      <trkpt lat="22.823999" lon="108.687301">
        <ele>62.173982</ele>
        <time>2026-08-14T03:38:20.000Z</time>
      </trkpt>
      <trkpt lat="22.823961" lon="108.687312">
        <ele>62.181310</ele>
        <time>2026-08-14T03:38:21.000Z</time>
      </trkpt>
      <trkpt lat="22.823917" lon="108.687330">
        <ele>62.190072</ele>
        <time>2026-08-14T03:38:22.000Z</time>
      </trkpt>
      <trkpt lat="22.823864" lon="108.687347">
        <ele>62.200370</ele>
        <time>2026-08-14T03:38:23.000Z</time>
      </trkpt>
      <trkpt lat="22.823807" lon="108.687363">
        <ele>62.211341</ele>
        <time>2026-08-14T03:38:24.000Z</time>
      </trkpt>
      <trkpt lat="22.823752" lon="108.687376">
        <ele>62.221830</ele>
        <time>2026-08-14T03:38:25.000Z</time>
      </trkpt>
      <trkpt lat="22.823697" lon="108.687389">
        <ele>62.232318</ele>
        <time>2026-08-14T03:38:26.000Z</time>
      </trkpt>
      <trkpt lat="22.823643" lon="108.687400">
        <ele>62.242629</ele>
        <time>2026-08-14T03:38:27.000Z</time>
      </trkpt>
      <trkpt lat="22.823595" lon="108.687418">
        <ele>62.261549</ele>
        <time>2026-08-14T03:38:28.000Z</time>
      </trkpt>
      <trkpt lat="22.823554" lon="108.687439">
        <ele>62.278439</ele>
        <time>2026-08-14T03:38:29.000Z</time>
      </trkpt>
      <trkpt lat="22.823522" lon="108.687466">
        <ele>62.293541</ele>
        <time>2026-08-14T03:38:30.000Z</time>
      </trkpt>
      <trkpt lat="22.823496" lon="108.687497">
        <ele>62.307932</ele>
        <time>2026-08-14T03:38:31.000Z</time>
      </trkpt>
      <trkpt lat="22.823470" lon="108.687528">
        <ele>62.322324</ele>
        <time>2026-08-14T03:38:32.000Z</time>
      </trkpt>
      <trkpt lat="22.823447" lon="108.687559">
        <ele>62.335989</ele>
        <time>2026-08-14T03:38:33.000Z</time>
      </trkpt>
      <trkpt lat="22.823424" lon="108.687587">
        <ele>62.348867</ele>
        <time>2026-08-14T03:38:34.000Z</time>
      </trkpt>
      <trkpt lat="22.823410" lon="108.687613">
        <ele>62.359206</ele>
        <time>2026-08-14T03:38:35.000Z</time>
      </trkpt>
      <trkpt lat="22.823398" lon="108.687641">
        <ele>62.369809</ele>
        <time>2026-08-14T03:38:36.000Z</time>
      </trkpt>
      <trkpt lat="22.823382" lon="108.687668">
        <ele>62.380831</ele>
        <time>2026-08-14T03:38:37.000Z</time>
      </trkpt>
      <trkpt lat="22.823364" lon="108.687690">
        <ele>62.390932</ele>
        <time>2026-08-14T03:38:38.000Z</time>
      </trkpt>
      <trkpt lat="22.823343" lon="108.687714">
        <ele>62.402294</ele>
        <time>2026-08-14T03:38:39.000Z</time>
      </trkpt>
      <trkpt lat="22.823322" lon="108.687740">
        <ele>62.414165</ele>
        <time>2026-08-14T03:38:40.000Z</time>
      </trkpt>
      <trkpt lat="22.823303" lon="108.687760">
        <ele>62.424027</ele>
        <time>2026-08-14T03:38:41.000Z</time>
      </trkpt>
      <trkpt lat="22.823283" lon="108.687778">
        <ele>62.433707</ele>
        <time>2026-08-14T03:38:42.000Z</time>
      </trkpt>
      <trkpt lat="22.823262" lon="108.687797">
        <ele>62.443894</ele>
        <time>2026-08-14T03:38:43.000Z</time>
      </trkpt>
      <trkpt lat="22.823241" lon="108.687823">
        <ele>62.455764</ele>
        <time>2026-08-14T03:38:44.000Z</time>
      </trkpt>
      <trkpt lat="22.823216" lon="108.687843">
        <ele>62.467336</ele>
        <time>2026-08-14T03:38:45.000Z</time>
      </trkpt>
      <trkpt lat="22.823189" lon="108.687865">
        <ele>62.479915</ele>
        <time>2026-08-14T03:38:46.000Z</time>
      </trkpt>
      <trkpt lat="22.823159" lon="108.687888">
        <ele>62.493600</ele>
        <time>2026-08-14T03:38:47.000Z</time>
      </trkpt>
      <trkpt lat="22.823131" lon="108.687909">
        <ele>62.506280</ele>
        <time>2026-08-14T03:38:48.000Z</time>
      </trkpt>
      <trkpt lat="22.823103" lon="108.687933">
        <ele>62.519574</ele>
        <time>2026-08-14T03:38:49.000Z</time>
      </trkpt>
      <trkpt lat="22.823074" lon="108.687958">
        <ele>62.533373</ele>
        <time>2026-08-14T03:38:50.000Z</time>
      </trkpt>
      <trkpt lat="22.823044" lon="108.687982">
        <ele>62.547258</ele>
        <time>2026-08-14T03:38:51.000Z</time>
      </trkpt>
      <trkpt lat="22.823015" lon="108.688009">
        <ele>62.561494</ele>
        <time>2026-08-14T03:38:52.000Z</time>
      </trkpt>
      <trkpt lat="22.822987" lon="108.688038">
        <ele>62.575915</ele>
        <time>2026-08-14T03:38:53.000Z</time>
      </trkpt>
      <trkpt lat="22.822955" lon="108.688064">
        <ele>62.590809</ele>
        <time>2026-08-14T03:38:54.000Z</time>
      </trkpt>
      <trkpt lat="22.822925" lon="108.688085">
        <ele>62.604109</ele>
        <time>2026-08-14T03:38:55.000Z</time>
      </trkpt>
      <trkpt lat="22.822892" lon="108.688109">
        <ele>62.618909</ele>
        <time>2026-08-14T03:38:56.000Z</time>
      </trkpt>
      <trkpt lat="22.822861" lon="108.688135">
        <ele>62.633506</ele>
        <time>2026-08-14T03:38:57.000Z</time>
      </trkpt>
      <trkpt lat="22.822829" lon="108.688159">
        <ele>62.647998</ele>
        <time>2026-08-14T03:38:58.000Z</time>
      </trkpt>
      <trkpt lat="22.822799" lon="108.688185">
        <ele>62.662302</ele>
        <time>2026-08-14T03:38:59.000Z</time>
      </trkpt>
      <trkpt lat="22.822778" lon="108.688219">
        <ele>62.676356</ele>
        <time>2026-08-14T03:39:00.000Z</time>
      </trkpt>
      <trkpt lat="22.822751" lon="108.688249">
        <ele>62.690753</ele>
        <time>2026-08-14T03:39:01.000Z</time>
      </trkpt>
      <trkpt lat="22.822723" lon="108.688282">
        <ele>62.706154</ele>
        <time>2026-08-14T03:39:02.000Z</time>
      </trkpt>
      <trkpt lat="22.822683" lon="108.688306">
        <ele>62.723183</ele>
        <time>2026-08-14T03:39:03.000Z</time>
      </trkpt>
      <trkpt lat="22.822649" lon="108.688328">
        <ele>62.737930</ele>
        <time>2026-08-14T03:39:04.000Z</time>
      </trkpt>
      <trkpt lat="22.822620" lon="108.688356">
        <ele>62.752393</ele>
        <time>2026-08-14T03:39:05.000Z</time>
      </trkpt>
      <trkpt lat="22.822591" lon="108.688386">
        <ele>62.767320</ele>
        <time>2026-08-14T03:39:06.000Z</time>
      </trkpt>
      <trkpt lat="22.822564" lon="108.688413">
        <ele>62.780999</ele>
        <time>2026-08-14T03:39:07.000Z</time>
      </trkpt>
      <trkpt lat="22.822531" lon="108.688442">
        <ele>62.796820</ele>
        <time>2026-08-14T03:39:08.000Z</time>
      </trkpt>
      <trkpt lat="22.822497" lon="108.688467">
        <ele>62.812121</ele>
        <time>2026-08-14T03:39:09.000Z</time>
      </trkpt>
      <trkpt lat="22.822465" lon="108.688493">
        <ele>62.827014</ele>
        <time>2026-08-14T03:39:10.000Z</time>
      </trkpt>
      <trkpt lat="22.822436" lon="108.688527">
        <ele>62.842921</ele>
        <time>2026-08-14T03:39:11.000Z</time>
      </trkpt>
      <trkpt lat="22.822405" lon="108.688563">
        <ele>62.859837</ele>
        <time>2026-08-14T03:39:12.000Z</time>
      </trkpt>
      <trkpt lat="22.822373" lon="108.688598">
        <ele>62.876765</ele>
        <time>2026-08-14T03:39:13.000Z</time>
      </trkpt>
      <trkpt lat="22.822340" lon="108.688633">
        <ele>62.893957</ele>
        <time>2026-08-14T03:39:14.000Z</time>
      </trkpt>
      <trkpt lat="22.822307" lon="108.688669">
        <ele>62.911390</ele>
        <time>2026-08-14T03:39:15.000Z</time>
      </trkpt>
      <trkpt lat="22.822273" lon="108.688706">
        <ele>62.910400</ele>
        <time>2026-08-14T03:39:16.000Z</time>
      </trkpt>
      <trkpt lat="22.822239" lon="108.688739">
        <ele>62.908233</ele>
        <time>2026-08-14T03:39:17.000Z</time>
      </trkpt>
      <trkpt lat="22.822204" lon="108.688774">
        <ele>62.905972</ele>
        <time>2026-08-14T03:39:18.000Z</time>
      </trkpt>
      <trkpt lat="22.822169" lon="108.688807">
        <ele>62.903770</ele>
        <time>2026-08-14T03:39:19.000Z</time>
      </trkpt>
      <trkpt lat="22.822134" lon="108.688835">
        <ele>62.901704</ele>
        <time>2026-08-14T03:39:20.000Z</time>
      </trkpt>
      <trkpt lat="22.822098" lon="108.688867">
        <ele>62.899494</ele>
        <time>2026-08-14T03:39:21.000Z</time>
      </trkpt>
      <trkpt lat="22.822060" lon="108.688899">
        <ele>62.897209</ele>
        <time>2026-08-14T03:39:22.000Z</time>
      </trkpt>
      <trkpt lat="22.822019" lon="108.688933">
        <ele>62.894758</ele>
        <time>2026-08-14T03:39:23.000Z</time>
      </trkpt>
      <trkpt lat="22.821975" lon="108.688963">
        <ele>62.892290</ele>
        <time>2026-08-14T03:39:24.000Z</time>
      </trkpt>
      <trkpt lat="22.821930" lon="108.688988">
        <ele>62.889888</ele>
        <time>2026-08-14T03:39:25.000Z</time>
      </trkpt>
      <trkpt lat="22.821888" lon="108.689009">
        <ele>62.887692</ele>
        <time>2026-08-14T03:39:26.000Z</time>
      </trkpt>
      <trkpt lat="22.821846" lon="108.689022">
        <ele>62.885617</ele>
        <time>2026-08-14T03:39:27.000Z</time>
      </trkpt>
      <trkpt lat="22.821801" lon="108.689029">
        <ele>62.883458</ele>
        <time>2026-08-14T03:39:28.000Z</time>
      </trkpt>
      <trkpt lat="22.821751" lon="108.689031">
        <ele>62.881082</ele>
        <time>2026-08-14T03:39:29.000Z</time>
      </trkpt>
      <trkpt lat="22.821699" lon="108.689037">
        <ele>62.878598</ele>
        <time>2026-08-14T03:39:30.000Z</time>
      </trkpt>
      <trkpt lat="22.821650" lon="108.689056">
        <ele>62.876126</ele>
        <time>2026-08-14T03:39:31.000Z</time>
      </trkpt>
      <trkpt lat="22.821601" lon="108.689067">
        <ele>62.873750</ele>
        <time>2026-08-14T03:39:32.000Z</time>
      </trkpt>
      <trkpt lat="22.821555" lon="108.689080">
        <ele>62.871492</ele>
        <time>2026-08-14T03:39:33.000Z</time>
      </trkpt>
      <trkpt lat="22.821505" lon="108.689090">
        <ele>62.869077</ele>
        <time>2026-08-14T03:39:34.000Z</time>
      </trkpt>
      <trkpt lat="22.821453" lon="108.689098">
        <ele>62.866582</ele>
        <time>2026-08-14T03:39:35.000Z</time>
      </trkpt>
      <trkpt lat="22.821401" lon="108.689102">
        <ele>62.864106</ele>
        <time>2026-08-14T03:39:36.000Z</time>
      </trkpt>
      <trkpt lat="22.821350" lon="108.689098">
        <ele>62.861678</ele>
        <time>2026-08-14T03:39:37.000Z</time>
      </trkpt>
      <trkpt lat="22.821300" lon="108.689092">
        <ele>62.859288</ele>
        <time>2026-08-14T03:39:38.000Z</time>
      </trkpt>
      <trkpt lat="22.821250" lon="108.689089">
        <ele>62.856910</ele>
        <time>2026-08-14T03:39:39.000Z</time>
      </trkpt>
      <trkpt lat="22.821202" lon="108.689076">
        <ele>62.854560</ele>
        <time>2026-08-14T03:39:40.000Z</time>
      </trkpt>
      <trkpt lat="22.821154" lon="108.689063">
        <ele>62.852210</ele>
        <time>2026-08-14T03:39:41.000Z</time>
      </trkpt>
      <trkpt lat="22.821103" lon="108.689052">
        <ele>62.849741</ele>
        <time>2026-08-14T03:39:42.000Z</time>
      </trkpt>
      <trkpt lat="22.821052" lon="108.689048">
        <ele>62.847312</ele>
        <time>2026-08-14T03:39:43.000Z</time>
      </trkpt>
      <trkpt lat="22.821001" lon="108.689046">
        <ele>62.844888</ele>
        <time>2026-08-14T03:39:44.000Z</time>
      </trkpt>
      <trkpt lat="22.820947" lon="108.689040">
        <ele>62.842310</ele>
        <time>2026-08-14T03:39:45.000Z</time>
      </trkpt>
      <trkpt lat="22.820894" lon="108.689037">
        <ele>62.839789</ele>
        <time>2026-08-14T03:39:46.000Z</time>
      </trkpt>
      <trkpt lat="22.820843" lon="108.689036">
        <ele>62.837366</ele>
        <time>2026-08-14T03:39:47.000Z</time>
      </trkpt>
      <trkpt lat="22.820792" lon="108.689027">
        <ele>62.834912</ele>
        <time>2026-08-14T03:39:48.000Z</time>
      </trkpt>
      <trkpt lat="22.820744" lon="108.689019">
        <ele>62.832606</ele>
        <time>2026-08-14T03:39:49.000Z</time>
      </trkpt>
      <trkpt lat="22.820693" lon="108.689010">
        <ele>62.830151</ele>
        <time>2026-08-14T03:39:50.000Z</time>
      </trkpt>
      <trkpt lat="22.820646" lon="108.688998">
        <ele>62.827858</ele>
        <time>2026-08-14T03:39:51.000Z</time>
      </trkpt>
      <trkpt lat="22.820597" lon="108.688988">
        <ele>62.880756</ele>
        <time>2026-08-14T03:39:52.000Z</time>
      </trkpt>
      <trkpt lat="22.820550" lon="108.688987">
        <ele>62.954669</ele>
        <time>2026-08-14T03:39:53.000Z</time>
      </trkpt>
      <trkpt lat="22.820502" lon="108.688985">
        <ele>63.030195</ele>
        <time>2026-08-14T03:39:54.000Z</time>
      </trkpt>
      <trkpt lat="22.820454" lon="108.688978">
        <ele>63.106345</ele>
        <time>2026-08-14T03:39:55.000Z</time>
      </trkpt>
      <trkpt lat="22.820405" lon="108.688973">
        <ele>63.183728</ele>
        <time>2026-08-14T03:39:56.000Z</time>
      </trkpt>
      <trkpt lat="22.820358" lon="108.688969">
        <ele>63.257853</ele>
        <time>2026-08-14T03:39:57.000Z</time>
      </trkpt>
      <trkpt lat="22.820315" lon="108.688970">
        <ele>63.325478</ele>
        <time>2026-08-14T03:39:58.000Z</time>
      </trkpt>
      <trkpt lat="22.820267" lon="108.688971">
        <ele>63.400962</ele>
        <time>2026-08-14T03:39:59.000Z</time>
      </trkpt>
      <trkpt lat="22.820218" lon="108.688968">
        <ele>63.478128</ele>
        <time>2026-08-14T03:40:00.000Z</time>
      </trkpt>
      <trkpt lat="22.820178" lon="108.688960">
        <ele>63.542080</ele>
        <time>2026-08-14T03:40:01.000Z</time>
      </trkpt>
      <trkpt lat="22.820138" lon="108.688960">
        <ele>63.604972</ele>
        <time>2026-08-14T03:40:02.000Z</time>
      </trkpt>
      <trkpt lat="22.820093" lon="108.688962">
        <ele>63.675785</ele>
        <time>2026-08-14T03:40:03.000Z</time>
      </trkpt>
      <trkpt lat="22.820044" lon="108.688961">
        <ele>63.752842</ele>
        <time>2026-08-14T03:40:04.000Z</time>
      </trkpt>
      <trkpt lat="22.819997" lon="108.688964">
        <ele>63.826868</ele>
        <time>2026-08-14T03:40:05.000Z</time>
      </trkpt>
      <trkpt lat="22.819951" lon="108.688970">
        <ele>63.899715</ele>
        <time>2026-08-14T03:40:06.000Z</time>
      </trkpt>
      <trkpt lat="22.819907" lon="108.688980">
        <ele>63.970398</ele>
        <time>2026-08-14T03:40:07.000Z</time>
      </trkpt>
      <trkpt lat="22.819864" lon="108.688993">
        <ele>64.040583</ele>
        <time>2026-08-14T03:40:08.000Z</time>
      </trkpt>
      <trkpt lat="22.819825" lon="108.689005">
        <ele>64.104322</ele>
        <time>2026-08-14T03:40:09.000Z</time>
      </trkpt>
      <trkpt lat="22.819782" lon="108.689010">
        <ele>64.172318</ele>
        <time>2026-08-14T03:40:10.000Z</time>
      </trkpt>
      <trkpt lat="22.819738" lon="108.689019">
        <ele>64.242718</ele>
        <time>2026-08-14T03:40:11.000Z</time>
      </trkpt>
      <trkpt lat="22.819694" lon="108.689024">
        <ele>64.312278</ele>
        <time>2026-08-14T03:40:12.000Z</time>
      </trkpt>
      <trkpt lat="22.819647" lon="108.689029">
        <ele>64.386531</ele>
        <time>2026-08-14T03:40:13.000Z</time>
      </trkpt>
      <trkpt lat="22.819603" lon="108.689039">
        <ele>64.457214</ele>
        <time>2026-08-14T03:40:14.000Z</time>
      </trkpt>
      <trkpt lat="22.819559" lon="108.689055">
        <ele>64.530178</ele>
        <time>2026-08-14T03:40:15.000Z</time>
      </trkpt>
      <trkpt lat="22.819516" lon="108.689071">
        <ele>64.601653</ele>
        <time>2026-08-14T03:40:16.000Z</time>
      </trkpt>
      <trkpt lat="22.819470" lon="108.689091">
        <ele>64.679571</ele>
        <time>2026-08-14T03:40:17.000Z</time>
      </trkpt>
      <trkpt lat="22.819423" lon="108.689110">
        <ele>64.758433</ele>
        <time>2026-08-14T03:40:18.000Z</time>
      </trkpt>
      <trkpt lat="22.819377" lon="108.689129">
        <ele>64.835823</ele>
        <time>2026-08-14T03:40:19.000Z</time>
      </trkpt>
      <trkpt lat="22.819333" lon="108.689147">
        <ele>64.909759</ele>
        <time>2026-08-14T03:40:20.000Z</time>
      </trkpt>
      <trkpt lat="22.819289" lon="108.689169">
        <ele>64.985934</ele>
        <time>2026-08-14T03:40:21.000Z</time>
      </trkpt>
      <trkpt lat="22.819245" lon="108.689188">
        <ele>65.060394</ele>
        <time>2026-08-14T03:40:22.000Z</time>
      </trkpt>
      <trkpt lat="22.819206" lon="108.689204">
        <ele>65.125952</ele>
        <time>2026-08-14T03:40:23.000Z</time>
      </trkpt>
      <trkpt lat="22.819170" lon="108.689223">
        <ele>65.188897</ele>
        <time>2026-08-14T03:40:24.000Z</time>
      </trkpt>
      <trkpt lat="22.819129" lon="108.689249">
        <ele>65.263567</ele>
        <time>2026-08-14T03:40:25.000Z</time>
      </trkpt>
      <trkpt lat="22.819085" lon="108.689271">
        <ele>65.339742</ele>
        <time>2026-08-14T03:40:26.000Z</time>
      </trkpt>
      <trkpt lat="22.819041" lon="108.689295">
        <ele>65.417175</ele>
        <time>2026-08-14T03:40:27.000Z</time>
      </trkpt>
      <trkpt lat="22.819001" lon="108.689315">
        <ele>65.486425</ele>
        <time>2026-08-14T03:40:28.000Z</time>
      </trkpt>
      <trkpt lat="22.818965" lon="108.689327">
        <ele>65.545639</ele>
        <time>2026-08-14T03:40:29.000Z</time>
      </trkpt>
      <trkpt lat="22.818932" lon="108.689345">
        <ele>65.603714</ele>
        <time>2026-08-14T03:40:30.000Z</time>
      </trkpt>
      <trkpt lat="22.818902" lon="108.689363">
        <ele>65.656883</ele>
        <time>2026-08-14T03:40:31.000Z</time>
      </trkpt>
      <trkpt lat="22.818873" lon="108.689384">
        <ele>65.695550</ele>
        <time>2026-08-14T03:40:32.000Z</time>
      </trkpt>
      <trkpt lat="22.818846" lon="108.689401">
        <ele>65.730171</ele>
        <time>2026-08-14T03:40:33.000Z</time>
      </trkpt>
      <trkpt lat="22.818818" lon="108.689419">
        <ele>65.766265</ele>
        <time>2026-08-14T03:40:34.000Z</time>
      </trkpt>
      <trkpt lat="22.818793" lon="108.689435">
        <ele>65.798455</ele>
        <time>2026-08-14T03:40:35.000Z</time>
      </trkpt>
      <trkpt lat="22.818763" lon="108.689451">
        <ele>65.835529</ele>
        <time>2026-08-14T03:40:36.000Z</time>
      </trkpt>
      <trkpt lat="22.818734" lon="108.689465">
        <ele>65.870730</ele>
        <time>2026-08-14T03:40:37.000Z</time>
      </trkpt>
      <trkpt lat="22.818704" lon="108.689481">
        <ele>65.907803</ele>
        <time>2026-08-14T03:40:38.000Z</time>
      </trkpt>
      <trkpt lat="22.818673" lon="108.689495">
        <ele>65.945043</ele>
        <time>2026-08-14T03:40:39.000Z</time>
      </trkpt>
      <trkpt lat="22.818644" lon="108.689507">
        <ele>65.979464</ele>
        <time>2026-08-14T03:40:40.000Z</time>
      </trkpt>
      <trkpt lat="22.818614" lon="108.689515">
        <ele>66.013725</ele>
        <time>2026-08-14T03:40:41.000Z</time>
      </trkpt>
      <trkpt lat="22.818582" lon="108.689521">
        <ele>66.049739</ele>
        <time>2026-08-14T03:40:42.000Z</time>
      </trkpt>
      <trkpt lat="22.818551" lon="108.689525">
        <ele>66.084361</ele>
        <time>2026-08-14T03:40:43.000Z</time>
      </trkpt>
      <trkpt lat="22.818520" lon="108.689528">
        <ele>66.118877</ele>
        <time>2026-08-14T03:40:44.000Z</time>
      </trkpt>
      <trkpt lat="22.818489" lon="108.689531">
        <ele>66.153393</ele>
        <time>2026-08-14T03:40:45.000Z</time>
      </trkpt>
      <trkpt lat="22.818455" lon="108.689539">
        <ele>66.191976</ele>
        <time>2026-08-14T03:40:46.000Z</time>
      </trkpt>
      <trkpt lat="22.818421" lon="108.689542">
        <ele>66.229807</ele>
        <time>2026-08-14T03:40:47.000Z</time>
      </trkpt>
      <trkpt lat="22.818388" lon="108.689542">
        <ele>66.266404</ele>
        <time>2026-08-14T03:40:48.000Z</time>
      </trkpt>
      <trkpt lat="22.818355" lon="108.689543">
        <ele>66.303016</ele>
        <time>2026-08-14T03:40:49.000Z</time>
      </trkpt>
      <trkpt lat="22.818323" lon="108.689546">
        <ele>66.338637</ele>
        <time>2026-08-14T03:40:50.000Z</time>
      </trkpt>
      <trkpt lat="22.818292" lon="108.689546">
        <ele>66.373016</ele>
        <time>2026-08-14T03:40:51.000Z</time>
      </trkpt>
      <trkpt lat="22.818260" lon="108.689541">
        <ele>66.408871</ele>
        <time>2026-08-14T03:40:52.000Z</time>
      </trkpt>
      <trkpt lat="22.818226" lon="108.689535">
        <ele>66.447073</ele>
        <time>2026-08-14T03:40:53.000Z</time>
      </trkpt>
      <trkpt lat="22.818192" lon="108.689525">
        <ele>66.486140</ele>
        <time>2026-08-14T03:40:54.000Z</time>
      </trkpt>
      <trkpt lat="22.818163" lon="108.689520">
        <ele>66.518705</ele>
        <time>2026-08-14T03:40:55.000Z</time>
      </trkpt>
      <trkpt lat="22.818135" lon="108.689517">
        <ele>66.549909</ele>
        <time>2026-08-14T03:40:56.000Z</time>
      </trkpt>
      <trkpt lat="22.818105" lon="108.689510">
        <ele>66.583940</ele>
        <time>2026-08-14T03:40:57.000Z</time>
      </trkpt>
      <trkpt lat="22.818064" lon="108.689482">
        <ele>66.637668</ele>
        <time>2026-08-14T03:40:58.000Z</time>
      </trkpt>
      <trkpt lat="22.818025" lon="108.689461">
        <ele>66.685954</ele>
        <time>2026-08-14T03:40:59.000Z</time>
      </trkpt>
      <trkpt lat="22.817983" lon="108.689441">
        <ele>66.736822</ele>
        <time>2026-08-14T03:41:00.000Z</time>
      </trkpt>
      <trkpt lat="22.817941" lon="108.689410">
        <ele>66.793158</ele>
        <time>2026-08-14T03:41:01.000Z</time>
      </trkpt>
      <trkpt lat="22.817900" lon="108.689382">
        <ele>66.846886</ele>
        <time>2026-08-14T03:41:02.000Z</time>
      </trkpt>
      <trkpt lat="22.817861" lon="108.689356">
        <ele>66.897651</ele>
        <time>2026-08-14T03:41:03.000Z</time>
      </trkpt>
      <trkpt lat="22.817821" lon="108.689331">
        <ele>66.948846</ele>
        <time>2026-08-14T03:41:04.000Z</time>
      </trkpt>
      <trkpt lat="22.817781" lon="108.689298">
        <ele>67.004576</ele>
        <time>2026-08-14T03:41:05.000Z</time>
      </trkpt>
      <trkpt lat="22.817742" lon="108.689272">
        <ele>67.055341</ele>
        <time>2026-08-14T03:41:06.000Z</time>
      </trkpt>
      <trkpt lat="22.817702" lon="108.689247">
        <ele>67.106536</ele>
        <time>2026-08-14T03:41:07.000Z</time>
      </trkpt>
      <trkpt lat="22.817663" lon="108.689222">
        <ele>67.156774</ele>
        <time>2026-08-14T03:41:08.000Z</time>
      </trkpt>
      <trkpt lat="22.817622" lon="108.689194">
        <ele>67.210502</ele>
        <time>2026-08-14T03:41:09.000Z</time>
      </trkpt>
      <trkpt lat="22.817582" lon="108.689169">
        <ele>67.261697</ele>
        <time>2026-08-14T03:41:10.000Z</time>
      </trkpt>
      <trkpt lat="22.817541" lon="108.689144">
        <ele>67.313856</ele>
        <time>2026-08-14T03:41:11.000Z</time>
      </trkpt>
      <trkpt lat="22.817501" lon="108.689118">
        <ele>67.365569</ele>
        <time>2026-08-14T03:41:12.000Z</time>
      </trkpt>
      <trkpt lat="22.817462" lon="108.689092">
        <ele>67.416334</ele>
        <time>2026-08-14T03:41:13.000Z</time>
      </trkpt>
      <trkpt lat="22.817423" lon="108.689070">
        <ele>67.465083</ele>
        <time>2026-08-14T03:41:14.000Z</time>
      </trkpt>
      <trkpt lat="22.817382" lon="108.689047">
        <ele>67.516272</ele>
        <time>2026-08-14T03:41:15.000Z</time>
      </trkpt>
      <trkpt lat="22.817340" lon="108.689023">
        <ele>67.568916</ele>
        <time>2026-08-14T03:41:16.000Z</time>
      </trkpt>
      <trkpt lat="22.817295" lon="108.689000">
        <ele>67.624083</ele>
        <time>2026-08-14T03:41:17.000Z</time>
      </trkpt>
      <trkpt lat="22.817251" lon="108.688975">
        <ele>67.667759</ele>
        <time>2026-08-14T03:41:18.000Z</time>
      </trkpt>
      <trkpt lat="22.817209" lon="108.688952">
        <ele>67.699634</ele>
        <time>2026-08-14T03:41:19.000Z</time>
      </trkpt>
      <trkpt lat="22.817167" lon="108.688928">
        <ele>67.731795</ele>
        <time>2026-08-14T03:41:20.000Z</time>
      </trkpt>
      <trkpt lat="22.817124" lon="108.688904">
        <ele>67.764556</ele>
        <time>2026-08-14T03:41:21.000Z</time>
      </trkpt>
      <trkpt lat="22.817083" lon="108.688883">
        <ele>67.795274</ele>
        <time>2026-08-14T03:41:22.000Z</time>
      </trkpt>
      <trkpt lat="22.817041" lon="108.688864">
        <ele>67.826104</ele>
        <time>2026-08-14T03:41:23.000Z</time>
      </trkpt>
      <trkpt lat="22.817000" lon="108.688849">
        <ele>67.855419</ele>
        <time>2026-08-14T03:41:24.000Z</time>
      </trkpt>
      <trkpt lat="22.816959" lon="108.688835">
        <ele>67.884540</ele>
        <time>2026-08-14T03:41:25.000Z</time>
      </trkpt>
      <trkpt lat="22.816915" lon="108.688820">
        <ele>67.915787</ele>
        <time>2026-08-14T03:41:26.000Z</time>
      </trkpt>
      <trkpt lat="22.816873" lon="108.688803">
        <ele>67.946158</ele>
        <time>2026-08-14T03:41:27.000Z</time>
      </trkpt>
      <trkpt lat="22.816832" lon="108.688782">
        <ele>67.976875</ele>
        <time>2026-08-14T03:41:28.000Z</time>
      </trkpt>
      <trkpt lat="22.816788" lon="108.688763">
        <ele>68.008960</ele>
        <time>2026-08-14T03:41:29.000Z</time>
      </trkpt>
      <trkpt lat="22.816749" lon="108.688747">
        <ele>68.037209</ele>
        <time>2026-08-14T03:41:30.000Z</time>
      </trkpt>
      <trkpt lat="22.816708" lon="108.688727">
        <ele>68.067665</ele>
        <time>2026-08-14T03:41:31.000Z</time>
      </trkpt>
      <trkpt lat="22.816666" lon="108.688706">
        <ele>68.098997</ele>
        <time>2026-08-14T03:41:32.000Z</time>
      </trkpt>
      <trkpt lat="22.816626" lon="108.688690">
        <ele>68.127880</ele>
        <time>2026-08-14T03:41:33.000Z</time>
      </trkpt>
      <trkpt lat="22.816585" lon="108.688677">
        <ele>68.156820</ele>
        <time>2026-08-14T03:41:34.000Z</time>
      </trkpt>
      <trkpt lat="22.816545" lon="108.688667">
        <ele>68.184630</ele>
        <time>2026-08-14T03:41:35.000Z</time>
      </trkpt>
      <trkpt lat="22.816511" lon="108.688658">
        <ele>68.208341</ele>
        <time>2026-08-14T03:41:36.000Z</time>
      </trkpt>
      <trkpt lat="22.816469" lon="108.688622">
        <ele>68.244606</ele>
        <time>2026-08-14T03:41:37.000Z</time>
      </trkpt>
      <trkpt lat="22.816430" lon="108.688596">
        <ele>68.275618</ele>
        <time>2026-08-14T03:41:38.000Z</time>
      </trkpt>
      <trkpt lat="22.816396" lon="108.688570">
        <ele>68.303801</ele>
        <time>2026-08-14T03:41:39.000Z</time>
      </trkpt>
      <trkpt lat="22.816360" lon="108.688544">
        <ele>68.333101</ele>
        <time>2026-08-14T03:41:40.000Z</time>
      </trkpt>
      <trkpt lat="22.816328" lon="108.688512">
        <ele>68.362586</ele>
        <time>2026-08-14T03:41:41.000Z</time>
      </trkpt>
      <trkpt lat="22.816294" lon="108.688487">
        <ele>68.390413</ele>
        <time>2026-08-14T03:41:42.000Z</time>
      </trkpt>
      <trkpt lat="22.816259" lon="108.688464">
        <ele>68.418137</ele>
        <time>2026-08-14T03:41:43.000Z</time>
      </trkpt>
      <trkpt lat="22.816217" lon="108.688437">
        <ele>68.451213</ele>
        <time>2026-08-14T03:41:44.000Z</time>
      </trkpt>
      <trkpt lat="22.816185" lon="108.688406">
        <ele>68.480278</ele>
        <time>2026-08-14T03:41:45.000Z</time>
      </trkpt>
      <trkpt lat="22.816147" lon="108.688376">
        <ele>68.512118</ele>
        <time>2026-08-14T03:41:46.000Z</time>
      </trkpt>
      <trkpt lat="22.816108" lon="108.688352">
        <ele>68.542496</ele>
        <time>2026-08-14T03:41:47.000Z</time>
      </trkpt>
      <trkpt lat="22.816069" lon="108.688323">
        <ele>68.574529</ele>
        <time>2026-08-14T03:41:48.000Z</time>
      </trkpt>
      <trkpt lat="22.816029" lon="108.688295">
        <ele>68.606781</ele>
        <time>2026-08-14T03:41:49.000Z</time>
      </trkpt>
      <trkpt lat="22.815991" lon="108.688267">
        <ele>68.637902</ele>
        <time>2026-08-14T03:41:50.000Z</time>
      </trkpt>
      <trkpt lat="22.815953" lon="108.688238">
        <ele>68.669379</ele>
        <time>2026-08-14T03:41:51.000Z</time>
      </trkpt>
      <trkpt lat="22.815913" lon="108.688212">
        <ele>68.700971</ele>
        <time>2026-08-14T03:41:52.000Z</time>
      </trkpt>
      <trkpt lat="22.815871" lon="108.688194">
        <ele>68.731566</ele>
        <time>2026-08-14T03:41:53.000Z</time>
      </trkpt>
      <trkpt lat="22.815829" lon="108.688181">
        <ele>68.761157</ele>
        <time>2026-08-14T03:41:54.000Z</time>
      </trkpt>
      <trkpt lat="22.815786" lon="108.688174">
        <ele>68.790615</ele>
        <time>2026-08-14T03:41:55.000Z</time>
      </trkpt>
      <trkpt lat="22.815743" lon="108.688171">
        <ele>68.819808</ele>
        <time>2026-08-14T03:41:56.000Z</time>
      </trkpt>
      <trkpt lat="22.815700" lon="108.688177">
        <ele>68.849181</ele>
        <time>2026-08-14T03:41:57.000Z</time>
      </trkpt>
      <trkpt lat="22.815655" lon="108.688185">
        <ele>68.872682</ele>
        <time>2026-08-14T03:41:58.000Z</time>
      </trkpt>
      <trkpt lat="22.815612" lon="108.688200">
        <ele>68.883848</ele>
        <time>2026-08-14T03:41:59.000Z</time>
      </trkpt>
      <trkpt lat="22.815568" lon="108.688217">
        <ele>68.895395</ele>
        <time>2026-08-14T03:42:00.000Z</time>
      </trkpt>
      <trkpt lat="22.815524" lon="108.688237">
        <ele>68.907189</ele>
        <time>2026-08-14T03:42:01.000Z</time>
      </trkpt>
      <trkpt lat="22.815480" lon="108.688261">
        <ele>68.919364</ele>
        <time>2026-08-14T03:42:02.000Z</time>
      </trkpt>
      <trkpt lat="22.815437" lon="108.688287">
        <ele>68.931534</ele>
        <time>2026-08-14T03:42:03.000Z</time>
      </trkpt>
      <trkpt lat="22.815396" lon="108.688316">
        <ele>68.943634</ele>
        <time>2026-08-14T03:42:04.000Z</time>
      </trkpt>
      <trkpt lat="22.815352" lon="108.688350">
        <ele>68.956989</ele>
        <time>2026-08-14T03:42:05.000Z</time>
      </trkpt>
      <trkpt lat="22.815311" lon="108.688382">
        <ele>68.969475</ele>
        <time>2026-08-14T03:42:06.000Z</time>
      </trkpt>
      <trkpt lat="22.815268" lon="108.688416">
        <ele>68.982630</ele>
        <time>2026-08-14T03:42:07.000Z</time>
      </trkpt>
      <trkpt lat="22.815225" lon="108.688452">
        <ele>68.996057</ele>
        <time>2026-08-14T03:42:08.000Z</time>
      </trkpt>
      <trkpt lat="22.815181" lon="108.688488">
        <ele>69.009682</ele>
        <time>2026-08-14T03:42:09.000Z</time>
      </trkpt>
      <trkpt lat="22.815139" lon="108.688521">
        <ele>69.022502</ele>
        <time>2026-08-14T03:42:10.000Z</time>
      </trkpt>
      <trkpt lat="22.815098" lon="108.688555">
        <ele>69.035260</ele>
        <time>2026-08-14T03:42:11.000Z</time>
      </trkpt>
      <trkpt lat="22.815058" lon="108.688590">
        <ele>69.047964</ele>
        <time>2026-08-14T03:42:12.000Z</time>
      </trkpt>
      <trkpt lat="22.815018" lon="108.688627">
        <ele>69.060960</ele>
        <time>2026-08-14T03:42:13.000Z</time>
      </trkpt>
      <trkpt lat="22.814977" lon="108.688661">
        <ele>69.073718</ele>
        <time>2026-08-14T03:42:14.000Z</time>
      </trkpt>
      <trkpt lat="22.814932" lon="108.688691">
        <ele>69.086775</ele>
        <time>2026-08-14T03:42:15.000Z</time>
      </trkpt>
      <trkpt lat="22.814888" lon="108.688719">
        <ele>69.099386</ele>
        <time>2026-08-14T03:42:16.000Z</time>
      </trkpt>
      <trkpt lat="22.814841" lon="108.688742">
        <ele>69.112133</ele>
        <time>2026-08-14T03:42:17.000Z</time>
      </trkpt>
      <trkpt lat="22.814792" lon="108.688760">
        <ele>69.124922</ele>
        <time>2026-08-14T03:42:18.000Z</time>
      </trkpt>
      <trkpt lat="22.814741" lon="108.688774">
        <ele>69.137928</ele>
        <time>2026-08-14T03:42:19.000Z</time>
      </trkpt>
      <trkpt lat="22.814688" lon="108.688786">
        <ele>69.151313</ele>
        <time>2026-08-14T03:42:20.000Z</time>
      </trkpt>
      <trkpt lat="22.814633" lon="108.688795">
        <ele>69.165063</ele>
        <time>2026-08-14T03:42:21.000Z</time>
      </trkpt>
      <trkpt lat="22.814580" lon="108.688803">
        <ele>69.178292</ele>
        <time>2026-08-14T03:42:22.000Z</time>
      </trkpt>
      <trkpt lat="22.814527" lon="108.688806">
        <ele>69.191413</ele>
        <time>2026-08-14T03:42:23.000Z</time>
      </trkpt>
      <trkpt lat="22.814474" lon="108.688806">
        <ele>69.204515</ele>
        <time>2026-08-14T03:42:24.000Z</time>
      </trkpt>
      <trkpt lat="22.814420" lon="108.688809">
        <ele>69.217883</ele>
        <time>2026-08-14T03:42:25.000Z</time>
      </trkpt>
      <trkpt lat="22.814368" lon="108.688816">
        <ele>69.230837</ele>
        <time>2026-08-14T03:42:26.000Z</time>
      </trkpt>
      <trkpt lat="22.814316" lon="108.688827">
        <ele>69.243934</ele>
        <time>2026-08-14T03:42:27.000Z</time>
      </trkpt>
      <trkpt lat="22.814266" lon="108.688840">
        <ele>69.256645</ele>
        <time>2026-08-14T03:42:28.000Z</time>
      </trkpt>
      <trkpt lat="22.814216" lon="108.688855">
        <ele>69.269470</ele>
        <time>2026-08-14T03:42:29.000Z</time>
      </trkpt>
      <trkpt lat="22.814166" lon="108.688871">
        <ele>69.282358</ele>
        <time>2026-08-14T03:42:30.000Z</time>
      </trkpt>
      <trkpt lat="22.814117" lon="108.688888">
        <ele>69.295076</ele>
        <time>2026-08-14T03:42:31.000Z</time>
      </trkpt>
      <trkpt lat="22.814069" lon="108.688905">
        <ele>69.307559</ele>
        <time>2026-08-14T03:42:32.000Z</time>
      </trkpt>
      <trkpt lat="22.814023" lon="108.688923">
        <ele>69.328237</ele>
        <time>2026-08-14T03:42:33.000Z</time>
      </trkpt>
      <trkpt lat="22.813975" lon="108.688942">
        <ele>69.357422</ele>
        <time>2026-08-14T03:42:34.000Z</time>
      </trkpt>
      <trkpt lat="22.813927" lon="108.688962">
        <ele>69.386791</ele>
        <time>2026-08-14T03:42:35.000Z</time>
      </trkpt>
      <trkpt lat="22.813878" lon="108.688978">
        <ele>69.416020</ele>
        <time>2026-08-14T03:42:36.000Z</time>
      </trkpt>
      <trkpt lat="22.813827" lon="108.688991">
        <ele>69.445943</ele>
        <time>2026-08-14T03:42:37.000Z</time>
      </trkpt>
      <trkpt lat="22.813776" lon="108.689002">
        <ele>69.475644</ele>
        <time>2026-08-14T03:42:38.000Z</time>
      </trkpt>
      <trkpt lat="22.813724" lon="108.689009">
        <ele>69.505573</ele>
        <time>2026-08-14T03:42:39.000Z</time>
      </trkpt>
      <trkpt lat="22.813674" lon="108.689017">
        <ele>69.534442</ele>
        <time>2026-08-14T03:42:40.000Z</time>
      </trkpt>
      <trkpt lat="22.813625" lon="108.689022">
        <ele>69.562553</ele>
        <time>2026-08-14T03:42:41.000Z</time>
      </trkpt>
      <trkpt lat="22.813573" lon="108.689025">
        <ele>69.592297</ele>
        <time>2026-08-14T03:42:42.000Z</time>
      </trkpt>
      <trkpt lat="22.813522" lon="108.689028">
        <ele>69.621470</ele>
        <time>2026-08-14T03:42:43.000Z</time>
      </trkpt>
      <trkpt lat="22.813470" lon="108.689027">
        <ele>69.651177</ele>
        <time>2026-08-14T03:42:44.000Z</time>
      </trkpt>
      <trkpt lat="22.813418" lon="108.689024">
        <ele>69.680920</ele>
        <time>2026-08-14T03:42:45.000Z</time>
      </trkpt>
      <trkpt lat="22.813366" lon="108.689019">
        <ele>69.710738</ele>
        <time>2026-08-14T03:42:46.000Z</time>
      </trkpt>
      <trkpt lat="22.813315" lon="108.689012">
        <ele>69.740101</ele>
        <time>2026-08-14T03:42:47.000Z</time>
      </trkpt>
      <trkpt lat="22.813265" lon="108.689005">
        <ele>69.768897</ele>
        <time>2026-08-14T03:42:48.000Z</time>
      </trkpt>
      <trkpt lat="22.813214" lon="108.689001">
        <ele>69.798104</ele>
        <time>2026-08-14T03:42:49.000Z</time>
      </trkpt>
      <trkpt lat="22.813163" lon="108.688998">
        <ele>69.827277</ele>
        <time>2026-08-14T03:42:50.000Z</time>
      </trkpt>
      <trkpt lat="22.813112" lon="108.688995">
        <ele>69.856450</ele>
        <time>2026-08-14T03:42:51.000Z</time>
      </trkpt>
      <trkpt lat="22.813060" lon="108.688993">
        <ele>69.886170</ele>
        <time>2026-08-14T03:42:52.000Z</time>
      </trkpt>
      <trkpt lat="22.813008" lon="108.688992">
        <ele>69.915877</ele>
        <time>2026-08-14T03:42:53.000Z</time>
      </trkpt>
      <trkpt lat="22.812956" lon="108.688990">
        <ele>69.945597</ele>
        <time>2026-08-14T03:42:54.000Z</time>
      </trkpt>
      <trkpt lat="22.812904" lon="108.688992">
        <ele>69.975317</ele>
        <time>2026-08-14T03:42:55.000Z</time>
      </trkpt>
      <trkpt lat="22.812852" lon="108.688994">
        <ele>70.005038</ele>
        <time>2026-08-14T03:42:56.000Z</time>
      </trkpt>
      <trkpt lat="22.812801" lon="108.688995">
        <ele>70.034173</ele>
        <time>2026-08-14T03:42:57.000Z</time>
      </trkpt>
      <trkpt lat="22.812751" lon="108.688997">
        <ele>70.062752</ele>
        <time>2026-08-14T03:42:58.000Z</time>
      </trkpt>
      <trkpt lat="22.812701" lon="108.688999">
        <ele>70.091330</ele>
        <time>2026-08-14T03:42:59.000Z</time>
      </trkpt>
      <trkpt lat="22.812652" lon="108.689002">
        <ele>70.119363</ele>
        <time>2026-08-14T03:43:00.000Z</time>
      </trkpt>
      <trkpt lat="22.812605" lon="108.689004">
        <ele>70.146229</ele>
        <time>2026-08-14T03:43:01.000Z</time>
      </trkpt>
      <trkpt lat="22.812557" lon="108.689005">
        <ele>70.173651</ele>
        <time>2026-08-14T03:43:02.000Z</time>
      </trkpt>
      <trkpt lat="22.812509" lon="108.689008">
        <ele>70.201114</ele>
        <time>2026-08-14T03:43:03.000Z</time>
      </trkpt>
      <trkpt lat="22.812463" lon="108.689012">
        <ele>70.227472</ele>
        <time>2026-08-14T03:43:04.000Z</time>
      </trkpt>
      <trkpt lat="22.812416" lon="108.689017">
        <ele>70.254447</ele>
        <time>2026-08-14T03:43:05.000Z</time>
      </trkpt>
      <trkpt lat="22.812368" lon="108.689022">
        <ele>70.281990</ele>
        <time>2026-08-14T03:43:06.000Z</time>
      </trkpt>
      <trkpt lat="22.812321" lon="108.689030">
        <ele>70.309164</ele>
        <time>2026-08-14T03:43:07.000Z</time>
      </trkpt>
      <trkpt lat="22.812273" lon="108.689040">
        <ele>70.337082</ele>
        <time>2026-08-14T03:43:08.000Z</time>
      </trkpt>
      <trkpt lat="22.812226" lon="108.689052">
        <ele>70.408544</ele>
        <time>2026-08-14T03:43:09.000Z</time>
      </trkpt>
      <trkpt lat="22.812179" lon="108.689066">
        <ele>70.486848</ele>
        <time>2026-08-14T03:43:10.000Z</time>
      </trkpt>
      <trkpt lat="22.812132" lon="108.689081">
        <ele>70.565557</ele>
        <time>2026-08-14T03:43:11.000Z</time>
      </trkpt>
      <trkpt lat="22.812085" lon="108.689095">
        <ele>70.643861</ele>
        <time>2026-08-14T03:43:12.000Z</time>
      </trkpt>
      <trkpt lat="22.812038" lon="108.689113">
        <ele>70.723938</ele>
        <time>2026-08-14T03:43:13.000Z</time>
      </trkpt>
      <trkpt lat="22.811991" lon="108.689129">
        <ele>70.803078</ele>
        <time>2026-08-14T03:43:14.000Z</time>
      </trkpt>
      <trkpt lat="22.811944" lon="108.689146">
        <ele>70.882673</ele>
        <time>2026-08-14T03:43:15.000Z</time>
      </trkpt>
      <trkpt lat="22.811895" lon="108.689159">
        <ele>70.963716</ele>
        <time>2026-08-14T03:43:16.000Z</time>
      </trkpt>
      <trkpt lat="22.811848" lon="108.689174">
        <ele>71.042425</ele>
        <time>2026-08-14T03:43:17.000Z</time>
      </trkpt>
      <trkpt lat="22.811800" lon="108.689190">
        <ele>71.123099</ele>
        <time>2026-08-14T03:43:18.000Z</time>
      </trkpt>
      <trkpt lat="22.811753" lon="108.689207">
        <ele>71.202695</ele>
        <time>2026-08-14T03:43:19.000Z</time>
      </trkpt>
      <trkpt lat="22.811708" lon="108.689217">
        <ele>71.276492</ele>
        <time>2026-08-14T03:43:20.000Z</time>
      </trkpt>
      <trkpt lat="22.811661" lon="108.689228">
        <ele>71.353738</ele>
        <time>2026-08-14T03:43:21.000Z</time>
      </trkpt>
      <trkpt lat="22.811611" lon="108.689243">
        <ele>71.437082</ele>
        <time>2026-08-14T03:43:22.000Z</time>
      </trkpt>
      <trkpt lat="22.811565" lon="108.689263">
        <ele>71.516700</ele>
        <time>2026-08-14T03:43:23.000Z</time>
      </trkpt>
      <trkpt lat="22.811516" lon="108.689285">
        <ele>71.601898</ele>
        <time>2026-08-14T03:43:24.000Z</time>
      </trkpt>
      <trkpt lat="22.811467" lon="108.689301">
        <ele>71.684109</ele>
        <time>2026-08-14T03:43:25.000Z</time>
      </trkpt>
      <trkpt lat="22.811422" lon="108.689318">
        <ele>71.760663</ele>
        <time>2026-08-14T03:43:26.000Z</time>
      </trkpt>
      <trkpt lat="22.811378" lon="108.689335">
        <ele>71.835702</ele>
        <time>2026-08-14T03:43:27.000Z</time>
      </trkpt>
      <trkpt lat="22.811337" lon="108.689350">
        <ele>71.905217</ele>
        <time>2026-08-14T03:43:28.000Z</time>
      </trkpt>
      <trkpt lat="22.811297" lon="108.689369">
        <ele>71.975370</ele>
        <time>2026-08-14T03:43:29.000Z</time>
      </trkpt>
      <trkpt lat="22.811259" lon="108.689384">
        <ele>72.040336</ele>
        <time>2026-08-14T03:43:30.000Z</time>
      </trkpt>
      <trkpt lat="22.811220" lon="108.689399">
        <ele>72.106814</ele>
        <time>2026-08-14T03:43:31.000Z</time>
      </trkpt>
      <trkpt lat="22.811181" lon="108.689414">
        <ele>72.173292</ele>
        <time>2026-08-14T03:43:32.000Z</time>
      </trkpt>
      <trkpt lat="22.811143" lon="108.689431">
        <ele>72.239329</ele>
        <time>2026-08-14T03:43:33.000Z</time>
      </trkpt>
      <trkpt lat="22.811105" lon="108.689452">
        <ele>72.307844</ele>
        <time>2026-08-14T03:43:34.000Z</time>
      </trkpt>
      <trkpt lat="22.811069" lon="108.689474">
        <ele>72.374227</ele>
        <time>2026-08-14T03:43:35.000Z</time>
      </trkpt>
      <trkpt lat="22.811035" lon="108.689490">
        <ele>72.433768</ele>
        <time>2026-08-14T03:43:36.000Z</time>
      </trkpt>
      <trkpt lat="22.811000" lon="108.689509">
        <ele>72.496646</ele>
        <time>2026-08-14T03:43:37.000Z</time>
      </trkpt>
      <trkpt lat="22.810966" lon="108.689530">
        <ele>72.559502</ele>
        <time>2026-08-14T03:43:38.000Z</time>
      </trkpt>
      <trkpt lat="22.810933" lon="108.689545">
        <ele>72.616985</ele>
        <time>2026-08-14T03:43:39.000Z</time>
      </trkpt>
      <trkpt lat="22.810898" lon="108.689562">
        <ele>72.678594</ele>
        <time>2026-08-14T03:43:40.000Z</time>
      </trkpt>
      <trkpt lat="22.810862" lon="108.689581">
        <ele>72.742912</ele>
        <time>2026-08-14T03:43:41.000Z</time>
      </trkpt>
      <trkpt lat="22.810822" lon="108.689600">
        <ele>72.813066</ele>
        <time>2026-08-14T03:43:42.000Z</time>
      </trkpt>
      <trkpt lat="22.810784" lon="108.689616">
        <ele>72.878553</ele>
        <time>2026-08-14T03:43:43.000Z</time>
      </trkpt>
      <trkpt lat="22.810744" lon="108.689628">
        <ele>72.945228</ele>
        <time>2026-08-14T03:43:44.000Z</time>
      </trkpt>
      <trkpt lat="22.810702" lon="108.689640">
        <ele>73.015006</ele>
        <time>2026-08-14T03:43:45.000Z</time>
      </trkpt>
      <trkpt lat="22.810660" lon="108.689652">
        <ele>73.084783</ele>
        <time>2026-08-14T03:43:46.000Z</time>
      </trkpt>
      <trkpt lat="22.810617" lon="108.689663">
        <ele>73.155761</ele>
        <time>2026-08-14T03:43:47.000Z</time>
      </trkpt>
      <trkpt lat="22.810577" lon="108.689679">
        <ele>73.224253</ele>
        <time>2026-08-14T03:43:48.000Z</time>
      </trkpt>
      <trkpt lat="22.810536" lon="108.689688">
        <ele>73.299078</ele>
        <time>2026-08-14T03:43:49.000Z</time>
      </trkpt>
      <trkpt lat="22.810497" lon="108.689696">
        <ele>73.370766</ele>
        <time>2026-08-14T03:43:50.000Z</time>
      </trkpt>
      <trkpt lat="22.810457" lon="108.689702">
        <ele>73.443700</ele>
        <time>2026-08-14T03:43:51.000Z</time>
      </trkpt>
      <trkpt lat="22.810424" lon="108.689704">
        <ele>73.503396</ele>
        <time>2026-08-14T03:43:52.000Z</time>
      </trkpt>
      <trkpt lat="22.810391" lon="108.689696">
        <ele>73.564469</ele>
        <time>2026-08-14T03:43:53.000Z</time>
      </trkpt>
      <trkpt lat="22.810355" lon="108.689705">
        <ele>73.631195</ele>
        <time>2026-08-14T03:43:54.000Z</time>
      </trkpt>
      <trkpt lat="22.810319" lon="108.689715">
        <ele>73.698314</ele>
        <time>2026-08-14T03:43:55.000Z</time>
      </trkpt>
      <trkpt lat="22.810285" lon="108.689724">
        <ele>73.761525</ele>
        <time>2026-08-14T03:43:56.000Z</time>
      </trkpt>
      <trkpt lat="22.810249" lon="108.689730">
        <ele>73.827310</ele>
        <time>2026-08-14T03:43:57.000Z</time>
      </trkpt>
      <trkpt lat="22.810214" lon="108.689741">
        <ele>73.893125</ele>
        <time>2026-08-14T03:43:58.000Z</time>
      </trkpt>
      <trkpt lat="22.810180" lon="108.689737">
        <ele>73.954894</ele>
        <time>2026-08-14T03:43:59.000Z</time>
      </trkpt>
      <trkpt lat="22.810145" lon="108.689743">
        <ele>74.018894</ele>
        <time>2026-08-14T03:44:00.000Z</time>
      </trkpt>
      <trkpt lat="22.810109" lon="108.689753">
        <ele>74.086013</ele>
        <time>2026-08-14T03:44:01.000Z</time>
      </trkpt>
      <trkpt lat="22.810075" lon="108.689763">
        <ele>74.149639</ele>
        <time>2026-08-14T03:44:02.000Z</time>
      </trkpt>
      <trkpt lat="22.810037" lon="108.689774">
        <ele>74.220675</ele>
        <time>2026-08-14T03:44:03.000Z</time>
      </trkpt>
      <trkpt lat="22.810002" lon="108.689786">
        <ele>74.286972</ele>
        <time>2026-08-14T03:44:04.000Z</time>
      </trkpt>
      <trkpt lat="22.809966" lon="108.689801">
        <ele>74.356625</ele>
        <time>2026-08-14T03:44:05.000Z</time>
      </trkpt>
      <trkpt lat="22.809929" lon="108.689815">
        <ele>74.427401</ele>
        <time>2026-08-14T03:44:06.000Z</time>
      </trkpt>
      <trkpt lat="22.809893" lon="108.689830">
        <ele>74.497054</ele>
        <time>2026-08-14T03:44:07.000Z</time>
      </trkpt>
      <trkpt lat="22.809857" lon="108.689846">
        <ele>74.567320</ele>
        <time>2026-08-14T03:44:08.000Z</time>
      </trkpt>
      <trkpt lat="22.809823" lon="108.689866">
        <ele>74.637177</ele>
        <time>2026-08-14T03:44:09.000Z</time>
      </trkpt>
      <trkpt lat="22.809789" lon="108.689885">
        <ele>74.706255</ele>
        <time>2026-08-14T03:44:10.000Z</time>
      </trkpt>
      <trkpt lat="22.809754" lon="108.689905">
        <ele>74.777704</ele>
        <time>2026-08-14T03:44:11.000Z</time>
      </trkpt>
      <trkpt lat="22.809721" lon="108.689928">
        <ele>74.848548</ele>
        <time>2026-08-14T03:44:12.000Z</time>
      </trkpt>
      <trkpt lat="22.809688" lon="108.689947">
        <ele>74.916025</ele>
        <time>2026-08-14T03:44:13.000Z</time>
      </trkpt>
      <trkpt lat="22.809657" lon="108.689967">
        <ele>74.981169</ele>
        <time>2026-08-14T03:44:14.000Z</time>
      </trkpt>
      <trkpt lat="22.809626" lon="108.689989">
        <ele>75.048077</ele>
        <time>2026-08-14T03:44:15.000Z</time>
      </trkpt>
      <trkpt lat="22.809593" lon="108.690012">
        <ele>75.118921</ele>
        <time>2026-08-14T03:44:16.000Z</time>
      </trkpt>
      <trkpt lat="22.809561" lon="108.690035">
        <ele>75.188252</ele>
        <time>2026-08-14T03:44:17.000Z</time>
      </trkpt>
      <trkpt lat="22.809532" lon="108.690065">
        <ele>75.260628</ele>
        <time>2026-08-14T03:44:18.000Z</time>
      </trkpt>
      <trkpt lat="22.809504" lon="108.690094">
        <ele>75.330548</ele>
        <time>2026-08-14T03:44:19.000Z</time>
      </trkpt>
      <trkpt lat="22.809482" lon="108.690129">
        <ele>75.401078</ele>
        <time>2026-08-14T03:44:20.000Z</time>
      </trkpt>
      <trkpt lat="22.809460" lon="108.690164">
        <ele>75.471608</ele>
        <time>2026-08-14T03:44:21.000Z</time>
      </trkpt>
      <trkpt lat="22.809435" lon="108.690199">
        <ele>75.545327</ele>
        <time>2026-08-14T03:44:22.000Z</time>
      </trkpt>
      <trkpt lat="22.809410" lon="108.690234">
        <ele>75.619047</ele>
        <time>2026-08-14T03:44:23.000Z</time>
      </trkpt>
      <trkpt lat="22.809389" lon="108.690270">
        <ele>75.689977</ele>
        <time>2026-08-14T03:44:24.000Z</time>
      </trkpt>
      <trkpt lat="22.809372" lon="108.690305">
        <ele>75.755843</ele>
        <time>2026-08-14T03:44:25.000Z</time>
      </trkpt>
      <trkpt lat="22.809349" lon="108.690340">
        <ele>75.827407</ele>
        <time>2026-08-14T03:44:26.000Z</time>
      </trkpt>
      <trkpt lat="22.809326" lon="108.690369">
        <ele>75.891101</ele>
        <time>2026-08-14T03:44:27.000Z</time>
      </trkpt>
      <trkpt lat="22.809295" lon="108.690409">
        <ele>75.978107</ele>
        <time>2026-08-14T03:44:28.000Z</time>
      </trkpt>
      <trkpt lat="22.809270" lon="108.690453">
        <ele>76.064161</ele>
        <time>2026-08-14T03:44:29.000Z</time>
      </trkpt>
      <trkpt lat="22.809241" lon="108.690501">
        <ele>76.159713</ele>
        <time>2026-08-14T03:44:30.000Z</time>
      </trkpt>
      <trkpt lat="22.809205" lon="108.690540">
        <ele>76.251604</ele>
        <time>2026-08-14T03:44:31.000Z</time>
      </trkpt>
      <trkpt lat="22.809163" lon="108.690577">
        <ele>76.349324</ele>
        <time>2026-08-14T03:44:32.000Z</time>
      </trkpt>
      <trkpt lat="22.809122" lon="108.690612">
        <ele>76.443555</ele>
        <time>2026-08-14T03:44:33.000Z</time>
      </trkpt>
      <trkpt lat="22.809085" lon="108.690647">
        <ele>76.540730</ele>
        <time>2026-08-14T03:44:34.000Z</time>
      </trkpt>
      <trkpt lat="22.809049" lon="108.690682">
        <ele>76.641938</ele>
        <time>2026-08-14T03:44:35.000Z</time>
      </trkpt>
      <trkpt lat="22.809012" lon="108.690718">
        <ele>76.745993</ele>
        <time>2026-08-14T03:44:36.000Z</time>
      </trkpt>
      <trkpt lat="22.808977" lon="108.690753">
        <ele>76.845651</ele>
        <time>2026-08-14T03:44:37.000Z</time>
      </trkpt>
      <trkpt lat="22.808943" lon="108.690786">
        <ele>76.941165</ele>
        <time>2026-08-14T03:44:38.000Z</time>
      </trkpt>
      <trkpt lat="22.808911" lon="108.690822">
        <ele>77.037681</ele>
        <time>2026-08-14T03:44:39.000Z</time>
      </trkpt>
      <trkpt lat="22.808883" lon="108.690860">
        <ele>77.131567</ele>
        <time>2026-08-14T03:44:40.000Z</time>
      </trkpt>
      <trkpt lat="22.808854" lon="108.690897">
        <ele>77.225295</ele>
        <time>2026-08-14T03:44:41.000Z</time>
      </trkpt>
      <trkpt lat="22.808827" lon="108.690931">
        <ele>77.311903</ele>
        <time>2026-08-14T03:44:42.000Z</time>
      </trkpt>
      <trkpt lat="22.808799" lon="108.690964">
        <ele>77.398461</ele>
        <time>2026-08-14T03:44:43.000Z</time>
      </trkpt>
      <trkpt lat="22.808773" lon="108.690985">
        <ele>77.466325</ele>
        <time>2026-08-14T03:44:44.000Z</time>
      </trkpt>
      <trkpt lat="22.808743" lon="108.690999">
        <ele>77.534698</ele>
        <time>2026-08-14T03:44:45.000Z</time>
      </trkpt>
      <trkpt lat="22.808711" lon="108.691008">
        <ele>77.603908</ele>
        <time>2026-08-14T03:44:46.000Z</time>
      </trkpt>
      <trkpt lat="22.808677" lon="108.691014">
        <ele>77.676026</ele>
        <time>2026-08-14T03:44:47.000Z</time>
      </trkpt>
      <trkpt lat="22.808643" lon="108.691019">
        <ele>77.747860</ele>
        <time>2026-08-14T03:44:48.000Z</time>
      </trkpt>
      <trkpt lat="22.808607" lon="108.691022">
        <ele>77.823451</ele>
        <time>2026-08-14T03:44:49.000Z</time>
      </trkpt>
      <trkpt lat="22.808571" lon="108.691026">
        <ele>77.899215</ele>
        <time>2026-08-14T03:44:50.000Z</time>
      </trkpt>
      <trkpt lat="22.808536" lon="108.691030">
        <ele>77.972897</ele>
        <time>2026-08-14T03:44:51.000Z</time>
      </trkpt>
      <trkpt lat="22.808499" lon="108.691034">
        <ele>78.050744</ele>
        <time>2026-08-14T03:44:52.000Z</time>
      </trkpt>
      <trkpt lat="22.808462" lon="108.691039">
        <ele>78.128806</ele>
        <time>2026-08-14T03:44:53.000Z</time>
      </trkpt>
      <trkpt lat="22.808424" lon="108.691048">
        <ele>78.210237</ele>
        <time>2026-08-14T03:44:54.000Z</time>
      </trkpt>
      <trkpt lat="22.808386" lon="108.691058">
        <ele>78.292101</ele>
        <time>2026-08-14T03:44:55.000Z</time>
      </trkpt>
      <trkpt lat="22.808351" lon="108.691066">
        <ele>78.366986</ele>
        <time>2026-08-14T03:44:56.000Z</time>
      </trkpt>
      <trkpt lat="22.808314" lon="108.691080">
        <ele>78.449026</ele>
        <time>2026-08-14T03:44:57.000Z</time>
      </trkpt>
      <trkpt lat="22.808278" lon="108.691096">
        <ele>78.530476</ele>
        <time>2026-08-14T03:44:58.000Z</time>
      </trkpt>
      <trkpt lat="22.808242" lon="108.691114">
        <ele>78.613466</ele>
        <time>2026-08-14T03:44:59.000Z</time>
      </trkpt>
      <trkpt lat="22.808208" lon="108.691136">
        <ele>78.696349</ele>
        <time>2026-08-14T03:45:00.000Z</time>
      </trkpt>
      <trkpt lat="22.808176" lon="108.691159">
        <ele>78.776714</ele>
        <time>2026-08-14T03:45:01.000Z</time>
      </trkpt>
      <trkpt lat="22.808146" lon="108.691184">
        <ele>78.855915</ele>
        <time>2026-08-14T03:45:02.000Z</time>
      </trkpt>
      <trkpt lat="22.808116" lon="108.691209">
        <ele>78.935115</ele>
        <time>2026-08-14T03:45:03.000Z</time>
      </trkpt>
      <trkpt lat="22.808087" lon="108.691235">
        <ele>79.013880</ele>
        <time>2026-08-14T03:45:04.000Z</time>
      </trkpt>
      <trkpt lat="22.808059" lon="108.691261">
        <ele>79.091044</ele>
        <time>2026-08-14T03:45:05.000Z</time>
      </trkpt>
      <trkpt lat="22.808033" lon="108.691288">
        <ele>79.166398</ele>
        <time>2026-08-14T03:45:06.000Z</time>
      </trkpt>
      <trkpt lat="22.808009" lon="108.691318">
        <ele>79.243058</ele>
        <time>2026-08-14T03:45:07.000Z</time>
      </trkpt>
      <trkpt lat="22.807986" lon="108.691346">
        <ele>79.315437</ele>
        <time>2026-08-14T03:45:08.000Z</time>
      </trkpt>
      <trkpt lat="22.807962" lon="108.691372">
        <ele>79.386447</ele>
        <time>2026-08-14T03:45:09.000Z</time>
      </trkpt>
      <trkpt lat="22.807939" lon="108.691397">
        <ele>79.454613</ele>
        <time>2026-08-14T03:45:10.000Z</time>
      </trkpt>
      <trkpt lat="22.807919" lon="108.691419">
        <ele>79.514244</ele>
        <time>2026-08-14T03:45:11.000Z</time>
      </trkpt>
      <trkpt lat="22.807899" lon="108.691439">
        <ele>79.571192</ele>
        <time>2026-08-14T03:45:12.000Z</time>
      </trkpt>
      <trkpt lat="22.807881" lon="108.691460">
        <ele>79.626534</ele>
        <time>2026-08-14T03:45:13.000Z</time>
      </trkpt>
      <trkpt lat="22.807862" lon="108.691480">
        <ele>79.681960</ele>
        <time>2026-08-14T03:45:14.000Z</time>
      </trkpt>
      <trkpt lat="22.807843" lon="108.691498">
        <ele>79.734772</ele>
        <time>2026-08-14T03:45:15.000Z</time>
      </trkpt>
      <trkpt lat="22.807823" lon="108.691520">
        <ele>79.794404</ele>
        <time>2026-08-14T03:45:16.000Z</time>
      </trkpt>
      <trkpt lat="22.807801" lon="108.691538">
        <ele>79.852094</ele>
        <time>2026-08-14T03:45:17.000Z</time>
      </trkpt>
      <trkpt lat="22.807780" lon="108.691556">
        <ele>79.908128</ele>
        <time>2026-08-14T03:45:18.000Z</time>
      </trkpt>
      <trkpt lat="22.807758" lon="108.691575">
        <ele>79.967000</ele>
        <time>2026-08-14T03:45:19.000Z</time>
      </trkpt>
      <trkpt lat="22.807741" lon="108.691594">
        <ele>80.018101</ele>
        <time>2026-08-14T03:45:20.000Z</time>
      </trkpt>
      <trkpt lat="22.807722" lon="108.691613">
        <ele>80.072202</ele>
        <time>2026-08-14T03:45:21.000Z</time>
      </trkpt>
      <trkpt lat="22.807704" lon="108.691631">
        <ele>80.123455</ele>
        <time>2026-08-14T03:45:22.000Z</time>
      </trkpt>
      <trkpt lat="22.807689" lon="108.691652">
        <ele>80.174726</ele>
        <time>2026-08-14T03:45:23.000Z</time>
      </trkpt>
      <trkpt lat="22.807677" lon="108.691671">
        <ele>80.219176</ele>
        <time>2026-08-14T03:45:24.000Z</time>
      </trkpt>
      <trkpt lat="22.807665" lon="108.691692">
        <ele>80.242252</ele>
        <time>2026-08-14T03:45:25.000Z</time>
      </trkpt>
      <trkpt lat="22.807655" lon="108.691716">
        <ele>80.237400</ele>
        <time>2026-08-14T03:45:26.000Z</time>
      </trkpt>
      <trkpt lat="22.807644" lon="108.691738">
        <ele>80.232789</ele>
        <time>2026-08-14T03:45:27.000Z</time>
      </trkpt>
      <trkpt lat="22.807637" lon="108.691762">
        <ele>80.228152</ele>
        <time>2026-08-14T03:45:28.000Z</time>
      </trkpt>
      <trkpt lat="22.807631" lon="108.691785">
        <ele>80.223748</ele>
        <time>2026-08-14T03:45:29.000Z</time>
      </trkpt>
      <trkpt lat="22.807624" lon="108.691811">
        <ele>80.218758</ele>
        <time>2026-08-14T03:45:30.000Z</time>
      </trkpt>
      <trkpt lat="22.807620" lon="108.691838">
        <ele>80.213720</ele>
        <time>2026-08-14T03:45:31.000Z</time>
      </trkpt>
      <trkpt lat="22.807619" lon="108.691864">
        <ele>80.208926</ele>
        <time>2026-08-14T03:45:32.000Z</time>
      </trkpt>
      <trkpt lat="22.807622" lon="108.691892">
        <ele>80.203733</ele>
        <time>2026-08-14T03:45:33.000Z</time>
      </trkpt>
      <trkpt lat="22.807621" lon="108.691923">
        <ele>80.198019</ele>
        <time>2026-08-14T03:45:34.000Z</time>
      </trkpt>
      <trkpt lat="22.807621" lon="108.691954">
        <ele>80.192308</ele>
        <time>2026-08-14T03:45:35.000Z</time>
      </trkpt>
      <trkpt lat="22.807621" lon="108.691990">
        <ele>80.185676</ele>
        <time>2026-08-14T03:45:36.000Z</time>
      </trkpt>
      <trkpt lat="22.807622" lon="108.692029">
        <ele>80.178488</ele>
        <time>2026-08-14T03:45:37.000Z</time>
      </trkpt>
      <trkpt lat="22.807624" lon="108.692071">
        <ele>80.170740</ele>
        <time>2026-08-14T03:45:38.000Z</time>
      </trkpt>
      <trkpt lat="22.807629" lon="108.692117">
        <ele>80.162207</ele>
        <time>2026-08-14T03:45:39.000Z</time>
      </trkpt>
      <trkpt lat="22.807639" lon="108.692162">
        <ele>80.153680</ele>
        <time>2026-08-14T03:45:40.000Z</time>
      </trkpt>
      <trkpt lat="22.807659" lon="108.692206">
        <ele>80.144642</ele>
        <time>2026-08-14T03:45:41.000Z</time>
      </trkpt>
      <trkpt lat="22.807685" lon="108.692252">
        <ele>80.134701</ele>
        <time>2026-08-14T03:45:42.000Z</time>
      </trkpt>
      <trkpt lat="22.807714" lon="108.692296">
        <ele>80.124736</ele>
        <time>2026-08-14T03:45:43.000Z</time>
      </trkpt>
      <trkpt lat="22.807744" lon="108.692343">
        <ele>80.114205</ele>
        <time>2026-08-14T03:45:44.000Z</time>
      </trkpt>
      <trkpt lat="22.807777" lon="108.692389">
        <ele>80.103466</ele>
        <time>2026-08-14T03:45:45.000Z</time>
      </trkpt>
      <trkpt lat="22.807812" lon="108.692438">
        <ele>80.092046</ele>
        <time>2026-08-14T03:45:46.000Z</time>
      </trkpt>
      <trkpt lat="22.807845" lon="108.692488">
        <ele>80.080717</ele>
        <time>2026-08-14T03:45:47.000Z</time>
      </trkpt>
      <trkpt lat="22.807873" lon="108.692536">
        <ele>80.070253</ele>
        <time>2026-08-14T03:45:48.000Z</time>
      </trkpt>
      <trkpt lat="22.807903" lon="108.692592">
        <ele>80.058320</ele>
        <time>2026-08-14T03:45:49.000Z</time>
      </trkpt>
      <trkpt lat="22.807927" lon="108.692640">
        <ele>80.048260</ele>
        <time>2026-08-14T03:45:50.000Z</time>
      </trkpt>
      <trkpt lat="22.807958" lon="108.692693">
        <ele>80.036697</ele>
        <time>2026-08-14T03:45:51.000Z</time>
      </trkpt>
      <trkpt lat="22.807989" lon="108.692743">
        <ele>80.025596</ele>
        <time>2026-08-14T03:45:52.000Z</time>
      </trkpt>
      <trkpt lat="22.808021" lon="108.692789">
        <ele>80.014979</ele>
        <time>2026-08-14T03:45:53.000Z</time>
      </trkpt>
      <trkpt lat="22.808055" lon="108.692845">
        <ele>80.002626</ele>
        <time>2026-08-14T03:45:54.000Z</time>
      </trkpt>
      <trkpt lat="22.808079" lon="108.692911">
        <ele>79.989555</ele>
        <time>2026-08-14T03:45:55.000Z</time>
      </trkpt>
      <trkpt lat="22.808097" lon="108.692973">
        <ele>79.977580</ele>
        <time>2026-08-14T03:45:56.000Z</time>
      </trkpt>
      <trkpt lat="22.808111" lon="108.693032">
        <ele>79.966356</ele>
        <time>2026-08-14T03:45:57.000Z</time>
      </trkpt>
      <trkpt lat="22.808121" lon="108.693089">
        <ele>79.955667</ele>
        <time>2026-08-14T03:45:58.000Z</time>
      </trkpt>
      <trkpt lat="22.808126" lon="108.693144">
        <ele>79.945486</ele>
        <time>2026-08-14T03:45:59.000Z</time>
      </trkpt>
      <trkpt lat="22.808125" lon="108.693199">
        <ele>79.935351</ele>
        <time>2026-08-14T03:46:00.000Z</time>
      </trkpt>
      <trkpt lat="22.808110" lon="108.693248">
        <ele>79.925839</ele>
        <time>2026-08-14T03:46:01.000Z</time>
      </trkpt>
      <trkpt lat="22.808086" lon="108.693291">
        <ele>79.916579</ele>
        <time>2026-08-14T03:46:02.000Z</time>
      </trkpt>
      <trkpt lat="22.808053" lon="108.693321">
        <ele>79.907974</ele>
        <time>2026-08-14T03:46:03.000Z</time>
      </trkpt>
      <trkpt lat="22.808012" lon="108.693342">
        <ele>79.898913</ele>
        <time>2026-08-14T03:46:04.000Z</time>
      </trkpt>
      <trkpt lat="22.807972" lon="108.693359">
        <ele>79.890327</ele>
        <time>2026-08-14T03:46:05.000Z</time>
      </trkpt>
      <trkpt lat="22.807932" lon="108.693376">
        <ele>79.919934</ele>
        <time>2026-08-14T03:46:06.000Z</time>
      </trkpt>
      <trkpt lat="22.807896" lon="108.693396">
        <ele>80.008555</ele>
        <time>2026-08-14T03:46:07.000Z</time>
      </trkpt>
      <trkpt lat="22.807861" lon="108.693418">
        <ele>80.097187</ele>
        <time>2026-08-14T03:46:08.000Z</time>
      </trkpt>
      <trkpt lat="22.807827" lon="108.693445">
        <ele>80.189511</ele>
        <time>2026-08-14T03:46:09.000Z</time>
      </trkpt>
      <trkpt lat="22.807797" lon="108.693474">
        <ele>80.277554</ele>
        <time>2026-08-14T03:46:10.000Z</time>
      </trkpt>
      <trkpt lat="22.807766" lon="108.693505">
        <ele>80.369934</ele>
        <time>2026-08-14T03:46:11.000Z</time>
      </trkpt>
      <trkpt lat="22.807736" lon="108.693535">
        <ele>80.459333</ele>
        <time>2026-08-14T03:46:12.000Z</time>
      </trkpt>
      <trkpt lat="22.807708" lon="108.693566">
        <ele>80.546993</ele>
        <time>2026-08-14T03:46:13.000Z</time>
      </trkpt>
      <trkpt lat="22.807676" lon="108.693591">
        <ele>80.633398</ele>
        <time>2026-08-14T03:46:14.000Z</time>
      </trkpt>
      <trkpt lat="22.807649" lon="108.693616">
        <ele>80.711176</ele>
        <time>2026-08-14T03:46:15.000Z</time>
      </trkpt>
      <trkpt lat="22.807621" lon="108.693645">
        <ele>80.795998</ele>
        <time>2026-08-14T03:46:16.000Z</time>
      </trkpt>
      <trkpt lat="22.807592" lon="108.693680">
        <ele>80.891050</ele>
        <time>2026-08-14T03:46:17.000Z</time>
      </trkpt>
      <trkpt lat="22.807567" lon="108.693710">
        <ele>80.972733</ele>
        <time>2026-08-14T03:46:18.000Z</time>
      </trkpt>
      <trkpt lat="22.807545" lon="108.693741">
        <ele>81.051752</ele>
        <time>2026-08-14T03:46:19.000Z</time>
      </trkpt>
      <trkpt lat="22.807522" lon="108.693774">
        <ele>81.135312</ele>
        <time>2026-08-14T03:46:20.000Z</time>
      </trkpt>
      <trkpt lat="22.807496" lon="108.693806">
        <ele>81.221467</ele>
        <time>2026-08-14T03:46:21.000Z</time>
      </trkpt>
      <trkpt lat="22.807469" lon="108.693836">
        <ele>81.306151</ele>
        <time>2026-08-14T03:46:22.000Z</time>
      </trkpt>
      <trkpt lat="22.807445" lon="108.693861">
        <ele>81.379055</ele>
        <time>2026-08-14T03:46:23.000Z</time>
      </trkpt>
      <trkpt lat="22.807419" lon="108.693898">
        <ele>81.473024</ele>
        <time>2026-08-14T03:46:24.000Z</time>
      </trkpt>
      <trkpt lat="22.807395" lon="108.693933">
        <ele>81.561130</ele>
        <time>2026-08-14T03:46:25.000Z</time>
      </trkpt>
      <trkpt lat="22.807369" lon="108.693968">
        <ele>81.651920</ele>
        <time>2026-08-14T03:46:26.000Z</time>
      </trkpt>
      <trkpt lat="22.807345" lon="108.694006">
        <ele>81.744958</ele>
        <time>2026-08-14T03:46:27.000Z</time>
      </trkpt>
      <trkpt lat="22.807320" lon="108.694041">
        <ele>81.834389</ele>
        <time>2026-08-14T03:46:28.000Z</time>
      </trkpt>
      <trkpt lat="22.807294" lon="108.694076">
        <ele>81.925179</ele>
        <time>2026-08-14T03:46:29.000Z</time>
      </trkpt>
      <trkpt lat="22.807276" lon="108.694112">
        <ele>82.007898</ele>
        <time>2026-08-14T03:46:30.000Z</time>
      </trkpt>
      <trkpt lat="22.807252" lon="108.694143">
        <ele>82.089664</ele>
        <time>2026-08-14T03:46:31.000Z</time>
      </trkpt>
      <trkpt lat="22.807228" lon="108.694175">
        <ele>82.172987</ele>
        <time>2026-08-14T03:46:32.000Z</time>
      </trkpt>
      <trkpt lat="22.807204" lon="108.694209">
        <ele>82.259481</ele>
        <time>2026-08-14T03:46:33.000Z</time>
      </trkpt>
      <trkpt lat="22.807182" lon="108.694246">
        <ele>82.348411</ele>
        <time>2026-08-14T03:46:34.000Z</time>
      </trkpt>
      <trkpt lat="22.807155" lon="108.694281">
        <ele>82.440591</ele>
        <time>2026-08-14T03:46:35.000Z</time>
      </trkpt>
      <trkpt lat="22.807128" lon="108.694317">
        <ele>82.534329</ele>
        <time>2026-08-14T03:46:36.000Z</time>
      </trkpt>
      <trkpt lat="22.807099" lon="108.694354">
        <ele>82.632423</ele>
        <time>2026-08-14T03:46:37.000Z</time>
      </trkpt>
      <trkpt lat="22.807071" lon="108.694387">
        <ele>82.723013</ele>
        <time>2026-08-14T03:46:38.000Z</time>
      </trkpt>
      <trkpt lat="22.807042" lon="108.694419">
        <ele>82.813649</ele>
        <time>2026-08-14T03:46:39.000Z</time>
      </trkpt>
      <trkpt lat="22.807010" lon="108.694451">
        <ele>82.909009</ele>
        <time>2026-08-14T03:46:40.000Z</time>
      </trkpt>
      <trkpt lat="22.806976" lon="108.694480">
        <ele>83.003775</ele>
        <time>2026-08-14T03:46:41.000Z</time>
      </trkpt>
      <trkpt lat="22.806944" lon="108.694511">
        <ele>83.097778</ele>
        <time>2026-08-14T03:46:42.000Z</time>
      </trkpt>
      <trkpt lat="22.806914" lon="108.694539">
        <ele>83.184491</ele>
        <time>2026-08-14T03:46:43.000Z</time>
      </trkpt>
      <trkpt lat="22.806879" lon="108.694568">
        <ele>83.280989</ele>
        <time>2026-08-14T03:46:44.000Z</time>
      </trkpt>
      <trkpt lat="22.806848" lon="108.694599">
        <ele>83.373369</ele>
        <time>2026-08-14T03:46:45.000Z</time>
      </trkpt>
      <trkpt lat="22.806815" lon="108.694629">
        <ele>83.467708</ele>
        <time>2026-08-14T03:46:46.000Z</time>
      </trkpt>
      <trkpt lat="22.806780" lon="108.694661">
        <ele>83.568000</ele>
        <time>2026-08-14T03:46:47.000Z</time>
      </trkpt>
      <trkpt lat="22.806747" lon="108.694692">
        <ele>83.663648</ele>
        <time>2026-08-14T03:46:48.000Z</time>
      </trkpt>
      <trkpt lat="22.806715" lon="108.694723">
        <ele>83.757651</ele>
        <time>2026-08-14T03:46:49.000Z</time>
      </trkpt>
      <trkpt lat="22.806681" lon="108.694755">
        <ele>83.852341</ele>
        <time>2026-08-14T03:46:50.000Z</time>
      </trkpt>
      <trkpt lat="22.806648" lon="108.694786">
        <ele>83.935585</ele>
        <time>2026-08-14T03:46:51.000Z</time>
      </trkpt>
      <trkpt lat="22.806617" lon="108.694816">
        <ele>84.014804</ele>
        <time>2026-08-14T03:46:52.000Z</time>
      </trkpt>
      <trkpt lat="22.806586" lon="108.694844">
        <ele>84.091727</ele>
        <time>2026-08-14T03:46:53.000Z</time>
      </trkpt>
      <trkpt lat="22.806556" lon="108.694874">
        <ele>84.169534</ele>
        <time>2026-08-14T03:46:54.000Z</time>
      </trkpt>
      <trkpt lat="22.806525" lon="108.694901">
        <ele>84.245344</ele>
        <time>2026-08-14T03:46:55.000Z</time>
      </trkpt>
      <trkpt lat="22.806495" lon="108.694925">
        <ele>84.316426</ele>
        <time>2026-08-14T03:46:56.000Z</time>
      </trkpt>
      <trkpt lat="22.806467" lon="108.694948">
        <ele>84.383401</ele>
        <time>2026-08-14T03:46:57.000Z</time>
      </trkpt>
      <trkpt lat="22.806440" lon="108.694970">
        <ele>84.447794</ele>
        <time>2026-08-14T03:46:58.000Z</time>
      </trkpt>
      <trkpt lat="22.806415" lon="108.694991">
        <ele>84.508089</ele>
        <time>2026-08-14T03:46:59.000Z</time>
      </trkpt>
      <trkpt lat="22.806395" lon="108.695014">
        <ele>84.563670</ele>
        <time>2026-08-14T03:47:00.000Z</time>
      </trkpt>
      <trkpt lat="22.806372" lon="108.695035">
        <ele>84.620997</ele>
        <time>2026-08-14T03:47:01.000Z</time>
      </trkpt>
      <trkpt lat="22.806347" lon="108.695052">
        <ele>84.677262</ele>
        <time>2026-08-14T03:47:02.000Z</time>
      </trkpt>
      <trkpt lat="22.806324" lon="108.695071">
        <ele>84.732391</ele>
        <time>2026-08-14T03:47:03.000Z</time>
      </trkpt>
      <trkpt lat="22.806299" lon="108.695091">
        <ele>84.791626</ele>
        <time>2026-08-14T03:47:04.000Z</time>
      </trkpt>
      <trkpt lat="22.806273" lon="108.695109">
        <ele>84.850443</ele>
        <time>2026-08-14T03:47:05.000Z</time>
      </trkpt>
      <trkpt lat="22.806245" lon="108.695128">
        <ele>84.913423</ele>
        <time>2026-08-14T03:47:06.000Z</time>
      </trkpt>
      <trkpt lat="22.806217" lon="108.695147">
        <ele>84.976403</ele>
        <time>2026-08-14T03:47:07.000Z</time>
      </trkpt>
      <trkpt lat="22.806189" lon="108.695166">
        <ele>85.039383</ele>
        <time>2026-08-14T03:47:08.000Z</time>
      </trkpt>
      <trkpt lat="22.806159" lon="108.695183">
        <ele>85.103926</ele>
        <time>2026-08-14T03:47:09.000Z</time>
      </trkpt>
      <trkpt lat="22.806128" lon="108.695203">
        <ele>85.172705</ele>
        <time>2026-08-14T03:47:10.000Z</time>
      </trkpt>
      <trkpt lat="22.806095" lon="108.695225">
        <ele>85.246568</ele>
        <time>2026-08-14T03:47:11.000Z</time>
      </trkpt>
      <trkpt lat="22.806063" lon="108.695249">
        <ele>85.320754</ele>
        <time>2026-08-14T03:47:12.000Z</time>
      </trkpt>
      <trkpt lat="22.806034" lon="108.695275">
        <ele>85.392497</ele>
        <time>2026-08-14T03:47:13.000Z</time>
      </trkpt>
      <trkpt lat="22.806005" lon="108.695302">
        <ele>85.465373</ele>
        <time>2026-08-14T03:47:14.000Z</time>
      </trkpt>
      <trkpt lat="22.805971" lon="108.695328">
        <ele>85.544699</ele>
        <time>2026-08-14T03:47:15.000Z</time>
      </trkpt>
      <trkpt lat="22.805934" lon="108.695355">
        <ele>85.629734</ele>
        <time>2026-08-14T03:47:16.000Z</time>
      </trkpt>
      <trkpt lat="22.805895" lon="108.695374">
        <ele>85.711260</ele>
        <time>2026-08-14T03:47:17.000Z</time>
      </trkpt>
      <trkpt lat="22.805855" lon="108.695391">
        <ele>85.793183</ele>
        <time>2026-08-14T03:47:18.000Z</time>
      </trkpt>
      <trkpt lat="22.805819" lon="108.695407">
        <ele>85.867371</ele>
        <time>2026-08-14T03:47:19.000Z</time>
      </trkpt>
      <trkpt lat="22.805782" lon="108.695423">
        <ele>85.943327</ele>
        <time>2026-08-14T03:47:20.000Z</time>
      </trkpt>
      <trkpt lat="22.805749" lon="108.695433">
        <ele>86.008665</ele>
        <time>2026-08-14T03:47:21.000Z</time>
      </trkpt>
      <trkpt lat="22.805715" lon="108.695441">
        <ele>86.075008</ele>
        <time>2026-08-14T03:47:22.000Z</time>
      </trkpt>
      <trkpt lat="22.805684" lon="108.695443">
        <ele>86.134228</ele>
        <time>2026-08-14T03:47:23.000Z</time>
      </trkpt>
      <trkpt lat="22.805651" lon="108.695451">
        <ele>86.198709</ele>
        <time>2026-08-14T03:47:24.000Z</time>
      </trkpt>
      <trkpt lat="22.805619" lon="108.695460">
        <ele>86.261749</ele>
        <time>2026-08-14T03:47:25.000Z</time>
      </trkpt>
      <trkpt lat="22.805590" lon="108.695466">
        <ele>86.318047</ele>
        <time>2026-08-14T03:47:26.000Z</time>
      </trkpt>
      <trkpt lat="22.805563" lon="108.695472">
        <ele>86.370604</ele>
        <time>2026-08-14T03:47:27.000Z</time>
      </trkpt>
      <trkpt lat="22.805537" lon="108.695481">
        <ele>86.422647</ele>
        <time>2026-08-14T03:47:28.000Z</time>
      </trkpt>
      <trkpt lat="22.805512" lon="108.695492">
        <ele>86.474093</ele>
        <time>2026-08-14T03:47:29.000Z</time>
      </trkpt>
      <trkpt lat="22.805487" lon="108.695504">
        <ele>86.526225</ele>
        <time>2026-08-14T03:47:30.000Z</time>
      </trkpt>
      <trkpt lat="22.805459" lon="108.695517">
        <ele>86.584304</ele>
        <time>2026-08-14T03:47:31.000Z</time>
      </trkpt>
      <trkpt lat="22.805431" lon="108.695526">
        <ele>86.639993</ele>
        <time>2026-08-14T03:47:32.000Z</time>
      </trkpt>
      <trkpt lat="22.805402" lon="108.695533">
        <ele>86.696646</ele>
        <time>2026-08-14T03:47:33.000Z</time>
      </trkpt>
      <trkpt lat="22.805374" lon="108.695539">
        <ele>86.751072</ele>
        <time>2026-08-14T03:47:34.000Z</time>
      </trkpt>
      <trkpt lat="22.805344" lon="108.695545">
        <ele>86.809245</ele>
        <time>2026-08-14T03:47:35.000Z</time>
      </trkpt>
      <trkpt lat="22.805314" lon="108.695555">
        <ele>86.869093</ele>
        <time>2026-08-14T03:47:36.000Z</time>
      </trkpt>
      <trkpt lat="22.805281" lon="108.695562">
        <ele>86.933214</ele>
        <time>2026-08-14T03:47:37.000Z</time>
      </trkpt>
      <trkpt lat="22.805251" lon="108.695571">
        <ele>86.992569</ele>
        <time>2026-08-14T03:47:38.000Z</time>
      </trkpt>
      <trkpt lat="22.805220" lon="108.695582">
        <ele>87.054767</ele>
        <time>2026-08-14T03:47:39.000Z</time>
      </trkpt>
      <trkpt lat="22.805189" lon="108.695590">
        <ele>87.115531</ele>
        <time>2026-08-14T03:47:40.000Z</time>
      </trkpt>
      <trkpt lat="22.805157" lon="108.695597">
        <ele>87.177782</ele>
        <time>2026-08-14T03:47:41.000Z</time>
      </trkpt>
      <trkpt lat="22.805126" lon="108.695605">
        <ele>87.238547</ele>
        <time>2026-08-14T03:47:42.000Z</time>
      </trkpt>
      <trkpt lat="22.805095" lon="108.695612">
        <ele>87.316953</ele>
        <time>2026-08-14T03:47:43.000Z</time>
      </trkpt>
      <trkpt lat="22.805064" lon="108.695620">
        <ele>87.403127</ele>
        <time>2026-08-14T03:47:44.000Z</time>
      </trkpt>
      <trkpt lat="22.805031" lon="108.695631">
        <ele>87.496489</ele>
        <time>2026-08-14T03:47:45.000Z</time>
      </trkpt>
      <trkpt lat="22.804997" lon="108.695642">
        <ele>87.592439</ele>
        <time>2026-08-14T03:47:46.000Z</time>
      </trkpt>
      <trkpt lat="22.804966" lon="108.695656">
        <ele>87.683248</ele>
        <time>2026-08-14T03:47:47.000Z</time>
      </trkpt>
      <trkpt lat="22.804934" lon="108.695667">
        <ele>87.774028</ele>
        <time>2026-08-14T03:47:48.000Z</time>
      </trkpt>
      <trkpt lat="22.804900" lon="108.695678">
        <ele>87.869978</ele>
        <time>2026-08-14T03:47:49.000Z</time>
      </trkpt>
      <trkpt lat="22.804867" lon="108.695686">
        <ele>87.961423</ele>
        <time>2026-08-14T03:47:50.000Z</time>
      </trkpt>
      <trkpt lat="22.804832" lon="108.695691">
        <ele>88.056892</ele>
        <time>2026-08-14T03:47:51.000Z</time>
      </trkpt>
      <trkpt lat="22.804799" lon="108.695700">
        <ele>88.148913</ele>
        <time>2026-08-14T03:47:52.000Z</time>
      </trkpt>
      <trkpt lat="22.804764" lon="108.695708">
        <ele>88.245643</ele>
        <time>2026-08-14T03:47:53.000Z</time>
      </trkpt>
      <trkpt lat="22.804730" lon="108.695716">
        <ele>88.339729</ele>
        <time>2026-08-14T03:47:54.000Z</time>
      </trkpt>
      <trkpt lat="22.804696" lon="108.695727">
        <ele>88.435679</ele>
        <time>2026-08-14T03:47:55.000Z</time>
      </trkpt>
      <trkpt lat="22.804662" lon="108.695737">
        <ele>88.530947</ele>
        <time>2026-08-14T03:47:56.000Z</time>
      </trkpt>
      <trkpt lat="22.804629" lon="108.695745">
        <ele>88.622392</ele>
        <time>2026-08-14T03:47:57.000Z</time>
      </trkpt>
      <trkpt lat="22.804593" lon="108.695758">
        <ele>88.725001</ele>
        <time>2026-08-14T03:47:58.000Z</time>
      </trkpt>
      <trkpt lat="22.804558" lon="108.695769">
        <ele>88.823545</ele>
        <time>2026-08-14T03:47:59.000Z</time>
      </trkpt>
      <trkpt lat="22.804523" lon="108.695779">
        <ele>88.921425</ele>
        <time>2026-08-14T03:48:00.000Z</time>
      </trkpt>
      <trkpt lat="22.804491" lon="108.695789">
        <ele>89.011484</ele>
        <time>2026-08-14T03:48:01.000Z</time>
      </trkpt>
      <trkpt lat="22.804457" lon="108.695797">
        <ele>89.105570</ele>
        <time>2026-08-14T03:48:02.000Z</time>
      </trkpt>
      <trkpt lat="22.804423" lon="108.695806">
        <ele>89.200215</ele>
        <time>2026-08-14T03:48:03.000Z</time>
      </trkpt>
      <trkpt lat="22.804389" lon="108.695817">
        <ele>89.296165</ele>
        <time>2026-08-14T03:48:04.000Z</time>
      </trkpt>
      <trkpt lat="22.804354" lon="108.695828">
        <ele>89.394710</ele>
        <time>2026-08-14T03:48:05.000Z</time>
      </trkpt>
      <trkpt lat="22.804319" lon="108.695840">
        <ele>89.493977</ele>
        <time>2026-08-14T03:48:06.000Z</time>
      </trkpt>
      <trkpt lat="22.804286" lon="108.695852">
        <ele>89.588101</ele>
        <time>2026-08-14T03:48:07.000Z</time>
      </trkpt>
      <trkpt lat="22.804255" lon="108.695864">
        <ele>89.677114</ele>
        <time>2026-08-14T03:48:08.000Z</time>
      </trkpt>
      <trkpt lat="22.804223" lon="108.695875">
        <ele>89.767894</ele>
        <time>2026-08-14T03:48:09.000Z</time>
      </trkpt>
      <trkpt lat="22.804189" lon="108.695884">
        <ele>89.862539</ele>
        <time>2026-08-14T03:48:10.000Z</time>
      </trkpt>
      <trkpt lat="22.804156" lon="108.695890">
        <ele>89.953028</ele>
        <time>2026-08-14T03:48:11.000Z</time>
      </trkpt>
      <trkpt lat="22.804126" lon="108.695903">
        <ele>90.040392</ele>
        <time>2026-08-14T03:48:12.000Z</time>
      </trkpt>
      <trkpt lat="22.804095" lon="108.695922">
        <ele>90.136682</ele>
        <time>2026-08-14T03:48:13.000Z</time>
      </trkpt>
      <trkpt lat="22.804062" lon="108.695940">
        <ele>90.236572</ele>
        <time>2026-08-14T03:48:14.000Z</time>
      </trkpt>
      <trkpt lat="22.804030" lon="108.695953">
        <ele>90.328981</ele>
        <time>2026-08-14T03:48:15.000Z</time>
      </trkpt>
      <trkpt lat="22.803998" lon="108.695968">
        <ele>90.423254</ele>
        <time>2026-08-14T03:48:16.000Z</time>
      </trkpt>
      <trkpt lat="22.803965" lon="108.695982">
        <ele>90.519079</ele>
        <time>2026-08-14T03:48:17.000Z</time>
      </trkpt>
      <trkpt lat="22.803931" lon="108.695995">
        <ele>90.616571</ele>
        <time>2026-08-14T03:48:18.000Z</time>
      </trkpt>
      <trkpt lat="22.803899" lon="108.696009">
        <ele>90.709883</ele>
        <time>2026-08-14T03:48:19.000Z</time>
      </trkpt>
      <trkpt lat="22.803866" lon="108.696026">
        <ele>90.808679</ele>
        <time>2026-08-14T03:48:20.000Z</time>
      </trkpt>
      <trkpt lat="22.803833" lon="108.696043">
        <ele>90.907474</ele>
        <time>2026-08-14T03:48:21.000Z</time>
      </trkpt>
      <trkpt lat="22.803804" lon="108.696063">
        <ele>91.000407</ele>
        <time>2026-08-14T03:48:22.000Z</time>
      </trkpt>
      <trkpt lat="22.803781" lon="108.696082">
        <ele>91.078589</ele>
        <time>2026-08-14T03:48:23.000Z</time>
      </trkpt>
      <trkpt lat="22.803761" lon="108.696106">
        <ele>91.159244</ele>
        <time>2026-08-14T03:48:24.000Z</time>
      </trkpt>
      <trkpt lat="22.803747" lon="108.696134">
        <ele>91.238654</ele>
        <time>2026-08-14T03:48:25.000Z</time>
      </trkpt>
      <trkpt lat="22.803738" lon="108.696169">
        <ele>91.329239</ele>
        <time>2026-08-14T03:48:26.000Z</time>
      </trkpt>
      <trkpt lat="22.803734" lon="108.696197">
        <ele>91.399875</ele>
        <time>2026-08-14T03:48:27.000Z</time>
      </trkpt>
      <trkpt lat="22.803732" lon="108.696225">
        <ele>91.469888</ele>
        <time>2026-08-14T03:48:28.000Z</time>
      </trkpt>
      <trkpt lat="22.803733" lon="108.696250">
        <ele>91.532271</ele>
        <time>2026-08-14T03:48:29.000Z</time>
      </trkpt>
      <trkpt lat="22.803735" lon="108.696276">
        <ele>91.597313</ele>
        <time>2026-08-14T03:48:30.000Z</time>
      </trkpt>
      <trkpt lat="22.803745" lon="108.696301">
        <ele>91.665252</ele>
        <time>2026-08-14T03:48:31.000Z</time>
      </trkpt>
      <trkpt lat="22.803754" lon="108.696326">
        <ele>91.732160</ele>
        <time>2026-08-14T03:48:32.000Z</time>
      </trkpt>
      <trkpt lat="22.803755" lon="108.696355">
        <ele>91.804507</ele>
        <time>2026-08-14T03:48:33.000Z</time>
      </trkpt>
      <trkpt lat="22.803754" lon="108.696385">
        <ele>91.879345</ele>
        <time>2026-08-14T03:48:34.000Z</time>
      </trkpt>
      <trkpt lat="22.803751" lon="108.696414">
        <ele>91.952095</ele>
        <time>2026-08-14T03:48:35.000Z</time>
      </trkpt>
      <trkpt lat="22.803748" lon="108.696442">
        <ele>92.022368</ele>
        <time>2026-08-14T03:48:36.000Z</time>
      </trkpt>
      <trkpt lat="22.803746" lon="108.696468">
        <ele>92.087410</ele>
        <time>2026-08-14T03:48:37.000Z</time>
      </trkpt>
      <trkpt lat="22.803750" lon="108.696494">
        <ele>92.181510</ele>
        <time>2026-08-14T03:48:38.000Z</time>
      </trkpt>
      <trkpt lat="22.803751" lon="108.696523">
        <ele>92.315828</ele>
        <time>2026-08-14T03:48:39.000Z</time>
      </trkpt>
      <trkpt lat="22.803752" lon="108.696553">
        <ele>92.454771</ele>
        <time>2026-08-14T03:48:40.000Z</time>
      </trkpt>
      <trkpt lat="22.803758" lon="108.696583">
        <ele>92.596854</ele>
        <time>2026-08-14T03:48:41.000Z</time>
      </trkpt>
      <trkpt lat="22.803761" lon="108.696613">
        <ele>92.736520</ele>
        <time>2026-08-14T03:48:42.000Z</time>
      </trkpt>
      <trkpt lat="22.803760" lon="108.696642">
        <ele>92.870838</ele>
        <time>2026-08-14T03:48:43.000Z</time>
      </trkpt>
      <trkpt lat="22.803762" lon="108.696673">
        <ele>93.014670</ele>
        <time>2026-08-14T03:48:44.000Z</time>
      </trkpt>
      <trkpt lat="22.803762" lon="108.696702">
        <ele>93.148894</ele>
        <time>2026-08-14T03:48:45.000Z</time>
      </trkpt>
      <trkpt lat="22.803762" lon="108.696731">
        <ele>93.283117</ele>
        <time>2026-08-14T03:48:46.000Z</time>
      </trkpt>
      <trkpt lat="22.803762" lon="108.696761">
        <ele>93.421970</ele>
        <time>2026-08-14T03:48:47.000Z</time>
      </trkpt>
      <trkpt lat="22.803762" lon="108.696789">
        <ele>93.551565</ele>
        <time>2026-08-14T03:48:48.000Z</time>
      </trkpt>
      <trkpt lat="22.803765" lon="108.696818">
        <ele>93.686632</ele>
        <time>2026-08-14T03:48:49.000Z</time>
      </trkpt>
      <trkpt lat="22.803769" lon="108.696847">
        <ele>93.822350</ele>
        <time>2026-08-14T03:48:50.000Z</time>
      </trkpt>
      <trkpt lat="22.803773" lon="108.696877">
        <ele>93.962647</ele>
        <time>2026-08-14T03:48:51.000Z</time>
      </trkpt>
      <trkpt lat="22.803778" lon="108.696905">
        <ele>94.094651</ele>
        <time>2026-08-14T03:48:52.000Z</time>
      </trkpt>
      <trkpt lat="22.803779" lon="108.696933">
        <ele>94.224344</ele>
        <time>2026-08-14T03:48:53.000Z</time>
      </trkpt>
      <trkpt lat="22.803782" lon="108.696962">
        <ele>94.359410</ele>
        <time>2026-08-14T03:48:54.000Z</time>
      </trkpt>
      <trkpt lat="22.803783" lon="108.696991">
        <ele>94.493728</ele>
        <time>2026-08-14T03:48:55.000Z</time>
      </trkpt>
      <trkpt lat="22.803783" lon="108.697021">
        <ele>94.632580</ele>
        <time>2026-08-14T03:48:56.000Z</time>
      </trkpt>
      <trkpt lat="22.803784" lon="108.697050">
        <ele>94.766898</ele>
        <time>2026-08-14T03:48:57.000Z</time>
      </trkpt>
      <trkpt lat="22.803786" lon="108.697079">
        <ele>94.901497</ele>
        <time>2026-08-14T03:48:58.000Z</time>
      </trkpt>
      <trkpt lat="22.803785" lon="108.697109">
        <ele>95.040440</ele>
        <time>2026-08-14T03:48:59.000Z</time>
      </trkpt>
      <trkpt lat="22.803785" lon="108.697140">
        <ele>95.183921</ele>
        <time>2026-08-14T03:49:00.000Z</time>
      </trkpt>
      <trkpt lat="22.803786" lon="108.697172">
        <ele>95.332115</ele>
        <time>2026-08-14T03:49:01.000Z</time>
      </trkpt>
      <trkpt lat="22.803788" lon="108.697205">
        <ele>95.485182</ele>
        <time>2026-08-14T03:49:02.000Z</time>
      </trkpt>
      <trkpt lat="22.803791" lon="108.697236">
        <ele>95.629451</ele>
        <time>2026-08-14T03:49:03.000Z</time>
      </trkpt>
      <trkpt lat="22.803794" lon="108.697268">
        <ele>95.778324</ele>
        <time>2026-08-14T03:49:04.000Z</time>
      </trkpt>
      <trkpt lat="22.803798" lon="108.697301">
        <ele>95.932376</ele>
        <time>2026-08-14T03:49:05.000Z</time>
      </trkpt>
      <trkpt lat="22.803799" lon="108.697334">
        <ele>96.085196</ele>
        <time>2026-08-14T03:49:06.000Z</time>
      </trkpt>
      <trkpt lat="22.803803" lon="108.697366">
        <ele>96.234661</ele>
        <time>2026-08-14T03:49:07.000Z</time>
      </trkpt>
      <trkpt lat="22.803804" lon="108.697393">
        <ele>96.359729</ele>
        <time>2026-08-14T03:49:08.000Z</time>
      </trkpt>
      <trkpt lat="22.803809" lon="108.697416">
        <ele>96.469102</ele>
        <time>2026-08-14T03:49:09.000Z</time>
      </trkpt>
      <trkpt lat="22.803812" lon="108.697440">
        <ele>96.581200</ele>
        <time>2026-08-14T03:49:10.000Z</time>
      </trkpt>
      <trkpt lat="22.803815" lon="108.697461">
        <ele>96.679557</ele>
        <time>2026-08-14T03:49:11.000Z</time>
      </trkpt>
      <trkpt lat="22.803821" lon="108.697479">
        <ele>96.768148</ele>
        <time>2026-08-14T03:49:12.000Z</time>
      </trkpt>
      <trkpt lat="22.803827" lon="108.697497">
        <ele>96.856738</ele>
        <time>2026-08-14T03:49:13.000Z</time>
      </trkpt>
      <trkpt lat="22.803833" lon="108.697517">
        <ele>96.954085</ele>
        <time>2026-08-14T03:49:14.000Z</time>
      </trkpt>
      <trkpt lat="22.803838" lon="108.697539">
        <ele>97.058959</ele>
        <time>2026-08-14T03:49:15.000Z</time>
      </trkpt>
      <trkpt lat="22.803843" lon="108.697560">
        <ele>97.159345</ele>
        <time>2026-08-14T03:49:16.000Z</time>
      </trkpt>
      <trkpt lat="22.803846" lon="108.697581">
        <ele>97.257702</ele>
        <time>2026-08-14T03:49:17.000Z</time>
      </trkpt>
      <trkpt lat="22.803850" lon="108.697603">
        <ele>97.361488</ele>
        <time>2026-08-14T03:49:18.000Z</time>
      </trkpt>
      <trkpt lat="22.803857" lon="108.697625">
        <ele>97.469208</ele>
        <time>2026-08-14T03:49:19.000Z</time>
      </trkpt>
      <trkpt lat="22.803864" lon="108.697647">
        <ele>97.576928</ele>
        <time>2026-08-14T03:49:20.000Z</time>
      </trkpt>
      <trkpt lat="22.803871" lon="108.697669">
        <ele>97.684648</ele>
        <time>2026-08-14T03:49:21.000Z</time>
      </trkpt>
      <trkpt lat="22.803876" lon="108.697691">
        <ele>97.789522</ele>
        <time>2026-08-14T03:49:22.000Z</time>
      </trkpt>
      <trkpt lat="22.803881" lon="108.697714">
        <ele>97.898895</ele>
        <time>2026-08-14T03:49:23.000Z</time>
      </trkpt>
      <trkpt lat="22.803886" lon="108.697738">
        <ele>98.012778</ele>
        <time>2026-08-14T03:49:24.000Z</time>
      </trkpt>
      <trkpt lat="22.803889" lon="108.697765">
        <ele>98.138650</ele>
        <time>2026-08-14T03:49:25.000Z</time>
      </trkpt>
      <trkpt lat="22.803893" lon="108.697789">
        <ele>98.251532</ele>
        <time>2026-08-14T03:49:26.000Z</time>
      </trkpt>
      <trkpt lat="22.803899" lon="108.697813">
        <ele>98.366626</ele>
        <time>2026-08-14T03:49:27.000Z</time>
      </trkpt>
      <trkpt lat="22.803906" lon="108.697837">
        <ele>98.483136</ele>
        <time>2026-08-14T03:49:28.000Z</time>
      </trkpt>
      <trkpt lat="22.803913" lon="108.697860">
        <ele>98.595241</ele>
        <time>2026-08-14T03:49:29.000Z</time>
      </trkpt>
      <trkpt lat="22.803918" lon="108.697884">
        <ele>98.709124</ele>
        <time>2026-08-14T03:49:30.000Z</time>
      </trkpt>
      <trkpt lat="22.803922" lon="108.697904">
        <ele>98.803845</ele>
        <time>2026-08-14T03:49:31.000Z</time>
      </trkpt>
      <trkpt lat="22.803928" lon="108.697926">
        <ele>98.910033</ele>
        <time>2026-08-14T03:49:32.000Z</time>
      </trkpt>
      <trkpt lat="22.803933" lon="108.697949">
        <ele>99.019406</ele>
        <time>2026-08-14T03:49:33.000Z</time>
      </trkpt>
      <trkpt lat="22.803935" lon="108.697972">
        <ele>99.126332</ele>
        <time>2026-08-14T03:49:34.000Z</time>
      </trkpt>
      <trkpt lat="22.803934" lon="108.697993">
        <ele>99.223658</ele>
        <time>2026-08-14T03:49:35.000Z</time>
      </trkpt>
      <trkpt lat="22.803935" lon="108.698014">
        <ele>99.320984</ele>
        <time>2026-08-14T03:49:36.000Z</time>
      </trkpt>
      <trkpt lat="22.803937" lon="108.698039">
        <ele>99.437129</ele>
        <time>2026-08-14T03:49:37.000Z</time>
      </trkpt>
      <trkpt lat="22.803937" lon="108.698064">
        <ele>99.552839</ele>
        <time>2026-08-14T03:49:38.000Z</time>
      </trkpt>
      <trkpt lat="22.803939" lon="108.698089">
        <ele>99.668984</ele>
        <time>2026-08-14T03:49:39.000Z</time>
      </trkpt>
      <trkpt lat="22.803934" lon="108.698115">
        <ele>99.791914</ele>
        <time>2026-08-14T03:49:40.000Z</time>
      </trkpt>
      <trkpt lat="22.803931" lon="108.698140">
        <ele>99.908600</ele>
        <time>2026-08-14T03:49:41.000Z</time>
      </trkpt>
      <trkpt lat="22.803927" lon="108.698164">
        <ele>100.021483</ele>
        <time>2026-08-14T03:49:42.000Z</time>
      </trkpt>
      <trkpt lat="22.803924" lon="108.698189">
        <ele>100.138169</ele>
        <time>2026-08-14T03:49:43.000Z</time>
      </trkpt>
      <trkpt lat="22.803924" lon="108.698212">
        <ele>100.244622</ele>
        <time>2026-08-14T03:49:44.000Z</time>
      </trkpt>
      <trkpt lat="22.803922" lon="108.698236">
        <ele>100.356157</ele>
        <time>2026-08-14T03:49:45.000Z</time>
      </trkpt>
      <trkpt lat="22.803921" lon="108.698260">
        <ele>100.467352</ele>
        <time>2026-08-14T03:49:46.000Z</time>
      </trkpt>
      <trkpt lat="22.803921" lon="108.698285">
        <ele>100.583062</ele>
        <time>2026-08-14T03:49:47.000Z</time>
      </trkpt>
      <trkpt lat="22.803924" lon="108.698308">
        <ele>100.690576</ele>
        <time>2026-08-14T03:49:48.000Z</time>
      </trkpt>
      <trkpt lat="22.803923" lon="108.698332">
        <ele>100.801771</ele>
        <time>2026-08-14T03:49:49.000Z</time>
      </trkpt>
      <trkpt lat="22.803926" lon="108.698355">
        <ele>100.909284</ele>
        <time>2026-08-14T03:49:50.000Z</time>
      </trkpt>
      <trkpt lat="22.803928" lon="108.698378">
        <ele>101.016210</ele>
        <time>2026-08-14T03:49:51.000Z</time>
      </trkpt>
      <trkpt lat="22.803930" lon="108.698398">
        <ele>101.109321</ele>
        <time>2026-08-14T03:49:52.000Z</time>
      </trkpt>
      <trkpt lat="22.803931" lon="108.698416">
        <ele>101.149665</ele>
        <time>2026-08-14T03:49:53.000Z</time>
      </trkpt>
      <trkpt lat="22.803930" lon="108.698434">
        <ele>101.147606</ele>
        <time>2026-08-14T03:49:54.000Z</time>
      </trkpt>
      <trkpt lat="22.803931" lon="108.698453">
        <ele>101.145433</ele>
        <time>2026-08-14T03:49:55.000Z</time>
      </trkpt>
      <trkpt lat="22.803931" lon="108.698471">
        <ele>101.143378</ele>
        <time>2026-08-14T03:49:56.000Z</time>
      </trkpt>
      <trkpt lat="22.803932" lon="108.698486">
        <ele>101.141660</ele>
        <time>2026-08-14T03:49:57.000Z</time>
      </trkpt>
      <trkpt lat="22.803933" lon="108.698506">
        <ele>101.139373</ele>
        <time>2026-08-14T03:49:58.000Z</time>
      </trkpt>
      <trkpt lat="22.803935" lon="108.698521">
        <ele>101.137643</ele>
        <time>2026-08-14T03:49:59.000Z</time>
      </trkpt>
      <trkpt lat="22.803937" lon="108.698536">
        <ele>101.135912</ele>
        <time>2026-08-14T03:50:00.000Z</time>
      </trkpt>
      <trkpt lat="22.803937" lon="108.698551">
        <ele>101.134199</ele>
        <time>2026-08-14T03:50:01.000Z</time>
      </trkpt>
      <trkpt lat="22.803937" lon="108.698567">
        <ele>101.132372</ele>
        <time>2026-08-14T03:50:02.000Z</time>
      </trkpt>
      <trkpt lat="22.803937" lon="108.698579">
        <ele>101.131002</ele>
        <time>2026-08-14T03:50:03.000Z</time>
      </trkpt>
      <trkpt lat="22.803935" lon="108.698593">
        <ele>101.129384</ele>
        <time>2026-08-14T03:50:04.000Z</time>
      </trkpt>
      <trkpt lat="22.803934" lon="108.698610">
        <ele>101.127439</ele>
        <time>2026-08-14T03:50:05.000Z</time>
      </trkpt>
      <trkpt lat="22.803934" lon="108.698626">
        <ele>101.125612</ele>
        <time>2026-08-14T03:50:06.000Z</time>
      </trkpt>
      <trkpt lat="22.803933" lon="108.698640">
        <ele>101.124009</ele>
        <time>2026-08-14T03:50:07.000Z</time>
      </trkpt>
      <trkpt lat="22.803935" lon="108.698657">
        <ele>101.122052</ele>
        <time>2026-08-14T03:50:08.000Z</time>
      </trkpt>
      <trkpt lat="22.803937" lon="108.698669">
        <ele>101.120659</ele>
        <time>2026-08-14T03:50:09.000Z</time>
      </trkpt>
      <trkpt lat="22.803934" lon="108.698678">
        <ele>101.119567</ele>
        <time>2026-08-14T03:50:10.000Z</time>
      </trkpt>
      <trkpt lat="22.803927" lon="108.698689">
        <ele>101.118040</ele>
        <time>2026-08-14T03:50:11.000Z</time>
      </trkpt>
      <trkpt lat="22.803917" lon="108.698703">
        <ele>101.116018</ele>
        <time>2026-08-14T03:50:12.000Z</time>
      </trkpt>
      <trkpt lat="22.803905" lon="108.698718">
        <ele>101.113750</ele>
        <time>2026-08-14T03:50:13.000Z</time>
      </trkpt>
      <trkpt lat="22.803894" lon="108.698733">
        <ele>101.111561</ele>
        <time>2026-08-14T03:50:14.000Z</time>
      </trkpt>
      <trkpt lat="22.803881" lon="108.698751">
        <ele>101.108950</ele>
        <time>2026-08-14T03:50:15.000Z</time>
      </trkpt>
      <trkpt lat="22.803867" lon="108.698769">
        <ele>101.106261</ele>
        <time>2026-08-14T03:50:16.000Z</time>
      </trkpt>
      <trkpt lat="22.803849" lon="108.698784">
        <ele>101.103449</ele>
        <time>2026-08-14T03:50:17.000Z</time>
      </trkpt>
      <trkpt lat="22.803828" lon="108.698793">
        <ele>101.100653</ele>
        <time>2026-08-14T03:50:18.000Z</time>
      </trkpt>
      <trkpt lat="22.803810" lon="108.698792">
        <ele>101.098420</ele>
        <time>2026-08-14T03:50:19.000Z</time>
      </trkpt>
      <trkpt lat="22.803790" lon="108.698790">
        <ele>101.095932</ele>
        <time>2026-08-14T03:50:20.000Z</time>
      </trkpt>
      <trkpt lat="22.803770" lon="108.698793">
        <ele>101.093431</ele>
        <time>2026-08-14T03:50:21.000Z</time>
      </trkpt>
      <trkpt lat="22.803746" lon="108.698798">
        <ele>101.090404</ele>
        <time>2026-08-14T03:50:22.000Z</time>
      </trkpt>
      <trkpt lat="22.803723" lon="108.698797">
        <ele>101.087553</ele>
        <time>2026-08-14T03:50:23.000Z</time>
      </trkpt>
      <trkpt lat="22.803696" lon="108.698800">
        <ele>101.084191</ele>
        <time>2026-08-14T03:50:24.000Z</time>
      </trkpt>
      <trkpt lat="22.803668" lon="108.698799">
        <ele>101.080720</ele>
        <time>2026-08-14T03:50:25.000Z</time>
      </trkpt>
      <trkpt lat="22.803642" lon="108.698795">
        <ele>101.077468</ele>
        <time>2026-08-14T03:50:26.000Z</time>
      </trkpt>
      <trkpt lat="22.803616" lon="108.698790">
        <ele>101.074197</ele>
        <time>2026-08-14T03:50:27.000Z</time>
      </trkpt>
      <trkpt lat="22.803582" lon="108.698795">
        <ele>101.069947</ele>
        <time>2026-08-14T03:50:28.000Z</time>
      </trkpt>
      <trkpt lat="22.803553" lon="108.698797">
        <ele>101.066347</ele>
        <time>2026-08-14T03:50:29.000Z</time>
      </trkpt>
      <trkpt lat="22.803519" lon="108.698807">
        <ele>101.061984</ele>
        <time>2026-08-14T03:50:30.000Z</time>
      </trkpt>
      <trkpt lat="22.803475" lon="108.698828">
        <ele>101.056029</ele>
        <time>2026-08-14T03:50:31.000Z</time>
      </trkpt>
      <trkpt lat="22.803438" lon="108.698858">
        <ele>101.050307</ele>
        <time>2026-08-14T03:50:32.000Z</time>
      </trkpt>
      <trkpt lat="22.803396" lon="108.698884">
        <ele>101.044317</ele>
        <time>2026-08-14T03:50:33.000Z</time>
      </trkpt>
      <trkpt lat="22.803355" lon="108.698917">
        <ele>101.037993</ele>
        <time>2026-08-14T03:50:34.000Z</time>
      </trkpt>
      <trkpt lat="22.803313" lon="108.698943">
        <ele>101.032003</ele>
        <time>2026-08-14T03:50:35.000Z</time>
      </trkpt>
      <trkpt lat="22.803269" lon="108.698972">
        <ele>101.025626</ele>
        <time>2026-08-14T03:50:36.000Z</time>
      </trkpt>
      <trkpt lat="22.803219" lon="108.699004">
        <ele>101.018435</ele>
        <time>2026-08-14T03:50:37.000Z</time>
      </trkpt>
      <trkpt lat="22.803166" lon="108.699033">
        <ele>101.011082</ele>
        <time>2026-08-14T03:50:38.000Z</time>
      </trkpt>
      <trkpt lat="22.803107" lon="108.699047">
        <ele>101.003601</ele>
        <time>2026-08-14T03:50:39.000Z</time>
      </trkpt>
      <trkpt lat="22.803045" lon="108.699060">
        <ele>100.995779</ele>
        <time>2026-08-14T03:50:40.000Z</time>
      </trkpt>
      <trkpt lat="22.802981" lon="108.699064">
        <ele>100.987838</ele>
        <time>2026-08-14T03:50:41.000Z</time>
      </trkpt>
      <trkpt lat="22.802915" lon="108.699071">
        <ele>100.979623</ele>
        <time>2026-08-14T03:50:42.000Z</time>
      </trkpt>
      <trkpt lat="22.802849" lon="108.699076">
        <ele>100.971428</ele>
        <time>2026-08-14T03:50:43.000Z</time>
      </trkpt>
      <trkpt lat="22.802785" lon="108.699079">
        <ele>100.963493</ele>
        <time>2026-08-14T03:50:44.000Z</time>
      </trkpt>
      <trkpt lat="22.802720" lon="108.699083">
        <ele>100.955429</ele>
        <time>2026-08-14T03:50:45.000Z</time>
      </trkpt>
      <trkpt lat="22.802658" lon="108.699081">
        <ele>100.947745</ele>
        <time>2026-08-14T03:50:46.000Z</time>
      </trkpt>
      <trkpt lat="22.802598" lon="108.699079">
        <ele>100.940310</ele>
        <time>2026-08-14T03:50:47.000Z</time>
      </trkpt>
      <trkpt lat="22.802538" lon="108.699073">
        <ele>100.932846</ele>
        <time>2026-08-14T03:50:48.000Z</time>
      </trkpt>
      <trkpt lat="22.802481" lon="108.699063">
        <ele>100.912968</ele>
        <time>2026-08-14T03:50:49.000Z</time>
      </trkpt>
      <trkpt lat="22.802429" lon="108.699052">
        <ele>100.868661</ele>
        <time>2026-08-14T03:50:50.000Z</time>
      </trkpt>
      <trkpt lat="22.802379" lon="108.699043">
        <ele>100.826274</ele>
        <time>2026-08-14T03:50:51.000Z</time>
      </trkpt>
      <trkpt lat="22.802322" lon="108.699036">
        <ele>100.778300</ele>
        <time>2026-08-14T03:50:52.000Z</time>
      </trkpt>
      <trkpt lat="22.802270" lon="108.699029">
        <ele>100.734478</ele>
        <time>2026-08-14T03:50:53.000Z</time>
      </trkpt>
      <trkpt lat="22.802210" lon="108.699029">
        <ele>100.684300</ele>
        <time>2026-08-14T03:50:54.000Z</time>
      </trkpt>
      <trkpt lat="22.802155" lon="108.699039">
        <ele>100.637661</ele>
        <time>2026-08-14T03:50:55.000Z</time>
      </trkpt>
      <trkpt lat="22.802099" lon="108.699048">
        <ele>100.590317</ele>
        <time>2026-08-14T03:50:56.000Z</time>
      </trkpt>
      <trkpt lat="22.802042" lon="108.699059">
        <ele>100.541899</ele>
        <time>2026-08-14T03:50:57.000Z</time>
      </trkpt>
      <trkpt lat="22.801984" lon="108.699073">
        <ele>100.492207</ele>
        <time>2026-08-14T03:50:58.000Z</time>
      </trkpt>
      <trkpt lat="22.801925" lon="108.699105">
        <ele>100.437041</ele>
        <time>2026-08-14T03:50:59.000Z</time>
      </trkpt>
      <trkpt lat="22.801866" lon="108.699125">
        <ele>100.385346</ele>
        <time>2026-08-14T03:51:00.000Z</time>
      </trkpt>
      <trkpt lat="22.801803" lon="108.699139">
        <ele>100.331565</ele>
        <time>2026-08-14T03:51:01.000Z</time>
      </trkpt>
      <trkpt lat="22.801739" lon="108.699139">
        <ele>100.278041</ele>
        <time>2026-08-14T03:51:02.000Z</time>
      </trkpt>
      <trkpt lat="22.801678" lon="108.699133">
        <ele>100.226817</ele>
        <time>2026-08-14T03:51:03.000Z</time>
      </trkpt>
      <trkpt lat="22.801615" lon="108.699132">
        <ele>100.174124</ele>
        <time>2026-08-14T03:51:04.000Z</time>
      </trkpt>
      <trkpt lat="22.801552" lon="108.699129">
        <ele>100.121386</ele>
        <time>2026-08-14T03:51:05.000Z</time>
      </trkpt>
      <trkpt lat="22.801489" lon="108.699128">
        <ele>100.068693</ele>
        <time>2026-08-14T03:51:06.000Z</time>
      </trkpt>
      <trkpt lat="22.801427" lon="108.699132">
        <ele>100.016751</ele>
        <time>2026-08-14T03:51:07.000Z</time>
      </trkpt>
      <trkpt lat="22.801365" lon="108.699137">
        <ele>99.964757</ele>
        <time>2026-08-14T03:51:08.000Z</time>
      </trkpt>
      <trkpt lat="22.801303" lon="108.699146">
        <ele>99.912444</ele>
        <time>2026-08-14T03:51:09.000Z</time>
      </trkpt>
      <trkpt lat="22.801244" lon="108.699155">
        <ele>99.862616</ele>
        <time>2026-08-14T03:51:10.000Z</time>
      </trkpt>
      <trkpt lat="22.801184" lon="108.699166">
        <ele>99.811726</ele>
        <time>2026-08-14T03:51:11.000Z</time>
      </trkpt>
      <trkpt lat="22.801126" lon="108.699182">
        <ele>99.761677</ele>
        <time>2026-08-14T03:51:12.000Z</time>
      </trkpt>
      <trkpt lat="22.801070" lon="108.699198">
        <ele>99.713246</ele>
        <time>2026-08-14T03:51:13.000Z</time>
      </trkpt>
      <trkpt lat="22.801014" lon="108.699214">
        <ele>99.664816</ele>
        <time>2026-08-14T03:51:14.000Z</time>
      </trkpt>
      <trkpt lat="22.800959" lon="108.699228">
        <ele>99.617570</ele>
        <time>2026-08-14T03:51:15.000Z</time>
      </trkpt>
      <trkpt lat="22.800905" lon="108.699243">
        <ele>99.570952</ele>
        <time>2026-08-14T03:51:16.000Z</time>
      </trkpt>
      <trkpt lat="22.800850" lon="108.699258">
        <ele>99.523524</ele>
        <time>2026-08-14T03:51:17.000Z</time>
      </trkpt>
      <trkpt lat="22.800796" lon="108.699273">
        <ele>99.476906</ele>
        <time>2026-08-14T03:51:18.000Z</time>
      </trkpt>
      <trkpt lat="22.800744" lon="108.699289">
        <ele>99.431703</ele>
        <time>2026-08-14T03:51:19.000Z</time>
      </trkpt>
      <trkpt lat="22.800696" lon="108.699311">
        <ele>99.597232</ele>
        <time>2026-08-14T03:51:20.000Z</time>
      </trkpt>
      <trkpt lat="22.800650" lon="108.699335">
        <ele>99.805522</ele>
        <time>2026-08-14T03:51:21.000Z</time>
      </trkpt>
      <trkpt lat="22.800605" lon="108.699359">
        <ele>100.010144</ele>
        <time>2026-08-14T03:51:22.000Z</time>
      </trkpt>
      <trkpt lat="22.800560" lon="108.699385">
        <ele>100.218194</ele>
        <time>2026-08-14T03:51:23.000Z</time>
      </trkpt>
      <trkpt lat="22.800513" lon="108.699407">
        <ele>100.427076</ele>
        <time>2026-08-14T03:51:24.000Z</time>
      </trkpt>
      <trkpt lat="22.800467" lon="108.699429">
        <ele>100.632218</ele>
        <time>2026-08-14T03:51:25.000Z</time>
      </trkpt>
      <trkpt lat="22.800420" lon="108.699450">
        <ele>100.839638</ele>
        <time>2026-08-14T03:51:26.000Z</time>
      </trkpt>
      <trkpt lat="22.800372" lon="108.699470">
        <ele>101.049460</ele>
        <time>2026-08-14T03:51:27.000Z</time>
      </trkpt>
      <trkpt lat="22.800323" lon="108.699486">
        <ele>101.258272</ele>
        <time>2026-08-14T03:51:28.000Z</time>
      </trkpt>
      <trkpt lat="22.800272" lon="108.699499">
        <ele>101.472051</ele>
        <time>2026-08-14T03:51:29.000Z</time>
      </trkpt>
      <trkpt lat="22.800220" lon="108.699509">
        <ele>101.687551</ele>
        <time>2026-08-14T03:51:30.000Z</time>
      </trkpt>
      <trkpt lat="22.800167" lon="108.699519">
        <ele>101.907070</ele>
        <time>2026-08-14T03:51:31.000Z</time>
      </trkpt>
      <trkpt lat="22.800114" lon="108.699524">
        <ele>102.124159</ele>
        <time>2026-08-14T03:51:32.000Z</time>
      </trkpt>
      <trkpt lat="22.800062" lon="108.699528">
        <ele>102.336883</ele>
        <time>2026-08-14T03:51:33.000Z</time>
      </trkpt>
      <trkpt lat="22.800011" lon="108.699535">
        <ele>102.546653</ele>
        <time>2026-08-14T03:51:34.000Z</time>
      </trkpt>
      <trkpt lat="22.799965" lon="108.699542">
        <ele>102.736199</ele>
        <time>2026-08-14T03:51:35.000Z</time>
      </trkpt>
      <trkpt lat="22.799924" lon="108.699547">
        <ele>102.904558</ele>
        <time>2026-08-14T03:51:36.000Z</time>
      </trkpt>
      <trkpt lat="22.799888" lon="108.699553">
        <ele>103.053183</ele>
        <time>2026-08-14T03:51:37.000Z</time>
      </trkpt>
      <trkpt lat="22.799859" lon="108.699559">
        <ele>103.173654</ele>
        <time>2026-08-14T03:51:38.000Z</time>
      </trkpt>
      <trkpt lat="22.799834" lon="108.699566">
        <ele>103.279013</ele>
        <time>2026-08-14T03:51:39.000Z</time>
      </trkpt>
      <trkpt lat="22.799813" lon="108.699571">
        <ele>103.366746</ele>
        <time>2026-08-14T03:51:40.000Z</time>
      </trkpt>
      <trkpt lat="22.799792" lon="108.699576">
        <ele>103.454478</ele>
        <time>2026-08-14T03:51:41.000Z</time>
      </trkpt>
      <trkpt lat="22.799771" lon="108.699580">
        <ele>103.541482</ele>
        <time>2026-08-14T03:51:42.000Z</time>
      </trkpt>
      <trkpt lat="22.799750" lon="108.699584">
        <ele>103.628486</ele>
        <time>2026-08-14T03:51:43.000Z</time>
      </trkpt>
      <trkpt lat="22.799728" lon="108.699588">
        <ele>103.719511</ele>
        <time>2026-08-14T03:51:44.000Z</time>
      </trkpt>
      <trkpt lat="22.799706" lon="108.699589">
        <ele>103.809364</ele>
        <time>2026-08-14T03:51:45.000Z</time>
      </trkpt>
      <trkpt lat="22.799684" lon="108.699590">
        <ele>103.899216</ele>
        <time>2026-08-14T03:51:46.000Z</time>
      </trkpt>
      <trkpt lat="22.799662" lon="108.699591">
        <ele>103.989068</ele>
        <time>2026-08-14T03:51:47.000Z</time>
      </trkpt>
      <trkpt lat="22.799640" lon="108.699594">
        <ele>104.079548</ele>
        <time>2026-08-14T03:51:48.000Z</time>
      </trkpt>
      <trkpt lat="22.799618" lon="108.699599">
        <ele>104.171270</ele>
        <time>2026-08-14T03:51:49.000Z</time>
      </trkpt>
      <trkpt lat="22.799594" lon="108.699603">
        <ele>104.270354</ele>
        <time>2026-08-14T03:51:50.000Z</time>
      </trkpt>
      <trkpt lat="22.799571" lon="108.699609">
        <ele>104.366884</ele>
        <time>2026-08-14T03:51:51.000Z</time>
      </trkpt>
      <trkpt lat="22.799548" lon="108.699612">
        <ele>104.461414</ele>
        <time>2026-08-14T03:51:52.000Z</time>
      </trkpt>
      <trkpt lat="22.799525" lon="108.699615">
        <ele>104.555944</ele>
        <time>2026-08-14T03:51:53.000Z</time>
      </trkpt>
      <trkpt lat="22.799505" lon="108.699619">
        <ele>104.638931</ele>
        <time>2026-08-14T03:51:54.000Z</time>
      </trkpt>
      <trkpt lat="22.799485" lon="108.699623">
        <ele>104.721919</ele>
        <time>2026-08-14T03:51:55.000Z</time>
      </trkpt>
      <trkpt lat="22.799465" lon="108.699627">
        <ele>104.804907</ele>
        <time>2026-08-14T03:51:56.000Z</time>
      </trkpt>
      <trkpt lat="22.799444" lon="108.699633">
        <ele>104.893522</ele>
        <time>2026-08-14T03:51:57.000Z</time>
      </trkpt>
      <trkpt lat="22.799424" lon="108.699639">
        <ele>104.978198</ele>
        <time>2026-08-14T03:51:58.000Z</time>
      </trkpt>
      <trkpt lat="22.799404" lon="108.699644">
        <ele>105.061949</ele>
        <time>2026-08-14T03:51:59.000Z</time>
      </trkpt>
      <trkpt lat="22.799387" lon="108.699645">
        <ele>105.131421</ele>
        <time>2026-08-14T03:52:00.000Z</time>
      </trkpt>
      <trkpt lat="22.799370" lon="108.699646">
        <ele>105.200893</ele>
        <time>2026-08-14T03:52:01.000Z</time>
      </trkpt>
      <trkpt lat="22.799358" lon="108.699647">
        <ele>105.250005</ele>
        <time>2026-08-14T03:52:02.000Z</time>
      </trkpt>
      <trkpt lat="22.799352" lon="108.699647">
        <ele>105.274489</ele>
        <time>2026-08-14T03:52:03.000Z</time>
      </trkpt>
      <trkpt lat="22.799352" lon="108.699647">
        <ele>105.274489</ele>
        <time>2026-08-14T03:52:05.000Z</time>
      </trkpt>
      <trkpt lat="22.799288" lon="108.699662">
        <ele>105.541674</ele>
        <time>2026-08-14T03:54:18.000Z</time>
      </trkpt>
      <trkpt lat="22.799269" lon="108.699668">
        <ele>105.622424</ele>
        <time>2026-08-14T03:54:19.000Z</time>
      </trkpt>
      <trkpt lat="22.799249" lon="108.699673">
        <ele>105.706175</ele>
        <time>2026-08-14T03:54:20.000Z</time>
      </trkpt>
      <trkpt lat="22.799227" lon="108.699678">
        <ele>105.797898</ele>
        <time>2026-08-14T03:54:21.000Z</time>
      </trkpt>
      <trkpt lat="22.799206" lon="108.699683">
        <ele>105.885630</ele>
        <time>2026-08-14T03:54:22.000Z</time>
      </trkpt>
      <trkpt lat="22.799188" lon="108.699686">
        <ele>105.959943</ele>
        <time>2026-08-14T03:54:23.000Z</time>
      </trkpt>
      <trkpt lat="22.799167" lon="108.699688">
        <ele>106.045966</ele>
        <time>2026-08-14T03:54:24.000Z</time>
      </trkpt>
      <trkpt lat="22.799145" lon="108.699692">
        <ele>106.136991</ele>
        <time>2026-08-14T03:54:25.000Z</time>
      </trkpt>
      <trkpt lat="22.799124" lon="108.699694">
        <ele>106.223014</ele>
        <time>2026-08-14T03:54:26.000Z</time>
      </trkpt>
      <trkpt lat="22.799103" lon="108.699696">
        <ele>106.309036</ele>
        <time>2026-08-14T03:54:27.000Z</time>
      </trkpt>
      <trkpt lat="22.799082" lon="108.699700">
        <ele>106.396040</ele>
        <time>2026-08-14T03:54:28.000Z</time>
      </trkpt>
      <trkpt lat="22.799061" lon="108.699707">
        <ele>106.485687</ele>
        <time>2026-08-14T03:54:29.000Z</time>
      </trkpt>
      <trkpt lat="22.799040" lon="108.699711">
        <ele>106.572691</ele>
        <time>2026-08-14T03:54:30.000Z</time>
      </trkpt>
      <trkpt lat="22.799018" lon="108.699715">
        <ele>106.663716</ele>
        <time>2026-08-14T03:54:31.000Z</time>
      </trkpt>
      <trkpt lat="22.798996" lon="108.699719">
        <ele>106.754742</ele>
        <time>2026-08-14T03:54:32.000Z</time>
      </trkpt>
      <trkpt lat="22.798972" lon="108.699724">
        <ele>106.898198</ele>
        <time>2026-08-14T03:54:33.000Z</time>
      </trkpt>
      <trkpt lat="22.798950" lon="108.699725">
        <ele>107.031125</ele>
        <time>2026-08-14T03:54:34.000Z</time>
      </trkpt>
      <trkpt lat="22.798931" lon="108.699729">
        <ele>107.147965</ele>
        <time>2026-08-14T03:54:35.000Z</time>
      </trkpt>
      <trkpt lat="22.798912" lon="108.699735">
        <ele>107.267427</ele>
        <time>2026-08-14T03:54:36.000Z</time>
      </trkpt>
      <trkpt lat="22.798891" lon="108.699740">
        <ele>107.397218</ele>
        <time>2026-08-14T03:54:37.000Z</time>
      </trkpt>
      <trkpt lat="22.798871" lon="108.699746">
        <ele>107.522487</ele>
        <time>2026-08-14T03:54:38.000Z</time>
      </trkpt>
      <trkpt lat="22.798855" lon="108.699756">
        <ele>107.633962</ele>
        <time>2026-08-14T03:54:39.000Z</time>
      </trkpt>
      <trkpt lat="22.798840" lon="108.699769">
        <ele>107.749867</ele>
        <time>2026-08-14T03:54:40.000Z</time>
      </trkpt>
      <trkpt lat="22.798824" lon="108.699783">
        <ele>107.873963</ele>
        <time>2026-08-14T03:54:41.000Z</time>
      </trkpt>
      <trkpt lat="22.798809" lon="108.699795">
        <ele>107.986478</ele>
        <time>2026-08-14T03:54:42.000Z</time>
      </trkpt>
      <trkpt lat="22.798793" lon="108.699807">
        <ele>108.103906</ele>
        <time>2026-08-14T03:54:43.000Z</time>
      </trkpt>
      <trkpt lat="22.798775" lon="108.699815">
        <ele>108.221336</ele>
        <time>2026-08-14T03:54:44.000Z</time>
      </trkpt>
      <trkpt lat="22.798758" lon="108.699819">
        <ele>108.326349</ele>
        <time>2026-08-14T03:54:45.000Z</time>
      </trkpt>
      <trkpt lat="22.798739" lon="108.699827">
        <ele>108.449386</ele>
        <time>2026-08-14T03:54:46.000Z</time>
      </trkpt>
      <trkpt lat="22.798723" lon="108.699830">
        <ele>108.547408</ele>
        <time>2026-08-14T03:54:47.000Z</time>
      </trkpt>
      <trkpt lat="22.798702" lon="108.699834">
        <ele>108.676121</ele>
        <time>2026-08-14T03:54:48.000Z</time>
      </trkpt>
      <trkpt lat="22.798683" lon="108.699839">
        <ele>108.794148</ele>
        <time>2026-08-14T03:54:49.000Z</time>
      </trkpt>
      <trkpt lat="22.798666" lon="108.699843">
        <ele>108.899161</ele>
        <time>2026-08-14T03:54:50.000Z</time>
      </trkpt>
      <trkpt lat="22.798647" lon="108.699851">
        <ele>109.022198</ele>
        <time>2026-08-14T03:54:51.000Z</time>
      </trkpt>
      <trkpt lat="22.798629" lon="108.699856">
        <ele>109.134367</ele>
        <time>2026-08-14T03:54:52.000Z</time>
      </trkpt>
      <trkpt lat="22.798608" lon="108.699870">
        <ele>109.283169</ele>
        <time>2026-08-14T03:54:53.000Z</time>
      </trkpt>
      <trkpt lat="22.798585" lon="108.699882">
        <ele>109.437242</ele>
        <time>2026-08-14T03:54:54.000Z</time>
      </trkpt>
      <trkpt lat="22.798562" lon="108.699894">
        <ele>109.591314</ele>
        <time>2026-08-14T03:54:55.000Z</time>
      </trkpt>
      <trkpt lat="22.798538" lon="108.699910">
        <ele>109.761373</ele>
        <time>2026-08-14T03:54:56.000Z</time>
      </trkpt>
      <trkpt lat="22.798514" lon="108.699923">
        <ele>109.923317</ele>
        <time>2026-08-14T03:54:57.000Z</time>
      </trkpt>
      <trkpt lat="22.798492" lon="108.699936">
        <ele>110.074554</ele>
        <time>2026-08-14T03:54:58.000Z</time>
      </trkpt>
      <trkpt lat="22.798468" lon="108.699949">
        <ele>110.236497</ele>
        <time>2026-08-14T03:54:59.000Z</time>
      </trkpt>
      <trkpt lat="22.798445" lon="108.699963">
        <ele>110.395711</ele>
        <time>2026-08-14T03:55:00.000Z</time>
      </trkpt>
      <trkpt lat="22.798421" lon="108.699978">
        <ele>110.562923</ele>
        <time>2026-08-14T03:55:01.000Z</time>
      </trkpt>
      <trkpt lat="22.798399" lon="108.699996">
        <ele>110.729276</ele>
        <time>2026-08-14T03:55:02.000Z</time>
      </trkpt>
      <trkpt lat="22.798379" lon="108.700009">
        <ele>110.870029</ele>
        <time>2026-08-14T03:55:03.000Z</time>
      </trkpt>
      <trkpt lat="22.798359" lon="108.700022">
        <ele>111.010783</ele>
        <time>2026-08-14T03:55:04.000Z</time>
      </trkpt>
      <trkpt lat="22.798340" lon="108.700033">
        <ele>111.140797</ele>
        <time>2026-08-14T03:55:05.000Z</time>
      </trkpt>
      <trkpt lat="22.798322" lon="108.700042">
        <ele>111.260448</ele>
        <time>2026-08-14T03:55:06.000Z</time>
      </trkpt>
      <trkpt lat="22.798302" lon="108.700056">
        <ele>111.404141</ele>
        <time>2026-08-14T03:55:07.000Z</time>
      </trkpt>
      <trkpt lat="22.798283" lon="108.700070">
        <ele>111.542800</ele>
        <time>2026-08-14T03:55:08.000Z</time>
      </trkpt>
      <trkpt lat="22.798263" lon="108.700080">
        <ele>111.675746</ele>
        <time>2026-08-14T03:55:09.000Z</time>
      </trkpt>
      <trkpt lat="22.798243" lon="108.700092">
        <ele>111.813722</ele>
        <time>2026-08-14T03:55:10.000Z</time>
      </trkpt>
      <trkpt lat="22.798225" lon="108.700101">
        <ele>111.933372</ele>
        <time>2026-08-14T03:55:11.000Z</time>
      </trkpt>
      <trkpt lat="22.798203" lon="108.700121">
        <ele>112.106656</ele>
        <time>2026-08-14T03:55:12.000Z</time>
      </trkpt>
      <trkpt lat="22.798181" lon="108.700133">
        <ele>112.255312</ele>
        <time>2026-08-14T03:55:13.000Z</time>
      </trkpt>
      <trkpt lat="22.798161" lon="108.700148">
        <ele>112.402097</ele>
        <time>2026-08-14T03:55:14.000Z</time>
      </trkpt>
      <trkpt lat="22.798140" lon="108.700157">
        <ele>112.538406</ele>
        <time>2026-08-14T03:55:15.000Z</time>
      </trkpt>
      <trkpt lat="22.798120" lon="108.700169">
        <ele>112.676382</ele>
        <time>2026-08-14T03:55:16.000Z</time>
      </trkpt>
      <trkpt lat="22.798101" lon="108.700177">
        <ele>112.799420</ele>
        <time>2026-08-14T03:55:17.000Z</time>
      </trkpt>
      <trkpt lat="22.798081" lon="108.700188">
        <ele>112.934789</ele>
        <time>2026-08-14T03:55:18.000Z</time>
      </trkpt>
      <trkpt lat="22.798061" lon="108.700192">
        <ele>113.057561</ele>
        <time>2026-08-14T03:55:19.000Z</time>
      </trkpt>
      <trkpt lat="22.798040" lon="108.700201">
        <ele>113.193870</ele>
        <time>2026-08-14T03:55:20.000Z</time>
      </trkpt>
      <trkpt lat="22.798019" lon="108.700208">
        <ele>113.326494</ele>
        <time>2026-08-14T03:55:21.000Z</time>
      </trkpt>
      <trkpt lat="22.797998" lon="108.700215">
        <ele>113.459118</ele>
        <time>2026-08-14T03:55:22.000Z</time>
      </trkpt>
      <trkpt lat="22.797975" lon="108.700221">
        <ele>113.601924</ele>
        <time>2026-08-14T03:55:23.000Z</time>
      </trkpt>
      <trkpt lat="22.797953" lon="108.700228">
        <ele>113.740330</ele>
        <time>2026-08-14T03:55:24.000Z</time>
      </trkpt>
      <trkpt lat="22.797932" lon="108.700237">
        <ele>113.876639</ele>
        <time>2026-08-14T03:55:25.000Z</time>
      </trkpt>
      <trkpt lat="22.797912" lon="108.700246">
        <ele>114.007353</ele>
        <time>2026-08-14T03:55:26.000Z</time>
      </trkpt>
      <trkpt lat="22.797891" lon="108.700254">
        <ele>114.141717</ele>
        <time>2026-08-14T03:55:27.000Z</time>
      </trkpt>
      <trkpt lat="22.797873" lon="108.700262">
        <ele>114.259147</ele>
        <time>2026-08-14T03:55:28.000Z</time>
      </trkpt>
      <trkpt lat="22.797853" lon="108.700267">
        <ele>114.383049</ele>
        <time>2026-08-14T03:55:29.000Z</time>
      </trkpt>
      <trkpt lat="22.797838" lon="108.700272">
        <ele>114.477781</ele>
        <time>2026-08-14T03:55:30.000Z</time>
      </trkpt>
      <trkpt lat="22.797823" lon="108.700278">
        <ele>114.574293</ele>
        <time>2026-08-14T03:55:31.000Z</time>
      </trkpt>
      <trkpt lat="22.797807" lon="108.700283">
        <ele>114.674811</ele>
        <time>2026-08-14T03:55:32.000Z</time>
      </trkpt>
      <trkpt lat="22.797788" lon="108.700284">
        <ele>114.789646</ele>
        <time>2026-08-14T03:55:33.000Z</time>
      </trkpt>
      <trkpt lat="22.797768" lon="108.700293">
        <ele>114.920360</ele>
        <time>2026-08-14T03:55:34.000Z</time>
      </trkpt>
      <trkpt lat="22.797750" lon="108.700301">
        <ele>115.037790</ele>
        <time>2026-08-14T03:55:35.000Z</time>
      </trkpt>
      <trkpt lat="22.797730" lon="108.700306">
        <ele>115.161691</ele>
        <time>2026-08-14T03:55:36.000Z</time>
      </trkpt>
      <trkpt lat="22.797712" lon="108.700305">
        <ele>115.270497</ele>
        <time>2026-08-14T03:55:37.000Z</time>
      </trkpt>
      <trkpt lat="22.797697" lon="108.700318">
        <ele>115.386402</ele>
        <time>2026-08-14T03:55:38.000Z</time>
      </trkpt>
      <trkpt lat="22.797684" lon="108.700315">
        <ele>115.466637</ele>
        <time>2026-08-14T03:55:39.000Z</time>
      </trkpt>
      <trkpt lat="22.797667" lon="108.700316">
        <ele>115.569414</ele>
        <time>2026-08-14T03:55:40.000Z</time>
      </trkpt>
      <trkpt lat="22.797650" lon="108.700318">
        <ele>115.672642</ele>
        <time>2026-08-14T03:55:41.000Z</time>
      </trkpt>
      <trkpt lat="22.797632" lon="108.700323">
        <ele>115.784811</ele>
        <time>2026-08-14T03:55:42.000Z</time>
      </trkpt>
      <trkpt lat="22.797614" lon="108.700326">
        <ele>115.894750</ele>
        <time>2026-08-14T03:55:43.000Z</time>
      </trkpt>
      <trkpt lat="22.797596" lon="108.700329">
        <ele>116.004688</ele>
        <time>2026-08-14T03:55:44.000Z</time>
      </trkpt>
      <trkpt lat="22.797576" lon="108.700335">
        <ele>116.129957</ele>
        <time>2026-08-14T03:55:45.000Z</time>
      </trkpt>
      <trkpt lat="22.797559" lon="108.700342">
        <ele>116.239728</ele>
        <time>2026-08-14T03:55:46.000Z</time>
      </trkpt>
      <trkpt lat="22.797540" lon="108.700348">
        <ele>116.359190</ele>
        <time>2026-08-14T03:55:47.000Z</time>
      </trkpt>
      <trkpt lat="22.797517" lon="108.700359">
        <ele>116.510933</ele>
        <time>2026-08-14T03:55:48.000Z</time>
      </trkpt>
      <trkpt lat="22.797498" lon="108.700366">
        <ele>116.632068</ele>
        <time>2026-08-14T03:55:49.000Z</time>
      </trkpt>
      <trkpt lat="22.797476" lon="108.700369">
        <ele>116.765924</ele>
        <time>2026-08-14T03:55:50.000Z</time>
      </trkpt>
      <trkpt lat="22.797456" lon="108.700373">
        <ele>116.888696</ele>
        <time>2026-08-14T03:55:51.000Z</time>
      </trkpt>
      <trkpt lat="22.797434" lon="108.700380">
        <ele>117.027102</ele>
        <time>2026-08-14T03:55:52.000Z</time>
      </trkpt>
      <trkpt lat="22.797415" lon="108.700380">
        <ele>117.141802</ele>
        <time>2026-08-14T03:55:53.000Z</time>
      </trkpt>
      <trkpt lat="22.797389" lon="108.700386">
        <ele>117.302272</ele>
        <time>2026-08-14T03:55:54.000Z</time>
      </trkpt>
      <trkpt lat="22.797368" lon="108.700387">
        <ele>117.429167</ele>
        <time>2026-08-14T03:55:55.000Z</time>
      </trkpt>
      <trkpt lat="22.797346" lon="108.700392">
        <ele>117.564862</ele>
        <time>2026-08-14T03:55:56.000Z</time>
      </trkpt>
      <trkpt lat="22.797326" lon="108.700396">
        <ele>117.678410</ele>
        <time>2026-08-14T03:55:57.000Z</time>
      </trkpt>
      <trkpt lat="22.797305" lon="108.700401">
        <ele>117.790138</ele>
        <time>2026-08-14T03:55:58.000Z</time>
      </trkpt>
      <trkpt lat="22.797283" lon="108.700404">
        <ele>117.905366</ele>
        <time>2026-08-14T03:55:59.000Z</time>
      </trkpt>
      <trkpt lat="22.797263" lon="108.700404">
        <ele>118.009300</ele>
        <time>2026-08-14T03:56:00.000Z</time>
      </trkpt>
      <trkpt lat="22.797239" lon="108.700400">
        <ele>118.135485</ele>
        <time>2026-08-14T03:56:01.000Z</time>
      </trkpt>
      <trkpt lat="22.797218" lon="108.700402">
        <ele>118.245035</ele>
        <time>2026-08-14T03:56:02.000Z</time>
      </trkpt>
      <trkpt lat="22.797196" lon="108.700411">
        <ele>118.367223</ele>
        <time>2026-08-14T03:56:03.000Z</time>
      </trkpt>
      <trkpt lat="22.797171" lon="108.700414">
        <ele>118.497933</ele>
        <time>2026-08-14T03:56:04.000Z</time>
      </trkpt>
      <trkpt lat="22.797146" lon="108.700422">
        <ele>118.633386</ele>
        <time>2026-08-14T03:56:05.000Z</time>
      </trkpt>
      <trkpt lat="22.797123" lon="108.700425">
        <ele>118.753771</ele>
        <time>2026-08-14T03:56:06.000Z</time>
      </trkpt>
      <trkpt lat="22.797107" lon="108.700438">
        <ele>118.857657</ele>
        <time>2026-08-14T03:56:07.000Z</time>
      </trkpt>
      <trkpt lat="22.797084" lon="108.700451">
        <ele>118.992434</ele>
        <time>2026-08-14T03:56:08.000Z</time>
      </trkpt>
      <trkpt lat="22.797063" lon="108.700465">
        <ele>119.120528</ele>
        <time>2026-08-14T03:56:09.000Z</time>
      </trkpt>
      <trkpt lat="22.797035" lon="108.700477">
        <ele>119.276981</ele>
        <time>2026-08-14T03:56:10.000Z</time>
      </trkpt>
      <trkpt lat="22.797016" lon="108.700488">
        <ele>119.388901</ele>
        <time>2026-08-14T03:56:11.000Z</time>
      </trkpt>
      <trkpt lat="22.796989" lon="108.700498">
        <ele>119.537165</ele>
        <time>2026-08-14T03:56:12.000Z</time>
      </trkpt>
      <trkpt lat="22.796965" lon="108.700511">
        <ele>119.676572</ele>
        <time>2026-08-14T03:56:13.000Z</time>
      </trkpt>
      <trkpt lat="22.796941" lon="108.700525">
        <ele>119.818183</ele>
        <time>2026-08-14T03:56:14.000Z</time>
      </trkpt>
      <trkpt lat="22.796920" lon="108.700535">
        <ele>119.937366</ele>
        <time>2026-08-14T03:56:15.000Z</time>
      </trkpt>
      <trkpt lat="22.796895" lon="108.700548">
        <ele>120.081441</ele>
        <time>2026-08-14T03:56:16.000Z</time>
      </trkpt>
      <trkpt lat="22.796874" lon="108.700565">
        <ele>120.217611</ele>
        <time>2026-08-14T03:56:17.000Z</time>
      </trkpt>
      <trkpt lat="22.796853" lon="108.700576">
        <ele>120.338800</ele>
        <time>2026-08-14T03:56:18.000Z</time>
      </trkpt>
      <trkpt lat="22.796834" lon="108.700587">
        <ele>120.450721</ele>
        <time>2026-08-14T03:56:19.000Z</time>
      </trkpt>
      <trkpt lat="22.796813" lon="108.700601">
        <ele>120.578814</ele>
        <time>2026-08-14T03:56:20.000Z</time>
      </trkpt>
      <trkpt lat="22.796794" lon="108.700616">
        <ele>120.700934</ele>
        <time>2026-08-14T03:56:21.000Z</time>
      </trkpt>
      <trkpt lat="22.796774" lon="108.700636">
        <ele>120.842295</ele>
        <time>2026-08-14T03:56:22.000Z</time>
      </trkpt>
      <trkpt lat="22.796753" lon="108.700656">
        <ele>120.987519</ele>
        <time>2026-08-14T03:56:23.000Z</time>
      </trkpt>
      <trkpt lat="22.796734" lon="108.700678">
        <ele>121.131940</ele>
        <time>2026-08-14T03:56:24.000Z</time>
      </trkpt>
      <trkpt lat="22.796720" lon="108.700701">
        <ele>121.263980</ele>
        <time>2026-08-14T03:56:25.000Z</time>
      </trkpt>
      <trkpt lat="22.796703" lon="108.700723">
        <ele>121.401505</ele>
        <time>2026-08-14T03:56:26.000Z</time>
      </trkpt>
      <trkpt lat="22.796684" lon="108.700747">
        <ele>121.553061</ele>
        <time>2026-08-14T03:56:27.000Z</time>
      </trkpt>
      <trkpt lat="22.796669" lon="108.700768">
        <ele>121.680332</ele>
        <time>2026-08-14T03:56:28.000Z</time>
      </trkpt>
      <trkpt lat="22.796653" lon="108.700789">
        <ele>121.810850</ele>
        <time>2026-08-14T03:56:29.000Z</time>
      </trkpt>
      <trkpt lat="22.796637" lon="108.700809">
        <ele>121.937713</ele>
        <time>2026-08-14T03:56:30.000Z</time>
      </trkpt>
      <trkpt lat="22.796623" lon="108.700831">
        <ele>122.065782</ele>
        <time>2026-08-14T03:56:31.000Z</time>
      </trkpt>
      <trkpt lat="22.796608" lon="108.700854">
        <ele>122.200754</ele>
        <time>2026-08-14T03:56:32.000Z</time>
      </trkpt>
      <trkpt lat="22.796596" lon="108.700878">
        <ele>122.331555</ele>
        <time>2026-08-14T03:56:33.000Z</time>
      </trkpt>
      <trkpt lat="22.796586" lon="108.700906">
        <ele>122.475411</ele>
        <time>2026-08-14T03:56:34.000Z</time>
      </trkpt>
      <trkpt lat="22.796573" lon="108.700931">
        <ele>122.612920</ele>
        <time>2026-08-14T03:56:35.000Z</time>
      </trkpt>
      <trkpt lat="22.796560" lon="108.700957">
        <ele>122.754621</ele>
        <time>2026-08-14T03:56:36.000Z</time>
      </trkpt>
      <trkpt lat="22.796549" lon="108.700982">
        <ele>122.887333</ele>
        <time>2026-08-14T03:56:37.000Z</time>
      </trkpt>
      <trkpt lat="22.796538" lon="108.701007">
        <ele>123.020044</ele>
        <time>2026-08-14T03:56:38.000Z</time>
      </trkpt>
      <trkpt lat="22.796526" lon="108.701032">
        <ele>123.155076</ele>
        <time>2026-08-14T03:56:39.000Z</time>
      </trkpt>
      <trkpt lat="22.796512" lon="108.701057">
        <ele>123.295211</ele>
        <time>2026-08-14T03:56:40.000Z</time>
      </trkpt>
      <trkpt lat="22.796503" lon="108.701080">
        <ele>123.414914</ele>
        <time>2026-08-14T03:56:41.000Z</time>
      </trkpt>
      <trkpt lat="22.796488" lon="108.701104">
        <ele>123.553825</ele>
        <time>2026-08-14T03:56:42.000Z</time>
      </trkpt>
      <trkpt lat="22.796476" lon="108.701129">
        <ele>123.688857</ele>
        <time>2026-08-14T03:56:43.000Z</time>
      </trkpt>
      <trkpt lat="22.796460" lon="108.701149">
        <ele>123.815720</ele>
        <time>2026-08-14T03:56:44.000Z</time>
      </trkpt>
      <trkpt lat="22.796444" lon="108.701174">
        <ele>123.961521</ele>
        <time>2026-08-14T03:56:45.000Z</time>
      </trkpt>
      <trkpt lat="22.796430" lon="108.701195">
        <ele>124.085678</ele>
        <time>2026-08-14T03:56:46.000Z</time>
      </trkpt>
      <trkpt lat="22.796415" lon="108.701218">
        <ele>124.220650</ele>
        <time>2026-08-14T03:56:47.000Z</time>
      </trkpt>
      <trkpt lat="22.796401" lon="108.701242">
        <ele>124.356714</ele>
        <time>2026-08-14T03:56:48.000Z</time>
      </trkpt>
      <trkpt lat="22.796386" lon="108.701266">
        <ele>124.495625</ele>
        <time>2026-08-14T03:56:49.000Z</time>
      </trkpt>
      <trkpt lat="22.796371" lon="108.701287">
        <ele>124.622896</ele>
        <time>2026-08-14T03:56:50.000Z</time>
      </trkpt>
      <trkpt lat="22.796352" lon="108.701305">
        <ele>124.753989</ele>
        <time>2026-08-14T03:56:51.000Z</time>
      </trkpt>
      <trkpt lat="22.796334" lon="108.701326">
        <ele>124.891363</ele>
        <time>2026-08-14T03:56:52.000Z</time>
      </trkpt>
      <trkpt lat="22.796317" lon="108.701345">
        <ele>125.018210</ele>
        <time>2026-08-14T03:56:53.000Z</time>
      </trkpt>
      <trkpt lat="22.796298" lon="108.701364">
        <ele>125.152503</ele>
        <time>2026-08-14T03:56:54.000Z</time>
      </trkpt>
      <trkpt lat="22.796280" lon="108.701383">
        <ele>125.283023</ele>
        <time>2026-08-14T03:56:55.000Z</time>
      </trkpt>
      <trkpt lat="22.796260" lon="108.701401">
        <ele>125.418073</ele>
        <time>2026-08-14T03:56:56.000Z</time>
      </trkpt>
      <trkpt lat="22.796239" lon="108.701418">
        <ele>125.554244</ele>
        <time>2026-08-14T03:56:57.000Z</time>
      </trkpt>
      <trkpt lat="22.796216" lon="108.701435">
        <ele>125.698879</ele>
        <time>2026-08-14T03:56:58.000Z</time>
      </trkpt>
      <trkpt lat="22.796194" lon="108.701446">
        <ele>125.824767</ele>
        <time>2026-08-14T03:56:59.000Z</time>
      </trkpt>
      <trkpt lat="22.796170" lon="108.701457">
        <ele>125.960165</ele>
        <time>2026-08-14T03:57:00.000Z</time>
      </trkpt>
      <trkpt lat="22.796151" lon="108.701461">
        <ele>126.060744</ele>
        <time>2026-08-14T03:57:01.000Z</time>
      </trkpt>
      <trkpt lat="22.796127" lon="108.701467">
        <ele>126.188735</ele>
        <time>2026-08-14T03:57:02.000Z</time>
      </trkpt>
      <trkpt lat="22.796103" lon="108.701469">
        <ele>126.313823</ele>
        <time>2026-08-14T03:57:03.000Z</time>
      </trkpt>
      <trkpt lat="22.796080" lon="108.701465">
        <ele>126.434874</ele>
        <time>2026-08-14T03:57:04.000Z</time>
      </trkpt>
      <trkpt lat="22.796059" lon="108.701469">
        <ele>126.545675</ele>
        <time>2026-08-14T03:57:05.000Z</time>
      </trkpt>
      <trkpt lat="22.796034" lon="108.701475">
        <ele>126.678734</ele>
        <time>2026-08-14T03:57:06.000Z</time>
      </trkpt>
      <trkpt lat="22.796013" lon="108.701487">
        <ele>126.802082</ele>
        <time>2026-08-14T03:57:07.000Z</time>
      </trkpt>
      <trkpt lat="22.795990" lon="108.701495">
        <ele>126.927600</ele>
        <time>2026-08-14T03:57:08.000Z</time>
      </trkpt>
      <trkpt lat="22.795966" lon="108.701502">
        <ele>127.055168</ele>
        <time>2026-08-14T03:57:09.000Z</time>
      </trkpt>
      <trkpt lat="22.795943" lon="108.701504">
        <ele>127.172928</ele>
        <time>2026-08-14T03:57:10.000Z</time>
      </trkpt>
      <trkpt lat="22.795919" lon="108.701506">
        <ele>127.295776</ele>
        <time>2026-08-14T03:57:11.000Z</time>
      </trkpt>
      <trkpt lat="22.795894" lon="108.701508">
        <ele>127.423713</ele>
        <time>2026-08-14T03:57:12.000Z</time>
      </trkpt>
      <trkpt lat="22.795869" lon="108.701510">
        <ele>127.551650</ele>
        <time>2026-08-14T03:57:13.000Z</time>
      </trkpt>
      <trkpt lat="22.795846" lon="108.701508">
        <ele>127.669409</ele>
        <time>2026-08-14T03:57:14.000Z</time>
      </trkpt>
      <trkpt lat="22.795819" lon="108.701511">
        <ele>127.807928</ele>
        <time>2026-08-14T03:57:15.000Z</time>
      </trkpt>
      <trkpt lat="22.795799" lon="108.701501">
        <ele>127.920322</ele>
        <time>2026-08-14T03:57:16.000Z</time>
      </trkpt>
      <trkpt lat="22.795780" lon="108.701486">
        <ele>128.040254</ele>
        <time>2026-08-14T03:57:17.000Z</time>
      </trkpt>
      <trkpt lat="22.795760" lon="108.701479">
        <ele>128.147509</ele>
        <time>2026-08-14T03:57:18.000Z</time>
      </trkpt>
      <trkpt lat="22.795747" lon="108.701457">
        <ele>128.270456</ele>
        <time>2026-08-14T03:57:19.000Z</time>
      </trkpt>
      <trkpt lat="22.795725" lon="108.701450">
        <ele>128.387467</ele>
        <time>2026-08-14T03:57:20.000Z</time>
      </trkpt>
      <trkpt lat="22.795704" lon="108.701466">
        <ele>128.518439</ele>
        <time>2026-08-14T03:57:21.000Z</time>
      </trkpt>
      <trkpt lat="22.795673" lon="108.701474">
        <ele>128.681067</ele>
        <time>2026-08-14T03:57:22.000Z</time>
      </trkpt>
      <trkpt lat="22.795645" lon="108.701479">
        <ele>128.825892</ele>
        <time>2026-08-14T03:57:23.000Z</time>
      </trkpt>
      <trkpt lat="22.795611" lon="108.701496">
        <ele>129.016962</ele>
        <time>2026-08-14T03:57:24.000Z</time>
      </trkpt>
      <trkpt lat="22.795581" lon="108.701509">
        <ele>129.181835</ele>
        <time>2026-08-14T03:57:25.000Z</time>
      </trkpt>
      <trkpt lat="22.795553" lon="108.701516">
        <ele>129.328483</ele>
        <time>2026-08-14T03:57:26.000Z</time>
      </trkpt>
      <trkpt lat="22.795525" lon="108.701523">
        <ele>129.475130</ele>
        <time>2026-08-14T03:57:27.000Z</time>
      </trkpt>
      <trkpt lat="22.795501" lon="108.701524">
        <ele>129.597707</ele>
        <time>2026-08-14T03:57:28.000Z</time>
      </trkpt>
      <trkpt lat="22.795472" lon="108.701534">
        <ele>129.753011</ele>
        <time>2026-08-14T03:57:29.000Z</time>
      </trkpt>
      <trkpt lat="22.795442" lon="108.701543">
        <ele>129.911867</ele>
        <time>2026-08-14T03:57:30.000Z</time>
      </trkpt>
      <trkpt lat="22.795414" lon="108.701545">
        <ele>130.055078</ele>
        <time>2026-08-14T03:57:31.000Z</time>
      </trkpt>
      <trkpt lat="22.795387" lon="108.701548">
        <ele>130.193597</ele>
        <time>2026-08-14T03:57:32.000Z</time>
      </trkpt>
      <trkpt lat="22.795353" lon="108.701556">
        <ele>130.371155</ele>
        <time>2026-08-14T03:57:33.000Z</time>
      </trkpt>
      <trkpt lat="22.795325" lon="108.701558">
        <ele>130.514366</ele>
        <time>2026-08-14T03:57:34.000Z</time>
      </trkpt>
      <trkpt lat="22.795296" lon="108.701565">
        <ele>130.665991</ele>
        <time>2026-08-14T03:57:35.000Z</time>
      </trkpt>
      <trkpt lat="22.795268" lon="108.701567">
        <ele>130.809201</ele>
        <time>2026-08-14T03:57:36.000Z</time>
      </trkpt>
      <trkpt lat="22.795237" lon="108.701570">
        <ele>130.968042</ele>
        <time>2026-08-14T03:57:37.000Z</time>
      </trkpt>
      <trkpt lat="22.795212" lon="108.701575">
        <ele>131.097783</ele>
        <time>2026-08-14T03:57:38.000Z</time>
      </trkpt>
      <trkpt lat="22.795186" lon="108.701575">
        <ele>131.230477</ele>
        <time>2026-08-14T03:57:39.000Z</time>
      </trkpt>
      <trkpt lat="22.795158" lon="108.701579">
        <ele>131.374612</ele>
        <time>2026-08-14T03:57:40.000Z</time>
      </trkpt>
      <trkpt lat="22.795133" lon="108.701578">
        <ele>131.502289</ele>
        <time>2026-08-14T03:57:41.000Z</time>
      </trkpt>
      <trkpt lat="22.795107" lon="108.701580">
        <ele>131.635317</ele>
        <time>2026-08-14T03:57:42.000Z</time>
      </trkpt>
      <trkpt lat="22.795082" lon="108.701584">
        <ele>131.764288</ele>
        <time>2026-08-14T03:57:43.000Z</time>
      </trkpt>
      <trkpt lat="22.795058" lon="108.701587">
        <ele>131.887585</ele>
        <time>2026-08-14T03:57:44.000Z</time>
      </trkpt>
      <trkpt lat="22.795038" lon="108.701589">
        <ele>131.990090</ele>
        <time>2026-08-14T03:57:45.000Z</time>
      </trkpt>
      <trkpt lat="22.795016" lon="108.701595">
        <ele>132.105864</ele>
        <time>2026-08-14T03:57:46.000Z</time>
      </trkpt>
      <trkpt lat="22.794995" lon="108.701599">
        <ele>132.214680</ele>
        <time>2026-08-14T03:57:47.000Z</time>
      </trkpt>
      <trkpt lat="22.794976" lon="108.701601">
        <ele>132.312104</ele>
        <time>2026-08-14T03:57:48.000Z</time>
      </trkpt>
      <trkpt lat="22.794954" lon="108.701604">
        <ele>132.425268</ele>
        <time>2026-08-14T03:57:49.000Z</time>
      </trkpt>
      <trkpt lat="22.794933" lon="108.701608">
        <ele>132.534083</ele>
        <time>2026-08-14T03:57:50.000Z</time>
      </trkpt>
      <trkpt lat="22.794909" lon="108.701613">
        <ele>132.658809</ele>
        <time>2026-08-14T03:57:51.000Z</time>
      </trkpt>
      <trkpt lat="22.794888" lon="108.701619">
        <ele>132.769640</ele>
        <time>2026-08-14T03:57:52.000Z</time>
      </trkpt>
      <trkpt lat="22.794869" lon="108.701628">
        <ele>132.875452</ele>
        <time>2026-08-14T03:57:53.000Z</time>
      </trkpt>
      <trkpt lat="22.794847" lon="108.701633">
        <ele>132.990169</ele>
        <time>2026-08-14T03:57:54.000Z</time>
      </trkpt>
      <trkpt lat="22.794824" lon="108.701638">
        <ele>133.109887</ele>
        <time>2026-08-14T03:57:55.000Z</time>
      </trkpt>
      <trkpt lat="22.794799" lon="108.701642">
        <ele>133.238858</ele>
        <time>2026-08-14T03:57:56.000Z</time>
      </trkpt>
      <trkpt lat="22.794778" lon="108.701644">
        <ele>133.346446</ele>
        <time>2026-08-14T03:57:57.000Z</time>
      </trkpt>
      <trkpt lat="22.794759" lon="108.701646">
        <ele>133.443870</ele>
        <time>2026-08-14T03:57:58.000Z</time>
      </trkpt>
      <trkpt lat="22.794739" lon="108.701645">
        <ele>133.546051</ele>
        <time>2026-08-14T03:57:59.000Z</time>
      </trkpt>
      <trkpt lat="22.794719" lon="108.701647">
        <ele>133.648556</ele>
        <time>2026-08-14T03:58:00.000Z</time>
      </trkpt>
      <trkpt lat="22.794697" lon="108.701647">
        <ele>133.760836</ele>
        <time>2026-08-14T03:58:01.000Z</time>
      </trkpt>
      <trkpt lat="22.794677" lon="108.701650">
        <ele>133.863879</ele>
        <time>2026-08-14T03:58:02.000Z</time>
      </trkpt>
      <trkpt lat="22.794655" lon="108.701658">
        <ele>133.982300</ele>
        <time>2026-08-14T03:58:03.000Z</time>
      </trkpt>
      <trkpt lat="22.794634" lon="108.701665">
        <ele>134.094422</ele>
        <time>2026-08-14T03:58:04.000Z</time>
      </trkpt>
      <trkpt lat="22.794611" lon="108.701671">
        <ele>134.215152</ele>
        <time>2026-08-14T03:58:05.000Z</time>
      </trkpt>
      <trkpt lat="22.794589" lon="108.701675">
        <ele>134.328998</ele>
        <time>2026-08-14T03:58:06.000Z</time>
      </trkpt>
      <trkpt lat="22.794566" lon="108.701676">
        <ele>134.446476</ele>
        <time>2026-08-14T03:58:07.000Z</time>
      </trkpt>
      <trkpt lat="22.794543" lon="108.701680">
        <ele>134.565358</ele>
        <time>2026-08-14T03:58:08.000Z</time>
      </trkpt>
      <trkpt lat="22.794519" lon="108.701684">
        <ele>134.689282</ele>
        <time>2026-08-14T03:58:09.000Z</time>
      </trkpt>
      <trkpt lat="22.794494" lon="108.701689">
        <ele>134.819023</ele>
        <time>2026-08-14T03:58:10.000Z</time>
      </trkpt>
      <trkpt lat="22.794471" lon="108.701694">
        <ele>134.938741</ele>
        <time>2026-08-14T03:58:11.000Z</time>
      </trkpt>
      <trkpt lat="22.794447" lon="108.701699">
        <ele>135.063466</ele>
        <time>2026-08-14T03:58:12.000Z</time>
      </trkpt>
      <trkpt lat="22.794425" lon="108.701701">
        <ele>135.176139</ele>
        <time>2026-08-14T03:58:13.000Z</time>
      </trkpt>
      <trkpt lat="22.794402" lon="108.701704">
        <ele>135.294368</ele>
        <time>2026-08-14T03:58:14.000Z</time>
      </trkpt>
      <trkpt lat="22.794380" lon="108.701711">
        <ele>135.411379</ele>
        <time>2026-08-14T03:58:15.000Z</time>
      </trkpt>
      <trkpt lat="22.794358" lon="108.701716">
        <ele>135.526096</ele>
        <time>2026-08-14T03:58:16.000Z</time>
      </trkpt>
      <trkpt lat="22.794336" lon="108.701720">
        <ele>135.639942</ele>
        <time>2026-08-14T03:58:17.000Z</time>
      </trkpt>
      <trkpt lat="22.794313" lon="108.701724">
        <ele>135.758824</ele>
        <time>2026-08-14T03:58:18.000Z</time>
      </trkpt>
      <trkpt lat="22.794290" lon="108.701729">
        <ele>135.878542</ele>
        <time>2026-08-14T03:58:19.000Z</time>
      </trkpt>
      <trkpt lat="22.794267" lon="108.701733">
        <ele>135.997424</ele>
        <time>2026-08-14T03:58:20.000Z</time>
      </trkpt>
      <trkpt lat="22.794243" lon="108.701737">
        <ele>136.121348</ele>
        <time>2026-08-14T03:58:21.000Z</time>
      </trkpt>
      <trkpt lat="22.794220" lon="108.701740">
        <ele>136.231075</ele>
        <time>2026-08-14T03:58:22.000Z</time>
      </trkpt>
      <trkpt lat="22.794196" lon="108.701744">
        <ele>136.343499</ele>
        <time>2026-08-14T03:58:23.000Z</time>
      </trkpt>
      <trkpt lat="22.794173" lon="108.701746">
        <ele>136.450330</ele>
        <time>2026-08-14T03:58:24.000Z</time>
      </trkpt>
      <trkpt lat="22.794149" lon="108.701748">
        <ele>136.561777</ele>
        <time>2026-08-14T03:58:25.000Z</time>
      </trkpt>
      <trkpt lat="22.794127" lon="108.701750">
        <ele>136.663994</ele>
        <time>2026-08-14T03:58:26.000Z</time>
      </trkpt>
      <trkpt lat="22.794104" lon="108.701752">
        <ele>136.770825</ele>
        <time>2026-08-14T03:58:27.000Z</time>
      </trkpt>
      <trkpt lat="22.794080" lon="108.701752">
        <ele>136.881945</ele>
        <time>2026-08-14T03:58:28.000Z</time>
      </trkpt>
      <trkpt lat="22.794056" lon="108.701753">
        <ele>136.993146</ele>
        <time>2026-08-14T03:58:29.000Z</time>
      </trkpt>
      <trkpt lat="22.794033" lon="108.701754">
        <ele>137.099721</ele>
        <time>2026-08-14T03:58:30.000Z</time>
      </trkpt>
      <trkpt lat="22.794011" lon="108.701755">
        <ele>137.201670</ele>
        <time>2026-08-14T03:58:31.000Z</time>
      </trkpt>
      <trkpt lat="22.793989" lon="108.701755">
        <ele>137.303530</ele>
        <time>2026-08-14T03:58:32.000Z</time>
      </trkpt>
      <trkpt lat="22.793967" lon="108.701755">
        <ele>137.405390</ele>
        <time>2026-08-14T03:58:33.000Z</time>
      </trkpt>
      <trkpt lat="22.793944" lon="108.701756">
        <ele>137.511965</ele>
        <time>2026-08-14T03:58:34.000Z</time>
      </trkpt>
      <trkpt lat="22.793922" lon="108.701754">
        <ele>137.614182</ele>
        <time>2026-08-14T03:58:35.000Z</time>
      </trkpt>
      <trkpt lat="22.793899" lon="108.701754">
        <ele>137.720671</ele>
        <time>2026-08-14T03:58:36.000Z</time>
      </trkpt>
      <trkpt lat="22.793875" lon="108.701752">
        <ele>137.832118</ele>
        <time>2026-08-14T03:58:37.000Z</time>
      </trkpt>
      <trkpt lat="22.793853" lon="108.701747">
        <ele>137.936190</ele>
        <time>2026-08-14T03:58:38.000Z</time>
      </trkpt>
      <trkpt lat="22.793829" lon="108.701742">
        <ele>138.049340</ele>
        <time>2026-08-14T03:58:39.000Z</time>
      </trkpt>
      <trkpt lat="22.793806" lon="108.701739">
        <ele>138.156597</ele>
        <time>2026-08-14T03:58:40.000Z</time>
      </trkpt>
      <trkpt lat="22.793785" lon="108.701736">
        <ele>138.254666</ele>
        <time>2026-08-14T03:58:41.000Z</time>
      </trkpt>
      <trkpt lat="22.793763" lon="108.701732">
        <ele>138.357947</ele>
        <time>2026-08-14T03:58:42.000Z</time>
      </trkpt>
      <trkpt lat="22.793740" lon="108.701727">
        <ele>138.466554</ele>
        <time>2026-08-14T03:58:43.000Z</time>
      </trkpt>
      <trkpt lat="22.793717" lon="108.701720">
        <ele>138.577156</ele>
        <time>2026-08-14T03:58:44.000Z</time>
      </trkpt>
      <trkpt lat="22.793693" lon="108.701714">
        <ele>138.691189</ele>
        <time>2026-08-14T03:58:45.000Z</time>
      </trkpt>
      <trkpt lat="22.793670" lon="108.701707">
        <ele>138.801791</ele>
        <time>2026-08-14T03:58:46.000Z</time>
      </trkpt>
      <trkpt lat="22.793647" lon="108.701701">
        <ele>138.911317</ele>
        <time>2026-08-14T03:58:47.000Z</time>
      </trkpt>
      <trkpt lat="22.793625" lon="108.701694">
        <ele>139.017468</ele>
        <time>2026-08-14T03:58:48.000Z</time>
      </trkpt>
      <trkpt lat="22.793602" lon="108.701686">
        <ele>139.129299</ele>
        <time>2026-08-14T03:58:49.000Z</time>
      </trkpt>
      <trkpt lat="22.793579" lon="108.701678">
        <ele>139.241130</ele>
        <time>2026-08-14T03:58:50.000Z</time>
      </trkpt>
      <trkpt lat="22.793555" lon="108.701670">
        <ele>139.357378</ele>
        <time>2026-08-14T03:58:51.000Z</time>
      </trkpt>
      <trkpt lat="22.793532" lon="108.701660">
        <ele>139.472103</ele>
        <time>2026-08-14T03:58:52.000Z</time>
      </trkpt>
      <trkpt lat="22.793509" lon="108.701650">
        <ele>139.586829</ele>
        <time>2026-08-14T03:58:53.000Z</time>
      </trkpt>
      <trkpt lat="22.793485" lon="108.701640">
        <ele>139.705865</ele>
        <time>2026-08-14T03:58:54.000Z</time>
      </trkpt>
      <trkpt lat="22.793461" lon="108.701628">
        <ele>139.828221</ele>
        <time>2026-08-14T03:58:55.000Z</time>
      </trkpt>
      <trkpt lat="22.793437" lon="108.701617">
        <ele>139.948854</ele>
        <time>2026-08-14T03:58:56.000Z</time>
      </trkpt>
      <trkpt lat="22.793414" lon="108.701606">
        <ele>140.065235</ele>
        <time>2026-08-14T03:58:57.000Z</time>
      </trkpt>
      <trkpt lat="22.793390" lon="108.701594">
        <ele>140.187592</ele>
        <time>2026-08-14T03:58:58.000Z</time>
      </trkpt>
      <trkpt lat="22.793368" lon="108.701583">
        <ele>140.299752</ele>
        <time>2026-08-14T03:58:59.000Z</time>
      </trkpt>
      <trkpt lat="22.793345" lon="108.701570">
        <ele>140.419832</ele>
        <time>2026-08-14T03:59:00.000Z</time>
      </trkpt>
      <trkpt lat="22.793322" lon="108.701558">
        <ele>140.537999</ele>
        <time>2026-08-14T03:59:01.000Z</time>
      </trkpt>
      <trkpt lat="22.793301" lon="108.701544">
        <ele>140.652125</ele>
        <time>2026-08-14T03:59:02.000Z</time>
      </trkpt>
      <trkpt lat="22.793278" lon="108.701529">
        <ele>140.776380</ele>
        <time>2026-08-14T03:59:03.000Z</time>
      </trkpt>
      <trkpt lat="22.793254" lon="108.701513">
        <ele>140.906809</ele>
        <time>2026-08-14T03:59:04.000Z</time>
      </trkpt>
      <trkpt lat="22.793231" lon="108.701498">
        <ele>141.031065</ele>
        <time>2026-08-14T03:59:05.000Z</time>
      </trkpt>
      <trkpt lat="22.793208" lon="108.701483">
        <ele>141.155320</ele>
        <time>2026-08-14T03:59:06.000Z</time>
      </trkpt>
      <trkpt lat="22.793186" lon="108.701466">
        <ele>141.280383</ele>
        <time>2026-08-14T03:59:07.000Z</time>
      </trkpt>
      <trkpt lat="22.793165" lon="108.701449">
        <ele>141.401706</ele>
        <time>2026-08-14T03:59:08.000Z</time>
      </trkpt>
      <trkpt lat="22.793143" lon="108.701432">
        <ele>141.526769</ele>
        <time>2026-08-14T03:59:09.000Z</time>
      </trkpt>
      <trkpt lat="22.793122" lon="108.701416">
        <ele>141.645587</ele>
        <time>2026-08-14T03:59:10.000Z</time>
      </trkpt>
      <trkpt lat="22.793100" lon="108.701399">
        <ele>141.770650</ele>
        <time>2026-08-14T03:59:11.000Z</time>
      </trkpt>
      <trkpt lat="22.793079" lon="108.701381">
        <ele>141.894573</ele>
        <time>2026-08-14T03:59:12.000Z</time>
      </trkpt>
      <trkpt lat="22.793057" lon="108.701362">
        <ele>142.024775</ele>
        <time>2026-08-14T03:59:13.000Z</time>
      </trkpt>
      <trkpt lat="22.793039" lon="108.701344">
        <ele>142.138127</ele>
        <time>2026-08-14T03:59:14.000Z</time>
      </trkpt>
      <trkpt lat="22.793019" lon="108.701325">
        <ele>142.261220</ele>
        <time>2026-08-14T03:59:15.000Z</time>
      </trkpt>
      <trkpt lat="22.792998" lon="108.701304">
        <ele>142.393464</ele>
        <time>2026-08-14T03:59:16.000Z</time>
      </trkpt>
      <trkpt lat="22.792976" lon="108.701285">
        <ele>142.523666</ele>
        <time>2026-08-14T03:59:17.000Z</time>
      </trkpt>
      <trkpt lat="22.792954" lon="108.701263">
        <ele>142.662207</ele>
        <time>2026-08-14T03:59:18.000Z</time>
      </trkpt>
      <trkpt lat="22.792933" lon="108.701241">
        <ele>142.797380</ele>
        <time>2026-08-14T03:59:19.000Z</time>
      </trkpt>
      <trkpt lat="22.792911" lon="108.701219">
        <ele>142.935921</ele>
        <time>2026-08-14T03:59:20.000Z</time>
      </trkpt>
      <trkpt lat="22.792889" lon="108.701198">
        <ele>143.071606</ele>
        <time>2026-08-14T03:59:21.000Z</time>
      </trkpt>
      <trkpt lat="22.792869" lon="108.701176">
        <ele>143.203488</ele>
        <time>2026-08-14T03:59:22.000Z</time>
      </trkpt>
      <trkpt lat="22.792847" lon="108.701154">
        <ele>143.342029</ele>
        <time>2026-08-14T03:59:23.000Z</time>
      </trkpt>
      <trkpt lat="22.792826" lon="108.701128">
        <ele>143.489576</ele>
        <time>2026-08-14T03:59:24.000Z</time>
      </trkpt>
      <trkpt lat="22.792805" lon="108.701105">
        <ele>143.627749</ele>
        <time>2026-08-14T03:59:25.000Z</time>
      </trkpt>
      <trkpt lat="22.792782" lon="108.701082">
        <ele>143.772587</ele>
        <time>2026-08-14T03:59:26.000Z</time>
      </trkpt>
      <trkpt lat="22.792757" lon="108.701059">
        <ele>143.924364</ele>
        <time>2026-08-14T03:59:27.000Z</time>
      </trkpt>
      <trkpt lat="22.792732" lon="108.701038">
        <ele>144.070763</ele>
        <time>2026-08-14T03:59:28.000Z</time>
      </trkpt>
      <trkpt lat="22.792707" lon="108.701018">
        <ele>144.214589</ele>
        <time>2026-08-14T03:59:29.000Z</time>
      </trkpt>
      <trkpt lat="22.792682" lon="108.700997">
        <ele>144.360988</ele>
        <time>2026-08-14T03:59:30.000Z</time>
      </trkpt>
      <trkpt lat="22.792657" lon="108.700978">
        <ele>144.486219</ele>
        <time>2026-08-14T03:59:31.000Z</time>
      </trkpt>
      <trkpt lat="22.792631" lon="108.700958">
        <ele>144.544692</ele>
        <time>2026-08-14T03:59:32.000Z</time>
      </trkpt>
      <trkpt lat="22.792605" lon="108.700940">
        <ele>144.601275</ele>
        <time>2026-08-14T03:59:33.000Z</time>
      </trkpt>
      <trkpt lat="22.792578" lon="108.700923">
        <ele>144.658545</ele>
        <time>2026-08-14T03:59:34.000Z</time>
      </trkpt>
      <trkpt lat="22.792549" lon="108.700908">
        <ele>144.717484</ele>
        <time>2026-08-14T03:59:35.000Z</time>
      </trkpt>
      <trkpt lat="22.792518" lon="108.700897">
        <ele>144.777318</ele>
        <time>2026-08-14T03:59:36.000Z</time>
      </trkpt>
      <trkpt lat="22.792489" lon="108.700879">
        <ele>144.838612</ele>
        <time>2026-08-14T03:59:37.000Z</time>
      </trkpt>
      <trkpt lat="22.792461" lon="108.700861">
        <ele>144.898320</ele>
        <time>2026-08-14T03:59:38.000Z</time>
      </trkpt>
      <trkpt lat="22.792432" lon="108.700845">
        <ele>144.958006</ele>
        <time>2026-08-14T03:59:39.000Z</time>
      </trkpt>
      <trkpt lat="22.792402" lon="108.700827">
        <ele>145.020899</ele>
        <time>2026-08-14T03:59:40.000Z</time>
      </trkpt>
      <trkpt lat="22.792372" lon="108.700811">
        <ele>145.082226</ele>
        <time>2026-08-14T03:59:41.000Z</time>
      </trkpt>
      <trkpt lat="22.792340" lon="108.700797">
        <ele>145.145524</ele>
        <time>2026-08-14T03:59:42.000Z</time>
      </trkpt>
      <trkpt lat="22.792305" lon="108.700785">
        <ele>145.212861</ele>
        <time>2026-08-14T03:59:43.000Z</time>
      </trkpt>
      <trkpt lat="22.792272" lon="108.700775">
        <ele>145.275717</ele>
        <time>2026-08-14T03:59:44.000Z</time>
      </trkpt>
      <trkpt lat="22.792238" lon="108.700766">
        <ele>145.339919</ele>
        <time>2026-08-14T03:59:45.000Z</time>
      </trkpt>
      <trkpt lat="22.792203" lon="108.700758">
        <ele>145.405536</ele>
        <time>2026-08-14T03:59:46.000Z</time>
      </trkpt>
      <trkpt lat="22.792169" lon="108.700753">
        <ele>145.468479</ele>
        <time>2026-08-14T03:59:47.000Z</time>
      </trkpt>
      <trkpt lat="22.792134" lon="108.700752">
        <ele>145.532707</ele>
        <time>2026-08-14T03:59:48.000Z</time>
      </trkpt>
      <trkpt lat="22.792100" lon="108.700751">
        <ele>145.595102</ele>
        <time>2026-08-14T03:59:49.000Z</time>
      </trkpt>
      <trkpt lat="22.792067" lon="108.700748">
        <ele>145.655852</ele>
        <time>2026-08-14T03:59:50.000Z</time>
      </trkpt>
      <trkpt lat="22.792036" lon="108.700750">
        <ele>145.712821</ele>
        <time>2026-08-14T03:59:51.000Z</time>
      </trkpt>
      <trkpt lat="22.792004" lon="108.700753">
        <ele>145.771743</ele>
        <time>2026-08-14T03:59:52.000Z</time>
      </trkpt>
      <trkpt lat="22.791973" lon="108.700758">
        <ele>145.829237</ele>
        <time>2026-08-14T03:59:53.000Z</time>
      </trkpt>
      <trkpt lat="22.791944" lon="108.700764">
        <ele>145.883396</ele>
        <time>2026-08-14T03:59:54.000Z</time>
      </trkpt>
      <trkpt lat="22.791914" lon="108.700770">
        <ele>145.939358</ele>
        <time>2026-08-14T03:59:55.000Z</time>
      </trkpt>
      <trkpt lat="22.791884" lon="108.700779">
        <ele>145.996458</ele>
        <time>2026-08-14T03:59:56.000Z</time>
      </trkpt>
      <trkpt lat="22.791853" lon="108.700788">
        <ele>146.055328</ele>
        <time>2026-08-14T03:59:57.000Z</time>
      </trkpt>
      <trkpt lat="22.791825" lon="108.700799">
        <ele>146.109959</ele>
        <time>2026-08-14T03:59:58.000Z</time>
      </trkpt>
      <trkpt lat="22.791794" lon="108.700810">
        <ele>146.169793</ele>
        <time>2026-08-14T03:59:59.000Z</time>
      </trkpt>
      <trkpt lat="22.791763" lon="108.700816">
        <ele>146.227560</ele>
        <time>2026-08-14T04:00:00.000Z</time>
      </trkpt>
      <trkpt lat="22.791734" lon="108.700827">
        <ele>146.283918</ele>
        <time>2026-08-14T04:00:01.000Z</time>
      </trkpt>
      <trkpt lat="22.791702" lon="108.700838">
        <ele>146.345499</ele>
        <time>2026-08-14T04:00:02.000Z</time>
      </trkpt>
      <trkpt lat="22.791670" lon="108.700850">
        <ele>146.407611</ele>
        <time>2026-08-14T04:00:03.000Z</time>
      </trkpt>
      <trkpt lat="22.791642" lon="108.700857">
        <ele>146.460323</ele>
        <time>2026-08-14T04:00:04.000Z</time>
      </trkpt>
      <trkpt lat="22.791610" lon="108.700863">
        <ele>146.519897</ele>
        <time>2026-08-14T04:00:05.000Z</time>
      </trkpt>
      <trkpt lat="22.791581" lon="108.700866">
        <ele>146.573338</ele>
        <time>2026-08-14T04:00:06.000Z</time>
      </trkpt>
      <trkpt lat="22.791555" lon="108.700870">
        <ele>146.621511</ele>
        <time>2026-08-14T04:00:07.000Z</time>
      </trkpt>
      <trkpt lat="22.791525" lon="108.700883">
        <ele>146.680775</ele>
        <time>2026-08-14T04:00:08.000Z</time>
      </trkpt>
      <trkpt lat="22.791496" lon="108.700901">
        <ele>146.742069</ele>
        <time>2026-08-14T04:00:09.000Z</time>
      </trkpt>
      <trkpt lat="22.791467" lon="108.700916">
        <ele>146.801007</ele>
        <time>2026-08-14T04:00:10.000Z</time>
      </trkpt>
      <trkpt lat="22.791437" lon="108.700927">
        <ele>146.859101</ele>
        <time>2026-08-14T04:00:11.000Z</time>
      </trkpt>
      <trkpt lat="22.791407" lon="108.700938">
        <ele>146.917194</ele>
        <time>2026-08-14T04:00:12.000Z</time>
      </trkpt>
      <trkpt lat="22.791375" lon="108.700949">
        <ele>146.978775</ele>
        <time>2026-08-14T04:00:13.000Z</time>
      </trkpt>
      <trkpt lat="22.791344" lon="108.700958">
        <ele>147.037645</ele>
        <time>2026-08-14T04:00:14.000Z</time>
      </trkpt>
      <trkpt lat="22.791316" lon="108.700967">
        <ele>147.091218</ele>
        <time>2026-08-14T04:00:15.000Z</time>
      </trkpt>
      <trkpt lat="22.791286" lon="108.700977">
        <ele>147.148792</ele>
        <time>2026-08-14T04:00:16.000Z</time>
      </trkpt>
      <trkpt lat="22.791255" lon="108.700987">
        <ele>147.208122</ele>
        <time>2026-08-14T04:00:17.000Z</time>
      </trkpt>
      <trkpt lat="22.791221" lon="108.700995">
        <ele>147.271945</ele>
        <time>2026-08-14T04:00:18.000Z</time>
      </trkpt>
      <trkpt lat="22.791186" lon="108.701000">
        <ele>147.336706</ele>
        <time>2026-08-14T04:00:19.000Z</time>
      </trkpt>
      <trkpt lat="22.791152" lon="108.700999">
        <ele>147.399101</ele>
        <time>2026-08-14T04:00:20.000Z</time>
      </trkpt>
      <trkpt lat="22.791116" lon="108.700996">
        <ele>147.465336</ele>
        <time>2026-08-14T04:00:21.000Z</time>
      </trkpt>
      <trkpt lat="22.791079" lon="108.700992">
        <ele>147.533548</ele>
        <time>2026-08-14T04:00:22.000Z</time>
      </trkpt>
      <trkpt lat="22.791042" lon="108.700986">
        <ele>147.602178</ele>
        <time>2026-08-14T04:00:23.000Z</time>
      </trkpt>
      <trkpt lat="22.791003" lon="108.700979">
        <ele>147.674695</ele>
        <time>2026-08-14T04:00:24.000Z</time>
      </trkpt>
      <trkpt lat="22.790965" lon="108.700969">
        <ele>147.746427</ele>
        <time>2026-08-14T04:00:25.000Z</time>
      </trkpt>
      <trkpt lat="22.790929" lon="108.700956">
        <ele>147.696397</ele>
        <time>2026-08-14T04:00:26.000Z</time>
      </trkpt>
      <trkpt lat="22.790895" lon="108.700941">
        <ele>147.566391</ele>
        <time>2026-08-14T04:00:27.000Z</time>
      </trkpt>
      <trkpt lat="22.790857" lon="108.700926">
        <ele>147.423161</ele>
        <time>2026-08-14T04:00:28.000Z</time>
      </trkpt>
      <trkpt lat="22.790821" lon="108.700907">
        <ele>147.281358</ele>
        <time>2026-08-14T04:00:29.000Z</time>
      </trkpt>
      <trkpt lat="22.790786" lon="108.700884">
        <ele>147.136414</ele>
        <time>2026-08-14T04:00:30.000Z</time>
      </trkpt>
      <trkpt lat="22.790749" lon="108.700859">
        <ele>146.982015</ele>
        <time>2026-08-14T04:00:31.000Z</time>
      </trkpt>
      <trkpt lat="22.790711" lon="108.700833">
        <ele>146.822880</ele>
        <time>2026-08-14T04:00:32.000Z</time>
      </trkpt>
      <trkpt lat="22.790671" lon="108.700805">
        <ele>146.654261</ele>
        <time>2026-08-14T04:00:33.000Z</time>
      </trkpt>
      <trkpt lat="22.790631" lon="108.700775">
        <ele>146.482013</ele>
        <time>2026-08-14T04:00:34.000Z</time>
      </trkpt>
      <trkpt lat="22.790590" lon="108.700745">
        <ele>146.306840</ele>
        <time>2026-08-14T04:00:35.000Z</time>
      </trkpt>
      <trkpt lat="22.790542" lon="108.700716">
        <ele>146.112232</ele>
        <time>2026-08-14T04:00:36.000Z</time>
      </trkpt>
      <trkpt lat="22.790491" lon="108.700691">
        <ele>145.914003</ele>
        <time>2026-08-14T04:00:37.000Z</time>
      </trkpt>
      <trkpt lat="22.790437" lon="108.700668">
        <ele>145.708520</ele>
        <time>2026-08-14T04:00:38.000Z</time>
      </trkpt>
      <trkpt lat="22.790380" lon="108.700649">
        <ele>145.497311</ele>
        <time>2026-08-14T04:00:39.000Z</time>
      </trkpt>
      <trkpt lat="22.790319" lon="108.700637">
        <ele>145.277727</ele>
        <time>2026-08-14T04:00:40.000Z</time>
      </trkpt>
      <trkpt lat="22.790255" lon="108.700632">
        <ele>145.050455</ele>
        <time>2026-08-14T04:00:41.000Z</time>
      </trkpt>
      <trkpt lat="22.790188" lon="108.700635">
        <ele>144.812942</ele>
        <time>2026-08-14T04:00:42.000Z</time>
      </trkpt>
      <trkpt lat="22.790123" lon="108.700642">
        <ele>144.581583</ele>
        <time>2026-08-14T04:00:43.000Z</time>
      </trkpt>
      <trkpt lat="22.790061" lon="108.700663">
        <ele>144.351524</ele>
        <time>2026-08-14T04:00:44.000Z</time>
      </trkpt>
      <trkpt lat="22.790000" lon="108.700689">
        <ele>144.119383</ele>
        <time>2026-08-14T04:00:45.000Z</time>
      </trkpt>
      <trkpt lat="22.789943" lon="108.700734">
        <ele>143.869677</ele>
        <time>2026-08-14T04:00:46.000Z</time>
      </trkpt>
      <trkpt lat="22.789890" lon="108.700784">
        <ele>143.620885</ele>
        <time>2026-08-14T04:00:47.000Z</time>
      </trkpt>
      <trkpt lat="22.789842" lon="108.700845">
        <ele>143.359003</ele>
        <time>2026-08-14T04:00:48.000Z</time>
      </trkpt>
      <trkpt lat="22.789797" lon="108.700904">
        <ele>143.108958</ele>
        <time>2026-08-14T04:00:49.000Z</time>
      </trkpt>
      <trkpt lat="22.789753" lon="108.700976">
        <ele>142.826884</ele>
        <time>2026-08-14T04:00:50.000Z</time>
      </trkpt>
      <trkpt lat="22.789713" lon="108.701051">
        <ele>142.543949</ele>
        <time>2026-08-14T04:00:51.000Z</time>
      </trkpt>
      <trkpt lat="22.789676" lon="108.701136">
        <ele>142.237003</ele>
        <time>2026-08-14T04:00:52.000Z</time>
      </trkpt>
      <trkpt lat="22.789626" lon="108.701214">
        <ele>141.926780</ele>
        <time>2026-08-14T04:00:53.000Z</time>
      </trkpt>
      <trkpt lat="22.789584" lon="108.701301">
        <ele>141.606095</ele>
        <time>2026-08-14T04:00:54.000Z</time>
      </trkpt>
      <trkpt lat="22.789532" lon="108.701389">
        <ele>141.252627</ele>
        <time>2026-08-14T04:00:55.000Z</time>
      </trkpt>
      <trkpt lat="22.789474" lon="108.701479">
        <ele>140.862875</ele>
        <time>2026-08-14T04:00:56.000Z</time>
      </trkpt>
      <trkpt lat="22.789408" lon="108.701561">
        <ele>140.476515</ele>
        <time>2026-08-14T04:00:57.000Z</time>
      </trkpt>
      <trkpt lat="22.789334" lon="108.701628">
        <ele>140.105410</ele>
        <time>2026-08-14T04:00:58.000Z</time>
      </trkpt>
      <trkpt lat="22.789256" lon="108.701688">
        <ele>139.737265</ele>
        <time>2026-08-14T04:00:59.000Z</time>
      </trkpt>
      <trkpt lat="22.789169" lon="108.701737">
        <ele>139.359859</ele>
        <time>2026-08-14T04:01:00.000Z</time>
      </trkpt>
      <trkpt lat="22.789078" lon="108.701768">
        <ele>138.992642</ele>
        <time>2026-08-14T04:01:01.000Z</time>
      </trkpt>
      <trkpt lat="22.788987" lon="108.701789">
        <ele>138.634457</ele>
        <time>2026-08-14T04:01:02.000Z</time>
      </trkpt>
      <trkpt lat="22.788892" lon="108.701796">
        <ele>138.267870</ele>
        <time>2026-08-14T04:01:03.000Z</time>
      </trkpt>
      <trkpt lat="22.788798" lon="108.701808">
        <ele>137.903478</ele>
        <time>2026-08-14T04:01:04.000Z</time>
      </trkpt>
      <trkpt lat="22.788703" lon="108.701817">
        <ele>137.536342</ele>
        <time>2026-08-14T04:01:05.000Z</time>
      </trkpt>
      <trkpt lat="22.788610" lon="108.701829">
        <ele>137.175773</ele>
        <time>2026-08-14T04:01:06.000Z</time>
      </trkpt>
      <trkpt lat="22.788514" lon="108.701838">
        <ele>136.804802</ele>
        <time>2026-08-14T04:01:07.000Z</time>
      </trkpt>
      <trkpt lat="22.788423" lon="108.701849">
        <ele>136.452289</ele>
        <time>2026-08-14T04:01:08.000Z</time>
      </trkpt>
      <trkpt lat="22.788334" lon="108.701863">
        <ele>136.106060</ele>
        <time>2026-08-14T04:01:09.000Z</time>
      </trkpt>
      <trkpt lat="22.788248" lon="108.701882">
        <ele>135.768167</ele>
        <time>2026-08-14T04:01:10.000Z</time>
      </trkpt>
      <trkpt lat="22.788167" lon="108.701908">
        <ele>135.442954</ele>
        <time>2026-08-14T04:01:11.000Z</time>
      </trkpt>
      <trkpt lat="22.788089" lon="108.701942">
        <ele>135.119317</ele>
        <time>2026-08-14T04:01:12.000Z</time>
      </trkpt>
      <trkpt lat="22.788018" lon="108.701991">
        <ele>134.795331</ele>
        <time>2026-08-14T04:01:13.000Z</time>
      </trkpt>
      <trkpt lat="22.787963" lon="108.702055">
        <ele>134.484784</ele>
        <time>2026-08-14T04:01:14.000Z</time>
      </trkpt>
      <trkpt lat="22.787920" lon="108.702123">
        <ele>134.607265</ele>
        <time>2026-08-14T04:01:15.000Z</time>
      </trkpt>
      <trkpt lat="22.787894" lon="108.702200">
        <ele>134.736157</ele>
        <time>2026-08-14T04:01:16.000Z</time>
      </trkpt>
      <trkpt lat="22.787883" lon="108.702274">
        <ele>134.853974</ele>
        <time>2026-08-14T04:01:17.000Z</time>
      </trkpt>
      <trkpt lat="22.787883" lon="108.702348">
        <ele>134.970288</ele>
        <time>2026-08-14T04:01:18.000Z</time>
      </trkpt>
      <trkpt lat="22.787896" lon="108.702421">
        <ele>135.087151</ele>
        <time>2026-08-14T04:01:19.000Z</time>
      </trkpt>
      <trkpt lat="22.787921" lon="108.702489">
        <ele>135.202219</ele>
        <time>2026-08-14T04:01:20.000Z</time>
      </trkpt>
      <trkpt lat="22.787954" lon="108.702546">
        <ele>135.308013</ele>
        <time>2026-08-14T04:01:21.000Z</time>
      </trkpt>
      <trkpt lat="22.787991" lon="108.702596">
        <ele>135.408789</ele>
        <time>2026-08-14T04:01:22.000Z</time>
      </trkpt>
      <trkpt lat="22.788032" lon="108.702640">
        <ele>135.507120</ele>
        <time>2026-08-14T04:01:23.000Z</time>
      </trkpt>
      <trkpt lat="22.788078" lon="108.702677">
        <ele>135.604756</ele>
        <time>2026-08-14T04:01:24.000Z</time>
      </trkpt>
      <trkpt lat="22.788123" lon="108.702710">
        <ele>135.697365</ele>
        <time>2026-08-14T04:01:25.000Z</time>
      </trkpt>
      <trkpt lat="22.788167" lon="108.702740">
        <ele>135.785970</ele>
        <time>2026-08-14T04:01:26.000Z</time>
      </trkpt>
      <trkpt lat="22.788203" lon="108.702765">
        <ele>135.858847</ele>
        <time>2026-08-14T04:01:27.000Z</time>
      </trkpt>
      <trkpt lat="22.788243" lon="108.702791">
        <ele>135.938351</ele>
        <time>2026-08-14T04:01:28.000Z</time>
      </trkpt>
      <trkpt lat="22.788282" lon="108.702813">
        <ele>136.013296</ele>
        <time>2026-08-14T04:01:29.000Z</time>
      </trkpt>
      <trkpt lat="22.788320" lon="108.702835">
        <ele>136.086732</ele>
        <time>2026-08-14T04:01:30.000Z</time>
      </trkpt>
      <trkpt lat="22.788354" lon="108.702850">
        <ele>136.149310</ele>
        <time>2026-08-14T04:01:31.000Z</time>
      </trkpt>
      <trkpt lat="22.788386" lon="108.702867">
        <ele>136.210059</ele>
        <time>2026-08-14T04:01:32.000Z</time>
      </trkpt>
      <trkpt lat="22.788420" lon="108.702885">
        <ele>136.274561</ele>
        <time>2026-08-14T04:01:33.000Z</time>
      </trkpt>
      <trkpt lat="22.788455" lon="108.702902">
        <ele>136.339942</ele>
        <time>2026-08-14T04:01:34.000Z</time>
      </trkpt>
      <trkpt lat="22.788491" lon="108.702918">
        <ele>136.406271</ele>
        <time>2026-08-14T04:01:35.000Z</time>
      </trkpt>
      <trkpt lat="22.788523" lon="108.702934">
        <ele>136.466344</ele>
        <time>2026-08-14T04:01:36.000Z</time>
      </trkpt>
      <trkpt lat="22.788557" lon="108.702949">
        <ele>136.528922</ele>
        <time>2026-08-14T04:01:37.000Z</time>
      </trkpt>
      <trkpt lat="22.788592" lon="108.702966">
        <ele>136.594303</ele>
        <time>2026-08-14T04:01:38.000Z</time>
      </trkpt>
      <trkpt lat="22.788625" lon="108.702983">
        <ele>136.656587</ele>
        <time>2026-08-14T04:01:39.000Z</time>
      </trkpt>
      <trkpt lat="22.788656" lon="108.703000">
        <ele>136.715809</ele>
        <time>2026-08-14T04:01:40.000Z</time>
      </trkpt>
      <trkpt lat="22.788686" lon="108.703018">
        <ele>136.774260</ele>
        <time>2026-08-14T04:01:41.000Z</time>
      </trkpt>
      <trkpt lat="22.788718" lon="108.703037">
        <ele>136.836455</ele>
        <time>2026-08-14T04:01:42.000Z</time>
      </trkpt>
      <trkpt lat="22.788746" lon="108.703055">
        <ele>136.891947</ele>
        <time>2026-08-14T04:01:43.000Z</time>
      </trkpt>
      <trkpt lat="22.788770" lon="108.703069">
        <ele>136.938406</ele>
        <time>2026-08-14T04:01:44.000Z</time>
      </trkpt>
      <trkpt lat="22.788793" lon="108.703078">
        <ele>136.980092</ele>
        <time>2026-08-14T04:01:45.000Z</time>
      </trkpt>
      <trkpt lat="22.788819" lon="108.703087">
        <ele>137.026622</ele>
        <time>2026-08-14T04:01:46.000Z</time>
      </trkpt>
      <trkpt lat="22.788847" lon="108.703097">
        <ele>137.076880</ele>
        <time>2026-08-14T04:01:47.000Z</time>
      </trkpt>
      <trkpt lat="22.788878" lon="108.703107">
        <ele>137.132019</ele>
        <time>2026-08-14T04:01:48.000Z</time>
      </trkpt>
      <trkpt lat="22.788906" lon="108.703120">
        <ele>137.183945</ele>
        <time>2026-08-14T04:01:49.000Z</time>
      </trkpt>
      <trkpt lat="22.788936" lon="108.703134">
        <ele>137.239625</ele>
        <time>2026-08-14T04:01:50.000Z</time>
      </trkpt>
      <trkpt lat="22.788965" lon="108.703144">
        <ele>137.291505</ele>
        <time>2026-08-14T04:01:51.000Z</time>
      </trkpt>
      <trkpt lat="22.788997" lon="108.703154">
        <ele>137.348280</ele>
        <time>2026-08-14T04:01:52.000Z</time>
      </trkpt>
      <trkpt lat="22.789031" lon="108.703168">
        <ele>137.410283</ele>
        <time>2026-08-14T04:01:53.000Z</time>
      </trkpt>
      <trkpt lat="22.789065" lon="108.703179">
        <ele>137.470773</ele>
        <time>2026-08-14T04:01:54.000Z</time>
      </trkpt>
      <trkpt lat="22.789097" lon="108.703192">
        <ele>137.529030</ele>
        <time>2026-08-14T04:01:55.000Z</time>
      </trkpt>
      <trkpt lat="22.789128" lon="108.703204">
        <ele>137.518520</ele>
        <time>2026-08-14T04:01:56.000Z</time>
      </trkpt>
      <trkpt lat="22.789159" lon="108.703217">
        <ele>137.477920</ele>
        <time>2026-08-14T04:01:57.000Z</time>
      </trkpt>
      <trkpt lat="22.789193" lon="108.703231">
        <ele>137.433495</ele>
        <time>2026-08-14T04:01:58.000Z</time>
      </trkpt>
      <trkpt lat="22.789228" lon="108.703248">
        <ele>137.386649</ele>
        <time>2026-08-14T04:01:59.000Z</time>
      </trkpt>
      <trkpt lat="22.789264" lon="108.703261">
        <ele>137.340300</ele>
        <time>2026-08-14T04:02:00.000Z</time>
      </trkpt>
      <trkpt lat="22.789301" lon="108.703277">
        <ele>137.291642</ele>
        <time>2026-08-14T04:02:01.000Z</time>
      </trkpt>
      <trkpt lat="22.789336" lon="108.703293">
        <ele>137.245245</ele>
        <time>2026-08-14T04:02:02.000Z</time>
      </trkpt>
      <trkpt lat="22.789372" lon="108.703310">
        <ele>137.197282</ele>
        <time>2026-08-14T04:02:03.000Z</time>
      </trkpt>
      <trkpt lat="22.789408" lon="108.703325">
        <ele>137.150173</ele>
        <time>2026-08-14T04:02:04.000Z</time>
      </trkpt>
      <trkpt lat="22.789446" lon="108.703338">
        <ele>137.101499</ele>
        <time>2026-08-14T04:02:05.000Z</time>
      </trkpt>
      <trkpt lat="22.789483" lon="108.703354">
        <ele>137.052842</ele>
        <time>2026-08-14T04:02:06.000Z</time>
      </trkpt>
      <trkpt lat="22.789519" lon="108.703370">
        <ele>137.005317</ele>
        <time>2026-08-14T04:02:07.000Z</time>
      </trkpt>
      <trkpt lat="22.789554" lon="108.703389">
        <ele>136.957506</ele>
        <time>2026-08-14T04:02:08.000Z</time>
      </trkpt>
      <trkpt lat="22.789592" lon="108.703405">
        <ele>136.907712</ele>
        <time>2026-08-14T04:02:09.000Z</time>
      </trkpt>
      <trkpt lat="22.789631" lon="108.703426">
        <ele>136.854523</ele>
        <time>2026-08-14T04:02:10.000Z</time>
      </trkpt>
      <trkpt lat="22.789669" lon="108.703447">
        <ele>136.802426</ele>
        <time>2026-08-14T04:02:11.000Z</time>
      </trkpt>
      <trkpt lat="22.789706" lon="108.703467">
        <ele>136.751927</ele>
        <time>2026-08-14T04:02:12.000Z</time>
      </trkpt>
      <trkpt lat="22.789735" lon="108.703494">
        <ele>136.705241</ele>
        <time>2026-08-14T04:02:13.000Z</time>
      </trkpt>
      <trkpt lat="22.789767" lon="108.703524">
        <ele>136.653574</ele>
        <time>2026-08-14T04:02:14.000Z</time>
      </trkpt>
      <trkpt lat="22.789803" lon="108.703556">
        <ele>136.596717</ele>
        <time>2026-08-14T04:02:15.000Z</time>
      </trkpt>
      <trkpt lat="22.789839" lon="108.703589">
        <ele>136.539140</ele>
        <time>2026-08-14T04:02:16.000Z</time>
      </trkpt>
      <trkpt lat="22.789872" lon="108.703632">
        <ele>136.476130</ele>
        <time>2026-08-14T04:02:17.000Z</time>
      </trkpt>
      <trkpt lat="22.789903" lon="108.703683">
        <ele>136.407334</ele>
        <time>2026-08-14T04:02:18.000Z</time>
      </trkpt>
      <trkpt lat="22.789927" lon="108.703737">
        <ele>136.339821</ele>
        <time>2026-08-14T04:02:19.000Z</time>
      </trkpt>
      <trkpt lat="22.789950" lon="108.703794">
        <ele>136.269748</ele>
        <time>2026-08-14T04:02:20.000Z</time>
      </trkpt>
      <trkpt lat="22.789966" lon="108.703855">
        <ele>136.198324</ele>
        <time>2026-08-14T04:02:21.000Z</time>
      </trkpt>
      <trkpt lat="22.789974" lon="108.703913">
        <ele>136.132277</ele>
        <time>2026-08-14T04:02:22.000Z</time>
      </trkpt>
      <trkpt lat="22.789979" lon="108.703973">
        <ele>136.064430</ele>
        <time>2026-08-14T04:02:23.000Z</time>
      </trkpt>
      <trkpt lat="22.789978" lon="108.704035">
        <ele>135.994595</ele>
        <time>2026-08-14T04:02:24.000Z</time>
      </trkpt>
      <trkpt lat="22.789973" lon="108.704097">
        <ele>135.924504</ele>
        <time>2026-08-14T04:02:25.000Z</time>
      </trkpt>
      <trkpt lat="22.789966" lon="108.704155">
        <ele>135.858627</ele>
        <time>2026-08-14T04:02:26.000Z</time>
      </trkpt>
      <trkpt lat="22.789956" lon="108.704214">
        <ele>135.791068</ele>
        <time>2026-08-14T04:02:27.000Z</time>
      </trkpt>
      <trkpt lat="22.789945" lon="108.704271">
        <ele>135.725483</ele>
        <time>2026-08-14T04:02:28.000Z</time>
      </trkpt>
      <trkpt lat="22.789935" lon="108.704335">
        <ele>135.652378</ele>
        <time>2026-08-14T04:02:29.000Z</time>
      </trkpt>
      <trkpt lat="22.789926" lon="108.704403">
        <ele>135.575011</ele>
        <time>2026-08-14T04:02:30.000Z</time>
      </trkpt>
      <trkpt lat="22.789921" lon="108.704472">
        <ele>135.497064</ele>
        <time>2026-08-14T04:02:31.000Z</time>
      </trkpt>
      <trkpt lat="22.789916" lon="108.704538">
        <ele>135.422484</ele>
        <time>2026-08-14T04:02:32.000Z</time>
      </trkpt>
      <trkpt lat="22.789916" lon="108.704606">
        <ele>135.348774</ele>
        <time>2026-08-14T04:02:33.000Z</time>
      </trkpt>
      <trkpt lat="22.789920" lon="108.704676">
        <ele>135.339209</ele>
        <time>2026-08-14T04:02:34.000Z</time>
      </trkpt>
      <trkpt lat="22.789921" lon="108.704746">
        <ele>135.329661</ele>
        <time>2026-08-14T04:02:35.000Z</time>
      </trkpt>
      <trkpt lat="22.789926" lon="108.704814">
        <ele>135.320357</ele>
        <time>2026-08-14T04:02:36.000Z</time>
      </trkpt>
      <trkpt lat="22.789924" lon="108.704883">
        <ele>135.310942</ele>
        <time>2026-08-14T04:02:37.000Z</time>
      </trkpt>
      <trkpt lat="22.789921" lon="108.704952">
        <ele>135.301521</ele>
        <time>2026-08-14T04:02:38.000Z</time>
      </trkpt>
      <trkpt lat="22.789913" lon="108.705020">
        <ele>135.292172</ele>
        <time>2026-08-14T04:02:39.000Z</time>
      </trkpt>
      <trkpt lat="22.789905" lon="108.705089">
        <ele>135.282687</ele>
        <time>2026-08-14T04:02:40.000Z</time>
      </trkpt>
      <trkpt lat="22.789888" lon="108.705154">
        <ele>135.273473</ele>
        <time>2026-08-14T04:02:41.000Z</time>
      </trkpt>
      <trkpt lat="22.789853" lon="108.705213">
        <ele>135.263904</ele>
        <time>2026-08-14T04:02:42.000Z</time>
      </trkpt>
      <trkpt lat="22.789813" lon="108.705266">
        <ele>135.254563</ele>
        <time>2026-08-14T04:02:43.000Z</time>
      </trkpt>
      <trkpt lat="22.789768" lon="108.705312">
        <ele>135.245415</ele>
        <time>2026-08-14T04:02:44.000Z</time>
      </trkpt>
      <trkpt lat="22.789718" lon="108.705349">
        <ele>135.236461</ele>
        <time>2026-08-14T04:02:45.000Z</time>
      </trkpt>
      <trkpt lat="22.789664" lon="108.705376">
        <ele>135.227665</ele>
        <time>2026-08-14T04:02:46.000Z</time>
      </trkpt>
      <trkpt lat="22.789609" lon="108.705400">
        <ele>135.218895</ele>
        <time>2026-08-14T04:02:47.000Z</time>
      </trkpt>
      <trkpt lat="22.789554" lon="108.705419">
        <ele>135.210356</ele>
        <time>2026-08-14T04:02:48.000Z</time>
      </trkpt>
      <trkpt lat="22.789499" lon="108.705429">
        <ele>135.202106</ele>
        <time>2026-08-14T04:02:49.000Z</time>
      </trkpt>
      <trkpt lat="22.789446" lon="108.705438">
        <ele>135.194171</ele>
        <time>2026-08-14T04:02:50.000Z</time>
      </trkpt>
      <trkpt lat="22.789394" lon="108.705446">
        <ele>135.186401</ele>
        <time>2026-08-14T04:02:51.000Z</time>
      </trkpt>
      <trkpt lat="22.789343" lon="108.705454">
        <ele>135.178778</ele>
        <time>2026-08-14T04:02:52.000Z</time>
      </trkpt>
      <trkpt lat="22.789291" lon="108.705462">
        <ele>135.171009</ele>
        <time>2026-08-14T04:02:53.000Z</time>
      </trkpt>
      <trkpt lat="22.789241" lon="108.705469">
        <ele>135.163551</ele>
        <time>2026-08-14T04:02:54.000Z</time>
      </trkpt>
      <trkpt lat="22.789193" lon="108.705474">
        <ele>135.156417</ele>
        <time>2026-08-14T04:02:55.000Z</time>
      </trkpt>
      <trkpt lat="22.789145" lon="108.705480">
        <ele>135.149270</ele>
        <time>2026-08-14T04:02:56.000Z</time>
      </trkpt>
      <trkpt lat="22.789099" lon="108.705487">
        <ele>135.142398</ele>
        <time>2026-08-14T04:02:57.000Z</time>
      </trkpt>
      <trkpt lat="22.789054" lon="108.705493">
        <ele>135.135691</ele>
        <time>2026-08-14T04:02:58.000Z</time>
      </trkpt>
      <trkpt lat="22.789008" lon="108.705500">
        <ele>135.128819</ele>
        <time>2026-08-14T04:02:59.000Z</time>
      </trkpt>
      <trkpt lat="22.788963" lon="108.705506">
        <ele>135.122112</ele>
        <time>2026-08-14T04:03:00.000Z</time>
      </trkpt>
      <trkpt lat="22.788920" lon="108.705513">
        <ele>135.115680</ele>
        <time>2026-08-14T04:03:01.000Z</time>
      </trkpt>
      <trkpt lat="22.788877" lon="108.705520">
        <ele>135.109248</ele>
        <time>2026-08-14T04:03:02.000Z</time>
      </trkpt>
      <trkpt lat="22.788836" lon="108.705529">
        <ele>135.103060</ele>
        <time>2026-08-14T04:03:03.000Z</time>
      </trkpt>
      <trkpt lat="22.788795" lon="108.705534">
        <ele>135.096956</ele>
        <time>2026-08-14T04:03:04.000Z</time>
      </trkpt>
      <trkpt lat="22.788757" lon="108.705540">
        <ele>135.091276</ele>
        <time>2026-08-14T04:03:05.000Z</time>
      </trkpt>
      <trkpt lat="22.788721" lon="108.705545">
        <ele>135.085906</ele>
        <time>2026-08-14T04:03:06.000Z</time>
      </trkpt>
      <trkpt lat="22.788680" lon="108.705547">
        <ele>135.079719</ele>
        <time>2026-08-14T04:03:07.000Z</time>
      </trkpt>
      <trkpt lat="22.788639" lon="108.705548">
        <ele>135.073437</ele>
        <time>2026-08-14T04:03:08.000Z</time>
      </trkpt>
      <trkpt lat="22.788597" lon="108.705549">
        <ele>135.067001</ele>
        <time>2026-08-14T04:03:09.000Z</time>
      </trkpt>
      <trkpt lat="22.788556" lon="108.705553">
        <ele>135.060695</ele>
        <time>2026-08-14T04:03:10.000Z</time>
      </trkpt>
      <trkpt lat="22.788513" lon="108.705562">
        <ele>135.053986</ele>
        <time>2026-08-14T04:03:11.000Z</time>
      </trkpt>
      <trkpt lat="22.788468" lon="108.705566">
        <ele>135.047070</ele>
        <time>2026-08-14T04:03:12.000Z</time>
      </trkpt>
      <trkpt lat="22.788424" lon="108.705573">
        <ele>135.040257</ele>
        <time>2026-08-14T04:03:13.000Z</time>
      </trkpt>
      <trkpt lat="22.788379" lon="108.705574">
        <ele>135.033362</ele>
        <time>2026-08-14T04:03:14.000Z</time>
      </trkpt>
      <trkpt lat="22.788336" lon="108.705576">
        <ele>135.026769</ele>
        <time>2026-08-14T04:03:15.000Z</time>
      </trkpt>
      <trkpt lat="22.788292" lon="108.705580">
        <ele>135.020005</ele>
        <time>2026-08-14T04:03:16.000Z</time>
      </trkpt>
      <trkpt lat="22.788247" lon="108.705580">
        <ele>135.013111</ele>
        <time>2026-08-14T04:03:17.000Z</time>
      </trkpt>
      <trkpt lat="22.788203" lon="108.705590">
        <ele>135.006225</ele>
        <time>2026-08-14T04:03:18.000Z</time>
      </trkpt>
      <trkpt lat="22.788158" lon="108.705597">
        <ele>134.999260</ele>
        <time>2026-08-14T04:03:19.000Z</time>
      </trkpt>
      <trkpt lat="22.788109" lon="108.705602">
        <ele>134.991721</ele>
        <time>2026-08-14T04:03:20.000Z</time>
      </trkpt>
      <trkpt lat="22.788062" lon="108.705614">
        <ele>134.984324</ele>
        <time>2026-08-14T04:03:21.000Z</time>
      </trkpt>
      <trkpt lat="22.788015" lon="108.705629">
        <ele>134.976819</ele>
        <time>2026-08-14T04:03:22.000Z</time>
      </trkpt>
      <trkpt lat="22.787968" lon="108.705644">
        <ele>134.969314</ele>
        <time>2026-08-14T04:03:23.000Z</time>
      </trkpt>
      <trkpt lat="22.787924" lon="108.705665">
        <ele>134.961950</ele>
        <time>2026-08-14T04:03:24.000Z</time>
      </trkpt>
      <trkpt lat="22.787880" lon="108.705690">
        <ele>134.954341</ele>
        <time>2026-08-14T04:03:25.000Z</time>
      </trkpt>
      <trkpt lat="22.787836" lon="108.705716">
        <ele>134.946665</ele>
        <time>2026-08-14T04:03:26.000Z</time>
      </trkpt>
      <trkpt lat="22.787794" lon="108.705740">
        <ele>134.939392</ele>
        <time>2026-08-14T04:03:27.000Z</time>
      </trkpt>
      <trkpt lat="22.787751" lon="108.705770">
        <ele>134.931560</ele>
        <time>2026-08-14T04:03:28.000Z</time>
      </trkpt>
      <trkpt lat="22.787710" lon="108.705802">
        <ele>134.923822</ele>
        <time>2026-08-14T04:03:29.000Z</time>
      </trkpt>
      <trkpt lat="22.787664" lon="108.705831">
        <ele>134.915672</ele>
        <time>2026-08-14T04:03:30.000Z</time>
      </trkpt>
      <trkpt lat="22.787625" lon="108.705859">
        <ele>134.908507</ele>
        <time>2026-08-14T04:03:31.000Z</time>
      </trkpt>
      <trkpt lat="22.787584" lon="108.705888">
        <ele>134.901009</ele>
        <time>2026-08-14T04:03:32.000Z</time>
      </trkpt>
      <trkpt lat="22.787544" lon="108.705922">
        <ele>134.893224</ele>
        <time>2026-08-14T04:03:33.000Z</time>
      </trkpt>
      <trkpt lat="22.787503" lon="108.705956">
        <ele>134.885318</ele>
        <time>2026-08-14T04:03:34.000Z</time>
      </trkpt>
      <trkpt lat="22.787461" lon="108.705992">
        <ele>134.877117</ele>
        <time>2026-08-14T04:03:35.000Z</time>
      </trkpt>
      <trkpt lat="22.787420" lon="108.706028">
        <ele>134.869036</ele>
        <time>2026-08-14T04:03:36.000Z</time>
      </trkpt>
      <trkpt lat="22.787379" lon="108.706061">
        <ele>134.861215</ele>
        <time>2026-08-14T04:03:37.000Z</time>
      </trkpt>
      <trkpt lat="22.787338" lon="108.706099">
        <ele>134.852954</ele>
        <time>2026-08-14T04:03:38.000Z</time>
      </trkpt>
      <trkpt lat="22.787292" lon="108.706136">
        <ele>134.844181</ele>
        <time>2026-08-14T04:03:39.000Z</time>
      </trkpt>
      <trkpt lat="22.787250" lon="108.706171">
        <ele>134.836067</ele>
        <time>2026-08-14T04:03:40.000Z</time>
      </trkpt>
      <trkpt lat="22.787205" lon="108.706205">
        <ele>134.827666</ele>
        <time>2026-08-14T04:03:41.000Z</time>
      </trkpt>
      <trkpt lat="22.787167" lon="108.706249">
        <ele>134.819151</ele>
        <time>2026-08-14T04:03:42.000Z</time>
      </trkpt>
      <trkpt lat="22.787124" lon="108.706290">
        <ele>134.810380</ele>
        <time>2026-08-14T04:03:43.000Z</time>
      </trkpt>
      <trkpt lat="22.787080" lon="108.706332">
        <ele>135.009958</ele>
        <time>2026-08-14T04:03:44.000Z</time>
      </trkpt>
      <trkpt lat="22.787037" lon="108.706375">
        <ele>135.304575</ele>
        <time>2026-08-14T04:03:45.000Z</time>
      </trkpt>
      <trkpt lat="22.786995" lon="108.706418">
        <ele>135.595508</ele>
        <time>2026-08-14T04:03:46.000Z</time>
      </trkpt>
      <trkpt lat="22.786954" lon="108.706460">
        <ele>135.879591</ele>
        <time>2026-08-14T04:03:47.000Z</time>
      </trkpt>
      <trkpt lat="22.786912" lon="108.706506">
        <ele>136.180259</ele>
        <time>2026-08-14T04:03:48.000Z</time>
      </trkpt>
      <trkpt lat="22.786872" lon="108.706549">
        <ele>136.463950</ele>
        <time>2026-08-14T04:03:49.000Z</time>
      </trkpt>
      <trkpt lat="22.786837" lon="108.706594">
        <ele>136.737375</ele>
        <time>2026-08-14T04:03:50.000Z</time>
      </trkpt>
      <trkpt lat="22.786805" lon="108.706640">
        <ele>137.005001</ele>
        <time>2026-08-14T04:03:51.000Z</time>
      </trkpt>
      <trkpt lat="22.786776" lon="108.706686">
        <ele>137.263807</ele>
        <time>2026-08-14T04:03:52.000Z</time>
      </trkpt>
      <trkpt lat="22.786751" lon="108.706730">
        <ele>137.503841</ele>
        <time>2026-08-14T04:03:53.000Z</time>
      </trkpt>
      <trkpt lat="22.786731" lon="108.706774">
        <ele>137.731673</ele>
        <time>2026-08-14T04:03:54.000Z</time>
      </trkpt>
      <trkpt lat="22.786716" lon="108.706817">
        <ele>137.945191</ele>
        <time>2026-08-14T04:03:55.000Z</time>
      </trkpt>
      <trkpt lat="22.786704" lon="108.706859">
        <ele>138.149401</ele>
        <time>2026-08-14T04:03:56.000Z</time>
      </trkpt>
      <trkpt lat="22.786695" lon="108.706898">
        <ele>138.336113</ele>
        <time>2026-08-14T04:03:57.000Z</time>
      </trkpt>
      <trkpt lat="22.786689" lon="108.706934">
        <ele>138.506015</ele>
        <time>2026-08-14T04:03:58.000Z</time>
      </trkpt>
      <trkpt lat="22.786683" lon="108.706966">
        <ele>138.657673</ele>
        <time>2026-08-14T04:03:59.000Z</time>
      </trkpt>
      <trkpt lat="22.786677" lon="108.706996">
        <ele>138.800240</ele>
        <time>2026-08-14T04:04:00.000Z</time>
      </trkpt>
      <trkpt lat="22.786673" lon="108.707024">
        <ele>138.931830</ele>
        <time>2026-08-14T04:04:01.000Z</time>
      </trkpt>
      <trkpt lat="22.786671" lon="108.707052">
        <ele>139.062258</ele>
        <time>2026-08-14T04:04:02.000Z</time>
      </trkpt>
      <trkpt lat="22.786671" lon="108.707080">
        <ele>139.192296</ele>
        <time>2026-08-14T04:04:03.000Z</time>
      </trkpt>
      <trkpt lat="22.786673" lon="108.707105">
        <ele>139.308838</ele>
        <time>2026-08-14T04:04:04.000Z</time>
      </trkpt>
      <trkpt lat="22.786673" lon="108.707128">
        <ele>139.415655</ele>
        <time>2026-08-14T04:04:05.000Z</time>
      </trkpt>
      <trkpt lat="22.786675" lon="108.707150">
        <ele>139.518324</ele>
        <time>2026-08-14T04:04:06.000Z</time>
      </trkpt>
      <trkpt lat="22.786679" lon="108.707172">
        <ele>139.622465</ele>
        <time>2026-08-14T04:04:07.000Z</time>
      </trkpt>
      <trkpt lat="22.786683" lon="108.707194">
        <ele>139.726605</ele>
        <time>2026-08-14T04:04:08.000Z</time>
      </trkpt>
      <trkpt lat="22.786687" lon="108.707216">
        <ele>139.830746</ele>
        <time>2026-08-14T04:04:09.000Z</time>
      </trkpt>
      <trkpt lat="22.786691" lon="108.707239">
        <ele>139.939447</ele>
        <time>2026-08-14T04:04:10.000Z</time>
      </trkpt>
      <trkpt lat="22.786695" lon="108.707261">
        <ele>140.043588</ele>
        <time>2026-08-14T04:04:11.000Z</time>
      </trkpt>
      <trkpt lat="22.786696" lon="108.707282">
        <ele>140.141247</ele>
        <time>2026-08-14T04:04:12.000Z</time>
      </trkpt>
      <trkpt lat="22.786702" lon="108.707301">
        <ele>140.234520</ele>
        <time>2026-08-14T04:04:13.000Z</time>
      </trkpt>
      <trkpt lat="22.786710" lon="108.707320">
        <ele>140.331527</ele>
        <time>2026-08-14T04:04:14.000Z</time>
      </trkpt>
      <trkpt lat="22.786716" lon="108.707339">
        <ele>140.424800</ele>
        <time>2026-08-14T04:04:15.000Z</time>
      </trkpt>
      <trkpt lat="22.786722" lon="108.707357">
        <ele>140.513692</ele>
        <time>2026-08-14T04:04:16.000Z</time>
      </trkpt>
      <trkpt lat="22.786730" lon="108.707373">
        <ele>140.598224</ele>
        <time>2026-08-14T04:04:17.000Z</time>
      </trkpt>
      <trkpt lat="22.786737" lon="108.707390">
        <ele>140.684692</ele>
        <time>2026-08-14T04:04:18.000Z</time>
      </trkpt>
      <trkpt lat="22.786749" lon="108.707407">
        <ele>140.784127</ele>
        <time>2026-08-14T04:04:19.000Z</time>
      </trkpt>
      <trkpt lat="22.786754" lon="108.707424">
        <ele>140.866999</ele>
        <time>2026-08-14T04:04:20.000Z</time>
      </trkpt>
      <trkpt lat="22.786759" lon="108.707441">
        <ele>140.949871</ele>
        <time>2026-08-14T04:04:21.000Z</time>
      </trkpt>
      <trkpt lat="22.786765" lon="108.707459">
        <ele>141.038763</ele>
        <time>2026-08-14T04:04:22.000Z</time>
      </trkpt>
      <trkpt lat="22.786775" lon="108.707476">
        <ele>141.132416</ele>
        <time>2026-08-14T04:04:23.000Z</time>
      </trkpt>
      <trkpt lat="22.786781" lon="108.707492">
        <ele>141.212636</ele>
        <time>2026-08-14T04:04:24.000Z</time>
      </trkpt>
      <trkpt lat="22.786788" lon="108.707507">
        <ele>141.290715</ele>
        <time>2026-08-14T04:04:25.000Z</time>
      </trkpt>
      <trkpt lat="22.786798" lon="108.707523">
        <ele>141.380487</ele>
        <time>2026-08-14T04:04:26.000Z</time>
      </trkpt>
      <trkpt lat="22.786806" lon="108.707538">
        <ele>141.460967</ele>
        <time>2026-08-14T04:04:27.000Z</time>
      </trkpt>
      <trkpt lat="22.786813" lon="108.707553">
        <ele>141.539046</ele>
        <time>2026-08-14T04:04:28.000Z</time>
      </trkpt>
      <trkpt lat="22.786820" lon="108.707569">
        <ele>141.621296</ele>
        <time>2026-08-14T04:04:29.000Z</time>
      </trkpt>
      <trkpt lat="22.786826" lon="108.707585">
        <ele>141.701515</ele>
        <time>2026-08-14T04:04:30.000Z</time>
      </trkpt>
      <trkpt lat="22.786834" lon="108.707600">
        <ele>141.781995</ele>
        <time>2026-08-14T04:04:31.000Z</time>
      </trkpt>
      <trkpt lat="22.786840" lon="108.707616">
        <ele>141.862214</ele>
        <time>2026-08-14T04:04:32.000Z</time>
      </trkpt>
      <trkpt lat="22.786845" lon="108.707631">
        <ele>141.936291</ele>
        <time>2026-08-14T04:04:33.000Z</time>
      </trkpt>
      <trkpt lat="22.786851" lon="108.707647">
        <ele>142.016510</ele>
        <time>2026-08-14T04:04:34.000Z</time>
      </trkpt>
      <trkpt lat="22.786859" lon="108.707660">
        <ele>142.089098</ele>
        <time>2026-08-14T04:04:35.000Z</time>
      </trkpt>
      <trkpt lat="22.786865" lon="108.707674">
        <ele>142.160799</ele>
        <time>2026-08-14T04:04:36.000Z</time>
      </trkpt>
      <trkpt lat="22.786872" lon="108.707689">
        <ele>142.238878</ele>
        <time>2026-08-14T04:04:37.000Z</time>
      </trkpt>
      <trkpt lat="22.786878" lon="108.707704">
        <ele>142.314816</ele>
        <time>2026-08-14T04:04:38.000Z</time>
      </trkpt>
      <trkpt lat="22.786883" lon="108.707721">
        <ele>142.397687</ele>
        <time>2026-08-14T04:04:39.000Z</time>
      </trkpt>
      <trkpt lat="22.786887" lon="108.707737">
        <ele>142.474678</ele>
        <time>2026-08-14T04:04:40.000Z</time>
      </trkpt>
      <trkpt lat="22.786892" lon="108.707753">
        <ele>142.553138</ele>
        <time>2026-08-14T04:04:41.000Z</time>
      </trkpt>
      <trkpt lat="22.786897" lon="108.707770">
        <ele>142.636010</ele>
        <time>2026-08-14T04:04:42.000Z</time>
      </trkpt>
      <trkpt lat="22.786902" lon="108.707787">
        <ele>142.718882</ele>
        <time>2026-08-14T04:04:43.000Z</time>
      </trkpt>
      <trkpt lat="22.786905" lon="108.707806">
        <ele>142.808407</ele>
        <time>2026-08-14T04:04:44.000Z</time>
      </trkpt>
      <trkpt lat="22.786913" lon="108.707823">
        <ele>142.897049</ele>
        <time>2026-08-14T04:04:45.000Z</time>
      </trkpt>
      <trkpt lat="22.786918" lon="108.707841">
        <ele>142.984357</ele>
        <time>2026-08-14T04:04:46.000Z</time>
      </trkpt>
      <trkpt lat="22.786922" lon="108.707859">
        <ele>143.070347</ele>
        <time>2026-08-14T04:04:47.000Z</time>
      </trkpt>
      <trkpt lat="22.786927" lon="108.707877">
        <ele>143.157654</ele>
        <time>2026-08-14T04:04:48.000Z</time>
      </trkpt>
      <trkpt lat="22.786934" lon="108.707893">
        <ele>143.239904</ele>
        <time>2026-08-14T04:04:49.000Z</time>
      </trkpt>
      <trkpt lat="22.786940" lon="108.707912">
        <ele>143.333177</ele>
        <time>2026-08-14T04:04:50.000Z</time>
      </trkpt>
      <trkpt lat="22.786945" lon="108.707932">
        <ele>143.429415</ele>
        <time>2026-08-14T04:04:51.000Z</time>
      </trkpt>
      <trkpt lat="22.786950" lon="108.707951">
        <ele>143.521180</ele>
        <time>2026-08-14T04:04:52.000Z</time>
      </trkpt>
      <trkpt lat="22.786953" lon="108.707970">
        <ele>143.610705</ele>
        <time>2026-08-14T04:04:53.000Z</time>
      </trkpt>
      <trkpt lat="22.786954" lon="108.707989">
        <ele>143.699088</ele>
        <time>2026-08-14T04:04:54.000Z</time>
      </trkpt>
      <trkpt lat="22.786959" lon="108.708007">
        <ele>143.786396</ele>
        <time>2026-08-14T04:04:55.000Z</time>
      </trkpt>
      <trkpt lat="22.786966" lon="108.708026">
        <ele>143.889771</ele>
        <time>2026-08-14T04:04:56.000Z</time>
      </trkpt>
      <trkpt lat="22.786968" lon="108.708045">
        <ele>144.033832</ele>
        <time>2026-08-14T04:04:57.000Z</time>
      </trkpt>
      <trkpt lat="22.786971" lon="108.708063">
        <ele>144.171627</ele>
        <time>2026-08-14T04:04:58.000Z</time>
      </trkpt>
      <trkpt lat="22.786975" lon="108.708082">
        <ele>144.318443</ele>
        <time>2026-08-14T04:04:59.000Z</time>
      </trkpt>
      <trkpt lat="22.786978" lon="108.708101">
        <ele>144.463657</ele>
        <time>2026-08-14T04:05:00.000Z</time>
      </trkpt>
      <trkpt lat="22.786979" lon="108.708121">
        <ele>144.614543</ele>
        <time>2026-08-14T04:05:01.000Z</time>
      </trkpt>
      <trkpt lat="22.786980" lon="108.708140">
        <ele>144.757907</ele>
        <time>2026-08-14T04:05:02.000Z</time>
      </trkpt>
      <trkpt lat="22.786979" lon="108.708158">
        <ele>144.893751</ele>
        <time>2026-08-14T04:05:03.000Z</time>
      </trkpt>
      <trkpt lat="22.786979" lon="108.708176">
        <ele>145.029349</ele>
        <time>2026-08-14T04:05:04.000Z</time>
      </trkpt>
      <trkpt lat="22.786981" lon="108.708194">
        <ele>145.165928</ele>
        <time>2026-08-14T04:05:05.000Z</time>
      </trkpt>
      <trkpt lat="22.786987" lon="108.708210">
        <ele>145.296048</ele>
        <time>2026-08-14T04:05:06.000Z</time>
      </trkpt>
      <trkpt lat="22.786990" lon="108.708229">
        <ele>145.441263</ele>
        <time>2026-08-14T04:05:07.000Z</time>
      </trkpt>
      <trkpt lat="22.786993" lon="108.708246">
        <ele>145.571653</ele>
        <time>2026-08-14T04:05:08.000Z</time>
      </trkpt>
      <trkpt lat="22.786991" lon="108.708263">
        <ele>145.700756</ele>
        <time>2026-08-14T04:05:09.000Z</time>
      </trkpt>
      <trkpt lat="22.786993" lon="108.708278">
        <ele>145.814929</ele>
        <time>2026-08-14T04:05:10.000Z</time>
      </trkpt>
      <trkpt lat="22.786994" lon="108.708295">
        <ele>145.943254</ele>
        <time>2026-08-14T04:05:11.000Z</time>
      </trkpt>
      <trkpt lat="22.786989" lon="108.708305">
        <ele>146.028952</ele>
        <time>2026-08-14T04:05:12.000Z</time>
      </trkpt>
      <trkpt lat="22.786987" lon="108.708320">
        <ele>146.143125</ele>
        <time>2026-08-14T04:05:13.000Z</time>
      </trkpt>
      <trkpt lat="22.786983" lon="108.708338">
        <ele>146.282607</ele>
        <time>2026-08-14T04:05:14.000Z</time>
      </trkpt>
      <trkpt lat="22.786978" lon="108.708356">
        <ele>146.424225</ele>
        <time>2026-08-14T04:05:15.000Z</time>
      </trkpt>
      <trkpt lat="22.786974" lon="108.708371">
        <ele>146.541855</ele>
        <time>2026-08-14T04:05:16.000Z</time>
      </trkpt>
      <trkpt lat="22.786974" lon="108.708386">
        <ele>146.654854</ele>
        <time>2026-08-14T04:05:17.000Z</time>
      </trkpt>
      <trkpt lat="22.786975" lon="108.708399">
        <ele>146.753126</ele>
        <time>2026-08-14T04:05:18.000Z</time>
      </trkpt>
      <trkpt lat="22.786976" lon="108.708414">
        <ele>146.866419</ele>
        <time>2026-08-14T04:05:19.000Z</time>
      </trkpt>
      <trkpt lat="22.786979" lon="108.708427">
        <ele>146.967372</ele>
        <time>2026-08-14T04:05:20.000Z</time>
      </trkpt>
      <trkpt lat="22.786979" lon="108.708443">
        <ele>147.087903</ele>
        <time>2026-08-14T04:05:21.000Z</time>
      </trkpt>
      <trkpt lat="22.786978" lon="108.708455">
        <ele>147.178670</ele>
        <time>2026-08-14T04:05:22.000Z</time>
      </trkpt>
      <trkpt lat="22.786975" lon="108.708470">
        <ele>147.294297</ele>
        <time>2026-08-14T04:05:23.000Z</time>
      </trkpt>
      <trkpt lat="22.786972" lon="108.708484">
        <ele>147.402573</ele>
        <time>2026-08-14T04:05:24.000Z</time>
      </trkpt>
      <trkpt lat="22.786966" lon="108.708499">
        <ele>147.525748</ele>
        <time>2026-08-14T04:05:25.000Z</time>
      </trkpt>
      <trkpt lat="22.786963" lon="108.708513">
        <ele>147.634024</ele>
        <time>2026-08-14T04:05:26.000Z</time>
      </trkpt>
      <trkpt lat="22.786963" lon="108.708530">
        <ele>147.762089</ele>
        <time>2026-08-14T04:05:27.000Z</time>
      </trkpt>
      <trkpt lat="22.786965" lon="108.708549">
        <ele>147.906150</ele>
        <time>2026-08-14T04:05:28.000Z</time>
      </trkpt>
      <trkpt lat="22.786967" lon="108.708568">
        <ele>148.050211</ele>
        <time>2026-08-14T04:05:29.000Z</time>
      </trkpt>
      <trkpt lat="22.786969" lon="108.708587">
        <ele>148.194272</ele>
        <time>2026-08-14T04:05:30.000Z</time>
      </trkpt>
      <trkpt lat="22.786972" lon="108.708605">
        <ele>148.332067</ele>
        <time>2026-08-14T04:05:31.000Z</time>
      </trkpt>
      <trkpt lat="22.786975" lon="108.708626">
        <ele>148.492153</ele>
        <time>2026-08-14T04:05:32.000Z</time>
      </trkpt>
      <trkpt lat="22.786978" lon="108.708647">
        <ele>148.652238</ele>
        <time>2026-08-14T04:05:33.000Z</time>
      </trkpt>
      <trkpt lat="22.786978" lon="108.708670">
        <ele>148.825502</ele>
        <time>2026-08-14T04:05:34.000Z</time>
      </trkpt>
      <trkpt lat="22.786977" lon="108.708696">
        <ele>149.021536</ele>
        <time>2026-08-14T04:05:35.000Z</time>
      </trkpt>
      <trkpt lat="22.786976" lon="108.708720">
        <ele>149.202517</ele>
        <time>2026-08-14T04:05:36.000Z</time>
      </trkpt>
      <trkpt lat="22.786976" lon="108.708745">
        <ele>149.390847</ele>
        <time>2026-08-14T04:05:37.000Z</time>
      </trkpt>
      <trkpt lat="22.786972" lon="108.708766">
        <ele>149.552386</ele>
        <time>2026-08-14T04:05:38.000Z</time>
      </trkpt>
      <trkpt lat="22.786969" lon="108.708782">
        <ele>149.675385</ele>
        <time>2026-08-14T04:05:39.000Z</time>
      </trkpt>
      <trkpt lat="22.786967" lon="108.708799">
        <ele>149.804488</ele>
        <time>2026-08-14T04:05:40.000Z</time>
      </trkpt>
      <trkpt lat="22.786970" lon="108.708818">
        <ele>149.949703</ele>
        <time>2026-08-14T04:05:41.000Z</time>
      </trkpt>
      <trkpt lat="22.786971" lon="108.708840">
        <ele>150.115635</ele>
        <time>2026-08-14T04:05:42.000Z</time>
      </trkpt>
      <trkpt lat="22.786972" lon="108.708862">
        <ele>150.281567</ele>
        <time>2026-08-14T04:05:43.000Z</time>
      </trkpt>
      <trkpt lat="22.786982" lon="108.708885">
        <ele>150.473131</ele>
        <time>2026-08-14T04:05:44.000Z</time>
      </trkpt>
      <trkpt lat="22.786982" lon="108.708908">
        <ele>150.646395</ele>
        <time>2026-08-14T04:05:45.000Z</time>
      </trkpt>
      <trkpt lat="22.786988" lon="108.708931">
        <ele>150.826461</ele>
        <time>2026-08-14T04:05:46.000Z</time>
      </trkpt>
      <trkpt lat="22.786988" lon="108.708953">
        <ele>150.992191</ele>
        <time>2026-08-14T04:05:47.000Z</time>
      </trkpt>
      <trkpt lat="22.786988" lon="108.708977">
        <ele>151.172989</ele>
        <time>2026-08-14T04:05:48.000Z</time>
      </trkpt>
      <trkpt lat="22.786995" lon="108.709002">
        <ele>151.369813</ele>
        <time>2026-08-14T04:05:49.000Z</time>
      </trkpt>
      <trkpt lat="22.787001" lon="108.709025">
        <ele>151.549879</ele>
        <time>2026-08-14T04:05:50.000Z</time>
      </trkpt>
      <trkpt lat="22.787007" lon="108.709050">
        <ele>151.744486</ele>
        <time>2026-08-14T04:05:51.000Z</time>
      </trkpt>
      <trkpt lat="22.787011" lon="108.709073">
        <ele>151.920805</ele>
        <time>2026-08-14T04:05:52.000Z</time>
      </trkpt>
      <trkpt lat="22.787010" lon="108.709090">
        <ele>152.049130</ele>
        <time>2026-08-14T04:05:53.000Z</time>
      </trkpt>
      <trkpt lat="22.787015" lon="108.709108">
        <ele>152.190749</ele>
        <time>2026-08-14T04:05:54.000Z</time>
      </trkpt>
      <trkpt lat="22.787022" lon="108.709129">
        <ele>152.358969</ele>
        <time>2026-08-14T04:05:55.000Z</time>
      </trkpt>
      <trkpt lat="22.787026" lon="108.709150">
        <ele>152.520507</ele>
        <time>2026-08-14T04:05:56.000Z</time>
      </trkpt>
      <trkpt lat="22.787033" lon="108.709170">
        <ele>152.681663</ele>
        <time>2026-08-14T04:05:57.000Z</time>
      </trkpt>
      <trkpt lat="22.787041" lon="108.709191">
        <ele>152.852833</ele>
        <time>2026-08-14T04:05:58.000Z</time>
      </trkpt>
      <trkpt lat="22.787048" lon="108.709213">
        <ele>153.028156</ele>
        <time>2026-08-14T04:05:59.000Z</time>
      </trkpt>
      <trkpt lat="22.787057" lon="108.709234">
        <ele>153.202610</ele>
        <time>2026-08-14T04:06:00.000Z</time>
      </trkpt>
      <trkpt lat="22.787065" lon="108.709254">
        <ele>153.366844</ele>
        <time>2026-08-14T04:06:01.000Z</time>
      </trkpt>
      <trkpt lat="22.787070" lon="108.709275">
        <ele>153.530231</ele>
        <time>2026-08-14T04:06:02.000Z</time>
      </trkpt>
      <trkpt lat="22.787078" lon="108.709296">
        <ele>153.701402</ele>
        <time>2026-08-14T04:06:03.000Z</time>
      </trkpt>
      <trkpt lat="22.787088" lon="108.709320">
        <ele>153.899805</ele>
        <time>2026-08-14T04:06:04.000Z</time>
      </trkpt>
      <trkpt lat="22.787098" lon="108.709341">
        <ele>154.077858</ele>
        <time>2026-08-14T04:06:05.000Z</time>
      </trkpt>
      <trkpt lat="22.787110" lon="108.709361">
        <ele>154.257618</ele>
        <time>2026-08-14T04:06:06.000Z</time>
      </trkpt>
      <trkpt lat="22.787121" lon="108.709381">
        <ele>154.433055</ele>
        <time>2026-08-14T04:06:07.000Z</time>
      </trkpt>
      <trkpt lat="22.787134" lon="108.709404">
        <ele>154.636288</ele>
        <time>2026-08-14T04:06:08.000Z</time>
      </trkpt>
      <trkpt lat="22.787145" lon="108.709425">
        <ele>154.818235</ele>
        <time>2026-08-14T04:06:09.000Z</time>
      </trkpt>
      <trkpt lat="22.787155" lon="108.709445">
        <ele>154.989630</ele>
        <time>2026-08-14T04:06:10.000Z</time>
      </trkpt>
      <trkpt lat="22.787168" lon="108.709467">
        <ele>155.186479</ele>
        <time>2026-08-14T04:06:11.000Z</time>
      </trkpt>
      <trkpt lat="22.787181" lon="108.709487">
        <ele>155.370824</ele>
        <time>2026-08-14T04:06:12.000Z</time>
      </trkpt>
      <trkpt lat="22.787194" lon="108.709507">
        <ele>155.555168</ele>
        <time>2026-08-14T04:06:13.000Z</time>
      </trkpt>
      <trkpt lat="22.787207" lon="108.709526">
        <ele>155.733408</ele>
        <time>2026-08-14T04:06:14.000Z</time>
      </trkpt>
      <trkpt lat="22.787217" lon="108.709546">
        <ele>155.904803</ele>
        <time>2026-08-14T04:06:15.000Z</time>
      </trkpt>
      <trkpt lat="22.787229" lon="108.709565">
        <ele>156.078298</ele>
        <time>2026-08-14T04:06:16.000Z</time>
      </trkpt>
      <trkpt lat="22.787241" lon="108.709583">
        <ele>156.245632</ele>
        <time>2026-08-14T04:06:17.000Z</time>
      </trkpt>
      <trkpt lat="22.787255" lon="108.709603">
        <ele>156.434802</ele>
        <time>2026-08-14T04:06:18.000Z</time>
      </trkpt>
      <trkpt lat="22.787267" lon="108.709622">
        <ele>156.608297</ele>
        <time>2026-08-14T04:06:19.000Z</time>
      </trkpt>
      <trkpt lat="22.787278" lon="108.709639">
        <ele>156.764755</ele>
        <time>2026-08-14T04:06:20.000Z</time>
      </trkpt>
      <trkpt lat="22.787289" lon="108.709657">
        <ele>156.927436</ele>
        <time>2026-08-14T04:06:21.000Z</time>
      </trkpt>
      <trkpt lat="22.787299" lon="108.709675">
        <ele>157.085749</ele>
        <time>2026-08-14T04:06:22.000Z</time>
      </trkpt>
      <trkpt lat="22.787311" lon="108.709695">
        <ele>157.265509</ele>
        <time>2026-08-14T04:06:23.000Z</time>
      </trkpt>
      <trkpt lat="22.787323" lon="108.709712">
        <ele>157.426799</ele>
        <time>2026-08-14T04:06:24.000Z</time>
      </trkpt>
      <trkpt lat="22.787335" lon="108.709729">
        <ele>157.588089</ele>
        <time>2026-08-14T04:06:25.000Z</time>
      </trkpt>
      <trkpt lat="22.787347" lon="108.709746">
        <ele>157.749380</ele>
        <time>2026-08-14T04:06:26.000Z</time>
      </trkpt>
      <trkpt lat="22.787357" lon="108.709764">
        <ele>157.907693</ele>
        <time>2026-08-14T04:06:27.000Z</time>
      </trkpt>
      <trkpt lat="22.787368" lon="108.709786">
        <ele>158.096227</ele>
        <time>2026-08-14T04:06:28.000Z</time>
      </trkpt>
      <trkpt lat="22.787376" lon="108.709806">
        <ele>158.260460</ele>
        <time>2026-08-14T04:06:29.000Z</time>
      </trkpt>
      <trkpt lat="22.787383" lon="108.709825">
        <ele>158.414595</ele>
        <time>2026-08-14T04:06:30.000Z</time>
      </trkpt>
      <trkpt lat="22.787390" lon="108.709844">
        <ele>158.564199</ele>
        <time>2026-08-14T04:06:31.000Z</time>
      </trkpt>
      <trkpt lat="22.787395" lon="108.709864">
        <ele>158.548599</ele>
        <time>2026-08-14T04:06:32.000Z</time>
      </trkpt>
      <trkpt lat="22.787401" lon="108.709886">
        <ele>158.531328</ele>
        <time>2026-08-14T04:06:33.000Z</time>
      </trkpt>
      <trkpt lat="22.787409" lon="108.709904">
        <ele>158.516285</ele>
        <time>2026-08-14T04:06:34.000Z</time>
      </trkpt>
      <trkpt lat="22.787418" lon="108.709921">
        <ele>158.501527</ele>
        <time>2026-08-14T04:06:35.000Z</time>
      </trkpt>
      <trkpt lat="22.787427" lon="108.709940">
        <ele>158.485446</ele>
        <time>2026-08-14T04:06:36.000Z</time>
      </trkpt>
      <trkpt lat="22.787434" lon="108.709959">
        <ele>158.470043</ele>
        <time>2026-08-14T04:06:37.000Z</time>
      </trkpt>
      <trkpt lat="22.787440" lon="108.709979">
        <ele>158.454210</ele>
        <time>2026-08-14T04:06:38.000Z</time>
      </trkpt>
      <trkpt lat="22.787447" lon="108.710000">
        <ele>158.437400</ele>
        <time>2026-08-14T04:06:39.000Z</time>
      </trkpt>
      <trkpt lat="22.787452" lon="108.710021">
        <ele>158.421072</ele>
        <time>2026-08-14T04:06:40.000Z</time>
      </trkpt>
      <trkpt lat="22.787457" lon="108.710044">
        <ele>158.403282</ele>
        <time>2026-08-14T04:06:41.000Z</time>
      </trkpt>
      <trkpt lat="22.787462" lon="108.710067">
        <ele>158.385493</ele>
        <time>2026-08-14T04:06:42.000Z</time>
      </trkpt>
      <trkpt lat="22.787468" lon="108.710091">
        <ele>158.366773</ele>
        <time>2026-08-14T04:06:43.000Z</time>
      </trkpt>
      <trkpt lat="22.787472" lon="108.710115">
        <ele>158.348413</ele>
        <time>2026-08-14T04:06:44.000Z</time>
      </trkpt>
      <trkpt lat="22.787477" lon="108.710140">
        <ele>158.329155</ele>
        <time>2026-08-14T04:06:45.000Z</time>
      </trkpt>
      <trkpt lat="22.787481" lon="108.710167">
        <ele>158.308568</ele>
        <time>2026-08-14T04:06:46.000Z</time>
      </trkpt>
      <trkpt lat="22.787483" lon="108.710195">
        <ele>158.287427</ele>
        <time>2026-08-14T04:06:47.000Z</time>
      </trkpt>
      <trkpt lat="22.787483" lon="108.710225">
        <ele>158.264842</ele>
        <time>2026-08-14T04:06:48.000Z</time>
      </trkpt>
      <trkpt lat="22.787481" lon="108.710253">
        <ele>158.243700</ele>
        <time>2026-08-14T04:06:49.000Z</time>
      </trkpt>
      <trkpt lat="22.787477" lon="108.710284">
        <ele>158.220136</ele>
        <time>2026-08-14T04:06:50.000Z</time>
      </trkpt>
      <trkpt lat="22.787472" lon="108.710316">
        <ele>158.195703</ele>
        <time>2026-08-14T04:06:51.000Z</time>
      </trkpt>
      <trkpt lat="22.787467" lon="108.710347">
        <ele>158.172011</ele>
        <time>2026-08-14T04:06:52.000Z</time>
      </trkpt>
      <trkpt lat="22.787463" lon="108.710380">
        <ele>158.146955</ele>
        <time>2026-08-14T04:06:53.000Z</time>
      </trkpt>
      <trkpt lat="22.787458" lon="108.710416">
        <ele>158.119548</ele>
        <time>2026-08-14T04:06:54.000Z</time>
      </trkpt>
      <trkpt lat="22.787450" lon="108.710451">
        <ele>158.092402</ele>
        <time>2026-08-14T04:06:55.000Z</time>
      </trkpt>
      <trkpt lat="22.787443" lon="108.710485">
        <ele>158.066176</ele>
        <time>2026-08-14T04:06:56.000Z</time>
      </trkpt>
      <trkpt lat="22.787433" lon="108.710521">
        <ele>158.037871</ele>
        <time>2026-08-14T04:06:57.000Z</time>
      </trkpt>
      <trkpt lat="22.787422" lon="108.710559">
        <ele>158.007888</ele>
        <time>2026-08-14T04:06:58.000Z</time>
      </trkpt>
      <trkpt lat="22.787409" lon="108.710599">
        <ele>157.975959</ele>
        <time>2026-08-14T04:06:59.000Z</time>
      </trkpt>
      <trkpt lat="22.787396" lon="108.710645">
        <ele>157.939739</ele>
        <time>2026-08-14T04:07:00.000Z</time>
      </trkpt>
      <trkpt lat="22.787383" lon="108.710688">
        <ele>157.905673</ele>
        <time>2026-08-14T04:07:01.000Z</time>
      </trkpt>
      <trkpt lat="22.787366" lon="108.710730">
        <ele>157.871142</ele>
        <time>2026-08-14T04:07:02.000Z</time>
      </trkpt>
      <trkpt lat="22.787344" lon="108.710775">
        <ele>157.832797</ele>
        <time>2026-08-14T04:07:03.000Z</time>
      </trkpt>
      <trkpt lat="22.787317" lon="108.710827">
        <ele>157.787870</ele>
        <time>2026-08-14T04:07:04.000Z</time>
      </trkpt>
      <trkpt lat="22.787292" lon="108.710886">
        <ele>157.738987</ele>
        <time>2026-08-14T04:07:05.000Z</time>
      </trkpt>
      <trkpt lat="22.787268" lon="108.710951">
        <ele>157.686276</ele>
        <time>2026-08-14T04:07:06.000Z</time>
      </trkpt>
      <trkpt lat="22.787240" lon="108.711017">
        <ele>157.631583</ele>
        <time>2026-08-14T04:07:07.000Z</time>
      </trkpt>
      <trkpt lat="22.787216" lon="108.711084">
        <ele>157.577471</ele>
        <time>2026-08-14T04:07:08.000Z</time>
      </trkpt>
      <trkpt lat="22.787196" lon="108.711152">
        <ele>157.523739</ele>
        <time>2026-08-14T04:07:09.000Z</time>
      </trkpt>
      <trkpt lat="22.787180" lon="108.711221">
        <ele>157.470177</ele>
        <time>2026-08-14T04:07:10.000Z</time>
      </trkpt>
      <trkpt lat="22.787171" lon="108.711289">
        <ele>157.418461</ele>
        <time>2026-08-14T04:07:11.000Z</time>
      </trkpt>
      <trkpt lat="22.787167" lon="108.711358">
        <ele>157.366414</ele>
        <time>2026-08-14T04:07:12.000Z</time>
      </trkpt>
      <trkpt lat="22.787166" lon="108.711429">
        <ele>157.312959</ele>
        <time>2026-08-14T04:07:13.000Z</time>
      </trkpt>
      <trkpt lat="22.787169" lon="108.711502">
        <ele>157.257949</ele>
        <time>2026-08-14T04:07:14.000Z</time>
      </trkpt>
      <trkpt lat="22.787174" lon="108.711574">
        <ele>157.203593</ele>
        <time>2026-08-14T04:07:15.000Z</time>
      </trkpt>
      <trkpt lat="22.787177" lon="108.711645">
        <ele>157.150087</ele>
        <time>2026-08-14T04:07:16.000Z</time>
      </trkpt>
      <trkpt lat="22.787181" lon="108.711713">
        <ele>157.098792</ele>
        <time>2026-08-14T04:07:17.000Z</time>
      </trkpt>
      <trkpt lat="22.787183" lon="108.711781">
        <ele>156.952702</ele>
        <time>2026-08-14T04:07:18.000Z</time>
      </trkpt>
      <trkpt lat="22.787182" lon="108.711848">
        <ele>156.803312</ele>
        <time>2026-08-14T04:07:19.000Z</time>
      </trkpt>
      <trkpt lat="22.787180" lon="108.711916">
        <ele>156.651635</ele>
        <time>2026-08-14T04:07:20.000Z</time>
      </trkpt>
      <trkpt lat="22.787179" lon="108.711983">
        <ele>156.502245</ele>
        <time>2026-08-14T04:07:21.000Z</time>
      </trkpt>
      <trkpt lat="22.787180" lon="108.712050">
        <ele>156.352855</ele>
        <time>2026-08-14T04:07:22.000Z</time>
      </trkpt>
      <trkpt lat="22.787183" lon="108.712117">
        <ele>156.203308</ele>
        <time>2026-08-14T04:07:23.000Z</time>
      </trkpt>
      <trkpt lat="22.787185" lon="108.712184">
        <ele>156.053859</ele>
        <time>2026-08-14T04:07:24.000Z</time>
      </trkpt>
      <trkpt lat="22.787187" lon="108.712251">
        <ele>155.904411</ele>
        <time>2026-08-14T04:07:25.000Z</time>
      </trkpt>
      <trkpt lat="22.787187" lon="108.712317">
        <ele>155.757270</ele>
        <time>2026-08-14T04:07:26.000Z</time>
      </trkpt>
      <trkpt lat="22.787191" lon="108.712381">
        <ele>155.614260</ele>
        <time>2026-08-14T04:07:27.000Z</time>
      </trkpt>
      <trkpt lat="22.787192" lon="108.712445">
        <ele>155.471557</ele>
        <time>2026-08-14T04:07:28.000Z</time>
      </trkpt>
      <trkpt lat="22.787191" lon="108.712509">
        <ele>155.328854</ele>
        <time>2026-08-14T04:07:29.000Z</time>
      </trkpt>
      <trkpt lat="22.787189" lon="108.712566">
        <ele>155.201686</ele>
        <time>2026-08-14T04:07:30.000Z</time>
      </trkpt>
      <trkpt lat="22.787181" lon="108.712621">
        <ele>155.077552</ele>
        <time>2026-08-14T04:07:31.000Z</time>
      </trkpt>
      <trkpt lat="22.787172" lon="108.712681">
        <ele>154.942028</ele>
        <time>2026-08-14T04:07:32.000Z</time>
      </trkpt>
      <trkpt lat="22.787163" lon="108.712736">
        <ele>154.817494</ele>
        <time>2026-08-14T04:07:33.000Z</time>
      </trkpt>
      <trkpt lat="22.787154" lon="108.712793">
        <ele>154.688568</ele>
        <time>2026-08-14T04:07:34.000Z</time>
      </trkpt>
      <trkpt lat="22.787143" lon="108.712850">
        <ele>154.558737</ele>
        <time>2026-08-14T04:07:35.000Z</time>
      </trkpt>
      <trkpt lat="22.787130" lon="108.712906">
        <ele>154.429993</ele>
        <time>2026-08-14T04:07:36.000Z</time>
      </trkpt>
      <trkpt lat="22.787111" lon="108.712963">
        <ele>154.294866</ele>
        <time>2026-08-14T04:07:37.000Z</time>
      </trkpt>
      <trkpt lat="22.787092" lon="108.713016">
        <ele>154.168089</ele>
        <time>2026-08-14T04:07:38.000Z</time>
      </trkpt>
      <trkpt lat="22.787069" lon="108.713073">
        <ele>154.029375</ele>
        <time>2026-08-14T04:07:39.000Z</time>
      </trkpt>
      <trkpt lat="22.787042" lon="108.713124">
        <ele>153.898262</ele>
        <time>2026-08-14T04:07:40.000Z</time>
      </trkpt>
      <trkpt lat="22.787012" lon="108.713172">
        <ele>153.768979</ele>
        <time>2026-08-14T04:07:41.000Z</time>
      </trkpt>
      <trkpt lat="22.786978" lon="108.713222">
        <ele>153.630468</ele>
        <time>2026-08-14T04:07:42.000Z</time>
      </trkpt>
      <trkpt lat="22.786944" lon="108.713278">
        <ele>153.480980</ele>
        <time>2026-08-14T04:07:43.000Z</time>
      </trkpt>
      <trkpt lat="22.786907" lon="108.713334">
        <ele>153.327384</ele>
        <time>2026-08-14T04:07:44.000Z</time>
      </trkpt>
      <trkpt lat="22.786868" lon="108.713388">
        <ele>153.174454</ele>
        <time>2026-08-14T04:07:45.000Z</time>
      </trkpt>
      <trkpt lat="22.786826" lon="108.713443">
        <ele>153.015237</ele>
        <time>2026-08-14T04:07:46.000Z</time>
      </trkpt>
      <trkpt lat="22.786784" lon="108.713496">
        <ele>152.859429</ele>
        <time>2026-08-14T04:07:47.000Z</time>
      </trkpt>
      <trkpt lat="22.786740" lon="108.713549">
        <ele>152.709159</ele>
        <time>2026-08-14T04:07:48.000Z</time>
      </trkpt>
      <trkpt lat="22.786691" lon="108.713604">
        <ele>152.570928</ele>
        <time>2026-08-14T04:07:49.000Z</time>
      </trkpt>
      <trkpt lat="22.786642" lon="108.713662">
        <ele>152.428748</ele>
        <time>2026-08-14T04:07:50.000Z</time>
      </trkpt>
      <trkpt lat="22.786593" lon="108.713720">
        <ele>152.286568</ele>
        <time>2026-08-14T04:07:51.000Z</time>
      </trkpt>
      <trkpt lat="22.786544" lon="108.713769">
        <ele>152.155918</ele>
        <time>2026-08-14T04:07:52.000Z</time>
      </trkpt>
      <trkpt lat="22.786498" lon="108.713830">
        <ele>152.013489</ele>
        <time>2026-08-14T04:07:53.000Z</time>
      </trkpt>
      <trkpt lat="22.786448" lon="108.713888">
        <ele>151.869977</ele>
        <time>2026-08-14T04:07:54.000Z</time>
      </trkpt>
      <trkpt lat="22.786402" lon="108.713953">
        <ele>151.721881</ele>
        <time>2026-08-14T04:07:55.000Z</time>
      </trkpt>
      <trkpt lat="22.786348" lon="108.714015">
        <ele>151.567731</ele>
        <time>2026-08-14T04:07:56.000Z</time>
      </trkpt>
      <trkpt lat="22.786297" lon="108.714071">
        <ele>151.425467</ele>
        <time>2026-08-14T04:07:57.000Z</time>
      </trkpt>
      <trkpt lat="22.786251" lon="108.714145">
        <ele>151.264164</ele>
        <time>2026-08-14T04:07:58.000Z</time>
      </trkpt>
      <trkpt lat="22.786197" lon="108.714210">
        <ele>151.106029</ele>
        <time>2026-08-14T04:07:59.000Z</time>
      </trkpt>
      <trkpt lat="22.786146" lon="108.714272">
        <ele>150.955856</ele>
        <time>2026-08-14T04:08:00.000Z</time>
      </trkpt>
      <trkpt lat="22.786095" lon="108.714337">
        <ele>150.801596</ele>
        <time>2026-08-14T04:08:01.000Z</time>
      </trkpt>
      <trkpt lat="22.786050" lon="108.714408">
        <ele>150.645878</ele>
        <time>2026-08-14T04:08:02.000Z</time>
      </trkpt>
      <trkpt lat="22.786011" lon="108.714477">
        <ele>150.499601</ele>
        <time>2026-08-14T04:08:03.000Z</time>
      </trkpt>
      <trkpt lat="22.785972" lon="108.714547">
        <ele>150.351781</ele>
        <time>2026-08-14T04:08:04.000Z</time>
      </trkpt>
      <trkpt lat="22.785931" lon="108.714618">
        <ele>150.200367</ele>
        <time>2026-08-14T04:08:05.000Z</time>
      </trkpt>
      <trkpt lat="22.785894" lon="108.714680">
        <ele>150.066885</ele>
        <time>2026-08-14T04:08:06.000Z</time>
      </trkpt>
      <trkpt lat="22.785863" lon="108.714732">
        <ele>149.954967</ele>
        <time>2026-08-14T04:08:07.000Z</time>
      </trkpt>
      <trkpt lat="22.785840" lon="108.714778">
        <ele>149.860390</ele>
        <time>2026-08-14T04:08:08.000Z</time>
      </trkpt>
      <trkpt lat="22.785823" lon="108.714821">
        <ele>149.775831</ele>
        <time>2026-08-14T04:08:09.000Z</time>
      </trkpt>
      <trkpt lat="22.785808" lon="108.714859">
        <ele>149.701121</ele>
        <time>2026-08-14T04:08:10.000Z</time>
      </trkpt>
      <trkpt lat="22.785791" lon="108.714893">
        <ele>149.631217</ele>
        <time>2026-08-14T04:08:11.000Z</time>
      </trkpt>
      <trkpt lat="22.785777" lon="108.714916">
        <ele>149.581405</ele>
        <time>2026-08-14T04:08:12.000Z</time>
      </trkpt>
      <trkpt lat="22.785774" lon="108.714922">
        <ele>149.569069</ele>
        <time>2026-08-14T04:08:13.000Z</time>
      </trkpt>
      <trkpt lat="22.785767" lon="108.714985">
        <ele>149.454382</ele>
        <time>2026-08-14T04:08:54.000Z</time>
      </trkpt>
      <trkpt lat="22.785764" lon="108.714979">
        <ele>149.442046</ele>
        <time>2026-08-14T04:08:55.000Z</time>
      </trkpt>
      <trkpt lat="22.785759" lon="108.714974">
        <ele>149.428715</ele>
        <time>2026-08-14T04:08:56.000Z</time>
      </trkpt>
      <trkpt lat="22.785694" lon="108.714860">
        <ele>149.221819</ele>
        <time>2026-08-14T04:10:42.000Z</time>
      </trkpt>
      <trkpt lat="22.785686" lon="108.714877">
        <ele>149.223026</ele>
        <time>2026-08-14T04:10:43.000Z</time>
      </trkpt>
      <trkpt lat="22.785689" lon="108.714886">
        <ele>149.223631</ele>
        <time>2026-08-14T04:10:44.000Z</time>
      </trkpt>
      <trkpt lat="22.785769" lon="108.714968">
        <ele>149.231176</ele>
        <time>2026-08-14T04:38:41.000Z</time>
      </trkpt>
      <trkpt lat="22.785767" lon="108.714981">
        <ele>149.232009</ele>
        <time>2026-08-14T04:38:42.000Z</time>
      </trkpt>
      <trkpt lat="22.785761" lon="108.714994">
        <ele>149.232928</ele>
        <time>2026-08-14T04:38:43.000Z</time>
      </trkpt>
      <trkpt lat="22.785754" lon="108.715008">
        <ele>149.233935</ele>
        <time>2026-08-14T04:38:44.000Z</time>
      </trkpt>
      <trkpt lat="22.785747" lon="108.715024">
        <ele>149.235054</ele>
        <time>2026-08-14T04:38:45.000Z</time>
      </trkpt>
      <trkpt lat="22.785741" lon="108.715043">
        <ele>149.236324</ele>
        <time>2026-08-14T04:38:46.000Z</time>
      </trkpt>
      <trkpt lat="22.785734" lon="108.715066">
        <ele>149.237854</ele>
        <time>2026-08-14T04:38:47.000Z</time>
      </trkpt>
      <trkpt lat="22.785726" lon="108.715086">
        <ele>149.239232</ele>
        <time>2026-08-14T04:38:48.000Z</time>
      </trkpt>
      <trkpt lat="22.785721" lon="108.715112">
        <ele>149.240911</ele>
        <time>2026-08-14T04:38:49.000Z</time>
      </trkpt>
      <trkpt lat="22.785714" lon="108.715138">
        <ele>149.242623</ele>
        <time>2026-08-14T04:38:50.000Z</time>
      </trkpt>
      <trkpt lat="22.785709" lon="108.715160">
        <ele>149.244055</ele>
        <time>2026-08-14T04:38:51.000Z</time>
      </trkpt>
      <trkpt lat="22.785701" lon="108.715180">
        <ele>149.245433</ele>
        <time>2026-08-14T04:38:52.000Z</time>
      </trkpt>
      <trkpt lat="22.785695" lon="108.715200">
        <ele>149.246762</ele>
        <time>2026-08-14T04:38:53.000Z</time>
      </trkpt>
      <trkpt lat="22.785687" lon="108.715222">
        <ele>149.248257</ele>
        <time>2026-08-14T04:38:54.000Z</time>
      </trkpt>
      <trkpt lat="22.785681" lon="108.715251">
        <ele>149.250136</ele>
        <time>2026-08-14T04:38:55.000Z</time>
      </trkpt>
      <trkpt lat="22.785671" lon="108.715282">
        <ele>149.252211</ele>
        <time>2026-08-14T04:38:56.000Z</time>
      </trkpt>
      <trkpt lat="22.785662" lon="108.715324">
        <ele>149.254937</ele>
        <time>2026-08-14T04:38:57.000Z</time>
      </trkpt>
      <trkpt lat="22.785656" lon="108.715368">
        <ele>149.257748</ele>
        <time>2026-08-14T04:38:58.000Z</time>
      </trkpt>
      <trkpt lat="22.785647" lon="108.715414">
        <ele>149.260720</ele>
        <time>2026-08-14T04:38:59.000Z</time>
      </trkpt>
      <trkpt lat="22.785641" lon="108.715454">
        <ele>149.263281</ele>
        <time>2026-08-14T04:39:00.000Z</time>
      </trkpt>
      <trkpt lat="22.785632" lon="108.715501">
        <ele>149.266315</ele>
        <time>2026-08-14T04:39:01.000Z</time>
      </trkpt>
      <trkpt lat="22.785627" lon="108.715555">
        <ele>149.269746</ele>
        <time>2026-08-14T04:39:02.000Z</time>
      </trkpt>
      <trkpt lat="22.785621" lon="108.715600">
        <ele>149.272619</ele>
        <time>2026-08-14T04:39:03.000Z</time>
      </trkpt>
      <trkpt lat="22.785614" lon="108.715645">
        <ele>149.275504</ele>
        <time>2026-08-14T04:39:04.000Z</time>
      </trkpt>
      <trkpt lat="22.785608" lon="108.715694">
        <ele>149.278628</ele>
        <time>2026-08-14T04:39:05.000Z</time>
      </trkpt>
      <trkpt lat="22.785605" lon="108.715745">
        <ele>149.281858</ele>
        <time>2026-08-14T04:39:06.000Z</time>
      </trkpt>
      <trkpt lat="22.785605" lon="108.715803">
        <ele>149.285524</ele>
        <time>2026-08-14T04:39:07.000Z</time>
      </trkpt>
      <trkpt lat="22.785601" lon="108.715856">
        <ele>149.288885</ele>
        <time>2026-08-14T04:39:08.000Z</time>
      </trkpt>
      <trkpt lat="22.785597" lon="108.715903">
        <ele>149.291868</ele>
        <time>2026-08-14T04:39:09.000Z</time>
      </trkpt>
      <trkpt lat="22.785591" lon="108.715949">
        <ele>149.294804</ele>
        <time>2026-08-14T04:39:10.000Z</time>
      </trkpt>
      <trkpt lat="22.785584" lon="108.715993">
        <ele>149.297626</ele>
        <time>2026-08-14T04:39:11.000Z</time>
      </trkpt>
      <trkpt lat="22.785579" lon="108.716034">
        <ele>149.300240</ele>
        <time>2026-08-14T04:39:12.000Z</time>
      </trkpt>
      <trkpt lat="22.785575" lon="108.716074">
        <ele>149.302783</ele>
        <time>2026-08-14T04:39:13.000Z</time>
      </trkpt>
      <trkpt lat="22.785571" lon="108.716114">
        <ele>149.305326</ele>
        <time>2026-08-14T04:39:14.000Z</time>
      </trkpt>
      <trkpt lat="22.785567" lon="108.716153">
        <ele>149.307807</ele>
        <time>2026-08-14T04:39:15.000Z</time>
      </trkpt>
      <trkpt lat="22.785566" lon="108.716193">
        <ele>149.310336</ele>
        <time>2026-08-14T04:39:16.000Z</time>
      </trkpt>
      <trkpt lat="22.785565" lon="108.716233">
        <ele>149.312865</ele>
        <time>2026-08-14T04:39:17.000Z</time>
      </trkpt>
      <trkpt lat="22.785560" lon="108.716271">
        <ele>149.315291</ele>
        <time>2026-08-14T04:39:18.000Z</time>
      </trkpt>
      <trkpt lat="22.785554" lon="108.716308">
        <ele>149.317665</ele>
        <time>2026-08-14T04:39:19.000Z</time>
      </trkpt>
      <trkpt lat="22.785548" lon="108.716344">
        <ele>149.319978</ele>
        <time>2026-08-14T04:39:20.000Z</time>
      </trkpt>
      <trkpt lat="22.785542" lon="108.716382">
        <ele>149.322414</ele>
        <time>2026-08-14T04:39:21.000Z</time>
      </trkpt>
      <trkpt lat="22.785539" lon="108.716423">
        <ele>149.325014</ele>
        <time>2026-08-14T04:39:22.000Z</time>
      </trkpt>
      <trkpt lat="22.785535" lon="108.716462">
        <ele>149.327494</ele>
        <time>2026-08-14T04:39:23.000Z</time>
      </trkpt>
      <trkpt lat="22.785534" lon="108.716508">
        <ele>149.330402</ele>
        <time>2026-08-14T04:39:24.000Z</time>
      </trkpt>
      <trkpt lat="22.785529" lon="108.716554">
        <ele>149.333330</ele>
        <time>2026-08-14T04:39:25.000Z</time>
      </trkpt>
      <trkpt lat="22.785522" lon="108.716600">
        <ele>149.336276</ele>
        <time>2026-08-14T04:39:26.000Z</time>
      </trkpt>
      <trkpt lat="22.785514" lon="108.716644">
        <ele>149.339111</ele>
        <time>2026-08-14T04:39:27.000Z</time>
      </trkpt>
      <trkpt lat="22.785506" lon="108.716689">
        <ele>149.342008</ele>
        <time>2026-08-14T04:39:28.000Z</time>
      </trkpt>
      <trkpt lat="22.785497" lon="108.716733">
        <ele>149.330976</ele>
        <time>2026-08-14T04:39:29.000Z</time>
      </trkpt>
      <trkpt lat="22.785489" lon="108.716781">
        <ele>149.287911</ele>
        <time>2026-08-14T04:39:30.000Z</time>
      </trkpt>
      <trkpt lat="22.785481" lon="108.716828">
        <ele>149.245713</ele>
        <time>2026-08-14T04:39:31.000Z</time>
      </trkpt>
      <trkpt lat="22.785470" lon="108.716873">
        <ele>149.204610</ele>
        <time>2026-08-14T04:39:32.000Z</time>
      </trkpt>
      <trkpt lat="22.785457" lon="108.716919">
        <ele>149.162132</ele>
        <time>2026-08-14T04:39:33.000Z</time>
      </trkpt>
      <trkpt lat="22.785441" lon="108.716964">
        <ele>149.119550</ele>
        <time>2026-08-14T04:39:34.000Z</time>
      </trkpt>
      <trkpt lat="22.785428" lon="108.717011">
        <ele>149.076226</ele>
        <time>2026-08-14T04:39:35.000Z</time>
      </trkpt>
      <trkpt lat="22.785411" lon="108.717055">
        <ele>149.034106</ele>
        <time>2026-08-14T04:39:36.000Z</time>
      </trkpt>
      <trkpt lat="22.785395" lon="108.717103">
        <ele>148.989042</ele>
        <time>2026-08-14T04:39:37.000Z</time>
      </trkpt>
      <trkpt lat="22.785381" lon="108.717151">
        <ele>148.944593</ele>
        <time>2026-08-14T04:39:38.000Z</time>
      </trkpt>
      <trkpt lat="22.785368" lon="108.717200">
        <ele>148.899576</ele>
        <time>2026-08-14T04:39:39.000Z</time>
      </trkpt>
      <trkpt lat="22.785354" lon="108.717247">
        <ele>148.855968</ele>
        <time>2026-08-14T04:39:40.000Z</time>
      </trkpt>
      <trkpt lat="22.785340" lon="108.717294">
        <ele>148.812360</ele>
        <time>2026-08-14T04:39:41.000Z</time>
      </trkpt>
      <trkpt lat="22.785324" lon="108.717338">
        <ele>148.770600</ele>
        <time>2026-08-14T04:39:42.000Z</time>
      </trkpt>
      <trkpt lat="22.785310" lon="108.717381">
        <ele>148.730338</ele>
        <time>2026-08-14T04:39:43.000Z</time>
      </trkpt>
      <trkpt lat="22.785295" lon="108.717428">
        <ele>148.686426</ele>
        <time>2026-08-14T04:39:44.000Z</time>
      </trkpt>
      <trkpt lat="22.785280" lon="108.717472">
        <ele>148.645007</ele>
        <time>2026-08-14T04:39:45.000Z</time>
      </trkpt>
      <trkpt lat="22.785269" lon="108.717521">
        <ele>148.600482</ele>
        <time>2026-08-14T04:39:46.000Z</time>
      </trkpt>
      <trkpt lat="22.785256" lon="108.717570">
        <ele>148.555464</ele>
        <time>2026-08-14T04:39:47.000Z</time>
      </trkpt>
      <trkpt lat="22.785240" lon="108.717619">
        <ele>148.509569</ele>
        <time>2026-08-14T04:39:48.000Z</time>
      </trkpt>
      <trkpt lat="22.785225" lon="108.717671">
        <ele>148.461464</ele>
        <time>2026-08-14T04:39:49.000Z</time>
      </trkpt>
      <trkpt lat="22.785207" lon="108.717719">
        <ele>148.415713</ele>
        <time>2026-08-14T04:39:50.000Z</time>
      </trkpt>
      <trkpt lat="22.785191" lon="108.717770">
        <ele>148.368150</ele>
        <time>2026-08-14T04:39:51.000Z</time>
      </trkpt>
      <trkpt lat="22.785173" lon="108.717817">
        <ele>148.323216</ele>
        <time>2026-08-14T04:39:52.000Z</time>
      </trkpt>
      <trkpt lat="22.785154" lon="108.717865">
        <ele>148.277097</ele>
        <time>2026-08-14T04:39:53.000Z</time>
      </trkpt>
      <trkpt lat="22.785137" lon="108.717913">
        <ele>148.231698</ele>
        <time>2026-08-14T04:39:54.000Z</time>
      </trkpt>
      <trkpt lat="22.785128" lon="108.717963">
        <ele>148.186720</ele>
        <time>2026-08-14T04:39:55.000Z</time>
      </trkpt>
      <trkpt lat="22.785116" lon="108.718009">
        <ele>148.144512</ele>
        <time>2026-08-14T04:39:56.000Z</time>
      </trkpt>
      <trkpt lat="22.785110" lon="108.718055">
        <ele>148.103495</ele>
        <time>2026-08-14T04:39:57.000Z</time>
      </trkpt>
      <trkpt lat="22.785098" lon="108.718104">
        <ele>148.058733</ele>
        <time>2026-08-14T04:39:58.000Z</time>
      </trkpt>
      <trkpt lat="22.785079" lon="108.718147">
        <ele>148.016633</ele>
        <time>2026-08-14T04:39:59.000Z</time>
      </trkpt>
      <trkpt lat="22.785062" lon="108.718191">
        <ele>147.974512</ele>
        <time>2026-08-14T04:40:00.000Z</time>
      </trkpt>
      <trkpt lat="22.785050" lon="108.718237">
        <ele>147.932305</ele>
        <time>2026-08-14T04:40:01.000Z</time>
      </trkpt>
      <trkpt lat="22.785036" lon="108.718278">
        <ele>147.893703</ele>
        <time>2026-08-14T04:40:02.000Z</time>
      </trkpt>
      <trkpt lat="22.785019" lon="108.718319">
        <ele>147.854012</ele>
        <time>2026-08-14T04:40:03.000Z</time>
      </trkpt>
      <trkpt lat="22.785006" lon="108.718357">
        <ele>147.818227</ele>
        <time>2026-08-14T04:40:04.000Z</time>
      </trkpt>
      <trkpt lat="22.784989" lon="108.718396">
        <ele>147.780139</ele>
        <time>2026-08-14T04:40:05.000Z</time>
      </trkpt>
      <trkpt lat="22.784971" lon="108.718440">
        <ele>147.737639</ele>
        <time>2026-08-14T04:40:06.000Z</time>
      </trkpt>
      <trkpt lat="22.784960" lon="108.718487">
        <ele>147.694827</ele>
        <time>2026-08-14T04:40:07.000Z</time>
      </trkpt>
      <trkpt lat="22.784949" lon="108.718532">
        <ele>147.653724</ele>
        <time>2026-08-14T04:40:08.000Z</time>
      </trkpt>
      <trkpt lat="22.784938" lon="108.718573">
        <ele>147.603627</ele>
        <time>2026-08-14T04:40:09.000Z</time>
      </trkpt>
      <trkpt lat="22.784925" lon="108.718613">
        <ele>147.481446</ele>
        <time>2026-08-14T04:40:10.000Z</time>
      </trkpt>
      <trkpt lat="22.784904" lon="108.718651">
        <ele>147.353817</ele>
        <time>2026-08-14T04:40:11.000Z</time>
      </trkpt>
      <trkpt lat="22.784889" lon="108.718699">
        <ele>147.207813</ele>
        <time>2026-08-14T04:40:12.000Z</time>
      </trkpt>
      <trkpt lat="22.784879" lon="108.718744">
        <ele>147.074465</ele>
        <time>2026-08-14T04:40:13.000Z</time>
      </trkpt>
      <trkpt lat="22.784863" lon="108.718783">
        <ele>146.951494</ele>
        <time>2026-08-14T04:40:14.000Z</time>
      </trkpt>
      <trkpt lat="22.784851" lon="108.718833">
        <ele>146.802655</ele>
        <time>2026-08-14T04:40:15.000Z</time>
      </trkpt>
      <trkpt lat="22.784839" lon="108.718888">
        <ele>146.639836</ele>
        <time>2026-08-14T04:40:16.000Z</time>
      </trkpt>
      <trkpt lat="22.784827" lon="108.718944">
        <ele>146.474212</ele>
        <time>2026-08-14T04:40:17.000Z</time>
      </trkpt>
      <trkpt lat="22.784813" lon="108.718999">
        <ele>146.309842</ele>
        <time>2026-08-14T04:40:18.000Z</time>
      </trkpt>
      <trkpt lat="22.784797" lon="108.719056">
        <ele>146.138196</ele>
        <time>2026-08-14T04:40:19.000Z</time>
      </trkpt>
      <trkpt lat="22.784780" lon="108.719113">
        <ele>145.965613</ele>
        <time>2026-08-14T04:40:20.000Z</time>
      </trkpt>
      <trkpt lat="22.784758" lon="108.719169">
        <ele>145.790255</ele>
        <time>2026-08-14T04:40:21.000Z</time>
      </trkpt>
      <trkpt lat="22.784728" lon="108.719226">
        <ele>145.601178</ele>
        <time>2026-08-14T04:40:22.000Z</time>
      </trkpt>
      <trkpt lat="22.784709" lon="108.719283">
        <ele>145.426571</ele>
        <time>2026-08-14T04:40:23.000Z</time>
      </trkpt>
      <trkpt lat="22.784688" lon="108.719342">
        <ele>145.244379</ele>
        <time>2026-08-14T04:40:24.000Z</time>
      </trkpt>
      <trkpt lat="22.784668" lon="108.719399">
        <ele>145.068685</ele>
        <time>2026-08-14T04:40:25.000Z</time>
      </trkpt>
      <trkpt lat="22.784652" lon="108.719457">
        <ele>144.894281</ele>
        <time>2026-08-14T04:40:26.000Z</time>
      </trkpt>
      <trkpt lat="22.784634" lon="108.719518">
        <ele>144.709772</ele>
        <time>2026-08-14T04:40:27.000Z</time>
      </trkpt>
      <trkpt lat="22.784615" lon="108.719579">
        <ele>144.524287</ele>
        <time>2026-08-14T04:40:28.000Z</time>
      </trkpt>
      <trkpt lat="22.784598" lon="108.719642">
        <ele>144.335184</ele>
        <time>2026-08-14T04:40:29.000Z</time>
      </trkpt>
      <trkpt lat="22.784576" lon="108.719698">
        <ele>144.159825</ele>
        <time>2026-08-14T04:40:30.000Z</time>
      </trkpt>
      <trkpt lat="22.784555" lon="108.719757">
        <ele>143.977633</ele>
        <time>2026-08-14T04:40:31.000Z</time>
      </trkpt>
      <trkpt lat="22.784533" lon="108.719820">
        <ele>143.783562</ele>
        <time>2026-08-14T04:40:32.000Z</time>
      </trkpt>
      <trkpt lat="22.784517" lon="108.719884">
        <ele>143.592533</ele>
        <time>2026-08-14T04:40:33.000Z</time>
      </trkpt>
      <trkpt lat="22.784497" lon="108.719952">
        <ele>143.386914</ele>
        <time>2026-08-14T04:40:34.000Z</time>
      </trkpt>
      <trkpt lat="22.784478" lon="108.720020">
        <ele>143.182222</ele>
        <time>2026-08-14T04:40:35.000Z</time>
      </trkpt>
      <trkpt lat="22.784457" lon="108.720092">
        <ele>142.964674</ele>
        <time>2026-08-14T04:40:36.000Z</time>
      </trkpt>
      <trkpt lat="22.784442" lon="108.720169">
        <ele>142.737956</ele>
        <time>2026-08-14T04:40:37.000Z</time>
      </trkpt>
      <trkpt lat="22.784421" lon="108.720247">
        <ele>142.503870</ele>
        <time>2026-08-14T04:40:38.000Z</time>
      </trkpt>
      <trkpt lat="22.784395" lon="108.720324">
        <ele>142.267641</ele>
        <time>2026-08-14T04:40:39.000Z</time>
      </trkpt>
      <trkpt lat="22.784371" lon="108.720403">
        <ele>142.028022</ele>
        <time>2026-08-14T04:40:40.000Z</time>
      </trkpt>
      <trkpt lat="22.784345" lon="108.720487">
        <ele>141.706310</ele>
        <time>2026-08-14T04:40:41.000Z</time>
      </trkpt>
      <trkpt lat="22.784314" lon="108.720562">
        <ele>141.400730</ele>
        <time>2026-08-14T04:40:42.000Z</time>
      </trkpt>
      <trkpt lat="22.784278" lon="108.720638">
        <ele>141.083060</ele>
        <time>2026-08-14T04:40:43.000Z</time>
      </trkpt>
      <trkpt lat="22.784238" lon="108.720713">
        <ele>140.760925</ele>
        <time>2026-08-14T04:40:44.000Z</time>
      </trkpt>
      <trkpt lat="22.784194" lon="108.720788">
        <ele>140.430419</ele>
        <time>2026-08-14T04:40:45.000Z</time>
      </trkpt>
      <trkpt lat="22.784141" lon="108.720853">
        <ele>140.107806</ele>
        <time>2026-08-14T04:40:46.000Z</time>
      </trkpt>
      <trkpt lat="22.784084" lon="108.720916">
        <ele>139.779636</ele>
        <time>2026-08-14T04:40:47.000Z</time>
      </trkpt>
      <trkpt lat="22.784023" lon="108.720976">
        <ele>139.447566</ele>
        <time>2026-08-14T04:40:48.000Z</time>
      </trkpt>
      <trkpt lat="22.783958" lon="108.721029">
        <ele>139.119645</ele>
        <time>2026-08-14T04:40:49.000Z</time>
      </trkpt>
      <trkpt lat="22.783891" lon="108.721082">
        <ele>138.785242</ele>
        <time>2026-08-14T04:40:50.000Z</time>
      </trkpt>
      <trkpt lat="22.783821" lon="108.721130">
        <ele>138.451283</ele>
        <time>2026-08-14T04:40:51.000Z</time>
      </trkpt>
      <trkpt lat="22.783749" lon="108.721179">
        <ele>138.108519</ele>
        <time>2026-08-14T04:40:52.000Z</time>
      </trkpt>
      <trkpt lat="22.783681" lon="108.721231">
        <ele>137.773005</ele>
        <time>2026-08-14T04:40:53.000Z</time>
      </trkpt>
      <trkpt lat="22.783611" lon="108.721284">
        <ele>137.428754</ele>
        <time>2026-08-14T04:40:54.000Z</time>
      </trkpt>
      <trkpt lat="22.783545" lon="108.721336">
        <ele>137.099798</ele>
        <time>2026-08-14T04:40:55.000Z</time>
      </trkpt>
      <trkpt lat="22.783481" lon="108.721391">
        <ele>136.770526</ele>
        <time>2026-08-14T04:40:56.000Z</time>
      </trkpt>
      <trkpt lat="22.783420" lon="108.721448">
        <ele>136.445843</ele>
        <time>2026-08-14T04:40:57.000Z</time>
      </trkpt>
      <trkpt lat="22.783361" lon="108.721507">
        <ele>136.122233</ele>
        <time>2026-08-14T04:40:58.000Z</time>
      </trkpt>
      <trkpt lat="22.783304" lon="108.721567">
        <ele>135.801928</ele>
        <time>2026-08-14T04:40:59.000Z</time>
      </trkpt>
      <trkpt lat="22.783248" lon="108.721630">
        <ele>135.476568</ele>
        <time>2026-08-14T04:41:00.000Z</time>
      </trkpt>
      <trkpt lat="22.783196" lon="108.721696">
        <ele>135.153794</ele>
        <time>2026-08-14T04:41:01.000Z</time>
      </trkpt>
      <trkpt lat="22.783147" lon="108.721766">
        <ele>134.827029</ele>
        <time>2026-08-14T04:41:02.000Z</time>
      </trkpt>
      <trkpt lat="22.783104" lon="108.721839">
        <ele>134.541181</ele>
        <time>2026-08-14T04:41:03.000Z</time>
      </trkpt>
      <trkpt lat="22.783061" lon="108.721914">
        <ele>134.261689</ele>
        <time>2026-08-14T04:41:04.000Z</time>
      </trkpt>
      <trkpt lat="22.783015" lon="108.721991">
        <ele>133.971334</ele>
        <time>2026-08-14T04:41:05.000Z</time>
      </trkpt>
      <trkpt lat="22.782972" lon="108.722071">
        <ele>133.678285</ele>
        <time>2026-08-14T04:41:06.000Z</time>
      </trkpt>
      <trkpt lat="22.782925" lon="108.722150">
        <ele>133.380751</ele>
        <time>2026-08-14T04:41:07.000Z</time>
      </trkpt>
      <trkpt lat="22.782876" lon="108.722229">
        <ele>133.079440</ele>
        <time>2026-08-14T04:41:08.000Z</time>
      </trkpt>
      <trkpt lat="22.782829" lon="108.722309">
        <ele>132.779242</ele>
        <time>2026-08-14T04:41:09.000Z</time>
      </trkpt>
      <trkpt lat="22.782781" lon="108.722391">
        <ele>132.471861</ele>
        <time>2026-08-14T04:41:10.000Z</time>
      </trkpt>
      <trkpt lat="22.782733" lon="108.722471">
        <ele>132.169805</ele>
        <time>2026-08-14T04:41:11.000Z</time>
      </trkpt>
      <trkpt lat="22.782680" lon="108.722550">
        <ele>131.860620</ele>
        <time>2026-08-14T04:41:12.000Z</time>
      </trkpt>
      <trkpt lat="22.782628" lon="108.722627">
        <ele>131.558570</ele>
        <time>2026-08-14T04:41:13.000Z</time>
      </trkpt>
      <trkpt lat="22.782573" lon="108.722697">
        <ele>131.267520</ele>
        <time>2026-08-14T04:41:14.000Z</time>
      </trkpt>
      <trkpt lat="22.782520" lon="108.722766">
        <ele>130.983312</ele>
        <time>2026-08-14T04:41:15.000Z</time>
      </trkpt>
      <trkpt lat="22.782465" lon="108.722834">
        <ele>130.697049</ele>
        <time>2026-08-14T04:41:16.000Z</time>
      </trkpt>
      <trkpt lat="22.782408" lon="108.722898">
        <ele>130.415450</ele>
        <time>2026-08-14T04:41:17.000Z</time>
      </trkpt>
      <trkpt lat="22.782351" lon="108.722964">
        <ele>130.129265</ele>
        <time>2026-08-14T04:41:18.000Z</time>
      </trkpt>
      <trkpt lat="22.782294" lon="108.723025">
        <ele>129.854416</ele>
        <time>2026-08-14T04:41:19.000Z</time>
      </trkpt>
      <trkpt lat="22.782234" lon="108.723085">
        <ele>129.574298</ele>
        <time>2026-08-14T04:41:20.000Z</time>
      </trkpt>
      <trkpt lat="22.782173" lon="108.723141">
        <ele>129.299990</ele>
        <time>2026-08-14T04:41:21.000Z</time>
      </trkpt>
      <trkpt lat="22.782112" lon="108.723194">
        <ele>129.031719</ele>
        <time>2026-08-14T04:41:22.000Z</time>
      </trkpt>
      <trkpt lat="22.782050" lon="108.723248">
        <ele>128.758789</ele>
        <time>2026-08-14T04:41:23.000Z</time>
      </trkpt>
      <trkpt lat="22.781988" lon="108.723303">
        <ele>128.525123</ele>
        <time>2026-08-14T04:41:24.000Z</time>
      </trkpt>
      <trkpt lat="22.781923" lon="108.723357">
        <ele>128.371741</ele>
        <time>2026-08-14T04:41:25.000Z</time>
      </trkpt>
      <trkpt lat="22.781857" lon="108.723407">
        <ele>128.220927</ele>
        <time>2026-08-14T04:41:26.000Z</time>
      </trkpt>
      <trkpt lat="22.781792" lon="108.723457">
        <ele>128.071645</ele>
        <time>2026-08-14T04:41:27.000Z</time>
      </trkpt>
      <trkpt lat="22.781723" lon="108.723502">
        <ele>127.920817</ele>
        <time>2026-08-14T04:41:28.000Z</time>
      </trkpt>
      <trkpt lat="22.781655" lon="108.723544">
        <ele>127.774223</ele>
        <time>2026-08-14T04:41:29.000Z</time>
      </trkpt>
      <trkpt lat="22.781587" lon="108.723584">
        <ele>127.629308</ele>
        <time>2026-08-14T04:41:30.000Z</time>
      </trkpt>
      <trkpt lat="22.781519" lon="108.723623">
        <ele>127.485207</ele>
        <time>2026-08-14T04:41:31.000Z</time>
      </trkpt>
      <trkpt lat="22.781452" lon="108.723664">
        <ele>127.341095</ele>
        <time>2026-08-14T04:41:32.000Z</time>
      </trkpt>
      <trkpt lat="22.781387" lon="108.723705">
        <ele>127.200234</ele>
        <time>2026-08-14T04:41:33.000Z</time>
      </trkpt>
      <trkpt lat="22.781322" lon="108.723744">
        <ele>127.061077</ele>
        <time>2026-08-14T04:41:34.000Z</time>
      </trkpt>
      <trkpt lat="22.781261" lon="108.723785">
        <ele>126.926640</ele>
        <time>2026-08-14T04:41:35.000Z</time>
      </trkpt>
      <trkpt lat="22.781197" lon="108.723826">
        <ele>126.787395</ele>
        <time>2026-08-14T04:41:36.000Z</time>
      </trkpt>
      <trkpt lat="22.781133" lon="108.723866">
        <ele>126.649020</ele>
        <time>2026-08-14T04:41:37.000Z</time>
      </trkpt>
      <trkpt lat="22.781073" lon="108.723905">
        <ele>126.517981</ele>
        <time>2026-08-14T04:41:38.000Z</time>
      </trkpt>
      <trkpt lat="22.781015" lon="108.723945">
        <ele>126.389223</ele>
        <time>2026-08-14T04:41:39.000Z</time>
      </trkpt>
      <trkpt lat="22.780953" lon="108.723980">
        <ele>126.258286</ele>
        <time>2026-08-14T04:41:40.000Z</time>
      </trkpt>
      <trkpt lat="22.780893" lon="108.724010">
        <ele>126.134517</ele>
        <time>2026-08-14T04:41:41.000Z</time>
      </trkpt>
      <trkpt lat="22.780824" lon="108.724040">
        <ele>125.995258</ele>
        <time>2026-08-14T04:41:42.000Z</time>
      </trkpt>
      <trkpt lat="22.780755" lon="108.724074">
        <ele>125.853283</ele>
        <time>2026-08-14T04:41:43.000Z</time>
      </trkpt>
      <trkpt lat="22.780692" lon="108.724109">
        <ele>125.720681</ele>
        <time>2026-08-14T04:41:44.000Z</time>
      </trkpt>
      <trkpt lat="22.780629" lon="108.724140">
        <ele>125.591083</ele>
        <time>2026-08-14T04:41:45.000Z</time>
      </trkpt>
      <trkpt lat="22.780566" lon="108.724171">
        <ele>125.461485</ele>
        <time>2026-08-14T04:41:46.000Z</time>
      </trkpt>
      <trkpt lat="22.780508" lon="108.724211">
        <ele>125.332727</ele>
        <time>2026-08-14T04:41:47.000Z</time>
      </trkpt>
      <trkpt lat="22.780445" lon="108.724251">
        <ele>125.192320</ele>
        <time>2026-08-14T04:41:48.000Z</time>
      </trkpt>
      <trkpt lat="22.780387" lon="108.724288">
        <ele>125.016565</ele>
        <time>2026-08-14T04:41:49.000Z</time>
      </trkpt>
      <trkpt lat="22.780325" lon="108.724321">
        <ele>124.836175</ele>
        <time>2026-08-14T04:41:50.000Z</time>
      </trkpt>
      <trkpt lat="22.780262" lon="108.724356">
        <ele>124.651292</ele>
        <time>2026-08-14T04:41:51.000Z</time>
      </trkpt>
      <trkpt lat="22.780201" lon="108.724392">
        <ele>124.469903</ele>
        <time>2026-08-14T04:41:52.000Z</time>
      </trkpt>
      <trkpt lat="22.780141" lon="108.724429">
        <ele>124.289626</ele>
        <time>2026-08-14T04:41:53.000Z</time>
      </trkpt>
      <trkpt lat="22.780081" lon="108.724464">
        <ele>124.111680</ele>
        <time>2026-08-14T04:41:54.000Z</time>
      </trkpt>
      <trkpt lat="22.780022" lon="108.724501">
        <ele>123.933669</ele>
        <time>2026-08-14T04:41:55.000Z</time>
      </trkpt>
      <trkpt lat="22.779963" lon="108.724533">
        <ele>123.761370</ele>
        <time>2026-08-14T04:41:56.000Z</time>
      </trkpt>
      <trkpt lat="22.779901" lon="108.724565">
        <ele>123.582027</ele>
        <time>2026-08-14T04:41:57.000Z</time>
      </trkpt>
      <trkpt lat="22.779839" lon="108.724596">
        <ele>123.403707</ele>
        <time>2026-08-14T04:41:58.000Z</time>
      </trkpt>
      <trkpt lat="22.779777" lon="108.724629">
        <ele>123.223317</ele>
        <time>2026-08-14T04:41:59.000Z</time>
      </trkpt>
      <trkpt lat="22.779717" lon="108.724665">
        <ele>123.044218</ele>
        <time>2026-08-14T04:42:00.000Z</time>
      </trkpt>
      <trkpt lat="22.779655" lon="108.724700">
        <ele>122.861654</ele>
        <time>2026-08-14T04:42:01.000Z</time>
      </trkpt>
      <trkpt lat="22.779600" lon="108.724742">
        <ele>122.685962</ele>
        <time>2026-08-14T04:42:02.000Z</time>
      </trkpt>
      <trkpt lat="22.779545" lon="108.724786">
        <ele>122.507453</ele>
        <time>2026-08-14T04:42:03.000Z</time>
      </trkpt>
      <trkpt lat="22.779497" lon="108.724838">
        <ele>122.330251</ele>
        <time>2026-08-14T04:42:04.000Z</time>
      </trkpt>
      <trkpt lat="22.779452" lon="108.724901">
        <ele>122.138331</ele>
        <time>2026-08-14T04:42:05.000Z</time>
      </trkpt>
      <trkpt lat="22.779407" lon="108.724962">
        <ele>121.950194</ele>
        <time>2026-08-14T04:42:06.000Z</time>
      </trkpt>
      <trkpt lat="22.779364" lon="108.725027">
        <ele>121.757535</ele>
        <time>2026-08-14T04:42:07.000Z</time>
      </trkpt>
      <trkpt lat="22.779319" lon="108.725092">
        <ele>121.561784</ele>
        <time>2026-08-14T04:42:08.000Z</time>
      </trkpt>
      <trkpt lat="22.779282" lon="108.725157">
        <ele>121.377820</ele>
        <time>2026-08-14T04:42:09.000Z</time>
      </trkpt>
      <trkpt lat="22.779253" lon="108.725229">
        <ele>121.188605</ele>
        <time>2026-08-14T04:42:10.000Z</time>
      </trkpt>
      <trkpt lat="22.779216" lon="108.725295">
        <ele>121.002587</ele>
        <time>2026-08-14T04:42:11.000Z</time>
      </trkpt>
      <trkpt lat="22.779181" lon="108.725366">
        <ele>120.808698</ele>
        <time>2026-08-14T04:42:12.000Z</time>
      </trkpt>
      <trkpt lat="22.779143" lon="108.725437">
        <ele>120.610993</ele>
        <time>2026-08-14T04:42:13.000Z</time>
      </trkpt>
      <trkpt lat="22.779105" lon="108.725509">
        <ele>120.429212</ele>
        <time>2026-08-14T04:42:14.000Z</time>
      </trkpt>
      <trkpt lat="22.779067" lon="108.725583">
        <ele>120.263469</ele>
        <time>2026-08-14T04:42:15.000Z</time>
      </trkpt>
      <trkpt lat="22.779028" lon="108.725657">
        <ele>120.096684</ele>
        <time>2026-08-14T04:42:16.000Z</time>
      </trkpt>
      <trkpt lat="22.778987" lon="108.725733">
        <ele>119.924386</ele>
        <time>2026-08-14T04:42:17.000Z</time>
      </trkpt>
      <trkpt lat="22.778944" lon="108.725802">
        <ele>119.761423</ele>
        <time>2026-08-14T04:42:18.000Z</time>
      </trkpt>
      <trkpt lat="22.778906" lon="108.725881">
        <ele>119.587069</ele>
        <time>2026-08-14T04:42:19.000Z</time>
      </trkpt>
      <trkpt lat="22.778875" lon="108.725960">
        <ele>119.419068</ele>
        <time>2026-08-14T04:42:20.000Z</time>
      </trkpt>
      <trkpt lat="22.778843" lon="108.726041">
        <ele>119.246635</ele>
        <time>2026-08-14T04:42:21.000Z</time>
      </trkpt>
      <trkpt lat="22.778814" lon="108.726117">
        <ele>119.085690</ele>
        <time>2026-08-14T04:42:22.000Z</time>
      </trkpt>
      <trkpt lat="22.778786" lon="108.726195">
        <ele>118.921904</ele>
        <time>2026-08-14T04:42:23.000Z</time>
      </trkpt>
      <trkpt lat="22.778759" lon="108.726272">
        <ele>118.760707</ele>
        <time>2026-08-14T04:42:24.000Z</time>
      </trkpt>
      <trkpt lat="22.778730" lon="108.726348">
        <ele>118.599762</ele>
        <time>2026-08-14T04:42:25.000Z</time>
      </trkpt>
      <trkpt lat="22.778699" lon="108.726422">
        <ele>118.440718</ele>
        <time>2026-08-14T04:42:26.000Z</time>
      </trkpt>
      <trkpt lat="22.778669" lon="108.726494">
        <ele>118.286114</ele>
        <time>2026-08-14T04:42:27.000Z</time>
      </trkpt>
      <trkpt lat="22.778640" lon="108.726562">
        <ele>118.139510</ele>
        <time>2026-08-14T04:42:28.000Z</time>
      </trkpt>
      <trkpt lat="22.778613" lon="108.726630">
        <ele>117.994638</ele>
        <time>2026-08-14T04:42:29.000Z</time>
      </trkpt>
      <trkpt lat="22.778594" lon="108.726697">
        <ele>117.857475</ele>
        <time>2026-08-14T04:42:30.000Z</time>
      </trkpt>
      <trkpt lat="22.778571" lon="108.726760">
        <ele>117.724888</ele>
        <time>2026-08-14T04:42:31.000Z</time>
      </trkpt>
      <trkpt lat="22.778549" lon="108.726824">
        <ele>117.591236</ele>
        <time>2026-08-14T04:42:32.000Z</time>
      </trkpt>
      <trkpt lat="22.778525" lon="108.726888">
        <ele>117.456042</ele>
        <time>2026-08-14T04:42:33.000Z</time>
      </trkpt>
      <trkpt lat="22.778504" lon="108.726952">
        <ele>117.323116</ele>
        <time>2026-08-14T04:42:34.000Z</time>
      </trkpt>
      <trkpt lat="22.778481" lon="108.727016">
        <ele>117.188708</ele>
        <time>2026-08-14T04:42:35.000Z</time>
      </trkpt>
      <trkpt lat="22.778459" lon="108.727084">
        <ele>117.047695</ele>
        <time>2026-08-14T04:42:36.000Z</time>
      </trkpt>
      <trkpt lat="22.778442" lon="108.727156">
        <ele>116.902263</ele>
        <time>2026-08-14T04:42:37.000Z</time>
      </trkpt>
      <trkpt lat="22.778426" lon="108.727230">
        <ele>116.753535</ele>
        <time>2026-08-14T04:42:38.000Z</time>
      </trkpt>
      <trkpt lat="22.778412" lon="108.727308">
        <ele>116.519656</ele>
        <time>2026-08-14T04:42:39.000Z</time>
      </trkpt>
      <trkpt lat="22.778406" lon="108.727384">
        <ele>116.243252</ele>
        <time>2026-08-14T04:42:40.000Z</time>
      </trkpt>
      <trkpt lat="22.778410" lon="108.727459">
        <ele>115.971025</ele>
        <time>2026-08-14T04:42:41.000Z</time>
      </trkpt>
      <trkpt lat="22.778418" lon="108.727537">
        <ele>115.686638</ele>
        <time>2026-08-14T04:42:42.000Z</time>
      </trkpt>
      <trkpt lat="22.778439" lon="108.727617">
        <ele>115.385227</ele>
        <time>2026-08-14T04:42:43.000Z</time>
      </trkpt>
      <trkpt lat="22.778472" lon="108.727691">
        <ele>115.087360</ele>
        <time>2026-08-14T04:42:44.000Z</time>
      </trkpt>
      <trkpt lat="22.778516" lon="108.727762">
        <ele>114.777367</ele>
        <time>2026-08-14T04:42:45.000Z</time>
      </trkpt>
      <trkpt lat="22.778565" lon="108.727826">
        <ele>114.475921</ele>
        <time>2026-08-14T04:42:46.000Z</time>
      </trkpt>
      <trkpt lat="22.778618" lon="108.727886">
        <ele>114.174825</ele>
        <time>2026-08-14T04:42:47.000Z</time>
      </trkpt>
      <trkpt lat="22.778681" lon="108.727939">
        <ele>113.861473</ele>
        <time>2026-08-14T04:42:48.000Z</time>
      </trkpt>
      <trkpt lat="22.778745" lon="108.727994">
        <ele>113.540556</ele>
        <time>2026-08-14T04:42:49.000Z</time>
      </trkpt>
      <trkpt lat="22.778811" lon="108.728049">
        <ele>113.213443</ele>
        <time>2026-08-14T04:42:50.000Z</time>
      </trkpt>
      <trkpt lat="22.778875" lon="108.728107">
        <ele>112.885664</ele>
        <time>2026-08-14T04:42:51.000Z</time>
      </trkpt>
      <trkpt lat="22.778942" lon="108.728167">
        <ele>112.544185</ele>
        <time>2026-08-14T04:42:52.000Z</time>
      </trkpt>
      <trkpt lat="22.779008" lon="108.728228">
        <ele>112.203388</ele>
        <time>2026-08-14T04:42:53.000Z</time>
      </trkpt>
      <trkpt lat="22.779073" lon="108.728291">
        <ele>111.860788</ele>
        <time>2026-08-14T04:42:54.000Z</time>
      </trkpt>
      <trkpt lat="22.779131" lon="108.728360">
        <ele>111.522446</ele>
        <time>2026-08-14T04:42:55.000Z</time>
      </trkpt>
      <trkpt lat="22.779181" lon="108.728436">
        <ele>111.184130</ele>
        <time>2026-08-14T04:42:56.000Z</time>
      </trkpt>
      <trkpt lat="22.779219" lon="108.728520">
        <ele>110.845082</ele>
        <time>2026-08-14T04:42:57.000Z</time>
      </trkpt>
      <trkpt lat="22.779240" lon="108.728610">
        <ele>110.508675</ele>
        <time>2026-08-14T04:42:58.000Z</time>
      </trkpt>
      <trkpt lat="22.779256" lon="108.728703">
        <ele>110.165862</ele>
        <time>2026-08-14T04:42:59.000Z</time>
      </trkpt>
      <trkpt lat="22.779260" lon="108.728797">
        <ele>109.824880</ele>
        <time>2026-08-14T04:43:00.000Z</time>
      </trkpt>
      <trkpt lat="22.779255" lon="108.728891">
        <ele>109.544057</ele>
        <time>2026-08-14T04:43:01.000Z</time>
      </trkpt>
      <trkpt lat="22.779242" lon="108.728982">
        <ele>109.356940</ele>
        <time>2026-08-14T04:43:02.000Z</time>
      </trkpt>
      <trkpt lat="22.779222" lon="108.729073">
        <ele>109.166848</ele>
        <time>2026-08-14T04:43:03.000Z</time>
      </trkpt>
      <trkpt lat="22.779199" lon="108.729160">
        <ele>108.982941</ele>
        <time>2026-08-14T04:43:04.000Z</time>
      </trkpt>
      <trkpt lat="22.779174" lon="108.729243">
        <ele>108.805514</ele>
        <time>2026-08-14T04:43:05.000Z</time>
      </trkpt>
      <trkpt lat="22.779147" lon="108.729325">
        <ele>108.628584</ele>
        <time>2026-08-14T04:43:06.000Z</time>
      </trkpt>
      <trkpt lat="22.779120" lon="108.729407">
        <ele>108.451655</ele>
        <time>2026-08-14T04:43:07.000Z</time>
      </trkpt>
      <trkpt lat="22.779088" lon="108.729485">
        <ele>108.278177</ele>
        <time>2026-08-14T04:43:08.000Z</time>
      </trkpt>
      <trkpt lat="22.779051" lon="108.729558">
        <ele>108.108906</ele>
        <time>2026-08-14T04:43:09.000Z</time>
      </trkpt>
      <trkpt lat="22.779008" lon="108.729627">
        <ele>107.939675</ele>
        <time>2026-08-14T04:43:10.000Z</time>
      </trkpt>
      <trkpt lat="22.778962" lon="108.729692">
        <ele>107.773174</ele>
        <time>2026-08-14T04:43:11.000Z</time>
      </trkpt>
      <trkpt lat="22.778911" lon="108.729755">
        <ele>107.602818</ele>
        <time>2026-08-14T04:43:12.000Z</time>
      </trkpt>
      <trkpt lat="22.778856" lon="108.729809">
        <ele>107.439316</ele>
        <time>2026-08-14T04:43:13.000Z</time>
      </trkpt>
      <trkpt lat="22.778796" lon="108.729858">
        <ele>107.273788</ele>
        <time>2026-08-14T04:43:14.000Z</time>
      </trkpt>
      <trkpt lat="22.778735" lon="108.729904">
        <ele>107.110050</ele>
        <time>2026-08-14T04:43:15.000Z</time>
      </trkpt>
      <trkpt lat="22.778675" lon="108.729949">
        <ele>106.949280</ele>
        <time>2026-08-14T04:43:16.000Z</time>
      </trkpt>
      <trkpt lat="22.778615" lon="108.729992">
        <ele>106.790787</ele>
        <time>2026-08-14T04:43:17.000Z</time>
      </trkpt>
      <trkpt lat="22.778558" lon="108.730039">
        <ele>106.632984</ele>
        <time>2026-08-14T04:43:18.000Z</time>
      </trkpt>
      <trkpt lat="22.778498" lon="108.730082">
        <ele>106.474491</ele>
        <time>2026-08-14T04:43:19.000Z</time>
      </trkpt>
      <trkpt lat="22.778440" lon="108.730128">
        <ele>106.316136</ele>
        <time>2026-08-14T04:43:20.000Z</time>
      </trkpt>
      <trkpt lat="22.778385" lon="108.730179">
        <ele>106.156660</ele>
        <time>2026-08-14T04:43:21.000Z</time>
      </trkpt>
      <trkpt lat="22.778332" lon="108.730232">
        <ele>105.997783</ele>
        <time>2026-08-14T04:43:22.000Z</time>
      </trkpt>
      <trkpt lat="22.778280" lon="108.730288">
        <ele>105.836283</ele>
        <time>2026-08-14T04:43:23.000Z</time>
      </trkpt>
      <trkpt lat="22.778234" lon="108.730349">
        <ele>105.676152</ele>
        <time>2026-08-14T04:43:24.000Z</time>
      </trkpt>
      <trkpt lat="22.778189" lon="108.730412">
        <ele>105.571961</ele>
        <time>2026-08-14T04:43:25.000Z</time>
      </trkpt>
      <trkpt lat="22.778144" lon="108.730472">
        <ele>105.478307</ele>
        <time>2026-08-14T04:43:26.000Z</time>
      </trkpt>
      <trkpt lat="22.778099" lon="108.730534">
        <ele>105.382761</ele>
        <time>2026-08-14T04:43:27.000Z</time>
      </trkpt>
      <trkpt lat="22.778052" lon="108.730594">
        <ele>105.287427</ele>
        <time>2026-08-14T04:43:28.000Z</time>
      </trkpt>
      <trkpt lat="22.778005" lon="108.730653">
        <ele>105.193013</ele>
        <time>2026-08-14T04:43:29.000Z</time>
      </trkpt>
      <trkpt lat="22.777956" lon="108.730709">
        <ele>105.099528</ele>
        <time>2026-08-14T04:43:30.000Z</time>
      </trkpt>
      <trkpt lat="22.777903" lon="108.730762">
        <ele>105.004851</ele>
        <time>2026-08-14T04:43:31.000Z</time>
      </trkpt>
      <trkpt lat="22.777843" lon="108.730804">
        <ele>104.911066</ele>
        <time>2026-08-14T04:43:32.000Z</time>
      </trkpt>
      <trkpt lat="22.777778" lon="108.730835">
        <ele>104.817812</ele>
        <time>2026-08-14T04:43:33.000Z</time>
      </trkpt>
      <trkpt lat="22.777712" lon="108.730849">
        <ele>104.729491</ele>
        <time>2026-08-14T04:43:34.000Z</time>
      </trkpt>
      <trkpt lat="22.777644" lon="108.730859">
        <ele>104.639369</ele>
        <time>2026-08-14T04:43:35.000Z</time>
      </trkpt>
      <trkpt lat="22.777576" lon="108.730870">
        <ele>104.549076</ele>
        <time>2026-08-14T04:43:36.000Z</time>
      </trkpt>
      <trkpt lat="22.777510" lon="108.730886">
        <ele>104.460258</ele>
        <time>2026-08-14T04:43:37.000Z</time>
      </trkpt>
      <trkpt lat="22.777447" lon="108.730907">
        <ele>104.373700</ele>
        <time>2026-08-14T04:43:38.000Z</time>
      </trkpt>
      <trkpt lat="22.777383" lon="108.730929">
        <ele>104.285528</ele>
        <time>2026-08-14T04:43:39.000Z</time>
      </trkpt>
      <trkpt lat="22.777320" lon="108.730954">
        <ele>104.197425</ele>
        <time>2026-08-14T04:43:40.000Z</time>
      </trkpt>
      <trkpt lat="22.777259" lon="108.730977">
        <ele>104.112610</ele>
        <time>2026-08-14T04:43:41.000Z</time>
      </trkpt>
      <trkpt lat="22.777198" lon="108.730998">
        <ele>104.028559</ele>
        <time>2026-08-14T04:43:42.000Z</time>
      </trkpt>
      <trkpt lat="22.777141" lon="108.731021">
        <ele>103.948687</ele>
        <time>2026-08-14T04:43:43.000Z</time>
      </trkpt>
      <trkpt lat="22.777085" lon="108.731046">
        <ele>103.869155</ele>
        <time>2026-08-14T04:43:44.000Z</time>
      </trkpt>
      <trkpt lat="22.777032" lon="108.731075">
        <ele>103.791193</ele>
        <time>2026-08-14T04:43:45.000Z</time>
      </trkpt>
      <trkpt lat="22.776985" lon="108.731113">
        <ele>103.714204</ele>
        <time>2026-08-14T04:43:46.000Z</time>
      </trkpt>
      <trkpt lat="22.776939" lon="108.731156">
        <ele>103.634449</ele>
        <time>2026-08-14T04:43:47.000Z</time>
      </trkpt>
      <trkpt lat="22.776899" lon="108.731206">
        <ele>103.554291</ele>
        <time>2026-08-14T04:43:48.000Z</time>
      </trkpt>
      <trkpt lat="22.776864" lon="108.731259">
        <ele>103.475350</ele>
        <time>2026-08-14T04:43:49.000Z</time>
      </trkpt>
      <trkpt lat="22.776831" lon="108.731313">
        <ele>103.396903</ele>
        <time>2026-08-14T04:43:50.000Z</time>
      </trkpt>
      <trkpt lat="22.776797" lon="108.731368">
        <ele>103.316720</ele>
        <time>2026-08-14T04:43:51.000Z</time>
      </trkpt>
      <trkpt lat="22.776763" lon="108.731421">
        <ele>103.260641</ele>
        <time>2026-08-14T04:43:52.000Z</time>
      </trkpt>
      <trkpt lat="22.776727" lon="108.731473">
        <ele>103.212759</ele>
        <time>2026-08-14T04:43:53.000Z</time>
      </trkpt>
      <trkpt lat="22.776687" lon="108.731522">
        <ele>103.164570</ele>
        <time>2026-08-14T04:43:54.000Z</time>
      </trkpt>
      <trkpt lat="22.776644" lon="108.731568">
        <ele>103.116335</ele>
        <time>2026-08-14T04:43:55.000Z</time>
      </trkpt>
      <trkpt lat="22.776599" lon="108.731615">
        <ele>103.066443</ele>
        <time>2026-08-14T04:43:56.000Z</time>
      </trkpt>
      <trkpt lat="22.776555" lon="108.731657">
        <ele>103.019633</ele>
        <time>2026-08-14T04:43:57.000Z</time>
      </trkpt>
      <trkpt lat="22.776508" lon="108.731698">
        <ele>102.971464</ele>
        <time>2026-08-14T04:43:58.000Z</time>
      </trkpt>
      <trkpt lat="22.776458" lon="108.731737">
        <ele>102.922279</ele>
        <time>2026-08-14T04:43:59.000Z</time>
      </trkpt>
      <trkpt lat="22.776406" lon="108.731773">
        <ele>102.873012</ele>
        <time>2026-08-14T04:44:00.000Z</time>
      </trkpt>
      <trkpt lat="22.776353" lon="108.731805">
        <ele>102.824568</ele>
        <time>2026-08-14T04:44:01.000Z</time>
      </trkpt>
      <trkpt lat="22.776301" lon="108.731836">
        <ele>102.777180</ele>
        <time>2026-08-14T04:44:02.000Z</time>
      </trkpt>
      <trkpt lat="22.776249" lon="108.731868">
        <ele>102.729433</ele>
        <time>2026-08-14T04:44:03.000Z</time>
      </trkpt>
      <trkpt lat="22.776200" lon="108.731900">
        <ele>102.683755</ele>
        <time>2026-08-14T04:44:04.000Z</time>
      </trkpt>
      <trkpt lat="22.776150" lon="108.731933">
        <ele>102.637012</ele>
        <time>2026-08-14T04:44:05.000Z</time>
      </trkpt>
      <trkpt lat="22.776100" lon="108.731966">
        <ele>102.590269</ele>
        <time>2026-08-14T04:44:06.000Z</time>
      </trkpt>
      <trkpt lat="22.776050" lon="108.732001">
        <ele>102.542743</ele>
        <time>2026-08-14T04:44:07.000Z</time>
      </trkpt>
      <trkpt lat="22.775998" lon="108.732037">
        <ele>102.493476</ele>
        <time>2026-08-14T04:44:08.000Z</time>
      </trkpt>
      <trkpt lat="22.775946" lon="108.732072">
        <ele>102.444601</ele>
        <time>2026-08-14T04:44:09.000Z</time>
      </trkpt>
      <trkpt lat="22.775895" lon="108.732108">
        <ele>102.396005</ele>
        <time>2026-08-14T04:44:10.000Z</time>
      </trkpt>
      <trkpt lat="22.775845" lon="108.732144">
        <ele>102.348077</ele>
        <time>2026-08-14T04:44:11.000Z</time>
      </trkpt>
      <trkpt lat="22.775797" lon="108.732183">
        <ele>102.300179</ele>
        <time>2026-08-14T04:44:12.000Z</time>
      </trkpt>
      <trkpt lat="22.775748" lon="108.732217">
        <ele>102.253724</ele>
        <time>2026-08-14T04:44:13.000Z</time>
      </trkpt>
      <trkpt lat="22.775700" lon="108.732256">
        <ele>102.205827</ele>
        <time>2026-08-14T04:44:14.000Z</time>
      </trkpt>
      <trkpt lat="22.775652" lon="108.732294">
        <ele>102.158367</ele>
        <time>2026-08-14T04:44:15.000Z</time>
      </trkpt>
      <trkpt lat="22.775604" lon="108.732331">
        <ele>102.111338</ele>
        <time>2026-08-14T04:44:16.000Z</time>
      </trkpt>
      <trkpt lat="22.775556" lon="108.732368">
        <ele>102.064309</ele>
        <time>2026-08-14T04:44:17.000Z</time>
      </trkpt>
      <trkpt lat="22.775508" lon="108.732403">
        <ele>102.018118</ele>
        <time>2026-08-14T04:44:18.000Z</time>
      </trkpt>
      <trkpt lat="22.775458" lon="108.732442">
        <ele>101.968933</ele>
        <time>2026-08-14T04:44:19.000Z</time>
      </trkpt>
      <trkpt lat="22.775409" lon="108.732479">
        <ele>101.921250</ele>
        <time>2026-08-14T04:44:20.000Z</time>
      </trkpt>
      <trkpt lat="22.775362" lon="108.732519">
        <ele>101.873539</ele>
        <time>2026-08-14T04:44:21.000Z</time>
      </trkpt>
      <trkpt lat="22.775318" lon="108.732560">
        <ele>101.840857</ele>
        <time>2026-08-14T04:44:22.000Z</time>
      </trkpt>
      <trkpt lat="22.775277" lon="108.732604">
        <ele>101.814871</ele>
        <time>2026-08-14T04:44:23.000Z</time>
      </trkpt>
      <trkpt lat="22.775236" lon="108.732648">
        <ele>101.788886</ele>
        <time>2026-08-14T04:44:24.000Z</time>
      </trkpt>
      <trkpt lat="22.775197" lon="108.732692">
        <ele>101.763532</ele>
        <time>2026-08-14T04:44:25.000Z</time>
      </trkpt>
      <trkpt lat="22.775161" lon="108.732739">
        <ele>101.738151</ele>
        <time>2026-08-14T04:44:26.000Z</time>
      </trkpt>
      <trkpt lat="22.775125" lon="108.732784">
        <ele>101.713403</ele>
        <time>2026-08-14T04:44:27.000Z</time>
      </trkpt>
      <trkpt lat="22.775089" lon="108.732834">
        <ele>101.687051</ele>
        <time>2026-08-14T04:44:28.000Z</time>
      </trkpt>
      <trkpt lat="22.775055" lon="108.732885">
        <ele>101.660908</ele>
        <time>2026-08-14T04:44:29.000Z</time>
      </trkpt>
      <trkpt lat="22.775021" lon="108.732936">
        <ele>101.634765</ele>
        <time>2026-08-14T04:44:30.000Z</time>
      </trkpt>
      <trkpt lat="22.774989" lon="108.732989">
        <ele>101.608449</ele>
        <time>2026-08-14T04:44:31.000Z</time>
      </trkpt>
      <trkpt lat="22.774958" lon="108.733042">
        <ele>101.582376</ele>
        <time>2026-08-14T04:44:32.000Z</time>
      </trkpt>
      <trkpt lat="22.774930" lon="108.733095">
        <ele>101.557002</ele>
        <time>2026-08-14T04:44:33.000Z</time>
      </trkpt>
      <trkpt lat="22.774905" lon="108.733149">
        <ele>101.531902</ele>
        <time>2026-08-14T04:44:34.000Z</time>
      </trkpt>
      <trkpt lat="22.774882" lon="108.733205">
        <ele>101.506436</ele>
        <time>2026-08-14T04:44:35.000Z</time>
      </trkpt>
      <trkpt lat="22.774859" lon="108.733263">
        <ele>101.480209</ele>
        <time>2026-08-14T04:44:36.000Z</time>
      </trkpt>
      <trkpt lat="22.774833" lon="108.733322">
        <ele>101.453046</ele>
        <time>2026-08-14T04:44:37.000Z</time>
      </trkpt>
      <trkpt lat="22.774809" lon="108.733378">
        <ele>101.427393</ele>
        <time>2026-08-14T04:44:38.000Z</time>
      </trkpt>
      <trkpt lat="22.774783" lon="108.733433">
        <ele>101.401719</ele>
        <time>2026-08-14T04:44:39.000Z</time>
      </trkpt>
      <trkpt lat="22.774759" lon="108.733487">
        <ele>101.376817</ele>
        <time>2026-08-14T04:44:40.000Z</time>
      </trkpt>
      <trkpt lat="22.774734" lon="108.733542">
        <ele>101.351345</ele>
        <time>2026-08-14T04:44:41.000Z</time>
      </trkpt>
      <trkpt lat="22.774712" lon="108.733597">
        <ele>101.326441</ele>
        <time>2026-08-14T04:44:42.000Z</time>
      </trkpt>
      <trkpt lat="22.774693" lon="108.733653">
        <ele>101.301654</ele>
        <time>2026-08-14T04:44:43.000Z</time>
      </trkpt>
      <trkpt lat="22.774677" lon="108.733710">
        <ele>101.276903</ele>
        <time>2026-08-14T04:44:44.000Z</time>
      </trkpt>
      <trkpt lat="22.774662" lon="108.733769">
        <ele>101.251480</ele>
        <time>2026-08-14T04:44:45.000Z</time>
      </trkpt>
      <trkpt lat="22.774649" lon="108.733829">
        <ele>101.225877</ele>
        <time>2026-08-14T04:44:46.000Z</time>
      </trkpt>
      <trkpt lat="22.774637" lon="108.733890">
        <ele>101.199968</ele>
        <time>2026-08-14T04:44:47.000Z</time>
      </trkpt>
      <trkpt lat="22.774625" lon="108.733952">
        <ele>101.173652</ele>
        <time>2026-08-14T04:44:48.000Z</time>
      </trkpt>
      <trkpt lat="22.774612" lon="108.734015">
        <ele>101.146834</ele>
        <time>2026-08-14T04:44:49.000Z</time>
      </trkpt>
      <trkpt lat="22.774600" lon="108.734077">
        <ele>101.120518</ele>
        <time>2026-08-14T04:44:50.000Z</time>
      </trkpt>
      <trkpt lat="22.774586" lon="108.734139">
        <ele>101.094002</ele>
        <time>2026-08-14T04:44:51.000Z</time>
      </trkpt>
      <trkpt lat="22.774574" lon="108.734203">
        <ele>101.066873</ele>
        <time>2026-08-14T04:44:52.000Z</time>
      </trkpt>
      <trkpt lat="22.774561" lon="108.734265">
        <ele>101.050817</ele>
        <time>2026-08-14T04:44:53.000Z</time>
      </trkpt>
      <trkpt lat="22.774544" lon="108.734327">
        <ele>101.059963</ele>
        <time>2026-08-14T04:44:54.000Z</time>
      </trkpt>
      <trkpt lat="22.774525" lon="108.734387">
        <ele>101.068933</ele>
        <time>2026-08-14T04:44:55.000Z</time>
      </trkpt>
      <trkpt lat="22.774502" lon="108.734443">
        <ele>101.077601</ele>
        <time>2026-08-14T04:44:56.000Z</time>
      </trkpt>
      <trkpt lat="22.774473" lon="108.734492">
        <ele>101.085834</ele>
        <time>2026-08-14T04:44:57.000Z</time>
      </trkpt>
      <trkpt lat="22.774437" lon="108.734538">
        <ele>101.094365</ele>
        <time>2026-08-14T04:44:58.000Z</time>
      </trkpt>
      <trkpt lat="22.774397" lon="108.734580">
        <ele>101.102902</ele>
        <time>2026-08-14T04:44:59.000Z</time>
      </trkpt>
      <trkpt lat="22.774354" lon="108.734621">
        <ele>101.111682</ele>
        <time>2026-08-14T04:45:00.000Z</time>
      </trkpt>
      <trkpt lat="22.774309" lon="108.734657">
        <ele>101.120257</ele>
        <time>2026-08-14T04:45:01.000Z</time>
      </trkpt>
      <trkpt lat="22.774261" lon="108.734687">
        <ele>101.128753</ele>
        <time>2026-08-14T04:45:02.000Z</time>
      </trkpt>
      <trkpt lat="22.774212" lon="108.734721">
        <ele>101.137673</ele>
        <time>2026-08-14T04:45:03.000Z</time>
      </trkpt>
      <trkpt lat="22.774163" lon="108.734753">
        <ele>101.146444</ele>
        <time>2026-08-14T04:45:04.000Z</time>
      </trkpt>
      <trkpt lat="22.774113" lon="108.734779">
        <ele>101.154947</ele>
        <time>2026-08-14T04:45:05.000Z</time>
      </trkpt>
      <trkpt lat="22.774063" lon="108.734801">
        <ele>101.163222</ele>
        <time>2026-08-14T04:45:06.000Z</time>
      </trkpt>
      <trkpt lat="22.774012" lon="108.734819">
        <ele>101.171446</ele>
        <time>2026-08-14T04:45:07.000Z</time>
      </trkpt>
      <trkpt lat="22.773960" lon="108.734836">
        <ele>101.179775</ele>
        <time>2026-08-14T04:45:08.000Z</time>
      </trkpt>
      <trkpt lat="22.773909" lon="108.734855">
        <ele>101.188044</ele>
        <time>2026-08-14T04:45:09.000Z</time>
      </trkpt>
      <trkpt lat="22.773858" lon="108.734876">
        <ele>101.196409</ele>
        <time>2026-08-14T04:45:10.000Z</time>
      </trkpt>
      <trkpt lat="22.773809" lon="108.734900">
        <ele>101.204654</ele>
        <time>2026-08-14T04:45:11.000Z</time>
      </trkpt>
      <trkpt lat="22.773760" lon="108.734927">
        <ele>101.213082</ele>
        <time>2026-08-14T04:45:12.000Z</time>
      </trkpt>
      <trkpt lat="22.773713" lon="108.734955">
        <ele>101.221306</ele>
        <time>2026-08-14T04:45:13.000Z</time>
      </trkpt>
      <trkpt lat="22.773674" lon="108.734991">
        <ele>101.229159</ele>
        <time>2026-08-14T04:45:14.000Z</time>
      </trkpt>
      <trkpt lat="22.773639" lon="108.735029">
        <ele>101.236754</ele>
        <time>2026-08-14T04:45:15.000Z</time>
      </trkpt>
      <trkpt lat="22.773606" lon="108.735069">
        <ele>101.244343</ele>
        <time>2026-08-14T04:45:16.000Z</time>
      </trkpt>
      <trkpt lat="22.773575" lon="108.735108">
        <ele>101.251623</ele>
        <time>2026-08-14T04:45:17.000Z</time>
      </trkpt>
      <trkpt lat="22.773543" lon="108.735151">
        <ele>101.259436</ele>
        <time>2026-08-14T04:45:18.000Z</time>
      </trkpt>
      <trkpt lat="22.773511" lon="108.735193">
        <ele>101.267140</ele>
        <time>2026-08-14T04:45:19.000Z</time>
      </trkpt>
      <trkpt lat="22.773479" lon="108.735236">
        <ele>101.274953</ele>
        <time>2026-08-14T04:45:20.000Z</time>
      </trkpt>
      <trkpt lat="22.773447" lon="108.735277">
        <ele>101.282548</ele>
        <time>2026-08-14T04:45:21.000Z</time>
      </trkpt>
      <trkpt lat="22.773415" lon="108.735319">
        <ele>101.290252</ele>
        <time>2026-08-14T04:45:22.000Z</time>
      </trkpt>
      <trkpt lat="22.773382" lon="108.735357">
        <ele>101.297633</ele>
        <time>2026-08-14T04:45:23.000Z</time>
      </trkpt>
      <trkpt lat="22.773346" lon="108.735392">
        <ele>101.305047</ele>
        <time>2026-08-14T04:45:24.000Z</time>
      </trkpt>
      <trkpt lat="22.773308" lon="108.735424">
        <ele>101.312425</ele>
        <time>2026-08-14T04:45:25.000Z</time>
      </trkpt>
      <trkpt lat="22.773267" lon="108.735454">
        <ele>101.320009</ele>
        <time>2026-08-14T04:45:26.000Z</time>
      </trkpt>
      <trkpt lat="22.773225" lon="108.735481">
        <ele>101.346910</ele>
        <time>2026-08-14T04:45:27.000Z</time>
      </trkpt>
      <trkpt lat="22.773181" lon="108.735508">
        <ele>101.397791</ele>
        <time>2026-08-14T04:45:28.000Z</time>
      </trkpt>
      <trkpt lat="22.773140" lon="108.735535">
        <ele>101.446068</ele>
        <time>2026-08-14T04:45:29.000Z</time>
      </trkpt>
      <trkpt lat="22.773100" lon="108.735560">
        <ele>101.492532</ele>
        <time>2026-08-14T04:45:30.000Z</time>
      </trkpt>
      <trkpt lat="22.773058" lon="108.735585">
        <ele>101.540752</ele>
        <time>2026-08-14T04:45:31.000Z</time>
      </trkpt>
      <trkpt lat="22.773019" lon="108.735608">
        <ele>101.585431</ele>
        <time>2026-08-14T04:45:32.000Z</time>
      </trkpt>
      <trkpt lat="22.772979" lon="108.735632">
        <ele>101.631440</ele>
        <time>2026-08-14T04:45:33.000Z</time>
      </trkpt>
      <trkpt lat="22.772940" lon="108.735655">
        <ele>101.676119</ele>
        <time>2026-08-14T04:45:34.000Z</time>
      </trkpt>
      <trkpt lat="22.772900" lon="108.735679">
        <ele>101.722128</ele>
        <time>2026-08-14T04:45:35.000Z</time>
      </trkpt>
      <trkpt lat="22.772861" lon="108.735702">
        <ele>101.766807</ele>
        <time>2026-08-14T04:45:36.000Z</time>
      </trkpt>
      <trkpt lat="22.772824" lon="108.735726">
        <ele>101.810198</ele>
        <time>2026-08-14T04:45:37.000Z</time>
      </trkpt>
      <trkpt lat="22.772788" lon="108.735750">
        <ele>101.852729</ele>
        <time>2026-08-14T04:45:38.000Z</time>
      </trkpt>
      <trkpt lat="22.772753" lon="108.735773">
        <ele>101.893917</ele>
        <time>2026-08-14T04:45:39.000Z</time>
      </trkpt>
      <trkpt lat="22.772719" lon="108.735795">
        <ele>101.933764</ele>
        <time>2026-08-14T04:45:40.000Z</time>
      </trkpt>
      <trkpt lat="22.772685" lon="108.735818">
        <ele>101.974094</ele>
        <time>2026-08-14T04:45:41.000Z</time>
      </trkpt>
      <trkpt lat="22.772653" lon="108.735840">
        <ele>102.012227</ele>
        <time>2026-08-14T04:45:42.000Z</time>
      </trkpt>
      <trkpt lat="22.772620" lon="108.735861">
        <ele>102.050735</ele>
        <time>2026-08-14T04:45:43.000Z</time>
      </trkpt>
      <trkpt lat="22.772585" lon="108.735881">
        <ele>102.090552</ele>
        <time>2026-08-14T04:45:44.000Z</time>
      </trkpt>
      <trkpt lat="22.772551" lon="108.735902">
        <ele>102.129931</ele>
        <time>2026-08-14T04:45:45.000Z</time>
      </trkpt>
      <trkpt lat="22.772518" lon="108.735922">
        <ele>102.167979</ele>
        <time>2026-08-14T04:45:46.000Z</time>
      </trkpt>
      <trkpt lat="22.772486" lon="108.735946">
        <ele>102.207136</ele>
        <time>2026-08-14T04:45:47.000Z</time>
      </trkpt>
      <trkpt lat="22.772466" lon="108.735976">
        <ele>102.241491</ele>
        <time>2026-08-14T04:45:48.000Z</time>
      </trkpt>
      <trkpt lat="22.772440" lon="108.736007">
        <ele>102.280380</ele>
        <time>2026-08-14T04:45:49.000Z</time>
      </trkpt>
      <trkpt lat="22.772415" lon="108.736039">
        <ele>102.319303</ele>
        <time>2026-08-14T04:45:50.000Z</time>
      </trkpt>
      <trkpt lat="22.772392" lon="108.736072">
        <ele>102.357691</ele>
        <time>2026-08-14T04:45:51.000Z</time>
      </trkpt>
      <trkpt lat="22.772371" lon="108.736106">
        <ele>102.395668</ele>
        <time>2026-08-14T04:45:52.000Z</time>
      </trkpt>
      <trkpt lat="22.772351" lon="108.736142">
        <ele>102.434672</ele>
        <time>2026-08-14T04:45:53.000Z</time>
      </trkpt>
      <trkpt lat="22.772330" lon="108.736177">
        <ele>102.473423</ele>
        <time>2026-08-14T04:45:54.000Z</time>
      </trkpt>
      <trkpt lat="22.772308" lon="108.736211">
        <ele>102.511970</ele>
        <time>2026-08-14T04:45:55.000Z</time>
      </trkpt>
      <trkpt lat="22.772285" lon="108.736246">
        <ele>102.551855</ele>
        <time>2026-08-14T04:45:56.000Z</time>
      </trkpt>
      <trkpt lat="22.772262" lon="108.736279">
        <ele>102.590243</ele>
        <time>2026-08-14T04:45:57.000Z</time>
      </trkpt>
      <trkpt lat="22.772236" lon="108.736311">
        <ele>102.629824</ele>
        <time>2026-08-14T04:45:58.000Z</time>
      </trkpt>
      <trkpt lat="22.772207" lon="108.736340">
        <ele>102.669525</ele>
        <time>2026-08-14T04:45:59.000Z</time>
      </trkpt>
      <trkpt lat="22.772174" lon="108.736366">
        <ele>102.710577</ele>
        <time>2026-08-14T04:46:00.000Z</time>
      </trkpt>
      <trkpt lat="22.772138" lon="108.736385">
        <ele>102.750872</ele>
        <time>2026-08-14T04:46:01.000Z</time>
      </trkpt>
      <trkpt lat="22.772101" lon="108.736398">
        <ele>102.790016</ele>
        <time>2026-08-14T04:46:02.000Z</time>
      </trkpt>
      <trkpt lat="22.772062" lon="108.736408">
        <ele>102.830350</ele>
        <time>2026-08-14T04:46:03.000Z</time>
      </trkpt>
      <trkpt lat="22.772023" lon="108.736416">
        <ele>102.870298</ele>
        <time>2026-08-14T04:46:04.000Z</time>
      </trkpt>
      <trkpt lat="22.771985" lon="108.736425">
        <ele>102.909445</ele>
        <time>2026-08-14T04:46:05.000Z</time>
      </trkpt>
      <trkpt lat="22.771948" lon="108.736438">
        <ele>102.948589</ele>
        <time>2026-08-14T04:46:06.000Z</time>
      </trkpt>
      <trkpt lat="22.771913" lon="108.736449">
        <ele>102.985265</ele>
        <time>2026-08-14T04:46:07.000Z</time>
      </trkpt>
      <trkpt lat="22.771877" lon="108.736463">
        <ele>103.023756</ele>
        <time>2026-08-14T04:46:08.000Z</time>
      </trkpt>
      <trkpt lat="22.771846" lon="108.736482">
        <ele>103.059594</ele>
        <time>2026-08-14T04:46:09.000Z</time>
      </trkpt>
      <trkpt lat="22.771818" lon="108.736507">
        <ele>103.096096</ele>
        <time>2026-08-14T04:46:10.000Z</time>
      </trkpt>
      <trkpt lat="22.771791" lon="108.736534">
        <ele>103.133059</ele>
        <time>2026-08-14T04:46:11.000Z</time>
      </trkpt>
      <trkpt lat="22.771764" lon="108.736563">
        <ele>103.138431</ele>
        <time>2026-08-14T04:46:12.000Z</time>
      </trkpt>
      <trkpt lat="22.771738" lon="108.736594">
        <ele>103.142805</ele>
        <time>2026-08-14T04:46:13.000Z</time>
      </trkpt>
      <trkpt lat="22.771711" lon="108.736624">
        <ele>103.147180</ele>
        <time>2026-08-14T04:46:14.000Z</time>
      </trkpt>
      <trkpt lat="22.771685" lon="108.736656">
        <ele>103.151632</ele>
        <time>2026-08-14T04:46:15.000Z</time>
      </trkpt>
      <trkpt lat="22.771658" lon="108.736690">
        <ele>103.156316</ele>
        <time>2026-08-14T04:46:16.000Z</time>
      </trkpt>
      <trkpt lat="22.771630" lon="108.736725">
        <ele>103.161152</ele>
        <time>2026-08-14T04:46:17.000Z</time>
      </trkpt>
      <trkpt lat="22.771603" lon="108.736763">
        <ele>103.166159</ele>
        <time>2026-08-14T04:46:18.000Z</time>
      </trkpt>
      <trkpt lat="22.771575" lon="108.736803">
        <ele>103.171401</ele>
        <time>2026-08-14T04:46:19.000Z</time>
      </trkpt>
      <trkpt lat="22.771547" lon="108.736843">
        <ele>103.176643</ele>
        <time>2026-08-14T04:46:20.000Z</time>
      </trkpt>
      <trkpt lat="22.771518" lon="108.736882">
        <ele>103.181872</ele>
        <time>2026-08-14T04:46:21.000Z</time>
      </trkpt>
      <trkpt lat="22.771491" lon="108.736917">
        <ele>103.186635</ele>
        <time>2026-08-14T04:46:22.000Z</time>
      </trkpt>
      <trkpt lat="22.771466" lon="108.736946">
        <ele>103.190779</ele>
        <time>2026-08-14T04:46:23.000Z</time>
      </trkpt>
      <trkpt lat="22.771444" lon="108.736971">
        <ele>103.194386</ele>
        <time>2026-08-14T04:46:24.000Z</time>
      </trkpt>
      <trkpt lat="22.771425" lon="108.736992">
        <ele>103.197457</ele>
        <time>2026-08-14T04:46:25.000Z</time>
      </trkpt>
      <trkpt lat="22.771409" lon="108.737003">
        <ele>103.199601</ele>
        <time>2026-08-14T04:46:26.000Z</time>
      </trkpt>
      <trkpt lat="22.771400" lon="108.737007">
        <ele>103.200702</ele>
        <time>2026-08-14T04:46:27.000Z</time>
      </trkpt>
      <trkpt lat="22.771396" lon="108.737007">
        <ele>103.201155</ele>
        <time>2026-08-14T04:46:28.000Z</time>
      </trkpt>
      <trkpt lat="22.771359" lon="108.737073">
        <ele>103.209217</ele>
        <time>2026-08-14T04:47:31.000Z</time>
      </trkpt>
      <trkpt lat="22.771341" lon="108.737087">
        <ele>103.211724</ele>
        <time>2026-08-14T04:47:32.000Z</time>
      </trkpt>
      <trkpt lat="22.771320" lon="108.737099">
        <ele>103.214411</ele>
        <time>2026-08-14T04:47:33.000Z</time>
      </trkpt>
      <trkpt lat="22.771297" lon="108.737113">
        <ele>103.217397</ele>
        <time>2026-08-14T04:47:34.000Z</time>
      </trkpt>
      <trkpt lat="22.771274" lon="108.737128">
        <ele>103.220435</ele>
        <time>2026-08-14T04:47:35.000Z</time>
      </trkpt>
      <trkpt lat="22.771249" lon="108.737143">
        <ele>103.223669</ele>
        <time>2026-08-14T04:47:36.000Z</time>
      </trkpt>
      <trkpt lat="22.771225" lon="108.737161">
        <ele>103.226972</ele>
        <time>2026-08-14T04:47:37.000Z</time>
      </trkpt>
      <trkpt lat="22.771200" lon="108.737179">
        <ele>103.230369</ele>
        <time>2026-08-14T04:47:38.000Z</time>
      </trkpt>
      <trkpt lat="22.771173" lon="108.737197">
        <ele>103.233956</ele>
        <time>2026-08-14T04:47:39.000Z</time>
      </trkpt>
      <trkpt lat="22.771146" lon="108.737217">
        <ele>103.237658</ele>
        <time>2026-08-14T04:47:40.000Z</time>
      </trkpt>
      <trkpt lat="22.771117" lon="108.737236">
        <ele>103.241493</ele>
        <time>2026-08-14T04:47:41.000Z</time>
      </trkpt>
      <trkpt lat="22.771088" lon="108.737255">
        <ele>103.245328</ele>
        <time>2026-08-14T04:47:42.000Z</time>
      </trkpt>
      <trkpt lat="22.771057" lon="108.737275">
        <ele>103.249411</ele>
        <time>2026-08-14T04:47:43.000Z</time>
      </trkpt>
      <trkpt lat="22.771024" lon="108.737295">
        <ele>103.253690</ele>
        <time>2026-08-14T04:47:44.000Z</time>
      </trkpt>
      <trkpt lat="22.770990" lon="108.737316">
        <ele>103.258119</ele>
        <time>2026-08-14T04:47:45.000Z</time>
      </trkpt>
      <trkpt lat="22.770955" lon="108.737336">
        <ele>103.262598</ele>
        <time>2026-08-14T04:47:46.000Z</time>
      </trkpt>
      <trkpt lat="22.770919" lon="108.737355">
        <ele>103.267130</ele>
        <time>2026-08-14T04:47:47.000Z</time>
      </trkpt>
      <trkpt lat="22.770880" lon="108.737373">
        <ele>103.271928</ele>
        <time>2026-08-14T04:47:48.000Z</time>
      </trkpt>
      <trkpt lat="22.770843" lon="108.737390">
        <ele>103.276476</ele>
        <time>2026-08-14T04:47:49.000Z</time>
      </trkpt>
      <trkpt lat="22.770806" lon="108.737406">
        <ele>103.280985</ele>
        <time>2026-08-14T04:47:50.000Z</time>
      </trkpt>
      <trkpt lat="22.770769" lon="108.737422">
        <ele>103.285494</ele>
        <time>2026-08-14T04:47:51.000Z</time>
      </trkpt>
      <trkpt lat="22.770731" lon="108.737438">
        <ele>103.290108</ele>
        <time>2026-08-14T04:47:52.000Z</time>
      </trkpt>
      <trkpt lat="22.770694" lon="108.737454">
        <ele>103.294617</ele>
        <time>2026-08-14T04:47:53.000Z</time>
      </trkpt>
      <trkpt lat="22.770656" lon="108.737470">
        <ele>103.299232</ele>
        <time>2026-08-14T04:47:54.000Z</time>
      </trkpt>
      <trkpt lat="22.770618" lon="108.737486">
        <ele>103.303846</ele>
        <time>2026-08-14T04:47:55.000Z</time>
      </trkpt>
      <trkpt lat="22.770578" lon="108.737501">
        <ele>103.308637</ele>
        <time>2026-08-14T04:47:56.000Z</time>
      </trkpt>
      <trkpt lat="22.770539" lon="108.737517">
        <ele>103.313357</ele>
        <time>2026-08-14T04:47:57.000Z</time>
      </trkpt>
      <trkpt lat="22.770500" lon="108.737533">
        <ele>103.318077</ele>
        <time>2026-08-14T04:47:58.000Z</time>
      </trkpt>
      <trkpt lat="22.770459" lon="108.737551">
        <ele>103.323084</ele>
        <time>2026-08-14T04:47:59.000Z</time>
      </trkpt>
      <trkpt lat="22.770419" lon="108.737569">
        <ele>103.327986</ele>
        <time>2026-08-14T04:48:00.000Z</time>
      </trkpt>
      <trkpt lat="22.770378" lon="108.737588">
        <ele>103.333033</ele>
        <time>2026-08-14T04:48:01.000Z</time>
      </trkpt>
      <trkpt lat="22.770337" lon="108.737603">
        <ele>103.338081</ele>
        <time>2026-08-14T04:48:02.000Z</time>
      </trkpt>
      <trkpt lat="22.770295" lon="108.737619">
        <ele>103.354830</ele>
        <time>2026-08-14T04:48:03.000Z</time>
      </trkpt>
      <trkpt lat="22.770253" lon="108.737636">
        <ele>103.371698</ele>
        <time>2026-08-14T04:48:04.000Z</time>
      </trkpt>
      <trkpt lat="22.770211" lon="108.737654">
        <ele>103.388690</ele>
        <time>2026-08-14T04:48:05.000Z</time>
      </trkpt>
      <trkpt lat="22.770169" lon="108.737671">
        <ele>103.405557</ele>
        <time>2026-08-14T04:48:06.000Z</time>
      </trkpt>
      <trkpt lat="22.770127" lon="108.737688">
        <ele>103.422425</ele>
        <time>2026-08-14T04:48:07.000Z</time>
      </trkpt>
      <trkpt lat="22.770085" lon="108.737704">
        <ele>103.439174</ele>
        <time>2026-08-14T04:48:08.000Z</time>
      </trkpt>
      <trkpt lat="22.770041" lon="108.737720">
        <ele>103.456636</ele>
        <time>2026-08-14T04:48:09.000Z</time>
      </trkpt>
      <trkpt lat="22.769998" lon="108.737736">
        <ele>103.473741</ele>
        <time>2026-08-14T04:48:10.000Z</time>
      </trkpt>
      <trkpt lat="22.769957" lon="108.737753">
        <ele>103.490256</ele>
        <time>2026-08-14T04:48:11.000Z</time>
      </trkpt>
      <trkpt lat="22.769915" lon="108.737772">
        <ele>103.507379</ele>
        <time>2026-08-14T04:48:12.000Z</time>
      </trkpt>
      <trkpt lat="22.769873" lon="108.737790">
        <ele>103.524371</ele>
        <time>2026-08-14T04:48:13.000Z</time>
      </trkpt>
      <trkpt lat="22.769829" lon="108.737809">
        <ele>103.542190</ele>
        <time>2026-08-14T04:48:14.000Z</time>
      </trkpt>
      <trkpt lat="22.769786" lon="108.737826">
        <ele>103.559411</ele>
        <time>2026-08-14T04:48:15.000Z</time>
      </trkpt>
      <trkpt lat="22.769743" lon="108.737843">
        <ele>103.576632</ele>
        <time>2026-08-14T04:48:16.000Z</time>
      </trkpt>
      <trkpt lat="22.769700" lon="108.737861">
        <ele>103.593974</ele>
        <time>2026-08-14T04:48:17.000Z</time>
      </trkpt>
      <trkpt lat="22.769658" lon="108.737881">
        <ele>103.611233</ele>
        <time>2026-08-14T04:48:18.000Z</time>
      </trkpt>
      <trkpt lat="22.769617" lon="108.737901">
        <ele>103.628149</ele>
        <time>2026-08-14T04:48:19.000Z</time>
      </trkpt>
      <trkpt lat="22.769575" lon="108.737921">
        <ele>103.645408</ele>
        <time>2026-08-14T04:48:20.000Z</time>
      </trkpt>
      <trkpt lat="22.769532" lon="108.737940">
        <ele>103.662878</ele>
        <time>2026-08-14T04:48:21.000Z</time>
      </trkpt>
      <trkpt lat="22.769489" lon="108.737958">
        <ele>103.680221</ele>
        <time>2026-08-14T04:48:22.000Z</time>
      </trkpt>
      <trkpt lat="22.769445" lon="108.737977">
        <ele>103.698040</ele>
        <time>2026-08-14T04:48:23.000Z</time>
      </trkpt>
      <trkpt lat="22.769402" lon="108.737995">
        <ele>103.715383</ele>
        <time>2026-08-14T04:48:24.000Z</time>
      </trkpt>
      <trkpt lat="22.769357" lon="108.738011">
        <ele>103.733201</ele>
        <time>2026-08-14T04:48:25.000Z</time>
      </trkpt>
      <trkpt lat="22.769314" lon="108.738027">
        <ele>103.750306</ele>
        <time>2026-08-14T04:48:26.000Z</time>
      </trkpt>
      <trkpt lat="22.769270" lon="108.738044">
        <ele>103.767881</ele>
        <time>2026-08-14T04:48:27.000Z</time>
      </trkpt>
      <trkpt lat="22.769226" lon="108.738061">
        <ele>103.785455</ele>
        <time>2026-08-14T04:48:28.000Z</time>
      </trkpt>
      <trkpt lat="22.769182" lon="108.738079">
        <ele>103.803149</ele>
        <time>2026-08-14T04:48:29.000Z</time>
      </trkpt>
      <trkpt lat="22.769138" lon="108.738095">
        <ele>103.820611</ele>
        <time>2026-08-14T04:48:30.000Z</time>
      </trkpt>
      <trkpt lat="22.769094" lon="108.738112">
        <ele>103.838185</ele>
        <time>2026-08-14T04:48:31.000Z</time>
      </trkpt>
      <trkpt lat="22.769050" lon="108.738127">
        <ele>103.855539</ele>
        <time>2026-08-14T04:48:32.000Z</time>
      </trkpt>
      <trkpt lat="22.769007" lon="108.738140">
        <ele>103.872335</ele>
        <time>2026-08-14T04:48:33.000Z</time>
      </trkpt>
      <trkpt lat="22.768962" lon="108.738151">
        <ele>103.889692</ele>
        <time>2026-08-14T04:48:34.000Z</time>
      </trkpt>
      <trkpt lat="22.768917" lon="108.738161">
        <ele>103.906975</ele>
        <time>2026-08-14T04:48:35.000Z</time>
      </trkpt>
      <trkpt lat="22.768872" lon="108.738171">
        <ele>103.924259</ele>
        <time>2026-08-14T04:48:36.000Z</time>
      </trkpt>
      <trkpt lat="22.768826" lon="108.738179">
        <ele>103.941788</ele>
        <time>2026-08-14T04:48:37.000Z</time>
      </trkpt>
      <trkpt lat="22.768780" lon="108.738185">
        <ele>103.959220</ele>
        <time>2026-08-14T04:48:38.000Z</time>
      </trkpt>
      <trkpt lat="22.768735" lon="108.738190">
        <ele>103.976241</ele>
        <time>2026-08-14T04:48:39.000Z</time>
      </trkpt>
      <trkpt lat="22.768689" lon="108.738193">
        <ele>103.993580</ele>
        <time>2026-08-14T04:48:40.000Z</time>
      </trkpt>
      <trkpt lat="22.768644" lon="108.738190">
        <ele>104.010544</ele>
        <time>2026-08-14T04:48:41.000Z</time>
      </trkpt>
      <trkpt lat="22.768597" lon="108.738182">
        <ele>104.044069</ele>
        <time>2026-08-14T04:48:42.000Z</time>
      </trkpt>
      <trkpt lat="22.768551" lon="108.738171">
        <ele>104.081829</ele>
        <time>2026-08-14T04:48:43.000Z</time>
      </trkpt>
      <trkpt lat="22.768506" lon="108.738160">
        <ele>104.118807</ele>
        <time>2026-08-14T04:48:44.000Z</time>
      </trkpt>
      <trkpt lat="22.768462" lon="108.738147">
        <ele>104.155364</ele>
        <time>2026-08-14T04:48:45.000Z</time>
      </trkpt>
      <trkpt lat="22.768419" lon="108.738131">
        <ele>104.191806</ele>
        <time>2026-08-14T04:48:46.000Z</time>
      </trkpt>
      <trkpt lat="22.768378" lon="108.738112">
        <ele>104.227547</ele>
        <time>2026-08-14T04:48:47.000Z</time>
      </trkpt>
      <trkpt lat="22.768337" lon="108.738091">
        <ele>104.263894</ele>
        <time>2026-08-14T04:48:48.000Z</time>
      </trkpt>
      <trkpt lat="22.768296" lon="108.738070">
        <ele>104.300242</ele>
        <time>2026-08-14T04:48:49.000Z</time>
      </trkpt>
      <trkpt lat="22.768256" lon="108.738048">
        <ele>104.336195</ele>
        <time>2026-08-14T04:48:50.000Z</time>
      </trkpt>
      <trkpt lat="22.768219" lon="108.738023">
        <ele>104.371140</ele>
        <time>2026-08-14T04:48:51.000Z</time>
      </trkpt>
      <trkpt lat="22.768184" lon="108.737994">
        <ele>104.406448</ele>
        <time>2026-08-14T04:48:52.000Z</time>
      </trkpt>
      <trkpt lat="22.768151" lon="108.737962">
        <ele>104.441934</ele>
        <time>2026-08-14T04:48:53.000Z</time>
      </trkpt>
      <trkpt lat="22.768118" lon="108.737930">
        <ele>104.477420</ele>
        <time>2026-08-14T04:48:54.000Z</time>
      </trkpt>
      <trkpt lat="22.768085" lon="108.737898">
        <ele>104.512906</ele>
        <time>2026-08-14T04:48:55.000Z</time>
      </trkpt>
      <trkpt lat="22.768055" lon="108.737865">
        <ele>104.547159</ele>
        <time>2026-08-14T04:48:56.000Z</time>
      </trkpt>
      <trkpt lat="22.768028" lon="108.737829">
        <ele>104.581460</ele>
        <time>2026-08-14T04:48:57.000Z</time>
      </trkpt>
      <trkpt lat="22.768003" lon="108.737791">
        <ele>104.615964</ele>
        <time>2026-08-14T04:48:58.000Z</time>
      </trkpt>
      <trkpt lat="22.767980" lon="108.737752">
        <ele>104.650183</ele>
        <time>2026-08-14T04:48:59.000Z</time>
      </trkpt>
      <trkpt lat="22.767958" lon="108.737709">
        <ele>104.686532</ele>
        <time>2026-08-14T04:49:00.000Z</time>
      </trkpt>
      <trkpt lat="22.767937" lon="108.737665">
        <ele>104.723153</ele>
        <time>2026-08-14T04:49:01.000Z</time>
      </trkpt>
      <trkpt lat="22.767916" lon="108.737622">
        <ele>104.759120</ele>
        <time>2026-08-14T04:49:02.000Z</time>
      </trkpt>
      <trkpt lat="22.767896" lon="108.737579">
        <ele>104.794718</ele>
        <time>2026-08-14T04:49:03.000Z</time>
      </trkpt>
      <trkpt lat="22.767881" lon="108.737535">
        <ele>104.829393</ele>
        <time>2026-08-14T04:49:04.000Z</time>
      </trkpt>
      <trkpt lat="22.767868" lon="108.737491">
        <ele>104.863545</ele>
        <time>2026-08-14T04:49:05.000Z</time>
      </trkpt>
      <trkpt lat="22.767856" lon="108.737448">
        <ele>104.896752</ele>
        <time>2026-08-14T04:49:06.000Z</time>
      </trkpt>
      <trkpt lat="22.767843" lon="108.737403">
        <ele>104.931609</ele>
        <time>2026-08-14T04:49:07.000Z</time>
      </trkpt>
      <trkpt lat="22.767830" lon="108.737358">
        <ele>104.966465</ele>
        <time>2026-08-14T04:49:08.000Z</time>
      </trkpt>
      <trkpt lat="22.767818" lon="108.737314">
        <ele>105.000381</ele>
        <time>2026-08-14T04:49:09.000Z</time>
      </trkpt>
      <trkpt lat="22.767807" lon="108.737270">
        <ele>105.034078</ele>
        <time>2026-08-14T04:49:10.000Z</time>
      </trkpt>
      <trkpt lat="22.767796" lon="108.737226">
        <ele>105.067775</ele>
        <time>2026-08-14T04:49:11.000Z</time>
      </trkpt>
      <trkpt lat="22.767783" lon="108.737183">
        <ele>105.101224</ele>
        <time>2026-08-14T04:49:12.000Z</time>
      </trkpt>
      <trkpt lat="22.767769" lon="108.737141">
        <ele>105.134234</ele>
        <time>2026-08-14T04:49:13.000Z</time>
      </trkpt>
      <trkpt lat="22.767755" lon="108.737099">
        <ele>105.167245</ele>
        <time>2026-08-14T04:49:14.000Z</time>
      </trkpt>
      <trkpt lat="22.767739" lon="108.737057">
        <ele>105.200835</ele>
        <time>2026-08-14T04:49:15.000Z</time>
      </trkpt>
      <trkpt lat="22.767721" lon="108.737019">
        <ele>105.232413</ele>
        <time>2026-08-14T04:49:16.000Z</time>
      </trkpt>
      <trkpt lat="22.767697" lon="108.736982">
        <ele>105.265851</ele>
        <time>2026-08-14T04:49:17.000Z</time>
      </trkpt>
      <trkpt lat="22.767671" lon="108.736949">
        <ele>105.297934</ele>
        <time>2026-08-14T04:49:18.000Z</time>
      </trkpt>
      <trkpt lat="22.767644" lon="108.736919">
        <ele>105.328921</ele>
        <time>2026-08-14T04:49:19.000Z</time>
      </trkpt>
      <trkpt lat="22.767619" lon="108.736891">
        <ele>105.357730</ele>
        <time>2026-08-14T04:49:20.000Z</time>
      </trkpt>
      <trkpt lat="22.767594" lon="108.736867">
        <ele>105.384494</ele>
        <time>2026-08-14T04:49:21.000Z</time>
      </trkpt>
      <trkpt lat="22.767569" lon="108.736844">
        <ele>105.410775</ele>
        <time>2026-08-14T04:49:22.000Z</time>
      </trkpt>
      <trkpt lat="22.767544" lon="108.736823">
        <ele>105.436123</ele>
        <time>2026-08-14T04:49:23.000Z</time>
      </trkpt>
      <trkpt lat="22.767520" lon="108.736807">
        <ele>105.465185</ele>
        <time>2026-08-14T04:49:24.000Z</time>
      </trkpt>
      <trkpt lat="22.767494" lon="108.736792">
        <ele>105.556614</ele>
        <time>2026-08-14T04:49:25.000Z</time>
      </trkpt>
      <trkpt lat="22.767469" lon="108.736778">
        <ele>105.643964</ele>
        <time>2026-08-14T04:49:26.000Z</time>
      </trkpt>
      <trkpt lat="22.767447" lon="108.736767">
        <ele>105.719173</ele>
        <time>2026-08-14T04:49:27.000Z</time>
      </trkpt>
      <trkpt lat="22.767425" lon="108.736752">
        <ele>105.799849</ele>
        <time>2026-08-14T04:49:28.000Z</time>
      </trkpt>
      <trkpt lat="22.767401" lon="108.736733">
        <ele>105.892098</ele>
        <time>2026-08-14T04:49:29.000Z</time>
      </trkpt>
      <trkpt lat="22.767377" lon="108.736718">
        <ele>105.978094</ele>
        <time>2026-08-14T04:49:30.000Z</time>
      </trkpt>
      <trkpt lat="22.767353" lon="108.736711">
        <ele>106.055250</ele>
        <time>2026-08-14T04:49:31.000Z</time>
      </trkpt>
      <trkpt lat="22.767326" lon="108.736710">
        <ele>106.139121</ele>
        <time>2026-08-14T04:49:32.000Z</time>
      </trkpt>
      <trkpt lat="22.767299" lon="108.736710">
        <ele>106.222944</ele>
        <time>2026-08-14T04:49:33.000Z</time>
      </trkpt>
      <trkpt lat="22.767267" lon="108.736711">
        <ele>106.322330</ele>
        <time>2026-08-14T04:49:34.000Z</time>
      </trkpt>
      <trkpt lat="22.767233" lon="108.736713">
        <ele>106.428039</ele>
        <time>2026-08-14T04:49:35.000Z</time>
      </trkpt>
      <trkpt lat="22.767197" lon="108.736716">
        <ele>106.540131</ele>
        <time>2026-08-14T04:49:36.000Z</time>
      </trkpt>
      <trkpt lat="22.767161" lon="108.736721">
        <ele>106.652807</ele>
        <time>2026-08-14T04:49:37.000Z</time>
      </trkpt>
      <trkpt lat="22.767126" lon="108.736724">
        <ele>106.761805</ele>
        <time>2026-08-14T04:49:38.000Z</time>
      </trkpt>
      <trkpt lat="22.767095" lon="108.736725">
        <ele>106.858088</ele>
        <time>2026-08-14T04:49:39.000Z</time>
      </trkpt>
      <trkpt lat="22.767062" lon="108.736728">
        <ele>106.960897</ele>
        <time>2026-08-14T04:49:40.000Z</time>
      </trkpt>
      <trkpt lat="22.767026" lon="108.736733">
        <ele>107.073573</ele>
        <time>2026-08-14T04:49:41.000Z</time>
      </trkpt>
      <trkpt lat="22.766987" lon="108.736744">
        <ele>107.198677</ele>
        <time>2026-08-14T04:49:42.000Z</time>
      </trkpt>
      <trkpt lat="22.766946" lon="108.736761">
        <ele>107.334949</ele>
        <time>2026-08-14T04:49:43.000Z</time>
      </trkpt>
      <trkpt lat="22.766912" lon="108.736778">
        <ele>107.451181</ele>
        <time>2026-08-14T04:49:44.000Z</time>
      </trkpt>
      <trkpt lat="22.766876" lon="108.736793">
        <ele>107.570909</ele>
        <time>2026-08-14T04:49:45.000Z</time>
      </trkpt>
      <trkpt lat="22.766842" lon="108.736801">
        <ele>107.678919</ele>
        <time>2026-08-14T04:49:46.000Z</time>
      </trkpt>
      <trkpt lat="22.766805" lon="108.736814">
        <ele>107.799664</ele>
        <time>2026-08-14T04:49:47.000Z</time>
      </trkpt>
      <trkpt lat="22.766770" lon="108.736824">
        <ele>107.912030</ele>
        <time>2026-08-14T04:49:48.000Z</time>
      </trkpt>
      <trkpt lat="22.766739" lon="108.736830">
        <ele>108.009791</ele>
        <time>2026-08-14T04:49:49.000Z</time>
      </trkpt>
      <trkpt lat="22.766706" lon="108.736831">
        <ele>108.112281</ele>
        <time>2026-08-14T04:49:50.000Z</time>
      </trkpt>
      <trkpt lat="22.766667" lon="108.736833">
        <ele>108.233493</ele>
        <time>2026-08-14T04:49:51.000Z</time>
      </trkpt>
      <trkpt lat="22.766629" lon="108.736835">
        <ele>108.351604</ele>
        <time>2026-08-14T04:49:52.000Z</time>
      </trkpt>
      <trkpt lat="22.766590" lon="108.736833">
        <ele>108.472816</ele>
        <time>2026-08-14T04:49:53.000Z</time>
      </trkpt>
      <trkpt lat="22.766552" lon="108.736829">
        <ele>108.591342</ele>
        <time>2026-08-14T04:49:54.000Z</time>
      </trkpt>
      <trkpt lat="22.766517" lon="108.736825">
        <ele>108.700603</ele>
        <time>2026-08-14T04:49:55.000Z</time>
      </trkpt>
      <trkpt lat="22.766483" lon="108.736821">
        <ele>108.806776</ele>
        <time>2026-08-14T04:49:56.000Z</time>
      </trkpt>
      <trkpt lat="22.766450" lon="108.736816">
        <ele>108.910221</ele>
        <time>2026-08-14T04:49:57.000Z</time>
      </trkpt>
      <trkpt lat="22.766418" lon="108.736807">
        <ele>109.012852</ele>
        <time>2026-08-14T04:49:58.000Z</time>
      </trkpt>
      <trkpt lat="22.766387" lon="108.736799">
        <ele>109.111780</ele>
        <time>2026-08-14T04:49:59.000Z</time>
      </trkpt>
      <trkpt lat="22.766356" lon="108.736789">
        <ele>109.212187</ele>
        <time>2026-08-14T04:50:00.000Z</time>
      </trkpt>
      <trkpt lat="22.766326" lon="108.736776">
        <ele>109.312483</ele>
        <time>2026-08-14T04:50:01.000Z</time>
      </trkpt>
      <trkpt lat="22.766297" lon="108.736764">
        <ele>109.408845</ele>
        <time>2026-08-14T04:50:02.000Z</time>
      </trkpt>
      <trkpt lat="22.766271" lon="108.736751">
        <ele>109.497729</ele>
        <time>2026-08-14T04:50:03.000Z</time>
      </trkpt>
      <trkpt lat="22.766247" lon="108.736746">
        <ele>109.573600</ele>
        <time>2026-08-14T04:50:04.000Z</time>
      </trkpt>
      <trkpt lat="22.766224" lon="108.736740">
        <ele>109.647041</ele>
        <time>2026-08-14T04:50:05.000Z</time>
      </trkpt>
      <trkpt lat="22.766203" lon="108.736733">
        <ele>109.715246</ele>
        <time>2026-08-14T04:50:06.000Z</time>
      </trkpt>
      <trkpt lat="22.766186" lon="108.736733">
        <ele>109.768023</ele>
        <time>2026-08-14T04:50:07.000Z</time>
      </trkpt>
      <trkpt lat="22.766169" lon="108.736726">
        <ele>109.824476</ele>
        <time>2026-08-14T04:50:08.000Z</time>
      </trkpt>
      <trkpt lat="22.766152" lon="108.736717">
        <ele>109.883206</ele>
        <time>2026-08-14T04:50:09.000Z</time>
      </trkpt>
      <trkpt lat="22.766133" lon="108.736706">
        <ele>109.950071</ele>
        <time>2026-08-14T04:50:10.000Z</time>
      </trkpt>
      <trkpt lat="22.766115" lon="108.736697">
        <ele>110.011606</ele>
        <time>2026-08-14T04:50:11.000Z</time>
      </trkpt>
      <trkpt lat="22.766098" lon="108.736683">
        <ele>110.077875</ele>
        <time>2026-08-14T04:50:12.000Z</time>
      </trkpt>
      <trkpt lat="22.766082" lon="108.736670">
        <ele>110.139942</ele>
        <time>2026-08-14T04:50:13.000Z</time>
      </trkpt>
      <trkpt lat="22.766068" lon="108.736656">
        <ele>110.199063</ele>
        <time>2026-08-14T04:50:14.000Z</time>
      </trkpt>
      <trkpt lat="22.766051" lon="108.736644">
        <ele>110.262035</ele>
        <time>2026-08-14T04:50:15.000Z</time>
      </trkpt>
      <trkpt lat="22.766035" lon="108.736632">
        <ele>110.322428</ele>
        <time>2026-08-14T04:50:16.000Z</time>
      </trkpt>
      <trkpt lat="22.766021" lon="108.736619">
        <ele>110.379647</ele>
        <time>2026-08-14T04:50:17.000Z</time>
      </trkpt>
      <trkpt lat="22.766004" lon="108.736604">
        <ele>110.447686</ele>
        <time>2026-08-14T04:50:18.000Z</time>
      </trkpt>
      <trkpt lat="22.765984" lon="108.736587">
        <ele>110.526575</ele>
        <time>2026-08-14T04:50:19.000Z</time>
      </trkpt>
      <trkpt lat="22.765962" lon="108.736568">
        <ele>110.613886</ele>
        <time>2026-08-14T04:50:20.000Z</time>
      </trkpt>
      <trkpt lat="22.765942" lon="108.736547">
        <ele>110.700311</ele>
        <time>2026-08-14T04:50:21.000Z</time>
      </trkpt>
      <trkpt lat="22.765922" lon="108.736526">
        <ele>110.786735</ele>
        <time>2026-08-14T04:50:22.000Z</time>
      </trkpt>
      <trkpt lat="22.765904" lon="108.736507">
        <ele>110.864716</ele>
        <time>2026-08-14T04:50:23.000Z</time>
      </trkpt>
      <trkpt lat="22.765886" lon="108.736490">
        <ele>110.938818</ele>
        <time>2026-08-14T04:50:24.000Z</time>
      </trkpt>
      <trkpt lat="22.765862" lon="108.736480">
        <ele>111.018637</ele>
        <time>2026-08-14T04:50:25.000Z</time>
      </trkpt>
      <trkpt lat="22.765840" lon="108.736480">
        <ele>111.016845</ele>
        <time>2026-08-14T04:50:26.000Z</time>
      </trkpt>
      <trkpt lat="22.765826" lon="108.736492">
        <ele>110.988816</ele>
        <time>2026-08-14T04:50:27.000Z</time>
      </trkpt>
      <trkpt lat="22.765821" lon="108.736511">
        <ele>110.960198</ele>
        <time>2026-08-14T04:50:28.000Z</time>
      </trkpt>
      <trkpt lat="22.765821" lon="108.736530">
        <ele>110.932679</ele>
        <time>2026-08-14T04:50:29.000Z</time>
      </trkpt>
      <trkpt lat="22.765825" lon="108.736546">
        <ele>110.908668</ele>
        <time>2026-08-14T04:50:30.000Z</time>
      </trkpt>
      <trkpt lat="22.765827" lon="108.736556">
        <ele>110.893848</ele>
        <time>2026-08-14T04:50:31.000Z</time>
      </trkpt>
      <trkpt lat="22.765827" lon="108.736561">
        <ele>110.886606</ele>
        <time>2026-08-14T04:50:32.000Z</time>
      </trkpt>
      <trkpt lat="22.765829" lon="108.736568">
        <ele>110.875992</ele>
        <time>2026-08-14T04:50:33.000Z</time>
      </trkpt>
      <trkpt lat="22.765795" lon="108.736552">
        <ele>110.817776</ele>
        <time>2026-08-14T05:43:10.000Z</time>
      </trkpt>
      <trkpt lat="22.765852" lon="108.736538">
        <ele>110.725976</ele>
        <time>2026-08-14T05:48:21.000Z</time>
      </trkpt>
      <trkpt lat="22.765853" lon="108.736517">
        <ele>110.695520</ele>
        <time>2026-08-14T05:48:22.000Z</time>
      </trkpt>
      <trkpt lat="22.765844" lon="108.736496">
        <ele>110.661979</ele>
        <time>2026-08-14T05:48:23.000Z</time>
      </trkpt>
      <trkpt lat="22.765831" lon="108.736479">
        <ele>110.629991</ele>
        <time>2026-08-14T05:48:24.000Z</time>
      </trkpt>
      <trkpt lat="22.765815" lon="108.736462">
        <ele>110.594808</ele>
        <time>2026-08-14T05:48:25.000Z</time>
      </trkpt>
      <trkpt lat="22.765798" lon="108.736444">
        <ele>110.557489</ele>
        <time>2026-08-14T05:48:26.000Z</time>
      </trkpt>
      <trkpt lat="22.765780" lon="108.736425">
        <ele>110.518034</ele>
        <time>2026-08-14T05:48:27.000Z</time>
      </trkpt>
      <trkpt lat="22.765757" lon="108.736410">
        <ele>110.475878</ele>
        <time>2026-08-14T05:48:28.000Z</time>
      </trkpt>
      <trkpt lat="22.765730" lon="108.736395">
        <ele>110.428227</ele>
        <time>2026-08-14T05:48:29.000Z</time>
      </trkpt>
      <trkpt lat="22.765697" lon="108.736378">
        <ele>110.370841</ele>
        <time>2026-08-14T05:48:30.000Z</time>
      </trkpt>
      <trkpt lat="22.765663" lon="108.736352">
        <ele>110.305495</ele>
        <time>2026-08-14T05:48:31.000Z</time>
      </trkpt>
      <trkpt lat="22.765620" lon="108.736325">
        <ele>110.227448</ele>
        <time>2026-08-14T05:48:32.000Z</time>
      </trkpt>
      <trkpt lat="22.765576" lon="108.736295">
        <ele>110.145812</ele>
        <time>2026-08-14T05:48:33.000Z</time>
      </trkpt>
      <trkpt lat="22.765534" lon="108.736265">
        <ele>110.066817</ele>
        <time>2026-08-14T05:48:34.000Z</time>
      </trkpt>
      <trkpt lat="22.765493" lon="108.736241">
        <ele>109.993634</ele>
        <time>2026-08-14T05:48:35.000Z</time>
      </trkpt>
      <trkpt lat="22.765453" lon="108.736221">
        <ele>109.924448</ele>
        <time>2026-08-14T05:48:36.000Z</time>
      </trkpt>
      <trkpt lat="22.765412" lon="108.736204">
        <ele>109.855501</ele>
        <time>2026-08-14T05:48:37.000Z</time>
      </trkpt>
      <trkpt lat="22.765371" lon="108.736189">
        <ele>109.787535</ele>
        <time>2026-08-14T05:48:38.000Z</time>
      </trkpt>
      <trkpt lat="22.765328" lon="108.736182">
        <ele>109.719236</ele>
        <time>2026-08-14T05:48:39.000Z</time>
      </trkpt>
      <trkpt lat="22.765287" lon="108.736185">
        <ele>109.654690</ele>
        <time>2026-08-14T05:48:40.000Z</time>
      </trkpt>
      <trkpt lat="22.765249" lon="108.736193">
        <ele>109.593887</ele>
        <time>2026-08-14T05:48:41.000Z</time>
      </trkpt>
      <trkpt lat="22.765212" lon="108.736205">
        <ele>109.533226</ele>
        <time>2026-08-14T05:48:42.000Z</time>
      </trkpt>
      <trkpt lat="22.765177" lon="108.736220">
        <ele>109.474113</ele>
        <time>2026-08-14T05:48:43.000Z</time>
      </trkpt>
      <trkpt lat="22.765141" lon="108.736242">
        <ele>109.409207</ele>
        <time>2026-08-14T05:48:44.000Z</time>
      </trkpt>
      <trkpt lat="22.765104" lon="108.736269">
        <ele>109.339157</ele>
        <time>2026-08-14T05:48:45.000Z</time>
      </trkpt>
      <trkpt lat="22.765065" lon="108.736299">
        <ele>109.264053</ele>
        <time>2026-08-14T05:48:46.000Z</time>
      </trkpt>
      <trkpt lat="22.765028" lon="108.736331">
        <ele>109.189717</ele>
        <time>2026-08-14T05:48:47.000Z</time>
      </trkpt>
      <trkpt lat="22.764993" lon="108.736366">
        <ele>109.114936</ele>
        <time>2026-08-14T05:48:48.000Z</time>
      </trkpt>
      <trkpt lat="22.764960" lon="108.736398">
        <ele>109.045403</ele>
        <time>2026-08-14T05:48:49.000Z</time>
      </trkpt>
      <trkpt lat="22.764931" lon="108.736426">
        <ele>108.984414</ele>
        <time>2026-08-14T05:48:50.000Z</time>
      </trkpt>
      <trkpt lat="22.764904" lon="108.736451">
        <ele>108.928649</ele>
        <time>2026-08-14T05:48:51.000Z</time>
      </trkpt>
      <trkpt lat="22.764877" lon="108.736478">
        <ele>108.870961</ele>
        <time>2026-08-14T05:48:52.000Z</time>
      </trkpt>
      <trkpt lat="22.764850" lon="108.736500">
        <ele>108.817914</ele>
        <time>2026-08-14T05:48:53.000Z</time>
      </trkpt>
      <trkpt lat="22.764819" lon="108.736520">
        <ele>108.761256</ele>
        <time>2026-08-14T05:48:54.000Z</time>
      </trkpt>
      <trkpt lat="22.764788" lon="108.736539">
        <ele>108.705325</ele>
        <time>2026-08-14T05:48:55.000Z</time>
      </trkpt>
      <trkpt lat="22.764761" lon="108.736561">
        <ele>108.652278</ele>
        <time>2026-08-14T05:48:56.000Z</time>
      </trkpt>
      <trkpt lat="22.764739" lon="108.736589">
        <ele>108.598997</ele>
        <time>2026-08-14T05:48:57.000Z</time>
      </trkpt>
      <trkpt lat="22.764720" lon="108.736627">
        <ele>108.536388</ele>
        <time>2026-08-14T05:48:58.000Z</time>
      </trkpt>
      <trkpt lat="22.764714" lon="108.736670">
        <ele>108.473399</ele>
        <time>2026-08-14T05:48:59.000Z</time>
      </trkpt>
      <trkpt lat="22.764716" lon="108.736714">
        <ele>108.409593</ele>
        <time>2026-08-14T05:49:00.000Z</time>
      </trkpt>
      <trkpt lat="22.764721" lon="108.736760">
        <ele>108.342506</ele>
        <time>2026-08-14T05:49:01.000Z</time>
      </trkpt>
      <trkpt lat="22.764728" lon="108.736807">
        <ele>108.273549</ele>
        <time>2026-08-14T05:49:02.000Z</time>
      </trkpt>
      <trkpt lat="22.764735" lon="108.736857">
        <ele>108.197587</ele>
        <time>2026-08-14T05:49:03.000Z</time>
      </trkpt>
      <trkpt lat="22.764740" lon="108.736909">
        <ele>108.108064</ele>
        <time>2026-08-14T05:49:04.000Z</time>
      </trkpt>
      <trkpt lat="22.764747" lon="108.736958">
        <ele>108.023161</ele>
        <time>2026-08-14T05:49:05.000Z</time>
      </trkpt>
      <trkpt lat="22.764754" lon="108.737010">
        <ele>107.933177</ele>
        <time>2026-08-14T05:49:06.000Z</time>
      </trkpt>
      <trkpt lat="22.764764" lon="108.737064">
        <ele>107.838867</ele>
        <time>2026-08-14T05:49:07.000Z</time>
      </trkpt>
      <trkpt lat="22.764777" lon="108.737118">
        <ele>107.743303</ele>
        <time>2026-08-14T05:49:08.000Z</time>
      </trkpt>
      <trkpt lat="22.764789" lon="108.737173">
        <ele>107.646526</ele>
        <time>2026-08-14T05:49:09.000Z</time>
      </trkpt>
      <trkpt lat="22.764799" lon="108.737229">
        <ele>107.548855</ele>
        <time>2026-08-14T05:49:10.000Z</time>
      </trkpt>
      <trkpt lat="22.764809" lon="108.737285">
        <ele>107.451185</ele>
        <time>2026-08-14T05:49:11.000Z</time>
      </trkpt>
      <trkpt lat="22.764819" lon="108.737341">
        <ele>107.353515</ele>
        <time>2026-08-14T05:49:12.000Z</time>
      </trkpt>
      <trkpt lat="22.764829" lon="108.737398">
        <ele>107.254162</ele>
        <time>2026-08-14T05:49:13.000Z</time>
      </trkpt>
      <trkpt lat="22.764838" lon="108.737457">
        <ele>107.151764</ele>
        <time>2026-08-14T05:49:14.000Z</time>
      </trkpt>
      <trkpt lat="22.764847" lon="108.737516">
        <ele>107.049365</ele>
        <time>2026-08-14T05:49:15.000Z</time>
      </trkpt>
      <trkpt lat="22.764855" lon="108.737575">
        <ele>106.947253</ele>
        <time>2026-08-14T05:49:16.000Z</time>
      </trkpt>
      <trkpt lat="22.764862" lon="108.737635">
        <ele>106.843695</ele>
        <time>2026-08-14T05:49:17.000Z</time>
      </trkpt>
      <trkpt lat="22.764869" lon="108.737695">
        <ele>106.740138</ele>
        <time>2026-08-14T05:49:18.000Z</time>
      </trkpt>
      <trkpt lat="22.764873" lon="108.737756">
        <ele>106.635424</ele>
        <time>2026-08-14T05:49:19.000Z</time>
      </trkpt>
      <trkpt lat="22.764878" lon="108.737818">
        <ele>106.528856</ele>
        <time>2026-08-14T05:49:20.000Z</time>
      </trkpt>
      <trkpt lat="22.764882" lon="108.737881">
        <ele>106.420726</ele>
        <time>2026-08-14T05:49:21.000Z</time>
      </trkpt>
      <trkpt lat="22.764885" lon="108.737943">
        <ele>106.314417</ele>
        <time>2026-08-14T05:49:22.000Z</time>
      </trkpt>
      <trkpt lat="22.764887" lon="108.738007">
        <ele>106.204767</ele>
        <time>2026-08-14T05:49:23.000Z</time>
      </trkpt>
      <trkpt lat="22.764890" lon="108.738070">
        <ele>106.096748</ele>
        <time>2026-08-14T05:49:24.000Z</time>
      </trkpt>
      <trkpt lat="22.764891" lon="108.738134">
        <ele>105.987145</ele>
        <time>2026-08-14T05:49:25.000Z</time>
      </trkpt>
      <trkpt lat="22.764894" lon="108.738198">
        <ele>105.877416</ele>
        <time>2026-08-14T05:49:26.000Z</time>
      </trkpt>
      <trkpt lat="22.764895" lon="108.738263">
        <ele>105.766101</ele>
        <time>2026-08-14T05:49:27.000Z</time>
      </trkpt>
      <trkpt lat="22.764895" lon="108.738327">
        <ele>105.656514</ele>
        <time>2026-08-14T05:49:28.000Z</time>
      </trkpt>
      <trkpt lat="22.764895" lon="108.738390">
        <ele>105.548639</ele>
        <time>2026-08-14T05:49:29.000Z</time>
      </trkpt>
      <trkpt lat="22.764894" lon="108.738454">
        <ele>105.439036</ele>
        <time>2026-08-14T05:49:30.000Z</time>
      </trkpt>
      <trkpt lat="22.764894" lon="108.738518">
        <ele>105.329449</ele>
        <time>2026-08-14T05:49:31.000Z</time>
      </trkpt>
      <trkpt lat="22.764894" lon="108.738583">
        <ele>105.218149</ele>
        <time>2026-08-14T05:49:32.000Z</time>
      </trkpt>
      <trkpt lat="22.764895" lon="108.738648">
        <ele>105.106834</ele>
        <time>2026-08-14T05:49:33.000Z</time>
      </trkpt>
      <trkpt lat="22.764895" lon="108.738713">
        <ele>104.995535</ele>
        <time>2026-08-14T05:49:34.000Z</time>
      </trkpt>
      <trkpt lat="22.764895" lon="108.738778">
        <ele>104.884235</ele>
        <time>2026-08-14T05:49:35.000Z</time>
      </trkpt>
      <trkpt lat="22.764895" lon="108.738843">
        <ele>104.810425</ele>
        <time>2026-08-14T05:49:36.000Z</time>
      </trkpt>
      <trkpt lat="22.764895" lon="108.738908">
        <ele>104.739933</ele>
        <time>2026-08-14T05:49:37.000Z</time>
      </trkpt>
      <trkpt lat="22.764895" lon="108.738972">
        <ele>104.670525</ele>
        <time>2026-08-14T05:49:38.000Z</time>
      </trkpt>
      <trkpt lat="22.764896" lon="108.739036">
        <ele>104.601107</ele>
        <time>2026-08-14T05:49:39.000Z</time>
      </trkpt>
      <trkpt lat="22.764897" lon="108.739101">
        <ele>104.530605</ele>
        <time>2026-08-14T05:49:40.000Z</time>
      </trkpt>
      <trkpt lat="22.764897" lon="108.739165">
        <ele>104.461197</ele>
        <time>2026-08-14T05:49:41.000Z</time>
      </trkpt>
      <trkpt lat="22.764899" lon="108.739229">
        <ele>104.391749</ele>
        <time>2026-08-14T05:49:42.000Z</time>
      </trkpt>
      <trkpt lat="22.764899" lon="108.739292">
        <ele>104.323426</ele>
        <time>2026-08-14T05:49:43.000Z</time>
      </trkpt>
      <trkpt lat="22.764899" lon="108.739355">
        <ele>104.255102</ele>
        <time>2026-08-14T05:49:44.000Z</time>
      </trkpt>
      <trkpt lat="22.764898" lon="108.739420">
        <ele>104.184600</ele>
        <time>2026-08-14T05:49:45.000Z</time>
      </trkpt>
      <trkpt lat="22.764897" lon="108.739484">
        <ele>104.115182</ele>
        <time>2026-08-14T05:49:46.000Z</time>
      </trkpt>
      <trkpt lat="22.764897" lon="108.739548">
        <ele>104.045774</ele>
        <time>2026-08-14T05:49:47.000Z</time>
      </trkpt>
      <trkpt lat="22.764897" lon="108.739612">
        <ele>103.976366</ele>
        <time>2026-08-14T05:49:48.000Z</time>
      </trkpt>
      <trkpt lat="22.764896" lon="108.739677">
        <ele>103.905864</ele>
        <time>2026-08-14T05:49:49.000Z</time>
      </trkpt>
      <trkpt lat="22.764896" lon="108.739742">
        <ele>103.835371</ele>
        <time>2026-08-14T05:49:50.000Z</time>
      </trkpt>
      <trkpt lat="22.764895" lon="108.739807">
        <ele>103.764869</ele>
        <time>2026-08-14T05:49:51.000Z</time>
      </trkpt>
      <trkpt lat="22.764893" lon="108.739872">
        <ele>103.694337</ele>
        <time>2026-08-14T05:49:52.000Z</time>
      </trkpt>
      <trkpt lat="22.764894" lon="108.739939">
        <ele>103.621666</ele>
        <time>2026-08-14T05:49:53.000Z</time>
      </trkpt>
      <trkpt lat="22.764896" lon="108.740007">
        <ele>103.547883</ele>
        <time>2026-08-14T05:49:54.000Z</time>
      </trkpt>
      <trkpt lat="22.764896" lon="108.740073">
        <ele>103.476306</ele>
        <time>2026-08-14T05:49:55.000Z</time>
      </trkpt>
      <trkpt lat="22.764894" lon="108.740138">
        <ele>103.405774</ele>
        <time>2026-08-14T05:49:56.000Z</time>
      </trkpt>
      <trkpt lat="22.764895" lon="108.740205">
        <ele>103.333103</ele>
        <time>2026-08-14T05:49:57.000Z</time>
      </trkpt>
      <trkpt lat="22.764894" lon="108.740271">
        <ele>103.261517</ele>
        <time>2026-08-14T05:49:58.000Z</time>
      </trkpt>
      <trkpt lat="22.764893" lon="108.740337">
        <ele>103.189930</ele>
        <time>2026-08-14T05:49:59.000Z</time>
      </trkpt>
      <trkpt lat="22.764891" lon="108.740404">
        <ele>103.117231</ele>
        <time>2026-08-14T05:50:00.000Z</time>
      </trkpt>
      <trkpt lat="22.764891" lon="108.740469">
        <ele>103.046738</ele>
        <time>2026-08-14T05:50:01.000Z</time>
      </trkpt>
      <trkpt lat="22.764891" lon="108.740534">
        <ele>102.976246</ele>
        <time>2026-08-14T05:50:02.000Z</time>
      </trkpt>
      <trkpt lat="22.764891" lon="108.740597">
        <ele>102.907922</ele>
        <time>2026-08-14T05:50:03.000Z</time>
      </trkpt>
      <trkpt lat="22.764890" lon="108.740659">
        <ele>102.840673</ele>
        <time>2026-08-14T05:50:04.000Z</time>
      </trkpt>
      <trkpt lat="22.764887" lon="108.740721">
        <ele>102.773342</ele>
        <time>2026-08-14T05:50:05.000Z</time>
      </trkpt>
      <trkpt lat="22.764885" lon="108.740784">
        <ele>102.722489</ele>
        <time>2026-08-14T05:50:06.000Z</time>
      </trkpt>
      <trkpt lat="22.764884" lon="108.740845">
        <ele>102.677469</ele>
        <time>2026-08-14T05:50:07.000Z</time>
      </trkpt>
      <trkpt lat="22.764883" lon="108.740905">
        <ele>102.633188</ele>
        <time>2026-08-14T05:50:08.000Z</time>
      </trkpt>
      <trkpt lat="22.764883" lon="108.740968">
        <ele>102.586700</ele>
        <time>2026-08-14T05:50:09.000Z</time>
      </trkpt>
      <trkpt lat="22.764883" lon="108.741031">
        <ele>102.540211</ele>
        <time>2026-08-14T05:50:10.000Z</time>
      </trkpt>
      <trkpt lat="22.764883" lon="108.741094">
        <ele>102.493723</ele>
        <time>2026-08-14T05:50:11.000Z</time>
      </trkpt>
      <trkpt lat="22.764882" lon="108.741155">
        <ele>102.448704</ele>
        <time>2026-08-14T05:50:12.000Z</time>
      </trkpt>
      <trkpt lat="22.764881" lon="108.741217">
        <ele>102.402947</ele>
        <time>2026-08-14T05:50:13.000Z</time>
      </trkpt>
      <trkpt lat="22.764883" lon="108.741279">
        <ele>102.357169</ele>
        <time>2026-08-14T05:50:14.000Z</time>
      </trkpt>
      <trkpt lat="22.764884" lon="108.741342">
        <ele>102.310674</ele>
        <time>2026-08-14T05:50:15.000Z</time>
      </trkpt>
      <trkpt lat="22.764883" lon="108.741404">
        <ele>102.264917</ele>
        <time>2026-08-14T05:50:16.000Z</time>
      </trkpt>
      <trkpt lat="22.764884" lon="108.741466">
        <ele>102.219159</ele>
        <time>2026-08-14T05:50:17.000Z</time>
      </trkpt>
      <trkpt lat="22.764886" lon="108.741528">
        <ele>102.173381</ele>
        <time>2026-08-14T05:50:18.000Z</time>
      </trkpt>
      <trkpt lat="22.764888" lon="108.741591">
        <ele>102.126866</ele>
        <time>2026-08-14T05:50:19.000Z</time>
      </trkpt>
      <trkpt lat="22.764890" lon="108.741654">
        <ele>102.080350</ele>
        <time>2026-08-14T05:50:20.000Z</time>
      </trkpt>
      <trkpt lat="22.764894" lon="108.741717">
        <ele>102.033752</ele>
        <time>2026-08-14T05:50:21.000Z</time>
      </trkpt>
      <trkpt lat="22.764899" lon="108.741781">
        <ele>101.986357</ele>
        <time>2026-08-14T05:50:22.000Z</time>
      </trkpt>
      <trkpt lat="22.764903" lon="108.741845">
        <ele>101.939022</ele>
        <time>2026-08-14T05:50:23.000Z</time>
      </trkpt>
      <trkpt lat="22.764907" lon="108.741907">
        <ele>101.893160</ele>
        <time>2026-08-14T05:50:24.000Z</time>
      </trkpt>
      <trkpt lat="22.764913" lon="108.741971">
        <ele>101.845691</ele>
        <time>2026-08-14T05:50:25.000Z</time>
      </trkpt>
      <trkpt lat="22.764921" lon="108.742034">
        <ele>101.798764</ele>
        <time>2026-08-14T05:50:26.000Z</time>
      </trkpt>
      <trkpt lat="22.764929" lon="108.742096">
        <ele>101.752568</ele>
        <time>2026-08-14T05:50:27.000Z</time>
      </trkpt>
      <trkpt lat="22.764937" lon="108.742158">
        <ele>101.706372</ele>
        <time>2026-08-14T05:50:28.000Z</time>
      </trkpt>
      <trkpt lat="22.764947" lon="108.742219">
        <ele>101.660654</ele>
        <time>2026-08-14T05:50:29.000Z</time>
      </trkpt>
      <trkpt lat="22.764958" lon="108.742280">
        <ele>101.614789</ele>
        <time>2026-08-14T05:50:30.000Z</time>
      </trkpt>
      <trkpt lat="22.764968" lon="108.742341">
        <ele>101.569071</ele>
        <time>2026-08-14T05:50:31.000Z</time>
      </trkpt>
      <trkpt lat="22.764980" lon="108.742402">
        <ele>101.523046</ele>
        <time>2026-08-14T05:50:32.000Z</time>
      </trkpt>
      <trkpt lat="22.764992" lon="108.742464">
        <ele>101.476299</ele>
        <time>2026-08-14T05:50:33.000Z</time>
      </trkpt>
      <trkpt lat="22.765004" lon="108.742526">
        <ele>101.429552</ele>
        <time>2026-08-14T05:50:34.000Z</time>
      </trkpt>
      <trkpt lat="22.765017" lon="108.742586">
        <ele>101.384072</ele>
        <time>2026-08-14T05:50:35.000Z</time>
      </trkpt>
      <trkpt lat="22.765032" lon="108.742648">
        <ele>101.336773</ele>
        <time>2026-08-14T05:50:36.000Z</time>
      </trkpt>
      <trkpt lat="22.765048" lon="108.742709">
        <ele>101.304206</ele>
        <time>2026-08-14T05:50:37.000Z</time>
      </trkpt>
      <trkpt lat="22.765064" lon="108.742769">
        <ele>101.279665</ele>
        <time>2026-08-14T05:50:38.000Z</time>
      </trkpt>
      <trkpt lat="22.765080" lon="108.742829">
        <ele>101.255124</ele>
        <time>2026-08-14T05:50:39.000Z</time>
      </trkpt>
      <trkpt lat="22.765098" lon="108.742887">
        <ele>101.231078</ele>
        <time>2026-08-14T05:50:40.000Z</time>
      </trkpt>
      <trkpt lat="22.765117" lon="108.742948">
        <ele>101.205779</ele>
        <time>2026-08-14T05:50:41.000Z</time>
      </trkpt>
      <trkpt lat="22.765137" lon="108.743007">
        <ele>101.181080</ele>
        <time>2026-08-14T05:50:42.000Z</time>
      </trkpt>
      <trkpt lat="22.765157" lon="108.743064">
        <ele>101.157117</ele>
        <time>2026-08-14T05:50:43.000Z</time>
      </trkpt>
      <trkpt lat="22.765177" lon="108.743122">
        <ele>101.132786</ele>
        <time>2026-08-14T05:50:44.000Z</time>
      </trkpt>
      <trkpt lat="22.765196" lon="108.743181">
        <ele>101.108230</ele>
        <time>2026-08-14T05:50:45.000Z</time>
      </trkpt>
      <trkpt lat="22.765213" lon="108.743239">
        <ele>101.084317</ele>
        <time>2026-08-14T05:50:46.000Z</time>
      </trkpt>
      <trkpt lat="22.765231" lon="108.743298">
        <ele>101.059899</ele>
        <time>2026-08-14T05:50:47.000Z</time>
      </trkpt>
      <trkpt lat="22.765251" lon="108.743356">
        <ele>101.035568</ele>
        <time>2026-08-14T05:50:48.000Z</time>
      </trkpt>
      <trkpt lat="22.765272" lon="108.743415">
        <ele>101.010719</ele>
        <time>2026-08-14T05:50:49.000Z</time>
      </trkpt>
      <trkpt lat="22.765295" lon="108.743477">
        <ele>100.984460</ele>
        <time>2026-08-14T05:50:50.000Z</time>
      </trkpt>
      <trkpt lat="22.765315" lon="108.743536">
        <ele>100.959761</ele>
        <time>2026-08-14T05:50:51.000Z</time>
      </trkpt>
      <trkpt lat="22.765336" lon="108.743595">
        <ele>100.934911</ele>
        <time>2026-08-14T05:50:52.000Z</time>
      </trkpt>
      <trkpt lat="22.765357" lon="108.743654">
        <ele>100.910062</ele>
        <time>2026-08-14T05:50:53.000Z</time>
      </trkpt>
      <trkpt lat="22.765379" lon="108.743712">
        <ele>100.885419</ele>
        <time>2026-08-14T05:50:54.000Z</time>
      </trkpt>
      <trkpt lat="22.765401" lon="108.743770">
        <ele>100.860777</ele>
        <time>2026-08-14T05:50:55.000Z</time>
      </trkpt>
      <trkpt lat="22.765422" lon="108.743829">
        <ele>100.835928</ele>
        <time>2026-08-14T05:50:56.000Z</time>
      </trkpt>
      <trkpt lat="22.765444" lon="108.743888">
        <ele>100.810922</ele>
        <time>2026-08-14T05:50:57.000Z</time>
      </trkpt>
      <trkpt lat="22.765467" lon="108.743945">
        <ele>100.786475</ele>
        <time>2026-08-14T05:50:58.000Z</time>
      </trkpt>
      <trkpt lat="22.765488" lon="108.744002">
        <ele>100.762356</ele>
        <time>2026-08-14T05:50:59.000Z</time>
      </trkpt>
      <trkpt lat="22.765509" lon="108.744061">
        <ele>100.737507</ele>
        <time>2026-08-14T05:51:00.000Z</time>
      </trkpt>
      <trkpt lat="22.765531" lon="108.744119">
        <ele>100.712865</ele>
        <time>2026-08-14T05:51:01.000Z</time>
      </trkpt>
      <trkpt lat="22.765552" lon="108.744177">
        <ele>100.688381</ele>
        <time>2026-08-14T05:51:02.000Z</time>
      </trkpt>
      <trkpt lat="22.765575" lon="108.744236">
        <ele>100.663213</ele>
        <time>2026-08-14T05:51:03.000Z</time>
      </trkpt>
      <trkpt lat="22.765598" lon="108.744295">
        <ele>100.638044</ele>
        <time>2026-08-14T05:51:04.000Z</time>
      </trkpt>
      <trkpt lat="22.765619" lon="108.744352">
        <ele>100.613926</ele>
        <time>2026-08-14T05:51:05.000Z</time>
      </trkpt>
      <trkpt lat="22.765641" lon="108.744411">
        <ele>100.588920</ele>
        <time>2026-08-14T05:51:06.000Z</time>
      </trkpt>
      <trkpt lat="22.765663" lon="108.744468">
        <ele>100.564640</ele>
        <time>2026-08-14T05:51:07.000Z</time>
      </trkpt>
      <trkpt lat="22.765686" lon="108.744526">
        <ele>100.518864</ele>
        <time>2026-08-14T05:51:08.000Z</time>
      </trkpt>
      <trkpt lat="22.765707" lon="108.744583">
        <ele>100.459004</ele>
        <time>2026-08-14T05:51:09.000Z</time>
      </trkpt>
      <trkpt lat="22.765729" lon="108.744640">
        <ele>100.398744</ele>
        <time>2026-08-14T05:51:10.000Z</time>
      </trkpt>
      <trkpt lat="22.765751" lon="108.744696">
        <ele>100.339383</ele>
        <time>2026-08-14T05:51:11.000Z</time>
      </trkpt>
      <trkpt lat="22.765771" lon="108.744752">
        <ele>100.280818</ele>
        <time>2026-08-14T05:51:12.000Z</time>
      </trkpt>
      <trkpt lat="22.765792" lon="108.744809">
        <ele>100.220958</ele>
        <time>2026-08-14T05:51:13.000Z</time>
      </trkpt>
      <trkpt lat="22.765815" lon="108.744866">
        <ele>100.160282</ele>
        <time>2026-08-14T05:51:14.000Z</time>
      </trkpt>
      <trkpt lat="22.765837" lon="108.744926">
        <ele>100.097313</ele>
        <time>2026-08-14T05:51:15.000Z</time>
      </trkpt>
      <trkpt lat="22.765857" lon="108.744985">
        <ele>100.036011</ele>
        <time>2026-08-14T05:51:16.000Z</time>
      </trkpt>
      <trkpt lat="22.765879" lon="108.745041">
        <ele>99.976650</ele>
        <time>2026-08-14T05:51:17.000Z</time>
      </trkpt>
      <trkpt lat="22.765901" lon="108.745100">
        <ele>99.914586</ele>
        <time>2026-08-14T05:51:18.000Z</time>
      </trkpt>
      <trkpt lat="22.765923" lon="108.745159">
        <ele>99.852522</ele>
        <time>2026-08-14T05:51:19.000Z</time>
      </trkpt>
      <trkpt lat="22.765946" lon="108.745217">
        <ele>99.790951</ele>
        <time>2026-08-14T05:51:20.000Z</time>
      </trkpt>
      <trkpt lat="22.765970" lon="108.745275">
        <ele>99.728955</ele>
        <time>2026-08-14T05:51:21.000Z</time>
      </trkpt>
      <trkpt lat="22.765991" lon="108.745333">
        <ele>99.668189</ele>
        <time>2026-08-14T05:51:22.000Z</time>
      </trkpt>
      <trkpt lat="22.766014" lon="108.745394">
        <ele>99.603920</ele>
        <time>2026-08-14T05:51:23.000Z</time>
      </trkpt>
      <trkpt lat="22.766036" lon="108.745454">
        <ele>99.540952</ele>
        <time>2026-08-14T05:51:24.000Z</time>
      </trkpt>
      <trkpt lat="22.766058" lon="108.745514">
        <ele>99.477983</ele>
        <time>2026-08-14T05:51:25.000Z</time>
      </trkpt>
      <trkpt lat="22.766080" lon="108.745573">
        <ele>99.415919</ele>
        <time>2026-08-14T05:51:26.000Z</time>
      </trkpt>
      <trkpt lat="22.766104" lon="108.745634">
        <ele>99.351243</ele>
        <time>2026-08-14T05:51:27.000Z</time>
      </trkpt>
      <trkpt lat="22.766128" lon="108.745696">
        <ele>99.285668</ele>
        <time>2026-08-14T05:51:28.000Z</time>
      </trkpt>
      <trkpt lat="22.766151" lon="108.745759">
        <ele>99.219590</ele>
        <time>2026-08-14T05:51:29.000Z</time>
      </trkpt>
      <trkpt lat="22.766177" lon="108.745824">
        <ele>99.150494</ele>
        <time>2026-08-14T05:51:30.000Z</time>
      </trkpt>
      <trkpt lat="22.766201" lon="108.745887">
        <ele>99.084020</ele>
        <time>2026-08-14T05:51:31.000Z</time>
      </trkpt>
      <trkpt lat="22.766225" lon="108.745949">
        <ele>99.018445</ele>
        <time>2026-08-14T05:51:32.000Z</time>
      </trkpt>
      <trkpt lat="22.766251" lon="108.746013">
        <ele>98.950243</ele>
        <time>2026-08-14T05:51:33.000Z</time>
      </trkpt>
      <trkpt lat="22.766277" lon="108.746078">
        <ele>98.881148</ele>
        <time>2026-08-14T05:51:34.000Z</time>
      </trkpt>
      <trkpt lat="22.766303" lon="108.746143">
        <ele>98.812052</ele>
        <time>2026-08-14T05:51:35.000Z</time>
      </trkpt>
      <trkpt lat="22.766329" lon="108.746206">
        <ele>98.744741</ele>
        <time>2026-08-14T05:51:36.000Z</time>
      </trkpt>
      <trkpt lat="22.766354" lon="108.746270">
        <ele>98.676959</ele>
        <time>2026-08-14T05:51:37.000Z</time>
      </trkpt>
      <trkpt lat="22.766380" lon="108.746333">
        <ele>98.594330</ele>
        <time>2026-08-14T05:51:38.000Z</time>
      </trkpt>
      <trkpt lat="22.766405" lon="108.746396">
        <ele>98.503101</ele>
        <time>2026-08-14T05:51:39.000Z</time>
      </trkpt>
      <trkpt lat="22.766431" lon="108.746459">
        <ele>98.411292</ele>
        <time>2026-08-14T05:51:40.000Z</time>
      </trkpt>
      <trkpt lat="22.766458" lon="108.746523">
        <ele>98.317677</ele>
        <time>2026-08-14T05:51:41.000Z</time>
      </trkpt>
      <trkpt lat="22.766486" lon="108.746586">
        <ele>98.224652</ele>
        <time>2026-08-14T05:51:42.000Z</time>
      </trkpt>
      <trkpt lat="22.766514" lon="108.746648">
        <ele>98.132823</ele>
        <time>2026-08-14T05:51:43.000Z</time>
      </trkpt>
      <trkpt lat="22.766542" lon="108.746710">
        <ele>98.040995</ele>
        <time>2026-08-14T05:51:44.000Z</time>
      </trkpt>
      <trkpt lat="22.766570" lon="108.746773">
        <ele>97.947970</ele>
        <time>2026-08-14T05:51:45.000Z</time>
      </trkpt>
      <trkpt lat="22.766599" lon="108.746836">
        <ele>97.854310</ele>
        <time>2026-08-14T05:51:46.000Z</time>
      </trkpt>
      <trkpt lat="22.766628" lon="108.746898">
        <ele>97.761838</ele>
        <time>2026-08-14T05:51:47.000Z</time>
      </trkpt>
      <trkpt lat="22.766655" lon="108.746961">
        <ele>97.669431</ele>
        <time>2026-08-14T05:51:48.000Z</time>
      </trkpt>
      <trkpt lat="22.766682" lon="108.747023">
        <ele>97.578228</ele>
        <time>2026-08-14T05:51:49.000Z</time>
      </trkpt>
      <trkpt lat="22.766710" lon="108.747083">
        <ele>97.488781</ele>
        <time>2026-08-14T05:51:50.000Z</time>
      </trkpt>
      <trkpt lat="22.766741" lon="108.747143">
        <ele>97.397298</ele>
        <time>2026-08-14T05:51:51.000Z</time>
      </trkpt>
      <trkpt lat="22.766773" lon="108.747202">
        <ele>97.306251</ele>
        <time>2026-08-14T05:51:52.000Z</time>
      </trkpt>
      <trkpt lat="22.766802" lon="108.747263">
        <ele>97.214964</ele>
        <time>2026-08-14T05:51:53.000Z</time>
      </trkpt>
      <trkpt lat="22.766834" lon="108.747323">
        <ele>97.122767</ele>
        <time>2026-08-14T05:51:54.000Z</time>
      </trkpt>
      <trkpt lat="22.766864" lon="108.747384">
        <ele>97.030810</ele>
        <time>2026-08-14T05:51:55.000Z</time>
      </trkpt>
      <trkpt lat="22.766894" lon="108.747445">
        <ele>96.938852</ele>
        <time>2026-08-14T05:51:56.000Z</time>
      </trkpt>
      <trkpt lat="22.766925" lon="108.747506">
        <ele>96.846207</ele>
        <time>2026-08-14T05:51:57.000Z</time>
      </trkpt>
      <trkpt lat="22.766957" lon="108.747568">
        <ele>96.751699</ele>
        <time>2026-08-14T05:51:58.000Z</time>
      </trkpt>
      <trkpt lat="22.766989" lon="108.747629">
        <ele>96.658349</ele>
        <time>2026-08-14T05:51:59.000Z</time>
      </trkpt>
      <trkpt lat="22.767021" lon="108.747689">
        <ele>96.566153</ele>
        <time>2026-08-14T05:52:00.000Z</time>
      </trkpt>
      <trkpt lat="22.767053" lon="108.747750">
        <ele>96.472803</ele>
        <time>2026-08-14T05:52:01.000Z</time>
      </trkpt>
      <trkpt lat="22.767084" lon="108.747810">
        <ele>96.381321</ele>
        <time>2026-08-14T05:52:02.000Z</time>
      </trkpt>
      <trkpt lat="22.767116" lon="108.747871">
        <ele>96.287971</ele>
        <time>2026-08-14T05:52:03.000Z</time>
      </trkpt>
      <trkpt lat="22.767150" lon="108.747931">
        <ele>96.194297</ele>
        <time>2026-08-14T05:52:04.000Z</time>
      </trkpt>
      <trkpt lat="22.767182" lon="108.747991">
        <ele>96.102101</ele>
        <time>2026-08-14T05:52:05.000Z</time>
      </trkpt>
      <trkpt lat="22.767214" lon="108.748051">
        <ele>95.988220</ele>
        <time>2026-08-14T05:52:06.000Z</time>
      </trkpt>
      <trkpt lat="22.767246" lon="108.748111">
        <ele>95.853705</ele>
        <time>2026-08-14T05:52:07.000Z</time>
      </trkpt>
      <trkpt lat="22.767278" lon="108.748172">
        <ele>95.717506</ele>
        <time>2026-08-14T05:52:08.000Z</time>
      </trkpt>
      <trkpt lat="22.767310" lon="108.748231">
        <ele>95.584667</ele>
        <time>2026-08-14T05:52:09.000Z</time>
      </trkpt>
      <trkpt lat="22.767342" lon="108.748292">
        <ele>95.448469</ele>
        <time>2026-08-14T05:52:10.000Z</time>
      </trkpt>
      <trkpt lat="22.767375" lon="108.748354">
        <ele>95.309540</ele>
        <time>2026-08-14T05:52:11.000Z</time>
      </trkpt>
      <trkpt lat="22.767410" lon="108.748417">
        <ele>95.166801</ele>
        <time>2026-08-14T05:52:12.000Z</time>
      </trkpt>
      <trkpt lat="22.767444" lon="108.748481">
        <ele>95.023458</ele>
        <time>2026-08-14T05:52:13.000Z</time>
      </trkpt>
      <trkpt lat="22.767477" lon="108.748545">
        <ele>94.881155</ele>
        <time>2026-08-14T05:52:14.000Z</time>
      </trkpt>
      <trkpt lat="22.767512" lon="108.748610">
        <ele>94.735078</ele>
        <time>2026-08-14T05:52:15.000Z</time>
      </trkpt>
      <trkpt lat="22.767545" lon="108.748675">
        <ele>94.591077</ele>
        <time>2026-08-14T05:52:16.000Z</time>
      </trkpt>
      <trkpt lat="22.767580" lon="108.748740">
        <ele>94.445000</ele>
        <time>2026-08-14T05:52:17.000Z</time>
      </trkpt>
      <trkpt lat="22.767615" lon="108.748806">
        <ele>94.297244</ele>
        <time>2026-08-14T05:52:18.000Z</time>
      </trkpt>
      <trkpt lat="22.767651" lon="108.748873">
        <ele>94.146754</ele>
        <time>2026-08-14T05:52:19.000Z</time>
      </trkpt>
      <trkpt lat="22.767685" lon="108.748941">
        <ele>93.996635</ele>
        <time>2026-08-14T05:52:20.000Z</time>
      </trkpt>
      <trkpt lat="22.767721" lon="108.749011">
        <ele>93.841087</ele>
        <time>2026-08-14T05:52:21.000Z</time>
      </trkpt>
      <trkpt lat="22.767757" lon="108.749082">
        <ele>93.683842</ele>
        <time>2026-08-14T05:52:22.000Z</time>
      </trkpt>
      <trkpt lat="22.767791" lon="108.749153">
        <ele>93.528581</ele>
        <time>2026-08-14T05:52:23.000Z</time>
      </trkpt>
      <trkpt lat="22.767825" lon="108.749225">
        <ele>93.371595</ele>
        <time>2026-08-14T05:52:24.000Z</time>
      </trkpt>
      <trkpt lat="22.767858" lon="108.749299">
        <ele>93.212072</ele>
        <time>2026-08-14T05:52:25.000Z</time>
      </trkpt>
      <trkpt lat="22.767890" lon="108.749374">
        <ele>93.051695</ele>
        <time>2026-08-14T05:52:26.000Z</time>
      </trkpt>
      <trkpt lat="22.767921" lon="108.749450">
        <ele>92.890417</ele>
        <time>2026-08-14T05:52:27.000Z</time>
      </trkpt>
      <trkpt lat="22.767951" lon="108.749528">
        <ele>92.726405</ele>
        <time>2026-08-14T05:52:28.000Z</time>
      </trkpt>
      <trkpt lat="22.767978" lon="108.749606">
        <ele>92.564718</ele>
        <time>2026-08-14T05:52:29.000Z</time>
      </trkpt>
      <trkpt lat="22.768003" lon="108.749686">
        <ele>92.400790</ele>
        <time>2026-08-14T05:52:30.000Z</time>
      </trkpt>
      <trkpt lat="22.768025" lon="108.749767">
        <ele>92.242185</ele>
        <time>2026-08-14T05:52:31.000Z</time>
      </trkpt>
      <trkpt lat="22.768047" lon="108.749848">
        <ele>92.103192</ele>
        <time>2026-08-14T05:52:32.000Z</time>
      </trkpt>
      <trkpt lat="22.768068" lon="108.749930">
        <ele>91.963108</ele>
        <time>2026-08-14T05:52:33.000Z</time>
      </trkpt>
      <trkpt lat="22.768086" lon="108.750013">
        <ele>91.822759</ele>
        <time>2026-08-14T05:52:34.000Z</time>
      </trkpt>
      <trkpt lat="22.768102" lon="108.750097">
        <ele>91.681572</ele>
        <time>2026-08-14T05:52:35.000Z</time>
      </trkpt>
      <trkpt lat="22.768116" lon="108.750182">
        <ele>91.539444</ele>
        <time>2026-08-14T05:52:36.000Z</time>
      </trkpt>
      <trkpt lat="22.768127" lon="108.750267">
        <ele>91.398160</ele>
        <time>2026-08-14T05:52:37.000Z</time>
      </trkpt>
      <trkpt lat="22.768137" lon="108.750352">
        <ele>91.257112</ele>
        <time>2026-08-14T05:52:38.000Z</time>
      </trkpt>
      <trkpt lat="22.768145" lon="108.750439">
        <ele>91.113197</ele>
        <time>2026-08-14T05:52:39.000Z</time>
      </trkpt>
      <trkpt lat="22.768152" lon="108.750527">
        <ele>90.967807</ele>
        <time>2026-08-14T05:52:40.000Z</time>
      </trkpt>
      <trkpt lat="22.768158" lon="108.750614">
        <ele>90.824202</ele>
        <time>2026-08-14T05:52:41.000Z</time>
      </trkpt>
      <trkpt lat="22.768162" lon="108.750701">
        <ele>90.680819</ele>
        <time>2026-08-14T05:52:42.000Z</time>
      </trkpt>
      <trkpt lat="22.768167" lon="108.750789">
        <ele>90.535693</ele>
        <time>2026-08-14T05:52:43.000Z</time>
      </trkpt>
      <trkpt lat="22.768169" lon="108.750878">
        <ele>90.389152</ele>
        <time>2026-08-14T05:52:44.000Z</time>
      </trkpt>
      <trkpt lat="22.768172" lon="108.750966">
        <ele>90.244201</ele>
        <time>2026-08-14T05:52:45.000Z</time>
      </trkpt>
      <trkpt lat="22.768174" lon="108.751056">
        <ele>90.096015</ele>
        <time>2026-08-14T05:52:46.000Z</time>
      </trkpt>
      <trkpt lat="22.768177" lon="108.751146">
        <ele>89.947775</ele>
        <time>2026-08-14T05:52:47.000Z</time>
      </trkpt>
      <trkpt lat="22.768179" lon="108.751236">
        <ele>89.799588</ele>
        <time>2026-08-14T05:52:48.000Z</time>
      </trkpt>
      <trkpt lat="22.768183" lon="108.751324">
        <ele>89.654561</ele>
        <time>2026-08-14T05:52:49.000Z</time>
      </trkpt>
      <trkpt lat="22.768186" lon="108.751413">
        <ele>89.507966</ele>
        <time>2026-08-14T05:52:50.000Z</time>
      </trkpt>
      <trkpt lat="22.768189" lon="108.751501">
        <ele>89.363015</ele>
        <time>2026-08-14T05:52:51.000Z</time>
      </trkpt>
      <trkpt lat="22.768191" lon="108.751586">
        <ele>89.223057</ele>
        <time>2026-08-14T05:52:52.000Z</time>
      </trkpt>
      <trkpt lat="22.768192" lon="108.751669">
        <ele>89.086424</ele>
        <time>2026-08-14T05:52:53.000Z</time>
      </trkpt>
      <trkpt lat="22.768195" lon="108.751749">
        <ele>89.132204</ele>
        <time>2026-08-14T05:52:54.000Z</time>
      </trkpt>
      <trkpt lat="22.768197" lon="108.751828">
        <ele>89.219735</ele>
        <time>2026-08-14T05:52:55.000Z</time>
      </trkpt>
      <trkpt lat="22.768199" lon="108.751906">
        <ele>89.306158</ele>
        <time>2026-08-14T05:52:56.000Z</time>
      </trkpt>
      <trkpt lat="22.768201" lon="108.751983">
        <ele>89.391475</ele>
        <time>2026-08-14T05:52:57.000Z</time>
      </trkpt>
      <trkpt lat="22.768204" lon="108.752059">
        <ele>89.475727</ele>
        <time>2026-08-14T05:52:58.000Z</time>
      </trkpt>
      <trkpt lat="22.768206" lon="108.752134">
        <ele>89.558829</ele>
        <time>2026-08-14T05:52:59.000Z</time>
      </trkpt>
      <trkpt lat="22.768207" lon="108.752208">
        <ele>89.640798</ele>
        <time>2026-08-14T05:53:00.000Z</time>
      </trkpt>
      <trkpt lat="22.768209" lon="108.752280">
        <ele>89.720579</ele>
        <time>2026-08-14T05:53:01.000Z</time>
      </trkpt>
      <trkpt lat="22.768212" lon="108.752349">
        <ele>89.797086</ele>
        <time>2026-08-14T05:53:02.000Z</time>
      </trkpt>
      <trkpt lat="22.768215" lon="108.752416">
        <ele>89.871380</ele>
        <time>2026-08-14T05:53:03.000Z</time>
      </trkpt>
      <trkpt lat="22.768215" lon="108.752482">
        <ele>89.944480</ele>
        <time>2026-08-14T05:53:04.000Z</time>
      </trkpt>
      <trkpt lat="22.768217" lon="108.752546">
        <ele>90.015404</ele>
        <time>2026-08-14T05:53:05.000Z</time>
      </trkpt>
      <trkpt lat="22.768220" lon="108.752608">
        <ele>90.084168</ele>
        <time>2026-08-14T05:53:06.000Z</time>
      </trkpt>
      <trkpt lat="22.768224" lon="108.752669">
        <ele>90.151900</ele>
        <time>2026-08-14T05:53:07.000Z</time>
      </trkpt>
      <trkpt lat="22.768225" lon="108.752730">
        <ele>90.219472</ele>
        <time>2026-08-14T05:53:08.000Z</time>
      </trkpt>
      <trkpt lat="22.768227" lon="108.752788">
        <ele>90.283756</ele>
        <time>2026-08-14T05:53:09.000Z</time>
      </trkpt>
      <trkpt lat="22.768228" lon="108.752845">
        <ele>90.346899</ele>
        <time>2026-08-14T05:53:10.000Z</time>
      </trkpt>
      <trkpt lat="22.768230" lon="108.752902">
        <ele>90.410076</ele>
        <time>2026-08-14T05:53:11.000Z</time>
      </trkpt>
      <trkpt lat="22.768232" lon="108.752958">
        <ele>90.472146</ele>
        <time>2026-08-14T05:53:12.000Z</time>
      </trkpt>
      <trkpt lat="22.768234" lon="108.753013">
        <ele>90.533110</ele>
        <time>2026-08-14T05:53:13.000Z</time>
      </trkpt>
      <trkpt lat="22.768235" lon="108.753067">
        <ele>90.592930</ele>
        <time>2026-08-14T05:53:14.000Z</time>
      </trkpt>
      <trkpt lat="22.768237" lon="108.753120">
        <ele>90.651680</ele>
        <time>2026-08-14T05:53:15.000Z</time>
      </trkpt>
      <trkpt lat="22.768238" lon="108.753172">
        <ele>90.709286</ele>
        <time>2026-08-14T05:53:16.000Z</time>
      </trkpt>
      <trkpt lat="22.768239" lon="108.753224">
        <ele>90.766892</ele>
        <time>2026-08-14T05:53:17.000Z</time>
      </trkpt>
      <trkpt lat="22.768240" lon="108.753275">
        <ele>90.823391</ele>
        <time>2026-08-14T05:53:18.000Z</time>
      </trkpt>
      <trkpt lat="22.768243" lon="108.753326">
        <ele>90.879992</ele>
        <time>2026-08-14T05:53:19.000Z</time>
      </trkpt>
      <trkpt lat="22.768245" lon="108.753377">
        <ele>90.936529</ele>
        <time>2026-08-14T05:53:20.000Z</time>
      </trkpt>
      <trkpt lat="22.768246" lon="108.753428">
        <ele>90.993027</ele>
        <time>2026-08-14T05:53:21.000Z</time>
      </trkpt>
      <trkpt lat="22.768246" lon="108.753479">
        <ele>91.049513</ele>
        <time>2026-08-14T05:53:22.000Z</time>
      </trkpt>
      <trkpt lat="22.768246" lon="108.753528">
        <ele>91.103784</ele>
        <time>2026-08-14T05:53:23.000Z</time>
      </trkpt>
      <trkpt lat="22.768249" lon="108.753573">
        <ele>91.153755</ele>
        <time>2026-08-14T05:53:24.000Z</time>
      </trkpt>
      <trkpt lat="22.768252" lon="108.753615">
        <ele>91.200412</ele>
        <time>2026-08-14T05:53:25.000Z</time>
      </trkpt>
      <trkpt lat="22.768254" lon="108.753657">
        <ele>91.231434</ele>
        <time>2026-08-14T05:53:26.000Z</time>
      </trkpt>
      <trkpt lat="22.768255" lon="108.753699">
        <ele>91.249849</ele>
        <time>2026-08-14T05:53:27.000Z</time>
      </trkpt>
      <trkpt lat="22.768258" lon="108.753743">
        <ele>91.269188</ele>
        <time>2026-08-14T05:53:28.000Z</time>
      </trkpt>
      <trkpt lat="22.768259" lon="108.753788">
        <ele>91.288918</ele>
        <time>2026-08-14T05:53:29.000Z</time>
      </trkpt>
      <trkpt lat="22.768259" lon="108.753834">
        <ele>91.309080</ele>
        <time>2026-08-14T05:53:30.000Z</time>
      </trkpt>
      <trkpt lat="22.768260" lon="108.753880">
        <ele>91.329248</ele>
        <time>2026-08-14T05:53:31.000Z</time>
      </trkpt>
      <trkpt lat="22.768260" lon="108.753928">
        <ele>91.350287</ele>
        <time>2026-08-14T05:53:32.000Z</time>
      </trkpt>
      <trkpt lat="22.768261" lon="108.753977">
        <ele>91.371770</ele>
        <time>2026-08-14T05:53:33.000Z</time>
      </trkpt>
      <trkpt lat="22.768261" lon="108.754026">
        <ele>91.393247</ele>
        <time>2026-08-14T05:53:34.000Z</time>
      </trkpt>
      <trkpt lat="22.768263" lon="108.754075">
        <ele>91.414746</ele>
        <time>2026-08-14T05:53:35.000Z</time>
      </trkpt>
      <trkpt lat="22.768264" lon="108.754124">
        <ele>91.436229</ele>
        <time>2026-08-14T05:53:36.000Z</time>
      </trkpt>
      <trkpt lat="22.768265" lon="108.754173">
        <ele>91.457711</ele>
        <time>2026-08-14T05:53:37.000Z</time>
      </trkpt>
      <trkpt lat="22.768266" lon="108.754221">
        <ele>91.478756</ele>
        <time>2026-08-14T05:53:38.000Z</time>
      </trkpt>
      <trkpt lat="22.768266" lon="108.754271">
        <ele>91.500671</ele>
        <time>2026-08-14T05:53:39.000Z</time>
      </trkpt>
      <trkpt lat="22.768267" lon="108.754320">
        <ele>91.522154</ele>
        <time>2026-08-14T05:53:40.000Z</time>
      </trkpt>
      <trkpt lat="22.768269" lon="108.754370">
        <ele>91.544090</ele>
        <time>2026-08-14T05:53:41.000Z</time>
      </trkpt>
      <trkpt lat="22.768271" lon="108.754421">
        <ele>91.566465</ele>
        <time>2026-08-14T05:53:42.000Z</time>
      </trkpt>
      <trkpt lat="22.768273" lon="108.754471">
        <ele>91.588401</ele>
        <time>2026-08-14T05:53:43.000Z</time>
      </trkpt>
      <trkpt lat="22.768275" lon="108.754521">
        <ele>91.610337</ele>
        <time>2026-08-14T05:53:44.000Z</time>
      </trkpt>
      <trkpt lat="22.768278" lon="108.754571">
        <ele>91.632299</ele>
        <time>2026-08-14T05:53:45.000Z</time>
      </trkpt>
      <trkpt lat="22.768280" lon="108.754622">
        <ele>91.654674</ele>
        <time>2026-08-14T05:53:46.000Z</time>
      </trkpt>
      <trkpt lat="22.768282" lon="108.754672">
        <ele>91.676610</ele>
        <time>2026-08-14T05:53:47.000Z</time>
      </trkpt>
      <trkpt lat="22.768284" lon="108.754723">
        <ele>91.698984</ele>
        <time>2026-08-14T05:53:48.000Z</time>
      </trkpt>
      <trkpt lat="22.768287" lon="108.754773">
        <ele>91.720946</ele>
        <time>2026-08-14T05:53:49.000Z</time>
      </trkpt>
      <trkpt lat="22.768289" lon="108.754824">
        <ele>91.743321</ele>
        <time>2026-08-14T05:53:50.000Z</time>
      </trkpt>
      <trkpt lat="22.768292" lon="108.754875">
        <ele>91.765720</ele>
        <time>2026-08-14T05:53:51.000Z</time>
      </trkpt>
      <trkpt lat="22.768294" lon="108.754929">
        <ele>91.789408</ele>
        <time>2026-08-14T05:53:52.000Z</time>
      </trkpt>
      <trkpt lat="22.768297" lon="108.754982">
        <ele>91.812682</ele>
        <time>2026-08-14T05:53:53.000Z</time>
      </trkpt>
      <trkpt lat="22.768302" lon="108.755035">
        <ele>91.836034</ele>
        <time>2026-08-14T05:53:54.000Z</time>
      </trkpt>
      <trkpt lat="22.768307" lon="108.755087">
        <ele>91.858950</ele>
        <time>2026-08-14T05:53:55.000Z</time>
      </trkpt>
      <trkpt lat="22.768313" lon="108.755139">
        <ele>91.881920</ele>
        <time>2026-08-14T05:53:56.000Z</time>
      </trkpt>
      <trkpt lat="22.768320" lon="108.755192">
        <ele>91.905388</ele>
        <time>2026-08-14T05:53:57.000Z</time>
      </trkpt>
      <trkpt lat="22.768326" lon="108.755245">
        <ele>91.928793</ele>
        <time>2026-08-14T05:53:58.000Z</time>
      </trkpt>
      <trkpt lat="22.768332" lon="108.755300">
        <ele>91.953069</ele>
        <time>2026-08-14T05:53:59.000Z</time>
      </trkpt>
      <trkpt lat="22.768339" lon="108.755353">
        <ele>91.976536</ele>
        <time>2026-08-14T05:54:00.000Z</time>
      </trkpt>
      <trkpt lat="22.768347" lon="108.755407">
        <ele>92.000509</ele>
        <time>2026-08-14T05:54:01.000Z</time>
      </trkpt>
      <trkpt lat="22.768355" lon="108.755463">
        <ele>92.025347</ele>
        <time>2026-08-14T05:54:02.000Z</time>
      </trkpt>
      <trkpt lat="22.768363" lon="108.755519">
        <ele>92.050186</ele>
        <time>2026-08-14T05:54:03.000Z</time>
      </trkpt>
      <trkpt lat="22.768370" lon="108.755574">
        <ele>92.074522</ele>
        <time>2026-08-14T05:54:04.000Z</time>
      </trkpt>
      <trkpt lat="22.768380" lon="108.755631">
        <ele>91.919861</ele>
        <time>2026-08-14T05:54:05.000Z</time>
      </trkpt>
      <trkpt lat="22.768388" lon="108.755690">
        <ele>91.747496</ele>
        <time>2026-08-14T05:54:06.000Z</time>
      </trkpt>
      <trkpt lat="22.768396" lon="108.755748">
        <ele>91.577991</ele>
        <time>2026-08-14T05:54:07.000Z</time>
      </trkpt>
      <trkpt lat="22.768407" lon="108.755808">
        <ele>91.401175</ele>
        <time>2026-08-14T05:54:08.000Z</time>
      </trkpt>
      <trkpt lat="22.768419" lon="108.755868">
        <ele>91.223721</ele>
        <time>2026-08-14T05:54:09.000Z</time>
      </trkpt>
      <trkpt lat="22.768432" lon="108.755929">
        <ele>91.042762</ele>
        <time>2026-08-14T05:54:10.000Z</time>
      </trkpt>
      <trkpt lat="22.768444" lon="108.755990">
        <ele>90.862482</ele>
        <time>2026-08-14T05:54:11.000Z</time>
      </trkpt>
      <trkpt lat="22.768457" lon="108.756053">
        <ele>90.675886</ele>
        <time>2026-08-14T05:54:12.000Z</time>
      </trkpt>
      <trkpt lat="22.768470" lon="108.756117">
        <ele>90.486468</ele>
        <time>2026-08-14T05:54:13.000Z</time>
      </trkpt>
      <trkpt lat="22.768485" lon="108.756181">
        <ele>90.295603</ele>
        <time>2026-08-14T05:54:14.000Z</time>
      </trkpt>
      <trkpt lat="22.768503" lon="108.756246">
        <ele>90.099441</ele>
        <time>2026-08-14T05:54:15.000Z</time>
      </trkpt>
      <trkpt lat="22.768522" lon="108.756312">
        <ele>89.899596</ele>
        <time>2026-08-14T05:54:16.000Z</time>
      </trkpt>
      <trkpt lat="22.768541" lon="108.756379">
        <ele>89.696991</ele>
        <time>2026-08-14T05:54:17.000Z</time>
      </trkpt>
      <trkpt lat="22.768561" lon="108.756447">
        <ele>89.490691</ele>
        <time>2026-08-14T05:54:18.000Z</time>
      </trkpt>
      <trkpt lat="22.768580" lon="108.756516">
        <ele>89.282554</ele>
        <time>2026-08-14T05:54:19.000Z</time>
      </trkpt>
      <trkpt lat="22.768600" lon="108.756587">
        <ele>89.067976</ele>
        <time>2026-08-14T05:54:20.000Z</time>
      </trkpt>
      <trkpt lat="22.768619" lon="108.756658">
        <ele>88.854294</ele>
        <time>2026-08-14T05:54:21.000Z</time>
      </trkpt>
      <trkpt lat="22.768639" lon="108.756731">
        <ele>88.634182</ele>
        <time>2026-08-14T05:54:22.000Z</time>
      </trkpt>
      <trkpt lat="22.768660" lon="108.756804">
        <ele>88.413156</ele>
        <time>2026-08-14T05:54:23.000Z</time>
      </trkpt>
      <trkpt lat="22.768682" lon="108.756877">
        <ele>88.191177</ele>
        <time>2026-08-14T05:54:24.000Z</time>
      </trkpt>
      <trkpt lat="22.768704" lon="108.756950">
        <ele>87.969198</ele>
        <time>2026-08-14T05:54:25.000Z</time>
      </trkpt>
      <trkpt lat="22.768726" lon="108.757023">
        <ele>87.747219</ele>
        <time>2026-08-14T05:54:26.000Z</time>
      </trkpt>
      <trkpt lat="22.768748" lon="108.757096">
        <ele>87.525239</ele>
        <time>2026-08-14T05:54:27.000Z</time>
      </trkpt>
      <trkpt lat="22.768771" lon="108.757169">
        <ele>87.302267</ele>
        <time>2026-08-14T05:54:28.000Z</time>
      </trkpt>
      <trkpt lat="22.768793" lon="108.757244">
        <ele>87.074786</ele>
        <time>2026-08-14T05:54:29.000Z</time>
      </trkpt>
      <trkpt lat="22.768815" lon="108.757320">
        <ele>86.844549</ele>
        <time>2026-08-14T05:54:30.000Z</time>
      </trkpt>
      <trkpt lat="22.768836" lon="108.757396">
        <ele>86.615232</ele>
        <time>2026-08-14T05:54:31.000Z</time>
      </trkpt>
      <trkpt lat="22.768859" lon="108.757474">
        <ele>86.391026</ele>
        <time>2026-08-14T05:54:32.000Z</time>
      </trkpt>
      <trkpt lat="22.768882" lon="108.757551">
        <ele>86.206061</ele>
        <time>2026-08-14T05:54:33.000Z</time>
      </trkpt>
      <trkpt lat="22.768905" lon="108.757629">
        <ele>86.018921</ele>
        <time>2026-08-14T05:54:34.000Z</time>
      </trkpt>
      <trkpt lat="22.768929" lon="108.757707">
        <ele>85.831011</ele>
        <time>2026-08-14T05:54:35.000Z</time>
      </trkpt>
      <trkpt lat="22.768953" lon="108.757787">
        <ele>85.638760</ele>
        <time>2026-08-14T05:54:36.000Z</time>
      </trkpt>
      <trkpt lat="22.768979" lon="108.757868">
        <ele>85.442762</ele>
        <time>2026-08-14T05:54:37.000Z</time>
      </trkpt>
      <trkpt lat="22.769003" lon="108.757949">
        <ele>85.248337</ele>
        <time>2026-08-14T05:54:38.000Z</time>
      </trkpt>
      <trkpt lat="22.769026" lon="108.758033">
        <ele>85.048094</ele>
        <time>2026-08-14T05:54:39.000Z</time>
      </trkpt>
      <trkpt lat="22.769050" lon="108.758119">
        <ele>84.842761</ele>
        <time>2026-08-14T05:54:40.000Z</time>
      </trkpt>
      <trkpt lat="22.769075" lon="108.758205">
        <ele>84.636696</ele>
        <time>2026-08-14T05:54:41.000Z</time>
      </trkpt>
      <trkpt lat="22.769102" lon="108.758289">
        <ele>84.433409</ele>
        <time>2026-08-14T05:54:42.000Z</time>
      </trkpt>
      <trkpt lat="22.769127" lon="108.758373">
        <ele>84.231698</ele>
        <time>2026-08-14T05:54:43.000Z</time>
      </trkpt>
      <trkpt lat="22.769153" lon="108.758456">
        <ele>84.031378</ele>
        <time>2026-08-14T05:54:44.000Z</time>
      </trkpt>
      <trkpt lat="22.769177" lon="108.758539">
        <ele>83.832597</ele>
        <time>2026-08-14T05:54:45.000Z</time>
      </trkpt>
      <trkpt lat="22.769202" lon="108.758622">
        <ele>83.633061</ele>
        <time>2026-08-14T05:54:46.000Z</time>
      </trkpt>
      <trkpt lat="22.769228" lon="108.758703">
        <ele>83.437063</ele>
        <time>2026-08-14T05:54:47.000Z</time>
      </trkpt>
      <trkpt lat="22.769253" lon="108.758783">
        <ele>83.244031</ele>
        <time>2026-08-14T05:54:48.000Z</time>
      </trkpt>
      <trkpt lat="22.769277" lon="108.758864">
        <ele>83.049606</ele>
        <time>2026-08-14T05:54:49.000Z</time>
      </trkpt>
      <trkpt lat="22.769300" lon="108.758943">
        <ele>82.860289</ele>
        <time>2026-08-14T05:54:50.000Z</time>
      </trkpt>
      <trkpt lat="22.769324" lon="108.759021">
        <ele>82.672380</ele>
        <time>2026-08-14T05:54:51.000Z</time>
      </trkpt>
      <trkpt lat="22.769348" lon="108.759098">
        <ele>82.486636</ele>
        <time>2026-08-14T05:54:52.000Z</time>
      </trkpt>
      <trkpt lat="22.769372" lon="108.759173">
        <ele>82.305217</ele>
        <time>2026-08-14T05:54:53.000Z</time>
      </trkpt>
      <trkpt lat="22.769395" lon="108.759248">
        <ele>82.124596</ele>
        <time>2026-08-14T05:54:54.000Z</time>
      </trkpt>
      <trkpt lat="22.769417" lon="108.759323">
        <ele>81.973459</ele>
        <time>2026-08-14T05:54:55.000Z</time>
      </trkpt>
      <trkpt lat="22.769438" lon="108.759397">
        <ele>81.938576</ele>
        <time>2026-08-14T05:54:56.000Z</time>
      </trkpt>
      <trkpt lat="22.769460" lon="108.759469">
        <ele>81.904402</ele>
        <time>2026-08-14T05:54:57.000Z</time>
      </trkpt>
      <trkpt lat="22.769481" lon="108.759541">
        <ele>81.870379</ele>
        <time>2026-08-14T05:54:58.000Z</time>
      </trkpt>
      <trkpt lat="22.769501" lon="108.759611">
        <ele>81.837361</ele>
        <time>2026-08-14T05:54:59.000Z</time>
      </trkpt>
      <trkpt lat="22.769520" lon="108.759682">
        <ele>81.804053</ele>
        <time>2026-08-14T05:55:00.000Z</time>
      </trkpt>
      <trkpt lat="22.769540" lon="108.759750">
        <ele>81.771895</ele>
        <time>2026-08-14T05:55:01.000Z</time>
      </trkpt>
      <trkpt lat="22.769559" lon="108.759818">
        <ele>81.739882</ele>
        <time>2026-08-14T05:55:02.000Z</time>
      </trkpt>
      <trkpt lat="22.769578" lon="108.759886">
        <ele>81.707870</ele>
        <time>2026-08-14T05:55:03.000Z</time>
      </trkpt>
      <trkpt lat="22.769596" lon="108.759955">
        <ele>81.675562</ele>
        <time>2026-08-14T05:55:04.000Z</time>
      </trkpt>
      <trkpt lat="22.769614" lon="108.760022">
        <ele>81.644121</ele>
        <time>2026-08-14T05:55:05.000Z</time>
      </trkpt>
      <trkpt lat="22.769631" lon="108.760088">
        <ele>81.613246</ele>
        <time>2026-08-14T05:55:06.000Z</time>
      </trkpt>
      <trkpt lat="22.769646" lon="108.760154">
        <ele>81.582621</ele>
        <time>2026-08-14T05:55:07.000Z</time>
      </trkpt>
      <trkpt lat="22.769661" lon="108.760220">
        <ele>81.551995</ele>
        <time>2026-08-14T05:55:08.000Z</time>
      </trkpt>
      <trkpt lat="22.769676" lon="108.760285">
        <ele>81.521806</ele>
        <time>2026-08-14T05:55:09.000Z</time>
      </trkpt>
      <trkpt lat="22.769690" lon="108.760351">
        <ele>81.491294</ele>
        <time>2026-08-14T05:55:10.000Z</time>
      </trkpt>
      <trkpt lat="22.769703" lon="108.760418">
        <ele>81.460446</ele>
        <time>2026-08-14T05:55:11.000Z</time>
      </trkpt>
      <trkpt lat="22.769715" lon="108.760485">
        <ele>81.429696</ele>
        <time>2026-08-14T05:55:12.000Z</time>
      </trkpt>
      <trkpt lat="22.769725" lon="108.760552">
        <ele>81.399117</ele>
        <time>2026-08-14T05:55:13.000Z</time>
      </trkpt>
      <trkpt lat="22.769735" lon="108.760617">
        <ele>81.369427</ele>
        <time>2026-08-14T05:55:14.000Z</time>
      </trkpt>
      <trkpt lat="22.769746" lon="108.760682">
        <ele>81.339652</ele>
        <time>2026-08-14T05:55:15.000Z</time>
      </trkpt>
      <trkpt lat="22.769755" lon="108.760747">
        <ele>81.310039</ele>
        <time>2026-08-14T05:55:16.000Z</time>
      </trkpt>
      <trkpt lat="22.769765" lon="108.760812">
        <ele>81.280349</ele>
        <time>2026-08-14T05:55:17.000Z</time>
      </trkpt>
      <trkpt lat="22.769773" lon="108.760877">
        <ele>81.250804</ele>
        <time>2026-08-14T05:55:18.000Z</time>
      </trkpt>
      <trkpt lat="22.769780" lon="108.760943">
        <ele>81.220872</ele>
        <time>2026-08-14T05:55:19.000Z</time>
      </trkpt>
      <trkpt lat="22.769787" lon="108.761009">
        <ele>81.190940</ele>
        <time>2026-08-14T05:55:20.000Z</time>
      </trkpt>
      <trkpt lat="22.769792" lon="108.761075">
        <ele>81.161104</ele>
        <time>2026-08-14T05:55:21.000Z</time>
      </trkpt>
      <trkpt lat="22.769797" lon="108.761140">
        <ele>81.131717</ele>
        <time>2026-08-14T05:55:22.000Z</time>
      </trkpt>
      <trkpt lat="22.769801" lon="108.761204">
        <ele>81.102816</ele>
        <time>2026-08-14T05:55:23.000Z</time>
      </trkpt>
      <trkpt lat="22.769804" lon="108.761268">
        <ele>81.059754</ele>
        <time>2026-08-14T05:55:24.000Z</time>
      </trkpt>
      <trkpt lat="22.769809" lon="108.761332">
        <ele>81.015999</ele>
        <time>2026-08-14T05:55:25.000Z</time>
      </trkpt>
      <trkpt lat="22.769813" lon="108.761397">
        <ele>80.971619</ele>
        <time>2026-08-14T05:55:26.000Z</time>
      </trkpt>
      <trkpt lat="22.769816" lon="108.761464">
        <ele>80.925922</ele>
        <time>2026-08-14T05:55:27.000Z</time>
      </trkpt>
      <trkpt lat="22.769817" lon="108.761530">
        <ele>80.880954</ele>
        <time>2026-08-14T05:55:28.000Z</time>
      </trkpt>
      <trkpt lat="22.769817" lon="108.761597">
        <ele>80.835311</ele>
        <time>2026-08-14T05:55:29.000Z</time>
      </trkpt>
      <trkpt lat="22.769816" lon="108.761664">
        <ele>80.789661</ele>
        <time>2026-08-14T05:55:30.000Z</time>
      </trkpt>
      <trkpt lat="22.769814" lon="108.761731">
        <ele>80.743994</ele>
        <time>2026-08-14T05:55:31.000Z</time>
      </trkpt>
      <trkpt lat="22.769813" lon="108.761799">
        <ele>80.697664</ele>
        <time>2026-08-14T05:55:32.000Z</time>
      </trkpt>
      <trkpt lat="22.769810" lon="108.761866">
        <ele>80.651967</ele>
        <time>2026-08-14T05:55:33.000Z</time>
      </trkpt>
      <trkpt lat="22.769807" lon="108.761932">
        <ele>80.606950</ele>
        <time>2026-08-14T05:55:34.000Z</time>
      </trkpt>
      <trkpt lat="22.769803" lon="108.761998">
        <ele>80.561891</ele>
        <time>2026-08-14T05:55:35.000Z</time>
      </trkpt>
      <trkpt lat="22.769797" lon="108.762065">
        <ele>80.516033</ele>
        <time>2026-08-14T05:55:36.000Z</time>
      </trkpt>
      <trkpt lat="22.769793" lon="108.762131">
        <ele>80.470974</ele>
        <time>2026-08-14T05:55:37.000Z</time>
      </trkpt>
      <trkpt lat="22.769788" lon="108.762197">
        <ele>80.425860</ele>
        <time>2026-08-14T05:55:38.000Z</time>
      </trkpt>
      <trkpt lat="22.769782" lon="108.762264">
        <ele>80.380002</ele>
        <time>2026-08-14T05:55:39.000Z</time>
      </trkpt>
      <trkpt lat="22.769775" lon="108.762332">
        <ele>80.333390</ele>
        <time>2026-08-14T05:55:40.000Z</time>
      </trkpt>
      <trkpt lat="22.769770" lon="108.762399">
        <ele>80.287597</ele>
        <time>2026-08-14T05:55:41.000Z</time>
      </trkpt>
      <trkpt lat="22.769763" lon="108.762466">
        <ele>80.241662</ele>
        <time>2026-08-14T05:55:42.000Z</time>
      </trkpt>
      <trkpt lat="22.769755" lon="108.762531">
        <ele>80.196988</ele>
        <time>2026-08-14T05:55:43.000Z</time>
      </trkpt>
      <trkpt lat="22.769747" lon="108.762595">
        <ele>80.152990</ele>
        <time>2026-08-14T05:55:44.000Z</time>
      </trkpt>
      <trkpt lat="22.769741" lon="108.762661">
        <ele>80.107810</ele>
        <time>2026-08-14T05:55:45.000Z</time>
      </trkpt>
      <trkpt lat="22.769735" lon="108.762727">
        <ele>80.062630</ele>
        <time>2026-08-14T05:55:46.000Z</time>
      </trkpt>
      <trkpt lat="22.769729" lon="108.762792">
        <ele>80.018127</ele>
        <time>2026-08-14T05:55:47.000Z</time>
      </trkpt>
      <trkpt lat="22.769722" lon="108.762855">
        <ele>79.974899</ele>
        <time>2026-08-14T05:55:48.000Z</time>
      </trkpt>
      <trkpt lat="22.769715" lon="108.762918">
        <ele>79.931670</ele>
        <time>2026-08-14T05:55:49.000Z</time>
      </trkpt>
      <trkpt lat="22.769708" lon="108.762982">
        <ele>79.887764</ele>
        <time>2026-08-14T05:55:50.000Z</time>
      </trkpt>
      <trkpt lat="22.769702" lon="108.763046">
        <ele>79.843940</ele>
        <time>2026-08-14T05:55:51.000Z</time>
      </trkpt>
      <trkpt lat="22.769697" lon="108.763110">
        <ele>79.800184</ele>
        <time>2026-08-14T05:55:52.000Z</time>
      </trkpt>
      <trkpt lat="22.769691" lon="108.763175">
        <ele>79.769548</ele>
        <time>2026-08-14T05:55:53.000Z</time>
      </trkpt>
      <trkpt lat="22.769686" lon="108.763238">
        <ele>79.761408</ele>
        <time>2026-08-14T05:55:54.000Z</time>
      </trkpt>
      <trkpt lat="22.769678" lon="108.763301">
        <ele>79.753222</ele>
        <time>2026-08-14T05:55:55.000Z</time>
      </trkpt>
      <trkpt lat="22.769671" lon="108.763365">
        <ele>79.744925</ele>
        <time>2026-08-14T05:55:56.000Z</time>
      </trkpt>
      <trkpt lat="22.769665" lon="108.763429">
        <ele>79.736644</ele>
        <time>2026-08-14T05:55:57.000Z</time>
      </trkpt>
      <trkpt lat="22.769660" lon="108.763493">
        <ele>79.728376</ele>
        <time>2026-08-14T05:55:58.000Z</time>
      </trkpt>
      <trkpt lat="22.769656" lon="108.763557">
        <ele>79.720119</ele>
        <time>2026-08-14T05:55:59.000Z</time>
      </trkpt>
      <trkpt lat="22.769651" lon="108.763621">
        <ele>79.711850</ele>
        <time>2026-08-14T05:56:00.000Z</time>
      </trkpt>
      <trkpt lat="22.769645" lon="108.763686">
        <ele>79.703441</ele>
        <time>2026-08-14T05:56:01.000Z</time>
      </trkpt>
      <trkpt lat="22.769638" lon="108.763752">
        <ele>79.694889</ele>
        <time>2026-08-14T05:56:02.000Z</time>
      </trkpt>
      <trkpt lat="22.769631" lon="108.763816">
        <ele>79.686593</ele>
        <time>2026-08-14T05:56:03.000Z</time>
      </trkpt>
      <trkpt lat="22.769625" lon="108.763882">
        <ele>79.678055</ele>
        <time>2026-08-14T05:56:04.000Z</time>
      </trkpt>
      <trkpt lat="22.769617" lon="108.763948">
        <ele>79.669486</ele>
        <time>2026-08-14T05:56:05.000Z</time>
      </trkpt>
      <trkpt lat="22.769609" lon="108.764013">
        <ele>79.661045</ele>
        <time>2026-08-14T05:56:06.000Z</time>
      </trkpt>
      <trkpt lat="22.769603" lon="108.764079">
        <ele>79.652507</ele>
        <time>2026-08-14T05:56:07.000Z</time>
      </trkpt>
      <trkpt lat="22.769597" lon="108.764143">
        <ele>79.644226</ele>
        <time>2026-08-14T05:56:08.000Z</time>
      </trkpt>
      <trkpt lat="22.769592" lon="108.764207">
        <ele>79.635958</ele>
        <time>2026-08-14T05:56:09.000Z</time>
      </trkpt>
      <trkpt lat="22.769586" lon="108.764274">
        <ele>79.627293</ele>
        <time>2026-08-14T05:56:10.000Z</time>
      </trkpt>
      <trkpt lat="22.769579" lon="108.764339">
        <ele>79.618868</ele>
        <time>2026-08-14T05:56:11.000Z</time>
      </trkpt>
      <trkpt lat="22.769571" lon="108.764406">
        <ele>79.610172</ele>
        <time>2026-08-14T05:56:12.000Z</time>
      </trkpt>
      <trkpt lat="22.769563" lon="108.764471">
        <ele>79.601730</ele>
        <time>2026-08-14T05:56:13.000Z</time>
      </trkpt>
      <trkpt lat="22.769556" lon="108.764536">
        <ele>79.593306</ele>
        <time>2026-08-14T05:56:14.000Z</time>
      </trkpt>
      <trkpt lat="22.769550" lon="108.764601">
        <ele>79.584897</ele>
        <time>2026-08-14T05:56:15.000Z</time>
      </trkpt>
      <trkpt lat="22.769544" lon="108.764667">
        <ele>79.576359</ele>
        <time>2026-08-14T05:56:16.000Z</time>
      </trkpt>
      <trkpt lat="22.769536" lon="108.764733">
        <ele>79.567790</ele>
        <time>2026-08-14T05:56:17.000Z</time>
      </trkpt>
      <trkpt lat="22.769530" lon="108.764798">
        <ele>79.559381</ele>
        <time>2026-08-14T05:56:18.000Z</time>
      </trkpt>
      <trkpt lat="22.769524" lon="108.764863">
        <ele>79.550972</ele>
        <time>2026-08-14T05:56:19.000Z</time>
      </trkpt>
      <trkpt lat="22.769518" lon="108.764928">
        <ele>79.542562</ele>
        <time>2026-08-14T05:56:20.000Z</time>
      </trkpt>
      <trkpt lat="22.769510" lon="108.764995">
        <ele>79.533866</ele>
        <time>2026-08-14T05:56:21.000Z</time>
      </trkpt>
      <trkpt lat="22.769503" lon="108.765061">
        <ele>79.525314</ele>
        <time>2026-08-14T05:56:22.000Z</time>
      </trkpt>
      <trkpt lat="22.769496" lon="108.765127">
        <ele>79.527182</ele>
        <time>2026-08-14T05:56:23.000Z</time>
      </trkpt>
      <trkpt lat="22.769490" lon="108.765193">
        <ele>79.536760</ele>
        <time>2026-08-14T05:56:24.000Z</time>
      </trkpt>
      <trkpt lat="22.769484" lon="108.765259">
        <ele>79.546337</ele>
        <time>2026-08-14T05:56:25.000Z</time>
      </trkpt>
      <trkpt lat="22.769479" lon="108.765324">
        <ele>79.555756</ele>
        <time>2026-08-14T05:56:26.000Z</time>
      </trkpt>
      <trkpt lat="22.769473" lon="108.765388">
        <ele>79.565046</ele>
        <time>2026-08-14T05:56:27.000Z</time>
      </trkpt>
      <trkpt lat="22.769467" lon="108.765452">
        <ele>79.574336</ele>
        <time>2026-08-14T05:56:28.000Z</time>
      </trkpt>
      <trkpt lat="22.769461" lon="108.765517">
        <ele>79.583770</ele>
        <time>2026-08-14T05:56:29.000Z</time>
      </trkpt>
      <trkpt lat="22.769453" lon="108.765581">
        <ele>79.593097</ele>
        <time>2026-08-14T05:56:30.000Z</time>
      </trkpt>
      <trkpt lat="22.769446" lon="108.765645">
        <ele>79.602404</ele>
        <time>2026-08-14T05:56:31.000Z</time>
      </trkpt>
      <trkpt lat="22.769440" lon="108.765707">
        <ele>79.611407</ele>
        <time>2026-08-14T05:56:32.000Z</time>
      </trkpt>
      <trkpt lat="22.769435" lon="108.765770">
        <ele>79.620538</ele>
        <time>2026-08-14T05:56:33.000Z</time>
      </trkpt>
      <trkpt lat="22.769430" lon="108.765830">
        <ele>79.629238</ele>
        <time>2026-08-14T05:56:34.000Z</time>
      </trkpt>
      <trkpt lat="22.769427" lon="108.765888">
        <ele>79.637627</ele>
        <time>2026-08-14T05:56:35.000Z</time>
      </trkpt>
      <trkpt lat="22.769422" lon="108.765946">
        <ele>79.646040</ele>
        <time>2026-08-14T05:56:36.000Z</time>
      </trkpt>
      <trkpt lat="22.769416" lon="108.766004">
        <ele>79.654468</ele>
        <time>2026-08-14T05:56:37.000Z</time>
      </trkpt>
      <trkpt lat="22.769412" lon="108.766063">
        <ele>79.663011</ele>
        <time>2026-08-14T05:56:38.000Z</time>
      </trkpt>
      <trkpt lat="22.769407" lon="108.766120">
        <ele>79.671280</ele>
        <time>2026-08-14T05:56:39.000Z</time>
      </trkpt>
      <trkpt lat="22.769400" lon="108.766178">
        <ele>79.679727</ele>
        <time>2026-08-14T05:56:40.000Z</time>
      </trkpt>
      <trkpt lat="22.769399" lon="108.766235">
        <ele>79.687960</ele>
        <time>2026-08-14T05:56:41.000Z</time>
      </trkpt>
      <trkpt lat="22.769394" lon="108.766294">
        <ele>79.696517</ele>
        <time>2026-08-14T05:56:42.000Z</time>
      </trkpt>
      <trkpt lat="22.769389" lon="108.766352">
        <ele>79.704929</ele>
        <time>2026-08-14T05:56:43.000Z</time>
      </trkpt>
      <trkpt lat="22.769383" lon="108.766408">
        <ele>79.713070</ele>
        <time>2026-08-14T05:56:44.000Z</time>
      </trkpt>
      <trkpt lat="22.769379" lon="108.766464">
        <ele>79.721182</ele>
        <time>2026-08-14T05:56:45.000Z</time>
      </trkpt>
      <trkpt lat="22.769373" lon="108.766519">
        <ele>79.729180</ele>
        <time>2026-08-14T05:56:46.000Z</time>
      </trkpt>
      <trkpt lat="22.769368" lon="108.766574">
        <ele>79.737161</ele>
        <time>2026-08-14T05:56:47.000Z</time>
      </trkpt>
      <trkpt lat="22.769362" lon="108.766632">
        <ele>79.745589</ele>
        <time>2026-08-14T05:56:48.000Z</time>
      </trkpt>
      <trkpt lat="22.769354" lon="108.766688">
        <ele>79.753773</ele>
        <time>2026-08-14T05:56:49.000Z</time>
      </trkpt>
      <trkpt lat="22.769349" lon="108.766744">
        <ele>79.761898</ele>
        <time>2026-08-14T05:56:50.000Z</time>
      </trkpt>
      <trkpt lat="22.769342" lon="108.766798">
        <ele>79.769773</ele>
        <time>2026-08-14T05:56:51.000Z</time>
      </trkpt>
      <trkpt lat="22.769336" lon="108.766854">
        <ele>79.777914</ele>
        <time>2026-08-14T05:56:52.000Z</time>
      </trkpt>
      <trkpt lat="22.769330" lon="108.766911">
        <ele>79.786199</ele>
        <time>2026-08-14T05:56:53.000Z</time>
      </trkpt>
      <trkpt lat="22.769324" lon="108.766968">
        <ele>79.794484</ele>
        <time>2026-08-14T05:56:54.000Z</time>
      </trkpt>
      <trkpt lat="22.769317" lon="108.767026">
        <ele>79.802931</ele>
        <time>2026-08-14T05:56:55.000Z</time>
      </trkpt>
      <trkpt lat="22.769309" lon="108.767085">
        <ele>79.821412</ele>
        <time>2026-08-14T05:56:56.000Z</time>
      </trkpt>
      <trkpt lat="22.769303" lon="108.767143">
        <ele>79.840018</ele>
        <time>2026-08-14T05:56:57.000Z</time>
      </trkpt>
      <trkpt lat="22.769298" lon="108.767201">
        <ele>79.858589</ele>
        <time>2026-08-14T05:56:58.000Z</time>
      </trkpt>
      <trkpt lat="22.769292" lon="108.767260">
        <ele>79.877512</ele>
        <time>2026-08-14T05:56:59.000Z</time>
      </trkpt>
      <trkpt lat="22.769288" lon="108.767318">
        <ele>79.896054</ele>
        <time>2026-08-14T05:57:00.000Z</time>
      </trkpt>
      <trkpt lat="22.769284" lon="108.767377">
        <ele>79.914913</ele>
        <time>2026-08-14T05:57:01.000Z</time>
      </trkpt>
      <trkpt lat="22.769278" lon="108.767435">
        <ele>79.933519</ele>
        <time>2026-08-14T05:57:02.000Z</time>
      </trkpt>
      <trkpt lat="22.769274" lon="108.767492">
        <ele>79.951743</ele>
        <time>2026-08-14T05:57:03.000Z</time>
      </trkpt>
      <trkpt lat="22.769273" lon="108.767552">
        <ele>79.970874</ele>
        <time>2026-08-14T05:57:04.000Z</time>
      </trkpt>
      <trkpt lat="22.769272" lon="108.767611">
        <ele>79.989686</ele>
        <time>2026-08-14T05:57:05.000Z</time>
      </trkpt>
      <trkpt lat="22.769271" lon="108.767671">
        <ele>80.008816</ele>
        <time>2026-08-14T05:57:06.000Z</time>
      </trkpt>
      <trkpt lat="22.769271" lon="108.767728">
        <ele>80.026988</ele>
        <time>2026-08-14T05:57:07.000Z</time>
      </trkpt>
      <trkpt lat="22.769270" lon="108.767787">
        <ele>80.045800</ele>
        <time>2026-08-14T05:57:08.000Z</time>
      </trkpt>
      <trkpt lat="22.769272" lon="108.767846">
        <ele>80.064621</ele>
        <time>2026-08-14T05:57:09.000Z</time>
      </trkpt>
      <trkpt lat="22.769275" lon="108.767904">
        <ele>80.083140</ele>
        <time>2026-08-14T05:57:10.000Z</time>
      </trkpt>
      <trkpt lat="22.769279" lon="108.767962">
        <ele>80.101682</ele>
        <time>2026-08-14T05:57:11.000Z</time>
      </trkpt>
      <trkpt lat="22.769283" lon="108.768020">
        <ele>80.120224</ele>
        <time>2026-08-14T05:57:12.000Z</time>
      </trkpt>
      <trkpt lat="22.769287" lon="108.768077">
        <ele>80.138447</ele>
        <time>2026-08-14T05:57:13.000Z</time>
      </trkpt>
      <trkpt lat="22.769295" lon="108.768134">
        <ele>80.156828</ele>
        <time>2026-08-14T05:57:14.000Z</time>
      </trkpt>
      <trkpt lat="22.769302" lon="108.768190">
        <ele>80.174844</ele>
        <time>2026-08-14T05:57:15.000Z</time>
      </trkpt>
      <trkpt lat="22.769310" lon="108.768246">
        <ele>80.192909</ele>
        <time>2026-08-14T05:57:16.000Z</time>
      </trkpt>
      <trkpt lat="22.769322" lon="108.768301">
        <ele>80.210927</ele>
        <time>2026-08-14T05:57:17.000Z</time>
      </trkpt>
      <trkpt lat="22.769334" lon="108.768357">
        <ele>80.229255</ele>
        <time>2026-08-14T05:57:18.000Z</time>
      </trkpt>
      <trkpt lat="22.769348" lon="108.768412">
        <ele>80.247445</ele>
        <time>2026-08-14T05:57:19.000Z</time>
      </trkpt>
      <trkpt lat="22.769362" lon="108.768467">
        <ele>80.265634</ele>
        <time>2026-08-14T05:57:20.000Z</time>
      </trkpt>
      <trkpt lat="22.769378" lon="108.768522">
        <ele>80.284020</ele>
        <time>2026-08-14T05:57:21.000Z</time>
      </trkpt>
      <trkpt lat="22.769395" lon="108.768578">
        <ele>80.302815</ele>
        <time>2026-08-14T05:57:22.000Z</time>
      </trkpt>
      <trkpt lat="22.769411" lon="108.768633">
        <ele>80.321200</ele>
        <time>2026-08-14T05:57:23.000Z</time>
      </trkpt>
      <trkpt lat="22.769429" lon="108.768687">
        <ele>80.339506</ele>
        <time>2026-08-14T05:57:24.000Z</time>
      </trkpt>
      <trkpt lat="22.769449" lon="108.768741">
        <ele>80.358057</ele>
        <time>2026-08-14T05:57:25.000Z</time>
      </trkpt>
      <trkpt lat="22.769470" lon="108.768795">
        <ele>80.376740</ele>
        <time>2026-08-14T05:57:26.000Z</time>
      </trkpt>
      <trkpt lat="22.769493" lon="108.768847">
        <ele>80.395126</ele>
        <time>2026-08-14T05:57:27.000Z</time>
      </trkpt>
      <trkpt lat="22.769517" lon="108.768900">
        <ele>80.413950</ele>
        <time>2026-08-14T05:57:28.000Z</time>
      </trkpt>
      <trkpt lat="22.769541" lon="108.768953">
        <ele>80.430629</ele>
        <time>2026-08-14T05:57:29.000Z</time>
      </trkpt>
      <trkpt lat="22.769566" lon="108.769004">
        <ele>80.443808</ele>
        <time>2026-08-14T05:57:30.000Z</time>
      </trkpt>
      <trkpt lat="22.769590" lon="108.769055">
        <ele>80.456874</ele>
        <time>2026-08-14T05:57:31.000Z</time>
      </trkpt>
      <trkpt lat="22.769618" lon="108.769105">
        <ele>80.470222</ele>
        <time>2026-08-14T05:57:32.000Z</time>
      </trkpt>
      <trkpt lat="22.769647" lon="108.769153">
        <ele>80.483317</ele>
        <time>2026-08-14T05:57:33.000Z</time>
      </trkpt>
      <trkpt lat="22.769675" lon="108.769202">
        <ele>80.496471</ele>
        <time>2026-08-14T05:57:34.000Z</time>
      </trkpt>
      <trkpt lat="22.769704" lon="108.769249">
        <ele>80.509375</ele>
        <time>2026-08-14T05:57:35.000Z</time>
      </trkpt>
      <trkpt lat="22.769734" lon="108.769295">
        <ele>80.522232</ele>
        <time>2026-08-14T05:57:36.000Z</time>
      </trkpt>
      <trkpt lat="22.769766" lon="108.769342">
        <ele>80.535563</ele>
        <time>2026-08-14T05:57:37.000Z</time>
      </trkpt>
      <trkpt lat="22.769800" lon="108.769388">
        <ele>80.549016</ele>
        <time>2026-08-14T05:57:38.000Z</time>
      </trkpt>
      <trkpt lat="22.769834" lon="108.769433">
        <ele>80.562291</ele>
        <time>2026-08-14T05:57:39.000Z</time>
      </trkpt>
      <trkpt lat="22.769869" lon="108.769478">
        <ele>80.575724</ele>
        <time>2026-08-14T05:57:40.000Z</time>
      </trkpt>
      <trkpt lat="22.769904" lon="108.769522">
        <ele>80.588984</ele>
        <time>2026-08-14T05:57:41.000Z</time>
      </trkpt>
      <trkpt lat="22.769939" lon="108.769566">
        <ele>80.602244</ele>
        <time>2026-08-14T05:57:42.000Z</time>
      </trkpt>
      <trkpt lat="22.769974" lon="108.769609">
        <ele>80.615332</ele>
        <time>2026-08-14T05:57:43.000Z</time>
      </trkpt>
      <trkpt lat="22.770012" lon="108.769653">
        <ele>80.629088</ele>
        <time>2026-08-14T05:57:44.000Z</time>
      </trkpt>
      <trkpt lat="22.770049" lon="108.769697">
        <ele>80.642676</ele>
        <time>2026-08-14T05:57:45.000Z</time>
      </trkpt>
      <trkpt lat="22.770086" lon="108.769741">
        <ele>80.656265</ele>
        <time>2026-08-14T05:57:46.000Z</time>
      </trkpt>
      <trkpt lat="22.770122" lon="108.769786">
        <ele>80.669859</ele>
        <time>2026-08-14T05:57:47.000Z</time>
      </trkpt>
      <trkpt lat="22.770159" lon="108.769832">
        <ele>80.683788</ele>
        <time>2026-08-14T05:57:48.000Z</time>
      </trkpt>
      <trkpt lat="22.770196" lon="108.769875">
        <ele>80.697208</ele>
        <time>2026-08-14T05:57:49.000Z</time>
      </trkpt>
      <trkpt lat="22.770234" lon="108.769918">
        <ele>80.710799</ele>
        <time>2026-08-14T05:57:50.000Z</time>
      </trkpt>
      <trkpt lat="22.770272" lon="108.769960">
        <ele>80.724226</ele>
        <time>2026-08-14T05:57:51.000Z</time>
      </trkpt>
      <trkpt lat="22.770309" lon="108.770002">
        <ele>80.737480</ele>
        <time>2026-08-14T05:57:52.000Z</time>
      </trkpt>
      <trkpt lat="22.770347" lon="108.770043">
        <ele>80.750745</ele>
        <time>2026-08-14T05:57:53.000Z</time>
      </trkpt>
      <trkpt lat="22.770385" lon="108.770084">
        <ele>80.764010</ele>
        <time>2026-08-14T05:57:54.000Z</time>
      </trkpt>
      <trkpt lat="22.770422" lon="108.770125">
        <ele>80.777101</ele>
        <time>2026-08-14T05:57:55.000Z</time>
      </trkpt>
      <trkpt lat="22.770459" lon="108.770165">
        <ele>80.790029</ele>
        <time>2026-08-14T05:57:56.000Z</time>
      </trkpt>
      <trkpt lat="22.770496" lon="108.770206">
        <ele>80.803120</ele>
        <time>2026-08-14T05:57:57.000Z</time>
      </trkpt>
      <trkpt lat="22.770533" lon="108.770246">
        <ele>80.816048</ele>
        <time>2026-08-14T05:57:58.000Z</time>
      </trkpt>
      <trkpt lat="22.770568" lon="108.770286">
        <ele>80.828631</ele>
        <time>2026-08-14T05:57:59.000Z</time>
      </trkpt>
      <trkpt lat="22.770605" lon="108.770326">
        <ele>80.841560</ele>
        <time>2026-08-14T05:58:00.000Z</time>
      </trkpt>
      <trkpt lat="22.770641" lon="108.770366">
        <ele>80.854314</ele>
        <time>2026-08-14T05:58:01.000Z</time>
      </trkpt>
      <trkpt lat="22.770677" lon="108.770405">
        <ele>80.866906</ele>
        <time>2026-08-14T05:58:02.000Z</time>
      </trkpt>
      <trkpt lat="22.770713" lon="108.770445">
        <ele>80.878495</ele>
        <time>2026-08-14T05:58:03.000Z</time>
      </trkpt>
      <trkpt lat="22.770748" lon="108.770484">
        <ele>80.889360</ele>
        <time>2026-08-14T05:58:04.000Z</time>
      </trkpt>
      <trkpt lat="22.770783" lon="108.770525">
        <ele>80.900515</ele>
        <time>2026-08-14T05:58:05.000Z</time>
      </trkpt>
      <trkpt lat="22.770819" lon="108.770565">
        <ele>80.911674</ele>
        <time>2026-08-14T05:58:06.000Z</time>
      </trkpt>
      <trkpt lat="22.770854" lon="108.770605">
        <ele>80.922683</ele>
        <time>2026-08-14T05:58:07.000Z</time>
      </trkpt>
      <trkpt lat="22.770890" lon="108.770645">
        <ele>80.933843</ele>
        <time>2026-08-14T05:58:08.000Z</time>
      </trkpt>
      <trkpt lat="22.770927" lon="108.770685">
        <ele>80.945154</ele>
        <time>2026-08-14T05:58:09.000Z</time>
      </trkpt>
      <trkpt lat="22.770964" lon="108.770724">
        <ele>80.956326</ele>
        <time>2026-08-14T05:58:10.000Z</time>
      </trkpt>
      <trkpt lat="22.771001" lon="108.770764">
        <ele>80.967637</ele>
        <time>2026-08-14T05:58:11.000Z</time>
      </trkpt>
      <trkpt lat="22.771038" lon="108.770805">
        <ele>80.979091</ele>
        <time>2026-08-14T05:58:12.000Z</time>
      </trkpt>
      <trkpt lat="22.771074" lon="108.770845">
        <ele>80.990250</ele>
        <time>2026-08-14T05:58:13.000Z</time>
      </trkpt>
      <trkpt lat="22.771112" lon="108.770886">
        <ele>81.001856</ele>
        <time>2026-08-14T05:58:14.000Z</time>
      </trkpt>
      <trkpt lat="22.771151" lon="108.770926">
        <ele>81.013478</ele>
        <time>2026-08-14T05:58:15.000Z</time>
      </trkpt>
      <trkpt lat="22.771188" lon="108.770967">
        <ele>81.024932</ele>
        <time>2026-08-14T05:58:16.000Z</time>
      </trkpt>
      <trkpt lat="22.771225" lon="108.771008">
        <ele>81.036385</ele>
        <time>2026-08-14T05:58:17.000Z</time>
      </trkpt>
      <trkpt lat="22.771262" lon="108.771050">
        <ele>81.047982</ele>
        <time>2026-08-14T05:58:18.000Z</time>
      </trkpt>
      <trkpt lat="22.771297" lon="108.771092">
        <ele>81.059284</ele>
        <time>2026-08-14T05:58:19.000Z</time>
      </trkpt>
      <trkpt lat="22.771332" lon="108.771134">
        <ele>81.070587</ele>
        <time>2026-08-14T05:58:20.000Z</time>
      </trkpt>
      <trkpt lat="22.771368" lon="108.771177">
        <ele>81.082182</ele>
        <time>2026-08-14T05:58:21.000Z</time>
      </trkpt>
      <trkpt lat="22.771402" lon="108.771222">
        <ele>81.093797</ele>
        <time>2026-08-14T05:58:22.000Z</time>
      </trkpt>
      <trkpt lat="22.771435" lon="108.771266">
        <ele>81.105120</ele>
        <time>2026-08-14T05:58:23.000Z</time>
      </trkpt>
      <trkpt lat="22.771468" lon="108.771312">
        <ele>81.116756</ele>
        <time>2026-08-14T05:58:24.000Z</time>
      </trkpt>
      <trkpt lat="22.771498" lon="108.771359">
        <ele>81.128168</ele>
        <time>2026-08-14T05:58:25.000Z</time>
      </trkpt>
      <trkpt lat="22.771528" lon="108.771407">
        <ele>81.139745</ele>
        <time>2026-08-14T05:58:26.000Z</time>
      </trkpt>
      <trkpt lat="22.771557" lon="108.771455">
        <ele>81.151202</ele>
        <time>2026-08-14T05:58:27.000Z</time>
      </trkpt>
      <trkpt lat="22.771584" lon="108.771505">
        <ele>81.162770</ele>
        <time>2026-08-14T05:58:28.000Z</time>
      </trkpt>
      <trkpt lat="22.771610" lon="108.771556">
        <ele>81.174405</ele>
        <time>2026-08-14T05:58:29.000Z</time>
      </trkpt>
      <trkpt lat="22.771633" lon="108.771607">
        <ele>81.185739</ele>
        <time>2026-08-14T05:58:30.000Z</time>
      </trkpt>
      <trkpt lat="22.771652" lon="108.771660">
        <ele>81.197092</ele>
        <time>2026-08-14T05:58:31.000Z</time>
      </trkpt>
      <trkpt lat="22.771672" lon="108.771713">
        <ele>81.208525</ele>
        <time>2026-08-14T05:58:32.000Z</time>
      </trkpt>
      <trkpt lat="22.771690" lon="108.771768">
        <ele>81.220176</ele>
        <time>2026-08-14T05:58:33.000Z</time>
      </trkpt>
      <trkpt lat="22.771707" lon="108.771823">
        <ele>81.231757</ele>
        <time>2026-08-14T05:58:34.000Z</time>
      </trkpt>
      <trkpt lat="22.771723" lon="108.771880">
        <ele>81.243653</ele>
        <time>2026-08-14T05:58:35.000Z</time>
      </trkpt>
      <trkpt lat="22.771736" lon="108.771937">
        <ele>81.255375</ele>
        <time>2026-08-14T05:58:36.000Z</time>
      </trkpt>
      <trkpt lat="22.771745" lon="108.771996">
        <ele>81.254717</ele>
        <time>2026-08-14T05:58:37.000Z</time>
      </trkpt>
      <trkpt lat="22.771754" lon="108.772055">
        <ele>81.246697</ele>
        <time>2026-08-14T05:58:38.000Z</time>
      </trkpt>
      <trkpt lat="22.771763" lon="108.772114">
        <ele>81.238676</ele>
        <time>2026-08-14T05:58:39.000Z</time>
      </trkpt>
      <trkpt lat="22.771770" lon="108.772174">
        <ele>81.230565</ele>
        <time>2026-08-14T05:58:40.000Z</time>
      </trkpt>
      <trkpt lat="22.771777" lon="108.772234">
        <ele>81.222454</ele>
        <time>2026-08-14T05:58:41.000Z</time>
      </trkpt>
      <trkpt lat="22.771783" lon="108.772294">
        <ele>81.214360</ele>
        <time>2026-08-14T05:58:42.000Z</time>
      </trkpt>
      <trkpt lat="22.771789" lon="108.772353">
        <ele>81.206399</ele>
        <time>2026-08-14T05:58:43.000Z</time>
      </trkpt>
      <trkpt lat="22.771795" lon="108.772412">
        <ele>81.198438</ele>
        <time>2026-08-14T05:58:44.000Z</time>
      </trkpt>
      <trkpt lat="22.771801" lon="108.772470">
        <ele>81.190611</ele>
        <time>2026-08-14T05:58:45.000Z</time>
      </trkpt>
      <trkpt lat="22.771806" lon="108.772526">
        <ele>81.183065</ele>
        <time>2026-08-14T05:58:46.000Z</time>
      </trkpt>
      <trkpt lat="22.771811" lon="108.772581">
        <ele>81.175653</ele>
        <time>2026-08-14T05:58:47.000Z</time>
      </trkpt>
      <trkpt lat="22.771814" lon="108.772635">
        <ele>81.168397</ele>
        <time>2026-08-14T05:58:48.000Z</time>
      </trkpt>
      <trkpt lat="22.771816" lon="108.772689">
        <ele>81.161149</ele>
        <time>2026-08-14T05:58:49.000Z</time>
      </trkpt>
      <trkpt lat="22.771818" lon="108.772743">
        <ele>81.153901</ele>
        <time>2026-08-14T05:58:50.000Z</time>
      </trkpt>
      <trkpt lat="22.771818" lon="108.772796">
        <ele>81.146793</ele>
        <time>2026-08-14T05:58:51.000Z</time>
      </trkpt>
      <trkpt lat="22.771816" lon="108.772851">
        <ele>81.139411</ele>
        <time>2026-08-14T05:58:52.000Z</time>
      </trkpt>
      <trkpt lat="22.771813" lon="108.772905">
        <ele>81.132155</ele>
        <time>2026-08-14T05:58:53.000Z</time>
      </trkpt>
      <trkpt lat="22.771810" lon="108.772959">
        <ele>81.124900</ele>
        <time>2026-08-14T05:58:54.000Z</time>
      </trkpt>
      <trkpt lat="22.771807" lon="108.773013">
        <ele>81.117645</ele>
        <time>2026-08-14T05:58:55.000Z</time>
      </trkpt>
      <trkpt lat="22.771804" lon="108.773068">
        <ele>81.110255</ele>
        <time>2026-08-14T05:58:56.000Z</time>
      </trkpt>
      <trkpt lat="22.771801" lon="108.773123">
        <ele>81.102866</ele>
        <time>2026-08-14T05:58:57.000Z</time>
      </trkpt>
      <trkpt lat="22.771796" lon="108.773178">
        <ele>81.095454</ele>
        <time>2026-08-14T05:58:58.000Z</time>
      </trkpt>
      <trkpt lat="22.771792" lon="108.773234">
        <ele>81.087921</ele>
        <time>2026-08-14T05:58:59.000Z</time>
      </trkpt>
      <trkpt lat="22.771789" lon="108.773291">
        <ele>81.080264</ele>
        <time>2026-08-14T05:59:00.000Z</time>
      </trkpt>
      <trkpt lat="22.771785" lon="108.773348">
        <ele>81.072597</ele>
        <time>2026-08-14T05:59:01.000Z</time>
      </trkpt>
      <trkpt lat="22.771781" lon="108.773405">
        <ele>81.064930</ele>
        <time>2026-08-14T05:59:02.000Z</time>
      </trkpt>
      <trkpt lat="22.771775" lon="108.773462">
        <ele>81.057236</ele>
        <time>2026-08-14T05:59:03.000Z</time>
      </trkpt>
      <trkpt lat="22.771769" lon="108.773518">
        <ele>81.049675</ele>
        <time>2026-08-14T05:59:04.000Z</time>
      </trkpt>
      <trkpt lat="22.771765" lon="108.773574">
        <ele>81.042142</ele>
        <time>2026-08-14T05:59:05.000Z</time>
      </trkpt>
      <trkpt lat="22.771762" lon="108.773630">
        <ele>81.034619</ele>
        <time>2026-08-14T05:59:06.000Z</time>
      </trkpt>
      <trkpt lat="22.771758" lon="108.773687">
        <ele>81.026952</ele>
        <time>2026-08-14T05:59:07.000Z</time>
      </trkpt>
      <trkpt lat="22.771754" lon="108.773743">
        <ele>81.019419</ele>
        <time>2026-08-14T05:59:08.000Z</time>
      </trkpt>
      <trkpt lat="22.771749" lon="108.773800">
        <ele>81.011740</ele>
        <time>2026-08-14T05:59:09.000Z</time>
      </trkpt>
      <trkpt lat="22.771744" lon="108.773856">
        <ele>81.004194</ele>
        <time>2026-08-14T05:59:10.000Z</time>
      </trkpt>
      <trkpt lat="22.771740" lon="108.773913">
        <ele>80.992663</ele>
        <time>2026-08-14T05:59:11.000Z</time>
      </trkpt>
      <trkpt lat="22.771735" lon="108.773970">
        <ele>80.966802</ele>
        <time>2026-08-14T05:59:12.000Z</time>
      </trkpt>
      <trkpt lat="22.771730" lon="108.774027">
        <ele>80.940941</ele>
        <time>2026-08-14T05:59:13.000Z</time>
      </trkpt>
      <trkpt lat="22.771725" lon="108.774084">
        <ele>80.915080</ele>
        <time>2026-08-14T05:59:14.000Z</time>
      </trkpt>
      <trkpt lat="22.771721" lon="108.774140">
        <ele>80.889710</ele>
        <time>2026-08-14T05:59:15.000Z</time>
      </trkpt>
      <trkpt lat="22.771717" lon="108.774197">
        <ele>80.863891</ele>
        <time>2026-08-14T05:59:16.000Z</time>
      </trkpt>
      <trkpt lat="22.771712" lon="108.774255">
        <ele>80.837580</ele>
        <time>2026-08-14T05:59:17.000Z</time>
      </trkpt>
      <trkpt lat="22.771707" lon="108.774311">
        <ele>80.812168</ele>
        <time>2026-08-14T05:59:18.000Z</time>
      </trkpt>
      <trkpt lat="22.771704" lon="108.774367">
        <ele>80.786832</ele>
        <time>2026-08-14T05:59:19.000Z</time>
      </trkpt>
      <trkpt lat="22.771700" lon="108.774424">
        <ele>80.761013</ele>
        <time>2026-08-14T05:59:20.000Z</time>
      </trkpt>
      <trkpt lat="22.771696" lon="108.774479">
        <ele>80.736094</ele>
        <time>2026-08-14T05:59:21.000Z</time>
      </trkpt>
      <trkpt lat="22.771692" lon="108.774535">
        <ele>80.710725</ele>
        <time>2026-08-14T05:59:22.000Z</time>
      </trkpt>
      <trkpt lat="22.771689" lon="108.774591">
        <ele>80.685388</ele>
        <time>2026-08-14T05:59:23.000Z</time>
      </trkpt>
      <trkpt lat="22.771685" lon="108.774647">
        <ele>80.660019</ele>
        <time>2026-08-14T05:59:24.000Z</time>
      </trkpt>
      <trkpt lat="22.771681" lon="108.774702">
        <ele>80.635100</ele>
        <time>2026-08-14T05:59:25.000Z</time>
      </trkpt>
      <trkpt lat="22.771677" lon="108.774757">
        <ele>80.610181</ele>
        <time>2026-08-14T05:59:26.000Z</time>
      </trkpt>
      <trkpt lat="22.771673" lon="108.774811">
        <ele>80.585713</ele>
        <time>2026-08-14T05:59:27.000Z</time>
      </trkpt>
      <trkpt lat="22.771669" lon="108.774866">
        <ele>80.560794</ele>
        <time>2026-08-14T05:59:28.000Z</time>
      </trkpt>
      <trkpt lat="22.771666" lon="108.774921">
        <ele>80.535909</ele>
        <time>2026-08-14T05:59:29.000Z</time>
      </trkpt>
      <trkpt lat="22.771662" lon="108.774976">
        <ele>80.510990</ele>
        <time>2026-08-14T05:59:30.000Z</time>
      </trkpt>
      <trkpt lat="22.771656" lon="108.775031">
        <ele>80.485975</ele>
        <time>2026-08-14T05:59:31.000Z</time>
      </trkpt>
      <trkpt lat="22.771651" lon="108.775087">
        <ele>80.460563</ele>
        <time>2026-08-14T05:59:32.000Z</time>
      </trkpt>
      <trkpt lat="22.771647" lon="108.775143">
        <ele>80.435194</ele>
        <time>2026-08-14T05:59:33.000Z</time>
      </trkpt>
      <trkpt lat="22.771643" lon="108.775200">
        <ele>80.409374</ele>
        <time>2026-08-14T05:59:34.000Z</time>
      </trkpt>
      <trkpt lat="22.771638" lon="108.775257">
        <ele>80.383513</ele>
        <time>2026-08-14T05:59:35.000Z</time>
      </trkpt>
      <trkpt lat="22.771633" lon="108.775313">
        <ele>80.358101</ele>
        <time>2026-08-14T05:59:36.000Z</time>
      </trkpt>
      <trkpt lat="22.771627" lon="108.775370">
        <ele>80.332189</ele>
        <time>2026-08-14T05:59:37.000Z</time>
      </trkpt>
      <trkpt lat="22.771620" lon="108.775428">
        <ele>80.305769</ele>
        <time>2026-08-14T05:59:38.000Z</time>
      </trkpt>
      <trkpt lat="22.771615" lon="108.775487">
        <ele>80.279008</ele>
        <time>2026-08-14T05:59:39.000Z</time>
      </trkpt>
      <trkpt lat="22.771609" lon="108.775545">
        <ele>80.252647</ele>
        <time>2026-08-14T05:59:40.000Z</time>
      </trkpt>
      <trkpt lat="22.771601" lon="108.775604">
        <ele>80.225712</ele>
        <time>2026-08-14T05:59:41.000Z</time>
      </trkpt>
      <trkpt lat="22.771591" lon="108.775662">
        <ele>80.199061</ele>
        <time>2026-08-14T05:59:42.000Z</time>
      </trkpt>
      <trkpt lat="22.771581" lon="108.775720">
        <ele>80.172410</ele>
        <time>2026-08-14T05:59:43.000Z</time>
      </trkpt>
      <trkpt lat="22.771569" lon="108.775778">
        <ele>80.145562</ele>
        <time>2026-08-14T05:59:44.000Z</time>
      </trkpt>
      <trkpt lat="22.771557" lon="108.775835">
        <ele>80.119155</ele>
        <time>2026-08-14T05:59:45.000Z</time>
      </trkpt>
      <trkpt lat="22.771545" lon="108.775892">
        <ele>80.092293</ele>
        <time>2026-08-14T05:59:46.000Z</time>
      </trkpt>
      <trkpt lat="22.771531" lon="108.775949">
        <ele>80.065153</ele>
        <time>2026-08-14T05:59:47.000Z</time>
      </trkpt>
      <trkpt lat="22.771516" lon="108.776008">
        <ele>80.036995</ele>
        <time>2026-08-14T05:59:48.000Z</time>
      </trkpt>
      <trkpt lat="22.771501" lon="108.776066">
        <ele>80.009280</ele>
        <time>2026-08-14T05:59:49.000Z</time>
      </trkpt>
      <trkpt lat="22.771487" lon="108.776123">
        <ele>79.982140</ele>
        <time>2026-08-14T05:59:50.000Z</time>
      </trkpt>
      <trkpt lat="22.771472" lon="108.776181">
        <ele>79.954425</ele>
        <time>2026-08-14T05:59:51.000Z</time>
      </trkpt>
      <trkpt lat="22.771456" lon="108.776239">
        <ele>79.926571</ele>
        <time>2026-08-14T05:59:52.000Z</time>
      </trkpt>
      <trkpt lat="22.771437" lon="108.776297">
        <ele>79.898252</ele>
        <time>2026-08-14T05:59:53.000Z</time>
      </trkpt>
      <trkpt lat="22.771417" lon="108.776356">
        <ele>79.869330</ele>
        <time>2026-08-14T05:59:54.000Z</time>
      </trkpt>
      <trkpt lat="22.771397" lon="108.776414">
        <ele>79.840840</ele>
        <time>2026-08-14T05:59:55.000Z</time>
      </trkpt>
      <trkpt lat="22.771375" lon="108.776471">
        <ele>79.812410</ele>
        <time>2026-08-14T05:59:56.000Z</time>
      </trkpt>
      <trkpt lat="22.771353" lon="108.776529">
        <ele>79.783555</ele>
        <time>2026-08-14T05:59:57.000Z</time>
      </trkpt>
      <trkpt lat="22.771331" lon="108.776586">
        <ele>79.755125</ele>
        <time>2026-08-14T05:59:58.000Z</time>
      </trkpt>
      <trkpt lat="22.771309" lon="108.776643">
        <ele>79.726695</ele>
        <time>2026-08-14T05:59:59.000Z</time>
      </trkpt>
      <trkpt lat="22.771285" lon="108.776701">
        <ele>79.697446</ele>
        <time>2026-08-14T06:00:00.000Z</time>
      </trkpt>
      <trkpt lat="22.771262" lon="108.776757">
        <ele>79.669240</ele>
        <time>2026-08-14T06:00:01.000Z</time>
      </trkpt>
      <trkpt lat="22.771239" lon="108.776813">
        <ele>79.641035</ele>
        <time>2026-08-14T06:00:02.000Z</time>
      </trkpt>
      <trkpt lat="22.771216" lon="108.776869">
        <ele>79.612829</ele>
        <time>2026-08-14T06:00:03.000Z</time>
      </trkpt>
      <trkpt lat="22.771192" lon="108.776926">
        <ele>79.583999</ele>
        <time>2026-08-14T06:00:04.000Z</time>
      </trkpt>
      <trkpt lat="22.771169" lon="108.776982">
        <ele>79.555793</ele>
        <time>2026-08-14T06:00:05.000Z</time>
      </trkpt>
      <trkpt lat="22.771145" lon="108.777039">
        <ele>79.526963</ele>
        <time>2026-08-14T06:00:06.000Z</time>
      </trkpt>
      <trkpt lat="22.771121" lon="108.777094">
        <ele>79.498968</ele>
        <time>2026-08-14T06:00:07.000Z</time>
      </trkpt>
      <trkpt lat="22.771096" lon="108.777149">
        <ele>79.470755</ele>
        <time>2026-08-14T06:00:08.000Z</time>
      </trkpt>
      <trkpt lat="22.771073" lon="108.777206">
        <ele>79.442128</ele>
        <time>2026-08-14T06:00:09.000Z</time>
      </trkpt>
      <trkpt lat="22.771051" lon="108.777262">
        <ele>79.414122</ele>
        <time>2026-08-14T06:00:10.000Z</time>
      </trkpt>
      <trkpt lat="22.771028" lon="108.777319">
        <ele>79.385496</ele>
        <time>2026-08-14T06:00:11.000Z</time>
      </trkpt>
      <trkpt lat="22.771006" lon="108.777374">
        <ele>79.357912</ele>
        <time>2026-08-14T06:00:12.000Z</time>
      </trkpt>
      <trkpt lat="22.770984" lon="108.777430">
        <ele>79.329906</ele>
        <time>2026-08-14T06:00:13.000Z</time>
      </trkpt>
      <trkpt lat="22.770961" lon="108.777487">
        <ele>79.301279</ele>
        <time>2026-08-14T06:00:14.000Z</time>
      </trkpt>
      <trkpt lat="22.770939" lon="108.777545">
        <ele>79.272424</ele>
        <time>2026-08-14T06:00:15.000Z</time>
      </trkpt>
      <trkpt lat="22.770917" lon="108.777603">
        <ele>79.243569</ele>
        <time>2026-08-14T06:00:16.000Z</time>
      </trkpt>
      <trkpt lat="22.770897" lon="108.777663">
        <ele>79.210387</ele>
        <time>2026-08-14T06:00:17.000Z</time>
      </trkpt>
      <trkpt lat="22.770878" lon="108.777722">
        <ele>79.161200</ele>
        <time>2026-08-14T06:00:18.000Z</time>
      </trkpt>
      <trkpt lat="22.770859" lon="108.777782">
        <ele>79.111270</ele>
        <time>2026-08-14T06:00:19.000Z</time>
      </trkpt>
      <trkpt lat="22.770842" lon="108.777844">
        <ele>79.060362</ele>
        <time>2026-08-14T06:00:20.000Z</time>
      </trkpt>
      <trkpt lat="22.770825" lon="108.777906">
        <ele>79.009453</ele>
        <time>2026-08-14T06:00:21.000Z</time>
      </trkpt>
      <trkpt lat="22.770807" lon="108.777968">
        <ele>78.958294</ele>
        <time>2026-08-14T06:00:22.000Z</time>
      </trkpt>
      <trkpt lat="22.770790" lon="108.778031">
        <ele>78.906631</ele>
        <time>2026-08-14T06:00:23.000Z</time>
      </trkpt>
      <trkpt lat="22.770774" lon="108.778095">
        <ele>78.854441</ele>
        <time>2026-08-14T06:00:24.000Z</time>
      </trkpt>
      <trkpt lat="22.770759" lon="108.778160">
        <ele>78.801705</ele>
        <time>2026-08-14T06:00:25.000Z</time>
      </trkpt>
      <trkpt lat="22.770744" lon="108.778225">
        <ele>78.748969</ele>
        <time>2026-08-14T06:00:26.000Z</time>
      </trkpt>
      <trkpt lat="22.770731" lon="108.778293">
        <ele>78.694312</ele>
        <time>2026-08-14T06:00:27.000Z</time>
      </trkpt>
      <trkpt lat="22.770718" lon="108.778360">
        <ele>78.640425</ele>
        <time>2026-08-14T06:00:28.000Z</time>
      </trkpt>
      <trkpt lat="22.770706" lon="108.778427">
        <ele>78.586707</ele>
        <time>2026-08-14T06:00:29.000Z</time>
      </trkpt>
      <trkpt lat="22.770696" lon="108.778495">
        <ele>78.532512</ele>
        <time>2026-08-14T06:00:30.000Z</time>
      </trkpt>
      <trkpt lat="22.770688" lon="108.778565">
        <ele>78.476997</ele>
        <time>2026-08-14T06:00:31.000Z</time>
      </trkpt>
      <trkpt lat="22.770680" lon="108.778634">
        <ele>78.422263</ele>
        <time>2026-08-14T06:00:32.000Z</time>
      </trkpt>
      <trkpt lat="22.770671" lon="108.778703">
        <ele>78.367416</ele>
        <time>2026-08-14T06:00:33.000Z</time>
      </trkpt>
      <trkpt lat="22.770664" lon="108.778771">
        <ele>78.313564</ele>
        <time>2026-08-14T06:00:34.000Z</time>
      </trkpt>
      <trkpt lat="22.770660" lon="108.778839">
        <ele>78.259936</ele>
        <time>2026-08-14T06:00:35.000Z</time>
      </trkpt>
      <trkpt lat="22.770656" lon="108.778907">
        <ele>78.206308</ele>
        <time>2026-08-14T06:00:36.000Z</time>
      </trkpt>
      <trkpt lat="22.770653" lon="108.778977">
        <ele>78.151155</ele>
        <time>2026-08-14T06:00:37.000Z</time>
      </trkpt>
      <trkpt lat="22.770651" lon="108.779047">
        <ele>78.096035</ele>
        <time>2026-08-14T06:00:38.000Z</time>
      </trkpt>
      <trkpt lat="22.770648" lon="108.779117">
        <ele>78.040883</ele>
        <time>2026-08-14T06:00:39.000Z</time>
      </trkpt>
      <trkpt lat="22.770647" lon="108.779188">
        <ele>77.984996</ele>
        <time>2026-08-14T06:00:40.000Z</time>
      </trkpt>
      <trkpt lat="22.770646" lon="108.779258">
        <ele>77.929896</ele>
        <time>2026-08-14T06:00:41.000Z</time>
      </trkpt>
      <trkpt lat="22.770645" lon="108.779329">
        <ele>77.874009</ele>
        <time>2026-08-14T06:00:42.000Z</time>
      </trkpt>
      <trkpt lat="22.770644" lon="108.779398">
        <ele>77.819696</ele>
        <time>2026-08-14T06:00:43.000Z</time>
      </trkpt>
      <trkpt lat="22.770643" lon="108.779469">
        <ele>77.763809</ele>
        <time>2026-08-14T06:00:44.000Z</time>
      </trkpt>
      <trkpt lat="22.770643" lon="108.779541">
        <ele>77.707142</ele>
        <time>2026-08-14T06:00:45.000Z</time>
      </trkpt>
      <trkpt lat="22.770643" lon="108.779611">
        <ele>77.659060</ele>
        <time>2026-08-14T06:00:46.000Z</time>
      </trkpt>
      <trkpt lat="22.770643" lon="108.779682">
        <ele>77.615317</ele>
        <time>2026-08-14T06:00:47.000Z</time>
      </trkpt>
      <trkpt lat="22.770643" lon="108.779754">
        <ele>77.570958</ele>
        <time>2026-08-14T06:00:48.000Z</time>
      </trkpt>
      <trkpt lat="22.770643" lon="108.779826">
        <ele>77.526600</ele>
        <time>2026-08-14T06:00:49.000Z</time>
      </trkpt>
      <trkpt lat="22.770643" lon="108.779898">
        <ele>77.482241</ele>
        <time>2026-08-14T06:00:50.000Z</time>
      </trkpt>
      <trkpt lat="22.770640" lon="108.779970">
        <ele>77.437837</ele>
        <time>2026-08-14T06:00:51.000Z</time>
      </trkpt>
      <trkpt lat="22.770637" lon="108.780043">
        <ele>77.392818</ele>
        <time>2026-08-14T06:00:52.000Z</time>
      </trkpt>
      <trkpt lat="22.770635" lon="108.780115">
        <ele>77.348439</ele>
        <time>2026-08-14T06:00:53.000Z</time>
      </trkpt>
      <trkpt lat="22.770634" lon="108.780187">
        <ele>77.304075</ele>
        <time>2026-08-14T06:00:54.000Z</time>
      </trkpt>
      <trkpt lat="22.770635" lon="108.780260">
        <ele>77.259095</ele>
        <time>2026-08-14T06:00:55.000Z</time>
      </trkpt>
      <trkpt lat="22.770634" lon="108.780334">
        <ele>77.213499</ele>
        <time>2026-08-14T06:00:56.000Z</time>
      </trkpt>
      <trkpt lat="22.770633" lon="108.780407">
        <ele>77.168520</ele>
        <time>2026-08-14T06:00:57.000Z</time>
      </trkpt>
      <trkpt lat="22.770632" lon="108.780479">
        <ele>77.124156</ele>
        <time>2026-08-14T06:00:58.000Z</time>
      </trkpt>
      <trkpt lat="22.770633" lon="108.780552">
        <ele>77.079176</ele>
        <time>2026-08-14T06:00:59.000Z</time>
      </trkpt>
      <trkpt lat="22.770632" lon="108.780624">
        <ele>77.034812</ele>
        <time>2026-08-14T06:01:00.000Z</time>
      </trkpt>
      <trkpt lat="22.770632" lon="108.780695">
        <ele>76.991070</ele>
        <time>2026-08-14T06:01:01.000Z</time>
      </trkpt>
      <trkpt lat="22.770633" lon="108.780766">
        <ele>76.947322</ele>
        <time>2026-08-14T06:01:02.000Z</time>
      </trkpt>
      <trkpt lat="22.770634" lon="108.780838">
        <ele>76.902958</ele>
        <time>2026-08-14T06:01:03.000Z</time>
      </trkpt>
      <trkpt lat="22.770632" lon="108.780910">
        <ele>76.858579</ele>
        <time>2026-08-14T06:01:04.000Z</time>
      </trkpt>
      <trkpt lat="22.770631" lon="108.780983">
        <ele>76.813600</ele>
        <time>2026-08-14T06:01:05.000Z</time>
      </trkpt>
      <trkpt lat="22.770632" lon="108.781056">
        <ele>76.768620</ele>
        <time>2026-08-14T06:01:06.000Z</time>
      </trkpt>
      <trkpt lat="22.770632" lon="108.781128">
        <ele>76.724261</ele>
        <time>2026-08-14T06:01:07.000Z</time>
      </trkpt>
      <trkpt lat="22.770632" lon="108.781201">
        <ele>76.679286</ele>
        <time>2026-08-14T06:01:08.000Z</time>
      </trkpt>
      <trkpt lat="22.770633" lon="108.781274">
        <ele>76.634307</ele>
        <time>2026-08-14T06:01:09.000Z</time>
      </trkpt>
      <trkpt lat="22.770632" lon="108.781347">
        <ele>76.589327</ele>
        <time>2026-08-14T06:01:10.000Z</time>
      </trkpt>
      <trkpt lat="22.770631" lon="108.781421">
        <ele>76.543731</ele>
        <time>2026-08-14T06:01:11.000Z</time>
      </trkpt>
      <trkpt lat="22.770630" lon="108.781494">
        <ele>76.498751</ele>
        <time>2026-08-14T06:01:12.000Z</time>
      </trkpt>
      <trkpt lat="22.770630" lon="108.781567">
        <ele>76.499029</ele>
        <time>2026-08-14T06:01:13.000Z</time>
      </trkpt>
      <trkpt lat="22.770632" lon="108.781640">
        <ele>76.524849</ele>
        <time>2026-08-14T06:01:14.000Z</time>
      </trkpt>
      <trkpt lat="22.770634" lon="108.781713">
        <ele>76.550668</ele>
        <time>2026-08-14T06:01:15.000Z</time>
      </trkpt>
      <trkpt lat="22.770635" lon="108.781787">
        <ele>76.576832</ele>
        <time>2026-08-14T06:01:16.000Z</time>
      </trkpt>
      <trkpt lat="22.770636" lon="108.781861">
        <ele>76.602996</ele>
        <time>2026-08-14T06:01:17.000Z</time>
      </trkpt>
      <trkpt lat="22.770638" lon="108.781934">
        <ele>76.628816</ele>
        <time>2026-08-14T06:01:18.000Z</time>
      </trkpt>
      <trkpt lat="22.770636" lon="108.782006">
        <ele>76.654282</ele>
        <time>2026-08-14T06:01:19.000Z</time>
      </trkpt>
      <trkpt lat="22.770633" lon="108.782078">
        <ele>76.679762</ele>
        <time>2026-08-14T06:01:20.000Z</time>
      </trkpt>
      <trkpt lat="22.770631" lon="108.782151">
        <ele>76.705581</ele>
        <time>2026-08-14T06:01:21.000Z</time>
      </trkpt>
      <trkpt lat="22.770631" lon="108.782223">
        <ele>76.731035</ele>
        <time>2026-08-14T06:01:22.000Z</time>
      </trkpt>
      <trkpt lat="22.770630" lon="108.782295">
        <ele>76.756493</ele>
        <time>2026-08-14T06:01:23.000Z</time>
      </trkpt>
      <trkpt lat="22.770631" lon="108.782367">
        <ele>76.781950</ele>
        <time>2026-08-14T06:01:24.000Z</time>
      </trkpt>
      <trkpt lat="22.770631" lon="108.782440">
        <ele>76.807758</ele>
        <time>2026-08-14T06:01:25.000Z</time>
      </trkpt>
      <trkpt lat="22.770630" lon="108.782510">
        <ele>76.832508</ele>
        <time>2026-08-14T06:01:26.000Z</time>
      </trkpt>
      <trkpt lat="22.770627" lon="108.782581">
        <ele>76.857635</ele>
        <time>2026-08-14T06:01:27.000Z</time>
      </trkpt>
      <trkpt lat="22.770625" lon="108.782650">
        <ele>76.882041</ele>
        <time>2026-08-14T06:01:28.000Z</time>
      </trkpt>
      <trkpt lat="22.770624" lon="108.782720">
        <ele>76.906791</ele>
        <time>2026-08-14T06:01:29.000Z</time>
      </trkpt>
      <trkpt lat="22.770624" lon="108.782788">
        <ele>76.930832</ele>
        <time>2026-08-14T06:01:30.000Z</time>
      </trkpt>
      <trkpt lat="22.770623" lon="108.782855">
        <ele>76.954521</ele>
        <time>2026-08-14T06:01:31.000Z</time>
      </trkpt>
      <trkpt lat="22.770622" lon="108.782921">
        <ele>76.977858</ele>
        <time>2026-08-14T06:01:32.000Z</time>
      </trkpt>
      <trkpt lat="22.770620" lon="108.782987">
        <ele>77.001204</ele>
        <time>2026-08-14T06:01:33.000Z</time>
      </trkpt>
      <trkpt lat="22.770620" lon="108.783050">
        <ele>77.023476</ele>
        <time>2026-08-14T06:01:34.000Z</time>
      </trkpt>
      <trkpt lat="22.770619" lon="108.783113">
        <ele>77.045752</ele>
        <time>2026-08-14T06:01:35.000Z</time>
      </trkpt>
      <trkpt lat="22.770619" lon="108.783177">
        <ele>77.068378</ele>
        <time>2026-08-14T06:01:36.000Z</time>
      </trkpt>
      <trkpt lat="22.770617" lon="108.783238">
        <ele>77.089957</ele>
        <time>2026-08-14T06:01:37.000Z</time>
      </trkpt>
      <trkpt lat="22.770616" lon="108.783297">
        <ele>77.110819</ele>
        <time>2026-08-14T06:01:38.000Z</time>
      </trkpt>
      <trkpt lat="22.770617" lon="108.783355">
        <ele>77.131328</ele>
        <time>2026-08-14T06:01:39.000Z</time>
      </trkpt>
      <trkpt lat="22.770618" lon="108.783412">
        <ele>77.151483</ele>
        <time>2026-08-14T06:01:40.000Z</time>
      </trkpt>
      <trkpt lat="22.770618" lon="108.783468">
        <ele>77.171281</ele>
        <time>2026-08-14T06:01:41.000Z</time>
      </trkpt>
      <trkpt lat="22.770618" lon="108.783523">
        <ele>77.151700</ele>
        <time>2026-08-14T06:01:42.000Z</time>
      </trkpt>
      <trkpt lat="22.770619" lon="108.783578">
        <ele>77.130271</ele>
        <time>2026-08-14T06:01:43.000Z</time>
      </trkpt>
      <trkpt lat="22.770618" lon="108.783631">
        <ele>77.109621</ele>
        <time>2026-08-14T06:01:44.000Z</time>
      </trkpt>
      <trkpt lat="22.770616" lon="108.783684">
        <ele>77.088958</ele>
        <time>2026-08-14T06:01:45.000Z</time>
      </trkpt>
      <trkpt lat="22.770613" lon="108.783734">
        <ele>77.069440</ele>
        <time>2026-08-14T06:01:46.000Z</time>
      </trkpt>
      <trkpt lat="22.770605" lon="108.783784">
        <ele>77.049673</ele>
        <time>2026-08-14T06:01:47.000Z</time>
      </trkpt>
      <trkpt lat="22.770590" lon="108.783831">
        <ele>77.030299</ele>
        <time>2026-08-14T06:01:48.000Z</time>
      </trkpt>
      <trkpt lat="22.770572" lon="108.783874">
        <ele>77.011903</ele>
        <time>2026-08-14T06:01:49.000Z</time>
      </trkpt>
      <trkpt lat="22.770552" lon="108.783916">
        <ele>76.993490</ele>
        <time>2026-08-14T06:01:50.000Z</time>
      </trkpt>
      <trkpt lat="22.770531" lon="108.783956">
        <ele>76.975560</ele>
        <time>2026-08-14T06:01:51.000Z</time>
      </trkpt>
      <trkpt lat="22.770520" lon="108.784003">
        <ele>76.956671</ele>
        <time>2026-08-14T06:01:52.000Z</time>
      </trkpt>
      <trkpt lat="22.770504" lon="108.784052">
        <ele>76.936422</ele>
        <time>2026-08-14T06:01:53.000Z</time>
      </trkpt>
      <trkpt lat="22.770485" lon="108.784105">
        <ele>76.914271</ele>
        <time>2026-08-14T06:01:54.000Z</time>
      </trkpt>
      <trkpt lat="22.770461" lon="108.784162">
        <ele>76.889862</ele>
        <time>2026-08-14T06:01:55.000Z</time>
      </trkpt>
      <trkpt lat="22.770435" lon="108.784225">
        <ele>76.862975</ele>
        <time>2026-08-14T06:01:56.000Z</time>
      </trkpt>
      <trkpt lat="22.770409" lon="108.784295">
        <ele>76.833579</ele>
        <time>2026-08-14T06:01:57.000Z</time>
      </trkpt>
      <trkpt lat="22.770380" lon="108.784370">
        <ele>76.801898</ele>
        <time>2026-08-14T06:01:58.000Z</time>
      </trkpt>
      <trkpt lat="22.770351" lon="108.784444">
        <ele>76.770577</ele>
        <time>2026-08-14T06:01:59.000Z</time>
      </trkpt>
      <trkpt lat="22.770323" lon="108.784518">
        <ele>76.739419</ele>
        <time>2026-08-14T06:02:00.000Z</time>
      </trkpt>
      <trkpt lat="22.770295" lon="108.784593">
        <ele>76.707900</ele>
        <time>2026-08-14T06:02:01.000Z</time>
      </trkpt>
      <trkpt lat="22.770265" lon="108.784671">
        <ele>76.674978</ele>
        <time>2026-08-14T06:02:02.000Z</time>
      </trkpt>
      <trkpt lat="22.770235" lon="108.784747">
        <ele>76.642775</ele>
        <time>2026-08-14T06:02:03.000Z</time>
      </trkpt>
      <trkpt lat="22.770205" lon="108.784822">
        <ele>76.610929</ele>
        <time>2026-08-14T06:02:04.000Z</time>
      </trkpt>
      <trkpt lat="22.770176" lon="108.784892">
        <ele>76.581035</ele>
        <time>2026-08-14T06:02:05.000Z</time>
      </trkpt>
      <trkpt lat="22.770149" lon="108.784958">
        <ele>76.552909</ele>
        <time>2026-08-14T06:02:06.000Z</time>
      </trkpt>
      <trkpt lat="22.770124" lon="108.785018">
        <ele>76.527261</ele>
        <time>2026-08-14T06:02:07.000Z</time>
      </trkpt>
      <trkpt lat="22.770102" lon="108.785071">
        <ele>76.504620</ele>
        <time>2026-08-14T06:02:08.000Z</time>
      </trkpt>
      <trkpt lat="22.770083" lon="108.785119">
        <ele>76.484272</ele>
        <time>2026-08-14T06:02:09.000Z</time>
      </trkpt>
      <trkpt lat="22.770066" lon="108.785164">
        <ele>76.465329</ele>
        <time>2026-08-14T06:02:10.000Z</time>
      </trkpt>
      <trkpt lat="22.770051" lon="108.785203">
        <ele>76.448868</ele>
        <time>2026-08-14T06:02:11.000Z</time>
      </trkpt>
      <trkpt lat="22.770034" lon="108.785243">
        <ele>76.431711</ele>
        <time>2026-08-14T06:02:12.000Z</time>
      </trkpt>
      <trkpt lat="22.770016" lon="108.785284">
        <ele>76.414022</ele>
        <time>2026-08-14T06:02:13.000Z</time>
      </trkpt>
      <trkpt lat="22.770000" lon="108.785325">
        <ele>76.455530</ele>
        <time>2026-08-14T06:02:14.000Z</time>
      </trkpt>
      <trkpt lat="22.769983" lon="108.785365">
        <ele>76.503018</ele>
        <time>2026-08-14T06:02:15.000Z</time>
      </trkpt>
      <trkpt lat="22.769966" lon="108.785406">
        <ele>76.551487</ele>
        <time>2026-08-14T06:02:16.000Z</time>
      </trkpt>
      <trkpt lat="22.769949" lon="108.785447">
        <ele>76.599956</ele>
        <time>2026-08-14T06:02:17.000Z</time>
      </trkpt>
      <trkpt lat="22.769932" lon="108.785490">
        <ele>76.650400</ele>
        <time>2026-08-14T06:02:18.000Z</time>
      </trkpt>
      <trkpt lat="22.769913" lon="108.785535">
        <ele>76.703763</ele>
        <time>2026-08-14T06:02:19.000Z</time>
      </trkpt>
      <trkpt lat="22.769895" lon="108.785581">
        <ele>76.757640</ele>
        <time>2026-08-14T06:02:20.000Z</time>
      </trkpt>
      <trkpt lat="22.769876" lon="108.785629">
        <ele>76.813960</ele>
        <time>2026-08-14T06:02:21.000Z</time>
      </trkpt>
      <trkpt lat="22.769856" lon="108.785678">
        <ele>76.871736</ele>
        <time>2026-08-14T06:02:22.000Z</time>
      </trkpt>
      <trkpt lat="22.769836" lon="108.785728">
        <ele>76.930499</ele>
        <time>2026-08-14T06:02:23.000Z</time>
      </trkpt>
      <trkpt lat="22.769816" lon="108.785777">
        <ele>76.988275</ele>
        <time>2026-08-14T06:02:24.000Z</time>
      </trkpt>
      <trkpt lat="22.769796" lon="108.785827">
        <ele>77.047038</ele>
        <time>2026-08-14T06:02:25.000Z</time>
      </trkpt>
      <trkpt lat="22.769776" lon="108.785879">
        <ele>77.107785</ele>
        <time>2026-08-14T06:02:26.000Z</time>
      </trkpt>
      <trkpt lat="22.769755" lon="108.785932">
        <ele>77.169982</ele>
        <time>2026-08-14T06:02:27.000Z</time>
      </trkpt>
      <trkpt lat="22.769734" lon="108.785985">
        <ele>77.232178</ele>
        <time>2026-08-14T06:02:28.000Z</time>
      </trkpt>
      <trkpt lat="22.769712" lon="108.786040">
        <ele>77.296817</ele>
        <time>2026-08-14T06:02:29.000Z</time>
      </trkpt>
      <trkpt lat="22.769690" lon="108.786094">
        <ele>77.360469</ele>
        <time>2026-08-14T06:02:30.000Z</time>
      </trkpt>
      <trkpt lat="22.769668" lon="108.786148">
        <ele>77.424121</ele>
        <time>2026-08-14T06:02:31.000Z</time>
      </trkpt>
      <trkpt lat="22.769647" lon="108.786203">
        <ele>77.488304</ele>
        <time>2026-08-14T06:02:32.000Z</time>
      </trkpt>
      <trkpt lat="22.769623" lon="108.786257">
        <ele>77.552937</ele>
        <time>2026-08-14T06:02:33.000Z</time>
      </trkpt>
      <trkpt lat="22.769598" lon="108.786310">
        <ele>77.617124</ele>
        <time>2026-08-14T06:02:34.000Z</time>
      </trkpt>
      <trkpt lat="22.769573" lon="108.786362">
        <ele>77.680353</ele>
        <time>2026-08-14T06:02:35.000Z</time>
      </trkpt>
      <trkpt lat="22.769552" lon="108.786413">
        <ele>77.740574</ele>
        <time>2026-08-14T06:02:36.000Z</time>
      </trkpt>
      <trkpt lat="22.769533" lon="108.786461">
        <ele>77.796894</ele>
        <time>2026-08-14T06:02:37.000Z</time>
      </trkpt>
      <trkpt lat="22.769517" lon="108.786505">
        <ele>77.847890</ele>
        <time>2026-08-14T06:02:38.000Z</time>
      </trkpt>
      <trkpt lat="22.769501" lon="108.786548">
        <ele>77.897885</ele>
        <time>2026-08-14T06:02:39.000Z</time>
      </trkpt>
      <trkpt lat="22.769485" lon="108.786585">
        <ele>77.941947</ele>
        <time>2026-08-14T06:02:40.000Z</time>
      </trkpt>
      <trkpt lat="22.769469" lon="108.786620">
        <ele>77.984066</ele>
        <time>2026-08-14T06:02:41.000Z</time>
      </trkpt>
      <trkpt lat="22.769452" lon="108.786653">
        <ele>78.024823</ele>
        <time>2026-08-14T06:02:42.000Z</time>
      </trkpt>
      <trkpt lat="22.769437" lon="108.786686">
        <ele>78.064491</ele>
        <time>2026-08-14T06:02:43.000Z</time>
      </trkpt>
      <trkpt lat="22.769424" lon="108.786720">
        <ele>78.104176</ele>
        <time>2026-08-14T06:02:44.000Z</time>
      </trkpt>
      <trkpt lat="22.769411" lon="108.786756">
        <ele>78.145861</ele>
        <time>2026-08-14T06:02:45.000Z</time>
      </trkpt>
      <trkpt lat="22.769399" lon="108.786791">
        <ele>78.186122</ele>
        <time>2026-08-14T06:02:46.000Z</time>
      </trkpt>
      <trkpt lat="22.769384" lon="108.786825">
        <ele>78.226760</ele>
        <time>2026-08-14T06:02:47.000Z</time>
      </trkpt>
      <trkpt lat="22.769372" lon="108.786861">
        <ele>78.268034</ele>
        <time>2026-08-14T06:02:48.000Z</time>
      </trkpt>
      <trkpt lat="22.769359" lon="108.786898">
        <ele>78.310725</ele>
        <time>2026-08-14T06:02:49.000Z</time>
      </trkpt>
      <trkpt lat="22.769349" lon="108.786935">
        <ele>78.352296</ele>
        <time>2026-08-14T06:02:50.000Z</time>
      </trkpt>
      <trkpt lat="22.769336" lon="108.786971">
        <ele>78.393981</ele>
        <time>2026-08-14T06:02:51.000Z</time>
      </trkpt>
      <trkpt lat="22.769319" lon="108.787008">
        <ele>78.438552</ele>
        <time>2026-08-14T06:02:52.000Z</time>
      </trkpt>
      <trkpt lat="22.769298" lon="108.787048">
        <ele>78.488180</ele>
        <time>2026-08-14T06:02:53.000Z</time>
      </trkpt>
      <trkpt lat="22.769277" lon="108.787092">
        <ele>78.532466</ele>
        <time>2026-08-14T06:02:54.000Z</time>
      </trkpt>
      <trkpt lat="22.769257" lon="108.787137">
        <ele>78.567499</ele>
        <time>2026-08-14T06:02:55.000Z</time>
      </trkpt>
      <trkpt lat="22.769235" lon="108.787186">
        <ele>78.605720</ele>
        <time>2026-08-14T06:02:56.000Z</time>
      </trkpt>
      <trkpt lat="22.769214" lon="108.787238">
        <ele>78.645532</ele>
        <time>2026-08-14T06:02:57.000Z</time>
      </trkpt>
      <trkpt lat="22.769193" lon="108.787294">
        <ele>78.687929</ele>
        <time>2026-08-14T06:02:58.000Z</time>
      </trkpt>
      <trkpt lat="22.769171" lon="108.787353">
        <ele>78.732561</ele>
        <time>2026-08-14T06:02:59.000Z</time>
      </trkpt>
      <trkpt lat="22.769148" lon="108.787414">
        <ele>78.778779</ele>
        <time>2026-08-14T06:03:00.000Z</time>
      </trkpt>
      <trkpt lat="22.769124" lon="108.787474">
        <ele>78.824645</ele>
        <time>2026-08-14T06:03:01.000Z</time>
      </trkpt>
      <trkpt lat="22.769102" lon="108.787534">
        <ele>78.869928</ele>
        <time>2026-08-14T06:03:02.000Z</time>
      </trkpt>
      <trkpt lat="22.769081" lon="108.787595">
        <ele>78.915592</ele>
        <time>2026-08-14T06:03:03.000Z</time>
      </trkpt>
      <trkpt lat="22.769060" lon="108.787656">
        <ele>78.961256</ele>
        <time>2026-08-14T06:03:04.000Z</time>
      </trkpt>
      <trkpt lat="22.769039" lon="108.787716">
        <ele>79.006264</ele>
        <time>2026-08-14T06:03:05.000Z</time>
      </trkpt>
      <trkpt lat="22.769019" lon="108.787776">
        <ele>79.051007</ele>
        <time>2026-08-14T06:03:06.000Z</time>
      </trkpt>
      <trkpt lat="22.768997" lon="108.787837">
        <ele>79.096942</ele>
        <time>2026-08-14T06:03:07.000Z</time>
      </trkpt>
      <trkpt lat="22.768976" lon="108.787896">
        <ele>79.141295</ele>
        <time>2026-08-14T06:03:08.000Z</time>
      </trkpt>
      <trkpt lat="22.768956" lon="108.787954">
        <ele>79.184722</ele>
        <time>2026-08-14T06:03:09.000Z</time>
      </trkpt>
      <trkpt lat="22.768936" lon="108.788012">
        <ele>79.228149</ele>
        <time>2026-08-14T06:03:10.000Z</time>
      </trkpt>
      <trkpt lat="22.768918" lon="108.788071">
        <ele>79.271732</ele>
        <time>2026-08-14T06:03:11.000Z</time>
      </trkpt>
      <trkpt lat="22.768901" lon="108.788127">
        <ele>79.313078</ele>
        <time>2026-08-14T06:03:12.000Z</time>
      </trkpt>
      <trkpt lat="22.768881" lon="108.788183">
        <ele>79.355194</ele>
        <time>2026-08-14T06:03:13.000Z</time>
      </trkpt>
      <trkpt lat="22.768861" lon="108.788235">
        <ele>79.394707</ele>
        <time>2026-08-14T06:03:14.000Z</time>
      </trkpt>
      <trkpt lat="22.768843" lon="108.788282">
        <ele>79.430399</ele>
        <time>2026-08-14T06:03:15.000Z</time>
      </trkpt>
      <trkpt lat="22.768829" lon="108.788324">
        <ele>79.461719</ele>
        <time>2026-08-14T06:03:16.000Z</time>
      </trkpt>
      <trkpt lat="22.768819" lon="108.788363">
        <ele>79.490108</ele>
        <time>2026-08-14T06:03:17.000Z</time>
      </trkpt>
      <trkpt lat="22.768808" lon="108.788402">
        <ele>79.518709</ele>
        <time>2026-08-14T06:03:18.000Z</time>
      </trkpt>
      <trkpt lat="22.768795" lon="108.788439">
        <ele>79.546478</ele>
        <time>2026-08-14T06:03:19.000Z</time>
      </trkpt>
      <trkpt lat="22.768779" lon="108.788474">
        <ele>79.573874</ele>
        <time>2026-08-14T06:03:20.000Z</time>
      </trkpt>
      <trkpt lat="22.768766" lon="108.788510">
        <ele>79.600988</ele>
        <time>2026-08-14T06:03:21.000Z</time>
      </trkpt>
      <trkpt lat="22.768755" lon="108.788544">
        <ele>79.626258</ele>
        <time>2026-08-14T06:03:22.000Z</time>
      </trkpt>
      <trkpt lat="22.768748" lon="108.788576">
        <ele>79.649322</ele>
        <time>2026-08-14T06:03:23.000Z</time>
      </trkpt>
      <trkpt lat="22.768747" lon="108.788611">
        <ele>79.673880</ele>
        <time>2026-08-14T06:03:24.000Z</time>
      </trkpt>
      <trkpt lat="22.768751" lon="108.788640">
        <ele>79.694444</ele>
        <time>2026-08-14T06:03:25.000Z</time>
      </trkpt>
      <trkpt lat="22.768749" lon="108.788670">
        <ele>79.715538</ele>
        <time>2026-08-14T06:03:26.000Z</time>
      </trkpt>
      <trkpt lat="22.768740" lon="108.788701">
        <ele>79.738331</ele>
        <time>2026-08-14T06:03:27.000Z</time>
      </trkpt>
      <trkpt lat="22.768727" lon="108.788730">
        <ele>79.760945</ele>
        <time>2026-08-14T06:03:28.000Z</time>
      </trkpt>
      <trkpt lat="22.768716" lon="108.788759">
        <ele>79.782936</ele>
        <time>2026-08-14T06:03:29.000Z</time>
      </trkpt>
      <trkpt lat="22.768706" lon="108.788789">
        <ele>79.805308</ele>
        <time>2026-08-14T06:03:30.000Z</time>
      </trkpt>
      <trkpt lat="22.768698" lon="108.788821">
        <ele>79.828560</ele>
        <time>2026-08-14T06:03:31.000Z</time>
      </trkpt>
      <trkpt lat="22.768690" lon="108.788853">
        <ele>79.851812</ele>
        <time>2026-08-14T06:03:32.000Z</time>
      </trkpt>
      <trkpt lat="22.768687" lon="108.788888">
        <ele>79.876463</ele>
        <time>2026-08-14T06:03:33.000Z</time>
      </trkpt>
      <trkpt lat="22.768679" lon="108.788926">
        <ele>79.821203</ele>
        <time>2026-08-14T06:03:34.000Z</time>
      </trkpt>
      <trkpt lat="22.768672" lon="108.788961">
        <ele>79.744275</ele>
        <time>2026-08-14T06:03:35.000Z</time>
      </trkpt>
      <trkpt lat="22.768662" lon="108.788999">
        <ele>79.659392</ele>
        <time>2026-08-14T06:03:36.000Z</time>
      </trkpt>
      <trkpt lat="22.768653" lon="108.789039">
        <ele>79.570951</ele>
        <time>2026-08-14T06:03:37.000Z</time>
      </trkpt>
      <trkpt lat="22.768645" lon="108.789081">
        <ele>79.478830</ele>
        <time>2026-08-14T06:03:38.000Z</time>
      </trkpt>
      <trkpt lat="22.768639" lon="108.789128">
        <ele>79.376911</ele>
        <time>2026-08-14T06:03:39.000Z</time>
      </trkpt>
      <trkpt lat="22.768638" lon="108.789177">
        <ele>79.271633</ele>
        <time>2026-08-14T06:03:40.000Z</time>
      </trkpt>
      <trkpt lat="22.768638" lon="108.789228">
        <ele>79.162085</ele>
        <time>2026-08-14T06:03:41.000Z</time>
      </trkpt>
      <trkpt lat="22.768639" lon="108.789282">
        <ele>79.046069</ele>
        <time>2026-08-14T06:03:42.000Z</time>
      </trkpt>
      <trkpt lat="22.768642" lon="108.789340">
        <ele>78.921289</ele>
        <time>2026-08-14T06:03:43.000Z</time>
      </trkpt>
      <trkpt lat="22.768647" lon="108.789401">
        <ele>78.789745</ele>
        <time>2026-08-14T06:03:44.000Z</time>
      </trkpt>
      <trkpt lat="22.768655" lon="108.789464">
        <ele>78.653143</ele>
        <time>2026-08-14T06:03:45.000Z</time>
      </trkpt>
      <trkpt lat="22.768665" lon="108.789528">
        <ele>78.513711</ele>
        <time>2026-08-14T06:03:46.000Z</time>
      </trkpt>
      <trkpt lat="22.768677" lon="108.789593">
        <ele>78.371320</ele>
        <time>2026-08-14T06:03:47.000Z</time>
      </trkpt>
      <trkpt lat="22.768690" lon="108.789660">
        <ele>78.224252</ele>
        <time>2026-08-14T06:03:48.000Z</time>
      </trkpt>
      <trkpt lat="22.768705" lon="108.789727">
        <ele>78.076155</ele>
        <time>2026-08-14T06:03:49.000Z</time>
      </trkpt>
      <trkpt lat="22.768723" lon="108.789795">
        <ele>77.924191</ele>
        <time>2026-08-14T06:03:50.000Z</time>
      </trkpt>
      <trkpt lat="22.768741" lon="108.789865">
        <ele>77.768094</ele>
        <time>2026-08-14T06:03:51.000Z</time>
      </trkpt>
      <trkpt lat="22.768761" lon="108.789934">
        <ele>77.612731</ele>
        <time>2026-08-14T06:03:52.000Z</time>
      </trkpt>
      <trkpt lat="22.768782" lon="108.790003">
        <ele>77.456654</ele>
        <time>2026-08-14T06:03:53.000Z</time>
      </trkpt>
      <trkpt lat="22.768805" lon="108.790075">
        <ele>77.292980</ele>
        <time>2026-08-14T06:03:54.000Z</time>
      </trkpt>
      <trkpt lat="22.768824" lon="108.790145">
        <ele>77.136241</ele>
        <time>2026-08-14T06:03:55.000Z</time>
      </trkpt>
      <trkpt lat="22.768846" lon="108.790213">
        <ele>76.981447</ele>
        <time>2026-08-14T06:03:56.000Z</time>
      </trkpt>
      <trkpt lat="22.768869" lon="108.790282">
        <ele>76.823848</ele>
        <time>2026-08-14T06:03:57.000Z</time>
      </trkpt>
      <trkpt lat="22.768895" lon="108.790350">
        <ele>76.665724</ele>
        <time>2026-08-14T06:03:58.000Z</time>
      </trkpt>
      <trkpt lat="22.768923" lon="108.790416">
        <ele>76.509671</ele>
        <time>2026-08-14T06:03:59.000Z</time>
      </trkpt>
      <trkpt lat="22.768950" lon="108.790481">
        <ele>76.356538</ele>
        <time>2026-08-14T06:04:00.000Z</time>
      </trkpt>
      <trkpt lat="22.768977" lon="108.790544">
        <ele>76.207311</ele>
        <time>2026-08-14T06:04:01.000Z</time>
      </trkpt>
      <trkpt lat="22.769006" lon="108.790604">
        <ele>76.061798</ele>
        <time>2026-08-14T06:04:02.000Z</time>
      </trkpt>
      <trkpt lat="22.769034" lon="108.790660">
        <ele>75.924964</ele>
        <time>2026-08-14T06:04:03.000Z</time>
      </trkpt>
      <trkpt lat="22.769060" lon="108.790714">
        <ele>75.794111</ele>
        <time>2026-08-14T06:04:04.000Z</time>
      </trkpt>
      <trkpt lat="22.769083" lon="108.790769">
        <ele>75.690855</ele>
        <time>2026-08-14T06:04:05.000Z</time>
      </trkpt>
      <trkpt lat="22.769105" lon="108.790825">
        <ele>75.679079</ele>
        <time>2026-08-14T06:04:06.000Z</time>
      </trkpt>
      <trkpt lat="22.769124" lon="108.790880">
        <ele>75.667716</ele>
        <time>2026-08-14T06:04:07.000Z</time>
      </trkpt>
      <trkpt lat="22.769144" lon="108.790936">
        <ele>75.656098</ele>
        <time>2026-08-14T06:04:08.000Z</time>
      </trkpt>
      <trkpt lat="22.769164" lon="108.790994">
        <ele>75.644118</ele>
        <time>2026-08-14T06:04:09.000Z</time>
      </trkpt>
      <trkpt lat="22.769181" lon="108.791055">
        <ele>75.631790</ele>
        <time>2026-08-14T06:04:10.000Z</time>
      </trkpt>
      <trkpt lat="22.769184" lon="108.791115">
        <ele>75.620165</ele>
        <time>2026-08-14T06:04:11.000Z</time>
      </trkpt>
      <trkpt lat="22.769182" lon="108.791175">
        <ele>75.608550</ele>
        <time>2026-08-14T06:04:12.000Z</time>
      </trkpt>
      <trkpt lat="22.769178" lon="108.791235">
        <ele>75.596912</ele>
        <time>2026-08-14T06:04:13.000Z</time>
      </trkpt>
      <trkpt lat="22.769173" lon="108.791296">
        <ele>75.585064</ele>
        <time>2026-08-14T06:04:14.000Z</time>
      </trkpt>
      <trkpt lat="22.769170" lon="108.791356">
        <ele>75.573440</ele>
        <time>2026-08-14T06:04:15.000Z</time>
      </trkpt>
      <trkpt lat="22.769167" lon="108.791416">
        <ele>75.561815</ele>
        <time>2026-08-14T06:04:16.000Z</time>
      </trkpt>
      <trkpt lat="22.769164" lon="108.791475">
        <ele>75.550383</ele>
        <time>2026-08-14T06:04:17.000Z</time>
      </trkpt>
      <trkpt lat="22.769165" lon="108.791524">
        <ele>75.540901</ele>
        <time>2026-08-14T06:04:18.000Z</time>
      </trkpt>
      <trkpt lat="22.769168" lon="108.791559">
        <ele>75.534101</ele>
        <time>2026-08-14T06:04:19.000Z</time>
      </trkpt>
      <trkpt lat="22.769168" lon="108.791580">
        <ele>75.530038</ele>
        <time>2026-08-14T06:04:20.000Z</time>
      </trkpt>
      <trkpt lat="22.769166" lon="108.791589">
        <ele>75.528247</ele>
        <time>2026-08-14T06:04:21.000Z</time>
      </trkpt>
      <trkpt lat="22.769162" lon="108.791584">
        <ele>75.526967</ele>
        <time>2026-08-14T06:04:22.000Z</time>
      </trkpt>
      <trkpt lat="22.769161" lon="108.791577">
        <ele>75.525596</ele>
        <time>2026-08-14T06:04:25.000Z</time>
      </trkpt>
      <trkpt lat="22.769158" lon="108.791575">
        <ele>75.524858</ele>
        <time>2026-08-14T06:04:26.000Z</time>
      </trkpt>
      <trkpt lat="22.769126" lon="108.791553">
        <ele>75.516908</ele>
        <time>2026-08-14T06:17:08.000Z</time>
      </trkpt>
      <trkpt lat="22.769125" lon="108.791570">
        <ele>75.513613</ele>
        <time>2026-08-14T06:17:09.000Z</time>
      </trkpt>
      <trkpt lat="22.769124" lon="108.791589">
        <ele>75.509931</ele>
        <time>2026-08-14T06:17:10.000Z</time>
      </trkpt>
      <trkpt lat="22.769125" lon="108.791612">
        <ele>75.505476</ele>
        <time>2026-08-14T06:17:11.000Z</time>
      </trkpt>
      <trkpt lat="22.769126" lon="108.791635">
        <ele>75.501022</ele>
        <time>2026-08-14T06:17:12.000Z</time>
      </trkpt>
      <trkpt lat="22.769127" lon="108.791660">
        <ele>75.496181</ele>
        <time>2026-08-14T06:17:13.000Z</time>
      </trkpt>
      <trkpt lat="22.769123" lon="108.791686">
        <ele>75.491081</ele>
        <time>2026-08-14T06:17:14.000Z</time>
      </trkpt>
      <trkpt lat="22.769118" lon="108.791712">
        <ele>75.485943</ele>
        <time>2026-08-14T06:17:15.000Z</time>
      </trkpt>
      <trkpt lat="22.769111" lon="108.791736">
        <ele>75.481073</ele>
        <time>2026-08-14T06:17:16.000Z</time>
      </trkpt>
      <trkpt lat="22.769108" lon="108.791762">
        <ele>75.476004</ele>
        <time>2026-08-14T06:17:17.000Z</time>
      </trkpt>
      <trkpt lat="22.769107" lon="108.791789">
        <ele>75.470776</ele>
        <time>2026-08-14T06:17:18.000Z</time>
      </trkpt>
      <trkpt lat="22.769105" lon="108.791817">
        <ele>75.465343</ele>
        <time>2026-08-14T06:17:19.000Z</time>
      </trkpt>
      <trkpt lat="22.769103" lon="108.791842">
        <ele>75.460488</ele>
        <time>2026-08-14T06:17:20.000Z</time>
      </trkpt>
      <trkpt lat="22.769099" lon="108.791866">
        <ele>75.455770</ele>
        <time>2026-08-14T06:17:21.000Z</time>
      </trkpt>
      <trkpt lat="22.769096" lon="108.791891">
        <ele>75.450893</ele>
        <time>2026-08-14T06:17:22.000Z</time>
      </trkpt>
      <trkpt lat="22.769097" lon="108.791920">
        <ele>75.445278</ele>
        <time>2026-08-14T06:17:23.000Z</time>
      </trkpt>
      <trkpt lat="22.769095" lon="108.791947">
        <ele>75.440038</ele>
        <time>2026-08-14T06:17:24.000Z</time>
      </trkpt>
      <trkpt lat="22.769095" lon="108.791979">
        <ele>75.433847</ele>
        <time>2026-08-14T06:17:25.000Z</time>
      </trkpt>
      <trkpt lat="22.769095" lon="108.792011">
        <ele>75.427657</ele>
        <time>2026-08-14T06:17:26.000Z</time>
      </trkpt>
      <trkpt lat="22.769094" lon="108.792044">
        <ele>75.421269</ele>
        <time>2026-08-14T06:17:27.000Z</time>
      </trkpt>
      <trkpt lat="22.769093" lon="108.792076">
        <ele>75.415075</ele>
        <time>2026-08-14T06:17:28.000Z</time>
      </trkpt>
      <trkpt lat="22.769094" lon="108.792109">
        <ele>75.408687</ele>
        <time>2026-08-14T06:17:29.000Z</time>
      </trkpt>
      <trkpt lat="22.769095" lon="108.792143">
        <ele>75.402106</ele>
        <time>2026-08-14T06:17:30.000Z</time>
      </trkpt>
      <trkpt lat="22.769096" lon="108.792179">
        <ele>75.395138</ele>
        <time>2026-08-14T06:17:31.000Z</time>
      </trkpt>
      <trkpt lat="22.769097" lon="108.792215">
        <ele>75.388170</ele>
        <time>2026-08-14T06:17:32.000Z</time>
      </trkpt>
      <trkpt lat="22.769097" lon="108.792253">
        <ele>75.380819</ele>
        <time>2026-08-14T06:17:33.000Z</time>
      </trkpt>
      <trkpt lat="22.769095" lon="108.792294">
        <ele>75.372876</ele>
        <time>2026-08-14T06:17:34.000Z</time>
      </trkpt>
      <trkpt lat="22.769096" lon="108.792333">
        <ele>75.365328</ele>
        <time>2026-08-14T06:17:35.000Z</time>
      </trkpt>
      <trkpt lat="22.769096" lon="108.792373">
        <ele>75.357589</ele>
        <time>2026-08-14T06:17:36.000Z</time>
      </trkpt>
      <trkpt lat="22.769095" lon="108.792417">
        <ele>75.349075</ele>
        <time>2026-08-14T06:17:37.000Z</time>
      </trkpt>
      <trkpt lat="22.769095" lon="108.792461">
        <ele>75.340562</ele>
        <time>2026-08-14T06:17:38.000Z</time>
      </trkpt>
      <trkpt lat="22.769096" lon="108.792505">
        <ele>75.332047</ele>
        <time>2026-08-14T06:17:39.000Z</time>
      </trkpt>
      <trkpt lat="22.769095" lon="108.792548">
        <ele>75.323726</ele>
        <time>2026-08-14T06:17:40.000Z</time>
      </trkpt>
      <trkpt lat="22.769090" lon="108.792589">
        <ele>75.320825</ele>
        <time>2026-08-14T06:17:41.000Z</time>
      </trkpt>
      <trkpt lat="22.769087" lon="108.792631">
        <ele>75.423958</ele>
        <time>2026-08-14T06:17:42.000Z</time>
      </trkpt>
      <trkpt lat="22.769087" lon="108.792673">
        <ele>75.526784</ele>
        <time>2026-08-14T06:17:43.000Z</time>
      </trkpt>
      <trkpt lat="22.769091" lon="108.792714">
        <ele>75.627721</ele>
        <time>2026-08-14T06:17:44.000Z</time>
      </trkpt>
      <trkpt lat="22.769094" lon="108.792754">
        <ele>75.725974</ele>
        <time>2026-08-14T06:17:45.000Z</time>
      </trkpt>
      <trkpt lat="22.769096" lon="108.792795">
        <ele>75.826491</ele>
        <time>2026-08-14T06:17:46.000Z</time>
      </trkpt>
      <trkpt lat="22.769098" lon="108.792835">
        <ele>75.924564</ele>
        <time>2026-08-14T06:17:47.000Z</time>
      </trkpt>
      <trkpt lat="22.769103" lon="108.792875">
        <ele>76.023388</ele>
        <time>2026-08-14T06:17:48.000Z</time>
      </trkpt>
      <trkpt lat="22.769106" lon="108.792915">
        <ele>76.121641</ele>
        <time>2026-08-14T06:17:49.000Z</time>
      </trkpt>
      <trkpt lat="22.769110" lon="108.792956">
        <ele>76.222578</ele>
        <time>2026-08-14T06:17:50.000Z</time>
      </trkpt>
      <trkpt lat="22.769117" lon="108.792994">
        <ele>76.317449</ele>
        <time>2026-08-14T06:17:51.000Z</time>
      </trkpt>
      <trkpt lat="22.769125" lon="108.793034">
        <ele>76.417655</ele>
        <time>2026-08-14T06:17:52.000Z</time>
      </trkpt>
      <trkpt lat="22.769134" lon="108.793073">
        <ele>76.516081</ele>
        <time>2026-08-14T06:17:53.000Z</time>
      </trkpt>
      <trkpt lat="22.769145" lon="108.793110">
        <ele>76.611257</ele>
        <time>2026-08-14T06:17:54.000Z</time>
      </trkpt>
      <trkpt lat="22.769155" lon="108.793144">
        <ele>76.698628</ele>
        <time>2026-08-14T06:17:55.000Z</time>
      </trkpt>
      <trkpt lat="22.769168" lon="108.793176">
        <ele>76.784238</ele>
        <time>2026-08-14T06:17:56.000Z</time>
      </trkpt>
      <trkpt lat="22.769181" lon="108.793208">
        <ele>76.869848</ele>
        <time>2026-08-14T06:17:57.000Z</time>
      </trkpt>
      <trkpt lat="22.769196" lon="108.793242">
        <ele>76.962125</ele>
        <time>2026-08-14T06:17:58.000Z</time>
      </trkpt>
      <trkpt lat="22.769212" lon="108.793275">
        <ele>77.053404</ele>
        <time>2026-08-14T06:17:59.000Z</time>
      </trkpt>
      <trkpt lat="22.769229" lon="108.793306">
        <ele>77.141707</ele>
        <time>2026-08-14T06:18:00.000Z</time>
      </trkpt>
      <trkpt lat="22.769243" lon="108.793340">
        <ele>77.232869</ele>
        <time>2026-08-14T06:18:01.000Z</time>
      </trkpt>
      <trkpt lat="22.769258" lon="108.793371">
        <ele>77.318580</ele>
        <time>2026-08-14T06:18:02.000Z</time>
      </trkpt>
      <trkpt lat="22.769275" lon="108.793404">
        <ele>77.411125</ele>
        <time>2026-08-14T06:18:03.000Z</time>
      </trkpt>
      <trkpt lat="22.769291" lon="108.793435">
        <ele>77.498100</ele>
        <time>2026-08-14T06:18:04.000Z</time>
      </trkpt>
      <trkpt lat="22.769306" lon="108.793465">
        <ele>77.581650</ele>
        <time>2026-08-14T06:18:05.000Z</time>
      </trkpt>
      <trkpt lat="22.769320" lon="108.793498">
        <ele>77.670582</ele>
        <time>2026-08-14T06:18:06.000Z</time>
      </trkpt>
      <trkpt lat="22.769336" lon="108.793528">
        <ele>77.755430</ele>
        <time>2026-08-14T06:18:07.000Z</time>
      </trkpt>
      <trkpt lat="22.769351" lon="108.793558">
        <ele>77.838980</ele>
        <time>2026-08-14T06:18:08.000Z</time>
      </trkpt>
      <trkpt lat="22.769367" lon="108.793588">
        <ele>77.923828</ele>
        <time>2026-08-14T06:18:09.000Z</time>
      </trkpt>
      <trkpt lat="22.769379" lon="108.793620">
        <ele>78.008402</ele>
        <time>2026-08-14T06:18:10.000Z</time>
      </trkpt>
      <trkpt lat="22.769392" lon="108.793652">
        <ele>78.094011</ele>
        <time>2026-08-14T06:18:11.000Z</time>
      </trkpt>
      <trkpt lat="22.769404" lon="108.793682">
        <ele>78.174071</ele>
        <time>2026-08-14T06:18:12.000Z</time>
      </trkpt>
      <trkpt lat="22.769417" lon="108.793709">
        <ele>78.248642</ele>
        <time>2026-08-14T06:18:13.000Z</time>
      </trkpt>
      <trkpt lat="22.769424" lon="108.793738">
        <ele>78.322033</ele>
        <time>2026-08-14T06:18:14.000Z</time>
      </trkpt>
      <trkpt lat="22.769439" lon="108.793765">
        <ele>78.399206</ele>
        <time>2026-08-14T06:18:15.000Z</time>
      </trkpt>
      <trkpt lat="22.769445" lon="108.793793">
        <ele>78.469583</ele>
        <time>2026-08-14T06:18:16.000Z</time>
      </trkpt>
      <trkpt lat="22.769456" lon="108.793822">
        <ele>78.546354</ele>
        <time>2026-08-14T06:18:17.000Z</time>
      </trkpt>
      <trkpt lat="22.769471" lon="108.793853">
        <ele>78.632063</ele>
        <time>2026-08-14T06:18:18.000Z</time>
      </trkpt>
      <trkpt lat="22.769479" lon="108.793883">
        <ele>78.708520</ele>
        <time>2026-08-14T06:18:19.000Z</time>
      </trkpt>
      <trkpt lat="22.769493" lon="108.793909">
        <ele>78.782232</ele>
        <time>2026-08-14T06:18:20.000Z</time>
      </trkpt>
      <trkpt lat="22.769499" lon="108.793936">
        <ele>78.850227</ele>
        <time>2026-08-14T06:18:21.000Z</time>
      </trkpt>
      <trkpt lat="22.769506" lon="108.793962">
        <ele>78.916538</ele>
        <time>2026-08-14T06:18:22.000Z</time>
      </trkpt>
      <trkpt lat="22.769509" lon="108.793985">
        <ele>78.973408</ele>
        <time>2026-08-14T06:18:23.000Z</time>
      </trkpt>
      <trkpt lat="22.769520" lon="108.794009">
        <ele>79.039023</ele>
        <time>2026-08-14T06:18:24.000Z</time>
      </trkpt>
      <trkpt lat="22.769533" lon="108.794036">
        <ele>79.113595</ele>
        <time>2026-08-14T06:18:25.000Z</time>
      </trkpt>
      <trkpt lat="22.769544" lon="108.794061">
        <ele>79.181411</ele>
        <time>2026-08-14T06:18:26.000Z</time>
      </trkpt>
      <trkpt lat="22.769557" lon="108.794086">
        <ele>79.251679</ele>
        <time>2026-08-14T06:18:27.000Z</time>
      </trkpt>
      <trkpt lat="22.769570" lon="108.794112">
        <ele>79.324088</ele>
        <time>2026-08-14T06:18:28.000Z</time>
      </trkpt>
      <trkpt lat="22.769581" lon="108.794134">
        <ele>79.385358</ele>
        <time>2026-08-14T06:18:29.000Z</time>
      </trkpt>
      <trkpt lat="22.769593" lon="108.794156">
        <ele>79.447937</ele>
        <time>2026-08-14T06:18:30.000Z</time>
      </trkpt>
      <trkpt lat="22.769605" lon="108.794182">
        <ele>79.519120</ele>
        <time>2026-08-14T06:18:31.000Z</time>
      </trkpt>
      <trkpt lat="22.769619" lon="108.794209">
        <ele>79.594956</ele>
        <time>2026-08-14T06:18:32.000Z</time>
      </trkpt>
      <trkpt lat="22.769631" lon="108.794237">
        <ele>79.670549</ele>
        <time>2026-08-14T06:18:33.000Z</time>
      </trkpt>
      <trkpt lat="22.769645" lon="108.794264">
        <ele>79.746386</ele>
        <time>2026-08-14T06:18:34.000Z</time>
      </trkpt>
      <trkpt lat="22.769656" lon="108.794293">
        <ele>79.823156</ele>
        <time>2026-08-14T06:18:35.000Z</time>
      </trkpt>
      <trkpt lat="22.769670" lon="108.794320">
        <ele>79.898993</ele>
        <time>2026-08-14T06:18:36.000Z</time>
      </trkpt>
      <trkpt lat="22.769687" lon="108.794348">
        <ele>79.981069</ele>
        <time>2026-08-14T06:18:37.000Z</time>
      </trkpt>
      <trkpt lat="22.769703" lon="108.794372">
        <ele>80.053575</ele>
        <time>2026-08-14T06:18:38.000Z</time>
      </trkpt>
      <trkpt lat="22.769715" lon="108.794404">
        <ele>80.112787</ele>
        <time>2026-08-14T06:18:39.000Z</time>
      </trkpt>
      <trkpt lat="22.769728" lon="108.794431">
        <ele>80.146611</ele>
        <time>2026-08-14T06:18:40.000Z</time>
      </trkpt>
      <trkpt lat="22.769746" lon="108.794459">
        <ele>80.184515</ele>
        <time>2026-08-14T06:18:41.000Z</time>
      </trkpt>
      <trkpt lat="22.769771" lon="108.794484">
        <ele>80.225469</ele>
        <time>2026-08-14T06:18:42.000Z</time>
      </trkpt>
      <trkpt lat="22.769798" lon="108.794508">
        <ele>80.267513</ele>
        <time>2026-08-14T06:18:43.000Z</time>
      </trkpt>
      <trkpt lat="22.769824" lon="108.794530">
        <ele>80.307228</ele>
        <time>2026-08-14T06:18:44.000Z</time>
      </trkpt>
      <trkpt lat="22.769851" lon="108.794552">
        <ele>80.347900</ele>
        <time>2026-08-14T06:18:45.000Z</time>
      </trkpt>
      <trkpt lat="22.769878" lon="108.794572">
        <ele>80.387278</ele>
        <time>2026-08-14T06:18:46.000Z</time>
      </trkpt>
      <trkpt lat="22.769905" lon="108.794593">
        <ele>80.427292</ele>
        <time>2026-08-14T06:18:47.000Z</time>
      </trkpt>
      <trkpt lat="22.769934" lon="108.794611">
        <ele>80.467533</ele>
        <time>2026-08-14T06:18:48.000Z</time>
      </trkpt>
      <trkpt lat="22.769963" lon="108.794630">
        <ele>80.508337</ele>
        <time>2026-08-14T06:18:49.000Z</time>
      </trkpt>
      <trkpt lat="22.769994" lon="108.794645">
        <ele>80.549219</ele>
        <time>2026-08-14T06:18:50.000Z</time>
      </trkpt>
      <trkpt lat="22.770025" lon="108.794659">
        <ele>80.589661</ele>
        <time>2026-08-14T06:18:51.000Z</time>
      </trkpt>
      <trkpt lat="22.770054" lon="108.794677">
        <ele>80.629902</ele>
        <time>2026-08-14T06:18:52.000Z</time>
      </trkpt>
      <trkpt lat="22.770087" lon="108.794694">
        <ele>80.673901</ele>
        <time>2026-08-14T06:18:53.000Z</time>
      </trkpt>
      <trkpt lat="22.770123" lon="108.794709">
        <ele>80.720346</ele>
        <time>2026-08-14T06:18:54.000Z</time>
      </trkpt>
      <trkpt lat="22.770157" lon="108.794723">
        <ele>80.764146</ele>
        <time>2026-08-14T06:18:55.000Z</time>
      </trkpt>
      <trkpt lat="22.770189" lon="108.794736">
        <ele>80.805299</ele>
        <time>2026-08-14T06:18:56.000Z</time>
      </trkpt>
      <trkpt lat="22.770222" lon="108.794749">
        <ele>80.847583</ele>
        <time>2026-08-14T06:18:57.000Z</time>
      </trkpt>
      <trkpt lat="22.770257" lon="108.794765">
        <ele>80.893326</ele>
        <time>2026-08-14T06:18:58.000Z</time>
      </trkpt>
      <trkpt lat="22.770291" lon="108.794782">
        <ele>80.938415</ele>
        <time>2026-08-14T06:18:59.000Z</time>
      </trkpt>
      <trkpt lat="22.770325" lon="108.794798">
        <ele>80.983051</ele>
        <time>2026-08-14T06:19:00.000Z</time>
      </trkpt>
      <trkpt lat="22.770356" lon="108.794811">
        <ele>81.023079</ele>
        <time>2026-08-14T06:19:01.000Z</time>
      </trkpt>
      <trkpt lat="22.770390" lon="108.794825">
        <ele>81.066879</ele>
        <time>2026-08-14T06:19:02.000Z</time>
      </trkpt>
      <trkpt lat="22.770425" lon="108.794840">
        <ele>81.112202</ele>
        <time>2026-08-14T06:19:03.000Z</time>
      </trkpt>
      <trkpt lat="22.770457" lon="108.794857">
        <ele>81.155116</ele>
        <time>2026-08-14T06:19:04.000Z</time>
      </trkpt>
      <trkpt lat="22.770484" lon="108.794876">
        <ele>81.193878</ele>
        <time>2026-08-14T06:19:05.000Z</time>
      </trkpt>
      <trkpt lat="22.770515" lon="108.794894">
        <ele>81.236227</ele>
        <time>2026-08-14T06:19:06.000Z</time>
      </trkpt>
      <trkpt lat="22.770545" lon="108.794914">
        <ele>81.278637</ele>
        <time>2026-08-14T06:19:07.000Z</time>
      </trkpt>
      <trkpt lat="22.770576" lon="108.794931">
        <ele>81.320473</ele>
        <time>2026-08-14T06:19:08.000Z</time>
      </trkpt>
      <trkpt lat="22.770605" lon="108.794949">
        <ele>81.360714</ele>
        <time>2026-08-14T06:19:09.000Z</time>
      </trkpt>
      <trkpt lat="22.770633" lon="108.794969">
        <ele>81.401092</ele>
        <time>2026-08-14T06:19:10.000Z</time>
      </trkpt>
      <trkpt lat="22.770662" lon="108.794989">
        <ele>81.442481</ele>
        <time>2026-08-14T06:19:11.000Z</time>
      </trkpt>
      <trkpt lat="22.770692" lon="108.795007">
        <ele>81.483771</ele>
        <time>2026-08-14T06:19:12.000Z</time>
      </trkpt>
      <trkpt lat="22.770723" lon="108.795026">
        <ele>81.526655</ele>
        <time>2026-08-14T06:19:13.000Z</time>
      </trkpt>
      <trkpt lat="22.770750" lon="108.795049">
        <ele>81.568003</ele>
        <time>2026-08-14T06:19:14.000Z</time>
      </trkpt>
      <trkpt lat="22.770777" lon="108.795074">
        <ele>81.610759</ele>
        <time>2026-08-14T06:19:15.000Z</time>
      </trkpt>
      <trkpt lat="22.770804" lon="108.795097">
        <ele>81.652107</ele>
        <time>2026-08-14T06:19:16.000Z</time>
      </trkpt>
      <trkpt lat="22.770828" lon="108.795122">
        <ele>81.692184</ele>
        <time>2026-08-14T06:19:17.000Z</time>
      </trkpt>
      <trkpt lat="22.770853" lon="108.795146">
        <ele>81.732394</ele>
        <time>2026-08-14T06:19:18.000Z</time>
      </trkpt>
      <trkpt lat="22.770877" lon="108.795170">
        <ele>81.771709</ele>
        <time>2026-08-14T06:19:19.000Z</time>
      </trkpt>
      <trkpt lat="22.770902" lon="108.795195">
        <ele>81.812663</ele>
        <time>2026-08-14T06:19:20.000Z</time>
      </trkpt>
      <trkpt lat="22.770926" lon="108.795224">
        <ele>81.855936</ele>
        <time>2026-08-14T06:19:21.000Z</time>
      </trkpt>
      <trkpt lat="22.770947" lon="108.795251">
        <ele>81.895160</ele>
        <time>2026-08-14T06:19:22.000Z</time>
      </trkpt>
      <trkpt lat="22.770968" lon="108.795279">
        <ele>81.935240</ele>
        <time>2026-08-14T06:19:23.000Z</time>
      </trkpt>
      <trkpt lat="22.770989" lon="108.795309">
        <ele>81.977067</ele>
        <time>2026-08-14T06:19:24.000Z</time>
      </trkpt>
      <trkpt lat="22.771011" lon="108.795342">
        <ele>82.022287</ele>
        <time>2026-08-14T06:19:25.000Z</time>
      </trkpt>
      <trkpt lat="22.771034" lon="108.795376">
        <ele>82.069114</ele>
        <time>2026-08-14T06:19:26.000Z</time>
      </trkpt>
      <trkpt lat="22.771057" lon="108.795412">
        <ele>82.117750</ele>
        <time>2026-08-14T06:19:27.000Z</time>
      </trkpt>
      <trkpt lat="22.771080" lon="108.795451">
        <ele>82.169159</ele>
        <time>2026-08-14T06:19:28.000Z</time>
      </trkpt>
      <trkpt lat="22.771104" lon="108.795493">
        <ele>82.224028</ele>
        <time>2026-08-14T06:19:29.000Z</time>
      </trkpt>
      <trkpt lat="22.771129" lon="108.795539">
        <ele>82.281723</ele>
        <time>2026-08-14T06:19:30.000Z</time>
      </trkpt>
      <trkpt lat="22.771154" lon="108.795589">
        <ele>82.340909</ele>
        <time>2026-08-14T06:19:31.000Z</time>
      </trkpt>
      <trkpt lat="22.771182" lon="108.795640">
        <ele>82.402675</ele>
        <time>2026-08-14T06:19:32.000Z</time>
      </trkpt>
      <trkpt lat="22.771210" lon="108.795691">
        <ele>82.464440</ele>
        <time>2026-08-14T06:19:33.000Z</time>
      </trkpt>
      <trkpt lat="22.771237" lon="108.795746">
        <ele>82.529278</ele>
        <time>2026-08-14T06:19:34.000Z</time>
      </trkpt>
      <trkpt lat="22.771263" lon="108.795802">
        <ele>82.594522</ele>
        <time>2026-08-14T06:19:35.000Z</time>
      </trkpt>
      <trkpt lat="22.771289" lon="108.795859">
        <ele>82.660696</ele>
        <time>2026-08-14T06:19:36.000Z</time>
      </trkpt>
      <trkpt lat="22.771315" lon="108.795915">
        <ele>82.725940</ele>
        <time>2026-08-14T06:19:37.000Z</time>
      </trkpt>
      <trkpt lat="22.771342" lon="108.795969">
        <ele>82.789861</ele>
        <time>2026-08-14T06:19:38.000Z</time>
      </trkpt>
      <trkpt lat="22.771370" lon="108.796021">
        <ele>82.852523</ele>
        <time>2026-08-14T06:19:39.000Z</time>
      </trkpt>
      <trkpt lat="22.771398" lon="108.796071">
        <ele>82.913396</ele>
        <time>2026-08-14T06:19:40.000Z</time>
      </trkpt>
      <trkpt lat="22.771423" lon="108.796121">
        <ele>82.972583</ele>
        <time>2026-08-14T06:19:41.000Z</time>
      </trkpt>
      <trkpt lat="22.771447" lon="108.796170">
        <ele>83.030319</ele>
        <time>2026-08-14T06:19:42.000Z</time>
      </trkpt>
      <trkpt lat="22.771471" lon="108.796219">
        <ele>83.088055</ele>
        <time>2026-08-14T06:19:43.000Z</time>
      </trkpt>
      <trkpt lat="22.771495" lon="108.796268">
        <ele>83.145792</ele>
        <time>2026-08-14T06:19:44.000Z</time>
      </trkpt>
      <trkpt lat="22.771519" lon="108.796315">
        <ele>83.201698</ele>
        <time>2026-08-14T06:19:45.000Z</time>
      </trkpt>
      <trkpt lat="22.771543" lon="108.796361">
        <ele>83.256697</ele>
        <time>2026-08-14T06:19:46.000Z</time>
      </trkpt>
      <trkpt lat="22.771566" lon="108.796405">
        <ele>83.309329</ele>
        <time>2026-08-14T06:19:47.000Z</time>
      </trkpt>
      <trkpt lat="22.771589" lon="108.796448">
        <ele>83.361058</ele>
        <time>2026-08-14T06:19:48.000Z</time>
      </trkpt>
      <trkpt lat="22.771613" lon="108.796492">
        <ele>83.414255</ele>
        <time>2026-08-14T06:19:49.000Z</time>
      </trkpt>
      <trkpt lat="22.771638" lon="108.796533">
        <ele>83.465404</ele>
        <time>2026-08-14T06:19:50.000Z</time>
      </trkpt>
      <trkpt lat="22.771661" lon="108.796574">
        <ele>83.515343</ele>
        <time>2026-08-14T06:19:51.000Z</time>
      </trkpt>
      <trkpt lat="22.771685" lon="108.796612">
        <ele>83.563273</ele>
        <time>2026-08-14T06:19:52.000Z</time>
      </trkpt>
      <trkpt lat="22.771705" lon="108.796648">
        <ele>83.607008</ele>
        <time>2026-08-14T06:19:53.000Z</time>
      </trkpt>
      <trkpt lat="22.771723" lon="108.796685">
        <ele>83.650540</ele>
        <time>2026-08-14T06:19:54.000Z</time>
      </trkpt>
      <trkpt lat="22.771739" lon="108.796721">
        <ele>83.692126</ele>
        <time>2026-08-14T06:19:55.000Z</time>
      </trkpt>
      <trkpt lat="22.771753" lon="108.796757">
        <ele>83.732782</ele>
        <time>2026-08-14T06:19:56.000Z</time>
      </trkpt>
      <trkpt lat="22.771767" lon="108.796789">
        <ele>83.769639</ele>
        <time>2026-08-14T06:19:57.000Z</time>
      </trkpt>
      <trkpt lat="22.771783" lon="108.796819">
        <ele>83.805703</ele>
        <time>2026-08-14T06:19:58.000Z</time>
      </trkpt>
      <trkpt lat="22.771799" lon="108.796846">
        <ele>83.839101</ele>
        <time>2026-08-14T06:19:59.000Z</time>
      </trkpt>
      <trkpt lat="22.771812" lon="108.796873">
        <ele>83.870796</ele>
        <time>2026-08-14T06:20:00.000Z</time>
      </trkpt>
      <trkpt lat="22.771826" lon="108.796898">
        <ele>83.901233</ele>
        <time>2026-08-14T06:20:01.000Z</time>
      </trkpt>
      <trkpt lat="22.771838" lon="108.796922">
        <ele>83.929643</ele>
        <time>2026-08-14T06:20:02.000Z</time>
      </trkpt>
      <trkpt lat="22.771848" lon="108.796946">
        <ele>83.957048</ele>
        <time>2026-08-14T06:20:03.000Z</time>
      </trkpt>
      <trkpt lat="22.771858" lon="108.796970">
        <ele>83.984454</ele>
        <time>2026-08-14T06:20:04.000Z</time>
      </trkpt>
      <trkpt lat="22.771870" lon="108.796995">
        <ele>84.013782</ele>
        <time>2026-08-14T06:20:05.000Z</time>
      </trkpt>
      <trkpt lat="22.771884" lon="108.797023">
        <ele>84.046927</ele>
        <time>2026-08-14T06:20:06.000Z</time>
      </trkpt>
      <trkpt lat="22.771897" lon="108.797050">
        <ele>84.078622</ele>
        <time>2026-08-14T06:20:07.000Z</time>
      </trkpt>
      <trkpt lat="22.771912" lon="108.797076">
        <ele>84.110537</ele>
        <time>2026-08-14T06:20:08.000Z</time>
      </trkpt>
      <trkpt lat="22.771928" lon="108.797102">
        <ele>84.143064</ele>
        <time>2026-08-14T06:20:09.000Z</time>
      </trkpt>
      <trkpt lat="22.771943" lon="108.797129">
        <ele>84.175866</ele>
        <time>2026-08-14T06:20:10.000Z</time>
      </trkpt>
      <trkpt lat="22.771957" lon="108.797157">
        <ele>84.209010</ele>
        <time>2026-08-14T06:20:11.000Z</time>
      </trkpt>
      <trkpt lat="22.771970" lon="108.797186">
        <ele>84.242565</ele>
        <time>2026-08-14T06:20:12.000Z</time>
      </trkpt>
      <trkpt lat="22.771982" lon="108.797214">
        <ele>84.274694</ele>
        <time>2026-08-14T06:20:13.000Z</time>
      </trkpt>
      <trkpt lat="22.771994" lon="108.797242">
        <ele>84.332548</ele>
        <time>2026-08-14T06:20:14.000Z</time>
      </trkpt>
      <trkpt lat="22.772004" lon="108.797272">
        <ele>84.410520</ele>
        <time>2026-08-14T06:20:15.000Z</time>
      </trkpt>
      <trkpt lat="22.772016" lon="108.797300">
        <ele>84.485991</ele>
        <time>2026-08-14T06:20:16.000Z</time>
      </trkpt>
      <trkpt lat="22.772031" lon="108.797327">
        <ele>84.563039</ele>
        <time>2026-08-14T06:20:17.000Z</time>
      </trkpt>
      <trkpt lat="22.772047" lon="108.797354">
        <ele>84.641489</ele>
        <time>2026-08-14T06:20:18.000Z</time>
      </trkpt>
      <trkpt lat="22.772063" lon="108.797381">
        <ele>84.719938</ele>
        <time>2026-08-14T06:20:19.000Z</time>
      </trkpt>
      <trkpt lat="22.772080" lon="108.797410">
        <ele>84.803934</ele>
        <time>2026-08-14T06:20:20.000Z</time>
      </trkpt>
      <trkpt lat="22.772097" lon="108.797441">
        <ele>84.892095</ele>
        <time>2026-08-14T06:20:21.000Z</time>
      </trkpt>
      <trkpt lat="22.772113" lon="108.797474">
        <ele>84.983227</ele>
        <time>2026-08-14T06:20:22.000Z</time>
      </trkpt>
      <trkpt lat="22.772131" lon="108.797510">
        <ele>85.083325</ele>
        <time>2026-08-14T06:20:23.000Z</time>
      </trkpt>
      <trkpt lat="22.772149" lon="108.797548">
        <ele>85.187746</ele>
        <time>2026-08-14T06:20:24.000Z</time>
      </trkpt>
      <trkpt lat="22.772170" lon="108.797588">
        <ele>85.300254</ele>
        <time>2026-08-14T06:20:25.000Z</time>
      </trkpt>
      <trkpt lat="22.772192" lon="108.797628">
        <ele>85.414097</ele>
        <time>2026-08-14T06:20:26.000Z</time>
      </trkpt>
      <trkpt lat="22.772218" lon="108.797669">
        <ele>85.535725</ele>
        <time>2026-08-14T06:20:27.000Z</time>
      </trkpt>
      <trkpt lat="22.772243" lon="108.797713">
        <ele>85.662052</ele>
        <time>2026-08-14T06:20:28.000Z</time>
      </trkpt>
      <trkpt lat="22.772266" lon="108.797759">
        <ele>85.789955</ele>
        <time>2026-08-14T06:20:29.000Z</time>
      </trkpt>
      <trkpt lat="22.772289" lon="108.797805">
        <ele>85.917858</ele>
        <time>2026-08-14T06:20:30.000Z</time>
      </trkpt>
      <trkpt lat="22.772312" lon="108.797851">
        <ele>86.045761</ele>
        <time>2026-08-14T06:20:31.000Z</time>
      </trkpt>
      <trkpt lat="22.772335" lon="108.797899">
        <ele>86.177982</ele>
        <time>2026-08-14T06:20:32.000Z</time>
      </trkpt>
      <trkpt lat="22.772359" lon="108.797945">
        <ele>86.307170</ele>
        <time>2026-08-14T06:20:33.000Z</time>
      </trkpt>
      <trkpt lat="22.772385" lon="108.797989">
        <ele>86.434907</ele>
        <time>2026-08-14T06:20:34.000Z</time>
      </trkpt>
      <trkpt lat="22.772411" lon="108.798033">
        <ele>86.562644</ele>
        <time>2026-08-14T06:20:35.000Z</time>
      </trkpt>
      <trkpt lat="22.772439" lon="108.798073">
        <ele>86.685397</ele>
        <time>2026-08-14T06:20:36.000Z</time>
      </trkpt>
      <trkpt lat="22.772464" lon="108.798112">
        <ele>86.801496</ele>
        <time>2026-08-14T06:20:37.000Z</time>
      </trkpt>
      <trkpt lat="22.772487" lon="108.798151">
        <ele>86.914653</ele>
        <time>2026-08-14T06:20:38.000Z</time>
      </trkpt>
      <trkpt lat="22.772507" lon="108.798188">
        <ele>87.019485</ele>
        <time>2026-08-14T06:20:39.000Z</time>
      </trkpt>
      <trkpt lat="22.772525" lon="108.798222">
        <ele>87.115314</ele>
        <time>2026-08-14T06:20:40.000Z</time>
      </trkpt>
      <trkpt lat="22.772542" lon="108.798254">
        <ele>87.205584</ele>
        <time>2026-08-14T06:20:41.000Z</time>
      </trkpt>
      <trkpt lat="22.772560" lon="108.798284">
        <ele>87.293070</ele>
        <time>2026-08-14T06:20:42.000Z</time>
      </trkpt>
      <trkpt lat="22.772576" lon="108.798312">
        <ele>87.373586</ele>
        <time>2026-08-14T06:20:43.000Z</time>
      </trkpt>
      <trkpt lat="22.772589" lon="108.798340">
        <ele>87.450212</ele>
        <time>2026-08-14T06:20:44.000Z</time>
      </trkpt>
      <trkpt lat="22.772602" lon="108.798366">
        <ele>87.522504</ele>
        <time>2026-08-14T06:20:45.000Z</time>
      </trkpt>
      <trkpt lat="22.772612" lon="108.798388">
        <ele>87.582457</ele>
        <time>2026-08-14T06:20:46.000Z</time>
      </trkpt>
      <trkpt lat="22.772623" lon="108.798410">
        <ele>87.643628</ele>
        <time>2026-08-14T06:20:47.000Z</time>
      </trkpt>
      <trkpt lat="22.772632" lon="108.798430">
        <ele>87.698024</ele>
        <time>2026-08-14T06:20:48.000Z</time>
      </trkpt>
      <trkpt lat="22.772644" lon="108.798448">
        <ele>87.752316</ele>
        <time>2026-08-14T06:20:49.000Z</time>
      </trkpt>
      <trkpt lat="22.772656" lon="108.798467">
        <ele>87.808607</ele>
        <time>2026-08-14T06:20:50.000Z</time>
      </trkpt>
      <trkpt lat="22.772666" lon="108.798488">
        <ele>87.866377</ele>
        <time>2026-08-14T06:20:51.000Z</time>
      </trkpt>
      <trkpt lat="22.772676" lon="108.798510">
        <ele>87.926330</ele>
        <time>2026-08-14T06:20:52.000Z</time>
      </trkpt>
      <trkpt lat="22.772688" lon="108.798532">
        <ele>87.988808</ele>
        <time>2026-08-14T06:20:53.000Z</time>
      </trkpt>
      <trkpt lat="22.772700" lon="108.798552">
        <ele>88.047131</ele>
        <time>2026-08-14T06:20:54.000Z</time>
      </trkpt>
      <trkpt lat="22.772711" lon="108.798572">
        <ele>88.104053</ele>
        <time>2026-08-14T06:20:55.000Z</time>
      </trkpt>
      <trkpt lat="22.772721" lon="108.798592">
        <ele>88.159663</ele>
        <time>2026-08-14T06:20:56.000Z</time>
      </trkpt>
      <trkpt lat="22.772732" lon="108.798614">
        <ele>88.220834</ele>
        <time>2026-08-14T06:20:57.000Z</time>
      </trkpt>
      <trkpt lat="22.772742" lon="108.798635">
        <ele>88.278604</ele>
        <time>2026-08-14T06:20:58.000Z</time>
      </trkpt>
      <trkpt lat="22.772753" lon="108.798654">
        <ele>88.333440</ele>
        <time>2026-08-14T06:20:59.000Z</time>
      </trkpt>
      <trkpt lat="22.772764" lon="108.798673">
        <ele>88.388277</ele>
        <time>2026-08-14T06:21:00.000Z</time>
      </trkpt>
      <trkpt lat="22.772775" lon="108.798693">
        <ele>88.445198</ele>
        <time>2026-08-14T06:21:01.000Z</time>
      </trkpt>
      <trkpt lat="22.772785" lon="108.798712">
        <ele>88.498672</ele>
        <time>2026-08-14T06:21:02.000Z</time>
      </trkpt>
      <trkpt lat="22.772795" lon="108.798733">
        <ele>88.556442</ele>
        <time>2026-08-14T06:21:03.000Z</time>
      </trkpt>
      <trkpt lat="22.772805" lon="108.798753">
        <ele>88.612052</ele>
        <time>2026-08-14T06:21:04.000Z</time>
      </trkpt>
      <trkpt lat="22.772817" lon="108.798771">
        <ele>88.666344</ele>
        <time>2026-08-14T06:21:05.000Z</time>
      </trkpt>
      <trkpt lat="22.772828" lon="108.798790">
        <ele>88.721180</ele>
        <time>2026-08-14T06:21:06.000Z</time>
      </trkpt>
      <trkpt lat="22.772839" lon="108.798811">
        <ele>88.780214</ele>
        <time>2026-08-14T06:21:07.000Z</time>
      </trkpt>
      <trkpt lat="22.772850" lon="108.798830">
        <ele>88.835050</ele>
        <time>2026-08-14T06:21:08.000Z</time>
      </trkpt>
      <trkpt lat="22.772859" lon="108.798849">
        <ele>88.887261</ele>
        <time>2026-08-14T06:21:09.000Z</time>
      </trkpt>
      <trkpt lat="22.772870" lon="108.798871">
        <ele>88.948432</ele>
        <time>2026-08-14T06:21:10.000Z</time>
      </trkpt>
      <trkpt lat="22.772881" lon="108.798892">
        <ele>89.007465</ele>
        <time>2026-08-14T06:21:11.000Z</time>
      </trkpt>
      <trkpt lat="22.772892" lon="108.798913">
        <ele>89.057999</ele>
        <time>2026-08-14T06:21:12.000Z</time>
      </trkpt>
      <trkpt lat="22.772902" lon="108.798936">
        <ele>89.070951</ele>
        <time>2026-08-14T06:21:13.000Z</time>
      </trkpt>
      <trkpt lat="22.772913" lon="108.798961">
        <ele>89.085060</ele>
        <time>2026-08-14T06:21:14.000Z</time>
      </trkpt>
      <trkpt lat="22.772923" lon="108.798986">
        <ele>89.098939</ele>
        <time>2026-08-14T06:21:15.000Z</time>
      </trkpt>
      <trkpt lat="22.772935" lon="108.799013">
        <ele>89.114206</ele>
        <time>2026-08-14T06:21:16.000Z</time>
      </trkpt>
      <trkpt lat="22.772948" lon="108.799040">
        <ele>89.129720</ele>
        <time>2026-08-14T06:21:17.000Z</time>
      </trkpt>
      <trkpt lat="22.772960" lon="108.799065">
        <ele>89.144075</ele>
        <time>2026-08-14T06:21:18.000Z</time>
      </trkpt>
      <trkpt lat="22.772973" lon="108.799091">
        <ele>89.159139</ele>
        <time>2026-08-14T06:21:19.000Z</time>
      </trkpt>
      <trkpt lat="22.772988" lon="108.799119">
        <ele>89.175633</ele>
        <time>2026-08-14T06:21:20.000Z</time>
      </trkpt>
      <trkpt lat="22.773002" lon="108.799149">
        <ele>89.192758</ele>
        <time>2026-08-14T06:21:21.000Z</time>
      </trkpt>
      <trkpt lat="22.773016" lon="108.799180">
        <ele>89.210340</ele>
        <time>2026-08-14T06:21:22.000Z</time>
      </trkpt>
      <trkpt lat="22.773033" lon="108.799210">
        <ele>89.228275</ele>
        <time>2026-08-14T06:21:23.000Z</time>
      </trkpt>
      <trkpt lat="22.773050" lon="108.799242">
        <ele>89.247085</ele>
        <time>2026-08-14T06:21:24.000Z</time>
      </trkpt>
      <trkpt lat="22.773069" lon="108.799273">
        <ele>89.266044</ele>
        <time>2026-08-14T06:21:25.000Z</time>
      </trkpt>
      <trkpt lat="22.773089" lon="108.799304">
        <ele>89.285315</ele>
        <time>2026-08-14T06:21:26.000Z</time>
      </trkpt>
      <trkpt lat="22.773111" lon="108.799335">
        <ele>89.305240</ele>
        <time>2026-08-14T06:21:27.000Z</time>
      </trkpt>
      <trkpt lat="22.773134" lon="108.799364">
        <ele>89.324723</ele>
        <time>2026-08-14T06:21:28.000Z</time>
      </trkpt>
      <trkpt lat="22.773159" lon="108.799392">
        <ele>89.344574</ele>
        <time>2026-08-14T06:21:29.000Z</time>
      </trkpt>
      <trkpt lat="22.773183" lon="108.799423">
        <ele>89.365191</ele>
        <time>2026-08-14T06:21:30.000Z</time>
      </trkpt>
      <trkpt lat="22.773203" lon="108.799456">
        <ele>89.385305</ele>
        <time>2026-08-14T06:21:31.000Z</time>
      </trkpt>
      <trkpt lat="22.773225" lon="108.799489">
        <ele>89.406046</ele>
        <time>2026-08-14T06:21:32.000Z</time>
      </trkpt>
      <trkpt lat="22.773251" lon="108.799523">
        <ele>89.428544</ele>
        <time>2026-08-14T06:21:33.000Z</time>
      </trkpt>
      <trkpt lat="22.773278" lon="108.799557">
        <ele>89.451399</ele>
        <time>2026-08-14T06:21:34.000Z</time>
      </trkpt>
      <trkpt lat="22.773306" lon="108.799591">
        <ele>89.474618</ele>
        <time>2026-08-14T06:21:35.000Z</time>
      </trkpt>
      <trkpt lat="22.773331" lon="108.799625">
        <ele>89.496767</ele>
        <time>2026-08-14T06:21:36.000Z</time>
      </trkpt>
      <trkpt lat="22.773353" lon="108.799662">
        <ele>89.519191</ele>
        <time>2026-08-14T06:21:37.000Z</time>
      </trkpt>
      <trkpt lat="22.773373" lon="108.799702">
        <ele>89.542367</ele>
        <time>2026-08-14T06:21:38.000Z</time>
      </trkpt>
      <trkpt lat="22.773387" lon="108.799745">
        <ele>89.565593</ele>
        <time>2026-08-14T06:21:39.000Z</time>
      </trkpt>
      <trkpt lat="22.773401" lon="108.799787">
        <ele>89.588340</ele>
        <time>2026-08-14T06:21:40.000Z</time>
      </trkpt>
      <trkpt lat="22.773416" lon="108.799828">
        <ele>89.610806</ele>
        <time>2026-08-14T06:21:41.000Z</time>
      </trkpt>
      <trkpt lat="22.773432" lon="108.799870">
        <ele>89.633952</ele>
        <time>2026-08-14T06:21:42.000Z</time>
      </trkpt>
      <trkpt lat="22.773450" lon="108.799912">
        <ele>89.657542</ele>
        <time>2026-08-14T06:21:43.000Z</time>
      </trkpt>
      <trkpt lat="22.773467" lon="108.799953">
        <ele>89.680439</ele>
        <time>2026-08-14T06:21:44.000Z</time>
      </trkpt>
      <trkpt lat="22.773485" lon="108.799995">
        <ele>89.704028</ele>
        <time>2026-08-14T06:21:45.000Z</time>
      </trkpt>
      <trkpt lat="22.773502" lon="108.800038">
        <ele>89.727858</ele>
        <time>2026-08-14T06:21:46.000Z</time>
      </trkpt>
      <trkpt lat="22.773522" lon="108.800080">
        <ele>89.751934</ele>
        <time>2026-08-14T06:21:47.000Z</time>
      </trkpt>
      <trkpt lat="22.773542" lon="108.800123">
        <ele>89.776464</ele>
        <time>2026-08-14T06:21:48.000Z</time>
      </trkpt>
      <trkpt lat="22.773564" lon="108.800165">
        <ele>89.801067</ele>
        <time>2026-08-14T06:21:49.000Z</time>
      </trkpt>
      <trkpt lat="22.773586" lon="108.800207">
        <ele>89.825669</ele>
        <time>2026-08-14T06:21:50.000Z</time>
      </trkpt>
      <trkpt lat="22.773608" lon="108.800249">
        <ele>89.850272</ele>
        <time>2026-08-14T06:21:51.000Z</time>
      </trkpt>
      <trkpt lat="22.773629" lon="108.800293">
        <ele>89.875507</ele>
        <time>2026-08-14T06:21:52.000Z</time>
      </trkpt>
      <trkpt lat="22.773649" lon="108.800336">
        <ele>89.900037</ele>
        <time>2026-08-14T06:21:53.000Z</time>
      </trkpt>
      <trkpt lat="22.773671" lon="108.800380">
        <ele>89.925530</ele>
        <time>2026-08-14T06:21:54.000Z</time>
      </trkpt>
      <trkpt lat="22.773694" lon="108.800423">
        <ele>89.950850</ele>
        <time>2026-08-14T06:21:55.000Z</time>
      </trkpt>
      <trkpt lat="22.773717" lon="108.800466">
        <ele>89.976169</ele>
        <time>2026-08-14T06:21:56.000Z</time>
      </trkpt>
      <trkpt lat="22.773742" lon="108.800509">
        <ele>90.002061</ele>
        <time>2026-08-14T06:21:57.000Z</time>
      </trkpt>
      <trkpt lat="22.773765" lon="108.800552">
        <ele>90.027380</ele>
        <time>2026-08-14T06:21:58.000Z</time>
      </trkpt>
      <trkpt lat="22.773788" lon="108.800596">
        <ele>90.050921</ele>
        <time>2026-08-14T06:21:59.000Z</time>
      </trkpt>
      <trkpt lat="22.773812" lon="108.800639">
        <ele>90.061649</ele>
        <time>2026-08-14T06:22:00.000Z</time>
      </trkpt>
      <trkpt lat="22.773833" lon="108.800683">
        <ele>90.072224</ele>
        <time>2026-08-14T06:22:01.000Z</time>
      </trkpt>
      <trkpt lat="22.773856" lon="108.800726">
        <ele>90.082834</ele>
        <time>2026-08-14T06:22:02.000Z</time>
      </trkpt>
      <trkpt lat="22.773880" lon="108.800770">
        <ele>90.093746</ele>
        <time>2026-08-14T06:22:03.000Z</time>
      </trkpt>
      <trkpt lat="22.773903" lon="108.800814">
        <ele>90.104541</ele>
        <time>2026-08-14T06:22:04.000Z</time>
      </trkpt>
      <trkpt lat="22.773926" lon="108.800860">
        <ele>90.115710</ele>
        <time>2026-08-14T06:22:05.000Z</time>
      </trkpt>
      <trkpt lat="22.773949" lon="108.800904">
        <ele>90.126506</ele>
        <time>2026-08-14T06:22:06.000Z</time>
      </trkpt>
      <trkpt lat="22.773974" lon="108.800947">
        <ele>90.137356</ele>
        <time>2026-08-14T06:22:07.000Z</time>
      </trkpt>
      <trkpt lat="22.773999" lon="108.800990">
        <ele>90.148206</ele>
        <time>2026-08-14T06:22:08.000Z</time>
      </trkpt>
      <trkpt lat="22.774023" lon="108.801032">
        <ele>90.158753</ele>
        <time>2026-08-14T06:22:09.000Z</time>
      </trkpt>
      <trkpt lat="22.774049" lon="108.801077">
        <ele>90.170087</ele>
        <time>2026-08-14T06:22:10.000Z</time>
      </trkpt>
      <trkpt lat="22.774074" lon="108.801122">
        <ele>90.181301</ele>
        <time>2026-08-14T06:22:11.000Z</time>
      </trkpt>
      <trkpt lat="22.774100" lon="108.801168">
        <ele>90.192817</ele>
        <time>2026-08-14T06:22:12.000Z</time>
      </trkpt>
      <trkpt lat="22.774125" lon="108.801213">
        <ele>90.204030</ele>
        <time>2026-08-14T06:22:13.000Z</time>
      </trkpt>
      <trkpt lat="22.774150" lon="108.801257">
        <ele>90.215062</ele>
        <time>2026-08-14T06:22:14.000Z</time>
      </trkpt>
      <trkpt lat="22.774175" lon="108.801301">
        <ele>90.226093</ele>
        <time>2026-08-14T06:22:15.000Z</time>
      </trkpt>
      <trkpt lat="22.774200" lon="108.801347">
        <ele>90.237490</ele>
        <time>2026-08-14T06:22:16.000Z</time>
      </trkpt>
      <trkpt lat="22.774223" lon="108.801393">
        <ele>90.248658</ele>
        <time>2026-08-14T06:22:17.000Z</time>
      </trkpt>
      <trkpt lat="22.774247" lon="108.801438">
        <ele>90.259754</ele>
        <time>2026-08-14T06:22:18.000Z</time>
      </trkpt>
      <trkpt lat="22.774272" lon="108.801484">
        <ele>90.271151</ele>
        <time>2026-08-14T06:22:19.000Z</time>
      </trkpt>
      <trkpt lat="22.774297" lon="108.801530">
        <ele>90.282548</ele>
        <time>2026-08-14T06:22:20.000Z</time>
      </trkpt>
      <trkpt lat="22.774321" lon="108.801576">
        <ele>90.293829</ele>
        <time>2026-08-14T06:22:21.000Z</time>
      </trkpt>
      <trkpt lat="22.774345" lon="108.801622">
        <ele>90.305110</ele>
        <time>2026-08-14T06:22:22.000Z</time>
      </trkpt>
      <trkpt lat="22.774370" lon="108.801668">
        <ele>90.316507</ele>
        <time>2026-08-14T06:22:23.000Z</time>
      </trkpt>
      <trkpt lat="22.774396" lon="108.801714">
        <ele>90.328023</ele>
        <time>2026-08-14T06:22:24.000Z</time>
      </trkpt>
      <trkpt lat="22.774421" lon="108.801761">
        <ele>90.339604</ele>
        <time>2026-08-14T06:22:25.000Z</time>
      </trkpt>
      <trkpt lat="22.774445" lon="108.801807">
        <ele>90.350885</ele>
        <time>2026-08-14T06:22:26.000Z</time>
      </trkpt>
      <trkpt lat="22.774469" lon="108.801851">
        <ele>90.361797</ele>
        <time>2026-08-14T06:22:27.000Z</time>
      </trkpt>
      <trkpt lat="22.774495" lon="108.801894">
        <ele>90.372772</ele>
        <time>2026-08-14T06:22:28.000Z</time>
      </trkpt>
      <trkpt lat="22.774519" lon="108.801938">
        <ele>90.383684</ele>
        <time>2026-08-14T06:22:29.000Z</time>
      </trkpt>
      <trkpt lat="22.774543" lon="108.801983">
        <ele>90.394779</ele>
        <time>2026-08-14T06:22:30.000Z</time>
      </trkpt>
      <trkpt lat="22.774567" lon="108.802027">
        <ele>90.405691</ele>
        <time>2026-08-14T06:22:31.000Z</time>
      </trkpt>
      <trkpt lat="22.774591" lon="108.802071">
        <ele>90.416602</ele>
        <time>2026-08-14T06:22:32.000Z</time>
      </trkpt>
      <trkpt lat="22.774615" lon="108.802114">
        <ele>90.427331</ele>
        <time>2026-08-14T06:22:33.000Z</time>
      </trkpt>
      <trkpt lat="22.774640" lon="108.802156">
        <ele>90.438001</ele>
        <time>2026-08-14T06:22:34.000Z</time>
      </trkpt>
      <trkpt lat="22.774664" lon="108.802199">
        <ele>90.448729</ele>
        <time>2026-08-14T06:22:35.000Z</time>
      </trkpt>
      <trkpt lat="22.774688" lon="108.802243">
        <ele>90.459641</ele>
        <time>2026-08-14T06:22:36.000Z</time>
      </trkpt>
      <trkpt lat="22.774712" lon="108.802287">
        <ele>90.452716</ele>
        <time>2026-08-14T06:22:37.000Z</time>
      </trkpt>
      <trkpt lat="22.774736" lon="108.802330">
        <ele>90.424177</ele>
        <time>2026-08-14T06:22:38.000Z</time>
      </trkpt>
      <trkpt lat="22.774759" lon="108.802372">
        <ele>90.396442</ele>
        <time>2026-08-14T06:22:39.000Z</time>
      </trkpt>
      <trkpt lat="22.774782" lon="108.802415">
        <ele>90.368217</ele>
        <time>2026-08-14T06:22:40.000Z</time>
      </trkpt>
      <trkpt lat="22.774805" lon="108.802458">
        <ele>90.339992</ele>
        <time>2026-08-14T06:22:41.000Z</time>
      </trkpt>
      <trkpt lat="22.774829" lon="108.802502">
        <ele>90.310966</ele>
        <time>2026-08-14T06:22:42.000Z</time>
      </trkpt>
      <trkpt lat="22.774853" lon="108.802545">
        <ele>90.282427</ele>
        <time>2026-08-14T06:22:43.000Z</time>
      </trkpt>
      <trkpt lat="22.774876" lon="108.802589">
        <ele>90.253709</ele>
        <time>2026-08-14T06:22:44.000Z</time>
      </trkpt>
      <trkpt lat="22.774899" lon="108.802633">
        <ele>90.224992</ele>
        <time>2026-08-14T06:22:45.000Z</time>
      </trkpt>
      <trkpt lat="22.774922" lon="108.802676">
        <ele>90.196767</ele>
        <time>2026-08-14T06:22:46.000Z</time>
      </trkpt>
      <trkpt lat="22.774946" lon="108.802720">
        <ele>90.167740</ele>
        <time>2026-08-14T06:22:47.000Z</time>
      </trkpt>
      <trkpt lat="22.774969" lon="108.802764">
        <ele>90.139023</ele>
        <time>2026-08-14T06:22:48.000Z</time>
      </trkpt>
      <trkpt lat="22.774992" lon="108.802808">
        <ele>90.110305</ele>
        <time>2026-08-14T06:22:49.000Z</time>
      </trkpt>
      <trkpt lat="22.775013" lon="108.802852">
        <ele>90.082175</ele>
        <time>2026-08-14T06:22:50.000Z</time>
      </trkpt>
      <trkpt lat="22.775034" lon="108.802896">
        <ele>90.054044</ele>
        <time>2026-08-14T06:22:51.000Z</time>
      </trkpt>
      <trkpt lat="22.775054" lon="108.802942">
        <ele>90.025168</ele>
        <time>2026-08-14T06:22:52.000Z</time>
      </trkpt>
      <trkpt lat="22.775075" lon="108.802988">
        <ele>89.996025</ele>
        <time>2026-08-14T06:22:53.000Z</time>
      </trkpt>
      <trkpt lat="22.775095" lon="108.803035">
        <ele>89.966634</ele>
        <time>2026-08-14T06:22:54.000Z</time>
      </trkpt>
      <trkpt lat="22.775115" lon="108.803083">
        <ele>89.936728</ele>
        <time>2026-08-14T06:22:55.000Z</time>
      </trkpt>
      <trkpt lat="22.775137" lon="108.803131">
        <ele>89.906293</ele>
        <time>2026-08-14T06:22:56.000Z</time>
      </trkpt>
      <trkpt lat="22.775157" lon="108.803178">
        <ele>89.876903</ele>
        <time>2026-08-14T06:22:57.000Z</time>
      </trkpt>
      <trkpt lat="22.775176" lon="108.803226">
        <ele>89.847244</ele>
        <time>2026-08-14T06:22:58.000Z</time>
      </trkpt>
      <trkpt lat="22.775194" lon="108.803274">
        <ele>89.817823</ele>
        <time>2026-08-14T06:22:59.000Z</time>
      </trkpt>
      <trkpt lat="22.775212" lon="108.803322">
        <ele>89.788403</ele>
        <time>2026-08-14T06:23:00.000Z</time>
      </trkpt>
      <trkpt lat="22.775230" lon="108.803372">
        <ele>89.757927</ele>
        <time>2026-08-14T06:23:01.000Z</time>
      </trkpt>
      <trkpt lat="22.775247" lon="108.803424">
        <ele>89.726601</ele>
        <time>2026-08-14T06:23:02.000Z</time>
      </trkpt>
      <trkpt lat="22.775265" lon="108.803476">
        <ele>89.695065</ele>
        <time>2026-08-14T06:23:03.000Z</time>
      </trkpt>
      <trkpt lat="22.775283" lon="108.803530">
        <ele>89.662463</ele>
        <time>2026-08-14T06:23:04.000Z</time>
      </trkpt>
      <trkpt lat="22.775299" lon="108.803585">
        <ele>89.629718</ele>
        <time>2026-08-14T06:23:05.000Z</time>
      </trkpt>
      <trkpt lat="22.775315" lon="108.803639">
        <ele>89.597514</ele>
        <time>2026-08-14T06:23:06.000Z</time>
      </trkpt>
      <trkpt lat="22.775331" lon="108.803694">
        <ele>89.564769</ele>
        <time>2026-08-14T06:23:07.000Z</time>
      </trkpt>
      <trkpt lat="22.775347" lon="108.803751">
        <ele>89.530940</ele>
        <time>2026-08-14T06:23:08.000Z</time>
      </trkpt>
      <trkpt lat="22.775363" lon="108.803808">
        <ele>89.497110</ele>
        <time>2026-08-14T06:23:09.000Z</time>
      </trkpt>
      <trkpt lat="22.775380" lon="108.803866">
        <ele>89.462556</ele>
        <time>2026-08-14T06:23:10.000Z</time>
      </trkpt>
      <trkpt lat="22.775396" lon="108.803925">
        <ele>89.427638</ele>
        <time>2026-08-14T06:23:11.000Z</time>
      </trkpt>
      <trkpt lat="22.775411" lon="108.803984">
        <ele>89.392889</ele>
        <time>2026-08-14T06:23:12.000Z</time>
      </trkpt>
      <trkpt lat="22.775424" lon="108.804044">
        <ele>89.357920</ele>
        <time>2026-08-14T06:23:13.000Z</time>
      </trkpt>
      <trkpt lat="22.775438" lon="108.804104">
        <ele>89.327153</ele>
        <time>2026-08-14T06:23:14.000Z</time>
      </trkpt>
      <trkpt lat="22.775451" lon="108.804167">
        <ele>89.295059</ele>
        <time>2026-08-14T06:23:15.000Z</time>
      </trkpt>
      <trkpt lat="22.775465" lon="108.804231">
        <ele>89.262360</ele>
        <time>2026-08-14T06:23:16.000Z</time>
      </trkpt>
      <trkpt lat="22.775479" lon="108.804296">
        <ele>89.229176</ele>
        <time>2026-08-14T06:23:17.000Z</time>
      </trkpt>
      <trkpt lat="22.775492" lon="108.804361">
        <ele>89.196112</ele>
        <time>2026-08-14T06:23:18.000Z</time>
      </trkpt>
      <trkpt lat="22.775504" lon="108.804428">
        <ele>89.162182</ele>
        <time>2026-08-14T06:23:19.000Z</time>
      </trkpt>
      <trkpt lat="22.775517" lon="108.804496">
        <ele>89.127658</ele>
        <time>2026-08-14T06:23:20.000Z</time>
      </trkpt>
      <trkpt lat="22.775532" lon="108.804565">
        <ele>89.092416</ele>
        <time>2026-08-14T06:23:21.000Z</time>
      </trkpt>
      <trkpt lat="22.775545" lon="108.804634">
        <ele>89.057405</ele>
        <time>2026-08-14T06:23:22.000Z</time>
      </trkpt>
      <trkpt lat="22.775559" lon="108.804705">
        <ele>89.021311</ele>
        <time>2026-08-14T06:23:23.000Z</time>
      </trkpt>
      <trkpt lat="22.775573" lon="108.804777">
        <ele>88.984731</ele>
        <time>2026-08-14T06:23:24.000Z</time>
      </trkpt>
      <trkpt lat="22.775587" lon="108.804851">
        <ele>88.947177</ele>
        <time>2026-08-14T06:23:25.000Z</time>
      </trkpt>
      <trkpt lat="22.775601" lon="108.804927">
        <ele>88.908649</ele>
        <time>2026-08-14T06:23:26.000Z</time>
      </trkpt>
      <trkpt lat="22.775616" lon="108.805001">
        <ele>88.870983</ele>
        <time>2026-08-14T06:23:27.000Z</time>
      </trkpt>
      <trkpt lat="22.775631" lon="108.805076">
        <ele>88.832831</ele>
        <time>2026-08-14T06:23:28.000Z</time>
      </trkpt>
      <trkpt lat="22.775646" lon="108.805151">
        <ele>88.794680</ele>
        <time>2026-08-14T06:23:29.000Z</time>
      </trkpt>
      <trkpt lat="22.775661" lon="108.805227">
        <ele>88.756042</ele>
        <time>2026-08-14T06:23:30.000Z</time>
      </trkpt>
      <trkpt lat="22.775674" lon="108.805304">
        <ele>88.717127</ele>
        <time>2026-08-14T06:23:31.000Z</time>
      </trkpt>
      <trkpt lat="22.775687" lon="108.805379">
        <ele>88.679190</ele>
        <time>2026-08-14T06:23:32.000Z</time>
      </trkpt>
      <trkpt lat="22.775700" lon="108.805453">
        <ele>88.641741</ele>
        <time>2026-08-14T06:23:33.000Z</time>
      </trkpt>
      <trkpt lat="22.775714" lon="108.805527">
        <ele>88.604187</ele>
        <time>2026-08-14T06:23:34.000Z</time>
      </trkpt>
      <trkpt lat="22.775728" lon="108.805600">
        <ele>88.567120</ele>
        <time>2026-08-14T06:23:35.000Z</time>
      </trkpt>
      <trkpt lat="22.775741" lon="108.805671">
        <ele>88.531135</ele>
        <time>2026-08-14T06:23:36.000Z</time>
      </trkpt>
      <trkpt lat="22.775754" lon="108.805741">
        <ele>88.495637</ele>
        <time>2026-08-14T06:23:37.000Z</time>
      </trkpt>
      <trkpt lat="22.775767" lon="108.805808">
        <ele>88.461600</ele>
        <time>2026-08-14T06:23:38.000Z</time>
      </trkpt>
      <trkpt lat="22.775782" lon="108.805873">
        <ele>88.428290</ele>
        <time>2026-08-14T06:23:39.000Z</time>
      </trkpt>
      <trkpt lat="22.775797" lon="108.805935">
        <ele>88.396425</ele>
        <time>2026-08-14T06:23:40.000Z</time>
      </trkpt>
      <trkpt lat="22.775809" lon="108.805995">
        <ele>88.429941</ele>
        <time>2026-08-14T06:23:41.000Z</time>
      </trkpt>
      <trkpt lat="22.775821" lon="108.806053">
        <ele>88.484763</ele>
        <time>2026-08-14T06:23:42.000Z</time>
      </trkpt>
      <trkpt lat="22.775832" lon="108.806111">
        <ele>88.539375</ele>
        <time>2026-08-14T06:23:43.000Z</time>
      </trkpt>
      <trkpt lat="22.775842" lon="108.806169">
        <ele>88.593794</ele>
        <time>2026-08-14T06:23:44.000Z</time>
      </trkpt>
      <trkpt lat="22.775852" lon="108.806226">
        <ele>88.647306</ele>
        <time>2026-08-14T06:23:45.000Z</time>
      </trkpt>
      <trkpt lat="22.775862" lon="108.806282">
        <ele>88.699913</ele>
        <time>2026-08-14T06:23:46.000Z</time>
      </trkpt>
      <trkpt lat="22.775873" lon="108.806337">
        <ele>88.751818</ele>
        <time>2026-08-14T06:23:47.000Z</time>
      </trkpt>
      <trkpt lat="22.775883" lon="108.806390">
        <ele>88.801711</ele>
        <time>2026-08-14T06:23:48.000Z</time>
      </trkpt>
      <trkpt lat="22.775893" lon="108.806443">
        <ele>88.851604</ele>
        <time>2026-08-14T06:23:49.000Z</time>
      </trkpt>
      <trkpt lat="22.775902" lon="108.806496">
        <ele>88.901307</ele>
        <time>2026-08-14T06:23:50.000Z</time>
      </trkpt>
      <trkpt lat="22.775911" lon="108.806547">
        <ele>88.949196</ele>
        <time>2026-08-14T06:23:51.000Z</time>
      </trkpt>
      <trkpt lat="22.775922" lon="108.806598">
        <ele>88.997502</ele>
        <time>2026-08-14T06:23:52.000Z</time>
      </trkpt>
      <trkpt lat="22.775932" lon="108.806649">
        <ele>89.045589</ele>
        <time>2026-08-14T06:23:53.000Z</time>
      </trkpt>
      <trkpt lat="22.775942" lon="108.806698">
        <ele>89.091874</ele>
        <time>2026-08-14T06:23:54.000Z</time>
      </trkpt>
      <trkpt lat="22.775953" lon="108.806745">
        <ele>89.136596</ele>
        <time>2026-08-14T06:23:55.000Z</time>
      </trkpt>
      <trkpt lat="22.775964" lon="108.806792">
        <ele>89.181317</ele>
        <time>2026-08-14T06:23:56.000Z</time>
      </trkpt>
      <trkpt lat="22.775973" lon="108.806837">
        <ele>89.223785</ele>
        <time>2026-08-14T06:23:57.000Z</time>
      </trkpt>
      <trkpt lat="22.775982" lon="108.806880">
        <ele>89.264451</ele>
        <time>2026-08-14T06:23:58.000Z</time>
      </trkpt>
      <trkpt lat="22.775992" lon="108.806923">
        <ele>89.305351</ele>
        <time>2026-08-14T06:23:59.000Z</time>
      </trkpt>
      <trkpt lat="22.776003" lon="108.806965">
        <ele>89.345619</ele>
        <time>2026-08-14T06:24:00.000Z</time>
      </trkpt>
      <trkpt lat="22.776015" lon="108.807006">
        <ele>89.385291</ele>
        <time>2026-08-14T06:24:01.000Z</time>
      </trkpt>
      <trkpt lat="22.776027" lon="108.807047">
        <ele>89.424963</ele>
        <time>2026-08-14T06:24:02.000Z</time>
      </trkpt>
      <trkpt lat="22.776040" lon="108.807089">
        <ele>89.465823</ele>
        <time>2026-08-14T06:24:03.000Z</time>
      </trkpt>
      <trkpt lat="22.776053" lon="108.807131">
        <ele>89.506683</ele>
        <time>2026-08-14T06:24:04.000Z</time>
      </trkpt>
      <trkpt lat="22.776065" lon="108.807172">
        <ele>89.546355</ele>
        <time>2026-08-14T06:24:05.000Z</time>
      </trkpt>
      <trkpt lat="22.776079" lon="108.807213">
        <ele>89.586678</ele>
        <time>2026-08-14T06:24:06.000Z</time>
      </trkpt>
      <trkpt lat="22.776092" lon="108.807254">
        <ele>89.626665</ele>
        <time>2026-08-14T06:24:07.000Z</time>
      </trkpt>
      <trkpt lat="22.776107" lon="108.807295">
        <ele>89.667346</ele>
        <time>2026-08-14T06:24:08.000Z</time>
      </trkpt>
      <trkpt lat="22.776123" lon="108.807336">
        <ele>89.708406</ele>
        <time>2026-08-14T06:24:09.000Z</time>
      </trkpt>
      <trkpt lat="22.776139" lon="108.807377">
        <ele>89.749467</ele>
        <time>2026-08-14T06:24:10.000Z</time>
      </trkpt>
      <trkpt lat="22.776156" lon="108.807418">
        <ele>89.790927</ele>
        <time>2026-08-14T06:24:11.000Z</time>
      </trkpt>
      <trkpt lat="22.776174" lon="108.807459">
        <ele>89.832808</ele>
        <time>2026-08-14T06:24:12.000Z</time>
      </trkpt>
      <trkpt lat="22.776192" lon="108.807501">
        <ele>89.875523</ele>
        <time>2026-08-14T06:24:13.000Z</time>
      </trkpt>
      <trkpt lat="22.776210" lon="108.807543">
        <ele>89.918239</ele>
        <time>2026-08-14T06:24:14.000Z</time>
      </trkpt>
      <trkpt lat="22.776229" lon="108.807585">
        <ele>89.961385</ele>
        <time>2026-08-14T06:24:15.000Z</time>
      </trkpt>
      <trkpt lat="22.776247" lon="108.807626">
        <ele>90.003266</ele>
        <time>2026-08-14T06:24:16.000Z</time>
      </trkpt>
      <trkpt lat="22.776267" lon="108.807668">
        <ele>90.046862</ele>
        <time>2026-08-14T06:24:17.000Z</time>
      </trkpt>
      <trkpt lat="22.776288" lon="108.807708">
        <ele>90.089314</ele>
        <time>2026-08-14T06:24:18.000Z</time>
      </trkpt>
      <trkpt lat="22.776310" lon="108.807749">
        <ele>90.133064</ele>
        <time>2026-08-14T06:24:19.000Z</time>
      </trkpt>
      <trkpt lat="22.776332" lon="108.807790">
        <ele>90.176814</ele>
        <time>2026-08-14T06:24:20.000Z</time>
      </trkpt>
      <trkpt lat="22.776355" lon="108.807832">
        <ele>90.155424</ele>
        <time>2026-08-14T06:24:21.000Z</time>
      </trkpt>
      <trkpt lat="22.776379" lon="108.807874">
        <ele>90.113011</ele>
        <time>2026-08-14T06:24:22.000Z</time>
      </trkpt>
      <trkpt lat="22.776402" lon="108.807918">
        <ele>90.069596</ele>
        <time>2026-08-14T06:24:23.000Z</time>
      </trkpt>
      <trkpt lat="22.776426" lon="108.807961">
        <ele>90.026451</ele>
        <time>2026-08-14T06:24:24.000Z</time>
      </trkpt>
      <trkpt lat="22.776454" lon="108.808004">
        <ele>89.981265</ele>
        <time>2026-08-14T06:24:25.000Z</time>
      </trkpt>
      <trkpt lat="22.776480" lon="108.808048">
        <ele>89.936406</ele>
        <time>2026-08-14T06:24:26.000Z</time>
      </trkpt>
      <trkpt lat="22.776510" lon="108.808089">
        <ele>89.891478</ele>
        <time>2026-08-14T06:24:27.000Z</time>
      </trkpt>
      <trkpt lat="22.776541" lon="108.808131">
        <ele>89.845299</ele>
        <time>2026-08-14T06:24:28.000Z</time>
      </trkpt>
      <trkpt lat="22.776572" lon="108.808174">
        <ele>89.798446</ele>
        <time>2026-08-14T06:24:29.000Z</time>
      </trkpt>
      <trkpt lat="22.776604" lon="108.808218">
        <ele>89.750343</ele>
        <time>2026-08-14T06:24:30.000Z</time>
      </trkpt>
      <trkpt lat="22.776636" lon="108.808261">
        <ele>89.702911</ele>
        <time>2026-08-14T06:24:31.000Z</time>
      </trkpt>
      <trkpt lat="22.776667" lon="108.808304">
        <ele>89.656059</ele>
        <time>2026-08-14T06:24:32.000Z</time>
      </trkpt>
      <trkpt lat="22.776699" lon="108.808348">
        <ele>89.607956</ele>
        <time>2026-08-14T06:24:33.000Z</time>
      </trkpt>
      <trkpt lat="22.776734" lon="108.808392">
        <ele>89.558075</ele>
        <time>2026-08-14T06:24:34.000Z</time>
      </trkpt>
      <trkpt lat="22.776769" lon="108.808436">
        <ele>89.508195</ele>
        <time>2026-08-14T06:24:35.000Z</time>
      </trkpt>
      <trkpt lat="22.776804" lon="108.808481">
        <ele>89.457661</ele>
        <time>2026-08-14T06:24:36.000Z</time>
      </trkpt>
      <trkpt lat="22.776841" lon="108.808528">
        <ele>89.404614</ele>
        <time>2026-08-14T06:24:37.000Z</time>
      </trkpt>
      <trkpt lat="22.776879" lon="108.808576">
        <ele>89.350309</ele>
        <time>2026-08-14T06:24:38.000Z</time>
      </trkpt>
      <trkpt lat="22.776915" lon="108.808625">
        <ele>89.296530</ele>
        <time>2026-08-14T06:24:39.000Z</time>
      </trkpt>
      <trkpt lat="22.776952" lon="108.808674">
        <ele>89.242166</ele>
        <time>2026-08-14T06:24:40.000Z</time>
      </trkpt>
      <trkpt lat="22.776988" lon="108.808722">
        <ele>89.189055</ele>
        <time>2026-08-14T06:24:41.000Z</time>
      </trkpt>
      <trkpt lat="22.777024" lon="108.808770">
        <ele>89.135945</ele>
        <time>2026-08-14T06:24:42.000Z</time>
      </trkpt>
      <trkpt lat="22.777062" lon="108.808818">
        <ele>89.081640</ele>
        <time>2026-08-14T06:24:43.000Z</time>
      </trkpt>
      <trkpt lat="22.777100" lon="108.808866">
        <ele>89.027335</ele>
        <time>2026-08-14T06:24:44.000Z</time>
      </trkpt>
      <trkpt lat="22.777139" lon="108.808916">
        <ele>88.971120</ele>
        <time>2026-08-14T06:24:45.000Z</time>
      </trkpt>
      <trkpt lat="22.777178" lon="108.808965">
        <ele>88.915558</ele>
        <time>2026-08-14T06:24:46.000Z</time>
      </trkpt>
      <trkpt lat="22.777221" lon="108.809014">
        <ele>88.857493</ele>
        <time>2026-08-14T06:24:47.000Z</time>
      </trkpt>
      <trkpt lat="22.777264" lon="108.809063">
        <ele>88.799429</ele>
        <time>2026-08-14T06:24:48.000Z</time>
      </trkpt>
      <trkpt lat="22.777306" lon="108.809112">
        <ele>88.742003</ele>
        <time>2026-08-14T06:24:49.000Z</time>
      </trkpt>
      <trkpt lat="22.777348" lon="108.809163">
        <ele>88.683307</ele>
        <time>2026-08-14T06:24:50.000Z</time>
      </trkpt>
      <trkpt lat="22.777389" lon="108.809212">
        <ele>88.626511</ele>
        <time>2026-08-14T06:24:51.000Z</time>
      </trkpt>
      <trkpt lat="22.777430" lon="108.809263">
        <ele>88.568431</ele>
        <time>2026-08-14T06:24:52.000Z</time>
      </trkpt>
      <trkpt lat="22.777471" lon="108.809315">
        <ele>88.513542</ele>
        <time>2026-08-14T06:24:53.000Z</time>
      </trkpt>
      <trkpt lat="22.777513" lon="108.809367">
        <ele>88.523249</ele>
        <time>2026-08-14T06:24:54.000Z</time>
      </trkpt>
      <trkpt lat="22.777555" lon="108.809419">
        <ele>88.532956</ele>
        <time>2026-08-14T06:24:55.000Z</time>
      </trkpt>
      <trkpt lat="22.777595" lon="108.809472">
        <ele>88.542573</ele>
        <time>2026-08-14T06:24:56.000Z</time>
      </trkpt>
      <trkpt lat="22.777634" lon="108.809522">
        <ele>88.551769</ele>
        <time>2026-08-14T06:24:57.000Z</time>
      </trkpt>
      <trkpt lat="22.777674" lon="108.809571">
        <ele>88.560958</ele>
        <time>2026-08-14T06:24:58.000Z</time>
      </trkpt>
      <trkpt lat="22.777712" lon="108.809622">
        <ele>88.570165</ele>
        <time>2026-08-14T06:24:59.000Z</time>
      </trkpt>
      <trkpt lat="22.777751" lon="108.809673">
        <ele>88.579469</ele>
        <time>2026-08-14T06:25:00.000Z</time>
      </trkpt>
      <trkpt lat="22.777791" lon="108.809722">
        <ele>88.588658</ele>
        <time>2026-08-14T06:25:01.000Z</time>
      </trkpt>
      <trkpt lat="22.777832" lon="108.809769">
        <ele>88.597743</ele>
        <time>2026-08-14T06:25:02.000Z</time>
      </trkpt>
      <trkpt lat="22.777872" lon="108.809817">
        <ele>88.606828</ele>
        <time>2026-08-14T06:25:03.000Z</time>
      </trkpt>
      <trkpt lat="22.777910" lon="108.809866">
        <ele>88.615818</ele>
        <time>2026-08-14T06:25:04.000Z</time>
      </trkpt>
      <trkpt lat="22.777948" lon="108.809915">
        <ele>88.624808</ele>
        <time>2026-08-14T06:25:05.000Z</time>
      </trkpt>
      <trkpt lat="22.777986" lon="108.809962">
        <ele>88.633586</ele>
        <time>2026-08-14T06:25:06.000Z</time>
      </trkpt>
      <trkpt lat="22.778023" lon="108.810010">
        <ele>88.642371</ele>
        <time>2026-08-14T06:25:07.000Z</time>
      </trkpt>
      <trkpt lat="22.778059" lon="108.810057">
        <ele>88.650950</ele>
        <time>2026-08-14T06:25:08.000Z</time>
      </trkpt>
      <trkpt lat="22.778095" lon="108.810102">
        <ele>88.659315</ele>
        <time>2026-08-14T06:25:09.000Z</time>
      </trkpt>
      <trkpt lat="22.778132" lon="108.810148">
        <ele>88.667887</ele>
        <time>2026-08-14T06:25:10.000Z</time>
      </trkpt>
      <trkpt lat="22.778168" lon="108.810194">
        <ele>88.676359</ele>
        <time>2026-08-14T06:25:11.000Z</time>
      </trkpt>
      <trkpt lat="22.778204" lon="108.810240">
        <ele>88.684831</ele>
        <time>2026-08-14T06:25:12.000Z</time>
      </trkpt>
      <trkpt lat="22.778239" lon="108.810286">
        <ele>88.693205</ele>
        <time>2026-08-14T06:25:13.000Z</time>
      </trkpt>
      <trkpt lat="22.778276" lon="108.810333">
        <ele>88.701883</ele>
        <time>2026-08-14T06:25:14.000Z</time>
      </trkpt>
      <trkpt lat="22.778310" lon="108.810381">
        <ele>88.710382</ele>
        <time>2026-08-14T06:25:15.000Z</time>
      </trkpt>
      <trkpt lat="22.778345" lon="108.810427">
        <ele>88.718756</ele>
        <time>2026-08-14T06:25:16.000Z</time>
      </trkpt>
      <trkpt lat="22.778380" lon="108.810472">
        <ele>88.727022</ele>
        <time>2026-08-14T06:25:17.000Z</time>
      </trkpt>
      <trkpt lat="22.778415" lon="108.810518">
        <ele>88.735397</ele>
        <time>2026-08-14T06:25:18.000Z</time>
      </trkpt>
      <trkpt lat="22.778449" lon="108.810563">
        <ele>88.743566</ele>
        <time>2026-08-14T06:25:19.000Z</time>
      </trkpt>
      <trkpt lat="22.778486" lon="108.810606">
        <ele>88.751824</ele>
        <time>2026-08-14T06:25:20.000Z</time>
      </trkpt>
      <trkpt lat="22.778522" lon="108.810648">
        <ele>88.759876</ele>
        <time>2026-08-14T06:25:21.000Z</time>
      </trkpt>
      <trkpt lat="22.778557" lon="108.810690">
        <ele>88.767825</ele>
        <time>2026-08-14T06:25:22.000Z</time>
      </trkpt>
      <trkpt lat="22.778592" lon="108.810734">
        <ele>88.775985</ele>
        <time>2026-08-14T06:25:23.000Z</time>
      </trkpt>
      <trkpt lat="22.778627" lon="108.810776">
        <ele>88.783934</ele>
        <time>2026-08-14T06:25:24.000Z</time>
      </trkpt>
      <trkpt lat="22.778660" lon="108.810820">
        <ele>88.823369</ele>
        <time>2026-08-14T06:25:25.000Z</time>
      </trkpt>
      <trkpt lat="22.778693" lon="108.810865">
        <ele>88.882437</ele>
        <time>2026-08-14T06:25:26.000Z</time>
      </trkpt>
      <trkpt lat="22.778727" lon="108.810907">
        <ele>88.939855</ele>
        <time>2026-08-14T06:25:27.000Z</time>
      </trkpt>
      <trkpt lat="22.778759" lon="108.810948">
        <ele>88.995039</ele>
        <time>2026-08-14T06:25:28.000Z</time>
      </trkpt>
      <trkpt lat="22.778793" lon="108.810987">
        <ele>89.050178</ele>
        <time>2026-08-14T06:25:29.000Z</time>
      </trkpt>
      <trkpt lat="22.778826" lon="108.811025">
        <ele>89.103805</ele>
        <time>2026-08-14T06:25:30.000Z</time>
      </trkpt>
      <trkpt lat="22.778858" lon="108.811064">
        <ele>89.157438</ele>
        <time>2026-08-14T06:25:31.000Z</time>
      </trkpt>
      <trkpt lat="22.778890" lon="108.811102">
        <ele>89.210307</ele>
        <time>2026-08-14T06:25:32.000Z</time>
      </trkpt>
      <trkpt lat="22.778921" lon="108.811140">
        <ele>89.262432</ele>
        <time>2026-08-14T06:25:33.000Z</time>
      </trkpt>
      <trkpt lat="22.778953" lon="108.811178">
        <ele>89.315301</ele>
        <time>2026-08-14T06:25:34.000Z</time>
      </trkpt>
      <trkpt lat="22.778984" lon="108.811215">
        <ele>89.366661</ele>
        <time>2026-08-14T06:25:35.000Z</time>
      </trkpt>
      <trkpt lat="22.779015" lon="108.811253">
        <ele>89.418786</ele>
        <time>2026-08-14T06:25:36.000Z</time>
      </trkpt>
      <trkpt lat="22.779046" lon="108.811291">
        <ele>89.470910</ele>
        <time>2026-08-14T06:25:37.000Z</time>
      </trkpt>
      <trkpt lat="22.779078" lon="108.811328">
        <ele>89.523026</ele>
        <time>2026-08-14T06:25:38.000Z</time>
      </trkpt>
      <trkpt lat="22.779110" lon="108.811364">
        <ele>89.574397</ele>
        <time>2026-08-14T06:25:39.000Z</time>
      </trkpt>
      <trkpt lat="22.779141" lon="108.811399">
        <ele>89.624255</ele>
        <time>2026-08-14T06:25:40.000Z</time>
      </trkpt>
      <trkpt lat="22.779173" lon="108.811436">
        <ele>89.676370</ele>
        <time>2026-08-14T06:25:41.000Z</time>
      </trkpt>
      <trkpt lat="22.779205" lon="108.811472">
        <ele>89.727741</ele>
        <time>2026-08-14T06:25:42.000Z</time>
      </trkpt>
      <trkpt lat="22.779236" lon="108.811507">
        <ele>89.777600</ele>
        <time>2026-08-14T06:25:43.000Z</time>
      </trkpt>
      <trkpt lat="22.779267" lon="108.811541">
        <ele>89.826722</ele>
        <time>2026-08-14T06:25:44.000Z</time>
      </trkpt>
      <trkpt lat="22.779297" lon="108.811576">
        <ele>89.875815</ele>
        <time>2026-08-14T06:25:45.000Z</time>
      </trkpt>
      <trkpt lat="22.779327" lon="108.811609">
        <ele>89.923424</ele>
        <time>2026-08-14T06:25:46.000Z</time>
      </trkpt>
      <trkpt lat="22.779357" lon="108.811641">
        <ele>89.970306</ele>
        <time>2026-08-14T06:25:47.000Z</time>
      </trkpt>
      <trkpt lat="22.779387" lon="108.811673">
        <ele>90.017189</ele>
        <time>2026-08-14T06:25:48.000Z</time>
      </trkpt>
      <trkpt lat="22.779418" lon="108.811707">
        <ele>90.066312</ele>
        <time>2026-08-14T06:25:49.000Z</time>
      </trkpt>
      <trkpt lat="22.779447" lon="108.811739">
        <ele>90.112406</ele>
        <time>2026-08-14T06:25:50.000Z</time>
      </trkpt>
      <trkpt lat="22.779479" lon="108.811771">
        <ele>90.160903</ele>
        <time>2026-08-14T06:25:51.000Z</time>
      </trkpt>
      <trkpt lat="22.779507" lon="108.811800">
        <ele>90.204041</ele>
        <time>2026-08-14T06:25:52.000Z</time>
      </trkpt>
      <trkpt lat="22.779537" lon="108.811829">
        <ele>90.248816</ele>
        <time>2026-08-14T06:25:53.000Z</time>
      </trkpt>
      <trkpt lat="22.779568" lon="108.811860">
        <ele>90.295797</ele>
        <time>2026-08-14T06:25:54.000Z</time>
      </trkpt>
      <trkpt lat="22.779598" lon="108.811891">
        <ele>90.341965</ele>
        <time>2026-08-14T06:25:55.000Z</time>
      </trkpt>
      <trkpt lat="22.779630" lon="108.811922">
        <ele>90.389772</ele>
        <time>2026-08-14T06:25:56.000Z</time>
      </trkpt>
      <trkpt lat="22.779660" lon="108.811952">
        <ele>90.435237</ele>
        <time>2026-08-14T06:25:57.000Z</time>
      </trkpt>
      <trkpt lat="22.779691" lon="108.811982">
        <ele>90.481528</ele>
        <time>2026-08-14T06:25:58.000Z</time>
      </trkpt>
      <trkpt lat="22.779719" lon="108.812012">
        <ele>90.525381</ele>
        <time>2026-08-14T06:25:59.000Z</time>
      </trkpt>
      <trkpt lat="22.779748" lon="108.812040">
        <ele>90.568642</ele>
        <time>2026-08-14T06:26:00.000Z</time>
      </trkpt>
      <trkpt lat="22.779778" lon="108.812069">
        <ele>90.613417</ele>
        <time>2026-08-14T06:26:01.000Z</time>
      </trkpt>
      <trkpt lat="22.779808" lon="108.812099">
        <ele>90.658883</ele>
        <time>2026-08-14T06:26:02.000Z</time>
      </trkpt>
      <trkpt lat="22.779838" lon="108.812129">
        <ele>90.704348</ele>
        <time>2026-08-14T06:26:03.000Z</time>
      </trkpt>
      <trkpt lat="22.779868" lon="108.812159">
        <ele>90.749814</ele>
        <time>2026-08-14T06:26:04.000Z</time>
      </trkpt>
      <trkpt lat="22.779898" lon="108.812189">
        <ele>90.798108</ele>
        <time>2026-08-14T06:26:05.000Z</time>
      </trkpt>
      <trkpt lat="22.779926" lon="108.812220">
        <ele>90.871982</ele>
        <time>2026-08-14T06:26:06.000Z</time>
      </trkpt>
      <trkpt lat="22.779956" lon="108.812251">
        <ele>90.948486</ele>
        <time>2026-08-14T06:26:07.000Z</time>
      </trkpt>
      <trkpt lat="22.779988" lon="108.812281">
        <ele>91.026581</ele>
        <time>2026-08-14T06:26:08.000Z</time>
      </trkpt>
      <trkpt lat="22.780020" lon="108.812312">
        <ele>91.105799</ele>
        <time>2026-08-14T06:26:09.000Z</time>
      </trkpt>
      <trkpt lat="22.780050" lon="108.812344">
        <ele>91.183487</ele>
        <time>2026-08-14T06:26:10.000Z</time>
      </trkpt>
      <trkpt lat="22.780080" lon="108.812376">
        <ele>91.261175</ele>
        <time>2026-08-14T06:26:11.000Z</time>
      </trkpt>
      <trkpt lat="22.780109" lon="108.812410">
        <ele>91.340022</ele>
        <time>2026-08-14T06:26:12.000Z</time>
      </trkpt>
      <trkpt lat="22.780138" lon="108.812445">
        <ele>91.420126</ele>
        <time>2026-08-14T06:26:13.000Z</time>
      </trkpt>
      <trkpt lat="22.780166" lon="108.812479">
        <ele>91.497731</ele>
        <time>2026-08-14T06:26:14.000Z</time>
      </trkpt>
      <trkpt lat="22.780194" lon="108.812514">
        <ele>91.576613</ele>
        <time>2026-08-14T06:26:15.000Z</time>
      </trkpt>
      <trkpt lat="22.780222" lon="108.812547">
        <ele>91.652957</ele>
        <time>2026-08-14T06:26:16.000Z</time>
      </trkpt>
      <trkpt lat="22.780248" lon="108.812583">
        <ele>91.730803</ele>
        <time>2026-08-14T06:26:17.000Z</time>
      </trkpt>
      <trkpt lat="22.780275" lon="108.812619">
        <ele>91.809801</ele>
        <time>2026-08-14T06:26:18.000Z</time>
      </trkpt>
      <trkpt lat="22.780300" lon="108.812657">
        <ele>91.889268</ele>
        <time>2026-08-14T06:26:19.000Z</time>
      </trkpt>
      <trkpt lat="22.780325" lon="108.812696">
        <ele>91.970127</ele>
        <time>2026-08-14T06:26:20.000Z</time>
      </trkpt>
      <trkpt lat="22.780350" lon="108.812736">
        <ele>92.052389</ele>
        <time>2026-08-14T06:26:21.000Z</time>
      </trkpt>
      <trkpt lat="22.780373" lon="108.812776">
        <ele>92.132638</ele>
        <time>2026-08-14T06:26:22.000Z</time>
      </trkpt>
      <trkpt lat="22.780396" lon="108.812816">
        <ele>92.212886</ele>
        <time>2026-08-14T06:26:23.000Z</time>
      </trkpt>
      <trkpt lat="22.780418" lon="108.812856">
        <ele>92.292173</ele>
        <time>2026-08-14T06:26:24.000Z</time>
      </trkpt>
      <trkpt lat="22.780440" lon="108.812896">
        <ele>92.371460</ele>
        <time>2026-08-14T06:26:25.000Z</time>
      </trkpt>
      <trkpt lat="22.780460" lon="108.812938">
        <ele>92.451930</ele>
        <time>2026-08-14T06:26:26.000Z</time>
      </trkpt>
      <trkpt lat="22.780478" lon="108.812981">
        <ele>92.532320</ele>
        <time>2026-08-14T06:26:27.000Z</time>
      </trkpt>
      <trkpt lat="22.780496" lon="108.813024">
        <ele>92.612710</ele>
        <time>2026-08-14T06:26:28.000Z</time>
      </trkpt>
      <trkpt lat="22.780514" lon="108.813066">
        <ele>92.691553</ele>
        <time>2026-08-14T06:26:29.000Z</time>
      </trkpt>
      <trkpt lat="22.780530" lon="108.813111">
        <ele>92.773655</ele>
        <time>2026-08-14T06:26:30.000Z</time>
      </trkpt>
      <trkpt lat="22.780545" lon="108.813156">
        <ele>92.855111</ele>
        <time>2026-08-14T06:26:31.000Z</time>
      </trkpt>
      <trkpt lat="22.780559" lon="108.813203">
        <ele>92.939191</ele>
        <time>2026-08-14T06:26:32.000Z</time>
      </trkpt>
      <trkpt lat="22.780573" lon="108.813249">
        <ele>93.021653</ele>
        <time>2026-08-14T06:26:33.000Z</time>
      </trkpt>
      <trkpt lat="22.780587" lon="108.813295">
        <ele>93.104115</ele>
        <time>2026-08-14T06:26:34.000Z</time>
      </trkpt>
      <trkpt lat="22.780599" lon="108.813343">
        <ele>93.188776</ele>
        <time>2026-08-14T06:26:35.000Z</time>
      </trkpt>
      <trkpt lat="22.780609" lon="108.813390">
        <ele>93.270886</ele>
        <time>2026-08-14T06:26:36.000Z</time>
      </trkpt>
      <trkpt lat="22.780618" lon="108.813437">
        <ele>93.352602</ele>
        <time>2026-08-14T06:26:37.000Z</time>
      </trkpt>
      <trkpt lat="22.780625" lon="108.813484">
        <ele>93.433647</ele>
        <time>2026-08-14T06:26:38.000Z</time>
      </trkpt>
      <trkpt lat="22.780632" lon="108.813532">
        <ele>93.516373</ele>
        <time>2026-08-14T06:26:39.000Z</time>
      </trkpt>
      <trkpt lat="22.780638" lon="108.813579">
        <ele>93.597144</ele>
        <time>2026-08-14T06:26:40.000Z</time>
      </trkpt>
      <trkpt lat="22.780644" lon="108.813625">
        <ele>93.676230</ele>
        <time>2026-08-14T06:26:41.000Z</time>
      </trkpt>
      <trkpt lat="22.780650" lon="108.813670">
        <ele>93.753630</ele>
        <time>2026-08-14T06:26:42.000Z</time>
      </trkpt>
      <trkpt lat="22.780655" lon="108.813714">
        <ele>93.829098</ele>
        <time>2026-08-14T06:26:43.000Z</time>
      </trkpt>
      <trkpt lat="22.780660" lon="108.813759">
        <ele>93.906255</ele>
        <time>2026-08-14T06:26:44.000Z</time>
      </trkpt>
      <trkpt lat="22.780663" lon="108.813804">
        <ele>93.983059</ele>
        <time>2026-08-14T06:26:45.000Z</time>
      </trkpt>
      <trkpt lat="22.780665" lon="108.813848">
        <ele>94.058051</ele>
        <time>2026-08-14T06:26:46.000Z</time>
      </trkpt>
      <trkpt lat="22.780667" lon="108.813893">
        <ele>94.125391</ele>
        <time>2026-08-14T06:26:47.000Z</time>
      </trkpt>
      <trkpt lat="22.780668" lon="108.813940">
        <ele>94.172730</ele>
        <time>2026-08-14T06:26:48.000Z</time>
      </trkpt>
      <trkpt lat="22.780668" lon="108.813986">
        <ele>94.219049</ele>
        <time>2026-08-14T06:26:49.000Z</time>
      </trkpt>
      <trkpt lat="22.780671" lon="108.814032">
        <ele>94.265483</ele>
        <time>2026-08-14T06:26:50.000Z</time>
      </trkpt>
      <trkpt lat="22.780674" lon="108.814077">
        <ele>94.310914</ele>
        <time>2026-08-14T06:26:51.000Z</time>
      </trkpt>
      <trkpt lat="22.780677" lon="108.814123">
        <ele>94.357348</ele>
        <time>2026-08-14T06:26:52.000Z</time>
      </trkpt>
      <trkpt lat="22.780680" lon="108.814170">
        <ele>94.404788</ele>
        <time>2026-08-14T06:26:53.000Z</time>
      </trkpt>
      <trkpt lat="22.780682" lon="108.814216">
        <ele>94.451158</ele>
        <time>2026-08-14T06:26:54.000Z</time>
      </trkpt>
      <trkpt lat="22.780684" lon="108.814262">
        <ele>94.497529</ele>
        <time>2026-08-14T06:26:55.000Z</time>
      </trkpt>
      <trkpt lat="22.780688" lon="108.814309">
        <ele>94.545056</ele>
        <time>2026-08-14T06:26:56.000Z</time>
      </trkpt>
      <trkpt lat="22.780691" lon="108.814355">
        <ele>94.591491</ele>
        <time>2026-08-14T06:26:57.000Z</time>
      </trkpt>
      <trkpt lat="22.780693" lon="108.814403">
        <ele>94.639873</ele>
        <time>2026-08-14T06:26:58.000Z</time>
      </trkpt>
      <trkpt lat="22.780697" lon="108.814451">
        <ele>94.688403</ele>
        <time>2026-08-14T06:26:59.000Z</time>
      </trkpt>
      <trkpt lat="22.780702" lon="108.814498">
        <ele>94.736043</ele>
        <time>2026-08-14T06:27:00.000Z</time>
      </trkpt>
      <trkpt lat="22.780706" lon="108.814544">
        <ele>94.782567</ele>
        <time>2026-08-14T06:27:01.000Z</time>
      </trkpt>
      <trkpt lat="22.780710" lon="108.814590">
        <ele>94.829092</ele>
        <time>2026-08-14T06:27:02.000Z</time>
      </trkpt>
      <trkpt lat="22.780716" lon="108.814636">
        <ele>94.875872</ele>
        <time>2026-08-14T06:27:03.000Z</time>
      </trkpt>
      <trkpt lat="22.780722" lon="108.814681">
        <ele>94.921655</ele>
        <time>2026-08-14T06:27:04.000Z</time>
      </trkpt>
      <trkpt lat="22.780729" lon="108.814727">
        <ele>94.968601</ele>
        <time>2026-08-14T06:27:05.000Z</time>
      </trkpt>
      <trkpt lat="22.780738" lon="108.814774">
        <ele>95.016937</ele>
        <time>2026-08-14T06:27:06.000Z</time>
      </trkpt>
      <trkpt lat="22.780746" lon="108.814820">
        <ele>95.064073</ele>
        <time>2026-08-14T06:27:07.000Z</time>
      </trkpt>
      <trkpt lat="22.780755" lon="108.814867">
        <ele>95.112409</ele>
        <time>2026-08-14T06:27:08.000Z</time>
      </trkpt>
      <trkpt lat="22.780766" lon="108.814914">
        <ele>95.161235</ele>
        <time>2026-08-14T06:27:09.000Z</time>
      </trkpt>
      <trkpt lat="22.780777" lon="108.814961">
        <ele>95.210062</ele>
        <time>2026-08-14T06:27:10.000Z</time>
      </trkpt>
      <trkpt lat="22.780790" lon="108.815009">
        <ele>95.260437</ele>
        <time>2026-08-14T06:27:11.000Z</time>
      </trkpt>
      <trkpt lat="22.780801" lon="108.815057">
        <ele>95.310241</ele>
        <time>2026-08-14T06:27:12.000Z</time>
      </trkpt>
      <trkpt lat="22.780814" lon="108.815104">
        <ele>95.359650</ele>
        <time>2026-08-14T06:27:13.000Z</time>
      </trkpt>
      <trkpt lat="22.780827" lon="108.815152">
        <ele>95.410025</ele>
        <time>2026-08-14T06:27:14.000Z</time>
      </trkpt>
      <trkpt lat="22.780840" lon="108.815200">
        <ele>95.460400</ele>
        <time>2026-08-14T06:27:15.000Z</time>
      </trkpt>
      <trkpt lat="22.780855" lon="108.815246">
        <ele>95.509531</ele>
        <time>2026-08-14T06:27:16.000Z</time>
      </trkpt>
      <trkpt lat="22.780871" lon="108.815292">
        <ele>95.559036</ele>
        <time>2026-08-14T06:27:17.000Z</time>
      </trkpt>
      <trkpt lat="22.780887" lon="108.815339">
        <ele>95.609485</ele>
        <time>2026-08-14T06:27:18.000Z</time>
      </trkpt>
      <trkpt lat="22.780905" lon="108.815386">
        <ele>95.660731</ele>
        <time>2026-08-14T06:27:19.000Z</time>
      </trkpt>
      <trkpt lat="22.780923" lon="108.815433">
        <ele>95.711978</ele>
        <time>2026-08-14T06:27:20.000Z</time>
      </trkpt>
      <trkpt lat="22.780942" lon="108.815483">
        <ele>95.766433</ele>
        <time>2026-08-14T06:27:21.000Z</time>
      </trkpt>
      <trkpt lat="22.780962" lon="108.815531">
        <ele>95.819472</ele>
        <time>2026-08-14T06:27:22.000Z</time>
      </trkpt>
      <trkpt lat="22.780981" lon="108.815580">
        <ele>95.872998</ele>
        <time>2026-08-14T06:27:23.000Z</time>
      </trkpt>
      <trkpt lat="22.781000" lon="108.815629">
        <ele>95.926523</ele>
        <time>2026-08-14T06:27:24.000Z</time>
      </trkpt>
      <trkpt lat="22.781020" lon="108.815679">
        <ele>95.981404</ele>
        <time>2026-08-14T06:27:25.000Z</time>
      </trkpt>
      <trkpt lat="22.781040" lon="108.815728">
        <ele>96.035362</ele>
        <time>2026-08-14T06:27:26.000Z</time>
      </trkpt>
      <trkpt lat="22.781061" lon="108.815778">
        <ele>96.078123</ele>
        <time>2026-08-14T06:27:27.000Z</time>
      </trkpt>
      <trkpt lat="22.781081" lon="108.815830">
        <ele>96.085664</ele>
        <time>2026-08-14T06:27:28.000Z</time>
      </trkpt>
      <trkpt lat="22.781101" lon="108.815882">
        <ele>96.093204</ele>
        <time>2026-08-14T06:27:29.000Z</time>
      </trkpt>
      <trkpt lat="22.781123" lon="108.815933">
        <ele>96.100740</ele>
        <time>2026-08-14T06:27:30.000Z</time>
      </trkpt>
      <trkpt lat="22.781144" lon="108.815984">
        <ele>96.108216</ele>
        <time>2026-08-14T06:27:31.000Z</time>
      </trkpt>
      <trkpt lat="22.781164" lon="108.816037">
        <ele>96.115880</ele>
        <time>2026-08-14T06:27:32.000Z</time>
      </trkpt>
      <trkpt lat="22.781184" lon="108.816091">
        <ele>96.123669</ele>
        <time>2026-08-14T06:27:33.000Z</time>
      </trkpt>
      <trkpt lat="22.781203" lon="108.816146">
        <ele>96.131529</ele>
        <time>2026-08-14T06:27:34.000Z</time>
      </trkpt>
      <trkpt lat="22.781221" lon="108.816200">
        <ele>96.139214</ele>
        <time>2026-08-14T06:27:35.000Z</time>
      </trkpt>
      <trkpt lat="22.781239" lon="108.816255">
        <ele>96.147025</ele>
        <time>2026-08-14T06:27:36.000Z</time>
      </trkpt>
      <trkpt lat="22.781257" lon="108.816312">
        <ele>96.155089</ele>
        <time>2026-08-14T06:27:37.000Z</time>
      </trkpt>
      <trkpt lat="22.781272" lon="108.816370">
        <ele>96.163151</ele>
        <time>2026-08-14T06:27:38.000Z</time>
      </trkpt>
      <trkpt lat="22.781286" lon="108.816427">
        <ele>96.171046</ele>
        <time>2026-08-14T06:27:39.000Z</time>
      </trkpt>
      <trkpt lat="22.781298" lon="108.816485">
        <ele>96.179002</ele>
        <time>2026-08-14T06:27:40.000Z</time>
      </trkpt>
      <trkpt lat="22.781310" lon="108.816544">
        <ele>96.187088</ele>
        <time>2026-08-14T06:27:41.000Z</time>
      </trkpt>
      <trkpt lat="22.781320" lon="108.816603">
        <ele>96.195117</ele>
        <time>2026-08-14T06:27:42.000Z</time>
      </trkpt>
      <trkpt lat="22.781326" lon="108.816662">
        <ele>96.203061</ele>
        <time>2026-08-14T06:27:43.000Z</time>
      </trkpt>
      <trkpt lat="22.781333" lon="108.816719">
        <ele>96.210757</ele>
        <time>2026-08-14T06:27:44.000Z</time>
      </trkpt>
      <trkpt lat="22.781340" lon="108.816776">
        <ele>96.218453</ele>
        <time>2026-08-14T06:27:45.000Z</time>
      </trkpt>
      <trkpt lat="22.781345" lon="108.816835">
        <ele>96.226383</ele>
        <time>2026-08-14T06:27:46.000Z</time>
      </trkpt>
      <trkpt lat="22.781350" lon="108.816894">
        <ele>96.234312</ele>
        <time>2026-08-14T06:27:47.000Z</time>
      </trkpt>
      <trkpt lat="22.781354" lon="108.816951">
        <ele>96.241963</ele>
        <time>2026-08-14T06:27:48.000Z</time>
      </trkpt>
      <trkpt lat="22.781357" lon="108.817008">
        <ele>96.249604</ele>
        <time>2026-08-14T06:27:49.000Z</time>
      </trkpt>
      <trkpt lat="22.781358" lon="108.817066">
        <ele>96.257368</ele>
        <time>2026-08-14T06:27:50.000Z</time>
      </trkpt>
      <trkpt lat="22.781357" lon="108.817125">
        <ele>96.265266</ele>
        <time>2026-08-14T06:27:51.000Z</time>
      </trkpt>
      <trkpt lat="22.781356" lon="108.817184">
        <ele>96.273163</ele>
        <time>2026-08-14T06:27:52.000Z</time>
      </trkpt>
      <trkpt lat="22.781354" lon="108.817243">
        <ele>96.281065</ele>
        <time>2026-08-14T06:27:53.000Z</time>
      </trkpt>
      <trkpt lat="22.781354" lon="108.817301">
        <ele>96.288827</ele>
        <time>2026-08-14T06:27:54.000Z</time>
      </trkpt>
      <trkpt lat="22.781351" lon="108.817358">
        <ele>96.296469</ele>
        <time>2026-08-14T06:27:55.000Z</time>
      </trkpt>
      <trkpt lat="22.781347" lon="108.817417">
        <ele>96.304386</ele>
        <time>2026-08-14T06:27:56.000Z</time>
      </trkpt>
      <trkpt lat="22.781343" lon="108.817475">
        <ele>96.312170</ele>
        <time>2026-08-14T06:27:57.000Z</time>
      </trkpt>
      <trkpt lat="22.781340" lon="108.817532">
        <ele>96.319812</ele>
        <time>2026-08-14T06:27:58.000Z</time>
      </trkpt>
      <trkpt lat="22.781339" lon="108.817590">
        <ele>96.327575</ele>
        <time>2026-08-14T06:27:59.000Z</time>
      </trkpt>
      <trkpt lat="22.781338" lon="108.817648">
        <ele>96.335339</ele>
        <time>2026-08-14T06:28:00.000Z</time>
      </trkpt>
      <trkpt lat="22.781337" lon="108.817707">
        <ele>96.257792</ele>
        <time>2026-08-14T06:28:01.000Z</time>
      </trkpt>
      <trkpt lat="22.781336" lon="108.817764">
        <ele>96.155811</ele>
        <time>2026-08-14T06:28:02.000Z</time>
      </trkpt>
      <trkpt lat="22.781334" lon="108.817822">
        <ele>96.051988</ele>
        <time>2026-08-14T06:28:03.000Z</time>
      </trkpt>
      <trkpt lat="22.781334" lon="108.817880">
        <ele>95.948237</ele>
        <time>2026-08-14T06:28:04.000Z</time>
      </trkpt>
      <trkpt lat="22.781336" lon="108.817938">
        <ele>95.844413</ele>
        <time>2026-08-14T06:28:05.000Z</time>
      </trkpt>
      <trkpt lat="22.781338" lon="108.817996">
        <ele>95.740590</ele>
        <time>2026-08-14T06:28:06.000Z</time>
      </trkpt>
      <trkpt lat="22.781342" lon="108.818056">
        <ele>95.632981</ele>
        <time>2026-08-14T06:28:07.000Z</time>
      </trkpt>
      <trkpt lat="22.781346" lon="108.818115">
        <ele>95.527156</ele>
        <time>2026-08-14T06:28:08.000Z</time>
      </trkpt>
      <trkpt lat="22.781353" lon="108.818175">
        <ele>95.418972</ele>
        <time>2026-08-14T06:28:09.000Z</time>
      </trkpt>
      <trkpt lat="22.781360" lon="108.818235">
        <ele>95.310787</ele>
        <time>2026-08-14T06:28:10.000Z</time>
      </trkpt>
      <trkpt lat="22.781367" lon="108.818295">
        <ele>95.202603</ele>
        <time>2026-08-14T06:28:11.000Z</time>
      </trkpt>
      <trkpt lat="22.781377" lon="108.818355">
        <ele>95.093535</ele>
        <time>2026-08-14T06:28:12.000Z</time>
      </trkpt>
      <trkpt lat="22.781388" lon="108.818415">
        <ele>94.984105</ele>
        <time>2026-08-14T06:28:13.000Z</time>
      </trkpt>
      <trkpt lat="22.781401" lon="108.818474">
        <ele>94.875593</ele>
        <time>2026-08-14T06:28:14.000Z</time>
      </trkpt>
      <trkpt lat="22.781416" lon="108.818536">
        <ele>94.760932</ele>
        <time>2026-08-14T06:28:15.000Z</time>
      </trkpt>
      <trkpt lat="22.781433" lon="108.818597">
        <ele>94.646939</ele>
        <time>2026-08-14T06:28:16.000Z</time>
      </trkpt>
      <trkpt lat="22.781451" lon="108.818658">
        <ele>94.532369</ele>
        <time>2026-08-14T06:28:17.000Z</time>
      </trkpt>
      <trkpt lat="22.781472" lon="108.818718">
        <ele>94.417567</ele>
        <time>2026-08-14T06:28:18.000Z</time>
      </trkpt>
      <trkpt lat="22.781495" lon="108.818778">
        <ele>94.301332</ele>
        <time>2026-08-14T06:28:19.000Z</time>
      </trkpt>
      <trkpt lat="22.781520" lon="108.818838">
        <ele>94.183552</ele>
        <time>2026-08-14T06:28:20.000Z</time>
      </trkpt>
      <trkpt lat="22.781545" lon="108.818898">
        <ele>94.065773</ele>
        <time>2026-08-14T06:28:21.000Z</time>
      </trkpt>
      <trkpt lat="22.781572" lon="108.818960">
        <ele>93.943117</ele>
        <time>2026-08-14T06:28:22.000Z</time>
      </trkpt>
      <trkpt lat="22.781602" lon="108.819022">
        <ele>93.817866</ele>
        <time>2026-08-14T06:28:23.000Z</time>
      </trkpt>
      <trkpt lat="22.781634" lon="108.819085">
        <ele>93.689201</ele>
        <time>2026-08-14T06:28:24.000Z</time>
      </trkpt>
      <trkpt lat="22.781667" lon="108.819149">
        <ele>93.558030</ele>
        <time>2026-08-14T06:28:25.000Z</time>
      </trkpt>
      <trkpt lat="22.781702" lon="108.819214">
        <ele>93.423381</ele>
        <time>2026-08-14T06:28:26.000Z</time>
      </trkpt>
      <trkpt lat="22.781737" lon="108.819278">
        <ele>93.290273</ele>
        <time>2026-08-14T06:28:27.000Z</time>
      </trkpt>
      <trkpt lat="22.781775" lon="108.819342">
        <ele>93.154104</ele>
        <time>2026-08-14T06:28:28.000Z</time>
      </trkpt>
      <trkpt lat="22.781813" lon="108.819407">
        <ele>93.016427</ele>
        <time>2026-08-14T06:28:29.000Z</time>
      </trkpt>
      <trkpt lat="22.781851" lon="108.819473">
        <ele>92.877237</ele>
        <time>2026-08-14T06:28:30.000Z</time>
      </trkpt>
      <trkpt lat="22.781887" lon="108.819543">
        <ele>92.712329</ele>
        <time>2026-08-14T06:28:31.000Z</time>
      </trkpt>
      <trkpt lat="22.781924" lon="108.819612">
        <ele>92.542523</ele>
        <time>2026-08-14T06:28:32.000Z</time>
      </trkpt>
      <trkpt lat="22.781961" lon="108.819683">
        <ele>92.369027</ele>
        <time>2026-08-14T06:28:33.000Z</time>
      </trkpt>
      <trkpt lat="22.781998" lon="108.819754">
        <ele>92.195530</ele>
        <time>2026-08-14T06:28:34.000Z</time>
      </trkpt>
      <trkpt lat="22.782035" lon="108.819827">
        <ele>92.018318</ele>
        <time>2026-08-14T06:28:35.000Z</time>
      </trkpt>
      <trkpt lat="22.782070" lon="108.819902">
        <ele>91.839496</ele>
        <time>2026-08-14T06:28:36.000Z</time>
      </trkpt>
      <trkpt lat="22.782103" lon="108.819980">
        <ele>91.656930</ele>
        <time>2026-08-14T06:28:37.000Z</time>
      </trkpt>
      <trkpt lat="22.782133" lon="108.820059">
        <ele>91.475175</ele>
        <time>2026-08-14T06:28:38.000Z</time>
      </trkpt>
      <trkpt lat="22.782159" lon="108.820139">
        <ele>91.294727</ele>
        <time>2026-08-14T06:28:39.000Z</time>
      </trkpt>
      <trkpt lat="22.782184" lon="108.820221">
        <ele>91.110998</ele>
        <time>2026-08-14T06:28:40.000Z</time>
      </trkpt>
      <trkpt lat="22.782206" lon="108.820303">
        <ele>90.929323</ele>
        <time>2026-08-14T06:28:41.000Z</time>
      </trkpt>
      <trkpt lat="22.782226" lon="108.820387">
        <ele>90.744767</ele>
        <time>2026-08-14T06:28:42.000Z</time>
      </trkpt>
      <trkpt lat="22.782245" lon="108.820471">
        <ele>90.560774</ele>
        <time>2026-08-14T06:28:43.000Z</time>
      </trkpt>
      <trkpt lat="22.782260" lon="108.820556">
        <ele>90.376670</ele>
        <time>2026-08-14T06:28:44.000Z</time>
      </trkpt>
      <trkpt lat="22.782271" lon="108.820639">
        <ele>90.198289</ele>
        <time>2026-08-14T06:28:45.000Z</time>
      </trkpt>
      <trkpt lat="22.782280" lon="108.820722">
        <ele>90.020505</ele>
        <time>2026-08-14T06:28:46.000Z</time>
      </trkpt>
      <trkpt lat="22.782287" lon="108.820805">
        <ele>89.843202</ele>
        <time>2026-08-14T06:28:47.000Z</time>
      </trkpt>
      <trkpt lat="22.782294" lon="108.820886">
        <ele>89.670134</ele>
        <time>2026-08-14T06:28:48.000Z</time>
      </trkpt>
      <trkpt lat="22.782300" lon="108.820966">
        <ele>89.499388</ele>
        <time>2026-08-14T06:28:49.000Z</time>
      </trkpt>
      <trkpt lat="22.782303" lon="108.821047">
        <ele>89.326937</ele>
        <time>2026-08-14T06:28:50.000Z</time>
      </trkpt>
      <trkpt lat="22.782306" lon="108.821130">
        <ele>89.150235</ele>
        <time>2026-08-14T06:28:51.000Z</time>
      </trkpt>
      <trkpt lat="22.782310" lon="108.821212">
        <ele>88.975551</ele>
        <time>2026-08-14T06:28:52.000Z</time>
      </trkpt>
      <trkpt lat="22.782316" lon="108.821294">
        <ele>88.800564</ele>
        <time>2026-08-14T06:28:53.000Z</time>
      </trkpt>
      <trkpt lat="22.782321" lon="108.821376">
        <ele>88.694365</ele>
        <time>2026-08-14T06:28:54.000Z</time>
      </trkpt>
      <trkpt lat="22.782323" lon="108.821458">
        <ele>88.686543</ele>
        <time>2026-08-14T06:28:55.000Z</time>
      </trkpt>
      <trkpt lat="22.782326" lon="108.821540">
        <ele>88.678718</ele>
        <time>2026-08-14T06:28:56.000Z</time>
      </trkpt>
      <trkpt lat="22.782327" lon="108.821622">
        <ele>88.670898</ele>
        <time>2026-08-14T06:28:57.000Z</time>
      </trkpt>
      <trkpt lat="22.782327" lon="108.821704">
        <ele>88.663079</ele>
        <time>2026-08-14T06:28:58.000Z</time>
      </trkpt>
      <trkpt lat="22.782327" lon="108.821787">
        <ele>88.655165</ele>
        <time>2026-08-14T06:28:59.000Z</time>
      </trkpt>
      <trkpt lat="22.782325" lon="108.821870">
        <ele>88.647248</ele>
        <time>2026-08-14T06:29:00.000Z</time>
      </trkpt>
      <trkpt lat="22.782323" lon="108.821951">
        <ele>88.639521</ele>
        <time>2026-08-14T06:29:01.000Z</time>
      </trkpt>
      <trkpt lat="22.782318" lon="108.822033">
        <ele>88.631685</ele>
        <time>2026-08-14T06:29:02.000Z</time>
      </trkpt>
      <trkpt lat="22.782312" lon="108.822113">
        <ele>88.624032</ele>
        <time>2026-08-14T06:29:03.000Z</time>
      </trkpt>
      <trkpt lat="22.782304" lon="108.822193">
        <ele>88.616359</ele>
        <time>2026-08-14T06:29:04.000Z</time>
      </trkpt>
      <trkpt lat="22.782294" lon="108.822273">
        <ele>88.608661</ele>
        <time>2026-08-14T06:29:05.000Z</time>
      </trkpt>
      <trkpt lat="22.782283" lon="108.822351">
        <ele>88.601136</ele>
        <time>2026-08-14T06:29:06.000Z</time>
      </trkpt>
      <trkpt lat="22.782273" lon="108.822428">
        <ele>88.593722</ele>
        <time>2026-08-14T06:29:07.000Z</time>
      </trkpt>
      <trkpt lat="22.782262" lon="108.822504">
        <ele>88.586386</ele>
        <time>2026-08-14T06:29:08.000Z</time>
      </trkpt>
      <trkpt lat="22.782249" lon="108.822577">
        <ele>88.579297</ele>
        <time>2026-08-14T06:29:09.000Z</time>
      </trkpt>
      <trkpt lat="22.782233" lon="108.822650">
        <ele>88.572142</ele>
        <time>2026-08-14T06:29:10.000Z</time>
      </trkpt>
      <trkpt lat="22.782215" lon="108.822722">
        <ele>88.565028</ele>
        <time>2026-08-14T06:29:11.000Z</time>
      </trkpt>
      <trkpt lat="22.782196" lon="108.822794">
        <ele>88.557887</ele>
        <time>2026-08-14T06:29:12.000Z</time>
      </trkpt>
      <trkpt lat="22.782177" lon="108.822864">
        <ele>88.550929</ele>
        <time>2026-08-14T06:29:13.000Z</time>
      </trkpt>
      <trkpt lat="22.782160" lon="108.822934">
        <ele>88.544027</ele>
        <time>2026-08-14T06:29:14.000Z</time>
      </trkpt>
      <trkpt lat="22.782142" lon="108.823002">
        <ele>88.537281</ele>
        <time>2026-08-14T06:29:15.000Z</time>
      </trkpt>
      <trkpt lat="22.782125" lon="108.823066">
        <ele>88.530930</ele>
        <time>2026-08-14T06:29:16.000Z</time>
      </trkpt>
      <trkpt lat="22.782104" lon="108.823129">
        <ele>88.524542</ele>
        <time>2026-08-14T06:29:17.000Z</time>
      </trkpt>
      <trkpt lat="22.782083" lon="108.823190">
        <ele>88.518333</ele>
        <time>2026-08-14T06:29:18.000Z</time>
      </trkpt>
      <trkpt lat="22.782062" lon="108.823249">
        <ele>88.512302</ele>
        <time>2026-08-14T06:29:19.000Z</time>
      </trkpt>
      <trkpt lat="22.782041" lon="108.823307">
        <ele>88.549482</ele>
        <time>2026-08-14T06:29:20.000Z</time>
      </trkpt>
      <trkpt lat="22.782020" lon="108.823365">
        <ele>88.592777</ele>
        <time>2026-08-14T06:29:21.000Z</time>
      </trkpt>
      <trkpt lat="22.782000" lon="108.823422">
        <ele>88.635152</ele>
        <time>2026-08-14T06:29:22.000Z</time>
      </trkpt>
      <trkpt lat="22.781980" lon="108.823480">
        <ele>88.678176</ele>
        <time>2026-08-14T06:29:23.000Z</time>
      </trkpt>
      <trkpt lat="22.781960" lon="108.823535">
        <ele>88.719256</ele>
        <time>2026-08-14T06:29:24.000Z</time>
      </trkpt>
      <trkpt lat="22.781939" lon="108.823590">
        <ele>88.760617</ele>
        <time>2026-08-14T06:29:25.000Z</time>
      </trkpt>
      <trkpt lat="22.781922" lon="108.823646">
        <ele>88.801581</ele>
        <time>2026-08-14T06:29:26.000Z</time>
      </trkpt>
      <trkpt lat="22.781905" lon="108.823700">
        <ele>88.841227</ele>
        <time>2026-08-14T06:29:27.000Z</time>
      </trkpt>
      <trkpt lat="22.781887" lon="108.823754">
        <ele>88.881123</ele>
        <time>2026-08-14T06:29:28.000Z</time>
      </trkpt>
      <trkpt lat="22.781872" lon="108.823807">
        <ele>88.919644</ele>
        <time>2026-08-14T06:29:29.000Z</time>
      </trkpt>
      <trkpt lat="22.781856" lon="108.823858">
        <ele>88.957074</ele>
        <time>2026-08-14T06:29:30.000Z</time>
      </trkpt>
      <trkpt lat="22.781840" lon="108.823910">
        <ele>88.995163</ele>
        <time>2026-08-14T06:29:31.000Z</time>
      </trkpt>
      <trkpt lat="22.781824" lon="108.823960">
        <ele>89.031936</ele>
        <time>2026-08-14T06:29:32.000Z</time>
      </trkpt>
      <trkpt lat="22.781810" lon="108.824009">
        <ele>89.067579</ele>
        <time>2026-08-14T06:29:33.000Z</time>
      </trkpt>
      <trkpt lat="22.781797" lon="108.824058">
        <ele>89.103006</ele>
        <time>2026-08-14T06:29:34.000Z</time>
      </trkpt>
      <trkpt lat="22.781785" lon="108.824107">
        <ele>89.138232</ele>
        <time>2026-08-14T06:29:35.000Z</time>
      </trkpt>
      <trkpt lat="22.781773" lon="108.824156">
        <ele>89.173457</ele>
        <time>2026-08-14T06:29:36.000Z</time>
      </trkpt>
      <trkpt lat="22.781761" lon="108.824207">
        <ele>89.210028</ele>
        <time>2026-08-14T06:29:37.000Z</time>
      </trkpt>
      <trkpt lat="22.781752" lon="108.824257">
        <ele>89.245424</ele>
        <time>2026-08-14T06:29:38.000Z</time>
      </trkpt>
      <trkpt lat="22.781744" lon="108.824306">
        <ele>89.279999</ele>
        <time>2026-08-14T06:29:39.000Z</time>
      </trkpt>
      <trkpt lat="22.781736" lon="108.824355">
        <ele>89.314575</ele>
        <time>2026-08-14T06:29:40.000Z</time>
      </trkpt>
      <trkpt lat="22.781731" lon="108.824404">
        <ele>89.348828</ele>
        <time>2026-08-14T06:29:41.000Z</time>
      </trkpt>
      <trkpt lat="22.781725" lon="108.824454">
        <ele>89.383861</ele>
        <time>2026-08-14T06:29:42.000Z</time>
      </trkpt>
      <trkpt lat="22.781720" lon="108.824505">
        <ele>89.419496</ele>
        <time>2026-08-14T06:29:43.000Z</time>
      </trkpt>
      <trkpt lat="22.781717" lon="108.824555">
        <ele>89.454310</ele>
        <time>2026-08-14T06:29:44.000Z</time>
      </trkpt>
      <trkpt lat="22.781714" lon="108.824605">
        <ele>89.489123</ele>
        <time>2026-08-14T06:29:45.000Z</time>
      </trkpt>
      <trkpt lat="22.781713" lon="108.824655">
        <ele>89.523872</ele>
        <time>2026-08-14T06:29:46.000Z</time>
      </trkpt>
      <trkpt lat="22.781714" lon="108.824704">
        <ele>89.557926</ele>
        <time>2026-08-14T06:29:47.000Z</time>
      </trkpt>
      <trkpt lat="22.781717" lon="108.824753">
        <ele>89.592046</ele>
        <time>2026-08-14T06:29:48.000Z</time>
      </trkpt>
      <trkpt lat="22.781719" lon="108.824803">
        <ele>89.626819</ele>
        <time>2026-08-14T06:29:49.000Z</time>
      </trkpt>
      <trkpt lat="22.781723" lon="108.824853">
        <ele>89.661690</ele>
        <time>2026-08-14T06:29:50.000Z</time>
      </trkpt>
      <trkpt lat="22.781728" lon="108.824903">
        <ele>89.696634</ele>
        <time>2026-08-14T06:29:51.000Z</time>
      </trkpt>
      <trkpt lat="22.781734" lon="108.824954">
        <ele>89.732356</ele>
        <time>2026-08-14T06:29:52.000Z</time>
      </trkpt>
      <trkpt lat="22.781743" lon="108.825006">
        <ele>89.769117</ele>
        <time>2026-08-14T06:29:53.000Z</time>
      </trkpt>
      <trkpt lat="22.781753" lon="108.825058">
        <ele>89.806024</ele>
        <time>2026-08-14T06:29:54.000Z</time>
      </trkpt>
      <trkpt lat="22.781763" lon="108.825111">
        <ele>89.843612</ele>
        <time>2026-08-14T06:29:55.000Z</time>
      </trkpt>
      <trkpt lat="22.781775" lon="108.825164">
        <ele>89.875487</ele>
        <time>2026-08-14T06:29:56.000Z</time>
      </trkpt>
      <trkpt lat="22.781787" lon="108.825216">
        <ele>89.897226</ele>
        <time>2026-08-14T06:29:57.000Z</time>
      </trkpt>
      <trkpt lat="22.781801" lon="108.825269">
        <ele>89.919584</ele>
        <time>2026-08-14T06:29:58.000Z</time>
      </trkpt>
      <trkpt lat="22.781815" lon="108.825320">
        <ele>89.941164</ele>
        <time>2026-08-14T06:29:59.000Z</time>
      </trkpt>
      <trkpt lat="22.781831" lon="108.825371">
        <ele>89.963011</ele>
        <time>2026-08-14T06:30:00.000Z</time>
      </trkpt>
      <trkpt lat="22.781849" lon="108.825419">
        <ele>89.984026</ele>
        <time>2026-08-14T06:30:01.000Z</time>
      </trkpt>
      <trkpt lat="22.781867" lon="108.825467">
        <ele>90.005040</ele>
        <time>2026-08-14T06:30:02.000Z</time>
      </trkpt>
      <trkpt lat="22.781888" lon="108.825514">
        <ele>90.026221</ele>
        <time>2026-08-14T06:30:03.000Z</time>
      </trkpt>
      <trkpt lat="22.781909" lon="108.825561">
        <ele>90.047401</ele>
        <time>2026-08-14T06:30:04.000Z</time>
      </trkpt>
      <trkpt lat="22.781932" lon="108.825608">
        <ele>90.068980</ele>
        <time>2026-08-14T06:30:05.000Z</time>
      </trkpt>
      <trkpt lat="22.781956" lon="108.825654">
        <ele>90.090415</ele>
        <time>2026-08-14T06:30:06.000Z</time>
      </trkpt>
      <trkpt lat="22.781982" lon="108.825699">
        <ele>90.111952</ele>
        <time>2026-08-14T06:30:07.000Z</time>
      </trkpt>
      <trkpt lat="22.782007" lon="108.825742">
        <ele>90.132567</ele>
        <time>2026-08-14T06:30:08.000Z</time>
      </trkpt>
      <trkpt lat="22.782030" lon="108.825785">
        <ele>90.152728</ele>
        <time>2026-08-14T06:30:09.000Z</time>
      </trkpt>
      <trkpt lat="22.782054" lon="108.825827">
        <ele>90.172767</ele>
        <time>2026-08-14T06:30:10.000Z</time>
      </trkpt>
      <trkpt lat="22.782080" lon="108.825869">
        <ele>90.193283</ele>
        <time>2026-08-14T06:30:11.000Z</time>
      </trkpt>
      <trkpt lat="22.782105" lon="108.825910">
        <ele>90.213217</ele>
        <time>2026-08-14T06:30:12.000Z</time>
      </trkpt>
      <trkpt lat="22.782132" lon="108.825952">
        <ele>90.233981</ele>
        <time>2026-08-14T06:30:13.000Z</time>
      </trkpt>
      <trkpt lat="22.782159" lon="108.825994">
        <ele>90.254746</ele>
        <time>2026-08-14T06:30:14.000Z</time>
      </trkpt>
      <trkpt lat="22.782189" lon="108.826035">
        <ele>90.275973</ele>
        <time>2026-08-14T06:30:15.000Z</time>
      </trkpt>
      <trkpt lat="22.782219" lon="108.826076">
        <ele>90.297200</ele>
        <time>2026-08-14T06:30:16.000Z</time>
      </trkpt>
      <trkpt lat="22.782249" lon="108.826119">
        <ele>90.319068</ele>
        <time>2026-08-14T06:30:17.000Z</time>
      </trkpt>
      <trkpt lat="22.782279" lon="108.826161">
        <ele>90.340614</ele>
        <time>2026-08-14T06:30:18.000Z</time>
      </trkpt>
      <trkpt lat="22.782311" lon="108.826203">
        <ele>90.362710</ele>
        <time>2026-08-14T06:30:19.000Z</time>
      </trkpt>
      <trkpt lat="22.782341" lon="108.826245">
        <ele>90.384256</ele>
        <time>2026-08-14T06:30:20.000Z</time>
      </trkpt>
      <trkpt lat="22.782371" lon="108.826288">
        <ele>90.406124</ele>
        <time>2026-08-14T06:30:21.000Z</time>
      </trkpt>
      <trkpt lat="22.782400" lon="108.826333">
        <ele>90.428390</ele>
        <time>2026-08-14T06:30:22.000Z</time>
      </trkpt>
      <trkpt lat="22.782430" lon="108.826376">
        <ele>90.450258</ele>
        <time>2026-08-14T06:30:23.000Z</time>
      </trkpt>
      <trkpt lat="22.782461" lon="108.826420">
        <ele>90.472715</ele>
        <time>2026-08-14T06:30:24.000Z</time>
      </trkpt>
      <trkpt lat="22.782493" lon="108.826463">
        <ele>90.495125</ele>
        <time>2026-08-14T06:30:25.000Z</time>
      </trkpt>
      <trkpt lat="22.782524" lon="108.826508">
        <ele>90.517906</ele>
        <time>2026-08-14T06:30:26.000Z</time>
      </trkpt>
      <trkpt lat="22.782553" lon="108.826554">
        <ele>90.540505</ele>
        <time>2026-08-14T06:30:27.000Z</time>
      </trkpt>
      <trkpt lat="22.782582" lon="108.826600">
        <ele>90.563104</ele>
        <time>2026-08-14T06:30:28.000Z</time>
      </trkpt>
      <trkpt lat="22.782610" lon="108.826645">
        <ele>90.585120</ele>
        <time>2026-08-14T06:30:29.000Z</time>
      </trkpt>
      <trkpt lat="22.782639" lon="108.826691">
        <ele>90.607719</ele>
        <time>2026-08-14T06:30:30.000Z</time>
      </trkpt>
      <trkpt lat="22.782665" lon="108.826738">
        <ele>90.629947</ele>
        <time>2026-08-14T06:30:31.000Z</time>
      </trkpt>
      <trkpt lat="22.782690" lon="108.826787">
        <ele>90.652658</ele>
        <time>2026-08-14T06:30:32.000Z</time>
      </trkpt>
      <trkpt lat="22.782712" lon="108.826837">
        <ele>90.686184</ele>
        <time>2026-08-14T06:30:33.000Z</time>
      </trkpt>
      <trkpt lat="22.782735" lon="108.826888">
        <ele>90.724214</ele>
        <time>2026-08-14T06:30:34.000Z</time>
      </trkpt>
      <trkpt lat="22.782757" lon="108.826938">
        <ele>90.761325</ele>
        <time>2026-08-14T06:30:35.000Z</time>
      </trkpt>
      <trkpt lat="22.782777" lon="108.826990">
        <ele>90.799066</ele>
        <time>2026-08-14T06:30:36.000Z</time>
      </trkpt>
      <trkpt lat="22.782796" lon="108.827041">
        <ele>90.835911</ele>
        <time>2026-08-14T06:30:37.000Z</time>
      </trkpt>
      <trkpt lat="22.782815" lon="108.827092">
        <ele>90.872757</ele>
        <time>2026-08-14T06:30:38.000Z</time>
      </trkpt>
      <trkpt lat="22.782832" lon="108.827143">
        <ele>90.909083</ele>
        <time>2026-08-14T06:30:39.000Z</time>
      </trkpt>
      <trkpt lat="22.782848" lon="108.827196">
        <ele>90.946439</ele>
        <time>2026-08-14T06:30:40.000Z</time>
      </trkpt>
      <trkpt lat="22.782862" lon="108.827250">
        <ele>90.984014</ele>
        <time>2026-08-14T06:30:41.000Z</time>
      </trkpt>
      <trkpt lat="22.782874" lon="108.827303">
        <ele>91.020570</ele>
        <time>2026-08-14T06:30:42.000Z</time>
      </trkpt>
      <trkpt lat="22.782883" lon="108.827357">
        <ele>91.057328</ele>
        <time>2026-08-14T06:30:43.000Z</time>
      </trkpt>
      <trkpt lat="22.782891" lon="108.827410">
        <ele>91.093302</ele>
        <time>2026-08-14T06:30:44.000Z</time>
      </trkpt>
      <trkpt lat="22.782899" lon="108.827463">
        <ele>91.129276</ele>
        <time>2026-08-14T06:30:45.000Z</time>
      </trkpt>
      <trkpt lat="22.782905" lon="108.827517">
        <ele>91.165709</ele>
        <time>2026-08-14T06:30:46.000Z</time>
      </trkpt>
      <trkpt lat="22.782909" lon="108.827572">
        <ele>91.202665</ele>
        <time>2026-08-14T06:30:47.000Z</time>
      </trkpt>
      <trkpt lat="22.782912" lon="108.827626">
        <ele>91.238902</ele>
        <time>2026-08-14T06:30:48.000Z</time>
      </trkpt>
      <trkpt lat="22.782914" lon="108.827680">
        <ele>91.275103</ele>
        <time>2026-08-14T06:30:49.000Z</time>
      </trkpt>
      <trkpt lat="22.782915" lon="108.827734">
        <ele>91.311282</ele>
        <time>2026-08-14T06:30:50.000Z</time>
      </trkpt>
      <trkpt lat="22.782912" lon="108.827787">
        <ele>91.346850</ele>
        <time>2026-08-14T06:30:51.000Z</time>
      </trkpt>
      <trkpt lat="22.782908" lon="108.827841">
        <ele>91.383138</ele>
        <time>2026-08-14T06:30:52.000Z</time>
      </trkpt>
      <trkpt lat="22.782903" lon="108.827894">
        <ele>91.418825</ele>
        <time>2026-08-14T06:30:53.000Z</time>
      </trkpt>
      <trkpt lat="22.782898" lon="108.827947">
        <ele>91.454512</ele>
        <time>2026-08-14T06:30:54.000Z</time>
      </trkpt>
      <trkpt lat="22.782891" lon="108.828001">
        <ele>91.491039</ele>
        <time>2026-08-14T06:30:55.000Z</time>
      </trkpt>
      <trkpt lat="22.782882" lon="108.828055">
        <ele>91.527797</ele>
        <time>2026-08-14T06:30:56.000Z</time>
      </trkpt>
      <trkpt lat="22.782872" lon="108.828106">
        <ele>91.562723</ele>
        <time>2026-08-14T06:30:57.000Z</time>
      </trkpt>
      <trkpt lat="22.782861" lon="108.828158">
        <ele>91.598460</ele>
        <time>2026-08-14T06:30:58.000Z</time>
      </trkpt>
      <trkpt lat="22.782849" lon="108.828210">
        <ele>91.634366</ele>
        <time>2026-08-14T06:30:59.000Z</time>
      </trkpt>
      <trkpt lat="22.782836" lon="108.828260">
        <ele>91.669164</ele>
        <time>2026-08-14T06:31:00.000Z</time>
      </trkpt>
      <trkpt lat="22.782821" lon="108.828311">
        <ele>91.705023</ele>
        <time>2026-08-14T06:31:01.000Z</time>
      </trkpt>
      <trkpt lat="22.782807" lon="108.828362">
        <ele>91.740667</ele>
        <time>2026-08-14T06:31:02.000Z</time>
      </trkpt>
      <trkpt lat="22.782791" lon="108.828413">
        <ele>91.776752</ele>
        <time>2026-08-14T06:31:03.000Z</time>
      </trkpt>
      <trkpt lat="22.782776" lon="108.828463">
        <ele>91.811973</ele>
        <time>2026-08-14T06:31:04.000Z</time>
      </trkpt>
      <trkpt lat="22.782761" lon="108.828512">
        <ele>91.846557</ele>
        <time>2026-08-14T06:31:05.000Z</time>
      </trkpt>
      <trkpt lat="22.782746" lon="108.828561">
        <ele>91.881141</ele>
        <time>2026-08-14T06:31:06.000Z</time>
      </trkpt>
      <trkpt lat="22.782727" lon="108.828609">
        <ele>91.916131</ele>
        <time>2026-08-14T06:31:07.000Z</time>
      </trkpt>
      <trkpt lat="22.782708" lon="108.828654">
        <ele>91.949285</ele>
        <time>2026-08-14T06:31:08.000Z</time>
      </trkpt>
      <trkpt lat="22.782691" lon="108.828702">
        <ele>91.972882</ele>
        <time>2026-08-14T06:31:09.000Z</time>
      </trkpt>
      <trkpt lat="22.782673" lon="108.828749">
        <ele>91.987314</ele>
        <time>2026-08-14T06:31:10.000Z</time>
      </trkpt>
      <trkpt lat="22.782656" lon="108.828797">
        <ele>92.001895</ele>
        <time>2026-08-14T06:31:11.000Z</time>
      </trkpt>
      <trkpt lat="22.782638" lon="108.828846">
        <ele>92.016852</ele>
        <time>2026-08-14T06:31:12.000Z</time>
      </trkpt>
      <trkpt lat="22.782620" lon="108.828894">
        <ele>92.031547</ele>
        <time>2026-08-14T06:31:13.000Z</time>
      </trkpt>
      <trkpt lat="22.782602" lon="108.828945">
        <ele>92.047033</ele>
        <time>2026-08-14T06:31:14.000Z</time>
      </trkpt>
      <trkpt lat="22.782583" lon="108.828996">
        <ele>92.062631</ele>
        <time>2026-08-14T06:31:15.000Z</time>
      </trkpt>
      <trkpt lat="22.782564" lon="108.829046">
        <ele>92.077967</ele>
        <time>2026-08-14T06:31:16.000Z</time>
      </trkpt>
      <trkpt lat="22.782547" lon="108.829097">
        <ele>92.093345</ele>
        <time>2026-08-14T06:31:17.000Z</time>
      </trkpt>
      <trkpt lat="22.782531" lon="108.829149">
        <ele>92.108890</ele>
        <time>2026-08-14T06:31:18.000Z</time>
      </trkpt>
      <trkpt lat="22.782515" lon="108.829200">
        <ele>92.124167</ele>
        <time>2026-08-14T06:31:19.000Z</time>
      </trkpt>
      <trkpt lat="22.782499" lon="108.829251">
        <ele>92.139444</ele>
        <time>2026-08-14T06:31:20.000Z</time>
      </trkpt>
      <trkpt lat="22.782482" lon="108.829302">
        <ele>92.154822</ele>
        <time>2026-08-14T06:31:21.000Z</time>
      </trkpt>
      <trkpt lat="22.782464" lon="108.829353">
        <ele>92.170308</ele>
        <time>2026-08-14T06:31:22.000Z</time>
      </trkpt>
      <trkpt lat="22.782449" lon="108.829404">
        <ele>92.185488</ele>
        <time>2026-08-14T06:31:23.000Z</time>
      </trkpt>
      <trkpt lat="22.782437" lon="108.829456">
        <ele>92.200689</ele>
        <time>2026-08-14T06:31:24.000Z</time>
      </trkpt>
      <trkpt lat="22.782422" lon="108.829509">
        <ele>92.216411</ele>
        <time>2026-08-14T06:31:25.000Z</time>
      </trkpt>
      <trkpt lat="22.782412" lon="108.829560">
        <ele>92.231196</ele>
        <time>2026-08-14T06:31:26.000Z</time>
      </trkpt>
      <trkpt lat="22.782401" lon="108.829612">
        <ele>92.246325</ele>
        <time>2026-08-14T06:31:27.000Z</time>
      </trkpt>
      <trkpt lat="22.782390" lon="108.829666">
        <ele>92.262008</ele>
        <time>2026-08-14T06:31:28.000Z</time>
      </trkpt>
      <trkpt lat="22.782378" lon="108.829718">
        <ele>92.277208</ele>
        <time>2026-08-14T06:31:29.000Z</time>
      </trkpt>
      <trkpt lat="22.782366" lon="108.829771">
        <ele>92.292684</ele>
        <time>2026-08-14T06:31:30.000Z</time>
      </trkpt>
      <trkpt lat="22.782356" lon="108.829823">
        <ele>92.307748</ele>
        <time>2026-08-14T06:31:31.000Z</time>
      </trkpt>
      <trkpt lat="22.782346" lon="108.829874">
        <ele>92.322533</ele>
        <time>2026-08-14T06:31:32.000Z</time>
      </trkpt>
      <trkpt lat="22.782338" lon="108.829927">
        <ele>92.337763</ele>
        <time>2026-08-14T06:31:33.000Z</time>
      </trkpt>
      <trkpt lat="22.782330" lon="108.829982">
        <ele>92.353552</ele>
        <time>2026-08-14T06:31:34.000Z</time>
      </trkpt>
      <trkpt lat="22.782321" lon="108.830037">
        <ele>92.369393</ele>
        <time>2026-08-14T06:31:35.000Z</time>
      </trkpt>
      <trkpt lat="22.782313" lon="108.830092">
        <ele>92.385182</ele>
        <time>2026-08-14T06:31:36.000Z</time>
      </trkpt>
      <trkpt lat="22.782307" lon="108.830147">
        <ele>92.400888</ele>
        <time>2026-08-14T06:31:37.000Z</time>
      </trkpt>
      <trkpt lat="22.782300" lon="108.830203">
        <ele>92.416913</ele>
        <time>2026-08-14T06:31:38.000Z</time>
      </trkpt>
      <trkpt lat="22.782293" lon="108.830257">
        <ele>92.432377</ele>
        <time>2026-08-14T06:31:39.000Z</time>
      </trkpt>
      <trkpt lat="22.782287" lon="108.830314">
        <ele>92.448646</ele>
        <time>2026-08-14T06:31:40.000Z</time>
      </trkpt>
      <trkpt lat="22.782283" lon="108.830371">
        <ele>92.464856</ele>
        <time>2026-08-14T06:31:41.000Z</time>
      </trkpt>
      <trkpt lat="22.782281" lon="108.830429">
        <ele>92.481315</ele>
        <time>2026-08-14T06:31:42.000Z</time>
      </trkpt>
      <trkpt lat="22.782277" lon="108.830487">
        <ele>92.497808</ele>
        <time>2026-08-14T06:31:43.000Z</time>
      </trkpt>
      <trkpt lat="22.782273" lon="108.830546">
        <ele>92.514584</ele>
        <time>2026-08-14T06:31:44.000Z</time>
      </trkpt>
      <trkpt lat="22.782271" lon="108.830605">
        <ele>92.502746</ele>
        <time>2026-08-14T06:31:45.000Z</time>
      </trkpt>
      <trkpt lat="22.782269" lon="108.830662">
        <ele>92.483892</ele>
        <time>2026-08-14T06:31:46.000Z</time>
      </trkpt>
      <trkpt lat="22.782267" lon="108.830720">
        <ele>92.464708</ele>
        <time>2026-08-14T06:31:47.000Z</time>
      </trkpt>
      <trkpt lat="22.782265" lon="108.830776">
        <ele>92.446185</ele>
        <time>2026-08-14T06:31:48.000Z</time>
      </trkpt>
      <trkpt lat="22.782264" lon="108.830834">
        <ele>92.427011</ele>
        <time>2026-08-14T06:31:49.000Z</time>
      </trkpt>
      <trkpt lat="22.782263" lon="108.830891">
        <ele>92.408168</ele>
        <time>2026-08-14T06:31:50.000Z</time>
      </trkpt>
      <trkpt lat="22.782261" lon="108.830949">
        <ele>92.388984</ele>
        <time>2026-08-14T06:31:51.000Z</time>
      </trkpt>
      <trkpt lat="22.782261" lon="108.831008">
        <ele>92.369483</ele>
        <time>2026-08-14T06:31:52.000Z</time>
      </trkpt>
      <trkpt lat="22.782260" lon="108.831066">
        <ele>92.350310</ele>
        <time>2026-08-14T06:31:53.000Z</time>
      </trkpt>
      <trkpt lat="22.782260" lon="108.831124">
        <ele>92.331139</ele>
        <time>2026-08-14T06:31:54.000Z</time>
      </trkpt>
      <trkpt lat="22.782259" lon="108.831182">
        <ele>92.311966</ele>
        <time>2026-08-14T06:31:55.000Z</time>
      </trkpt>
      <trkpt lat="22.782261" lon="108.831242">
        <ele>92.292121</ele>
        <time>2026-08-14T06:31:56.000Z</time>
      </trkpt>
      <trkpt lat="22.782262" lon="108.831301">
        <ele>92.272617</ele>
        <time>2026-08-14T06:31:57.000Z</time>
      </trkpt>
      <trkpt lat="22.782263" lon="108.831360">
        <ele>92.253113</ele>
        <time>2026-08-14T06:31:58.000Z</time>
      </trkpt>
      <trkpt lat="22.782263" lon="108.831419">
        <ele>92.233612</ele>
        <time>2026-08-14T06:31:59.000Z</time>
      </trkpt>
      <trkpt lat="22.782263" lon="108.831478">
        <ele>92.214111</ele>
        <time>2026-08-14T06:32:00.000Z</time>
      </trkpt>
      <trkpt lat="22.782266" lon="108.831536">
        <ele>92.194910</ele>
        <time>2026-08-14T06:32:01.000Z</time>
      </trkpt>
      <trkpt lat="22.782270" lon="108.831594">
        <ele>92.175687</ele>
        <time>2026-08-14T06:32:02.000Z</time>
      </trkpt>
      <trkpt lat="22.782273" lon="108.831654">
        <ele>92.155826</ele>
        <time>2026-08-14T06:32:03.000Z</time>
      </trkpt>
      <trkpt lat="22.782276" lon="108.831714">
        <ele>92.135965</ele>
        <time>2026-08-14T06:32:04.000Z</time>
      </trkpt>
      <trkpt lat="22.782280" lon="108.831773">
        <ele>92.116412</ele>
        <time>2026-08-14T06:32:05.000Z</time>
      </trkpt>
      <trkpt lat="22.782285" lon="108.831833">
        <ele>92.096500</ele>
        <time>2026-08-14T06:32:06.000Z</time>
      </trkpt>
      <trkpt lat="22.782290" lon="108.831893">
        <ele>92.076587</ele>
        <time>2026-08-14T06:32:07.000Z</time>
      </trkpt>
      <trkpt lat="22.782296" lon="108.831952">
        <ele>92.056968</ele>
        <time>2026-08-14T06:32:08.000Z</time>
      </trkpt>
      <trkpt lat="22.782303" lon="108.832011">
        <ele>92.037306</ele>
        <time>2026-08-14T06:32:09.000Z</time>
      </trkpt>
      <trkpt lat="22.782310" lon="108.832071">
        <ele>92.017317</ele>
        <time>2026-08-14T06:32:10.000Z</time>
      </trkpt>
      <trkpt lat="22.782314" lon="108.832130">
        <ele>91.997763</ele>
        <time>2026-08-14T06:32:11.000Z</time>
      </trkpt>
      <trkpt lat="22.782320" lon="108.832190">
        <ele>91.977816</ele>
        <time>2026-08-14T06:32:12.000Z</time>
      </trkpt>
      <trkpt lat="22.782327" lon="108.832249">
        <ele>91.958154</ele>
        <time>2026-08-14T06:32:13.000Z</time>
      </trkpt>
      <trkpt lat="22.782335" lon="108.832310">
        <ele>91.937789</ele>
        <time>2026-08-14T06:32:14.000Z</time>
      </trkpt>
      <trkpt lat="22.782341" lon="108.832372">
        <ele>91.917184</ele>
        <time>2026-08-14T06:32:15.000Z</time>
      </trkpt>
      <trkpt lat="22.782347" lon="108.832433">
        <ele>91.896908</ele>
        <time>2026-08-14T06:32:16.000Z</time>
      </trkpt>
      <trkpt lat="22.782355" lon="108.832493">
        <ele>91.876870</ele>
        <time>2026-08-14T06:32:17.000Z</time>
      </trkpt>
      <trkpt lat="22.782363" lon="108.832554">
        <ele>91.837157</ele>
        <time>2026-08-14T06:32:18.000Z</time>
      </trkpt>
      <trkpt lat="22.782373" lon="108.832615">
        <ele>91.793127</ele>
        <time>2026-08-14T06:32:19.000Z</time>
      </trkpt>
      <trkpt lat="22.782382" lon="108.832676">
        <ele>91.749226</ele>
        <time>2026-08-14T06:32:20.000Z</time>
      </trkpt>
      <trkpt lat="22.782391" lon="108.832736">
        <ele>91.706027</ele>
        <time>2026-08-14T06:32:21.000Z</time>
      </trkpt>
      <trkpt lat="22.782399" lon="108.832798">
        <ele>91.661537</ele>
        <time>2026-08-14T06:32:22.000Z</time>
      </trkpt>
      <trkpt lat="22.782408" lon="108.832861">
        <ele>91.616232</ele>
        <time>2026-08-14T06:32:23.000Z</time>
      </trkpt>
      <trkpt lat="22.782418" lon="108.832924">
        <ele>91.570803</ele>
        <time>2026-08-14T06:32:24.000Z</time>
      </trkpt>
      <trkpt lat="22.782428" lon="108.832986">
        <ele>91.526074</ele>
        <time>2026-08-14T06:32:25.000Z</time>
      </trkpt>
      <trkpt lat="22.782439" lon="108.833047">
        <ele>91.481903</ele>
        <time>2026-08-14T06:32:26.000Z</time>
      </trkpt>
      <trkpt lat="22.782449" lon="108.833109">
        <ele>91.437174</ele>
        <time>2026-08-14T06:32:27.000Z</time>
      </trkpt>
      <trkpt lat="22.782458" lon="108.833171">
        <ele>91.392571</ele>
        <time>2026-08-14T06:32:28.000Z</time>
      </trkpt>
      <trkpt lat="22.782469" lon="108.833234">
        <ele>91.347004</ele>
        <time>2026-08-14T06:32:29.000Z</time>
      </trkpt>
      <trkpt lat="22.782479" lon="108.833298">
        <ele>91.300875</ele>
        <time>2026-08-14T06:32:30.000Z</time>
      </trkpt>
      <trkpt lat="22.782486" lon="108.833363">
        <ele>91.254369</ele>
        <time>2026-08-14T06:32:31.000Z</time>
      </trkpt>
      <trkpt lat="22.782496" lon="108.833429">
        <ele>91.206837</ele>
        <time>2026-08-14T06:32:32.000Z</time>
      </trkpt>
      <trkpt lat="22.782507" lon="108.833494">
        <ele>91.159873</ele>
        <time>2026-08-14T06:32:33.000Z</time>
      </trkpt>
      <trkpt lat="22.782517" lon="108.833560">
        <ele>91.112341</ele>
        <time>2026-08-14T06:32:34.000Z</time>
      </trkpt>
      <trkpt lat="22.782527" lon="108.833626">
        <ele>91.064810</ele>
        <time>2026-08-14T06:32:35.000Z</time>
      </trkpt>
      <trkpt lat="22.782536" lon="108.833691">
        <ele>91.018100</ele>
        <time>2026-08-14T06:32:36.000Z</time>
      </trkpt>
      <trkpt lat="22.782544" lon="108.833757">
        <ele>90.970793</ele>
        <time>2026-08-14T06:32:37.000Z</time>
      </trkpt>
      <trkpt lat="22.782554" lon="108.833822">
        <ele>90.923963</ele>
        <time>2026-08-14T06:32:38.000Z</time>
      </trkpt>
      <trkpt lat="22.782564" lon="108.833886">
        <ele>90.877833</ele>
        <time>2026-08-14T06:32:39.000Z</time>
      </trkpt>
      <trkpt lat="22.782572" lon="108.833952">
        <ele>90.830527</ele>
        <time>2026-08-14T06:32:40.000Z</time>
      </trkpt>
      <trkpt lat="22.782578" lon="108.834018">
        <ele>90.783397</ele>
        <time>2026-08-14T06:32:41.000Z</time>
      </trkpt>
      <trkpt lat="22.782583" lon="108.834086">
        <ele>90.734919</ele>
        <time>2026-08-14T06:32:42.000Z</time>
      </trkpt>
      <trkpt lat="22.782588" lon="108.834154">
        <ele>90.686442</ele>
        <time>2026-08-14T06:32:43.000Z</time>
      </trkpt>
      <trkpt lat="22.782590" lon="108.834218">
        <ele>90.640935</ele>
        <time>2026-08-14T06:32:44.000Z</time>
      </trkpt>
      <trkpt lat="22.782593" lon="108.834286">
        <ele>90.592555</ele>
        <time>2026-08-14T06:32:45.000Z</time>
      </trkpt>
      <trkpt lat="22.782594" lon="108.834355">
        <ele>90.543515</ele>
        <time>2026-08-14T06:32:46.000Z</time>
      </trkpt>
      <trkpt lat="22.782595" lon="108.834423">
        <ele>90.495185</ele>
        <time>2026-08-14T06:32:47.000Z</time>
      </trkpt>
      <trkpt lat="22.782596" lon="108.834494">
        <ele>90.409086</ele>
        <time>2026-08-14T06:32:48.000Z</time>
      </trkpt>
      <trkpt lat="22.782597" lon="108.834565">
        <ele>90.316055</ele>
        <time>2026-08-14T06:32:49.000Z</time>
      </trkpt>
      <trkpt lat="22.782597" lon="108.834634">
        <ele>90.225656</ele>
        <time>2026-08-14T06:32:50.000Z</time>
      </trkpt>
      <trkpt lat="22.782596" lon="108.834702">
        <ele>90.136556</ele>
        <time>2026-08-14T06:32:51.000Z</time>
      </trkpt>
      <trkpt lat="22.782595" lon="108.834772">
        <ele>90.044836</ele>
        <time>2026-08-14T06:32:52.000Z</time>
      </trkpt>
      <trkpt lat="22.782594" lon="108.834843">
        <ele>89.951805</ele>
        <time>2026-08-14T06:32:53.000Z</time>
      </trkpt>
      <trkpt lat="22.782592" lon="108.834912">
        <ele>89.861362</ele>
        <time>2026-08-14T06:32:54.000Z</time>
      </trkpt>
      <trkpt lat="22.782590" lon="108.834982">
        <ele>89.769608</ele>
        <time>2026-08-14T06:32:55.000Z</time>
      </trkpt>
      <trkpt lat="22.782588" lon="108.835053">
        <ele>89.676546</ele>
        <time>2026-08-14T06:32:56.000Z</time>
      </trkpt>
      <trkpt lat="22.782585" lon="108.835125">
        <ele>89.582120</ele>
        <time>2026-08-14T06:32:57.000Z</time>
      </trkpt>
      <trkpt lat="22.782583" lon="108.835198">
        <ele>89.486438</ele>
        <time>2026-08-14T06:32:58.000Z</time>
      </trkpt>
      <trkpt lat="22.782580" lon="108.835271">
        <ele>89.390703</ele>
        <time>2026-08-14T06:32:59.000Z</time>
      </trkpt>
      <trkpt lat="22.782578" lon="108.835344">
        <ele>89.295021</ele>
        <time>2026-08-14T06:33:00.000Z</time>
      </trkpt>
      <trkpt lat="22.782577" lon="108.835418">
        <ele>89.198061</ele>
        <time>2026-08-14T06:33:01.000Z</time>
      </trkpt>
      <trkpt lat="22.782577" lon="108.835492">
        <ele>89.101112</ele>
        <time>2026-08-14T06:33:02.000Z</time>
      </trkpt>
      <trkpt lat="22.782578" lon="108.835567">
        <ele>89.002841</ele>
        <time>2026-08-14T06:33:03.000Z</time>
      </trkpt>
      <trkpt lat="22.782579" lon="108.835641">
        <ele>88.905881</ele>
        <time>2026-08-14T06:33:04.000Z</time>
      </trkpt>
      <trkpt lat="22.782581" lon="108.835716">
        <ele>88.807580</ele>
        <time>2026-08-14T06:33:05.000Z</time>
      </trkpt>
      <trkpt lat="22.782586" lon="108.835790">
        <ele>88.710370</ele>
        <time>2026-08-14T06:33:06.000Z</time>
      </trkpt>
      <trkpt lat="22.782589" lon="108.835866">
        <ele>88.610709</ele>
        <time>2026-08-14T06:33:07.000Z</time>
      </trkpt>
      <trkpt lat="22.782594" lon="108.835942">
        <ele>88.510886</ele>
        <time>2026-08-14T06:33:08.000Z</time>
      </trkpt>
      <trkpt lat="22.782602" lon="108.836018">
        <ele>88.410669</ele>
        <time>2026-08-14T06:33:09.000Z</time>
      </trkpt>
      <trkpt lat="22.782610" lon="108.836094">
        <ele>88.310452</ele>
        <time>2026-08-14T06:33:10.000Z</time>
      </trkpt>
      <trkpt lat="22.782620" lon="108.836171">
        <ele>88.208576</ele>
        <time>2026-08-14T06:33:11.000Z</time>
      </trkpt>
      <trkpt lat="22.782630" lon="108.836246">
        <ele>88.109294</ele>
        <time>2026-08-14T06:33:12.000Z</time>
      </trkpt>
      <trkpt lat="22.782642" lon="108.836322">
        <ele>88.008274</ele>
        <time>2026-08-14T06:33:13.000Z</time>
      </trkpt>
      <trkpt lat="22.782656" lon="108.836398">
        <ele>87.909397</ele>
        <time>2026-08-14T06:33:14.000Z</time>
      </trkpt>
      <trkpt lat="22.782671" lon="108.836475">
        <ele>87.817548</ele>
        <time>2026-08-14T06:33:15.000Z</time>
      </trkpt>
      <trkpt lat="22.782687" lon="108.836552">
        <ele>87.725430</ele>
        <time>2026-08-14T06:33:16.000Z</time>
      </trkpt>
      <trkpt lat="22.782702" lon="108.836629">
        <ele>87.633581</ele>
        <time>2026-08-14T06:33:17.000Z</time>
      </trkpt>
      <trkpt lat="22.782717" lon="108.836704">
        <ele>87.544015</ele>
        <time>2026-08-14T06:33:18.000Z</time>
      </trkpt>
      <trkpt lat="22.782734" lon="108.836780">
        <ele>87.452744</ele>
        <time>2026-08-14T06:33:19.000Z</time>
      </trkpt>
      <trkpt lat="22.782752" lon="108.836857">
        <ele>87.360036</ele>
        <time>2026-08-14T06:33:20.000Z</time>
      </trkpt>
      <trkpt lat="22.782771" lon="108.836933">
        <ele>87.268136</ele>
        <time>2026-08-14T06:33:21.000Z</time>
      </trkpt>
      <trkpt lat="22.782790" lon="108.837010">
        <ele>87.175109</ele>
        <time>2026-08-14T06:33:22.000Z</time>
      </trkpt>
      <trkpt lat="22.782809" lon="108.837087">
        <ele>87.082081</ele>
        <time>2026-08-14T06:33:23.000Z</time>
      </trkpt>
      <trkpt lat="22.782831" lon="108.837166">
        <ele>86.985769</ele>
        <time>2026-08-14T06:33:24.000Z</time>
      </trkpt>
      <trkpt lat="22.782852" lon="108.837245">
        <ele>86.889815</ele>
        <time>2026-08-14T06:33:25.000Z</time>
      </trkpt>
      <trkpt lat="22.782871" lon="108.837325">
        <ele>86.793401</ele>
        <time>2026-08-14T06:33:26.000Z</time>
      </trkpt>
      <trkpt lat="22.782890" lon="108.837405">
        <ele>86.696987</ele>
        <time>2026-08-14T06:33:27.000Z</time>
      </trkpt>
      <trkpt lat="22.782910" lon="108.837486">
        <ele>86.599123</ele>
        <time>2026-08-14T06:33:28.000Z</time>
      </trkpt>
      <trkpt lat="22.782927" lon="108.837567">
        <ele>86.502172</ele>
        <time>2026-08-14T06:33:29.000Z</time>
      </trkpt>
      <trkpt lat="22.782943" lon="108.837645">
        <ele>86.408915</ele>
        <time>2026-08-14T06:33:30.000Z</time>
      </trkpt>
      <trkpt lat="22.782956" lon="108.837723">
        <ele>86.316408</ele>
        <time>2026-08-14T06:33:31.000Z</time>
      </trkpt>
      <trkpt lat="22.782967" lon="108.837800">
        <ele>86.225471</ele>
        <time>2026-08-14T06:33:32.000Z</time>
      </trkpt>
      <trkpt lat="22.782977" lon="108.837878">
        <ele>86.133564</ele>
        <time>2026-08-14T06:33:33.000Z</time>
      </trkpt>
      <trkpt lat="22.782985" lon="108.837956">
        <ele>86.041971</ele>
        <time>2026-08-14T06:33:34.000Z</time>
      </trkpt>
      <trkpt lat="22.782992" lon="108.838034">
        <ele>85.950509</ele>
        <time>2026-08-14T06:33:35.000Z</time>
      </trkpt>
      <trkpt lat="22.782997" lon="108.838110">
        <ele>85.861586</ele>
        <time>2026-08-14T06:33:36.000Z</time>
      </trkpt>
      <trkpt lat="22.782999" lon="108.838185">
        <ele>85.774019</ele>
        <time>2026-08-14T06:33:37.000Z</time>
      </trkpt>
      <trkpt lat="22.782996" lon="108.838261">
        <ele>85.685241</ele>
        <time>2026-08-14T06:33:38.000Z</time>
      </trkpt>
      <trkpt lat="22.782990" lon="108.838335">
        <ele>85.683157</ele>
        <time>2026-08-14T06:33:39.000Z</time>
      </trkpt>
      <trkpt lat="22.782984" lon="108.838408">
        <ele>85.727379</ele>
        <time>2026-08-14T06:33:40.000Z</time>
      </trkpt>
      <trkpt lat="22.782978" lon="108.838482">
        <ele>85.772202</ele>
        <time>2026-08-14T06:33:41.000Z</time>
      </trkpt>
      <trkpt lat="22.782969" lon="108.838554">
        <ele>85.816043</ele>
        <time>2026-08-14T06:33:42.000Z</time>
      </trkpt>
      <trkpt lat="22.782957" lon="108.838626">
        <ele>85.860191</ele>
        <time>2026-08-14T06:33:43.000Z</time>
      </trkpt>
      <trkpt lat="22.782943" lon="108.838695">
        <ele>85.902820</ele>
        <time>2026-08-14T06:33:44.000Z</time>
      </trkpt>
      <trkpt lat="22.782926" lon="108.838764">
        <ele>85.945915</ele>
        <time>2026-08-14T06:33:45.000Z</time>
      </trkpt>
      <trkpt lat="22.782908" lon="108.838830">
        <ele>85.987444</ele>
        <time>2026-08-14T06:33:46.000Z</time>
      </trkpt>
      <trkpt lat="22.782890" lon="108.838897">
        <ele>86.029552</ele>
        <time>2026-08-14T06:33:47.000Z</time>
      </trkpt>
      <trkpt lat="22.782873" lon="108.838963">
        <ele>86.070900</ele>
        <time>2026-08-14T06:33:48.000Z</time>
      </trkpt>
      <trkpt lat="22.782854" lon="108.839029">
        <ele>86.112620</ele>
        <time>2026-08-14T06:33:49.000Z</time>
      </trkpt>
      <trkpt lat="22.782832" lon="108.839091">
        <ele>86.152705</ele>
        <time>2026-08-14T06:33:50.000Z</time>
      </trkpt>
      <trkpt lat="22.782809" lon="108.839155">
        <ele>86.194151</ele>
        <time>2026-08-14T06:33:51.000Z</time>
      </trkpt>
      <trkpt lat="22.782786" lon="108.839218">
        <ele>86.235036</ele>
        <time>2026-08-14T06:33:52.000Z</time>
      </trkpt>
      <trkpt lat="22.782763" lon="108.839281">
        <ele>86.275921</ele>
        <time>2026-08-14T06:33:53.000Z</time>
      </trkpt>
      <trkpt lat="22.782737" lon="108.839343">
        <ele>86.317019</ele>
        <time>2026-08-14T06:33:54.000Z</time>
      </trkpt>
      <trkpt lat="22.782711" lon="108.839405">
        <ele>86.358116</ele>
        <time>2026-08-14T06:33:55.000Z</time>
      </trkpt>
      <trkpt lat="22.782684" lon="108.839467">
        <ele>86.399489</ele>
        <time>2026-08-14T06:33:56.000Z</time>
      </trkpt>
      <trkpt lat="22.782655" lon="108.839528">
        <ele>86.440901</ele>
        <time>2026-08-14T06:33:57.000Z</time>
      </trkpt>
      <trkpt lat="22.782628" lon="108.839590">
        <ele>86.482274</ele>
        <time>2026-08-14T06:33:58.000Z</time>
      </trkpt>
      <trkpt lat="22.782604" lon="108.839651">
        <ele>86.522292</ele>
        <time>2026-08-14T06:33:59.000Z</time>
      </trkpt>
      <trkpt lat="22.782579" lon="108.839711">
        <ele>86.562020</ele>
        <time>2026-08-14T06:34:00.000Z</time>
      </trkpt>
      <trkpt lat="22.782553" lon="108.839773">
        <ele>86.603118</ele>
        <time>2026-08-14T06:34:01.000Z</time>
      </trkpt>
      <trkpt lat="22.782528" lon="108.839835">
        <ele>86.643949</ele>
        <time>2026-08-14T06:34:02.000Z</time>
      </trkpt>
      <trkpt lat="22.782502" lon="108.839897">
        <ele>86.685047</ele>
        <time>2026-08-14T06:34:03.000Z</time>
      </trkpt>
      <trkpt lat="22.782479" lon="108.839958">
        <ele>86.724813</ele>
        <time>2026-08-14T06:34:04.000Z</time>
      </trkpt>
      <trkpt lat="22.782458" lon="108.840020">
        <ele>86.764667</ele>
        <time>2026-08-14T06:34:05.000Z</time>
      </trkpt>
      <trkpt lat="22.782438" lon="108.840081">
        <ele>86.803732</ele>
        <time>2026-08-14T06:34:06.000Z</time>
      </trkpt>
      <trkpt lat="22.782419" lon="108.840143">
        <ele>86.828207</ele>
        <time>2026-08-14T06:34:07.000Z</time>
      </trkpt>
      <trkpt lat="22.782400" lon="108.840203">
        <ele>86.817669</ele>
        <time>2026-08-14T06:34:08.000Z</time>
      </trkpt>
      <trkpt lat="22.782384" lon="108.840263">
        <ele>86.807294</ele>
        <time>2026-08-14T06:34:09.000Z</time>
      </trkpt>
      <trkpt lat="22.782371" lon="108.840323">
        <ele>86.797056</ele>
        <time>2026-08-14T06:34:10.000Z</time>
      </trkpt>
      <trkpt lat="22.782360" lon="108.840385">
        <ele>86.786569</ele>
        <time>2026-08-14T06:34:11.000Z</time>
      </trkpt>
      <trkpt lat="22.782350" lon="108.840447">
        <ele>86.776114</ele>
        <time>2026-08-14T06:34:12.000Z</time>
      </trkpt>
      <trkpt lat="22.782339" lon="108.840510">
        <ele>86.765463</ele>
        <time>2026-08-14T06:34:13.000Z</time>
      </trkpt>
      <trkpt lat="22.782331" lon="108.840572">
        <ele>86.755065</ele>
        <time>2026-08-14T06:34:14.000Z</time>
      </trkpt>
      <trkpt lat="22.782323" lon="108.840634">
        <ele>86.744666</ele>
        <time>2026-08-14T06:34:15.000Z</time>
      </trkpt>
      <trkpt lat="22.782315" lon="108.840695">
        <ele>86.734431</ele>
        <time>2026-08-14T06:34:16.000Z</time>
      </trkpt>
      <trkpt lat="22.782311" lon="108.840759">
        <ele>86.723776</ele>
        <time>2026-08-14T06:34:17.000Z</time>
      </trkpt>
      <trkpt lat="22.782309" lon="108.840823">
        <ele>86.713139</ele>
        <time>2026-08-14T06:34:18.000Z</time>
      </trkpt>
      <trkpt lat="22.782307" lon="108.840886">
        <ele>86.702669</ele>
        <time>2026-08-14T06:34:19.000Z</time>
      </trkpt>
      <trkpt lat="22.782307" lon="108.840949">
        <ele>86.692204</ele>
        <time>2026-08-14T06:34:20.000Z</time>
      </trkpt>
      <trkpt lat="22.782310" lon="108.841015">
        <ele>86.681228</ele>
        <time>2026-08-14T06:34:21.000Z</time>
      </trkpt>
      <trkpt lat="22.782314" lon="108.841080">
        <ele>86.670407</ele>
        <time>2026-08-14T06:34:22.000Z</time>
      </trkpt>
      <trkpt lat="22.782319" lon="108.841146">
        <ele>86.659407</ele>
        <time>2026-08-14T06:34:23.000Z</time>
      </trkpt>
      <trkpt lat="22.782325" lon="108.841209">
        <ele>86.648887</ele>
        <time>2026-08-14T06:34:24.000Z</time>
      </trkpt>
      <trkpt lat="22.782333" lon="108.841273">
        <ele>86.638159</ele>
        <time>2026-08-14T06:34:25.000Z</time>
      </trkpt>
      <trkpt lat="22.782340" lon="108.841338">
        <ele>86.627289</ele>
        <time>2026-08-14T06:34:26.000Z</time>
      </trkpt>
      <trkpt lat="22.782350" lon="108.841402">
        <ele>86.616506</ele>
        <time>2026-08-14T06:34:27.000Z</time>
      </trkpt>
      <trkpt lat="22.782361" lon="108.841467">
        <ele>86.605529</ele>
        <time>2026-08-14T06:34:28.000Z</time>
      </trkpt>
      <trkpt lat="22.782374" lon="108.841532">
        <ele>86.594481</ele>
        <time>2026-08-14T06:34:29.000Z</time>
      </trkpt>
      <trkpt lat="22.782390" lon="108.841599">
        <ele>86.582985</ele>
        <time>2026-08-14T06:34:30.000Z</time>
      </trkpt>
      <trkpt lat="22.782408" lon="108.841665">
        <ele>86.571552</ele>
        <time>2026-08-14T06:34:31.000Z</time>
      </trkpt>
      <trkpt lat="22.782426" lon="108.841731">
        <ele>86.560120</ele>
        <time>2026-08-14T06:34:32.000Z</time>
      </trkpt>
      <trkpt lat="22.782445" lon="108.841797">
        <ele>86.548635</ele>
        <time>2026-08-14T06:34:33.000Z</time>
      </trkpt>
      <trkpt lat="22.782464" lon="108.841863">
        <ele>86.537150</ele>
        <time>2026-08-14T06:34:34.000Z</time>
      </trkpt>
      <trkpt lat="22.782486" lon="108.841928">
        <ele>86.525649</ele>
        <time>2026-08-14T06:34:35.000Z</time>
      </trkpt>
      <trkpt lat="22.782511" lon="108.841991">
        <ele>86.514256</ele>
        <time>2026-08-14T06:34:36.000Z</time>
      </trkpt>
      <trkpt lat="22.782537" lon="108.842053">
        <ele>86.506244</ele>
        <time>2026-08-14T06:34:37.000Z</time>
      </trkpt>
      <trkpt lat="22.782565" lon="108.842114">
        <ele>86.503331</ele>
        <time>2026-08-14T06:34:38.000Z</time>
      </trkpt>
      <trkpt lat="22.782592" lon="108.842175">
        <ele>86.500437</ele>
        <time>2026-08-14T06:34:39.000Z</time>
      </trkpt>
      <trkpt lat="22.782620" lon="108.842234">
        <ele>86.497600</ele>
        <time>2026-08-14T06:34:40.000Z</time>
      </trkpt>
      <trkpt lat="22.782649" lon="108.842293">
        <ele>86.494741</ele>
        <time>2026-08-14T06:34:41.000Z</time>
      </trkpt>
      <trkpt lat="22.782679" lon="108.842353">
        <ele>86.491822</ele>
        <time>2026-08-14T06:34:42.000Z</time>
      </trkpt>
      <trkpt lat="22.782707" lon="108.842414">
        <ele>86.488909</ele>
        <time>2026-08-14T06:34:43.000Z</time>
      </trkpt>
      <trkpt lat="22.782737" lon="108.842475">
        <ele>86.485952</ele>
        <time>2026-08-14T06:34:44.000Z</time>
      </trkpt>
      <trkpt lat="22.782767" lon="108.842537">
        <ele>86.482958</ele>
        <time>2026-08-14T06:34:45.000Z</time>
      </trkpt>
      <trkpt lat="22.782796" lon="108.842599">
        <ele>86.479986</ele>
        <time>2026-08-14T06:34:46.000Z</time>
      </trkpt>
      <trkpt lat="22.782825" lon="108.842661">
        <ele>86.477013</ele>
        <time>2026-08-14T06:34:47.000Z</time>
      </trkpt>
      <trkpt lat="22.782854" lon="108.842723">
        <ele>86.474040</ele>
        <time>2026-08-14T06:34:48.000Z</time>
      </trkpt>
      <trkpt lat="22.782881" lon="108.842786">
        <ele>86.471069</ele>
        <time>2026-08-14T06:34:49.000Z</time>
      </trkpt>
      <trkpt lat="22.782909" lon="108.842848">
        <ele>86.468117</ele>
        <time>2026-08-14T06:34:50.000Z</time>
      </trkpt>
      <trkpt lat="22.782936" lon="108.842911">
        <ele>86.465147</ele>
        <time>2026-08-14T06:34:51.000Z</time>
      </trkpt>
      <trkpt lat="22.782961" lon="108.842974">
        <ele>86.462214</ele>
        <time>2026-08-14T06:34:52.000Z</time>
      </trkpt>
      <trkpt lat="22.782987" lon="108.843037">
        <ele>86.459262</ele>
        <time>2026-08-14T06:34:53.000Z</time>
      </trkpt>
      <trkpt lat="22.783010" lon="108.843102">
        <ele>86.456285</ele>
        <time>2026-08-14T06:34:54.000Z</time>
      </trkpt>
      <trkpt lat="22.783031" lon="108.843168">
        <ele>86.453300</ele>
        <time>2026-08-14T06:34:55.000Z</time>
      </trkpt>
      <trkpt lat="22.783051" lon="108.843236">
        <ele>86.450248</ele>
        <time>2026-08-14T06:34:56.000Z</time>
      </trkpt>
      <trkpt lat="22.783071" lon="108.843303">
        <ele>86.447237</ele>
        <time>2026-08-14T06:34:57.000Z</time>
      </trkpt>
      <trkpt lat="22.783086" lon="108.843369">
        <ele>86.444330</ele>
        <time>2026-08-14T06:34:58.000Z</time>
      </trkpt>
      <trkpt lat="22.783100" lon="108.843433">
        <ele>86.441517</ele>
        <time>2026-08-14T06:34:59.000Z</time>
      </trkpt>
      <trkpt lat="22.783114" lon="108.843497">
        <ele>86.438705</ele>
        <time>2026-08-14T06:35:00.000Z</time>
      </trkpt>
      <trkpt lat="22.783125" lon="108.843561">
        <ele>86.435921</ele>
        <time>2026-08-14T06:35:01.000Z</time>
      </trkpt>
      <trkpt lat="22.783135" lon="108.843627">
        <ele>86.433061</ele>
        <time>2026-08-14T06:35:02.000Z</time>
      </trkpt>
      <trkpt lat="22.783144" lon="108.843694">
        <ele>86.430166</ele>
        <time>2026-08-14T06:35:03.000Z</time>
      </trkpt>
      <trkpt lat="22.783150" lon="108.843760">
        <ele>86.427330</ele>
        <time>2026-08-14T06:35:04.000Z</time>
      </trkpt>
      <trkpt lat="22.783152" lon="108.843826">
        <ele>86.424506</ele>
        <time>2026-08-14T06:35:05.000Z</time>
      </trkpt>
      <trkpt lat="22.783152" lon="108.843890">
        <ele>86.494072</ele>
        <time>2026-08-14T06:35:06.000Z</time>
      </trkpt>
      <trkpt lat="22.783153" lon="108.843952">
        <ele>86.578508</ele>
        <time>2026-08-14T06:35:07.000Z</time>
      </trkpt>
      <trkpt lat="22.783153" lon="108.844013">
        <ele>86.661568</ele>
        <time>2026-08-14T06:35:08.000Z</time>
      </trkpt>
      <trkpt lat="22.783152" lon="108.844073">
        <ele>86.743281</ele>
        <time>2026-08-14T06:35:09.000Z</time>
      </trkpt>
      <trkpt lat="22.783150" lon="108.844134">
        <ele>86.826394</ele>
        <time>2026-08-14T06:35:10.000Z</time>
      </trkpt>
      <trkpt lat="22.783146" lon="108.844192">
        <ele>86.905590</ele>
        <time>2026-08-14T06:35:11.000Z</time>
      </trkpt>
      <trkpt lat="22.783142" lon="108.844251">
        <ele>86.986144</ele>
        <time>2026-08-14T06:35:12.000Z</time>
      </trkpt>
      <trkpt lat="22.783136" lon="108.844308">
        <ele>87.064262</ele>
        <time>2026-08-14T06:35:13.000Z</time>
      </trkpt>
      <trkpt lat="22.783131" lon="108.844364">
        <ele>87.140871</ele>
        <time>2026-08-14T06:35:14.000Z</time>
      </trkpt>
      <trkpt lat="22.783126" lon="108.844420">
        <ele>87.217481</ele>
        <time>2026-08-14T06:35:15.000Z</time>
      </trkpt>
      <trkpt lat="22.783121" lon="108.844473">
        <ele>87.290025</ele>
        <time>2026-08-14T06:35:16.000Z</time>
      </trkpt>
      <trkpt lat="22.783116" lon="108.844524">
        <ele>87.359860</ele>
        <time>2026-08-14T06:35:17.000Z</time>
      </trkpt>
      <trkpt lat="22.783111" lon="108.844575">
        <ele>87.429696</ele>
        <time>2026-08-14T06:35:18.000Z</time>
      </trkpt>
      <trkpt lat="22.783106" lon="108.844625">
        <ele>87.498178</ele>
        <time>2026-08-14T06:35:19.000Z</time>
      </trkpt>
      <trkpt lat="22.783102" lon="108.844675">
        <ele>87.566516</ele>
        <time>2026-08-14T06:35:20.000Z</time>
      </trkpt>
      <trkpt lat="22.783097" lon="108.844723">
        <ele>87.632291</ele>
        <time>2026-08-14T06:35:21.000Z</time>
      </trkpt>
      <trkpt lat="22.783095" lon="108.844770">
        <ele>87.696357</ele>
        <time>2026-08-14T06:35:22.000Z</time>
      </trkpt>
      <trkpt lat="22.783093" lon="108.844816">
        <ele>87.759062</ele>
        <time>2026-08-14T06:35:23.000Z</time>
      </trkpt>
      <trkpt lat="22.783090" lon="108.844861">
        <ele>87.820496</ele>
        <time>2026-08-14T06:35:24.000Z</time>
      </trkpt>
      <trkpt lat="22.783086" lon="108.844906">
        <ele>87.882055</ele>
        <time>2026-08-14T06:35:25.000Z</time>
      </trkpt>
      <trkpt lat="22.783083" lon="108.844950">
        <ele>87.942131</ele>
        <time>2026-08-14T06:35:26.000Z</time>
      </trkpt>
      <trkpt lat="22.783080" lon="108.844994">
        <ele>88.002207</ele>
        <time>2026-08-14T06:35:27.000Z</time>
      </trkpt>
      <trkpt lat="22.783077" lon="108.845036">
        <ele>88.059568</ele>
        <time>2026-08-14T06:35:28.000Z</time>
      </trkpt>
      <trkpt lat="22.783075" lon="108.845077">
        <ele>88.115474</ele>
        <time>2026-08-14T06:35:29.000Z</time>
      </trkpt>
      <trkpt lat="22.783074" lon="108.845119">
        <ele>88.172682</ele>
        <time>2026-08-14T06:35:30.000Z</time>
      </trkpt>
      <trkpt lat="22.783074" lon="108.845163">
        <ele>88.232595</ele>
        <time>2026-08-14T06:35:31.000Z</time>
      </trkpt>
      <trkpt lat="22.783075" lon="108.845205">
        <ele>88.289803</ele>
        <time>2026-08-14T06:35:32.000Z</time>
      </trkpt>
      <trkpt lat="22.783075" lon="108.845244">
        <ele>88.342907</ele>
        <time>2026-08-14T06:35:33.000Z</time>
      </trkpt>
      <trkpt lat="22.783075" lon="108.845285">
        <ele>88.398735</ele>
        <time>2026-08-14T06:35:34.000Z</time>
      </trkpt>
      <trkpt lat="22.783077" lon="108.845328">
        <ele>88.457360</ele>
        <time>2026-08-14T06:35:35.000Z</time>
      </trkpt>
      <trkpt lat="22.783078" lon="108.845373">
        <ele>88.518652</ele>
        <time>2026-08-14T06:35:36.000Z</time>
      </trkpt>
      <trkpt lat="22.783081" lon="108.845418">
        <ele>88.580087</ele>
        <time>2026-08-14T06:35:37.000Z</time>
      </trkpt>
      <trkpt lat="22.783086" lon="108.845463">
        <ele>88.641804</ele>
        <time>2026-08-14T06:35:38.000Z</time>
      </trkpt>
      <trkpt lat="22.783092" lon="108.845506">
        <ele>88.701022</ele>
        <time>2026-08-14T06:35:39.000Z</time>
      </trkpt>
      <trkpt lat="22.783098" lon="108.845550">
        <ele>88.761586</ele>
        <time>2026-08-14T06:35:40.000Z</time>
      </trkpt>
      <trkpt lat="22.783103" lon="108.845594">
        <ele>88.821952</ele>
        <time>2026-08-14T06:35:41.000Z</time>
      </trkpt>
      <trkpt lat="22.783109" lon="108.845637">
        <ele>88.881170</ele>
        <time>2026-08-14T06:35:42.000Z</time>
      </trkpt>
      <trkpt lat="22.783115" lon="108.845679">
        <ele>88.939042</ele>
        <time>2026-08-14T06:35:43.000Z</time>
      </trkpt>
      <trkpt lat="22.783124" lon="108.845720">
        <ele>88.996430</ele>
        <time>2026-08-14T06:35:44.000Z</time>
      </trkpt>
      <trkpt lat="22.783132" lon="108.845761">
        <ele>89.053494</ele>
        <time>2026-08-14T06:35:45.000Z</time>
      </trkpt>
      <trkpt lat="22.783142" lon="108.845802">
        <ele>89.130014</ele>
        <time>2026-08-14T06:35:46.000Z</time>
      </trkpt>
      <trkpt lat="22.783151" lon="108.845842">
        <ele>89.220147</ele>
        <time>2026-08-14T06:35:47.000Z</time>
      </trkpt>
      <trkpt lat="22.783160" lon="108.845882">
        <ele>89.310280</ele>
        <time>2026-08-14T06:35:48.000Z</time>
      </trkpt>
      <trkpt lat="22.783170" lon="108.845922">
        <ele>89.401005</ele>
        <time>2026-08-14T06:35:49.000Z</time>
      </trkpt>
      <trkpt lat="22.783181" lon="108.845962">
        <ele>89.492381</ele>
        <time>2026-08-14T06:35:50.000Z</time>
      </trkpt>
      <trkpt lat="22.783193" lon="108.846003">
        <ele>89.586547</ele>
        <time>2026-08-14T06:35:51.000Z</time>
      </trkpt>
      <trkpt lat="22.783204" lon="108.846044">
        <ele>89.680023</ele>
        <time>2026-08-14T06:35:52.000Z</time>
      </trkpt>
      <trkpt lat="22.783217" lon="108.846083">
        <ele>89.770805</ele>
        <time>2026-08-14T06:35:53.000Z</time>
      </trkpt>
      <trkpt lat="22.783230" lon="108.846122">
        <ele>89.861588</ele>
        <time>2026-08-14T06:35:54.000Z</time>
      </trkpt>
      <trkpt lat="22.783245" lon="108.846160">
        <ele>89.952077</ele>
        <time>2026-08-14T06:35:55.000Z</time>
      </trkpt>
      <trkpt lat="22.783260" lon="108.846198">
        <ele>90.042565</ele>
        <time>2026-08-14T06:35:56.000Z</time>
      </trkpt>
      <trkpt lat="22.783276" lon="108.846235">
        <ele>90.132028</ele>
        <time>2026-08-14T06:35:57.000Z</time>
      </trkpt>
      <trkpt lat="22.783292" lon="108.846272">
        <ele>90.221491</ele>
        <time>2026-08-14T06:35:58.000Z</time>
      </trkpt>
      <trkpt lat="22.783307" lon="108.846310">
        <ele>90.311979</ele>
        <time>2026-08-14T06:35:59.000Z</time>
      </trkpt>
      <trkpt lat="22.783323" lon="108.846348">
        <ele>90.403429</ele>
        <time>2026-08-14T06:36:00.000Z</time>
      </trkpt>
      <trkpt lat="22.783341" lon="108.846384">
        <ele>90.493078</ele>
        <time>2026-08-14T06:36:01.000Z</time>
      </trkpt>
      <trkpt lat="22.783358" lon="108.846420">
        <ele>90.581621</ele>
        <time>2026-08-14T06:36:02.000Z</time>
      </trkpt>
      <trkpt lat="22.783377" lon="108.846457">
        <ele>90.674333</ele>
        <time>2026-08-14T06:36:03.000Z</time>
      </trkpt>
      <trkpt lat="22.783396" lon="108.846493">
        <ele>90.765138</ele>
        <time>2026-08-14T06:36:04.000Z</time>
      </trkpt>
      <trkpt lat="22.783415" lon="108.846530">
        <ele>90.857850</ele>
        <time>2026-08-14T06:36:05.000Z</time>
      </trkpt>
      <trkpt lat="22.783435" lon="108.846566">
        <ele>90.949858</ele>
        <time>2026-08-14T06:36:06.000Z</time>
      </trkpt>
      <trkpt lat="22.783456" lon="108.846601">
        <ele>91.041272</ele>
        <time>2026-08-14T06:36:07.000Z</time>
      </trkpt>
      <trkpt lat="22.783478" lon="108.846635">
        <ele>91.132201</ele>
        <time>2026-08-14T06:36:08.000Z</time>
      </trkpt>
      <trkpt lat="22.783499" lon="108.846668">
        <ele>91.219978</ele>
        <time>2026-08-14T06:36:09.000Z</time>
      </trkpt>
      <trkpt lat="22.783519" lon="108.846701">
        <ele>91.306427</ele>
        <time>2026-08-14T06:36:10.000Z</time>
      </trkpt>
      <trkpt lat="22.783542" lon="108.846735">
        <ele>91.398741</ele>
        <time>2026-08-14T06:36:11.000Z</time>
      </trkpt>
      <trkpt lat="22.783566" lon="108.846769">
        <ele>91.492479</ele>
        <time>2026-08-14T06:36:12.000Z</time>
      </trkpt>
      <trkpt lat="22.783589" lon="108.846802">
        <ele>91.583037</ele>
        <time>2026-08-14T06:36:13.000Z</time>
      </trkpt>
      <trkpt lat="22.783611" lon="108.846835">
        <ele>91.672184</ele>
        <time>2026-08-14T06:36:14.000Z</time>
      </trkpt>
      <trkpt lat="22.783632" lon="108.846867">
        <ele>91.758168</ele>
        <time>2026-08-14T06:36:15.000Z</time>
      </trkpt>
      <trkpt lat="22.783653" lon="108.846900">
        <ele>91.845944</ele>
        <time>2026-08-14T06:36:16.000Z</time>
      </trkpt>
      <trkpt lat="22.783676" lon="108.846932">
        <ele>91.934765</ele>
        <time>2026-08-14T06:36:17.000Z</time>
      </trkpt>
      <trkpt lat="22.783699" lon="108.846965">
        <ele>92.025324</ele>
        <time>2026-08-14T06:36:18.000Z</time>
      </trkpt>
      <trkpt lat="22.783720" lon="108.846997">
        <ele>92.111307</ele>
        <time>2026-08-14T06:36:19.000Z</time>
      </trkpt>
      <trkpt lat="22.783741" lon="108.847028">
        <ele>92.195517</ele>
        <time>2026-08-14T06:36:20.000Z</time>
      </trkpt>
      <trkpt lat="22.783764" lon="108.847059">
        <ele>92.282623</ele>
        <time>2026-08-14T06:36:21.000Z</time>
      </trkpt>
      <trkpt lat="22.783787" lon="108.847091">
        <ele>92.371444</ele>
        <time>2026-08-14T06:36:22.000Z</time>
      </trkpt>
      <trkpt lat="22.783810" lon="108.847123">
        <ele>92.460266</ele>
        <time>2026-08-14T06:36:23.000Z</time>
      </trkpt>
      <trkpt lat="22.783834" lon="108.847156">
        <ele>92.552275</ele>
        <time>2026-08-14T06:36:24.000Z</time>
      </trkpt>
      <trkpt lat="22.783856" lon="108.847188">
        <ele>92.639657</ele>
        <time>2026-08-14T06:36:25.000Z</time>
      </trkpt>
      <trkpt lat="22.783878" lon="108.847219">
        <ele>92.725294</ele>
        <time>2026-08-14T06:36:26.000Z</time>
      </trkpt>
      <trkpt lat="22.783901" lon="108.847250">
        <ele>92.812400</ele>
        <time>2026-08-14T06:36:27.000Z</time>
      </trkpt>
      <trkpt lat="22.783924" lon="108.847281">
        <ele>92.899505</ele>
        <time>2026-08-14T06:36:28.000Z</time>
      </trkpt>
      <trkpt lat="22.783948" lon="108.847313">
        <ele>92.989806</ele>
        <time>2026-08-14T06:36:29.000Z</time>
      </trkpt>
      <trkpt lat="22.783968" lon="108.847345">
        <ele>93.074435</ele>
        <time>2026-08-14T06:36:30.000Z</time>
      </trkpt>
      <trkpt lat="22.783988" lon="108.847376">
        <ele>93.157261</ele>
        <time>2026-08-14T06:36:31.000Z</time>
      </trkpt>
      <trkpt lat="22.784009" lon="108.847408">
        <ele>93.243244</ele>
        <time>2026-08-14T06:36:32.000Z</time>
      </trkpt>
      <trkpt lat="22.784032" lon="108.847439">
        <ele>93.330350</ele>
        <time>2026-08-14T06:36:33.000Z</time>
      </trkpt>
      <trkpt lat="22.784055" lon="108.847469">
        <ele>93.427689</ele>
        <time>2026-08-14T06:36:34.000Z</time>
      </trkpt>
      <trkpt lat="22.784078" lon="108.847500">
        <ele>93.530821</ele>
        <time>2026-08-14T06:36:35.000Z</time>
      </trkpt>
      <trkpt lat="22.784099" lon="108.847531">
        <ele>93.630525</ele>
        <time>2026-08-14T06:36:36.000Z</time>
      </trkpt>
      <trkpt lat="22.784120" lon="108.847561">
        <ele>93.728153</ele>
        <time>2026-08-14T06:36:37.000Z</time>
      </trkpt>
      <trkpt lat="22.784141" lon="108.847592">
        <ele>93.827857</ele>
        <time>2026-08-14T06:36:38.000Z</time>
      </trkpt>
      <trkpt lat="22.784162" lon="108.847621">
        <ele>93.923433</ele>
        <time>2026-08-14T06:36:39.000Z</time>
      </trkpt>
      <trkpt lat="22.784184" lon="108.847651">
        <ele>94.022786</ele>
        <time>2026-08-14T06:36:40.000Z</time>
      </trkpt>
      <trkpt lat="22.784205" lon="108.847681">
        <ele>94.120413</ele>
        <time>2026-08-14T06:36:41.000Z</time>
      </trkpt>
      <trkpt lat="22.784226" lon="108.847711">
        <ele>94.218041</ele>
        <time>2026-08-14T06:36:42.000Z</time>
      </trkpt>
      <trkpt lat="22.784246" lon="108.847739">
        <ele>94.309844</ele>
        <time>2026-08-14T06:36:43.000Z</time>
      </trkpt>
      <trkpt lat="22.784263" lon="108.847766">
        <ele>94.394585</ele>
        <time>2026-08-14T06:36:44.000Z</time>
      </trkpt>
      <trkpt lat="22.784281" lon="108.847794">
        <ele>94.483057</ele>
        <time>2026-08-14T06:36:45.000Z</time>
      </trkpt>
      <trkpt lat="22.784298" lon="108.847821">
        <ele>94.567799</ele>
        <time>2026-08-14T06:36:46.000Z</time>
      </trkpt>
      <trkpt lat="22.784316" lon="108.847849">
        <ele>94.656270</ele>
        <time>2026-08-14T06:36:47.000Z</time>
      </trkpt>
      <trkpt lat="22.784335" lon="108.847876">
        <ele>94.744305</ele>
        <time>2026-08-14T06:36:48.000Z</time>
      </trkpt>
      <trkpt lat="22.784354" lon="108.847902">
        <ele>94.830294</ele>
        <time>2026-08-14T06:36:49.000Z</time>
      </trkpt>
      <trkpt lat="22.784372" lon="108.847929">
        <ele>94.916652</ele>
        <time>2026-08-14T06:36:50.000Z</time>
      </trkpt>
      <trkpt lat="22.784392" lon="108.847960">
        <ele>95.014718</ele>
        <time>2026-08-14T06:36:51.000Z</time>
      </trkpt>
      <trkpt lat="22.784412" lon="108.847989">
        <ele>95.108583</ele>
        <time>2026-08-14T06:36:52.000Z</time>
      </trkpt>
      <trkpt lat="22.784433" lon="108.848017">
        <ele>95.202135</ele>
        <time>2026-08-14T06:36:53.000Z</time>
      </trkpt>
      <trkpt lat="22.784453" lon="108.848045">
        <ele>95.293938</ele>
        <time>2026-08-14T06:36:54.000Z</time>
      </trkpt>
      <trkpt lat="22.784474" lon="108.848074">
        <ele>95.389514</ele>
        <time>2026-08-14T06:36:55.000Z</time>
      </trkpt>
      <trkpt lat="22.784494" lon="108.848104">
        <ele>95.485467</ele>
        <time>2026-08-14T06:36:56.000Z</time>
      </trkpt>
      <trkpt lat="22.784514" lon="108.848133">
        <ele>95.579333</ele>
        <time>2026-08-14T06:36:57.000Z</time>
      </trkpt>
      <trkpt lat="22.784534" lon="108.848162">
        <ele>95.673198</ele>
        <time>2026-08-14T06:36:58.000Z</time>
      </trkpt>
      <trkpt lat="22.784553" lon="108.848192">
        <ele>95.767532</ele>
        <time>2026-08-14T06:36:59.000Z</time>
      </trkpt>
      <trkpt lat="22.784573" lon="108.848221">
        <ele>95.861398</ele>
        <time>2026-08-14T06:37:00.000Z</time>
      </trkpt>
      <trkpt lat="22.784595" lon="108.848251">
        <ele>95.960750</ele>
        <time>2026-08-14T06:37:01.000Z</time>
      </trkpt>
      <trkpt lat="22.784615" lon="108.848281">
        <ele>96.056703</ele>
        <time>2026-08-14T06:37:02.000Z</time>
      </trkpt>
      <trkpt lat="22.784634" lon="108.848311">
        <ele>96.151037</ele>
        <time>2026-08-14T06:37:03.000Z</time>
      </trkpt>
      <trkpt lat="22.784654" lon="108.848340">
        <ele>96.244903</ele>
        <time>2026-08-14T06:37:04.000Z</time>
      </trkpt>
      <trkpt lat="22.784673" lon="108.848368">
        <ele>96.335011</ele>
        <time>2026-08-14T06:37:05.000Z</time>
      </trkpt>
      <trkpt lat="22.784691" lon="108.848397">
        <ele>96.425621</ele>
        <time>2026-08-14T06:37:06.000Z</time>
      </trkpt>
      <trkpt lat="22.784712" lon="108.848427">
        <ele>96.523248</ele>
        <time>2026-08-14T06:37:07.000Z</time>
      </trkpt>
      <trkpt lat="22.784732" lon="108.848456">
        <ele>96.617114</ele>
        <time>2026-08-14T06:37:08.000Z</time>
      </trkpt>
      <trkpt lat="22.784751" lon="108.848485">
        <ele>96.709323</ele>
        <time>2026-08-14T06:37:09.000Z</time>
      </trkpt>
      <trkpt lat="22.784770" lon="108.848514">
        <ele>96.801532</ele>
        <time>2026-08-14T06:37:10.000Z</time>
      </trkpt>
      <trkpt lat="22.784789" lon="108.848543">
        <ele>96.893740</ele>
        <time>2026-08-14T06:37:11.000Z</time>
      </trkpt>
      <trkpt lat="22.784809" lon="108.848571">
        <ele>96.985544</ele>
        <time>2026-08-14T06:37:12.000Z</time>
      </trkpt>
      <trkpt lat="22.784827" lon="108.848599">
        <ele>97.074015</ele>
        <time>2026-08-14T06:37:13.000Z</time>
      </trkpt>
      <trkpt lat="22.784845" lon="108.848627">
        <ele>97.162486</ele>
        <time>2026-08-14T06:37:14.000Z</time>
      </trkpt>
      <trkpt lat="22.784863" lon="108.848655">
        <ele>97.250957</ele>
        <time>2026-08-14T06:37:15.000Z</time>
      </trkpt>
      <trkpt lat="22.784880" lon="108.848685">
        <ele>97.342225</ele>
        <time>2026-08-14T06:37:16.000Z</time>
      </trkpt>
      <trkpt lat="22.784897" lon="108.848714">
        <ele>97.431295</ele>
        <time>2026-08-14T06:37:17.000Z</time>
      </trkpt>
      <trkpt lat="22.784914" lon="108.848743">
        <ele>97.520365</ele>
        <time>2026-08-14T06:37:18.000Z</time>
      </trkpt>
      <trkpt lat="22.784930" lon="108.848773">
        <ele>97.610193</ele>
        <time>2026-08-14T06:37:19.000Z</time>
      </trkpt>
      <trkpt lat="22.784948" lon="108.848801">
        <ele>97.698664</ele>
        <time>2026-08-14T06:37:20.000Z</time>
      </trkpt>
      <trkpt lat="22.784966" lon="108.848830">
        <ele>97.789274</ele>
        <time>2026-08-14T06:37:21.000Z</time>
      </trkpt>
      <trkpt lat="22.784982" lon="108.848859">
        <ele>97.876868</ele>
        <time>2026-08-14T06:37:22.000Z</time>
      </trkpt>
      <trkpt lat="22.784997" lon="108.848890">
        <ele>97.967608</ele>
        <time>2026-08-14T06:37:23.000Z</time>
      </trkpt>
      <trkpt lat="22.785013" lon="108.848919">
        <ele>98.055202</ele>
        <time>2026-08-14T06:37:24.000Z</time>
      </trkpt>
      <trkpt lat="22.785031" lon="108.848949">
        <ele>98.147972</ele>
        <time>2026-08-14T06:37:25.000Z</time>
      </trkpt>
      <trkpt lat="22.785048" lon="108.848979">
        <ele>98.239240</ele>
        <time>2026-08-14T06:37:26.000Z</time>
      </trkpt>
      <trkpt lat="22.785065" lon="108.849008">
        <ele>98.328310</ele>
        <time>2026-08-14T06:37:27.000Z</time>
      </trkpt>
      <trkpt lat="22.785081" lon="108.849039">
        <ele>98.416808</ele>
        <time>2026-08-14T06:37:28.000Z</time>
      </trkpt>
      <trkpt lat="22.785097" lon="108.849071">
        <ele>98.485327</ele>
        <time>2026-08-14T06:37:29.000Z</time>
      </trkpt>
      <trkpt lat="22.785113" lon="108.849101">
        <ele>98.550562</ele>
        <time>2026-08-14T06:37:30.000Z</time>
      </trkpt>
      <trkpt lat="22.785128" lon="108.849131">
        <ele>98.614798</ele>
        <time>2026-08-14T06:37:31.000Z</time>
      </trkpt>
      <trkpt lat="22.785144" lon="108.849161">
        <ele>98.680033</ele>
        <time>2026-08-14T06:37:32.000Z</time>
      </trkpt>
      <trkpt lat="22.785157" lon="108.849191">
        <ele>98.742426</ele>
        <time>2026-08-14T06:37:33.000Z</time>
      </trkpt>
      <trkpt lat="22.785170" lon="108.849222">
        <ele>98.806528</ele>
        <time>2026-08-14T06:37:34.000Z</time>
      </trkpt>
      <trkpt lat="22.785186" lon="108.849251">
        <ele>98.870141</ele>
        <time>2026-08-14T06:37:35.000Z</time>
      </trkpt>
      <trkpt lat="22.785200" lon="108.849281">
        <ele>98.933430</ele>
        <time>2026-08-14T06:37:36.000Z</time>
      </trkpt>
      <trkpt lat="22.785214" lon="108.849312">
        <ele>98.998403</ele>
        <time>2026-08-14T06:37:37.000Z</time>
      </trkpt>
      <trkpt lat="22.785229" lon="108.849344">
        <ele>99.065973</ele>
        <time>2026-08-14T06:37:38.000Z</time>
      </trkpt>
      <trkpt lat="22.785244" lon="108.849375">
        <ele>99.131870</ele>
        <time>2026-08-14T06:37:39.000Z</time>
      </trkpt>
      <trkpt lat="22.785259" lon="108.849407">
        <ele>99.199440</ele>
        <time>2026-08-14T06:37:40.000Z</time>
      </trkpt>
      <trkpt lat="22.785275" lon="108.849439">
        <ele>99.267959</ele>
        <time>2026-08-14T06:37:41.000Z</time>
      </trkpt>
      <trkpt lat="22.785291" lon="108.849470">
        <ele>99.334830</ele>
        <time>2026-08-14T06:37:42.000Z</time>
      </trkpt>
      <trkpt lat="22.785305" lon="108.849501">
        <ele>99.399803</ele>
        <time>2026-08-14T06:37:43.000Z</time>
      </trkpt>
      <trkpt lat="22.785321" lon="108.849533">
        <ele>99.468322</ele>
        <time>2026-08-14T06:37:44.000Z</time>
      </trkpt>
      <trkpt lat="22.785337" lon="108.849565">
        <ele>99.536842</ele>
        <time>2026-08-14T06:37:45.000Z</time>
      </trkpt>
      <trkpt lat="22.785351" lon="108.849598">
        <ele>99.605216</ele>
        <time>2026-08-14T06:37:46.000Z</time>
      </trkpt>
      <trkpt lat="22.785366" lon="108.849631">
        <ele>99.674469</ele>
        <time>2026-08-14T06:37:47.000Z</time>
      </trkpt>
      <trkpt lat="22.785381" lon="108.849664">
        <ele>99.743721</ele>
        <time>2026-08-14T06:37:48.000Z</time>
      </trkpt>
      <trkpt lat="22.785395" lon="108.849696">
        <ele>99.810391</ele>
        <time>2026-08-14T06:37:49.000Z</time>
      </trkpt>
      <trkpt lat="22.785409" lon="108.849728">
        <ele>99.877060</ele>
        <time>2026-08-14T06:37:50.000Z</time>
      </trkpt>
      <trkpt lat="22.785424" lon="108.849760">
        <ele>99.944629</ele>
        <time>2026-08-14T06:37:51.000Z</time>
      </trkpt>
      <trkpt lat="22.785437" lon="108.849793">
        <ele>100.012176</ele>
        <time>2026-08-14T06:37:52.000Z</time>
      </trkpt>
      <trkpt lat="22.785450" lon="108.849826">
        <ele>100.079722</ele>
        <time>2026-08-14T06:37:53.000Z</time>
      </trkpt>
      <trkpt lat="22.785464" lon="108.849859">
        <ele>100.148097</ele>
        <time>2026-08-14T06:37:54.000Z</time>
      </trkpt>
      <trkpt lat="22.785477" lon="108.849892">
        <ele>100.215643</ele>
        <time>2026-08-14T06:37:55.000Z</time>
      </trkpt>
      <trkpt lat="22.785491" lon="108.849925">
        <ele>100.284018</ele>
        <time>2026-08-14T06:37:56.000Z</time>
      </trkpt>
      <trkpt lat="22.785504" lon="108.849959">
        <ele>100.353299</ele>
        <time>2026-08-14T06:37:57.000Z</time>
      </trkpt>
      <trkpt lat="22.785517" lon="108.849994">
        <ele>100.424322</ele>
        <time>2026-08-14T06:37:58.000Z</time>
      </trkpt>
      <trkpt lat="22.785530" lon="108.850028">
        <ele>100.493604</ele>
        <time>2026-08-14T06:37:59.000Z</time>
      </trkpt>
      <trkpt lat="22.785544" lon="108.850063">
        <ele>100.565415</ele>
        <time>2026-08-14T06:38:00.000Z</time>
      </trkpt>
      <trkpt lat="22.785557" lon="108.850098">
        <ele>100.636439</ele>
        <time>2026-08-14T06:38:01.000Z</time>
      </trkpt>
      <trkpt lat="22.785569" lon="108.850132">
        <ele>100.704964</ele>
        <time>2026-08-14T06:38:02.000Z</time>
      </trkpt>
      <trkpt lat="22.785582" lon="108.850167">
        <ele>100.775987</ele>
        <time>2026-08-14T06:38:03.000Z</time>
      </trkpt>
      <trkpt lat="22.785594" lon="108.850203">
        <ele>100.848041</ele>
        <time>2026-08-14T06:38:04.000Z</time>
      </trkpt>
      <trkpt lat="22.785605" lon="108.850240">
        <ele>100.921215</ele>
        <time>2026-08-14T06:38:05.000Z</time>
      </trkpt>
      <trkpt lat="22.785616" lon="108.850276">
        <ele>100.992600</ele>
        <time>2026-08-14T06:38:06.000Z</time>
      </trkpt>
      <trkpt lat="22.785627" lon="108.850312">
        <ele>101.063985</ele>
        <time>2026-08-14T06:38:07.000Z</time>
      </trkpt>
      <trkpt lat="22.785638" lon="108.850348">
        <ele>101.135370</ele>
        <time>2026-08-14T06:38:08.000Z</time>
      </trkpt>
      <trkpt lat="22.785650" lon="108.850384">
        <ele>101.207423</ele>
        <time>2026-08-14T06:38:09.000Z</time>
      </trkpt>
      <trkpt lat="22.785662" lon="108.850420">
        <ele>101.279476</ele>
        <time>2026-08-14T06:38:10.000Z</time>
      </trkpt>
      <trkpt lat="22.785674" lon="108.850455">
        <ele>101.349762</ele>
        <time>2026-08-14T06:38:11.000Z</time>
      </trkpt>
      <trkpt lat="22.785685" lon="108.850491">
        <ele>101.421147</ele>
        <time>2026-08-14T06:38:12.000Z</time>
      </trkpt>
      <trkpt lat="22.785697" lon="108.850528">
        <ele>101.494974</ele>
        <time>2026-08-14T06:38:13.000Z</time>
      </trkpt>
      <trkpt lat="22.785708" lon="108.850564">
        <ele>101.566358</ele>
        <time>2026-08-14T06:38:14.000Z</time>
      </trkpt>
      <trkpt lat="22.785719" lon="108.850602">
        <ele>101.641326</ele>
        <time>2026-08-14T06:38:15.000Z</time>
      </trkpt>
      <trkpt lat="22.785729" lon="108.850640">
        <ele>101.715708</ele>
        <time>2026-08-14T06:38:16.000Z</time>
      </trkpt>
      <trkpt lat="22.785738" lon="108.850678">
        <ele>101.789555</ele>
        <time>2026-08-14T06:38:17.000Z</time>
      </trkpt>
      <trkpt lat="22.785747" lon="108.850717">
        <ele>101.865227</ele>
        <time>2026-08-14T06:38:18.000Z</time>
      </trkpt>
      <trkpt lat="22.785758" lon="108.850755">
        <ele>101.940194</ele>
        <time>2026-08-14T06:38:19.000Z</time>
      </trkpt>
      <trkpt lat="22.785769" lon="108.850795">
        <ele>102.018762</ele>
        <time>2026-08-14T06:38:20.000Z</time>
      </trkpt>
      <trkpt lat="22.785778" lon="108.850836">
        <ele>102.057935</ele>
        <time>2026-08-14T06:38:21.000Z</time>
      </trkpt>
      <trkpt lat="22.785789" lon="108.850877">
        <ele>101.966151</ele>
        <time>2026-08-14T06:38:22.000Z</time>
      </trkpt>
      <trkpt lat="22.785798" lon="108.850918">
        <ele>101.875559</ele>
        <time>2026-08-14T06:38:23.000Z</time>
      </trkpt>
      <trkpt lat="22.785807" lon="108.850961">
        <ele>101.780781</ele>
        <time>2026-08-14T06:38:24.000Z</time>
      </trkpt>
      <trkpt lat="22.785816" lon="108.851003">
        <ele>101.688097</ele>
        <time>2026-08-14T06:38:25.000Z</time>
      </trkpt>
      <trkpt lat="22.785824" lon="108.851047">
        <ele>101.591699</ele>
        <time>2026-08-14T06:38:26.000Z</time>
      </trkpt>
      <trkpt lat="22.785831" lon="108.851090">
        <ele>101.497842</ele>
        <time>2026-08-14T06:38:27.000Z</time>
      </trkpt>
      <trkpt lat="22.785839" lon="108.851134">
        <ele>101.401444</ele>
        <time>2026-08-14T06:38:28.000Z</time>
      </trkpt>
      <trkpt lat="22.785846" lon="108.851179">
        <ele>101.303351</ele>
        <time>2026-08-14T06:38:29.000Z</time>
      </trkpt>
      <trkpt lat="22.785853" lon="108.851223">
        <ele>101.207377</ele>
        <time>2026-08-14T06:38:30.000Z</time>
      </trkpt>
      <trkpt lat="22.785860" lon="108.851268">
        <ele>101.109284</ele>
        <time>2026-08-14T06:38:31.000Z</time>
      </trkpt>
      <trkpt lat="22.785867" lon="108.851317">
        <ele>101.002704</ele>
        <time>2026-08-14T06:38:32.000Z</time>
      </trkpt>
      <trkpt lat="22.785873" lon="108.851367">
        <ele>100.894324</ele>
        <time>2026-08-14T06:38:33.000Z</time>
      </trkpt>
      <trkpt lat="22.785879" lon="108.851419">
        <ele>100.781680</ele>
        <time>2026-08-14T06:38:34.000Z</time>
      </trkpt>
      <trkpt lat="22.785886" lon="108.851471">
        <ele>100.668723</ele>
        <time>2026-08-14T06:38:35.000Z</time>
      </trkpt>
      <trkpt lat="22.785890" lon="108.851524">
        <ele>100.554420</ele>
        <time>2026-08-14T06:38:36.000Z</time>
      </trkpt>
      <trkpt lat="22.785895" lon="108.851578">
        <ele>100.437765</ele>
        <time>2026-08-14T06:38:37.000Z</time>
      </trkpt>
      <trkpt lat="22.785900" lon="108.851634">
        <ele>100.316832</ele>
        <time>2026-08-14T06:38:38.000Z</time>
      </trkpt>
      <trkpt lat="22.785905" lon="108.851691">
        <ele>100.193759</ele>
        <time>2026-08-14T06:38:39.000Z</time>
      </trkpt>
      <trkpt lat="22.785909" lon="108.851750">
        <ele>100.066599</ele>
        <time>2026-08-14T06:38:40.000Z</time>
      </trkpt>
      <trkpt lat="22.785914" lon="108.851812">
        <ele>99.932823</ele>
        <time>2026-08-14T06:38:41.000Z</time>
      </trkpt>
      <trkpt lat="22.785916" lon="108.851875">
        <ele>99.797327</ele>
        <time>2026-08-14T06:38:42.000Z</time>
      </trkpt>
      <trkpt lat="22.785917" lon="108.851940">
        <ele>99.657592</ele>
        <time>2026-08-14T06:38:43.000Z</time>
      </trkpt>
      <trkpt lat="22.785918" lon="108.852008">
        <ele>99.511410</ele>
        <time>2026-08-14T06:38:44.000Z</time>
      </trkpt>
      <trkpt lat="22.785918" lon="108.852076">
        <ele>99.365247</ele>
        <time>2026-08-14T06:38:45.000Z</time>
      </trkpt>
      <trkpt lat="22.785916" lon="108.852148">
        <ele>99.210415</ele>
        <time>2026-08-14T06:38:46.000Z</time>
      </trkpt>
      <trkpt lat="22.785914" lon="108.852221">
        <ele>99.053435</ele>
        <time>2026-08-14T06:38:47.000Z</time>
      </trkpt>
      <trkpt lat="22.785910" lon="108.852295">
        <ele>98.894102</ele>
        <time>2026-08-14T06:38:48.000Z</time>
      </trkpt>
      <trkpt lat="22.785906" lon="108.852370">
        <ele>98.732623</ele>
        <time>2026-08-14T06:38:49.000Z</time>
      </trkpt>
      <trkpt lat="22.785900" lon="108.852447">
        <ele>98.566524</ele>
        <time>2026-08-14T06:38:50.000Z</time>
      </trkpt>
      <trkpt lat="22.785890" lon="108.852526">
        <ele>98.395123</ele>
        <time>2026-08-14T06:38:51.000Z</time>
      </trkpt>
      <trkpt lat="22.785879" lon="108.852607">
        <ele>98.219138</ele>
        <time>2026-08-14T06:38:52.000Z</time>
      </trkpt>
      <trkpt lat="22.785868" lon="108.852690">
        <ele>98.038899</ele>
        <time>2026-08-14T06:38:53.000Z</time>
      </trkpt>
      <trkpt lat="22.785859" lon="108.852775">
        <ele>97.839579</ele>
        <time>2026-08-14T06:38:54.000Z</time>
      </trkpt>
      <trkpt lat="22.785850" lon="108.852861">
        <ele>97.560960</ele>
        <time>2026-08-14T06:38:55.000Z</time>
      </trkpt>
      <trkpt lat="22.785838" lon="108.852948">
        <ele>97.277782</ele>
        <time>2026-08-14T06:38:56.000Z</time>
      </trkpt>
      <trkpt lat="22.785823" lon="108.853036">
        <ele>96.989701</ele>
        <time>2026-08-14T06:38:57.000Z</time>
      </trkpt>
      <trkpt lat="22.785809" lon="108.853123">
        <ele>96.705407</ele>
        <time>2026-08-14T06:38:58.000Z</time>
      </trkpt>
      <trkpt lat="22.785796" lon="108.853213">
        <ele>96.412154</ele>
        <time>2026-08-14T06:38:59.000Z</time>
      </trkpt>
      <trkpt lat="22.785784" lon="108.853302">
        <ele>96.122608</ele>
        <time>2026-08-14T06:39:00.000Z</time>
      </trkpt>
      <trkpt lat="22.785772" lon="108.853393">
        <ele>95.826689</ele>
        <time>2026-08-14T06:39:01.000Z</time>
      </trkpt>
      <trkpt lat="22.785758" lon="108.853485">
        <ele>95.526526</ele>
        <time>2026-08-14T06:39:02.000Z</time>
      </trkpt>
      <trkpt lat="22.785744" lon="108.853580">
        <ele>95.216830</ele>
        <time>2026-08-14T06:39:03.000Z</time>
      </trkpt>
      <trkpt lat="22.785730" lon="108.853676">
        <ele>94.903955</ele>
        <time>2026-08-14T06:39:04.000Z</time>
      </trkpt>
      <trkpt lat="22.785716" lon="108.853773">
        <ele>94.587900</ele>
        <time>2026-08-14T06:39:05.000Z</time>
      </trkpt>
      <trkpt lat="22.785703" lon="108.853874">
        <ele>94.259619</ele>
        <time>2026-08-14T06:39:06.000Z</time>
      </trkpt>
      <trkpt lat="22.785690" lon="108.853975">
        <ele>93.931337</ele>
        <time>2026-08-14T06:39:07.000Z</time>
      </trkpt>
      <trkpt lat="22.785677" lon="108.854075">
        <ele>93.606243</ele>
        <time>2026-08-14T06:39:08.000Z</time>
      </trkpt>
      <trkpt lat="22.785665" lon="108.854184">
        <ele>93.252870</ele>
        <time>2026-08-14T06:39:09.000Z</time>
      </trkpt>
      <trkpt lat="22.785653" lon="108.854291">
        <ele>92.905888</ele>
        <time>2026-08-14T06:39:10.000Z</time>
      </trkpt>
      <trkpt lat="22.785640" lon="108.854397">
        <ele>92.561658</ele>
        <time>2026-08-14T06:39:11.000Z</time>
      </trkpt>
      <trkpt lat="22.785627" lon="108.854501">
        <ele>92.223809</ele>
        <time>2026-08-14T06:39:12.000Z</time>
      </trkpt>
      <trkpt lat="22.785613" lon="108.854604">
        <ele>91.888658</ele>
        <time>2026-08-14T06:39:13.000Z</time>
      </trkpt>
      <trkpt lat="22.785598" lon="108.854707">
        <ele>91.567536</ele>
        <time>2026-08-14T06:39:14.000Z</time>
      </trkpt>
      <trkpt lat="22.785583" lon="108.854810">
        <ele>91.324236</ele>
        <time>2026-08-14T06:39:15.000Z</time>
      </trkpt>
      <trkpt lat="22.785568" lon="108.854913">
        <ele>91.080937</ele>
        <time>2026-08-14T06:39:16.000Z</time>
      </trkpt>
      <trkpt lat="22.785555" lon="108.855017">
        <ele>90.836064</ele>
        <time>2026-08-14T06:39:17.000Z</time>
      </trkpt>
      <trkpt lat="22.785542" lon="108.855124">
        <ele>90.584252</ele>
        <time>2026-08-14T06:39:18.000Z</time>
      </trkpt>
      <trkpt lat="22.785528" lon="108.855228">
        <ele>90.339026</ele>
        <time>2026-08-14T06:39:19.000Z</time>
      </trkpt>
      <trkpt lat="22.785512" lon="108.855331">
        <ele>90.095319</ele>
        <time>2026-08-14T06:39:20.000Z</time>
      </trkpt>
      <trkpt lat="22.785495" lon="108.855428">
        <ele>89.864945</ele>
        <time>2026-08-14T06:39:21.000Z</time>
      </trkpt>
      <trkpt lat="22.785474" lon="108.855520">
        <ele>89.643810</ele>
        <time>2026-08-14T06:39:22.000Z</time>
      </trkpt>
      <trkpt lat="22.785448" lon="108.855606">
        <ele>89.432641</ele>
        <time>2026-08-14T06:39:23.000Z</time>
      </trkpt>
      <trkpt lat="22.785419" lon="108.855690">
        <ele>89.223362</ele>
        <time>2026-08-14T06:39:24.000Z</time>
      </trkpt>
      <trkpt lat="22.785391" lon="108.855775">
        <ele>89.012761</ele>
        <time>2026-08-14T06:39:25.000Z</time>
      </trkpt>
      <trkpt lat="22.785364" lon="108.855858">
        <ele>88.807403</ele>
        <time>2026-08-14T06:39:26.000Z</time>
      </trkpt>
      <trkpt lat="22.785337" lon="108.855939">
        <ele>88.606441</ele>
        <time>2026-08-14T06:39:27.000Z</time>
      </trkpt>
      <trkpt lat="22.785308" lon="108.856018">
        <ele>88.408044</ele>
        <time>2026-08-14T06:39:28.000Z</time>
      </trkpt>
      <trkpt lat="22.785277" lon="108.856095">
        <ele>88.212005</ele>
        <time>2026-08-14T06:39:29.000Z</time>
      </trkpt>
      <trkpt lat="22.785247" lon="108.856170">
        <ele>88.021255</ele>
        <time>2026-08-14T06:39:30.000Z</time>
      </trkpt>
      <trkpt lat="22.785216" lon="108.856242">
        <ele>87.835848</ele>
        <time>2026-08-14T06:39:31.000Z</time>
      </trkpt>
      <trkpt lat="22.785187" lon="108.856315">
        <ele>87.650385</ele>
        <time>2026-08-14T06:39:32.000Z</time>
      </trkpt>
      <trkpt lat="22.785165" lon="108.856391">
        <ele>87.464526</ele>
        <time>2026-08-14T06:39:33.000Z</time>
      </trkpt>
      <trkpt lat="22.785152" lon="108.856468">
        <ele>87.281882</ele>
        <time>2026-08-14T06:39:34.000Z</time>
      </trkpt>
      <trkpt lat="22.785146" lon="108.856546">
        <ele>87.099259</ele>
        <time>2026-08-14T06:39:35.000Z</time>
      </trkpt>
      <trkpt lat="22.785147" lon="108.856625">
        <ele>86.907516</ele>
        <time>2026-08-14T06:39:36.000Z</time>
      </trkpt>
      <trkpt lat="22.785152" lon="108.856707">
        <ele>86.705573</ele>
        <time>2026-08-14T06:39:37.000Z</time>
      </trkpt>
      <trkpt lat="22.785161" lon="108.856789">
        <ele>86.502648</ele>
        <time>2026-08-14T06:39:38.000Z</time>
      </trkpt>
      <trkpt lat="22.785173" lon="108.856870">
        <ele>86.301050</ele>
        <time>2026-08-14T06:39:39.000Z</time>
      </trkpt>
      <trkpt lat="22.785185" lon="108.856950">
        <ele>86.101878</ele>
        <time>2026-08-14T06:39:40.000Z</time>
      </trkpt>
      <trkpt lat="22.785200" lon="108.857028">
        <ele>85.906080</ele>
        <time>2026-08-14T06:39:41.000Z</time>
      </trkpt>
      <trkpt lat="22.785216" lon="108.857105">
        <ele>85.712118</ele>
        <time>2026-08-14T06:39:42.000Z</time>
      </trkpt>
      <trkpt lat="22.785230" lon="108.857183">
        <ele>85.516847</ele>
        <time>2026-08-14T06:39:43.000Z</time>
      </trkpt>
      <trkpt lat="22.785244" lon="108.857259">
        <ele>85.326397</ele>
        <time>2026-08-14T06:39:44.000Z</time>
      </trkpt>
      <trkpt lat="22.785256" lon="108.857336">
        <ele>85.134498</ele>
        <time>2026-08-14T06:39:45.000Z</time>
      </trkpt>
      <trkpt lat="22.785266" lon="108.857415">
        <ele>84.938546</ele>
        <time>2026-08-14T06:39:46.000Z</time>
      </trkpt>
      <trkpt lat="22.785276" lon="108.857493">
        <ele>84.745029</ele>
        <time>2026-08-14T06:39:47.000Z</time>
      </trkpt>
      <trkpt lat="22.785287" lon="108.857572">
        <ele>84.548698</ele>
        <time>2026-08-14T06:39:48.000Z</time>
      </trkpt>
      <trkpt lat="22.785298" lon="108.857652">
        <ele>84.349936</ele>
        <time>2026-08-14T06:39:49.000Z</time>
      </trkpt>
      <trkpt lat="22.785309" lon="108.857732">
        <ele>84.151175</ele>
        <time>2026-08-14T06:39:50.000Z</time>
      </trkpt>
      <trkpt lat="22.785318" lon="108.857812">
        <ele>83.953129</ele>
        <time>2026-08-14T06:39:51.000Z</time>
      </trkpt>
      <trkpt lat="22.785328" lon="108.857894">
        <ele>83.749872</ele>
        <time>2026-08-14T06:39:52.000Z</time>
      </trkpt>
      <trkpt lat="22.785342" lon="108.857976">
        <ele>83.544944</ele>
        <time>2026-08-14T06:39:53.000Z</time>
      </trkpt>
      <trkpt lat="22.785354" lon="108.858058">
        <ele>83.340920</ele>
        <time>2026-08-14T06:39:54.000Z</time>
      </trkpt>
      <trkpt lat="22.785367" lon="108.858142">
        <ele>83.131615</ele>
        <time>2026-08-14T06:39:55.000Z</time>
      </trkpt>
      <trkpt lat="22.785382" lon="108.858226">
        <ele>82.921362</ele>
        <time>2026-08-14T06:39:56.000Z</time>
      </trkpt>
      <trkpt lat="22.785402" lon="108.858307">
        <ele>82.715303</ele>
        <time>2026-08-14T06:39:57.000Z</time>
      </trkpt>
      <trkpt lat="22.785422" lon="108.858390">
        <ele>82.504493</ele>
        <time>2026-08-14T06:39:58.000Z</time>
      </trkpt>
      <trkpt lat="22.785443" lon="108.858473">
        <ele>82.292993</ele>
        <time>2026-08-14T06:39:59.000Z</time>
      </trkpt>
      <trkpt lat="22.785466" lon="108.858556">
        <ele>82.015720</ele>
        <time>2026-08-14T06:40:00.000Z</time>
      </trkpt>
      <trkpt lat="22.785492" lon="108.858640">
        <ele>81.720215</ele>
        <time>2026-08-14T06:40:01.000Z</time>
      </trkpt>
      <trkpt lat="22.785517" lon="108.858722">
        <ele>81.432182</ele>
        <time>2026-08-14T06:40:02.000Z</time>
      </trkpt>
      <trkpt lat="22.785546" lon="108.858806">
        <ele>81.133047</ele>
        <time>2026-08-14T06:40:03.000Z</time>
      </trkpt>
      <trkpt lat="22.785575" lon="108.858890">
        <ele>80.833911</ele>
        <time>2026-08-14T06:40:04.000Z</time>
      </trkpt>
      <trkpt lat="22.785604" lon="108.858974">
        <ele>80.534776</ele>
        <time>2026-08-14T06:40:05.000Z</time>
      </trkpt>
      <trkpt lat="22.785637" lon="108.859059">
        <ele>80.227195</ele>
        <time>2026-08-14T06:40:06.000Z</time>
      </trkpt>
      <trkpt lat="22.785670" lon="108.859142">
        <ele>79.925749</ele>
        <time>2026-08-14T06:40:07.000Z</time>
      </trkpt>
      <trkpt lat="22.785707" lon="108.859225">
        <ele>79.618287</ele>
        <time>2026-08-14T06:40:08.000Z</time>
      </trkpt>
      <trkpt lat="22.785746" lon="108.859308">
        <ele>79.307608</ele>
        <time>2026-08-14T06:40:09.000Z</time>
      </trkpt>
      <trkpt lat="22.785787" lon="108.859390">
        <ele>78.996512</ele>
        <time>2026-08-14T06:40:10.000Z</time>
      </trkpt>
      <trkpt lat="22.785831" lon="108.859471">
        <ele>78.682978</ele>
        <time>2026-08-14T06:40:11.000Z</time>
      </trkpt>
      <trkpt lat="22.785875" lon="108.859552">
        <ele>78.369444</ele>
        <time>2026-08-14T06:40:12.000Z</time>
      </trkpt>
      <trkpt lat="22.785924" lon="108.859630">
        <ele>78.054669</ele>
        <time>2026-08-14T06:40:13.000Z</time>
      </trkpt>
      <trkpt lat="22.785972" lon="108.859711">
        <ele>77.733548</ele>
        <time>2026-08-14T06:40:14.000Z</time>
      </trkpt>
      <trkpt lat="22.786020" lon="108.859789">
        <ele>77.420796</ele>
        <time>2026-08-14T06:40:15.000Z</time>
      </trkpt>
      <trkpt lat="22.786072" lon="108.859866">
        <ele>77.102483</ele>
        <time>2026-08-14T06:40:16.000Z</time>
      </trkpt>
      <trkpt lat="22.786123" lon="108.859946">
        <ele>76.778116</ele>
        <time>2026-08-14T06:40:17.000Z</time>
      </trkpt>
      <trkpt lat="22.786176" lon="108.860023">
        <ele>76.457651</ele>
        <time>2026-08-14T06:40:18.000Z</time>
      </trkpt>
      <trkpt lat="22.786232" lon="108.860101">
        <ele>76.127955</ele>
        <time>2026-08-14T06:40:19.000Z</time>
      </trkpt>
      <trkpt lat="22.786288" lon="108.860182">
        <ele>75.790309</ele>
        <time>2026-08-14T06:40:20.000Z</time>
      </trkpt>
      <trkpt lat="22.786344" lon="108.860263">
        <ele>75.573934</ele>
        <time>2026-08-14T06:40:21.000Z</time>
      </trkpt>
      <trkpt lat="22.786401" lon="108.860344">
        <ele>75.370925</ele>
        <time>2026-08-14T06:40:22.000Z</time>
      </trkpt>
      <trkpt lat="22.786458" lon="108.860424">
        <ele>75.169496</ele>
        <time>2026-08-14T06:40:23.000Z</time>
      </trkpt>
      <trkpt lat="22.786516" lon="108.860503">
        <ele>74.968301</ele>
        <time>2026-08-14T06:40:24.000Z</time>
      </trkpt>
      <trkpt lat="22.786573" lon="108.860583">
        <ele>74.766872</ele>
        <time>2026-08-14T06:40:25.000Z</time>
      </trkpt>
      <trkpt lat="22.786630" lon="108.860665">
        <ele>74.562276</ele>
        <time>2026-08-14T06:40:26.000Z</time>
      </trkpt>
      <trkpt lat="22.786689" lon="108.860747">
        <ele>74.355049</ele>
        <time>2026-08-14T06:40:27.000Z</time>
      </trkpt>
      <trkpt lat="22.786747" lon="108.860828">
        <ele>74.150722</ele>
        <time>2026-08-14T06:40:28.000Z</time>
      </trkpt>
      <trkpt lat="22.786805" lon="108.860911">
        <ele>73.943234</ele>
        <time>2026-08-14T06:40:29.000Z</time>
      </trkpt>
      <trkpt lat="22.786862" lon="108.860993">
        <ele>73.738638</ele>
        <time>2026-08-14T06:40:30.000Z</time>
      </trkpt>
      <trkpt lat="22.786922" lon="108.861073">
        <ele>73.533181</ele>
        <time>2026-08-14T06:40:31.000Z</time>
      </trkpt>
      <trkpt lat="22.786980" lon="108.861154">
        <ele>73.328854</ele>
        <time>2026-08-14T06:40:32.000Z</time>
      </trkpt>
      <trkpt lat="22.787036" lon="108.861235">
        <ele>73.127149</ele>
        <time>2026-08-14T06:40:33.000Z</time>
      </trkpt>
      <trkpt lat="22.787092" lon="108.861315">
        <ele>72.927035</ele>
        <time>2026-08-14T06:40:34.000Z</time>
      </trkpt>
      <trkpt lat="22.787147" lon="108.861394">
        <ele>72.729813</ele>
        <time>2026-08-14T06:40:35.000Z</time>
      </trkpt>
      <trkpt lat="22.787200" lon="108.861473">
        <ele>72.535166</ele>
        <time>2026-08-14T06:40:36.000Z</time>
      </trkpt>
      <trkpt lat="22.787252" lon="108.861550">
        <ele>72.345010</ele>
        <time>2026-08-14T06:40:37.000Z</time>
      </trkpt>
      <trkpt lat="22.787304" lon="108.861624">
        <ele>72.159643</ele>
        <time>2026-08-14T06:40:38.000Z</time>
      </trkpt>
      <trkpt lat="22.787355" lon="108.861697">
        <ele>71.977170</ele>
        <time>2026-08-14T06:40:39.000Z</time>
      </trkpt>
      <trkpt lat="22.787405" lon="108.861768">
        <ele>71.852095</ele>
        <time>2026-08-14T06:40:40.000Z</time>
      </trkpt>
      <trkpt lat="22.787454" lon="108.861839">
        <ele>71.812931</ele>
        <time>2026-08-14T06:40:41.000Z</time>
      </trkpt>
      <trkpt lat="22.787502" lon="108.861909">
        <ele>71.774407</ele>
        <time>2026-08-14T06:40:42.000Z</time>
      </trkpt>
      <trkpt lat="22.787551" lon="108.861977">
        <ele>71.736296</ele>
        <time>2026-08-14T06:40:43.000Z</time>
      </trkpt>
      <trkpt lat="22.787599" lon="108.862044">
        <ele>71.698827</ele>
        <time>2026-08-14T06:40:44.000Z</time>
      </trkpt>
      <trkpt lat="22.787645" lon="108.862109">
        <ele>71.662643</ele>
        <time>2026-08-14T06:40:45.000Z</time>
      </trkpt>
      <trkpt lat="22.787691" lon="108.862173">
        <ele>71.626808</ele>
        <time>2026-08-14T06:40:46.000Z</time>
      </trkpt>
      <trkpt lat="22.787739" lon="108.862237">
        <ele>71.590376</ele>
        <time>2026-08-14T06:40:47.000Z</time>
      </trkpt>
      <trkpt lat="22.787784" lon="108.862300">
        <ele>71.555184</ele>
        <time>2026-08-14T06:40:48.000Z</time>
      </trkpt>
      <trkpt lat="22.787830" lon="108.862363">
        <ele>71.519696</ele>
        <time>2026-08-14T06:40:49.000Z</time>
      </trkpt>
      <trkpt lat="22.787875" lon="108.862425">
        <ele>71.484852</ele>
        <time>2026-08-14T06:40:50.000Z</time>
      </trkpt>
      <trkpt lat="22.787920" lon="108.862486">
        <ele>71.450353</ele>
        <time>2026-08-14T06:40:51.000Z</time>
      </trkpt>
      <trkpt lat="22.787965" lon="108.862548">
        <ele>71.415509</ele>
        <time>2026-08-14T06:40:52.000Z</time>
      </trkpt>
      <trkpt lat="22.788009" lon="108.862609">
        <ele>71.381308</ele>
        <time>2026-08-14T06:40:53.000Z</time>
      </trkpt>
      <trkpt lat="22.788052" lon="108.862669">
        <ele>71.347749</ele>
        <time>2026-08-14T06:40:54.000Z</time>
      </trkpt>
      <trkpt lat="22.788095" lon="108.862727">
        <ele>71.314884</ele>
        <time>2026-08-14T06:40:55.000Z</time>
      </trkpt>
      <trkpt lat="22.788137" lon="108.862787">
        <ele>71.281617</ele>
        <time>2026-08-14T06:40:56.000Z</time>
      </trkpt>
      <trkpt lat="22.788179" lon="108.862848">
        <ele>71.247998</ele>
        <time>2026-08-14T06:40:57.000Z</time>
      </trkpt>
      <trkpt lat="22.788219" lon="108.862909">
        <ele>71.214942</ele>
        <time>2026-08-14T06:40:58.000Z</time>
      </trkpt>
      <trkpt lat="22.788259" lon="108.862971">
        <ele>71.181527</ele>
        <time>2026-08-14T06:40:59.000Z</time>
      </trkpt>
      <trkpt lat="22.788299" lon="108.863032">
        <ele>71.148471</ele>
        <time>2026-08-14T06:41:00.000Z</time>
      </trkpt>
      <trkpt lat="22.788336" lon="108.863094">
        <ele>71.115858</ele>
        <time>2026-08-14T06:41:01.000Z</time>
      </trkpt>
      <trkpt lat="22.788372" lon="108.863155">
        <ele>71.083875</ele>
        <time>2026-08-14T06:41:02.000Z</time>
      </trkpt>
      <trkpt lat="22.788407" lon="108.863216">
        <ele>71.052148</ele>
        <time>2026-08-14T06:41:03.000Z</time>
      </trkpt>
      <trkpt lat="22.788440" lon="108.863276">
        <ele>71.021297</ele>
        <time>2026-08-14T06:41:04.000Z</time>
      </trkpt>
      <trkpt lat="22.788470" lon="108.863339">
        <ele>70.998304</ele>
        <time>2026-08-14T06:41:05.000Z</time>
      </trkpt>
      <trkpt lat="22.788497" lon="108.863401">
        <ele>70.984087</ele>
        <time>2026-08-14T06:41:06.000Z</time>
      </trkpt>
      <trkpt lat="22.788523" lon="108.863464">
        <ele>70.969775</ele>
        <time>2026-08-14T06:41:07.000Z</time>
      </trkpt>
      <trkpt lat="22.788547" lon="108.863527">
        <ele>70.955641</ele>
        <time>2026-08-14T06:41:08.000Z</time>
      </trkpt>
      <trkpt lat="22.788568" lon="108.863590">
        <ele>70.941750</ele>
        <time>2026-08-14T06:41:09.000Z</time>
      </trkpt>
      <trkpt lat="22.788588" lon="108.863655">
        <ele>70.927542</ele>
        <time>2026-08-14T06:41:10.000Z</time>
      </trkpt>
      <trkpt lat="22.788605" lon="108.863720">
        <ele>70.913533</ele>
        <time>2026-08-14T06:41:11.000Z</time>
      </trkpt>
      <trkpt lat="22.788620" lon="108.863787">
        <ele>70.899237</ele>
        <time>2026-08-14T06:41:12.000Z</time>
      </trkpt>
      <trkpt lat="22.788635" lon="108.863855">
        <ele>70.884739</ele>
        <time>2026-08-14T06:41:13.000Z</time>
      </trkpt>
      <trkpt lat="22.788647" lon="108.863924">
        <ele>70.870180</ele>
        <time>2026-08-14T06:41:14.000Z</time>
      </trkpt>
      <trkpt lat="22.788656" lon="108.863993">
        <ele>70.855730</ele>
        <time>2026-08-14T06:41:15.000Z</time>
      </trkpt>
      <trkpt lat="22.788662" lon="108.864063">
        <ele>70.841154</ele>
        <time>2026-08-14T06:41:16.000Z</time>
      </trkpt>
      <trkpt lat="22.788665" lon="108.864133">
        <ele>70.826624</ele>
        <time>2026-08-14T06:41:17.000Z</time>
      </trkpt>
      <trkpt lat="22.788668" lon="108.864203">
        <ele>70.812094</ele>
        <time>2026-08-14T06:41:18.000Z</time>
      </trkpt>
      <trkpt lat="22.788668" lon="108.864273">
        <ele>70.797579</ele>
        <time>2026-08-14T06:41:19.000Z</time>
      </trkpt>
      <trkpt lat="22.788666" lon="108.864342">
        <ele>70.783265</ele>
        <time>2026-08-14T06:41:20.000Z</time>
      </trkpt>
      <trkpt lat="22.788660" lon="108.864412">
        <ele>70.768689</ele>
        <time>2026-08-14T06:41:21.000Z</time>
      </trkpt>
      <trkpt lat="22.788652" lon="108.864482">
        <ele>70.754063</ele>
        <time>2026-08-14T06:41:22.000Z</time>
      </trkpt>
      <trkpt lat="22.788642" lon="108.864550">
        <ele>70.739785</ele>
        <time>2026-08-14T06:41:23.000Z</time>
      </trkpt>
      <trkpt lat="22.788629" lon="108.864618">
        <ele>70.725386</ele>
        <time>2026-08-14T06:41:24.000Z</time>
      </trkpt>
      <trkpt lat="22.788614" lon="108.864686">
        <ele>70.710888</ele>
        <time>2026-08-14T06:41:25.000Z</time>
      </trkpt>
      <trkpt lat="22.788598" lon="108.864752">
        <ele>70.696738</ele>
        <time>2026-08-14T06:41:26.000Z</time>
      </trkpt>
      <trkpt lat="22.788579" lon="108.864818">
        <ele>70.682402</ele>
        <time>2026-08-14T06:41:27.000Z</time>
      </trkpt>
      <trkpt lat="22.788559" lon="108.864882">
        <ele>70.668390</ele>
        <time>2026-08-14T06:41:28.000Z</time>
      </trkpt>
      <trkpt lat="22.788540" lon="108.864946">
        <ele>70.654449</ele>
        <time>2026-08-14T06:41:29.000Z</time>
      </trkpt>
      <trkpt lat="22.788520" lon="108.865009">
        <ele>70.640633</ele>
        <time>2026-08-14T06:41:30.000Z</time>
      </trkpt>
      <trkpt lat="22.788499" lon="108.865072">
        <ele>70.626743</ele>
        <time>2026-08-14T06:41:31.000Z</time>
      </trkpt>
      <trkpt lat="22.788477" lon="108.865136">
        <ele>70.612580</ele>
        <time>2026-08-14T06:41:32.000Z</time>
      </trkpt>
      <trkpt lat="22.788456" lon="108.865198">
        <ele>70.604305</ele>
        <time>2026-08-14T06:41:33.000Z</time>
      </trkpt>
      <trkpt lat="22.788434" lon="108.865258">
        <ele>70.622968</ele>
        <time>2026-08-14T06:41:34.000Z</time>
      </trkpt>
      <trkpt lat="22.788412" lon="108.865318">
        <ele>70.641632</ele>
        <time>2026-08-14T06:41:35.000Z</time>
      </trkpt>
      <trkpt lat="22.788392" lon="108.865378">
        <ele>70.660073</ele>
        <time>2026-08-14T06:41:36.000Z</time>
      </trkpt>
      <trkpt lat="22.788372" lon="108.865435">
        <ele>70.677701</ele>
        <time>2026-08-14T06:41:37.000Z</time>
      </trkpt>
      <trkpt lat="22.788352" lon="108.865492">
        <ele>70.695329</ele>
        <time>2026-08-14T06:41:38.000Z</time>
      </trkpt>
      <trkpt lat="22.788333" lon="108.865550">
        <ele>70.713120</ele>
        <time>2026-08-14T06:41:39.000Z</time>
      </trkpt>
      <trkpt lat="22.788316" lon="108.865607">
        <ele>70.730435</ele>
        <time>2026-08-14T06:41:40.000Z</time>
      </trkpt>
      <trkpt lat="22.788300" lon="108.865663">
        <ele>70.747381</ele>
        <time>2026-08-14T06:41:41.000Z</time>
      </trkpt>
      <trkpt lat="22.788283" lon="108.865719">
        <ele>70.764422</ele>
        <time>2026-08-14T06:41:42.000Z</time>
      </trkpt>
      <trkpt lat="22.788266" lon="108.865775">
        <ele>70.781463</ele>
        <time>2026-08-14T06:41:43.000Z</time>
      </trkpt>
      <trkpt lat="22.788252" lon="108.865834">
        <ele>70.799072</ele>
        <time>2026-08-14T06:41:44.000Z</time>
      </trkpt>
      <trkpt lat="22.788238" lon="108.865891">
        <ele>70.816122</ele>
        <time>2026-08-14T06:41:45.000Z</time>
      </trkpt>
      <trkpt lat="22.788225" lon="108.865949">
        <ele>70.833374</ele>
        <time>2026-08-14T06:41:46.000Z</time>
      </trkpt>
      <trkpt lat="22.788212" lon="108.866007">
        <ele>70.850627</ele>
        <time>2026-08-14T06:41:47.000Z</time>
      </trkpt>
      <trkpt lat="22.788201" lon="108.866067">
        <ele>70.868309</ele>
        <time>2026-08-14T06:41:48.000Z</time>
      </trkpt>
      <trkpt lat="22.788191" lon="108.866127">
        <ele>70.885932</ele>
        <time>2026-08-14T06:41:49.000Z</time>
      </trkpt>
      <trkpt lat="22.788183" lon="108.866186">
        <ele>70.903169</ele>
        <time>2026-08-14T06:41:50.000Z</time>
      </trkpt>
      <trkpt lat="22.788175" lon="108.866245">
        <ele>70.920406</ele>
        <time>2026-08-14T06:41:51.000Z</time>
      </trkpt>
      <trkpt lat="22.788167" lon="108.866303">
        <ele>70.937356</ele>
        <time>2026-08-14T06:41:52.000Z</time>
      </trkpt>
      <trkpt lat="22.788161" lon="108.866363">
        <ele>70.954800</ele>
        <time>2026-08-14T06:41:53.000Z</time>
      </trkpt>
      <trkpt lat="22.788155" lon="108.866425">
        <ele>70.972819</ele>
        <time>2026-08-14T06:41:54.000Z</time>
      </trkpt>
      <trkpt lat="22.788151" lon="108.866488">
        <ele>70.991072</ele>
        <time>2026-08-14T06:41:55.000Z</time>
      </trkpt>
      <trkpt lat="22.788147" lon="108.866547">
        <ele>71.008171</ele>
        <time>2026-08-14T06:41:56.000Z</time>
      </trkpt>
      <trkpt lat="22.788146" lon="108.866609">
        <ele>71.026094</ele>
        <time>2026-08-14T06:41:57.000Z</time>
      </trkpt>
      <trkpt lat="22.788146" lon="108.866670">
        <ele>71.043725</ele>
        <time>2026-08-14T06:41:58.000Z</time>
      </trkpt>
      <trkpt lat="22.788147" lon="108.866733">
        <ele>71.061938</ele>
        <time>2026-08-14T06:41:59.000Z</time>
      </trkpt>
      <trkpt lat="22.788149" lon="108.866794">
        <ele>71.079580</ele>
        <time>2026-08-14T06:42:00.000Z</time>
      </trkpt>
      <trkpt lat="22.788152" lon="108.866854">
        <ele>71.096948</ele>
        <time>2026-08-14T06:42:01.000Z</time>
      </trkpt>
      <trkpt lat="22.788152" lon="108.866917">
        <ele>71.115157</ele>
        <time>2026-08-14T06:42:02.000Z</time>
      </trkpt>
      <trkpt lat="22.788154" lon="108.866979">
        <ele>71.133088</ele>
        <time>2026-08-14T06:42:03.000Z</time>
      </trkpt>
      <trkpt lat="22.788156" lon="108.867040">
        <ele>71.150731</ele>
        <time>2026-08-14T06:42:04.000Z</time>
      </trkpt>
      <trkpt lat="22.788159" lon="108.867102">
        <ele>71.166652</ele>
        <time>2026-08-14T06:42:05.000Z</time>
      </trkpt>
      <trkpt lat="22.788161" lon="108.867163">
        <ele>71.174471</ele>
        <time>2026-08-14T06:42:06.000Z</time>
      </trkpt>
      <trkpt lat="22.788165" lon="108.867223">
        <ele>71.182177</ele>
        <time>2026-08-14T06:42:07.000Z</time>
      </trkpt>
      <trkpt lat="22.788169" lon="108.867285">
        <ele>71.190138</ele>
        <time>2026-08-14T06:42:08.000Z</time>
      </trkpt>
      <trkpt lat="22.788172" lon="108.867347">
        <ele>71.198091</ele>
        <time>2026-08-14T06:42:09.000Z</time>
      </trkpt>
      <trkpt lat="22.788176" lon="108.867406">
        <ele>71.205669</ele>
        <time>2026-08-14T06:42:10.000Z</time>
      </trkpt>
      <trkpt lat="22.788182" lon="108.867465">
        <ele>71.213273</ele>
        <time>2026-08-14T06:42:11.000Z</time>
      </trkpt>
      <trkpt lat="22.788186" lon="108.867526">
        <ele>71.221107</ele>
        <time>2026-08-14T06:42:12.000Z</time>
      </trkpt>
      <trkpt lat="22.788187" lon="108.867585">
        <ele>71.228666</ele>
        <time>2026-08-14T06:42:13.000Z</time>
      </trkpt>
      <trkpt lat="22.788188" lon="108.867645">
        <ele>71.236353</ele>
        <time>2026-08-14T06:42:14.000Z</time>
      </trkpt>
      <trkpt lat="22.788190" lon="108.867706">
        <ele>71.244172</ele>
        <time>2026-08-14T06:42:15.000Z</time>
      </trkpt>
      <trkpt lat="22.788193" lon="108.867765">
        <ele>71.251741</ele>
        <time>2026-08-14T06:42:16.000Z</time>
      </trkpt>
      <trkpt lat="22.788197" lon="108.867824">
        <ele>71.259319</ele>
        <time>2026-08-14T06:42:17.000Z</time>
      </trkpt>
      <trkpt lat="22.788200" lon="108.867882">
        <ele>71.266761</ele>
        <time>2026-08-14T06:42:18.000Z</time>
      </trkpt>
      <trkpt lat="22.788203" lon="108.867939">
        <ele>71.274074</ele>
        <time>2026-08-14T06:42:19.000Z</time>
      </trkpt>
      <trkpt lat="22.788205" lon="108.867996">
        <ele>71.281381</ele>
        <time>2026-08-14T06:42:20.000Z</time>
      </trkpt>
      <trkpt lat="22.788209" lon="108.868055">
        <ele>71.288959</ele>
        <time>2026-08-14T06:42:21.000Z</time>
      </trkpt>
      <trkpt lat="22.788210" lon="108.868115">
        <ele>71.296647</ele>
        <time>2026-08-14T06:42:22.000Z</time>
      </trkpt>
      <trkpt lat="22.788212" lon="108.868174">
        <ele>71.304209</ele>
        <time>2026-08-14T06:42:23.000Z</time>
      </trkpt>
      <trkpt lat="22.788216" lon="108.868232">
        <ele>71.311660</ele>
        <time>2026-08-14T06:42:24.000Z</time>
      </trkpt>
      <trkpt lat="22.788217" lon="108.868291">
        <ele>71.319219</ele>
        <time>2026-08-14T06:42:25.000Z</time>
      </trkpt>
      <trkpt lat="22.788219" lon="108.868348">
        <ele>71.326526</ele>
        <time>2026-08-14T06:42:26.000Z</time>
      </trkpt>
      <trkpt lat="22.788224" lon="108.868406">
        <ele>71.333988</ele>
        <time>2026-08-14T06:42:27.000Z</time>
      </trkpt>
      <trkpt lat="22.788227" lon="108.868467">
        <ele>71.341813</ele>
        <time>2026-08-14T06:42:28.000Z</time>
      </trkpt>
      <trkpt lat="22.788228" lon="108.868527">
        <ele>71.349500</ele>
        <time>2026-08-14T06:42:29.000Z</time>
      </trkpt>
      <trkpt lat="22.788230" lon="108.868585">
        <ele>71.356935</ele>
        <time>2026-08-14T06:42:30.000Z</time>
      </trkpt>
      <trkpt lat="22.788233" lon="108.868644">
        <ele>71.364504</ele>
        <time>2026-08-14T06:42:31.000Z</time>
      </trkpt>
      <trkpt lat="22.788236" lon="108.868702">
        <ele>71.371946</ele>
        <time>2026-08-14T06:42:32.000Z</time>
      </trkpt>
      <trkpt lat="22.788241" lon="108.868759">
        <ele>71.379280</ele>
        <time>2026-08-14T06:42:33.000Z</time>
      </trkpt>
      <trkpt lat="22.788244" lon="108.868816">
        <ele>71.386594</ele>
        <time>2026-08-14T06:42:34.000Z</time>
      </trkpt>
      <trkpt lat="22.788247" lon="108.868874">
        <ele>71.394035</ele>
        <time>2026-08-14T06:42:35.000Z</time>
      </trkpt>
      <trkpt lat="22.788247" lon="108.868932">
        <ele>71.401465</ele>
        <time>2026-08-14T06:42:36.000Z</time>
      </trkpt>
      <trkpt lat="22.788250" lon="108.868988">
        <ele>71.408650</ele>
        <time>2026-08-14T06:42:37.000Z</time>
      </trkpt>
      <trkpt lat="22.788253" lon="108.869046">
        <ele>71.416722</ele>
        <time>2026-08-14T06:42:38.000Z</time>
      </trkpt>
      <trkpt lat="22.788256" lon="108.869104">
        <ele>71.428276</ele>
        <time>2026-08-14T06:42:39.000Z</time>
      </trkpt>
      <trkpt lat="22.788259" lon="108.869164">
        <ele>71.440226</ele>
        <time>2026-08-14T06:42:40.000Z</time>
      </trkpt>
      <trkpt lat="22.788261" lon="108.869226">
        <ele>71.452565</ele>
        <time>2026-08-14T06:42:41.000Z</time>
      </trkpt>
      <trkpt lat="22.788264" lon="108.869287">
        <ele>71.464714</ele>
        <time>2026-08-14T06:42:42.000Z</time>
      </trkpt>
      <trkpt lat="22.788267" lon="108.869349">
        <ele>71.477062</ele>
        <time>2026-08-14T06:42:43.000Z</time>
      </trkpt>
      <trkpt lat="22.788270" lon="108.869413">
        <ele>71.489807</ele>
        <time>2026-08-14T06:42:44.000Z</time>
      </trkpt>
      <trkpt lat="22.788273" lon="108.869474">
        <ele>71.501956</ele>
        <time>2026-08-14T06:42:45.000Z</time>
      </trkpt>
      <trkpt lat="22.788275" lon="108.869537">
        <ele>71.514493</ele>
        <time>2026-08-14T06:42:46.000Z</time>
      </trkpt>
      <trkpt lat="22.788277" lon="108.869600">
        <ele>71.527030</ele>
        <time>2026-08-14T06:42:47.000Z</time>
      </trkpt>
      <trkpt lat="22.788281" lon="108.869664">
        <ele>71.539788</ele>
        <time>2026-08-14T06:42:48.000Z</time>
      </trkpt>
      <trkpt lat="22.788285" lon="108.869728">
        <ele>71.552546</ele>
        <time>2026-08-14T06:42:49.000Z</time>
      </trkpt>
      <trkpt lat="22.788287" lon="108.869790">
        <ele>71.564884</ele>
        <time>2026-08-14T06:42:50.000Z</time>
      </trkpt>
      <trkpt lat="22.788290" lon="108.869852">
        <ele>71.577232</ele>
        <time>2026-08-14T06:42:51.000Z</time>
      </trkpt>
      <trkpt lat="22.788294" lon="108.869914">
        <ele>71.589593</ele>
        <time>2026-08-14T06:42:52.000Z</time>
      </trkpt>
      <trkpt lat="22.788299" lon="108.869977">
        <ele>71.602169</ele>
        <time>2026-08-14T06:42:53.000Z</time>
      </trkpt>
      <trkpt lat="22.788305" lon="108.870041">
        <ele>71.614963</ele>
        <time>2026-08-14T06:42:54.000Z</time>
      </trkpt>
      <trkpt lat="22.788312" lon="108.870104">
        <ele>71.627583</ele>
        <time>2026-08-14T06:42:55.000Z</time>
      </trkpt>
      <trkpt lat="22.788320" lon="108.870167">
        <ele>71.640231</ele>
        <time>2026-08-14T06:42:56.000Z</time>
      </trkpt>
      <trkpt lat="22.788328" lon="108.870231">
        <ele>71.653076</ele>
        <time>2026-08-14T06:42:57.000Z</time>
      </trkpt>
      <trkpt lat="22.788336" lon="108.870297">
        <ele>71.666316</ele>
        <time>2026-08-14T06:42:58.000Z</time>
      </trkpt>
      <trkpt lat="22.788345" lon="108.870362">
        <ele>71.679388</ele>
        <time>2026-08-14T06:42:59.000Z</time>
      </trkpt>
      <trkpt lat="22.788354" lon="108.870426">
        <ele>71.692264</ele>
        <time>2026-08-14T06:43:00.000Z</time>
      </trkpt>
      <trkpt lat="22.788366" lon="108.870489">
        <ele>71.705058</ele>
        <time>2026-08-14T06:43:01.000Z</time>
      </trkpt>
      <trkpt lat="22.788378" lon="108.870553">
        <ele>71.718047</ele>
        <time>2026-08-14T06:43:02.000Z</time>
      </trkpt>
      <trkpt lat="22.788391" lon="108.870617">
        <ele>71.731081</ele>
        <time>2026-08-14T06:43:03.000Z</time>
      </trkpt>
      <trkpt lat="22.788404" lon="108.870682">
        <ele>71.744309</ele>
        <time>2026-08-14T06:43:04.000Z</time>
      </trkpt>
      <trkpt lat="22.788419" lon="108.870746">
        <ele>71.757443</ele>
        <time>2026-08-14T06:43:05.000Z</time>
      </trkpt>
      <trkpt lat="22.788434" lon="108.870809">
        <ele>71.770383</ele>
        <time>2026-08-14T06:43:06.000Z</time>
      </trkpt>
      <trkpt lat="22.788451" lon="108.870874">
        <ele>71.783821</ele>
        <time>2026-08-14T06:43:07.000Z</time>
      </trkpt>
      <trkpt lat="22.788466" lon="108.870936">
        <ele>71.796569</ele>
        <time>2026-08-14T06:43:08.000Z</time>
      </trkpt>
      <trkpt lat="22.788484" lon="108.871000">
        <ele>71.817646</ele>
        <time>2026-08-14T06:43:09.000Z</time>
      </trkpt>
      <trkpt lat="22.788502" lon="108.871062">
        <ele>71.845094</ele>
        <time>2026-08-14T06:43:10.000Z</time>
      </trkpt>
      <trkpt lat="22.788518" lon="108.871126">
        <ele>71.873095</ele>
        <time>2026-08-14T06:43:11.000Z</time>
      </trkpt>
      <trkpt lat="22.788536" lon="108.871191">
        <ele>71.901753</ele>
        <time>2026-08-14T06:43:12.000Z</time>
      </trkpt>
      <trkpt lat="22.788556" lon="108.871256">
        <ele>71.930688</ele>
        <time>2026-08-14T06:43:13.000Z</time>
      </trkpt>
      <trkpt lat="22.788577" lon="108.871319">
        <ele>71.958976</ele>
        <time>2026-08-14T06:43:14.000Z</time>
      </trkpt>
      <trkpt lat="22.788595" lon="108.871380">
        <ele>71.986021</ele>
        <time>2026-08-14T06:43:15.000Z</time>
      </trkpt>
      <trkpt lat="22.788613" lon="108.871442">
        <ele>72.013468</ele>
        <time>2026-08-14T06:43:16.000Z</time>
      </trkpt>
      <trkpt lat="22.788628" lon="108.871504">
        <ele>72.040535</ele>
        <time>2026-08-14T06:43:17.000Z</time>
      </trkpt>
      <trkpt lat="22.788644" lon="108.871563">
        <ele>72.066503</ele>
        <time>2026-08-14T06:43:18.000Z</time>
      </trkpt>
      <trkpt lat="22.788660" lon="108.871620">
        <ele>72.091663</ele>
        <time>2026-08-14T06:43:19.000Z</time>
      </trkpt>
      <trkpt lat="22.788675" lon="108.871678">
        <ele>72.117100</ele>
        <time>2026-08-14T06:43:20.000Z</time>
      </trkpt>
      <trkpt lat="22.788690" lon="108.871735">
        <ele>72.142130</ele>
        <time>2026-08-14T06:43:21.000Z</time>
      </trkpt>
      <trkpt lat="22.788706" lon="108.871793">
        <ele>72.167694</ele>
        <time>2026-08-14T06:43:22.000Z</time>
      </trkpt>
      <trkpt lat="22.788722" lon="108.871852">
        <ele>72.193662</ele>
        <time>2026-08-14T06:43:23.000Z</time>
      </trkpt>
      <trkpt lat="22.788739" lon="108.871908">
        <ele>72.218558</ele>
        <time>2026-08-14T06:43:24.000Z</time>
      </trkpt>
      <trkpt lat="22.788754" lon="108.871966">
        <ele>72.243994</ele>
        <time>2026-08-14T06:43:25.000Z</time>
      </trkpt>
      <trkpt lat="22.788771" lon="108.872022">
        <ele>72.268889</ele>
        <time>2026-08-14T06:43:26.000Z</time>
      </trkpt>
      <trkpt lat="22.788789" lon="108.872077">
        <ele>72.293534</ele>
        <time>2026-08-14T06:43:27.000Z</time>
      </trkpt>
      <trkpt lat="22.788806" lon="108.872131">
        <ele>72.317628</ele>
        <time>2026-08-14T06:43:28.000Z</time>
      </trkpt>
      <trkpt lat="22.788823" lon="108.872185">
        <ele>72.341723</ele>
        <time>2026-08-14T06:43:29.000Z</time>
      </trkpt>
      <trkpt lat="22.788837" lon="108.872241">
        <ele>72.366223</ele>
        <time>2026-08-14T06:43:30.000Z</time>
      </trkpt>
      <trkpt lat="22.788853" lon="108.872296">
        <ele>72.390576</ele>
        <time>2026-08-14T06:43:31.000Z</time>
      </trkpt>
      <trkpt lat="22.788868" lon="108.872348">
        <ele>72.413584</ele>
        <time>2026-08-14T06:43:32.000Z</time>
      </trkpt>
      <trkpt lat="22.788883" lon="108.872401">
        <ele>72.436994</ele>
        <time>2026-08-14T06:43:33.000Z</time>
      </trkpt>
      <trkpt lat="22.788898" lon="108.872453">
        <ele>72.460001</ele>
        <time>2026-08-14T06:43:34.000Z</time>
      </trkpt>
      <trkpt lat="22.788915" lon="108.872505">
        <ele>72.483298</ele>
        <time>2026-08-14T06:43:35.000Z</time>
      </trkpt>
      <trkpt lat="22.788932" lon="108.872558">
        <ele>72.506994</ele>
        <time>2026-08-14T06:43:36.000Z</time>
      </trkpt>
      <trkpt lat="22.788948" lon="108.872610">
        <ele>72.530142</ele>
        <time>2026-08-14T06:43:37.000Z</time>
      </trkpt>
      <trkpt lat="22.788963" lon="108.872664">
        <ele>72.553956</ele>
        <time>2026-08-14T06:43:38.000Z</time>
      </trkpt>
      <trkpt lat="22.788977" lon="108.872718">
        <ele>72.577643</ele>
        <time>2026-08-14T06:43:39.000Z</time>
      </trkpt>
      <trkpt lat="22.788994" lon="108.872772">
        <ele>72.601737</ele>
        <time>2026-08-14T06:43:40.000Z</time>
      </trkpt>
      <trkpt lat="22.789010" lon="108.872824">
        <ele>72.624885</ele>
        <time>2026-08-14T06:43:41.000Z</time>
      </trkpt>
      <trkpt lat="22.789026" lon="108.872877">
        <ele>72.648478</ele>
        <time>2026-08-14T06:43:42.000Z</time>
      </trkpt>
      <trkpt lat="22.789042" lon="108.872929">
        <ele>72.671673</ele>
        <time>2026-08-14T06:43:43.000Z</time>
      </trkpt>
      <trkpt lat="22.789057" lon="108.872981">
        <ele>72.694727</ele>
        <time>2026-08-14T06:43:44.000Z</time>
      </trkpt>
      <trkpt lat="22.789071" lon="108.873034">
        <ele>72.718054</ele>
        <time>2026-08-14T06:43:45.000Z</time>
      </trkpt>
      <trkpt lat="22.789087" lon="108.873087">
        <ele>72.741651</ele>
        <time>2026-08-14T06:43:46.000Z</time>
      </trkpt>
      <trkpt lat="22.789102" lon="108.873139">
        <ele>72.764705</ele>
        <time>2026-08-14T06:43:47.000Z</time>
      </trkpt>
      <trkpt lat="22.789118" lon="108.873193">
        <ele>72.788704</ele>
        <time>2026-08-14T06:43:48.000Z</time>
      </trkpt>
      <trkpt lat="22.789133" lon="108.873246">
        <ele>72.812162</ele>
        <time>2026-08-14T06:43:49.000Z</time>
      </trkpt>
      <trkpt lat="22.789149" lon="108.873299">
        <ele>72.835758</ele>
        <time>2026-08-14T06:43:50.000Z</time>
      </trkpt>
      <trkpt lat="22.789165" lon="108.873352">
        <ele>72.859355</ele>
        <time>2026-08-14T06:43:51.000Z</time>
      </trkpt>
      <trkpt lat="22.789180" lon="108.873406">
        <ele>72.883217</ele>
        <time>2026-08-14T06:43:52.000Z</time>
      </trkpt>
      <trkpt lat="22.789196" lon="108.873460">
        <ele>72.907217</ele>
        <time>2026-08-14T06:43:53.000Z</time>
      </trkpt>
      <trkpt lat="22.789211" lon="108.873514">
        <ele>72.931079</ele>
        <time>2026-08-14T06:43:54.000Z</time>
      </trkpt>
      <trkpt lat="22.789229" lon="108.873567">
        <ele>72.954977</ele>
        <time>2026-08-14T06:43:55.000Z</time>
      </trkpt>
      <trkpt lat="22.789247" lon="108.873621">
        <ele>72.979273</ele>
        <time>2026-08-14T06:43:56.000Z</time>
      </trkpt>
      <trkpt lat="22.789265" lon="108.873674">
        <ele>73.003171</ele>
        <time>2026-08-14T06:43:57.000Z</time>
      </trkpt>
      <trkpt lat="22.789283" lon="108.873726">
        <ele>73.026673</ele>
        <time>2026-08-14T06:43:58.000Z</time>
      </trkpt>
      <trkpt lat="22.789301" lon="108.873778">
        <ele>73.050174</ele>
        <time>2026-08-14T06:43:59.000Z</time>
      </trkpt>
      <trkpt lat="22.789319" lon="108.873832">
        <ele>73.074470</ele>
        <time>2026-08-14T06:44:00.000Z</time>
      </trkpt>
      <trkpt lat="22.789336" lon="108.873886">
        <ele>73.098613</ele>
        <time>2026-08-14T06:44:01.000Z</time>
      </trkpt>
      <trkpt lat="22.789355" lon="108.873939">
        <ele>73.122674</ele>
        <time>2026-08-14T06:44:02.000Z</time>
      </trkpt>
      <trkpt lat="22.789374" lon="108.873991">
        <ele>73.146341</ele>
        <time>2026-08-14T06:44:03.000Z</time>
      </trkpt>
      <trkpt lat="22.789393" lon="108.874042">
        <ele>73.169615</ele>
        <time>2026-08-14T06:44:04.000Z</time>
      </trkpt>
      <trkpt lat="22.789411" lon="108.874093">
        <ele>73.192721</ele>
        <time>2026-08-14T06:44:05.000Z</time>
      </trkpt>
      <trkpt lat="22.789429" lon="108.874144">
        <ele>73.215827</ele>
        <time>2026-08-14T06:44:06.000Z</time>
      </trkpt>
      <trkpt lat="22.789447" lon="108.874196">
        <ele>73.239328</ele>
        <time>2026-08-14T06:44:07.000Z</time>
      </trkpt>
      <trkpt lat="22.789466" lon="108.874247">
        <ele>73.262602</ele>
        <time>2026-08-14T06:44:08.000Z</time>
      </trkpt>
      <trkpt lat="22.789486" lon="108.874299">
        <ele>73.286442</ele>
        <time>2026-08-14T06:44:09.000Z</time>
      </trkpt>
      <trkpt lat="22.789506" lon="108.874352">
        <ele>73.310673</ele>
        <time>2026-08-14T06:44:10.000Z</time>
      </trkpt>
      <trkpt lat="22.789527" lon="108.874404">
        <ele>73.334693</ele>
        <time>2026-08-14T06:44:11.000Z</time>
      </trkpt>
      <trkpt lat="22.789548" lon="108.874457">
        <ele>73.359101</ele>
        <time>2026-08-14T06:44:12.000Z</time>
      </trkpt>
      <trkpt lat="22.789569" lon="108.874510">
        <ele>73.383509</ele>
        <time>2026-08-14T06:44:13.000Z</time>
      </trkpt>
      <trkpt lat="22.789589" lon="108.874563">
        <ele>73.407740</ele>
        <time>2026-08-14T06:44:14.000Z</time>
      </trkpt>
      <trkpt lat="22.789611" lon="108.874618">
        <ele>73.433107</ele>
        <time>2026-08-14T06:44:15.000Z</time>
      </trkpt>
      <trkpt lat="22.789633" lon="108.874672">
        <ele>73.447810</ele>
        <time>2026-08-14T06:44:16.000Z</time>
      </trkpt>
      <trkpt lat="22.789656" lon="108.874729">
        <ele>73.427959</ele>
        <time>2026-08-14T06:44:17.000Z</time>
      </trkpt>
      <trkpt lat="22.789679" lon="108.874785">
        <ele>73.408400</ele>
        <time>2026-08-14T06:44:18.000Z</time>
      </trkpt>
      <trkpt lat="22.789702" lon="108.874841">
        <ele>73.388841</ele>
        <time>2026-08-14T06:44:19.000Z</time>
      </trkpt>
      <trkpt lat="22.789724" lon="108.874897">
        <ele>73.369421</ele>
        <time>2026-08-14T06:44:20.000Z</time>
      </trkpt>
      <trkpt lat="22.789747" lon="108.874953">
        <ele>73.349862</ele>
        <time>2026-08-14T06:44:21.000Z</time>
      </trkpt>
      <trkpt lat="22.789772" lon="108.875008">
        <ele>73.330298</ele>
        <time>2026-08-14T06:44:22.000Z</time>
      </trkpt>
      <trkpt lat="22.789798" lon="108.875063">
        <ele>73.310579</ele>
        <time>2026-08-14T06:44:23.000Z</time>
      </trkpt>
      <trkpt lat="22.789823" lon="108.875119">
        <ele>73.290729</ele>
        <time>2026-08-14T06:44:24.000Z</time>
      </trkpt>
      <trkpt lat="22.789847" lon="108.875177">
        <ele>73.270446</ele>
        <time>2026-08-14T06:44:25.000Z</time>
      </trkpt>
      <trkpt lat="22.789868" lon="108.875234">
        <ele>73.250863</ele>
        <time>2026-08-14T06:44:26.000Z</time>
      </trkpt>
      <trkpt lat="22.789891" lon="108.875290">
        <ele>73.231304</ele>
        <time>2026-08-14T06:44:27.000Z</time>
      </trkpt>
      <trkpt lat="22.789916" lon="108.875347">
        <ele>73.211166</ele>
        <time>2026-08-14T06:44:28.000Z</time>
      </trkpt>
      <trkpt lat="22.789941" lon="108.875405">
        <ele>73.190739</ele>
        <time>2026-08-14T06:44:29.000Z</time>
      </trkpt>
      <trkpt lat="22.789965" lon="108.875463">
        <ele>73.170457</ele>
        <time>2026-08-14T06:44:30.000Z</time>
      </trkpt>
      <trkpt lat="22.789987" lon="108.875520">
        <ele>73.150742</ele>
        <time>2026-08-14T06:44:31.000Z</time>
      </trkpt>
      <trkpt lat="22.790010" lon="108.875579">
        <ele>73.130306</ele>
        <time>2026-08-14T06:44:32.000Z</time>
      </trkpt>
      <trkpt lat="22.790034" lon="108.875638">
        <ele>73.109732</ele>
        <time>2026-08-14T06:44:33.000Z</time>
      </trkpt>
      <trkpt lat="22.790059" lon="108.875698">
        <ele>73.088725</ele>
        <time>2026-08-14T06:44:34.000Z</time>
      </trkpt>
      <trkpt lat="22.790083" lon="108.875757">
        <ele>73.068151</ele>
        <time>2026-08-14T06:44:35.000Z</time>
      </trkpt>
      <trkpt lat="22.790106" lon="108.875817">
        <ele>73.047421</ele>
        <time>2026-08-14T06:44:36.000Z</time>
      </trkpt>
      <trkpt lat="22.790127" lon="108.875877">
        <ele>73.026945</ele>
        <time>2026-08-14T06:44:37.000Z</time>
      </trkpt>
      <trkpt lat="22.790148" lon="108.875937">
        <ele>73.006470</ele>
        <time>2026-08-14T06:44:38.000Z</time>
      </trkpt>
      <trkpt lat="22.790169" lon="108.875996">
        <ele>72.986293</ele>
        <time>2026-08-14T06:44:39.000Z</time>
      </trkpt>
      <trkpt lat="22.790189" lon="108.876056">
        <ele>72.965938</ele>
        <time>2026-08-14T06:44:40.000Z</time>
      </trkpt>
      <trkpt lat="22.790208" lon="108.876116">
        <ele>72.945698</ele>
        <time>2026-08-14T06:44:41.000Z</time>
      </trkpt>
      <trkpt lat="22.790227" lon="108.876176">
        <ele>72.925458</ele>
        <time>2026-08-14T06:44:42.000Z</time>
      </trkpt>
      <trkpt lat="22.790246" lon="108.876237">
        <ele>72.904916</ele>
        <time>2026-08-14T06:44:43.000Z</time>
      </trkpt>
      <trkpt lat="22.790266" lon="108.876299">
        <ele>72.883960</ele>
        <time>2026-08-14T06:44:44.000Z</time>
      </trkpt>
      <trkpt lat="22.790287" lon="108.876361">
        <ele>72.862887</ele>
        <time>2026-08-14T06:44:45.000Z</time>
      </trkpt>
      <trkpt lat="22.790307" lon="108.876423">
        <ele>72.841931</ele>
        <time>2026-08-14T06:44:46.000Z</time>
      </trkpt>
      <trkpt lat="22.790328" lon="108.876483">
        <ele>72.818664</ele>
        <time>2026-08-14T06:44:47.000Z</time>
      </trkpt>
      <trkpt lat="22.790349" lon="108.876540">
        <ele>72.792530</ele>
        <time>2026-08-14T06:44:48.000Z</time>
      </trkpt>
      <trkpt lat="22.790370" lon="108.876599">
        <ele>72.765603</ele>
        <time>2026-08-14T06:44:49.000Z</time>
      </trkpt>
      <trkpt lat="22.790392" lon="108.876659">
        <ele>72.738111</ele>
        <time>2026-08-14T06:44:50.000Z</time>
      </trkpt>
      <trkpt lat="22.790412" lon="108.876720">
        <ele>72.710546</ele>
        <time>2026-08-14T06:44:51.000Z</time>
      </trkpt>
      <trkpt lat="22.790433" lon="108.876781">
        <ele>72.682824</ele>
        <time>2026-08-14T06:44:52.000Z</time>
      </trkpt>
      <trkpt lat="22.790454" lon="108.876843">
        <ele>72.654701</ele>
        <time>2026-08-14T06:44:53.000Z</time>
      </trkpt>
      <trkpt lat="22.790473" lon="108.876902">
        <ele>72.628093</ele>
        <time>2026-08-14T06:44:54.000Z</time>
      </trkpt>
      <trkpt lat="22.790492" lon="108.876962">
        <ele>72.601083</ele>
        <time>2026-08-14T06:44:55.000Z</time>
      </trkpt>
      <trkpt lat="22.790512" lon="108.877021">
        <ele>72.574319</ele>
        <time>2026-08-14T06:44:56.000Z</time>
      </trkpt>
      <trkpt lat="22.790531" lon="108.877080">
        <ele>72.547711</ele>
        <time>2026-08-14T06:44:57.000Z</time>
      </trkpt>
      <trkpt lat="22.790548" lon="108.877139">
        <ele>72.521393</ele>
        <time>2026-08-14T06:44:58.000Z</time>
      </trkpt>
      <trkpt lat="22.790567" lon="108.877199">
        <ele>72.494382</ele>
        <time>2026-08-14T06:44:59.000Z</time>
      </trkpt>
      <trkpt lat="22.790586" lon="108.877261">
        <ele>72.466565</ele>
        <time>2026-08-14T06:45:00.000Z</time>
      </trkpt>
      <trkpt lat="22.790605" lon="108.877323">
        <ele>72.438748</ele>
        <time>2026-08-14T06:45:01.000Z</time>
      </trkpt>
      <trkpt lat="22.790624" lon="108.877384">
        <ele>72.411335</ele>
        <time>2026-08-14T06:45:02.000Z</time>
      </trkpt>
      <trkpt lat="22.790641" lon="108.877446">
        <ele>72.383795</ele>
        <time>2026-08-14T06:45:03.000Z</time>
      </trkpt>
      <trkpt lat="22.790658" lon="108.877507">
        <ele>72.356663</ele>
        <time>2026-08-14T06:45:04.000Z</time>
      </trkpt>
      <trkpt lat="22.790676" lon="108.877569">
        <ele>72.328988</ele>
        <time>2026-08-14T06:45:05.000Z</time>
      </trkpt>
      <trkpt lat="22.790697" lon="108.877630">
        <ele>72.301265</ele>
        <time>2026-08-14T06:45:06.000Z</time>
      </trkpt>
      <trkpt lat="22.790718" lon="108.877690">
        <ele>72.273941</ele>
        <time>2026-08-14T06:45:07.000Z</time>
      </trkpt>
      <trkpt lat="22.790738" lon="108.877750">
        <ele>72.246777</ele>
        <time>2026-08-14T06:45:08.000Z</time>
      </trkpt>
      <trkpt lat="22.790757" lon="108.877810">
        <ele>72.219767</ele>
        <time>2026-08-14T06:45:09.000Z</time>
      </trkpt>
      <trkpt lat="22.790775" lon="108.877872">
        <ele>72.192092</ele>
        <time>2026-08-14T06:45:10.000Z</time>
      </trkpt>
      <trkpt lat="22.790793" lon="108.877932">
        <ele>72.165228</ele>
        <time>2026-08-14T06:45:11.000Z</time>
      </trkpt>
      <trkpt lat="22.790812" lon="108.877990">
        <ele>72.139021</ele>
        <time>2026-08-14T06:45:12.000Z</time>
      </trkpt>
      <trkpt lat="22.790831" lon="108.878046">
        <ele>72.113616</ele>
        <time>2026-08-14T06:45:13.000Z</time>
      </trkpt>
      <trkpt lat="22.790849" lon="108.878101">
        <ele>72.088767</ele>
        <time>2026-08-14T06:45:14.000Z</time>
      </trkpt>
      <trkpt lat="22.790866" lon="108.878158">
        <ele>72.063261</ele>
        <time>2026-08-14T06:45:15.000Z</time>
      </trkpt>
      <trkpt lat="22.790886" lon="108.878217">
        <ele>72.036497</ele>
        <time>2026-08-14T06:45:16.000Z</time>
      </trkpt>
      <trkpt lat="22.790905" lon="108.878276">
        <ele>72.009889</ele>
        <time>2026-08-14T06:45:17.000Z</time>
      </trkpt>
      <trkpt lat="22.790923" lon="108.878336">
        <ele>71.994263</ele>
        <time>2026-08-14T06:45:18.000Z</time>
      </trkpt>
      <trkpt lat="22.790943" lon="108.878396">
        <ele>71.986012</ele>
        <time>2026-08-14T06:45:19.000Z</time>
      </trkpt>
      <trkpt lat="22.790962" lon="108.878457">
        <ele>71.977685</ele>
        <time>2026-08-14T06:45:20.000Z</time>
      </trkpt>
      <trkpt lat="22.790980" lon="108.878517">
        <ele>71.969524</ele>
        <time>2026-08-14T06:45:21.000Z</time>
      </trkpt>
      <trkpt lat="22.790998" lon="108.878576">
        <ele>71.961487</ele>
        <time>2026-08-14T06:45:22.000Z</time>
      </trkpt>
      <trkpt lat="22.791017" lon="108.878637">
        <ele>71.953160</ele>
        <time>2026-08-14T06:45:23.000Z</time>
      </trkpt>
      <trkpt lat="22.791036" lon="108.878697">
        <ele>71.944955</ele>
        <time>2026-08-14T06:45:24.000Z</time>
      </trkpt>
      <trkpt lat="22.791057" lon="108.878755">
        <ele>71.936897</ele>
        <time>2026-08-14T06:45:25.000Z</time>
      </trkpt>
      <trkpt lat="22.791081" lon="108.878813">
        <ele>71.928675</ele>
        <time>2026-08-14T06:45:26.000Z</time>
      </trkpt>
      <trkpt lat="22.791104" lon="108.878872">
        <ele>71.920390</ele>
        <time>2026-08-14T06:45:27.000Z</time>
      </trkpt>
      <trkpt lat="22.791123" lon="108.878932">
        <ele>71.912186</ele>
        <time>2026-08-14T06:45:28.000Z</time>
      </trkpt>
      <trkpt lat="22.791137" lon="108.878996">
        <ele>71.903679</ele>
        <time>2026-08-14T06:45:29.000Z</time>
      </trkpt>
      <trkpt lat="22.791149" lon="108.879060">
        <ele>71.895232</ele>
        <time>2026-08-14T06:45:30.000Z</time>
      </trkpt>
      <trkpt lat="22.791163" lon="108.879123">
        <ele>71.886851</ele>
        <time>2026-08-14T06:45:31.000Z</time>
      </trkpt>
      <trkpt lat="22.791179" lon="108.879188">
        <ele>71.878150</ele>
        <time>2026-08-14T06:45:32.000Z</time>
      </trkpt>
      <trkpt lat="22.791197" lon="108.879251">
        <ele>71.869620</ele>
        <time>2026-08-14T06:45:33.000Z</time>
      </trkpt>
      <trkpt lat="22.791218" lon="108.879314">
        <ele>71.860957</ele>
        <time>2026-08-14T06:45:34.000Z</time>
      </trkpt>
      <trkpt lat="22.791236" lon="108.879377">
        <ele>71.852427</ele>
        <time>2026-08-14T06:45:35.000Z</time>
      </trkpt>
      <trkpt lat="22.791252" lon="108.879441">
        <ele>71.843851</ele>
        <time>2026-08-14T06:45:36.000Z</time>
      </trkpt>
      <trkpt lat="22.791267" lon="108.879506">
        <ele>71.835185</ele>
        <time>2026-08-14T06:45:37.000Z</time>
      </trkpt>
      <trkpt lat="22.791281" lon="108.879571">
        <ele>71.826552</ele>
        <time>2026-08-14T06:45:38.000Z</time>
      </trkpt>
      <trkpt lat="22.791293" lon="108.879638">
        <ele>71.817725</ele>
        <time>2026-08-14T06:45:39.000Z</time>
      </trkpt>
      <trkpt lat="22.791302" lon="108.879704">
        <ele>71.809097</ele>
        <time>2026-08-14T06:45:40.000Z</time>
      </trkpt>
      <trkpt lat="22.791310" lon="108.879769">
        <ele>71.800616</ele>
        <time>2026-08-14T06:45:41.000Z</time>
      </trkpt>
      <trkpt lat="22.791316" lon="108.879835">
        <ele>71.792039</ele>
        <time>2026-08-14T06:45:42.000Z</time>
      </trkpt>
      <trkpt lat="22.791323" lon="108.879902">
        <ele>71.783319</ele>
        <time>2026-08-14T06:45:43.000Z</time>
      </trkpt>
      <trkpt lat="22.791327" lon="108.879965">
        <ele>71.775152</ele>
        <time>2026-08-14T06:45:44.000Z</time>
      </trkpt>
      <trkpt lat="22.791328" lon="108.880029">
        <ele>71.766873</ele>
        <time>2026-08-14T06:45:45.000Z</time>
      </trkpt>
      <trkpt lat="22.791326" lon="108.880093">
        <ele>71.758592</ele>
        <time>2026-08-14T06:45:46.000Z</time>
      </trkpt>
      <trkpt lat="22.791325" lon="108.880157">
        <ele>71.750314</ele>
        <time>2026-08-14T06:45:47.000Z</time>
      </trkpt>
      <trkpt lat="22.791319" lon="108.880220">
        <ele>71.773671</ele>
        <time>2026-08-14T06:45:48.000Z</time>
      </trkpt>
      <trkpt lat="22.791314" lon="108.880285">
        <ele>71.821517</ele>
        <time>2026-08-14T06:45:49.000Z</time>
      </trkpt>
      <trkpt lat="22.791308" lon="108.880349">
        <ele>71.868706</ele>
        <time>2026-08-14T06:45:50.000Z</time>
      </trkpt>
      <trkpt lat="22.791299" lon="108.880413">
        <ele>71.916195</ele>
        <time>2026-08-14T06:45:51.000Z</time>
      </trkpt>
      <trkpt lat="22.791289" lon="108.880476">
        <ele>71.963088</ele>
        <time>2026-08-14T06:45:52.000Z</time>
      </trkpt>
      <trkpt lat="22.791277" lon="108.880540">
        <ele>72.010996</ele>
        <time>2026-08-14T06:45:53.000Z</time>
      </trkpt>
      <trkpt lat="22.791263" lon="108.880603">
        <ele>72.058533</ele>
        <time>2026-08-14T06:45:54.000Z</time>
      </trkpt>
      <trkpt lat="22.791249" lon="108.880665">
        <ele>72.105356</ele>
        <time>2026-08-14T06:45:55.000Z</time>
      </trkpt>
      <trkpt lat="22.791234" lon="108.880726">
        <ele>72.151667</ele>
        <time>2026-08-14T06:45:56.000Z</time>
      </trkpt>
      <trkpt lat="22.791216" lon="108.880784">
        <ele>72.196558</ele>
        <time>2026-08-14T06:45:57.000Z</time>
      </trkpt>
      <trkpt lat="22.791198" lon="108.880843">
        <ele>72.242145</ele>
        <time>2026-08-14T06:45:58.000Z</time>
      </trkpt>
      <trkpt lat="22.791179" lon="108.880900">
        <ele>72.286606</ele>
        <time>2026-08-14T06:45:59.000Z</time>
      </trkpt>
      <trkpt lat="22.791160" lon="108.880958">
        <ele>72.331758</ele>
        <time>2026-08-14T06:46:00.000Z</time>
      </trkpt>
      <trkpt lat="22.791142" lon="108.881014">
        <ele>72.375261</ele>
        <time>2026-08-14T06:46:01.000Z</time>
      </trkpt>
      <trkpt lat="22.791123" lon="108.881069">
        <ele>72.418345</ele>
        <time>2026-08-14T06:46:02.000Z</time>
      </trkpt>
      <trkpt lat="22.791106" lon="108.881122">
        <ele>72.459509</ele>
        <time>2026-08-14T06:46:03.000Z</time>
      </trkpt>
      <trkpt lat="22.791089" lon="108.881175">
        <ele>72.500672</ele>
        <time>2026-08-14T06:46:04.000Z</time>
      </trkpt>
      <trkpt lat="22.791070" lon="108.881226">
        <ele>72.541022</ele>
        <time>2026-08-14T06:46:05.000Z</time>
      </trkpt>
      <trkpt lat="22.791053" lon="108.881276">
        <ele>72.580114</ele>
        <time>2026-08-14T06:46:06.000Z</time>
      </trkpt>
      <trkpt lat="22.791034" lon="108.881325">
        <ele>72.619107</ele>
        <time>2026-08-14T06:46:07.000Z</time>
      </trkpt>
      <trkpt lat="22.791016" lon="108.881372">
        <ele>72.656440</ele>
        <time>2026-08-14T06:46:08.000Z</time>
      </trkpt>
      <trkpt lat="22.790997" lon="108.881419">
        <ele>72.694085</ele>
        <time>2026-08-14T06:46:09.000Z</time>
      </trkpt>
      <trkpt lat="22.790979" lon="108.881465">
        <ele>72.730742</ele>
        <time>2026-08-14T06:46:10.000Z</time>
      </trkpt>
      <trkpt lat="22.790965" lon="108.881511">
        <ele>72.766276</ele>
        <time>2026-08-14T06:46:11.000Z</time>
      </trkpt>
      <trkpt lat="22.790950" lon="108.881559">
        <ele>72.803454</ele>
        <time>2026-08-14T06:46:12.000Z</time>
      </trkpt>
      <trkpt lat="22.790935" lon="108.881607">
        <ele>72.840631</ele>
        <time>2026-08-14T06:46:13.000Z</time>
      </trkpt>
      <trkpt lat="22.790922" lon="108.881654">
        <ele>72.876626</ele>
        <time>2026-08-14T06:46:14.000Z</time>
      </trkpt>
      <trkpt lat="22.790909" lon="108.881701">
        <ele>72.912621</ele>
        <time>2026-08-14T06:46:15.000Z</time>
      </trkpt>
      <trkpt lat="22.790897" lon="108.881750">
        <ele>72.949811</ele>
        <time>2026-08-14T06:46:16.000Z</time>
      </trkpt>
      <trkpt lat="22.790883" lon="108.881798">
        <ele>72.986741</ele>
        <time>2026-08-14T06:46:17.000Z</time>
      </trkpt>
      <trkpt lat="22.790869" lon="108.881846">
        <ele>73.023671</ele>
        <time>2026-08-14T06:46:18.000Z</time>
      </trkpt>
      <trkpt lat="22.790858" lon="108.881894">
        <ele>73.059953</ele>
        <time>2026-08-14T06:46:19.000Z</time>
      </trkpt>
      <trkpt lat="22.790847" lon="108.881944">
        <ele>73.097660</ele>
        <time>2026-08-14T06:46:20.000Z</time>
      </trkpt>
      <trkpt lat="22.790837" lon="108.881995">
        <ele>73.135907</ele>
        <time>2026-08-14T06:46:21.000Z</time>
      </trkpt>
      <trkpt lat="22.790830" lon="108.882046">
        <ele>73.173730</ele>
        <time>2026-08-14T06:46:22.000Z</time>
      </trkpt>
      <trkpt lat="22.790822" lon="108.882097">
        <ele>73.168375</ele>
        <time>2026-08-14T06:46:23.000Z</time>
      </trkpt>
      <trkpt lat="22.790815" lon="108.882148">
        <ele>73.157613</ele>
        <time>2026-08-14T06:46:24.000Z</time>
      </trkpt>
      <trkpt lat="22.790807" lon="108.882198">
        <ele>73.147020</ele>
        <time>2026-08-14T06:46:25.000Z</time>
      </trkpt>
      <trkpt lat="22.790800" lon="108.882249">
        <ele>73.136258</ele>
        <time>2026-08-14T06:46:26.000Z</time>
      </trkpt>
      <trkpt lat="22.790797" lon="108.882300">
        <ele>73.125591</ele>
        <time>2026-08-14T06:46:27.000Z</time>
      </trkpt>
      <trkpt lat="22.790795" lon="108.882351">
        <ele>73.114936</ele>
        <time>2026-08-14T06:46:28.000Z</time>
      </trkpt>
      <trkpt lat="22.790794" lon="108.882404">
        <ele>73.103872</ele>
        <time>2026-08-14T06:46:29.000Z</time>
      </trkpt>
      <trkpt lat="22.790796" lon="108.882457">
        <ele>73.092800</ele>
        <time>2026-08-14T06:46:30.000Z</time>
      </trkpt>
      <trkpt lat="22.790796" lon="108.882510">
        <ele>73.081737</ele>
        <time>2026-08-14T06:46:31.000Z</time>
      </trkpt>
      <trkpt lat="22.790796" lon="108.882565">
        <ele>73.070257</ele>
        <time>2026-08-14T06:46:32.000Z</time>
      </trkpt>
      <trkpt lat="22.790797" lon="108.882621">
        <ele>73.058566</ele>
        <time>2026-08-14T06:46:33.000Z</time>
      </trkpt>
      <trkpt lat="22.790801" lon="108.882676">
        <ele>73.047051</ele>
        <time>2026-08-14T06:46:34.000Z</time>
      </trkpt>
      <trkpt lat="22.790806" lon="108.882730">
        <ele>73.035723</ele>
        <time>2026-08-14T06:46:35.000Z</time>
      </trkpt>
      <trkpt lat="22.790812" lon="108.882784">
        <ele>73.024370</ele>
        <time>2026-08-14T06:46:36.000Z</time>
      </trkpt>
      <trkpt lat="22.790818" lon="108.882837">
        <ele>73.013224</ele>
        <time>2026-08-14T06:46:37.000Z</time>
      </trkpt>
      <trkpt lat="22.790826" lon="108.882892">
        <ele>73.001602</ele>
        <time>2026-08-14T06:46:38.000Z</time>
      </trkpt>
      <trkpt lat="22.790836" lon="108.882946">
        <ele>72.990106</ele>
        <time>2026-08-14T06:46:39.000Z</time>
      </trkpt>
      <trkpt lat="22.790846" lon="108.883000">
        <ele>72.978609</ele>
        <time>2026-08-14T06:46:40.000Z</time>
      </trkpt>
      <trkpt lat="22.790857" lon="108.883053">
        <ele>72.967270</ele>
        <time>2026-08-14T06:46:41.000Z</time>
      </trkpt>
      <trkpt lat="22.790869" lon="108.883106">
        <ele>72.955879</ele>
        <time>2026-08-14T06:46:42.000Z</time>
      </trkpt>
      <trkpt lat="22.790882" lon="108.883158">
        <ele>72.944633</ele>
        <time>2026-08-14T06:46:43.000Z</time>
      </trkpt>
      <trkpt lat="22.790898" lon="108.883211">
        <ele>72.932992</ele>
        <time>2026-08-14T06:46:44.000Z</time>
      </trkpt>
      <trkpt lat="22.790915" lon="108.883266">
        <ele>72.920884</ele>
        <time>2026-08-14T06:46:45.000Z</time>
      </trkpt>
      <trkpt lat="22.790932" lon="108.883322">
        <ele>72.908578</ele>
        <time>2026-08-14T06:46:46.000Z</time>
      </trkpt>
      <trkpt lat="22.790949" lon="108.883378">
        <ele>72.896272</ele>
        <time>2026-08-14T06:46:47.000Z</time>
      </trkpt>
      <trkpt lat="22.790967" lon="108.883435">
        <ele>72.883696</ele>
        <time>2026-08-14T06:46:48.000Z</time>
      </trkpt>
      <trkpt lat="22.790988" lon="108.883493">
        <ele>72.870690</ele>
        <time>2026-08-14T06:46:49.000Z</time>
      </trkpt>
      <trkpt lat="22.791011" lon="108.883550">
        <ele>72.857703</ele>
        <time>2026-08-14T06:46:50.000Z</time>
      </trkpt>
      <trkpt lat="22.791034" lon="108.883607">
        <ele>72.844716</ele>
        <time>2026-08-14T06:46:51.000Z</time>
      </trkpt>
      <trkpt lat="22.791057" lon="108.883666">
        <ele>72.831345</ele>
        <time>2026-08-14T06:46:52.000Z</time>
      </trkpt>
      <trkpt lat="22.791081" lon="108.883723">
        <ele>72.818266</ele>
        <time>2026-08-14T06:46:53.000Z</time>
      </trkpt>
      <trkpt lat="22.791105" lon="108.883781">
        <ele>72.804996</ele>
        <time>2026-08-14T06:46:54.000Z</time>
      </trkpt>
      <trkpt lat="22.791129" lon="108.883840">
        <ele>72.791536</ele>
        <time>2026-08-14T06:46:55.000Z</time>
      </trkpt>
      <trkpt lat="22.791153" lon="108.883899">
        <ele>72.778075</ele>
        <time>2026-08-14T06:46:56.000Z</time>
      </trkpt>
      <trkpt lat="22.791178" lon="108.883958">
        <ele>72.756361</ele>
        <time>2026-08-14T06:46:57.000Z</time>
      </trkpt>
      <trkpt lat="22.791201" lon="108.884018">
        <ele>72.725020</ele>
        <time>2026-08-14T06:46:58.000Z</time>
      </trkpt>
      <trkpt lat="22.791225" lon="108.884078">
        <ele>72.693474</ele>
        <time>2026-08-14T06:46:59.000Z</time>
      </trkpt>
      <trkpt lat="22.791249" lon="108.884138">
        <ele>72.661928</ele>
        <time>2026-08-14T06:47:00.000Z</time>
      </trkpt>
      <trkpt lat="22.791274" lon="108.884198">
        <ele>72.630171</ele>
        <time>2026-08-14T06:47:01.000Z</time>
      </trkpt>
      <trkpt lat="22.791300" lon="108.884257">
        <ele>72.598630</ele>
        <time>2026-08-14T06:47:02.000Z</time>
      </trkpt>
      <trkpt lat="22.791325" lon="108.884316">
        <ele>72.567312</ele>
        <time>2026-08-14T06:47:03.000Z</time>
      </trkpt>
      <trkpt lat="22.791352" lon="108.884375">
        <ele>72.535542</ele>
        <time>2026-08-14T06:47:04.000Z</time>
      </trkpt>
      <trkpt lat="22.791378" lon="108.884436">
        <ele>72.503128</ele>
        <time>2026-08-14T06:47:05.000Z</time>
      </trkpt>
      <trkpt lat="22.791404" lon="108.884495">
        <ele>72.471588</ele>
        <time>2026-08-14T06:47:06.000Z</time>
      </trkpt>
      <trkpt lat="22.791430" lon="108.884555">
        <ele>72.439611</ele>
        <time>2026-08-14T06:47:07.000Z</time>
      </trkpt>
      <trkpt lat="22.791455" lon="108.884615">
        <ele>72.407854</ele>
        <time>2026-08-14T06:47:08.000Z</time>
      </trkpt>
      <trkpt lat="22.791479" lon="108.884676">
        <ele>72.375865</ele>
        <time>2026-08-14T06:47:09.000Z</time>
      </trkpt>
      <trkpt lat="22.791503" lon="108.884738">
        <ele>72.343432</ele>
        <time>2026-08-14T06:47:10.000Z</time>
      </trkpt>
      <trkpt lat="22.791529" lon="108.884801">
        <ele>72.310141</ele>
        <time>2026-08-14T06:47:11.000Z</time>
      </trkpt>
      <trkpt lat="22.791555" lon="108.884866">
        <ele>72.275966</ele>
        <time>2026-08-14T06:47:12.000Z</time>
      </trkpt>
      <trkpt lat="22.791580" lon="108.884930">
        <ele>72.242441</ele>
        <time>2026-08-14T06:47:13.000Z</time>
      </trkpt>
      <trkpt lat="22.791607" lon="108.884994">
        <ele>72.208495</ele>
        <time>2026-08-14T06:47:14.000Z</time>
      </trkpt>
      <trkpt lat="22.791633" lon="108.885059">
        <ele>72.174320</ele>
        <time>2026-08-14T06:47:15.000Z</time>
      </trkpt>
      <trkpt lat="22.791659" lon="108.885125">
        <ele>72.139703</ele>
        <time>2026-08-14T06:47:16.000Z</time>
      </trkpt>
      <trkpt lat="22.791685" lon="108.885190">
        <ele>72.105529</ele>
        <time>2026-08-14T06:47:17.000Z</time>
      </trkpt>
      <trkpt lat="22.791711" lon="108.885254">
        <ele>72.071796</ele>
        <time>2026-08-14T06:47:18.000Z</time>
      </trkpt>
      <trkpt lat="22.791737" lon="108.885318">
        <ele>72.038064</ele>
        <time>2026-08-14T06:47:19.000Z</time>
      </trkpt>
      <trkpt lat="22.791763" lon="108.885384">
        <ele>72.003446</ele>
        <time>2026-08-14T06:47:20.000Z</time>
      </trkpt>
      <trkpt lat="22.791789" lon="108.885449">
        <ele>71.969272</ele>
        <time>2026-08-14T06:47:21.000Z</time>
      </trkpt>
      <trkpt lat="22.791814" lon="108.885512">
        <ele>71.936191</ele>
        <time>2026-08-14T06:47:22.000Z</time>
      </trkpt>
      <trkpt lat="22.791840" lon="108.885576">
        <ele>71.902459</ele>
        <time>2026-08-14T06:47:23.000Z</time>
      </trkpt>
      <trkpt lat="22.791868" lon="108.885640">
        <ele>71.868291</ele>
        <time>2026-08-14T06:47:24.000Z</time>
      </trkpt>
      <trkpt lat="22.791894" lon="108.885702">
        <ele>71.835439</ele>
        <time>2026-08-14T06:47:25.000Z</time>
      </trkpt>
      <trkpt lat="22.791920" lon="108.885762">
        <ele>71.836673</ele>
        <time>2026-08-14T06:47:26.000Z</time>
      </trkpt>
      <trkpt lat="22.791946" lon="108.885822">
        <ele>71.845081</ele>
        <time>2026-08-14T06:47:27.000Z</time>
      </trkpt>
      <trkpt lat="22.791971" lon="108.885883">
        <ele>71.853548</ele>
        <time>2026-08-14T06:47:28.000Z</time>
      </trkpt>
      <trkpt lat="22.791996" lon="108.885942">
        <ele>71.861783</ele>
        <time>2026-08-14T06:47:29.000Z</time>
      </trkpt>
      <trkpt lat="22.792021" lon="108.886000">
        <ele>71.869903</ele>
        <time>2026-08-14T06:47:30.000Z</time>
      </trkpt>
      <trkpt lat="22.792045" lon="108.886059">
        <ele>71.878082</ele>
        <time>2026-08-14T06:47:31.000Z</time>
      </trkpt>
      <trkpt lat="22.792067" lon="108.886119">
        <ele>71.886272</ele>
        <time>2026-08-14T06:47:32.000Z</time>
      </trkpt>
      <trkpt lat="22.792090" lon="108.886179">
        <ele>71.894513</ele>
        <time>2026-08-14T06:47:33.000Z</time>
      </trkpt>
      <trkpt lat="22.792113" lon="108.886239">
        <ele>71.902754</ele>
        <time>2026-08-14T06:47:34.000Z</time>
      </trkpt>
      <trkpt lat="22.792137" lon="108.886297">
        <ele>71.910817</ele>
        <time>2026-08-14T06:47:35.000Z</time>
      </trkpt>
      <trkpt lat="22.792160" lon="108.886353">
        <ele>71.918592</ele>
        <time>2026-08-14T06:47:36.000Z</time>
      </trkpt>
      <trkpt lat="22.792184" lon="108.886410">
        <ele>71.926540</ele>
        <time>2026-08-14T06:47:37.000Z</time>
      </trkpt>
      <trkpt lat="22.792209" lon="108.886465">
        <ele>71.934317</ele>
        <time>2026-08-14T06:47:38.000Z</time>
      </trkpt>
      <trkpt lat="22.792234" lon="108.886521">
        <ele>71.942208</ele>
        <time>2026-08-14T06:47:39.000Z</time>
      </trkpt>
      <trkpt lat="22.792257" lon="108.886577">
        <ele>71.949984</ele>
        <time>2026-08-14T06:47:40.000Z</time>
      </trkpt>
      <trkpt lat="22.792281" lon="108.886633">
        <ele>71.957816</ele>
        <time>2026-08-14T06:47:41.000Z</time>
      </trkpt>
      <trkpt lat="22.792303" lon="108.886688">
        <ele>71.965420</ele>
        <time>2026-08-14T06:47:42.000Z</time>
      </trkpt>
      <trkpt lat="22.792324" lon="108.886744">
        <ele>71.973087</ele>
        <time>2026-08-14T06:47:43.000Z</time>
      </trkpt>
      <trkpt lat="22.792346" lon="108.886798">
        <ele>71.980574</ele>
        <time>2026-08-14T06:47:44.000Z</time>
      </trkpt>
      <trkpt lat="22.792368" lon="108.886851">
        <ele>71.987946</ele>
        <time>2026-08-14T06:47:45.000Z</time>
      </trkpt>
      <trkpt lat="22.792390" lon="108.886904">
        <ele>71.995318</ele>
        <time>2026-08-14T06:47:46.000Z</time>
      </trkpt>
      <trkpt lat="22.792411" lon="108.886956">
        <ele>72.002518</ele>
        <time>2026-08-14T06:47:47.000Z</time>
      </trkpt>
      <trkpt lat="22.792433" lon="108.887009">
        <ele>72.009890</ele>
        <time>2026-08-14T06:47:48.000Z</time>
      </trkpt>
      <trkpt lat="22.792455" lon="108.887061">
        <ele>72.017146</ele>
        <time>2026-08-14T06:47:49.000Z</time>
      </trkpt>
      <trkpt lat="22.792477" lon="108.887114">
        <ele>72.024518</ele>
        <time>2026-08-14T06:47:50.000Z</time>
      </trkpt>
      <trkpt lat="22.792500" lon="108.887166">
        <ele>72.031833</ele>
        <time>2026-08-14T06:47:51.000Z</time>
      </trkpt>
      <trkpt lat="22.792522" lon="108.887218">
        <ele>72.039089</ele>
        <time>2026-08-14T06:47:52.000Z</time>
      </trkpt>
      <trkpt lat="22.792544" lon="108.887271">
        <ele>72.046461</ele>
        <time>2026-08-14T06:47:53.000Z</time>
      </trkpt>
      <trkpt lat="22.792566" lon="108.887326">
        <ele>72.054064</ele>
        <time>2026-08-14T06:47:54.000Z</time>
      </trkpt>
      <trkpt lat="22.792589" lon="108.887379">
        <ele>72.061494</ele>
        <time>2026-08-14T06:47:55.000Z</time>
      </trkpt>
      <trkpt lat="22.792610" lon="108.887433">
        <ele>72.068927</ele>
        <time>2026-08-14T06:47:56.000Z</time>
      </trkpt>
      <trkpt lat="22.792629" lon="108.887486">
        <ele>72.076139</ele>
        <time>2026-08-14T06:47:57.000Z</time>
      </trkpt>
      <trkpt lat="22.792648" lon="108.887539">
        <ele>72.092209</ele>
        <time>2026-08-14T06:47:58.000Z</time>
      </trkpt>
      <trkpt lat="22.792666" lon="108.887590">
        <ele>72.109102</ele>
        <time>2026-08-14T06:47:59.000Z</time>
      </trkpt>
      <trkpt lat="22.792684" lon="108.887643">
        <ele>72.126575</ele>
        <time>2026-08-14T06:48:00.000Z</time>
      </trkpt>
      <trkpt lat="22.792701" lon="108.887697">
        <ele>72.144227</ele>
        <time>2026-08-14T06:48:01.000Z</time>
      </trkpt>
      <trkpt lat="22.792719" lon="108.887750">
        <ele>72.161699</ele>
        <time>2026-08-14T06:48:02.000Z</time>
      </trkpt>
      <trkpt lat="22.792739" lon="108.887801">
        <ele>72.178844</ele>
        <time>2026-08-14T06:48:03.000Z</time>
      </trkpt>
      <trkpt lat="22.792758" lon="108.887854">
        <ele>72.196435</ele>
        <time>2026-08-14T06:48:04.000Z</time>
      </trkpt>
      <trkpt lat="22.792777" lon="108.887907">
        <ele>72.214027</ele>
        <time>2026-08-14T06:48:05.000Z</time>
      </trkpt>
      <trkpt lat="22.792800" lon="108.887958">
        <ele>72.231590</ele>
        <time>2026-08-14T06:48:06.000Z</time>
      </trkpt>
      <trkpt lat="22.792823" lon="108.888008">
        <ele>72.248876</ele>
        <time>2026-08-14T06:48:07.000Z</time>
      </trkpt>
      <trkpt lat="22.792845" lon="108.888058">
        <ele>72.266015</ele>
        <time>2026-08-14T06:48:08.000Z</time>
      </trkpt>
      <trkpt lat="22.792865" lon="108.888105">
        <ele>72.282028</ele>
        <time>2026-08-14T06:48:09.000Z</time>
      </trkpt>
      <trkpt lat="22.792885" lon="108.888150">
        <ele>72.297482</ele>
        <time>2026-08-14T06:48:10.000Z</time>
      </trkpt>
      <trkpt lat="22.792903" lon="108.888196">
        <ele>72.312941</ele>
        <time>2026-08-14T06:48:11.000Z</time>
      </trkpt>
      <trkpt lat="22.792924" lon="108.888240">
        <ele>72.328268</ele>
        <time>2026-08-14T06:48:12.000Z</time>
      </trkpt>
      <trkpt lat="22.792948" lon="108.888280">
        <ele>72.343032</ele>
        <time>2026-08-14T06:48:13.000Z</time>
      </trkpt>
      <trkpt lat="22.792968" lon="108.888322">
        <ele>72.357655</ele>
        <time>2026-08-14T06:48:14.000Z</time>
      </trkpt>
      <trkpt lat="22.792984" lon="108.888365">
        <ele>72.372000</ele>
        <time>2026-08-14T06:48:15.000Z</time>
      </trkpt>
      <trkpt lat="22.793001" lon="108.888406">
        <ele>72.385907</ele>
        <time>2026-08-14T06:48:16.000Z</time>
      </trkpt>
      <trkpt lat="22.793013" lon="108.888446">
        <ele>72.398919</ele>
        <time>2026-08-14T06:48:17.000Z</time>
      </trkpt>
      <trkpt lat="22.793021" lon="108.888481">
        <ele>72.410074</ele>
        <time>2026-08-14T06:48:18.000Z</time>
      </trkpt>
      <trkpt lat="22.793024" lon="108.888511">
        <ele>72.419409</ele>
        <time>2026-08-14T06:48:19.000Z</time>
      </trkpt>
      <trkpt lat="22.793019" lon="108.888537">
        <ele>72.427625</ele>
        <time>2026-08-14T06:48:20.000Z</time>
      </trkpt>
      <trkpt lat="22.793012" lon="108.888557">
        <ele>72.434243</ele>
        <time>2026-08-14T06:48:21.000Z</time>
      </trkpt>
      <trkpt lat="22.793008" lon="108.888566">
        <ele>72.437334</ele>
        <time>2026-08-14T06:48:22.000Z</time>
      </trkpt>
      <trkpt lat="22.793006" lon="108.888572">
        <ele>72.439307</ele>
        <time>2026-08-14T06:48:23.000Z</time>
      </trkpt>
      <trkpt lat="22.793006" lon="108.888572">
        <ele>72.439307</ele>
        <time>2026-08-14T06:48:24.000Z</time>
      </trkpt>
      <trkpt lat="22.793024" lon="108.888601">
        <ele>72.450122</ele>
        <time>2026-08-14T06:48:58.000Z</time>
      </trkpt>
      <trkpt lat="22.793040" lon="108.888608">
        <ele>72.455911</ele>
        <time>2026-08-14T06:48:59.000Z</time>
      </trkpt>
      <trkpt lat="22.793058" lon="108.888612">
        <ele>72.462077</ele>
        <time>2026-08-14T06:49:00.000Z</time>
      </trkpt>
      <trkpt lat="22.793078" lon="108.888615">
        <ele>72.468851</ele>
        <time>2026-08-14T06:49:01.000Z</time>
      </trkpt>
      <trkpt lat="22.793095" lon="108.888623">
        <ele>72.475070</ele>
        <time>2026-08-14T06:49:02.000Z</time>
      </trkpt>
      <trkpt lat="22.793111" lon="108.888639">
        <ele>72.482372</ele>
        <time>2026-08-14T06:49:03.000Z</time>
      </trkpt>
      <trkpt lat="22.793128" lon="108.888663">
        <ele>72.491734</ele>
        <time>2026-08-14T06:49:04.000Z</time>
      </trkpt>
      <trkpt lat="22.793143" lon="108.888692">
        <ele>72.502021</ele>
        <time>2026-08-14T06:49:05.000Z</time>
      </trkpt>
      <trkpt lat="22.793154" lon="108.888726">
        <ele>72.513168</ele>
        <time>2026-08-14T06:49:06.000Z</time>
      </trkpt>
      <trkpt lat="22.793163" lon="108.888762">
        <ele>72.524706</ele>
        <time>2026-08-14T06:49:07.000Z</time>
      </trkpt>
      <trkpt lat="22.793176" lon="108.888799">
        <ele>72.536955</ele>
        <time>2026-08-14T06:49:08.000Z</time>
      </trkpt>
      <trkpt lat="22.793190" lon="108.888838">
        <ele>72.549902</ele>
        <time>2026-08-14T06:49:09.000Z</time>
      </trkpt>
      <trkpt lat="22.793206" lon="108.888876">
        <ele>72.562825</ele>
        <time>2026-08-14T06:49:10.000Z</time>
      </trkpt>
      <trkpt lat="22.793221" lon="108.888914">
        <ele>72.575613</ele>
        <time>2026-08-14T06:49:11.000Z</time>
      </trkpt>
      <trkpt lat="22.793235" lon="108.888953">
        <ele>72.588560</ele>
        <time>2026-08-14T06:49:12.000Z</time>
      </trkpt>
      <trkpt lat="22.793251" lon="108.888993">
        <ele>72.602048</ele>
        <time>2026-08-14T06:49:13.000Z</time>
      </trkpt>
      <trkpt lat="22.793267" lon="108.889033">
        <ele>72.615536</ele>
        <time>2026-08-14T06:49:14.000Z</time>
      </trkpt>
      <trkpt lat="22.793284" lon="108.889072">
        <ele>72.628882</ele>
        <time>2026-08-14T06:49:15.000Z</time>
      </trkpt>
      <trkpt lat="22.793301" lon="108.889112">
        <ele>72.642507</ele>
        <time>2026-08-14T06:49:16.000Z</time>
      </trkpt>
      <trkpt lat="22.793319" lon="108.889154">
        <ele>72.656835</ele>
        <time>2026-08-14T06:49:17.000Z</time>
      </trkpt>
      <trkpt lat="22.793339" lon="108.889197">
        <ele>72.671734</ele>
        <time>2026-08-14T06:49:18.000Z</time>
      </trkpt>
      <trkpt lat="22.793356" lon="108.889240">
        <ele>72.677817</ele>
        <time>2026-08-14T06:49:19.000Z</time>
      </trkpt>
      <trkpt lat="22.793373" lon="108.889283">
        <ele>72.670114</ele>
        <time>2026-08-14T06:49:20.000Z</time>
      </trkpt>
      <trkpt lat="22.793390" lon="108.889328">
        <ele>72.662107</ele>
        <time>2026-08-14T06:49:21.000Z</time>
      </trkpt>
      <trkpt lat="22.793407" lon="108.889374">
        <ele>72.653947</ele>
        <time>2026-08-14T06:49:22.000Z</time>
      </trkpt>
      <trkpt lat="22.793426" lon="108.889419">
        <ele>72.645798</ele>
        <time>2026-08-14T06:49:23.000Z</time>
      </trkpt>
      <trkpt lat="22.793446" lon="108.889464">
        <ele>72.637572</ele>
        <time>2026-08-14T06:49:24.000Z</time>
      </trkpt>
      <trkpt lat="22.793466" lon="108.889510">
        <ele>72.629198</ele>
        <time>2026-08-14T06:49:25.000Z</time>
      </trkpt>
      <trkpt lat="22.793486" lon="108.889554">
        <ele>72.621121</ele>
        <time>2026-08-14T06:49:26.000Z</time>
      </trkpt>
      <trkpt lat="22.793506" lon="108.889601">
        <ele>72.612598</ele>
        <time>2026-08-14T06:49:27.000Z</time>
      </trkpt>
      <trkpt lat="22.793525" lon="108.889648">
        <ele>72.604148</ele>
        <time>2026-08-14T06:49:28.000Z</time>
      </trkpt>
      <trkpt lat="22.793546" lon="108.889696">
        <ele>72.595400</ele>
        <time>2026-08-14T06:49:29.000Z</time>
      </trkpt>
      <trkpt lat="22.793567" lon="108.889745">
        <ele>72.586503</ele>
        <time>2026-08-14T06:49:30.000Z</time>
      </trkpt>
      <trkpt lat="22.793587" lon="108.889792">
        <ele>72.577980</ele>
        <time>2026-08-14T06:49:31.000Z</time>
      </trkpt>
      <trkpt lat="22.793609" lon="108.889841">
        <ele>72.569007</ele>
        <time>2026-08-14T06:49:32.000Z</time>
      </trkpt>
      <trkpt lat="22.793631" lon="108.889890">
        <ele>72.560033</ele>
        <time>2026-08-14T06:49:33.000Z</time>
      </trkpt>
      <trkpt lat="22.793652" lon="108.889941">
        <ele>72.550836</ele>
        <time>2026-08-14T06:49:34.000Z</time>
      </trkpt>
      <trkpt lat="22.793673" lon="108.889992">
        <ele>72.541640</ele>
        <time>2026-08-14T06:49:35.000Z</time>
      </trkpt>
      <trkpt lat="22.793693" lon="108.890043">
        <ele>72.532514</ele>
        <time>2026-08-14T06:49:36.000Z</time>
      </trkpt>
      <trkpt lat="22.793714" lon="108.890094">
        <ele>72.523318</ele>
        <time>2026-08-14T06:49:37.000Z</time>
      </trkpt>
      <trkpt lat="22.793732" lon="108.890144">
        <ele>72.514480</ele>
        <time>2026-08-14T06:49:38.000Z</time>
      </trkpt>
      <trkpt lat="22.793751" lon="108.890196">
        <ele>72.505270</ele>
        <time>2026-08-14T06:49:39.000Z</time>
      </trkpt>
      <trkpt lat="22.793772" lon="108.890247">
        <ele>72.496074</ele>
        <time>2026-08-14T06:49:40.000Z</time>
      </trkpt>
      <trkpt lat="22.793794" lon="108.890297">
        <ele>72.486951</ele>
        <time>2026-08-14T06:49:41.000Z</time>
      </trkpt>
      <trkpt lat="22.793816" lon="108.890349">
        <ele>72.477531</ele>
        <time>2026-08-14T06:49:42.000Z</time>
      </trkpt>
      <trkpt lat="22.793838" lon="108.890402">
        <ele>72.467961</ele>
        <time>2026-08-14T06:49:43.000Z</time>
      </trkpt>
      <trkpt lat="22.793860" lon="108.890456">
        <ele>72.458241</ele>
        <time>2026-08-14T06:49:44.000Z</time>
      </trkpt>
      <trkpt lat="22.793881" lon="108.890510">
        <ele>72.448591</ele>
        <time>2026-08-14T06:49:45.000Z</time>
      </trkpt>
      <trkpt lat="22.793903" lon="108.890563">
        <ele>72.439021</ele>
        <time>2026-08-14T06:49:46.000Z</time>
      </trkpt>
      <trkpt lat="22.793926" lon="108.890617">
        <ele>72.429227</ele>
        <time>2026-08-14T06:49:47.000Z</time>
      </trkpt>
      <trkpt lat="22.793947" lon="108.890670">
        <ele>72.419728</ele>
        <time>2026-08-14T06:49:48.000Z</time>
      </trkpt>
      <trkpt lat="22.793969" lon="108.890723">
        <ele>72.410158</ele>
        <time>2026-08-14T06:49:49.000Z</time>
      </trkpt>
      <trkpt lat="22.793991" lon="108.890777">
        <ele>72.400438</ele>
        <time>2026-08-14T06:49:50.000Z</time>
      </trkpt>
      <trkpt lat="22.794013" lon="108.890830">
        <ele>72.390868</ele>
        <time>2026-08-14T06:49:51.000Z</time>
      </trkpt>
      <trkpt lat="22.794036" lon="108.890882">
        <ele>72.381371</ele>
        <time>2026-08-14T06:49:52.000Z</time>
      </trkpt>
      <trkpt lat="22.794059" lon="108.890934">
        <ele>72.371875</ele>
        <time>2026-08-14T06:49:53.000Z</time>
      </trkpt>
      <trkpt lat="22.794079" lon="108.890989">
        <ele>72.362141</ele>
        <time>2026-08-14T06:49:54.000Z</time>
      </trkpt>
      <trkpt lat="22.794101" lon="108.891044">
        <ele>72.356666</ele>
        <time>2026-08-14T06:49:55.000Z</time>
      </trkpt>
      <trkpt lat="22.794122" lon="108.891098">
        <ele>72.352884</ele>
        <time>2026-08-14T06:49:56.000Z</time>
      </trkpt>
      <trkpt lat="22.794143" lon="108.891151">
        <ele>72.349161</ele>
        <time>2026-08-14T06:49:57.000Z</time>
      </trkpt>
      <trkpt lat="22.794165" lon="108.891203">
        <ele>72.345469</ele>
        <time>2026-08-14T06:49:58.000Z</time>
      </trkpt>
      <trkpt lat="22.794187" lon="108.891256">
        <ele>72.341718</ele>
        <time>2026-08-14T06:49:59.000Z</time>
      </trkpt>
      <trkpt lat="22.794210" lon="108.891309">
        <ele>72.337938</ele>
        <time>2026-08-14T06:50:00.000Z</time>
      </trkpt>
      <trkpt lat="22.794233" lon="108.891363">
        <ele>72.334099</ele>
        <time>2026-08-14T06:50:01.000Z</time>
      </trkpt>
      <trkpt lat="22.794256" lon="108.891416">
        <ele>72.330319</ele>
        <time>2026-08-14T06:50:02.000Z</time>
      </trkpt>
      <trkpt lat="22.794278" lon="108.891471">
        <ele>72.326450</ele>
        <time>2026-08-14T06:50:03.000Z</time>
      </trkpt>
      <trkpt lat="22.794299" lon="108.891526">
        <ele>72.322608</ele>
        <time>2026-08-14T06:50:04.000Z</time>
      </trkpt>
      <trkpt lat="22.794322" lon="108.891584">
        <ele>72.318534</ele>
        <time>2026-08-14T06:50:05.000Z</time>
      </trkpt>
      <trkpt lat="22.794345" lon="108.891640">
        <ele>72.314578</ele>
        <time>2026-08-14T06:50:06.000Z</time>
      </trkpt>
      <trkpt lat="22.794368" lon="108.891695">
        <ele>72.310680</ele>
        <time>2026-08-14T06:50:07.000Z</time>
      </trkpt>
      <trkpt lat="22.794391" lon="108.891752">
        <ele>72.306665</ele>
        <time>2026-08-14T06:50:08.000Z</time>
      </trkpt>
      <trkpt lat="22.794414" lon="108.891809">
        <ele>72.302650</ele>
        <time>2026-08-14T06:50:09.000Z</time>
      </trkpt>
      <trkpt lat="22.794435" lon="108.891865">
        <ele>72.298748</ele>
        <time>2026-08-14T06:50:10.000Z</time>
      </trkpt>
      <trkpt lat="22.794458" lon="108.891923">
        <ele>72.294674</ele>
        <time>2026-08-14T06:50:11.000Z</time>
      </trkpt>
      <trkpt lat="22.794482" lon="108.891982">
        <ele>72.290512</ele>
        <time>2026-08-14T06:50:12.000Z</time>
      </trkpt>
      <trkpt lat="22.794506" lon="108.892041">
        <ele>72.286351</ele>
        <time>2026-08-14T06:50:13.000Z</time>
      </trkpt>
      <trkpt lat="22.794531" lon="108.892100">
        <ele>72.282160</ele>
        <time>2026-08-14T06:50:14.000Z</time>
      </trkpt>
      <trkpt lat="22.794557" lon="108.892158">
        <ele>72.277998</ele>
        <time>2026-08-14T06:50:15.000Z</time>
      </trkpt>
      <trkpt lat="22.794581" lon="108.892218">
        <ele>72.273778</ele>
        <time>2026-08-14T06:50:16.000Z</time>
      </trkpt>
      <trkpt lat="22.794604" lon="108.892277">
        <ele>72.269644</ele>
        <time>2026-08-14T06:50:17.000Z</time>
      </trkpt>
      <trkpt lat="22.794627" lon="108.892336">
        <ele>72.265510</ele>
        <time>2026-08-14T06:50:18.000Z</time>
      </trkpt>
      <trkpt lat="22.794651" lon="108.892396">
        <ele>72.261289</ele>
        <time>2026-08-14T06:50:19.000Z</time>
      </trkpt>
      <trkpt lat="22.794678" lon="108.892455">
        <ele>72.257039</ele>
        <time>2026-08-14T06:50:20.000Z</time>
      </trkpt>
      <trkpt lat="22.794703" lon="108.892514">
        <ele>72.252848</ele>
        <time>2026-08-14T06:50:21.000Z</time>
      </trkpt>
      <trkpt lat="22.794731" lon="108.892575">
        <ele>72.248451</ele>
        <time>2026-08-14T06:50:22.000Z</time>
      </trkpt>
      <trkpt lat="22.794756" lon="108.892636">
        <ele>72.244143</ele>
        <time>2026-08-14T06:50:23.000Z</time>
      </trkpt>
      <trkpt lat="22.794780" lon="108.892697">
        <ele>72.239863</ele>
        <time>2026-08-14T06:50:24.000Z</time>
      </trkpt>
      <trkpt lat="22.794804" lon="108.892757">
        <ele>72.235642</ele>
        <time>2026-08-14T06:50:25.000Z</time>
      </trkpt>
      <trkpt lat="22.794831" lon="108.892820">
        <ele>72.224265</ele>
        <time>2026-08-14T06:50:26.000Z</time>
      </trkpt>
      <trkpt lat="22.794858" lon="108.892882">
        <ele>72.207325</ele>
        <time>2026-08-14T06:50:27.000Z</time>
      </trkpt>
      <trkpt lat="22.794886" lon="108.892944">
        <ele>72.190268</ele>
        <time>2026-08-14T06:50:28.000Z</time>
      </trkpt>
      <trkpt lat="22.794913" lon="108.893006">
        <ele>72.173327</ele>
        <time>2026-08-14T06:50:29.000Z</time>
      </trkpt>
      <trkpt lat="22.794939" lon="108.893068">
        <ele>72.156499</ele>
        <time>2026-08-14T06:50:30.000Z</time>
      </trkpt>
      <trkpt lat="22.794965" lon="108.893129">
        <ele>72.139896</ele>
        <time>2026-08-14T06:50:31.000Z</time>
      </trkpt>
      <trkpt lat="22.794992" lon="108.893189">
        <ele>72.123400</ele>
        <time>2026-08-14T06:50:32.000Z</time>
      </trkpt>
      <trkpt lat="22.795018" lon="108.893252">
        <ele>72.106347</ele>
        <time>2026-08-14T06:50:33.000Z</time>
      </trkpt>
      <trkpt lat="22.795044" lon="108.893314">
        <ele>72.089519</ele>
        <time>2026-08-14T06:50:34.000Z</time>
      </trkpt>
      <trkpt lat="22.795067" lon="108.893376">
        <ele>72.073008</ele>
        <time>2026-08-14T06:50:35.000Z</time>
      </trkpt>
      <trkpt lat="22.795092" lon="108.893438">
        <ele>72.056289</ele>
        <time>2026-08-14T06:50:36.000Z</time>
      </trkpt>
      <trkpt lat="22.795116" lon="108.893499">
        <ele>72.039904</ele>
        <time>2026-08-14T06:50:37.000Z</time>
      </trkpt>
      <trkpt lat="22.795142" lon="108.893560">
        <ele>72.023300</ele>
        <time>2026-08-14T06:50:38.000Z</time>
      </trkpt>
      <trkpt lat="22.795167" lon="108.893619">
        <ele>72.007258</ele>
        <time>2026-08-14T06:50:39.000Z</time>
      </trkpt>
      <trkpt lat="22.795191" lon="108.893677">
        <ele>71.991551</ele>
        <time>2026-08-14T06:50:40.000Z</time>
      </trkpt>
      <trkpt lat="22.795215" lon="108.893736">
        <ele>71.975619</ele>
        <time>2026-08-14T06:50:41.000Z</time>
      </trkpt>
      <trkpt lat="22.795239" lon="108.893794">
        <ele>71.959912</ele>
        <time>2026-08-14T06:50:42.000Z</time>
      </trkpt>
      <trkpt lat="22.795262" lon="108.893853">
        <ele>71.944086</ele>
        <time>2026-08-14T06:50:43.000Z</time>
      </trkpt>
      <trkpt lat="22.795286" lon="108.893910">
        <ele>71.928605</ele>
        <time>2026-08-14T06:50:44.000Z</time>
      </trkpt>
      <trkpt lat="22.795309" lon="108.893967">
        <ele>71.913233</ele>
        <time>2026-08-14T06:50:45.000Z</time>
      </trkpt>
      <trkpt lat="22.795333" lon="108.894024">
        <ele>71.897751</ele>
        <time>2026-08-14T06:50:46.000Z</time>
      </trkpt>
      <trkpt lat="22.795356" lon="108.894083">
        <ele>71.881925</ele>
        <time>2026-08-14T06:50:47.000Z</time>
      </trkpt>
      <trkpt lat="22.795379" lon="108.894141">
        <ele>71.866326</ele>
        <time>2026-08-14T06:50:48.000Z</time>
      </trkpt>
      <trkpt lat="22.795402" lon="108.894198">
        <ele>71.850954</ele>
        <time>2026-08-14T06:50:49.000Z</time>
      </trkpt>
      <trkpt lat="22.795426" lon="108.894257">
        <ele>71.835022</ele>
        <time>2026-08-14T06:50:50.000Z</time>
      </trkpt>
      <trkpt lat="22.795450" lon="108.894314">
        <ele>71.819540</ele>
        <time>2026-08-14T06:50:51.000Z</time>
      </trkpt>
      <trkpt lat="22.795475" lon="108.894372">
        <ele>71.803722</ele>
        <time>2026-08-14T06:50:52.000Z</time>
      </trkpt>
      <trkpt lat="22.795497" lon="108.894430">
        <ele>71.788227</ele>
        <time>2026-08-14T06:50:53.000Z</time>
      </trkpt>
      <trkpt lat="22.795519" lon="108.894489">
        <ele>71.772503</ele>
        <time>2026-08-14T06:50:54.000Z</time>
      </trkpt>
      <trkpt lat="22.795543" lon="108.894546">
        <ele>71.757022</ele>
        <time>2026-08-14T06:50:55.000Z</time>
      </trkpt>
      <trkpt lat="22.795566" lon="108.894603">
        <ele>71.759537</ele>
        <time>2026-08-14T06:50:56.000Z</time>
      </trkpt>
      <trkpt lat="22.795589" lon="108.894661">
        <ele>71.772040</ele>
        <time>2026-08-14T06:50:57.000Z</time>
      </trkpt>
      <trkpt lat="22.795615" lon="108.894718">
        <ele>71.784633</ele>
        <time>2026-08-14T06:50:58.000Z</time>
      </trkpt>
      <trkpt lat="22.795640" lon="108.894774">
        <ele>71.796954</ele>
        <time>2026-08-14T06:50:59.000Z</time>
      </trkpt>
      <trkpt lat="22.795664" lon="108.894831">
        <ele>71.809362</ele>
        <time>2026-08-14T06:51:00.000Z</time>
      </trkpt>
      <trkpt lat="22.795687" lon="108.894887">
        <ele>71.821502</ele>
        <time>2026-08-14T06:51:01.000Z</time>
      </trkpt>
      <trkpt lat="22.795710" lon="108.894943">
        <ele>71.833642</ele>
        <time>2026-08-14T06:51:02.000Z</time>
      </trkpt>
      <trkpt lat="22.795732" lon="108.895001">
        <ele>71.846061</ele>
        <time>2026-08-14T06:51:03.000Z</time>
      </trkpt>
      <trkpt lat="22.795755" lon="108.895057">
        <ele>71.858201</ele>
        <time>2026-08-14T06:51:04.000Z</time>
      </trkpt>
      <trkpt lat="22.795778" lon="108.895114">
        <ele>71.870522</ele>
        <time>2026-08-14T06:51:05.000Z</time>
      </trkpt>
      <trkpt lat="22.795799" lon="108.895170">
        <ele>71.882494</ele>
        <time>2026-08-14T06:51:06.000Z</time>
      </trkpt>
      <trkpt lat="22.795822" lon="108.895226">
        <ele>71.894634</ele>
        <time>2026-08-14T06:51:07.000Z</time>
      </trkpt>
      <trkpt lat="22.795847" lon="108.895280">
        <ele>71.906599</ele>
        <time>2026-08-14T06:51:08.000Z</time>
      </trkpt>
      <trkpt lat="22.795871" lon="108.895335">
        <ele>71.918649</ele>
        <time>2026-08-14T06:51:09.000Z</time>
      </trkpt>
      <trkpt lat="22.795894" lon="108.895389">
        <ele>71.930428</ele>
        <time>2026-08-14T06:51:10.000Z</time>
      </trkpt>
      <trkpt lat="22.795914" lon="108.895442">
        <ele>71.941768</ele>
        <time>2026-08-14T06:51:11.000Z</time>
      </trkpt>
      <trkpt lat="22.795937" lon="108.895494">
        <ele>71.953189</ele>
        <time>2026-08-14T06:51:12.000Z</time>
      </trkpt>
      <trkpt lat="22.795959" lon="108.895545">
        <ele>71.964339</ele>
        <time>2026-08-14T06:51:13.000Z</time>
      </trkpt>
      <trkpt lat="22.795980" lon="108.895596">
        <ele>71.975400</ele>
        <time>2026-08-14T06:51:14.000Z</time>
      </trkpt>
      <trkpt lat="22.796002" lon="108.895646">
        <ele>71.986371</ele>
        <time>2026-08-14T06:51:15.000Z</time>
      </trkpt>
      <trkpt lat="22.796023" lon="108.895697">
        <ele>71.997431</ele>
        <time>2026-08-14T06:51:16.000Z</time>
      </trkpt>
      <trkpt lat="22.796045" lon="108.895746">
        <ele>72.008224</ele>
        <time>2026-08-14T06:51:17.000Z</time>
      </trkpt>
      <trkpt lat="22.796066" lon="108.895795">
        <ele>72.018924</ele>
        <time>2026-08-14T06:51:18.000Z</time>
      </trkpt>
      <trkpt lat="22.796087" lon="108.895842">
        <ele>72.029266</ele>
        <time>2026-08-14T06:51:19.000Z</time>
      </trkpt>
      <trkpt lat="22.796108" lon="108.895889">
        <ele>72.039609</ele>
        <time>2026-08-14T06:51:20.000Z</time>
      </trkpt>
      <trkpt lat="22.796128" lon="108.895937">
        <ele>72.050039</ele>
        <time>2026-08-14T06:51:21.000Z</time>
      </trkpt>
      <trkpt lat="22.796148" lon="108.895984">
        <ele>72.060290</ele>
        <time>2026-08-14T06:51:22.000Z</time>
      </trkpt>
      <trkpt lat="22.796168" lon="108.896032">
        <ele>72.070721</ele>
        <time>2026-08-14T06:51:23.000Z</time>
      </trkpt>
      <trkpt lat="22.796189" lon="108.896080">
        <ele>72.081242</ele>
        <time>2026-08-14T06:51:24.000Z</time>
      </trkpt>
      <trkpt lat="22.796209" lon="108.896129">
        <ele>72.091853</ele>
        <time>2026-08-14T06:51:25.000Z</time>
      </trkpt>
      <trkpt lat="22.796230" lon="108.896177">
        <ele>72.102374</ele>
        <time>2026-08-14T06:51:26.000Z</time>
      </trkpt>
      <trkpt lat="22.796250" lon="108.896225">
        <ele>72.112805</ele>
        <time>2026-08-14T06:51:27.000Z</time>
      </trkpt>
      <trkpt lat="22.796271" lon="108.896276">
        <ele>72.123865</ele>
        <time>2026-08-14T06:51:28.000Z</time>
      </trkpt>
      <trkpt lat="22.796291" lon="108.896328">
        <ele>72.135023</ele>
        <time>2026-08-14T06:51:29.000Z</time>
      </trkpt>
      <trkpt lat="22.796311" lon="108.896379">
        <ele>72.142766</ele>
        <time>2026-08-14T06:51:30.000Z</time>
      </trkpt>
      <trkpt lat="22.796331" lon="108.896429">
        <ele>72.149241</ele>
        <time>2026-08-14T06:51:31.000Z</time>
      </trkpt>
      <trkpt lat="22.796352" lon="108.896480">
        <ele>72.155876</ele>
        <time>2026-08-14T06:51:32.000Z</time>
      </trkpt>
      <trkpt lat="22.796372" lon="108.896530">
        <ele>72.162350</ele>
        <time>2026-08-14T06:51:33.000Z</time>
      </trkpt>
      <trkpt lat="22.796393" lon="108.896579">
        <ele>72.168769</ele>
        <time>2026-08-14T06:51:34.000Z</time>
      </trkpt>
      <trkpt lat="22.796414" lon="108.896629">
        <ele>72.175295</ele>
        <time>2026-08-14T06:51:35.000Z</time>
      </trkpt>
      <trkpt lat="22.796434" lon="108.896678">
        <ele>72.181661</ele>
        <time>2026-08-14T06:51:36.000Z</time>
      </trkpt>
      <trkpt lat="22.796454" lon="108.896728">
        <ele>72.188135</ele>
        <time>2026-08-14T06:51:37.000Z</time>
      </trkpt>
      <trkpt lat="22.796476" lon="108.896778">
        <ele>72.194716</ele>
        <time>2026-08-14T06:51:38.000Z</time>
      </trkpt>
      <trkpt lat="22.796498" lon="108.896829">
        <ele>72.201405</ele>
        <time>2026-08-14T06:51:39.000Z</time>
      </trkpt>
      <trkpt lat="22.796520" lon="108.896880">
        <ele>72.208093</ele>
        <time>2026-08-14T06:51:40.000Z</time>
      </trkpt>
      <trkpt lat="22.796540" lon="108.896930">
        <ele>72.214568</ele>
        <time>2026-08-14T06:51:41.000Z</time>
      </trkpt>
      <trkpt lat="22.796559" lon="108.896981">
        <ele>72.221102</ele>
        <time>2026-08-14T06:51:42.000Z</time>
      </trkpt>
      <trkpt lat="22.796577" lon="108.897030">
        <ele>72.227367</ele>
        <time>2026-08-14T06:51:43.000Z</time>
      </trkpt>
      <trkpt lat="22.796597" lon="108.897080">
        <ele>72.233842</ele>
        <time>2026-08-14T06:51:44.000Z</time>
      </trkpt>
      <trkpt lat="22.796617" lon="108.897130">
        <ele>72.240316</ele>
        <time>2026-08-14T06:51:45.000Z</time>
      </trkpt>
      <trkpt lat="22.796636" lon="108.897179">
        <ele>72.246630</ele>
        <time>2026-08-14T06:51:46.000Z</time>
      </trkpt>
      <trkpt lat="22.796653" lon="108.897229">
        <ele>72.252961</ele>
        <time>2026-08-14T06:51:47.000Z</time>
      </trkpt>
      <trkpt lat="22.796670" lon="108.897278">
        <ele>72.259180</ele>
        <time>2026-08-14T06:51:48.000Z</time>
      </trkpt>
      <trkpt lat="22.796688" lon="108.897326">
        <ele>72.265335</ele>
        <time>2026-08-14T06:51:49.000Z</time>
      </trkpt>
      <trkpt lat="22.796707" lon="108.897374">
        <ele>72.271540</ele>
        <time>2026-08-14T06:51:50.000Z</time>
      </trkpt>
      <trkpt lat="22.796724" lon="108.897419">
        <ele>72.277317</ele>
        <time>2026-08-14T06:51:51.000Z</time>
      </trkpt>
      <trkpt lat="22.796742" lon="108.897466">
        <ele>72.283363</ele>
        <time>2026-08-14T06:51:52.000Z</time>
      </trkpt>
      <trkpt lat="22.796758" lon="108.897512">
        <ele>72.289203</ele>
        <time>2026-08-14T06:51:53.000Z</time>
      </trkpt>
      <trkpt lat="22.796774" lon="108.897557">
        <ele>72.294932</ele>
        <time>2026-08-14T06:51:54.000Z</time>
      </trkpt>
      <trkpt lat="22.796791" lon="108.897604">
        <ele>72.300929</ele>
        <time>2026-08-14T06:51:55.000Z</time>
      </trkpt>
      <trkpt lat="22.796810" lon="108.897652">
        <ele>72.307134</ele>
        <time>2026-08-14T06:51:56.000Z</time>
      </trkpt>
      <trkpt lat="22.796829" lon="108.897700">
        <ele>72.313339</ele>
        <time>2026-08-14T06:51:57.000Z</time>
      </trkpt>
      <trkpt lat="22.796848" lon="108.897748">
        <ele>72.319544</ele>
        <time>2026-08-14T06:51:58.000Z</time>
      </trkpt>
      <trkpt lat="22.796867" lon="108.897799">
        <ele>72.326079</ele>
        <time>2026-08-14T06:51:59.000Z</time>
      </trkpt>
      <trkpt lat="22.796887" lon="108.897850">
        <ele>72.332662</ele>
        <time>2026-08-14T06:52:00.000Z</time>
      </trkpt>
      <trkpt lat="22.796906" lon="108.897902">
        <ele>72.339306</ele>
        <time>2026-08-14T06:52:01.000Z</time>
      </trkpt>
      <trkpt lat="22.796925" lon="108.897953">
        <ele>72.345840</ele>
        <time>2026-08-14T06:52:02.000Z</time>
      </trkpt>
      <trkpt lat="22.796942" lon="108.898003">
        <ele>72.352171</ele>
        <time>2026-08-14T06:52:03.000Z</time>
      </trkpt>
      <trkpt lat="22.796960" lon="108.898053">
        <ele>72.358547</ele>
        <time>2026-08-14T06:52:04.000Z</time>
      </trkpt>
      <trkpt lat="22.796978" lon="108.898104">
        <ele>72.365034</ele>
        <time>2026-08-14T06:52:05.000Z</time>
      </trkpt>
      <trkpt lat="22.796996" lon="108.898155">
        <ele>72.363981</ele>
        <time>2026-08-14T06:52:06.000Z</time>
      </trkpt>
      <trkpt lat="22.797015" lon="108.898207">
        <ele>72.343403</ele>
        <time>2026-08-14T06:52:07.000Z</time>
      </trkpt>
      <trkpt lat="22.797032" lon="108.898258">
        <ele>72.323452</ele>
        <time>2026-08-14T06:52:08.000Z</time>
      </trkpt>
      <trkpt lat="22.797050" lon="108.898308">
        <ele>72.303704</ele>
        <time>2026-08-14T06:52:09.000Z</time>
      </trkpt>
      <trkpt lat="22.797068" lon="108.898359">
        <ele>72.283614</ele>
        <time>2026-08-14T06:52:10.000Z</time>
      </trkpt>
      <trkpt lat="22.797086" lon="108.898410">
        <ele>72.263523</ele>
        <time>2026-08-14T06:52:11.000Z</time>
      </trkpt>
      <trkpt lat="22.797103" lon="108.898462">
        <ele>72.243226</ele>
        <time>2026-08-14T06:52:12.000Z</time>
      </trkpt>
      <trkpt lat="22.797119" lon="108.898513">
        <ele>72.223406</ele>
        <time>2026-08-14T06:52:13.000Z</time>
      </trkpt>
      <trkpt lat="22.797137" lon="108.898565">
        <ele>72.202972</ele>
        <time>2026-08-14T06:52:14.000Z</time>
      </trkpt>
      <trkpt lat="22.797153" lon="108.898619">
        <ele>72.182105</ele>
        <time>2026-08-14T06:52:15.000Z</time>
      </trkpt>
      <trkpt lat="22.797169" lon="108.898670">
        <ele>72.162286</ele>
        <time>2026-08-14T06:52:16.000Z</time>
      </trkpt>
      <trkpt lat="22.797185" lon="108.898722">
        <ele>72.142118</ele>
        <time>2026-08-14T06:52:17.000Z</time>
      </trkpt>
      <trkpt lat="22.797200" lon="108.898774">
        <ele>72.122073</ele>
        <time>2026-08-14T06:52:18.000Z</time>
      </trkpt>
      <trkpt lat="22.797216" lon="108.898825">
        <ele>72.102254</ele>
        <time>2026-08-14T06:52:19.000Z</time>
      </trkpt>
      <trkpt lat="22.797230" lon="108.898876">
        <ele>72.082677</ele>
        <time>2026-08-14T06:52:20.000Z</time>
      </trkpt>
      <trkpt lat="22.797247" lon="108.898926">
        <ele>72.063072</ele>
        <time>2026-08-14T06:52:21.000Z</time>
      </trkpt>
      <trkpt lat="22.797266" lon="108.898974">
        <ele>72.043854</ele>
        <time>2026-08-14T06:52:22.000Z</time>
      </trkpt>
      <trkpt lat="22.797283" lon="108.899022">
        <ele>72.024937</ele>
        <time>2026-08-14T06:52:23.000Z</time>
      </trkpt>
      <trkpt lat="22.797299" lon="108.899071">
        <ele>72.005813</ele>
        <time>2026-08-14T06:52:24.000Z</time>
      </trkpt>
      <trkpt lat="22.797314" lon="108.899120">
        <ele>71.986818</ele>
        <time>2026-08-14T06:52:25.000Z</time>
      </trkpt>
      <trkpt lat="22.797329" lon="108.899169">
        <ele>71.967824</ele>
        <time>2026-08-14T06:52:26.000Z</time>
      </trkpt>
      <trkpt lat="22.797344" lon="108.899217">
        <ele>71.949178</ele>
        <time>2026-08-14T06:52:27.000Z</time>
      </trkpt>
      <trkpt lat="22.797358" lon="108.899264">
        <ele>71.931007</ele>
        <time>2026-08-14T06:52:28.000Z</time>
      </trkpt>
      <trkpt lat="22.797373" lon="108.899310">
        <ele>71.913057</ele>
        <time>2026-08-14T06:52:29.000Z</time>
      </trkpt>
      <trkpt lat="22.797386" lon="108.899353">
        <ele>71.896408</ele>
        <time>2026-08-14T06:52:30.000Z</time>
      </trkpt>
      <trkpt lat="22.797400" lon="108.899394">
        <ele>71.880323</ele>
        <time>2026-08-14T06:52:31.000Z</time>
      </trkpt>
      <trkpt lat="22.797413" lon="108.899432">
        <ele>71.865412</ele>
        <time>2026-08-14T06:52:32.000Z</time>
      </trkpt>
      <trkpt lat="22.797423" lon="108.899466">
        <ele>71.852283</ele>
        <time>2026-08-14T06:52:33.000Z</time>
      </trkpt>
      <trkpt lat="22.797430" lon="108.899494">
        <ele>71.841610</ele>
        <time>2026-08-14T06:52:34.000Z</time>
      </trkpt>
      <trkpt lat="22.797433" lon="108.899521">
        <ele>71.831605</ele>
        <time>2026-08-14T06:52:35.000Z</time>
      </trkpt>
      <trkpt lat="22.797435" lon="108.899543">
        <ele>71.823472</ele>
        <time>2026-08-14T06:52:36.000Z</time>
      </trkpt>
      <trkpt lat="22.797440" lon="108.899563">
        <ele>71.815848</ele>
        <time>2026-08-14T06:52:37.000Z</time>
      </trkpt>
      <trkpt lat="22.797446" lon="108.899578">
        <ele>71.809833</ele>
        <time>2026-08-14T06:52:38.000Z</time>
      </trkpt>
      <trkpt lat="22.797448" lon="108.899587">
        <ele>71.806427</ele>
        <time>2026-08-14T06:52:39.000Z</time>
      </trkpt>
      <trkpt lat="22.797449" lon="108.899593">
        <ele>71.804184</ele>
        <time>2026-08-14T06:52:40.000Z</time>
      </trkpt>
      <trkpt lat="22.797475" lon="108.899668">
        <ele>71.774706</ele>
        <time>2026-08-14T06:53:25.000Z</time>
      </trkpt>
      <trkpt lat="22.797481" lon="108.899695">
        <ele>71.764488</ele>
        <time>2026-08-14T06:53:26.000Z</time>
      </trkpt>
      <trkpt lat="22.797492" lon="108.899725">
        <ele>71.752611</ele>
        <time>2026-08-14T06:53:27.000Z</time>
      </trkpt>
      <trkpt lat="22.797500" lon="108.899756">
        <ele>71.740768</ele>
        <time>2026-08-14T06:53:28.000Z</time>
      </trkpt>
      <trkpt lat="22.797510" lon="108.899790">
        <ele>71.727638</ele>
        <time>2026-08-14T06:53:29.000Z</time>
      </trkpt>
      <trkpt lat="22.797522" lon="108.899825">
        <ele>71.713900</ele>
        <time>2026-08-14T06:53:30.000Z</time>
      </trkpt>
      <trkpt lat="22.797534" lon="108.899861">
        <ele>71.699817</ele>
        <time>2026-08-14T06:53:31.000Z</time>
      </trkpt>
      <trkpt lat="22.797547" lon="108.899899">
        <ele>71.684906</ele>
        <time>2026-08-14T06:53:32.000Z</time>
      </trkpt>
      <trkpt lat="22.797561" lon="108.899938">
        <ele>71.669509</ele>
        <time>2026-08-14T06:53:33.000Z</time>
      </trkpt>
      <trkpt lat="22.797574" lon="108.899976">
        <ele>71.654597</ele>
        <time>2026-08-14T06:53:34.000Z</time>
      </trkpt>
      <trkpt lat="22.797588" lon="108.900017">
        <ele>71.641750</ele>
        <time>2026-08-14T06:53:35.000Z</time>
      </trkpt>
      <trkpt lat="22.797602" lon="108.900060">
        <ele>71.629029</ele>
        <time>2026-08-14T06:53:36.000Z</time>
      </trkpt>
      <trkpt lat="22.797616" lon="108.900106">
        <ele>71.615517</ele>
        <time>2026-08-14T06:53:37.000Z</time>
      </trkpt>
      <trkpt lat="22.797628" lon="108.900154">
        <ele>71.601644</ele>
        <time>2026-08-14T06:53:38.000Z</time>
      </trkpt>
      <trkpt lat="22.797640" lon="108.900204">
        <ele>71.587231</ele>
        <time>2026-08-14T06:53:39.000Z</time>
      </trkpt>
      <trkpt lat="22.797654" lon="108.900255">
        <ele>71.572388</ele>
        <time>2026-08-14T06:53:40.000Z</time>
      </trkpt>
      <trkpt lat="22.797669" lon="108.900308">
        <ele>71.556923</ele>
        <time>2026-08-14T06:53:41.000Z</time>
      </trkpt>
      <trkpt lat="22.797685" lon="108.900358">
        <ele>71.542159</ele>
        <time>2026-08-14T06:53:42.000Z</time>
      </trkpt>
      <trkpt lat="22.797700" lon="108.900409">
        <ele>71.527226</ele>
        <time>2026-08-14T06:53:43.000Z</time>
      </trkpt>
      <trkpt lat="22.797718" lon="108.900462">
        <ele>71.511471</ele>
        <time>2026-08-14T06:53:44.000Z</time>
      </trkpt>
      <trkpt lat="22.797732" lon="108.900518">
        <ele>71.495286</ele>
        <time>2026-08-14T06:53:45.000Z</time>
      </trkpt>
      <trkpt lat="22.797748" lon="108.900573">
        <ele>71.479198</ele>
        <time>2026-08-14T06:53:46.000Z</time>
      </trkpt>
      <trkpt lat="22.797766" lon="108.900628">
        <ele>71.462918</ele>
        <time>2026-08-14T06:53:47.000Z</time>
      </trkpt>
      <trkpt lat="22.797782" lon="108.900681">
        <ele>71.447361</ele>
        <time>2026-08-14T06:53:48.000Z</time>
      </trkpt>
      <trkpt lat="22.797798" lon="108.900736">
        <ele>71.431274</ele>
        <time>2026-08-14T06:53:49.000Z</time>
      </trkpt>
      <trkpt lat="22.797814" lon="108.900793">
        <ele>71.414653</ele>
        <time>2026-08-14T06:53:50.000Z</time>
      </trkpt>
      <trkpt lat="22.797829" lon="108.900849">
        <ele>71.398386</ele>
        <time>2026-08-14T06:53:51.000Z</time>
      </trkpt>
      <trkpt lat="22.797846" lon="108.900905">
        <ele>71.381940</ele>
        <time>2026-08-14T06:53:52.000Z</time>
      </trkpt>
      <trkpt lat="22.797864" lon="108.900963">
        <ele>71.364869</ele>
        <time>2026-08-14T06:53:53.000Z</time>
      </trkpt>
      <trkpt lat="22.797880" lon="108.901020">
        <ele>71.348248</ele>
        <time>2026-08-14T06:53:54.000Z</time>
      </trkpt>
      <trkpt lat="22.797897" lon="108.901075">
        <ele>71.332067</ele>
        <time>2026-08-14T06:53:55.000Z</time>
      </trkpt>
      <trkpt lat="22.797915" lon="108.901131">
        <ele>71.315524</ele>
        <time>2026-08-14T06:53:56.000Z</time>
      </trkpt>
      <trkpt lat="22.797935" lon="108.901186">
        <ele>71.299031</ele>
        <time>2026-08-14T06:53:57.000Z</time>
      </trkpt>
      <trkpt lat="22.797953" lon="108.901240">
        <ele>71.283014</ele>
        <time>2026-08-14T06:53:58.000Z</time>
      </trkpt>
      <trkpt lat="22.797972" lon="108.901294">
        <ele>71.266891</ele>
        <time>2026-08-14T06:53:59.000Z</time>
      </trkpt>
      <trkpt lat="22.797991" lon="108.901347">
        <ele>71.251028</ele>
        <time>2026-08-14T06:54:00.000Z</time>
      </trkpt>
      <trkpt lat="22.798009" lon="108.901400">
        <ele>71.235273</ele>
        <time>2026-08-14T06:54:01.000Z</time>
      </trkpt>
      <trkpt lat="22.798027" lon="108.901453">
        <ele>71.219517</ele>
        <time>2026-08-14T06:54:02.000Z</time>
      </trkpt>
      <trkpt lat="22.798045" lon="108.901504">
        <ele>71.204284</ele>
        <time>2026-08-14T06:54:03.000Z</time>
      </trkpt>
      <trkpt lat="22.798065" lon="108.901553">
        <ele>71.189336</ele>
        <time>2026-08-14T06:54:04.000Z</time>
      </trkpt>
      <trkpt lat="22.798083" lon="108.901604">
        <ele>71.174103</ele>
        <time>2026-08-14T06:54:05.000Z</time>
      </trkpt>
      <trkpt lat="22.798100" lon="108.901655">
        <ele>71.158975</ele>
        <time>2026-08-14T06:54:06.000Z</time>
      </trkpt>
      <trkpt lat="22.798117" lon="108.901706">
        <ele>71.143848</ele>
        <time>2026-08-14T06:54:07.000Z</time>
      </trkpt>
      <trkpt lat="22.798134" lon="108.901759">
        <ele>71.128194</ele>
        <time>2026-08-14T06:54:08.000Z</time>
      </trkpt>
      <trkpt lat="22.798153" lon="108.901811">
        <ele>71.112591</ele>
        <time>2026-08-14T06:54:09.000Z</time>
      </trkpt>
      <trkpt lat="22.798172" lon="108.901862">
        <ele>71.117887</ele>
        <time>2026-08-14T06:54:10.000Z</time>
      </trkpt>
      <trkpt lat="22.798191" lon="108.901912">
        <ele>71.132692</ele>
        <time>2026-08-14T06:54:11.000Z</time>
      </trkpt>
      <trkpt lat="22.798211" lon="108.901963">
        <ele>71.147865</ele>
        <time>2026-08-14T06:54:12.000Z</time>
      </trkpt>
      <trkpt lat="22.798230" lon="108.902015">
        <ele>71.163178</ele>
        <time>2026-08-14T06:54:13.000Z</time>
      </trkpt>
      <trkpt lat="22.798248" lon="108.902066">
        <ele>71.178128</ele>
        <time>2026-08-14T06:54:14.000Z</time>
      </trkpt>
      <trkpt lat="22.798267" lon="108.902117">
        <ele>71.193187</ele>
        <time>2026-08-14T06:54:15.000Z</time>
      </trkpt>
      <trkpt lat="22.798286" lon="108.902169">
        <ele>71.208500</ele>
        <time>2026-08-14T06:54:16.000Z</time>
      </trkpt>
      <trkpt lat="22.798306" lon="108.902219">
        <ele>71.223421</ele>
        <time>2026-08-14T06:54:17.000Z</time>
      </trkpt>
      <trkpt lat="22.798326" lon="108.902268">
        <ele>71.238092</ele>
        <time>2026-08-14T06:54:18.000Z</time>
      </trkpt>
      <trkpt lat="22.798346" lon="108.902318">
        <ele>71.253013</ele>
        <time>2026-08-14T06:54:19.000Z</time>
      </trkpt>
      <trkpt lat="22.798365" lon="108.902368">
        <ele>71.267818</ele>
        <time>2026-08-14T06:54:20.000Z</time>
      </trkpt>
      <trkpt lat="22.798384" lon="108.902419">
        <ele>71.282877</ele>
        <time>2026-08-14T06:54:21.000Z</time>
      </trkpt>
      <trkpt lat="22.798405" lon="108.902470">
        <ele>71.298168</ele>
        <time>2026-08-14T06:54:22.000Z</time>
      </trkpt>
      <trkpt lat="22.798425" lon="108.902522">
        <ele>71.313593</ele>
        <time>2026-08-14T06:54:23.000Z</time>
      </trkpt>
      <trkpt lat="22.798445" lon="108.902574">
        <ele>71.329018</ele>
        <time>2026-08-14T06:54:24.000Z</time>
      </trkpt>
      <trkpt lat="22.798465" lon="108.902627">
        <ele>71.344696</ele>
        <time>2026-08-14T06:54:25.000Z</time>
      </trkpt>
      <trkpt lat="22.798486" lon="108.902679">
        <ele>71.360238</ele>
        <time>2026-08-14T06:54:26.000Z</time>
      </trkpt>
      <trkpt lat="22.798507" lon="108.902732">
        <ele>71.376031</ele>
        <time>2026-08-14T06:54:27.000Z</time>
      </trkpt>
      <trkpt lat="22.798529" lon="108.902783">
        <ele>71.391446</ele>
        <time>2026-08-14T06:54:28.000Z</time>
      </trkpt>
      <trkpt lat="22.798552" lon="108.902836">
        <ele>71.407482</ele>
        <time>2026-08-14T06:54:29.000Z</time>
      </trkpt>
      <trkpt lat="22.798573" lon="108.902888">
        <ele>71.423024</ele>
        <time>2026-08-14T06:54:30.000Z</time>
      </trkpt>
      <trkpt lat="22.798596" lon="108.902940">
        <ele>71.438813</ele>
        <time>2026-08-14T06:54:31.000Z</time>
      </trkpt>
      <trkpt lat="22.798620" lon="108.902992">
        <ele>71.454733</ele>
        <time>2026-08-14T06:54:32.000Z</time>
      </trkpt>
      <trkpt lat="22.798644" lon="108.903046">
        <ele>71.471145</ele>
        <time>2026-08-14T06:54:33.000Z</time>
      </trkpt>
      <trkpt lat="22.798667" lon="108.903102">
        <ele>71.487928</ele>
        <time>2026-08-14T06:54:34.000Z</time>
      </trkpt>
      <trkpt lat="22.798689" lon="108.903157">
        <ele>71.504341</ele>
        <time>2026-08-14T06:54:35.000Z</time>
      </trkpt>
      <trkpt lat="22.798711" lon="108.903212">
        <ele>71.520755</ele>
        <time>2026-08-14T06:54:36.000Z</time>
      </trkpt>
      <trkpt lat="22.798732" lon="108.903265">
        <ele>71.536547</ele>
        <time>2026-08-14T06:54:37.000Z</time>
      </trkpt>
      <trkpt lat="22.798754" lon="108.903318">
        <ele>71.552460</ele>
        <time>2026-08-14T06:54:38.000Z</time>
      </trkpt>
      <trkpt lat="22.798776" lon="108.903371">
        <ele>71.568372</ele>
        <time>2026-08-14T06:54:39.000Z</time>
      </trkpt>
      <trkpt lat="22.798798" lon="108.903423">
        <ele>71.584035</ele>
        <time>2026-08-14T06:54:40.000Z</time>
      </trkpt>
      <trkpt lat="22.798820" lon="108.903478">
        <ele>71.600449</ele>
        <time>2026-08-14T06:54:41.000Z</time>
      </trkpt>
      <trkpt lat="22.798843" lon="108.903532">
        <ele>71.616733</ele>
        <time>2026-08-14T06:54:42.000Z</time>
      </trkpt>
      <trkpt lat="22.798866" lon="108.903587">
        <ele>71.633267</ele>
        <time>2026-08-14T06:54:43.000Z</time>
      </trkpt>
      <trkpt lat="22.798888" lon="108.903643">
        <ele>71.629054</ele>
        <time>2026-08-14T06:54:44.000Z</time>
      </trkpt>
      <trkpt lat="22.798909" lon="108.903698">
        <ele>71.603537</ele>
        <time>2026-08-14T06:54:45.000Z</time>
      </trkpt>
      <trkpt lat="22.798931" lon="108.903754">
        <ele>71.577444</ele>
        <time>2026-08-14T06:54:46.000Z</time>
      </trkpt>
      <trkpt lat="22.798953" lon="108.903810">
        <ele>71.551352</ele>
        <time>2026-08-14T06:54:47.000Z</time>
      </trkpt>
      <trkpt lat="22.798974" lon="108.903865">
        <ele>71.525835</ele>
        <time>2026-08-14T06:54:48.000Z</time>
      </trkpt>
      <trkpt lat="22.798996" lon="108.903919">
        <ele>71.500529</ele>
        <time>2026-08-14T06:54:49.000Z</time>
      </trkpt>
      <trkpt lat="22.799017" lon="108.903973">
        <ele>71.475407</ele>
        <time>2026-08-14T06:54:50.000Z</time>
      </trkpt>
      <trkpt lat="22.799037" lon="108.904029">
        <ele>71.449665</ele>
        <time>2026-08-14T06:54:51.000Z</time>
      </trkpt>
      <trkpt lat="22.799057" lon="108.904085">
        <ele>71.423923</ele>
        <time>2026-08-14T06:54:52.000Z</time>
      </trkpt>
      <trkpt lat="22.799076" lon="108.904141">
        <ele>71.398345</ele>
        <time>2026-08-14T06:54:53.000Z</time>
      </trkpt>
      <trkpt lat="22.799096" lon="108.904198">
        <ele>71.372202</ele>
        <time>2026-08-14T06:54:54.000Z</time>
      </trkpt>
      <trkpt lat="22.799113" lon="108.904256">
        <ele>71.346115</ele>
        <time>2026-08-14T06:54:55.000Z</time>
      </trkpt>
      <trkpt lat="22.799129" lon="108.904314">
        <ele>71.320165</ele>
        <time>2026-08-14T06:54:56.000Z</time>
      </trkpt>
      <trkpt lat="22.799145" lon="108.904373">
        <ele>71.293804</ele>
        <time>2026-08-14T06:54:57.000Z</time>
      </trkpt>
      <trkpt lat="22.799163" lon="108.904431">
        <ele>71.267572</ele>
        <time>2026-08-14T06:54:58.000Z</time>
      </trkpt>
      <trkpt lat="22.799181" lon="108.904491">
        <ele>71.240526</ele>
        <time>2026-08-14T06:54:59.000Z</time>
      </trkpt>
      <trkpt lat="22.799198" lon="108.904550">
        <ele>71.214030</ele>
        <time>2026-08-14T06:55:00.000Z</time>
      </trkpt>
      <trkpt lat="22.799215" lon="108.904610">
        <ele>71.187124</ele>
        <time>2026-08-14T06:55:01.000Z</time>
      </trkpt>
      <trkpt lat="22.799233" lon="108.904670">
        <ele>71.160078</ele>
        <time>2026-08-14T06:55:02.000Z</time>
      </trkpt>
      <trkpt lat="22.799252" lon="108.904732">
        <ele>71.132073</ele>
        <time>2026-08-14T06:55:03.000Z</time>
      </trkpt>
      <trkpt lat="22.799271" lon="108.904794">
        <ele>71.104067</ele>
        <time>2026-08-14T06:55:04.000Z</time>
      </trkpt>
      <trkpt lat="22.799289" lon="108.904857">
        <ele>71.075796</ele>
        <time>2026-08-14T06:55:05.000Z</time>
      </trkpt>
      <trkpt lat="22.799309" lon="108.904920">
        <ele>71.047236</ele>
        <time>2026-08-14T06:55:06.000Z</time>
      </trkpt>
      <trkpt lat="22.799328" lon="108.904981">
        <ele>71.019636</ele>
        <time>2026-08-14T06:55:07.000Z</time>
      </trkpt>
      <trkpt lat="22.799345" lon="108.905042">
        <ele>70.992321</ele>
        <time>2026-08-14T06:55:08.000Z</time>
      </trkpt>
      <trkpt lat="22.799361" lon="108.905103">
        <ele>70.965136</ele>
        <time>2026-08-14T06:55:09.000Z</time>
      </trkpt>
      <trkpt lat="22.799377" lon="108.905165">
        <ele>70.937539</ele>
        <time>2026-08-14T06:55:10.000Z</time>
      </trkpt>
      <trkpt lat="22.799394" lon="108.905227">
        <ele>70.909813</ele>
        <time>2026-08-14T06:55:11.000Z</time>
      </trkpt>
      <trkpt lat="22.799409" lon="108.905288">
        <ele>70.882752</ele>
        <time>2026-08-14T06:55:12.000Z</time>
      </trkpt>
      <trkpt lat="22.799425" lon="108.905350">
        <ele>70.855155</ele>
        <time>2026-08-14T06:55:13.000Z</time>
      </trkpt>
      <trkpt lat="22.799440" lon="108.905412">
        <ele>70.827679</ele>
        <time>2026-08-14T06:55:14.000Z</time>
      </trkpt>
      <trkpt lat="22.799456" lon="108.905472">
        <ele>70.804940</ele>
        <time>2026-08-14T06:55:15.000Z</time>
      </trkpt>
      <trkpt lat="22.799471" lon="108.905535">
        <ele>70.801613</ele>
        <time>2026-08-14T06:55:16.000Z</time>
      </trkpt>
      <trkpt lat="22.799484" lon="108.905595">
        <ele>70.798462</ele>
        <time>2026-08-14T06:55:17.000Z</time>
      </trkpt>
      <trkpt lat="22.799497" lon="108.905656">
        <ele>70.795261</ele>
        <time>2026-08-14T06:55:18.000Z</time>
      </trkpt>
      <trkpt lat="22.799512" lon="108.905719">
        <ele>70.791935</ele>
        <time>2026-08-14T06:55:19.000Z</time>
      </trkpt>
      <trkpt lat="22.799526" lon="108.905780">
        <ele>70.788721</ele>
        <time>2026-08-14T06:55:20.000Z</time>
      </trkpt>
      <trkpt lat="22.799539" lon="108.905841">
        <ele>70.785520</ele>
        <time>2026-08-14T06:55:21.000Z</time>
      </trkpt>
      <trkpt lat="22.799552" lon="108.905901">
        <ele>70.782369</ele>
        <time>2026-08-14T06:55:22.000Z</time>
      </trkpt>
      <trkpt lat="22.799566" lon="108.905964">
        <ele>70.779056</ele>
        <time>2026-08-14T06:55:23.000Z</time>
      </trkpt>
      <trkpt lat="22.799581" lon="108.906026">
        <ele>70.775778</ele>
        <time>2026-08-14T06:55:24.000Z</time>
      </trkpt>
      <trkpt lat="22.799598" lon="108.906086">
        <ele>70.772569</ele>
        <time>2026-08-14T06:55:25.000Z</time>
      </trkpt>
      <trkpt lat="22.799613" lon="108.906146">
        <ele>70.769391</ele>
        <time>2026-08-14T06:55:26.000Z</time>
      </trkpt>
      <trkpt lat="22.799628" lon="108.906206">
        <ele>70.766213</ele>
        <time>2026-08-14T06:55:27.000Z</time>
      </trkpt>
      <trkpt lat="22.799644" lon="108.906266">
        <ele>70.763019</ele>
        <time>2026-08-14T06:55:28.000Z</time>
      </trkpt>
      <trkpt lat="22.799658" lon="108.906326">
        <ele>70.759855</ele>
        <time>2026-08-14T06:55:29.000Z</time>
      </trkpt>
      <trkpt lat="22.799672" lon="108.906385">
        <ele>70.756741</ele>
        <time>2026-08-14T06:55:30.000Z</time>
      </trkpt>
      <trkpt lat="22.799688" lon="108.906444">
        <ele>70.753596</ele>
        <time>2026-08-14T06:55:31.000Z</time>
      </trkpt>
      <trkpt lat="22.799704" lon="108.906503">
        <ele>70.750452</ele>
        <time>2026-08-14T06:55:32.000Z</time>
      </trkpt>
      <trkpt lat="22.799720" lon="108.906559">
        <ele>70.747455</ele>
        <time>2026-08-14T06:55:33.000Z</time>
      </trkpt>
      <trkpt lat="22.799737" lon="108.906616">
        <ele>70.744392</ele>
        <time>2026-08-14T06:55:34.000Z</time>
      </trkpt>
      <trkpt lat="22.799753" lon="108.906673">
        <ele>70.741346</ele>
        <time>2026-08-14T06:55:35.000Z</time>
      </trkpt>
      <trkpt lat="22.799771" lon="108.906734">
        <ele>70.738071</ele>
        <time>2026-08-14T06:55:36.000Z</time>
      </trkpt>
      <trkpt lat="22.799788" lon="108.906792">
        <ele>70.734960</ele>
        <time>2026-08-14T06:55:37.000Z</time>
      </trkpt>
      <trkpt lat="22.799801" lon="108.906848">
        <ele>70.732007</ele>
        <time>2026-08-14T06:55:38.000Z</time>
      </trkpt>
      <trkpt lat="22.799816" lon="108.906907">
        <ele>70.728878</ele>
        <time>2026-08-14T06:55:39.000Z</time>
      </trkpt>
      <trkpt lat="22.799834" lon="108.906964">
        <ele>70.725798</ele>
        <time>2026-08-14T06:55:40.000Z</time>
      </trkpt>
      <trkpt lat="22.799851" lon="108.907022">
        <ele>70.722686</ele>
        <time>2026-08-14T06:55:41.000Z</time>
      </trkpt>
      <trkpt lat="22.799868" lon="108.907079">
        <ele>70.719624</ele>
        <time>2026-08-14T06:55:42.000Z</time>
      </trkpt>
      <trkpt lat="22.799887" lon="108.907136">
        <ele>70.716525</ele>
        <time>2026-08-14T06:55:43.000Z</time>
      </trkpt>
      <trkpt lat="22.799906" lon="108.907193">
        <ele>70.713426</ele>
        <time>2026-08-14T06:55:44.000Z</time>
      </trkpt>
      <trkpt lat="22.799924" lon="108.907249">
        <ele>70.710394</ele>
        <time>2026-08-14T06:55:45.000Z</time>
      </trkpt>
      <trkpt lat="22.799942" lon="108.907306">
        <ele>70.707314</ele>
        <time>2026-08-14T06:55:46.000Z</time>
      </trkpt>
      <trkpt lat="22.799961" lon="108.907361">
        <ele>70.709718</ele>
        <time>2026-08-14T06:55:47.000Z</time>
      </trkpt>
      <trkpt lat="22.799977" lon="108.907418">
        <ele>70.718227</ele>
        <time>2026-08-14T06:55:48.000Z</time>
      </trkpt>
      <trkpt lat="22.799995" lon="108.907474">
        <ele>70.726697</ele>
        <time>2026-08-14T06:55:49.000Z</time>
      </trkpt>
      <trkpt lat="22.800015" lon="108.907531">
        <ele>70.735407</ele>
        <time>2026-08-14T06:55:50.000Z</time>
      </trkpt>
      <trkpt lat="22.800036" lon="108.907588">
        <ele>70.744173</ele>
        <time>2026-08-14T06:55:51.000Z</time>
      </trkpt>
      <trkpt lat="22.800056" lon="108.907645">
        <ele>70.752884</ele>
        <time>2026-08-14T06:55:52.000Z</time>
      </trkpt>
      <trkpt lat="22.800077" lon="108.907703">
        <ele>70.761783</ele>
        <time>2026-08-14T06:55:53.000Z</time>
      </trkpt>
      <trkpt lat="22.800098" lon="108.907760">
        <ele>70.770549</ele>
        <time>2026-08-14T06:55:54.000Z</time>
      </trkpt>
      <trkpt lat="22.800116" lon="108.907818">
        <ele>70.779289</ele>
        <time>2026-08-14T06:55:55.000Z</time>
      </trkpt>
      <trkpt lat="22.800137" lon="108.907876">
        <ele>70.788188</ele>
        <time>2026-08-14T06:55:56.000Z</time>
      </trkpt>
      <trkpt lat="22.800158" lon="108.907933">
        <ele>70.796955</ele>
        <time>2026-08-14T06:55:57.000Z</time>
      </trkpt>
      <trkpt lat="22.800177" lon="108.907990">
        <ele>70.805611</ele>
        <time>2026-08-14T06:55:58.000Z</time>
      </trkpt>
      <trkpt lat="22.800198" lon="108.908045">
        <ele>70.814113</ele>
        <time>2026-08-14T06:55:59.000Z</time>
      </trkpt>
      <trkpt lat="22.800218" lon="108.908100">
        <ele>70.822557</ele>
        <time>2026-08-14T06:56:00.000Z</time>
      </trkpt>
      <trkpt lat="22.800240" lon="108.908155">
        <ele>70.831119</ele>
        <time>2026-08-14T06:56:01.000Z</time>
      </trkpt>
      <trkpt lat="22.800261" lon="108.908209">
        <ele>70.839489</ele>
        <time>2026-08-14T06:56:02.000Z</time>
      </trkpt>
      <trkpt lat="22.800283" lon="108.908263">
        <ele>70.847921</ele>
        <time>2026-08-14T06:56:03.000Z</time>
      </trkpt>
      <trkpt lat="22.800305" lon="108.908317">
        <ele>70.856352</ele>
        <time>2026-08-14T06:56:04.000Z</time>
      </trkpt>
      <trkpt lat="22.800325" lon="108.908371">
        <ele>70.864663</ele>
        <time>2026-08-14T06:56:05.000Z</time>
      </trkpt>
      <trkpt lat="22.800345" lon="108.908426">
        <ele>70.873107</ele>
        <time>2026-08-14T06:56:06.000Z</time>
      </trkpt>
      <trkpt lat="22.800365" lon="108.908480">
        <ele>70.881418</ele>
        <time>2026-08-14T06:56:07.000Z</time>
      </trkpt>
      <trkpt lat="22.800385" lon="108.908534">
        <ele>70.889729</ele>
        <time>2026-08-14T06:56:08.000Z</time>
      </trkpt>
      <trkpt lat="22.800405" lon="108.908590">
        <ele>70.898306</ele>
        <time>2026-08-14T06:56:09.000Z</time>
      </trkpt>
      <trkpt lat="22.800424" lon="108.908647">
        <ele>70.906962</ele>
        <time>2026-08-14T06:56:10.000Z</time>
      </trkpt>
      <trkpt lat="22.800443" lon="108.908705">
        <ele>70.915753</ele>
        <time>2026-08-14T06:56:11.000Z</time>
      </trkpt>
      <trkpt lat="22.800463" lon="108.908762">
        <ele>70.924463</ele>
        <time>2026-08-14T06:56:12.000Z</time>
      </trkpt>
      <trkpt lat="22.800484" lon="108.908817">
        <ele>70.932965</ele>
        <time>2026-08-14T06:56:13.000Z</time>
      </trkpt>
      <trkpt lat="22.800504" lon="108.908872">
        <ele>70.941409</ele>
        <time>2026-08-14T06:56:14.000Z</time>
      </trkpt>
      <trkpt lat="22.800523" lon="108.908927">
        <ele>70.949797</ele>
        <time>2026-08-14T06:56:15.000Z</time>
      </trkpt>
      <trkpt lat="22.800542" lon="108.908981">
        <ele>70.958051</ele>
        <time>2026-08-14T06:56:16.000Z</time>
      </trkpt>
      <trkpt lat="22.800561" lon="108.909035">
        <ele>70.966306</ele>
        <time>2026-08-14T06:56:17.000Z</time>
      </trkpt>
      <trkpt lat="22.800580" lon="108.909089">
        <ele>70.974561</ele>
        <time>2026-08-14T06:56:18.000Z</time>
      </trkpt>
      <trkpt lat="22.800600" lon="108.909142">
        <ele>70.982739</ele>
        <time>2026-08-14T06:56:19.000Z</time>
      </trkpt>
      <trkpt lat="22.800620" lon="108.909194">
        <ele>71.008949</ele>
        <time>2026-08-14T06:56:20.000Z</time>
      </trkpt>
      <trkpt lat="22.800639" lon="108.909246">
        <ele>71.039588</ele>
        <time>2026-08-14T06:56:21.000Z</time>
      </trkpt>
      <trkpt lat="22.800657" lon="108.909299">
        <ele>71.070528</ele>
        <time>2026-08-14T06:56:22.000Z</time>
      </trkpt>
      <trkpt lat="22.800676" lon="108.909352">
        <ele>71.101678</ele>
        <time>2026-08-14T06:56:23.000Z</time>
      </trkpt>
      <trkpt lat="22.800694" lon="108.909405">
        <ele>71.132617</ele>
        <time>2026-08-14T06:56:24.000Z</time>
      </trkpt>
      <trkpt lat="22.800713" lon="108.909458">
        <ele>71.163767</ele>
        <time>2026-08-14T06:56:25.000Z</time>
      </trkpt>
      <trkpt lat="22.800730" lon="108.909511">
        <ele>71.194506</ele>
        <time>2026-08-14T06:56:26.000Z</time>
      </trkpt>
      <trkpt lat="22.800747" lon="108.909565">
        <ele>71.225763</ele>
        <time>2026-08-14T06:56:27.000Z</time>
      </trkpt>
      <trkpt lat="22.800762" lon="108.909620">
        <ele>71.257181</ele>
        <time>2026-08-14T06:56:28.000Z</time>
      </trkpt>
      <trkpt lat="22.800776" lon="108.909676">
        <ele>71.288964</ele>
        <time>2026-08-14T06:56:29.000Z</time>
      </trkpt>
      <trkpt lat="22.800791" lon="108.909731">
        <ele>71.320382</ele>
        <time>2026-08-14T06:56:30.000Z</time>
      </trkpt>
      <trkpt lat="22.800805" lon="108.909786">
        <ele>71.351637</ele>
        <time>2026-08-14T06:56:31.000Z</time>
      </trkpt>
      <trkpt lat="22.800817" lon="108.909841">
        <ele>71.382596</ele>
        <time>2026-08-14T06:56:32.000Z</time>
      </trkpt>
      <trkpt lat="22.800829" lon="108.909897">
        <ele>71.414089</ele>
        <time>2026-08-14T06:56:33.000Z</time>
      </trkpt>
      <trkpt lat="22.800839" lon="108.909953">
        <ele>71.445335</ele>
        <time>2026-08-14T06:56:34.000Z</time>
      </trkpt>
      <trkpt lat="22.800850" lon="108.910009">
        <ele>71.476698</ele>
        <time>2026-08-14T06:56:35.000Z</time>
      </trkpt>
      <trkpt lat="22.800857" lon="108.910065">
        <ele>71.507654</ele>
        <time>2026-08-14T06:56:36.000Z</time>
      </trkpt>
      <trkpt lat="22.800863" lon="108.910122">
        <ele>71.539080</ele>
        <time>2026-08-14T06:56:37.000Z</time>
      </trkpt>
      <trkpt lat="22.800867" lon="108.910177">
        <ele>71.569301</ele>
        <time>2026-08-14T06:56:38.000Z</time>
      </trkpt>
      <trkpt lat="22.800872" lon="108.910233">
        <ele>71.600119</ele>
        <time>2026-08-14T06:56:39.000Z</time>
      </trkpt>
      <trkpt lat="22.800875" lon="108.910288">
        <ele>71.630300</ele>
        <time>2026-08-14T06:56:40.000Z</time>
      </trkpt>
      <trkpt lat="22.800876" lon="108.910342">
        <ele>71.659885</ele>
        <time>2026-08-14T06:56:41.000Z</time>
      </trkpt>
      <trkpt lat="22.800875" lon="108.910396">
        <ele>71.689471</ele>
        <time>2026-08-14T06:56:42.000Z</time>
      </trkpt>
      <trkpt lat="22.800874" lon="108.910448">
        <ele>71.717961</ele>
        <time>2026-08-14T06:56:43.000Z</time>
      </trkpt>
      <trkpt lat="22.800871" lon="108.910499">
        <ele>71.745954</ele>
        <time>2026-08-14T06:56:44.000Z</time>
      </trkpt>
      <trkpt lat="22.800868" lon="108.910550">
        <ele>71.773947</ele>
        <time>2026-08-14T06:56:45.000Z</time>
      </trkpt>
      <trkpt lat="22.800865" lon="108.910601">
        <ele>71.801940</ele>
        <time>2026-08-14T06:56:46.000Z</time>
      </trkpt>
      <trkpt lat="22.800860" lon="108.910651">
        <ele>71.829489</ele>
        <time>2026-08-14T06:56:47.000Z</time>
      </trkpt>
      <trkpt lat="22.800853" lon="108.910700">
        <ele>71.856650</ele>
        <time>2026-08-14T06:56:48.000Z</time>
      </trkpt>
      <trkpt lat="22.800846" lon="108.910748">
        <ele>71.883270</ele>
        <time>2026-08-14T06:56:49.000Z</time>
      </trkpt>
      <trkpt lat="22.800837" lon="108.910797">
        <ele>71.910638</ele>
        <time>2026-08-14T06:56:50.000Z</time>
      </trkpt>
      <trkpt lat="22.800827" lon="108.910847">
        <ele>71.938664</ele>
        <time>2026-08-14T06:56:51.000Z</time>
      </trkpt>
      <trkpt lat="22.800818" lon="108.910896">
        <ele>71.966032</ele>
        <time>2026-08-14T06:56:52.000Z</time>
      </trkpt>
      <trkpt lat="22.800809" lon="108.910946">
        <ele>71.993938</ele>
        <time>2026-08-14T06:56:53.000Z</time>
      </trkpt>
      <trkpt lat="22.800800" lon="108.910995">
        <ele>72.021306</ele>
        <time>2026-08-14T06:56:54.000Z</time>
      </trkpt>
      <trkpt lat="22.800788" lon="108.911045">
        <ele>72.049608</ele>
        <time>2026-08-14T06:56:55.000Z</time>
      </trkpt>
      <trkpt lat="22.800775" lon="108.911094">
        <ele>72.102271</ele>
        <time>2026-08-14T06:56:56.000Z</time>
      </trkpt>
      <trkpt lat="22.800762" lon="108.911145">
        <ele>72.160637</ele>
        <time>2026-08-14T06:56:57.000Z</time>
      </trkpt>
      <trkpt lat="22.800749" lon="108.911195">
        <ele>72.217940</ele>
        <time>2026-08-14T06:56:58.000Z</time>
      </trkpt>
      <trkpt lat="22.800735" lon="108.911246">
        <ele>72.276636</ele>
        <time>2026-08-14T06:56:59.000Z</time>
      </trkpt>
      <trkpt lat="22.800723" lon="108.911297">
        <ele>72.334694</ele>
        <time>2026-08-14T06:57:00.000Z</time>
      </trkpt>
      <trkpt lat="22.800710" lon="108.911349">
        <ele>72.394123</ele>
        <time>2026-08-14T06:57:01.000Z</time>
      </trkpt>
      <trkpt lat="22.800698" lon="108.911400">
        <ele>72.452181</ele>
        <time>2026-08-14T06:57:02.000Z</time>
      </trkpt>
      <trkpt lat="22.800684" lon="108.911450">
        <ele>72.509821</ele>
        <time>2026-08-14T06:57:03.000Z</time>
      </trkpt>
      <trkpt lat="22.800671" lon="108.911499">
        <ele>72.566063</ele>
        <time>2026-08-14T06:57:04.000Z</time>
      </trkpt>
      <trkpt lat="22.800657" lon="108.911546">
        <ele>72.620545</ele>
        <time>2026-08-14T06:57:05.000Z</time>
      </trkpt>
      <trkpt lat="22.800643" lon="108.911594">
        <ele>72.676077</ele>
        <time>2026-08-14T06:57:06.000Z</time>
      </trkpt>
      <trkpt lat="22.800631" lon="108.911643">
        <ele>72.732001</ele>
        <time>2026-08-14T06:57:07.000Z</time>
      </trkpt>
      <trkpt lat="22.800617" lon="108.911692">
        <ele>72.788586</ele>
        <time>2026-08-14T06:57:08.000Z</time>
      </trkpt>
      <trkpt lat="22.800603" lon="108.911741">
        <ele>72.845171</ele>
        <time>2026-08-14T06:57:09.000Z</time>
      </trkpt>
      <trkpt lat="22.800590" lon="108.911790">
        <ele>72.901413</ele>
        <time>2026-08-14T06:57:10.000Z</time>
      </trkpt>
      <trkpt lat="22.800578" lon="108.911839">
        <ele>72.957336</ele>
        <time>2026-08-14T06:57:11.000Z</time>
      </trkpt>
      <trkpt lat="22.800566" lon="108.911889">
        <ele>73.014326</ele>
        <time>2026-08-14T06:57:12.000Z</time>
      </trkpt>
      <trkpt lat="22.800553" lon="108.911936">
        <ele>73.068452</ele>
        <time>2026-08-14T06:57:13.000Z</time>
      </trkpt>
      <trkpt lat="22.800538" lon="108.911983">
        <ele>73.123314</ele>
        <time>2026-08-14T06:57:14.000Z</time>
      </trkpt>
      <trkpt lat="22.800523" lon="108.912031">
        <ele>73.179219</ele>
        <time>2026-08-14T06:57:15.000Z</time>
      </trkpt>
      <trkpt lat="22.800510" lon="108.912078">
        <ele>73.233345</ele>
        <time>2026-08-14T06:57:16.000Z</time>
      </trkpt>
      <trkpt lat="22.800496" lon="108.912126">
        <ele>73.288877</ele>
        <time>2026-08-14T06:57:17.000Z</time>
      </trkpt>
      <trkpt lat="22.800484" lon="108.912175">
        <ele>73.344800</ele>
        <time>2026-08-14T06:57:18.000Z</time>
      </trkpt>
      <trkpt lat="22.800471" lon="108.912224">
        <ele>73.401043</ele>
        <time>2026-08-14T06:57:19.000Z</time>
      </trkpt>
      <trkpt lat="22.800458" lon="108.912271">
        <ele>73.455169</ele>
        <time>2026-08-14T06:57:20.000Z</time>
      </trkpt>
      <trkpt lat="22.800447" lon="108.912318">
        <ele>73.508656</ele>
        <time>2026-08-14T06:57:21.000Z</time>
      </trkpt>
      <trkpt lat="22.800434" lon="108.912363">
        <ele>73.560673</ele>
        <time>2026-08-14T06:57:22.000Z</time>
      </trkpt>
      <trkpt lat="22.800422" lon="108.912408">
        <ele>73.612344</ele>
        <time>2026-08-14T06:57:23.000Z</time>
      </trkpt>
      <trkpt lat="22.800408" lon="108.912453">
        <ele>73.664731</ele>
        <time>2026-08-14T06:57:24.000Z</time>
      </trkpt>
      <trkpt lat="22.800395" lon="108.912497">
        <ele>73.715697</ele>
        <time>2026-08-14T06:57:25.000Z</time>
      </trkpt>
      <trkpt lat="22.800383" lon="108.912540">
        <ele>73.765253</ele>
        <time>2026-08-14T06:57:26.000Z</time>
      </trkpt>
      <trkpt lat="22.800371" lon="108.912585">
        <ele>73.816924</ele>
        <time>2026-08-14T06:57:27.000Z</time>
      </trkpt>
      <trkpt lat="22.800359" lon="108.912627">
        <ele>73.865426</ele>
        <time>2026-08-14T06:57:28.000Z</time>
      </trkpt>
      <trkpt lat="22.800347" lon="108.912671">
        <ele>73.916039</ele>
        <time>2026-08-14T06:57:29.000Z</time>
      </trkpt>
      <trkpt lat="22.800337" lon="108.912715">
        <ele>73.966025</ele>
        <time>2026-08-14T06:57:30.000Z</time>
      </trkpt>
      <trkpt lat="22.800325" lon="108.912759">
        <ele>74.016638</ele>
        <time>2026-08-14T06:57:31.000Z</time>
      </trkpt>
      <trkpt lat="22.800321" lon="108.912801">
        <ele>74.063212</ele>
        <time>2026-08-14T06:57:32.000Z</time>
      </trkpt>
      <trkpt lat="22.800312" lon="108.912843">
        <ele>74.110775</ele>
        <time>2026-08-14T06:57:33.000Z</time>
      </trkpt>
      <trkpt lat="22.800300" lon="108.912883">
        <ele>74.157174</ele>
        <time>2026-08-14T06:57:34.000Z</time>
      </trkpt>
      <trkpt lat="22.800290" lon="108.912925">
        <ele>74.205022</ele>
        <time>2026-08-14T06:57:35.000Z</time>
      </trkpt>
      <trkpt lat="22.800281" lon="108.912968">
        <ele>74.304839</ele>
        <time>2026-08-14T06:57:36.000Z</time>
      </trkpt>
      <trkpt lat="22.800271" lon="108.913007">
        <ele>74.396717</ele>
        <time>2026-08-14T06:57:37.000Z</time>
      </trkpt>
      <trkpt lat="22.800263" lon="108.913046">
        <ele>74.487399</ele>
        <time>2026-08-14T06:57:38.000Z</time>
      </trkpt>
      <trkpt lat="22.800256" lon="108.913084">
        <ele>74.575353</ele>
        <time>2026-08-14T06:57:39.000Z</time>
      </trkpt>
      <trkpt lat="22.800247" lon="108.913122">
        <ele>74.664402</ele>
        <time>2026-08-14T06:57:40.000Z</time>
      </trkpt>
      <trkpt lat="22.800238" lon="108.913162">
        <ele>74.757854</ele>
        <time>2026-08-14T06:57:41.000Z</time>
      </trkpt>
      <trkpt lat="22.800228" lon="108.913200">
        <ele>74.847548</ele>
        <time>2026-08-14T06:57:42.000Z</time>
      </trkpt>
      <trkpt lat="22.800218" lon="108.913241">
        <ele>74.943807</ele>
        <time>2026-08-14T06:57:43.000Z</time>
      </trkpt>
      <trkpt lat="22.800207" lon="108.913281">
        <ele>75.038548</ele>
        <time>2026-08-14T06:57:44.000Z</time>
      </trkpt>
      <trkpt lat="22.800197" lon="108.913319">
        <ele>75.128241</ele>
        <time>2026-08-14T06:57:45.000Z</time>
      </trkpt>
      <trkpt lat="22.800187" lon="108.913353">
        <ele>75.209243</ele>
        <time>2026-08-14T06:57:46.000Z</time>
      </trkpt>
      <trkpt lat="22.800176" lon="108.913391">
        <ele>75.299644</ele>
        <time>2026-08-14T06:57:47.000Z</time>
      </trkpt>
      <trkpt lat="22.800164" lon="108.913426">
        <ele>75.384399</ele>
        <time>2026-08-14T06:57:48.000Z</time>
      </trkpt>
      <trkpt lat="22.800152" lon="108.913462">
        <ele>75.471285</ele>
        <time>2026-08-14T06:57:49.000Z</time>
      </trkpt>
      <trkpt lat="22.800140" lon="108.913498">
        <ele>75.558172</ele>
        <time>2026-08-14T06:57:50.000Z</time>
      </trkpt>
      <trkpt lat="22.800128" lon="108.913535">
        <ele>75.647196</ele>
        <time>2026-08-14T06:57:51.000Z</time>
      </trkpt>
      <trkpt lat="22.800119" lon="108.913573">
        <ele>75.736245</ele>
        <time>2026-08-14T06:57:52.000Z</time>
      </trkpt>
      <trkpt lat="22.800108" lon="108.913610">
        <ele>75.824482</ele>
        <time>2026-08-14T06:57:53.000Z</time>
      </trkpt>
      <trkpt lat="22.800096" lon="108.913646">
        <ele>75.911369</ele>
        <time>2026-08-14T06:57:54.000Z</time>
      </trkpt>
      <trkpt lat="22.800085" lon="108.913683">
        <ele>75.999606</ele>
        <time>2026-08-14T06:57:55.000Z</time>
      </trkpt>
      <trkpt lat="22.800074" lon="108.913720">
        <ele>76.087844</ele>
        <time>2026-08-14T06:57:56.000Z</time>
      </trkpt>
      <trkpt lat="22.800064" lon="108.913757">
        <ele>76.175357</ele>
        <time>2026-08-14T06:57:57.000Z</time>
      </trkpt>
      <trkpt lat="22.800053" lon="108.913793">
        <ele>76.261437</ele>
        <time>2026-08-14T06:57:58.000Z</time>
      </trkpt>
      <trkpt lat="22.800043" lon="108.913830">
        <ele>76.348951</ele>
        <time>2026-08-14T06:57:59.000Z</time>
      </trkpt>
      <trkpt lat="22.800034" lon="108.913867">
        <ele>76.435804</ele>
        <time>2026-08-14T06:58:00.000Z</time>
      </trkpt>
      <trkpt lat="22.800025" lon="108.913904">
        <ele>76.522656</ele>
        <time>2026-08-14T06:58:01.000Z</time>
      </trkpt>
      <trkpt lat="22.800013" lon="108.913940">
        <ele>76.609543</ele>
        <time>2026-08-14T06:58:02.000Z</time>
      </trkpt>
      <trkpt lat="22.800003" lon="108.913978">
        <ele>76.699236</ele>
        <time>2026-08-14T06:58:03.000Z</time>
      </trkpt>
      <trkpt lat="22.799992" lon="108.914015">
        <ele>76.787474</ele>
        <time>2026-08-14T06:58:04.000Z</time>
      </trkpt>
      <trkpt lat="22.799980" lon="108.914053">
        <ele>76.878642</ele>
        <time>2026-08-14T06:58:05.000Z</time>
      </trkpt>
      <trkpt lat="22.799969" lon="108.914091">
        <ele>76.969043</ele>
        <time>2026-08-14T06:58:06.000Z</time>
      </trkpt>
      <trkpt lat="22.799958" lon="108.914131">
        <ele>77.063784</ele>
        <time>2026-08-14T06:58:07.000Z</time>
      </trkpt>
      <trkpt lat="22.799948" lon="108.914171">
        <ele>77.157851</ele>
        <time>2026-08-14T06:58:08.000Z</time>
      </trkpt>
      <trkpt lat="22.799936" lon="108.914209">
        <ele>77.249019</ele>
        <time>2026-08-14T06:58:09.000Z</time>
      </trkpt>
      <trkpt lat="22.799923" lon="108.914246">
        <ele>77.338891</ele>
        <time>2026-08-14T06:58:10.000Z</time>
      </trkpt>
      <trkpt lat="22.799909" lon="108.914283">
        <ele>77.429668</ele>
        <time>2026-08-14T06:58:11.000Z</time>
      </trkpt>
      <trkpt lat="22.799896" lon="108.914322">
        <ele>77.523795</ele>
        <time>2026-08-14T06:58:12.000Z</time>
      </trkpt>
      <trkpt lat="22.799882" lon="108.914359">
        <ele>77.614572</ele>
        <time>2026-08-14T06:58:13.000Z</time>
      </trkpt>
      <trkpt lat="22.799866" lon="108.914397">
        <ele>77.709391</ele>
        <time>2026-08-14T06:58:14.000Z</time>
      </trkpt>
      <trkpt lat="22.799850" lon="108.914435">
        <ele>77.804210</ele>
        <time>2026-08-14T06:58:15.000Z</time>
      </trkpt>
      <trkpt lat="22.799834" lon="108.914472">
        <ele>77.896969</ele>
        <time>2026-08-14T06:58:16.000Z</time>
      </trkpt>
      <trkpt lat="22.799817" lon="108.914507">
        <ele>77.986760</ele>
        <time>2026-08-14T06:58:17.000Z</time>
      </trkpt>
      <trkpt lat="22.799799" lon="108.914542">
        <ele>78.077725</ele>
        <time>2026-08-14T06:58:18.000Z</time>
      </trkpt>
      <trkpt lat="22.799779" lon="108.914577">
        <ele>78.171188</ele>
        <time>2026-08-14T06:58:19.000Z</time>
      </trkpt>
      <trkpt lat="22.799759" lon="108.914612">
        <ele>78.264651</ele>
        <time>2026-08-14T06:58:20.000Z</time>
      </trkpt>
      <trkpt lat="22.799736" lon="108.914645">
        <ele>78.358548</ele>
        <time>2026-08-14T06:58:21.000Z</time>
      </trkpt>
      <trkpt lat="22.799714" lon="108.914677">
        <ele>78.449152</ele>
        <time>2026-08-14T06:58:22.000Z</time>
      </trkpt>
      <trkpt lat="22.799690" lon="108.914709">
        <ele>78.542783</ele>
        <time>2026-08-14T06:58:23.000Z</time>
      </trkpt>
      <trkpt lat="22.799666" lon="108.914738">
        <ele>78.631236</ele>
        <time>2026-08-14T06:58:24.000Z</time>
      </trkpt>
      <trkpt lat="22.799641" lon="108.914767">
        <ele>78.730544</ele>
        <time>2026-08-14T06:58:25.000Z</time>
      </trkpt>
      <trkpt lat="22.799615" lon="108.914794">
        <ele>78.828451</ele>
        <time>2026-08-14T06:58:26.000Z</time>
      </trkpt>
      <trkpt lat="22.799588" lon="108.914821">
        <ele>78.928339</ele>
        <time>2026-08-14T06:58:27.000Z</time>
      </trkpt>
      <trkpt lat="22.799562" lon="108.914847">
        <ele>79.024529</ele>
        <time>2026-08-14T06:58:28.000Z</time>
      </trkpt>
      <trkpt lat="22.799533" lon="108.914872">
        <ele>79.125288</ele>
        <time>2026-08-14T06:58:29.000Z</time>
      </trkpt>
      <trkpt lat="22.799502" lon="108.914894">
        <ele>79.226054</ele>
        <time>2026-08-14T06:58:30.000Z</time>
      </trkpt>
      <trkpt lat="22.799469" lon="108.914917">
        <ele>79.332749</ele>
        <time>2026-08-14T06:58:31.000Z</time>
      </trkpt>
      <trkpt lat="22.799436" lon="108.914939">
        <ele>79.438110</ele>
        <time>2026-08-14T06:58:32.000Z</time>
      </trkpt>
      <trkpt lat="22.799403" lon="108.914960">
        <ele>79.542180</ele>
        <time>2026-08-14T06:58:33.000Z</time>
      </trkpt>
      <trkpt lat="22.799366" lon="108.914981">
        <ele>79.655768</ele>
        <time>2026-08-14T06:58:34.000Z</time>
      </trkpt>
      <trkpt lat="22.799331" lon="108.914999">
        <ele>79.761129</ele>
        <time>2026-08-14T06:58:35.000Z</time>
      </trkpt>
      <trkpt lat="22.799293" lon="108.915016">
        <ele>79.872939</ele>
        <time>2026-08-14T06:58:36.000Z</time>
      </trkpt>
      <trkpt lat="22.799255" lon="108.915030">
        <ele>79.982102</ele>
        <time>2026-08-14T06:58:37.000Z</time>
      </trkpt>
      <trkpt lat="22.799214" lon="108.915045">
        <ele>80.099798</ele>
        <time>2026-08-14T06:58:38.000Z</time>
      </trkpt>
      <trkpt lat="22.799173" lon="108.915057">
        <ele>80.215311</ele>
        <time>2026-08-14T06:58:39.000Z</time>
      </trkpt>
      <trkpt lat="22.799131" lon="108.915069">
        <ele>80.333452</ele>
        <time>2026-08-14T06:58:40.000Z</time>
      </trkpt>
      <trkpt lat="22.799088" lon="108.915079">
        <ele>80.453074</ele>
        <time>2026-08-14T06:58:41.000Z</time>
      </trkpt>
      <trkpt lat="22.799047" lon="108.915088">
        <ele>80.566859</ele>
        <time>2026-08-14T06:58:42.000Z</time>
      </trkpt>
      <trkpt lat="22.799008" lon="108.915097">
        <ele>80.675318</ele>
        <time>2026-08-14T06:58:43.000Z</time>
      </trkpt>
      <trkpt lat="22.798970" lon="108.915104">
        <ele>80.780162</ele>
        <time>2026-08-14T06:58:44.000Z</time>
      </trkpt>
      <trkpt lat="22.798930" lon="108.915111">
        <ele>80.890373</ele>
        <time>2026-08-14T06:58:45.000Z</time>
      </trkpt>
      <trkpt lat="22.798891" lon="108.915117">
        <ele>80.997519</ele>
        <time>2026-08-14T06:58:46.000Z</time>
      </trkpt>
      <trkpt lat="22.798851" lon="108.915124">
        <ele>81.107730</ele>
        <time>2026-08-14T06:58:47.000Z</time>
      </trkpt>
      <trkpt lat="22.798812" lon="108.915129">
        <ele>81.214552</ele>
        <time>2026-08-14T06:58:48.000Z</time>
      </trkpt>
      <trkpt lat="22.798773" lon="108.915134">
        <ele>81.321375</ele>
        <time>2026-08-14T06:58:49.000Z</time>
      </trkpt>
      <trkpt lat="22.798733" lon="108.915138">
        <ele>81.430641</ele>
        <time>2026-08-14T06:58:50.000Z</time>
      </trkpt>
      <trkpt lat="22.798691" lon="108.915143">
        <ele>81.545571</ele>
        <time>2026-08-14T06:58:51.000Z</time>
      </trkpt>
      <trkpt lat="22.798648" lon="108.915147">
        <ele>81.662965</ele>
        <time>2026-08-14T06:58:52.000Z</time>
      </trkpt>
      <trkpt lat="22.798605" lon="108.915150">
        <ele>81.780172</ele>
        <time>2026-08-14T06:58:53.000Z</time>
      </trkpt>
      <trkpt lat="22.798562" lon="108.915155">
        <ele>81.897806</ele>
        <time>2026-08-14T06:58:54.000Z</time>
      </trkpt>
      <trkpt lat="22.798519" lon="108.915158">
        <ele>82.015013</ele>
        <time>2026-08-14T06:58:55.000Z</time>
      </trkpt>
      <trkpt lat="22.798478" lon="108.915159">
        <ele>82.126565</ele>
        <time>2026-08-14T06:58:56.000Z</time>
      </trkpt>
      <trkpt lat="22.798436" lon="108.915161">
        <ele>82.240920</ele>
        <time>2026-08-14T06:58:57.000Z</time>
      </trkpt>
      <trkpt lat="22.798396" lon="108.915165">
        <ele>82.350186</ele>
        <time>2026-08-14T06:58:58.000Z</time>
      </trkpt>
      <trkpt lat="22.798356" lon="108.915169">
        <ele>82.459451</ele>
        <time>2026-08-14T06:58:59.000Z</time>
      </trkpt>
      <trkpt lat="22.798316" lon="108.915172">
        <ele>82.568515</ele>
        <time>2026-08-14T06:59:00.000Z</time>
      </trkpt>
      <trkpt lat="22.798275" lon="108.915175">
        <ele>82.680293</ele>
        <time>2026-08-14T06:59:01.000Z</time>
      </trkpt>
      <trkpt lat="22.798234" lon="108.915179">
        <ele>82.792268</ele>
        <time>2026-08-14T06:59:02.000Z</time>
      </trkpt>
      <trkpt lat="22.798193" lon="108.915182">
        <ele>82.904046</ele>
        <time>2026-08-14T06:59:03.000Z</time>
      </trkpt>
      <trkpt lat="22.798151" lon="108.915186">
        <ele>83.018730</ele>
        <time>2026-08-14T06:59:04.000Z</time>
      </trkpt>
      <trkpt lat="22.798109" lon="108.915191">
        <ele>83.133660</ele>
        <time>2026-08-14T06:59:05.000Z</time>
      </trkpt>
      <trkpt lat="22.798069" lon="108.915195">
        <ele>83.242926</ele>
        <time>2026-08-14T06:59:06.000Z</time>
      </trkpt>
      <trkpt lat="22.798029" lon="108.915200">
        <ele>83.352450</ele>
        <time>2026-08-14T06:59:07.000Z</time>
      </trkpt>
      <trkpt lat="22.797989" lon="108.915204">
        <ele>83.461716</ele>
        <time>2026-08-14T06:59:08.000Z</time>
      </trkpt>
      <trkpt lat="22.797949" lon="108.915207">
        <ele>83.555082</ele>
        <time>2026-08-14T06:59:09.000Z</time>
      </trkpt>
      <trkpt lat="22.797908" lon="108.915210">
        <ele>83.627533</ele>
        <time>2026-08-14T06:59:10.000Z</time>
      </trkpt>
      <trkpt lat="22.797867" lon="108.915213">
        <ele>83.699983</ele>
        <time>2026-08-14T06:59:11.000Z</time>
      </trkpt>
      <trkpt lat="22.797827" lon="108.915215">
        <ele>83.770581</ele>
        <time>2026-08-14T06:59:12.000Z</time>
      </trkpt>
      <trkpt lat="22.797789" lon="108.915218">
        <ele>83.837756</ele>
        <time>2026-08-14T06:59:13.000Z</time>
      </trkpt>
      <trkpt lat="22.797750" lon="108.915222">
        <ele>83.906823</ele>
        <time>2026-08-14T06:59:14.000Z</time>
      </trkpt>
      <trkpt lat="22.797710" lon="108.915225">
        <ele>83.977514</ele>
        <time>2026-08-14T06:59:15.000Z</time>
      </trkpt>
      <trkpt lat="22.797671" lon="108.915229">
        <ele>84.046581</ele>
        <time>2026-08-14T06:59:16.000Z</time>
      </trkpt>
      <trkpt lat="22.797632" lon="108.915231">
        <ele>84.115418</ele>
        <time>2026-08-14T06:59:17.000Z</time>
      </trkpt>
      <trkpt lat="22.797594" lon="108.915233">
        <ele>84.182494</ele>
        <time>2026-08-14T06:59:18.000Z</time>
      </trkpt>
      <trkpt lat="22.797555" lon="108.915236">
        <ele>84.251427</ele>
        <time>2026-08-14T06:59:19.000Z</time>
      </trkpt>
      <trkpt lat="22.797516" lon="108.915239">
        <ele>84.320360</ele>
        <time>2026-08-14T06:59:20.000Z</time>
      </trkpt>
      <trkpt lat="22.797477" lon="108.915243">
        <ele>84.389427</ele>
        <time>2026-08-14T06:59:21.000Z</time>
      </trkpt>
      <trkpt lat="22.797438" lon="108.915246">
        <ele>84.458360</ele>
        <time>2026-08-14T06:59:22.000Z</time>
      </trkpt>
      <trkpt lat="22.797398" lon="108.915248">
        <ele>84.528958</ele>
        <time>2026-08-14T06:59:23.000Z</time>
      </trkpt>
      <trkpt lat="22.797360" lon="108.915250">
        <ele>84.596034</ele>
        <time>2026-08-14T06:59:24.000Z</time>
      </trkpt>
      <trkpt lat="22.797322" lon="108.915253">
        <ele>84.663208</ele>
        <time>2026-08-14T06:59:25.000Z</time>
      </trkpt>
      <trkpt lat="22.797282" lon="108.915257">
        <ele>84.734030</ele>
        <time>2026-08-14T06:59:26.000Z</time>
      </trkpt>
      <trkpt lat="22.797242" lon="108.915262">
        <ele>84.805020</ele>
        <time>2026-08-14T06:59:27.000Z</time>
      </trkpt>
      <trkpt lat="22.797203" lon="108.915264">
        <ele>84.873857</ele>
        <time>2026-08-14T06:59:28.000Z</time>
      </trkpt>
      <trkpt lat="22.797163" lon="108.915267">
        <ele>84.944549</ele>
        <time>2026-08-14T06:59:29.000Z</time>
      </trkpt>
      <trkpt lat="22.797122" lon="108.915270">
        <ele>85.017000</ele>
        <time>2026-08-14T06:59:30.000Z</time>
      </trkpt>
      <trkpt lat="22.797081" lon="108.915273">
        <ele>85.089450</ele>
        <time>2026-08-14T06:59:31.000Z</time>
      </trkpt>
      <trkpt lat="22.797042" lon="108.915278">
        <ele>85.158689</ele>
        <time>2026-08-14T06:59:32.000Z</time>
      </trkpt>
      <trkpt lat="22.797003" lon="108.915282">
        <ele>85.227756</ele>
        <time>2026-08-14T06:59:33.000Z</time>
      </trkpt>
      <trkpt lat="22.796964" lon="108.915286">
        <ele>85.296823</ele>
        <time>2026-08-14T06:59:34.000Z</time>
      </trkpt>
      <trkpt lat="22.796924" lon="108.915291">
        <ele>85.367813</ele>
        <time>2026-08-14T06:59:35.000Z</time>
      </trkpt>
      <trkpt lat="22.796885" lon="108.915295">
        <ele>85.436880</ele>
        <time>2026-08-14T06:59:36.000Z</time>
      </trkpt>
      <trkpt lat="22.796846" lon="108.915299">
        <ele>85.505947</ele>
        <time>2026-08-14T06:59:37.000Z</time>
      </trkpt>
      <trkpt lat="22.796806" lon="108.915302">
        <ele>85.576638</ele>
        <time>2026-08-14T06:59:38.000Z</time>
      </trkpt>
      <trkpt lat="22.796768" lon="108.915304">
        <ele>85.643714</ele>
        <time>2026-08-14T06:59:39.000Z</time>
      </trkpt>
      <trkpt lat="22.796730" lon="108.915308">
        <ele>85.711026</ele>
        <time>2026-08-14T06:59:40.000Z</time>
      </trkpt>
      <trkpt lat="22.796692" lon="108.915311">
        <ele>85.778200</ele>
        <time>2026-08-14T06:59:41.000Z</time>
      </trkpt>
      <trkpt lat="22.796656" lon="108.915313">
        <ele>85.841754</ele>
        <time>2026-08-14T06:59:42.000Z</time>
      </trkpt>
      <trkpt lat="22.796620" lon="108.915315">
        <ele>85.905309</ele>
        <time>2026-08-14T06:59:43.000Z</time>
      </trkpt>
      <trkpt lat="22.796583" lon="108.915318">
        <ele>85.970725</ele>
        <time>2026-08-14T06:59:44.000Z</time>
      </trkpt>
      <trkpt lat="22.796545" lon="108.915321">
        <ele>86.037899</ele>
        <time>2026-08-14T06:59:45.000Z</time>
      </trkpt>
      <trkpt lat="22.796507" lon="108.915323">
        <ele>86.104975</ele>
        <time>2026-08-14T06:59:46.000Z</time>
      </trkpt>
      <trkpt lat="22.796468" lon="108.915325">
        <ele>86.173812</ele>
        <time>2026-08-14T06:59:47.000Z</time>
      </trkpt>
      <trkpt lat="22.796430" lon="108.915329">
        <ele>86.241124</ele>
        <time>2026-08-14T06:59:48.000Z</time>
      </trkpt>
      <trkpt lat="22.796391" lon="108.915332">
        <ele>86.310057</ele>
        <time>2026-08-14T06:59:49.000Z</time>
      </trkpt>
      <trkpt lat="22.796351" lon="108.915335">
        <ele>86.380748</ele>
        <time>2026-08-14T06:59:50.000Z</time>
      </trkpt>
      <trkpt lat="22.796311" lon="108.915338">
        <ele>86.451440</ele>
        <time>2026-08-14T06:59:51.000Z</time>
      </trkpt>
      <trkpt lat="22.796271" lon="108.915341">
        <ele>86.522132</ele>
        <time>2026-08-14T06:59:52.000Z</time>
      </trkpt>
      <trkpt lat="22.796231" lon="108.915344">
        <ele>86.592823</ele>
        <time>2026-08-14T06:59:53.000Z</time>
      </trkpt>
      <trkpt lat="22.796190" lon="108.915348">
        <ele>86.665401</ele>
        <time>2026-08-14T06:59:54.000Z</time>
      </trkpt>
      <trkpt lat="22.796149" lon="108.915350">
        <ele>86.673742</ele>
        <time>2026-08-14T06:59:55.000Z</time>
      </trkpt>
      <trkpt lat="22.796109" lon="108.915352">
        <ele>86.632589</ele>
        <time>2026-08-14T06:59:56.000Z</time>
      </trkpt>
      <trkpt lat="22.796067" lon="108.915356">
        <ele>86.589258</ele>
        <time>2026-08-14T06:59:57.000Z</time>
      </trkpt>
      <trkpt lat="22.796024" lon="108.915361">
        <ele>86.544812</ele>
        <time>2026-08-14T06:59:58.000Z</time>
      </trkpt>
      <trkpt lat="22.795981" lon="108.915366">
        <ele>86.500366</ele>
        <time>2026-08-14T06:59:59.000Z</time>
      </trkpt>
      <trkpt lat="22.795937" lon="108.915370">
        <ele>86.454986</ele>
        <time>2026-08-14T07:00:00.000Z</time>
      </trkpt>
      <trkpt lat="22.795892" lon="108.915373">
        <ele>86.408651</ele>
        <time>2026-08-14T07:00:01.000Z</time>
      </trkpt>
      <trkpt lat="22.795846" lon="108.915377">
        <ele>86.361223</ele>
        <time>2026-08-14T07:00:02.000Z</time>
      </trkpt>
      <trkpt lat="22.795800" lon="108.915381">
        <ele>86.313795</ele>
        <time>2026-08-14T07:00:03.000Z</time>
      </trkpt>
      <trkpt lat="22.795754" lon="108.915385">
        <ele>86.266368</ele>
        <time>2026-08-14T07:00:04.000Z</time>
      </trkpt>
      <trkpt lat="22.795706" lon="108.915389">
        <ele>86.216891</ele>
        <time>2026-08-14T07:00:05.000Z</time>
      </trkpt>
      <trkpt lat="22.795658" lon="108.915393">
        <ele>86.167414</ele>
        <time>2026-08-14T07:00:06.000Z</time>
      </trkpt>
      <trkpt lat="22.795609" lon="108.915397">
        <ele>86.116912</ele>
        <time>2026-08-14T07:00:07.000Z</time>
      </trkpt>
      <trkpt lat="22.795559" lon="108.915402">
        <ele>86.065307</ele>
        <time>2026-08-14T07:00:08.000Z</time>
      </trkpt>
      <trkpt lat="22.795510" lon="108.915405">
        <ele>86.014868</ele>
        <time>2026-08-14T07:00:09.000Z</time>
      </trkpt>
      <trkpt lat="22.795459" lon="108.915408">
        <ele>85.962376</ele>
        <time>2026-08-14T07:00:10.000Z</time>
      </trkpt>
      <trkpt lat="22.795408" lon="108.915412">
        <ele>85.909824</ele>
        <time>2026-08-14T07:00:11.000Z</time>
      </trkpt>
      <trkpt lat="22.795357" lon="108.915416">
        <ele>85.857273</ele>
        <time>2026-08-14T07:00:12.000Z</time>
      </trkpt>
      <trkpt lat="22.795306" lon="108.915420">
        <ele>85.804721</ele>
        <time>2026-08-14T07:00:13.000Z</time>
      </trkpt>
      <trkpt lat="22.795254" lon="108.915423">
        <ele>85.751203</ele>
        <time>2026-08-14T07:00:14.000Z</time>
      </trkpt>
      <trkpt lat="22.795202" lon="108.915429">
        <ele>85.697459</ele>
        <time>2026-08-14T07:00:15.000Z</time>
      </trkpt>
      <trkpt lat="22.795147" lon="108.915434">
        <ele>85.640735</ele>
        <time>2026-08-14T07:00:16.000Z</time>
      </trkpt>
      <trkpt lat="22.795093" lon="108.915439">
        <ele>85.585035</ele>
        <time>2026-08-14T07:00:17.000Z</time>
      </trkpt>
      <trkpt lat="22.795038" lon="108.915443">
        <ele>85.528382</ele>
        <time>2026-08-14T07:00:18.000Z</time>
      </trkpt>
      <trkpt lat="22.794981" lon="108.915446">
        <ele>85.469732</ele>
        <time>2026-08-14T07:00:19.000Z</time>
      </trkpt>
      <trkpt lat="22.794924" lon="108.915448">
        <ele>85.411120</ele>
        <time>2026-08-14T07:00:20.000Z</time>
      </trkpt>
      <trkpt lat="22.794866" lon="108.915450">
        <ele>85.351481</ele>
        <time>2026-08-14T07:00:21.000Z</time>
      </trkpt>
      <trkpt lat="22.794806" lon="108.915453">
        <ele>85.289751</ele>
        <time>2026-08-14T07:00:22.000Z</time>
      </trkpt>
      <trkpt lat="22.794745" lon="108.915458">
        <ele>85.226880</ele>
        <time>2026-08-14T07:00:23.000Z</time>
      </trkpt>
      <trkpt lat="22.794684" lon="108.915462">
        <ele>85.164074</ele>
        <time>2026-08-14T07:00:24.000Z</time>
      </trkpt>
      <trkpt lat="22.794623" lon="108.915464">
        <ele>85.101353</ele>
        <time>2026-08-14T07:00:25.000Z</time>
      </trkpt>
      <trkpt lat="22.794562" lon="108.915467">
        <ele>85.038596</ele>
        <time>2026-08-14T07:00:26.000Z</time>
      </trkpt>
      <trkpt lat="22.794501" lon="108.915473">
        <ele>84.975647</ele>
        <time>2026-08-14T07:00:27.000Z</time>
      </trkpt>
      <trkpt lat="22.794439" lon="108.915478">
        <ele>84.911751</ele>
        <time>2026-08-14T07:00:28.000Z</time>
      </trkpt>
      <trkpt lat="22.794378" lon="108.915482">
        <ele>84.848945</ele>
        <time>2026-08-14T07:00:29.000Z</time>
      </trkpt>
      <trkpt lat="22.794315" lon="108.915487">
        <ele>84.701997</ele>
        <time>2026-08-14T07:00:30.000Z</time>
      </trkpt>
      <trkpt lat="22.794251" lon="108.915491">
        <ele>84.552655</ele>
        <time>2026-08-14T07:00:31.000Z</time>
      </trkpt>
      <trkpt lat="22.794187" lon="108.915495">
        <ele>84.403312</ele>
        <time>2026-08-14T07:00:32.000Z</time>
      </trkpt>
      <trkpt lat="22.794122" lon="108.915499">
        <ele>84.251644</ele>
        <time>2026-08-14T07:00:33.000Z</time>
      </trkpt>
      <trkpt lat="22.794056" lon="108.915502">
        <ele>84.097754</ele>
        <time>2026-08-14T07:00:34.000Z</time>
      </trkpt>
      <trkpt lat="22.793991" lon="108.915508">
        <ele>83.945782</ele>
        <time>2026-08-14T07:00:35.000Z</time>
      </trkpt>
      <trkpt lat="22.793926" lon="108.915516">
        <ele>83.793386</ele>
        <time>2026-08-14T07:00:36.000Z</time>
      </trkpt>
      <trkpt lat="22.793861" lon="108.915524">
        <ele>83.640989</ele>
        <time>2026-08-14T07:00:37.000Z</time>
      </trkpt>
      <trkpt lat="22.793795" lon="108.915535">
        <ele>83.485430</ele>
        <time>2026-08-14T07:00:38.000Z</time>
      </trkpt>
      <trkpt lat="22.793731" lon="108.915548">
        <ele>83.333744</ele>
        <time>2026-08-14T07:00:39.000Z</time>
      </trkpt>
      <trkpt lat="22.793669" lon="108.915563">
        <ele>83.185758</ele>
        <time>2026-08-14T07:00:40.000Z</time>
      </trkpt>
      <trkpt lat="22.793606" lon="108.915581">
        <ele>83.033987</ele>
        <time>2026-08-14T07:00:41.000Z</time>
      </trkpt>
      <trkpt lat="22.793541" lon="108.915602">
        <ele>82.875988</ele>
        <time>2026-08-14T07:00:42.000Z</time>
      </trkpt>
      <trkpt lat="22.793476" lon="108.915628">
        <ele>82.714595</ele>
        <time>2026-08-14T07:00:43.000Z</time>
      </trkpt>
      <trkpt lat="22.793414" lon="108.915657">
        <ele>82.557303</ele>
        <time>2026-08-14T07:00:44.000Z</time>
      </trkpt>
      <trkpt lat="22.793353" lon="108.915690">
        <ele>82.398503</ele>
        <time>2026-08-14T07:00:45.000Z</time>
      </trkpt>
      <trkpt lat="22.793292" lon="108.915727">
        <ele>82.235688</ele>
        <time>2026-08-14T07:00:46.000Z</time>
      </trkpt>
      <trkpt lat="22.793232" lon="108.915767">
        <ele>82.071622</ele>
        <time>2026-08-14T07:00:47.000Z</time>
      </trkpt>
      <trkpt lat="22.793174" lon="108.915813">
        <ele>81.904239</ele>
        <time>2026-08-14T07:00:48.000Z</time>
      </trkpt>
      <trkpt lat="22.793119" lon="108.915867">
        <ele>81.731418</ele>
        <time>2026-08-14T07:00:49.000Z</time>
      </trkpt>
      <trkpt lat="22.793069" lon="108.915922">
        <ele>81.565524</ele>
        <time>2026-08-14T07:00:50.000Z</time>
      </trkpt>
      <trkpt lat="22.793022" lon="108.915980">
        <ele>81.399677</ele>
        <time>2026-08-14T07:00:51.000Z</time>
      </trkpt>
      <trkpt lat="22.792978" lon="108.916039">
        <ele>81.236694</ele>
        <time>2026-08-14T07:00:52.000Z</time>
      </trkpt>
      <trkpt lat="22.792934" lon="108.916108">
        <ele>81.056507</ele>
        <time>2026-08-14T07:00:53.000Z</time>
      </trkpt>
      <trkpt lat="22.792897" lon="108.916175">
        <ele>80.888770</ele>
        <time>2026-08-14T07:00:54.000Z</time>
      </trkpt>
      <trkpt lat="22.792864" lon="108.916244">
        <ele>80.721825</ele>
        <time>2026-08-14T07:00:55.000Z</time>
      </trkpt>
      <trkpt lat="22.792833" lon="108.916315">
        <ele>80.566811</ele>
        <time>2026-08-14T07:00:56.000Z</time>
      </trkpt>
      <trkpt lat="22.792803" lon="108.916387">
        <ele>80.419161</ele>
        <time>2026-08-14T07:00:57.000Z</time>
      </trkpt>
      <trkpt lat="22.792775" lon="108.916461">
        <ele>80.269684</ele>
        <time>2026-08-14T07:00:58.000Z</time>
      </trkpt>
      <trkpt lat="22.792747" lon="108.916540">
        <ele>80.111522</ele>
        <time>2026-08-14T07:00:59.000Z</time>
      </trkpt>
      <trkpt lat="22.792720" lon="108.916618">
        <ele>79.955828</ele>
        <time>2026-08-14T07:01:00.000Z</time>
      </trkpt>
      <trkpt lat="22.792697" lon="108.916697">
        <ele>79.801014</ele>
        <time>2026-08-14T07:01:01.000Z</time>
      </trkpt>
      <trkpt lat="22.792672" lon="108.916776">
        <ele>79.644932</ele>
        <time>2026-08-14T07:01:02.000Z</time>
      </trkpt>
      <trkpt lat="22.792647" lon="108.916855">
        <ele>79.488850</ele>
        <time>2026-08-14T07:01:03.000Z</time>
      </trkpt>
      <trkpt lat="22.792622" lon="108.916937">
        <ele>79.327455</ele>
        <time>2026-08-14T07:01:04.000Z</time>
      </trkpt>
      <trkpt lat="22.792596" lon="108.917019">
        <ele>79.165412</ele>
        <time>2026-08-14T07:01:05.000Z</time>
      </trkpt>
      <trkpt lat="22.792570" lon="108.917100">
        <ele>79.005135</ele>
        <time>2026-08-14T07:01:06.000Z</time>
      </trkpt>
      <trkpt lat="22.792544" lon="108.917181">
        <ele>78.844858</ele>
        <time>2026-08-14T07:01:07.000Z</time>
      </trkpt>
      <trkpt lat="22.792521" lon="108.917261">
        <ele>78.688261</ele>
        <time>2026-08-14T07:01:08.000Z</time>
      </trkpt>
      <trkpt lat="22.792496" lon="108.917341">
        <ele>78.530410</ele>
        <time>2026-08-14T07:01:09.000Z</time>
      </trkpt>
      <trkpt lat="22.792471" lon="108.917420">
        <ele>78.374327</ele>
        <time>2026-08-14T07:01:10.000Z</time>
      </trkpt>
      <trkpt lat="22.792450" lon="108.917497">
        <ele>78.224273</ele>
        <time>2026-08-14T07:01:11.000Z</time>
      </trkpt>
      <trkpt lat="22.792428" lon="108.917572">
        <ele>78.077197</ele>
        <time>2026-08-14T07:01:12.000Z</time>
      </trkpt>
      <trkpt lat="22.792404" lon="108.917649">
        <ele>77.925306</ele>
        <time>2026-08-14T07:01:13.000Z</time>
      </trkpt>
      <trkpt lat="22.792381" lon="108.917723">
        <ele>77.779374</ele>
        <time>2026-08-14T07:01:14.000Z</time>
      </trkpt>
      <trkpt lat="22.792355" lon="108.917799">
        <ele>77.627890</ele>
        <time>2026-08-14T07:01:15.000Z</time>
      </trkpt>
      <trkpt lat="22.792332" lon="108.917871">
        <ele>77.485495</ele>
        <time>2026-08-14T07:01:16.000Z</time>
      </trkpt>
      <trkpt lat="22.792308" lon="108.917941">
        <ele>77.345933</ele>
        <time>2026-08-14T07:01:17.000Z</time>
      </trkpt>
      <trkpt lat="22.792286" lon="108.918011">
        <ele>77.207731</ele>
        <time>2026-08-14T07:01:18.000Z</time>
      </trkpt>
      <trkpt lat="22.792263" lon="108.918081">
        <ele>77.068862</ele>
        <time>2026-08-14T07:01:19.000Z</time>
      </trkpt>
      <trkpt lat="22.792239" lon="108.918149">
        <ele>76.991916</ele>
        <time>2026-08-14T07:01:20.000Z</time>
      </trkpt>
      <trkpt lat="22.792218" lon="108.918217">
        <ele>76.956908</ele>
        <time>2026-08-14T07:01:21.000Z</time>
      </trkpt>
      <trkpt lat="22.792197" lon="108.918284">
        <ele>76.922362</ele>
        <time>2026-08-14T07:01:22.000Z</time>
      </trkpt>
      <trkpt lat="22.792176" lon="108.918350">
        <ele>76.888278</ele>
        <time>2026-08-14T07:01:23.000Z</time>
      </trkpt>
      <trkpt lat="22.792156" lon="108.918415">
        <ele>76.854827</ele>
        <time>2026-08-14T07:01:24.000Z</time>
      </trkpt>
      <trkpt lat="22.792135" lon="108.918479">
        <ele>76.821665</ele>
        <time>2026-08-14T07:01:25.000Z</time>
      </trkpt>
      <trkpt lat="22.792114" lon="108.918543">
        <ele>76.788502</ele>
        <time>2026-08-14T07:01:26.000Z</time>
      </trkpt>
      <trkpt lat="22.792093" lon="108.918605">
        <ele>76.756258</ele>
        <time>2026-08-14T07:01:27.000Z</time>
      </trkpt>
      <trkpt lat="22.792070" lon="108.918668">
        <ele>76.723180</ele>
        <time>2026-08-14T07:01:28.000Z</time>
      </trkpt>
      <trkpt lat="22.792048" lon="108.918730">
        <ele>76.690750</ele>
        <time>2026-08-14T07:01:29.000Z</time>
      </trkpt>
      <trkpt lat="22.792026" lon="108.918791">
        <ele>76.658774</ele>
        <time>2026-08-14T07:01:30.000Z</time>
      </trkpt>
      <trkpt lat="22.792003" lon="108.918851">
        <ele>76.627053</ele>
        <time>2026-08-14T07:01:31.000Z</time>
      </trkpt>
      <trkpt lat="22.791981" lon="108.918911">
        <ele>76.595532</ele>
        <time>2026-08-14T07:01:32.000Z</time>
      </trkpt>
      <trkpt lat="22.791956" lon="108.918973">
        <ele>76.562497</ele>
        <time>2026-08-14T07:01:33.000Z</time>
      </trkpt>
      <trkpt lat="22.791933" lon="108.919033">
        <ele>76.530776</ele>
        <time>2026-08-14T07:01:34.000Z</time>
      </trkpt>
      <trkpt lat="22.791909" lon="108.919091">
        <ele>76.499741</ele>
        <time>2026-08-14T07:01:35.000Z</time>
      </trkpt>
      <trkpt lat="22.791884" lon="108.919148">
        <ele>76.468927</ele>
        <time>2026-08-14T07:01:36.000Z</time>
      </trkpt>
      <trkpt lat="22.791857" lon="108.919204">
        <ele>76.438077</ele>
        <time>2026-08-14T07:01:37.000Z</time>
      </trkpt>
      <trkpt lat="22.791828" lon="108.919260">
        <ele>76.406723</ele>
        <time>2026-08-14T07:01:38.000Z</time>
      </trkpt>
      <trkpt lat="22.791799" lon="108.919317">
        <ele>76.374941</ele>
        <time>2026-08-14T07:01:39.000Z</time>
      </trkpt>
      <trkpt lat="22.791771" lon="108.919372">
        <ele>76.344271</ele>
        <time>2026-08-14T07:01:40.000Z</time>
      </trkpt>
      <trkpt lat="22.791742" lon="108.919428">
        <ele>76.312916</ele>
        <time>2026-08-14T07:01:41.000Z</time>
      </trkpt>
      <trkpt lat="22.791711" lon="108.919484">
        <ele>76.281029</ele>
        <time>2026-08-14T07:01:42.000Z</time>
      </trkpt>
      <trkpt lat="22.791682" lon="108.919538">
        <ele>76.250521</ele>
        <time>2026-08-14T07:01:43.000Z</time>
      </trkpt>
      <trkpt lat="22.791653" lon="108.919593">
        <ele>76.219591</ele>
        <time>2026-08-14T07:01:44.000Z</time>
      </trkpt>
      <trkpt lat="22.791624" lon="108.919646">
        <ele>76.189505</ele>
        <time>2026-08-14T07:01:45.000Z</time>
      </trkpt>
      <trkpt lat="22.791594" lon="108.919697">
        <ele>76.159972</ele>
        <time>2026-08-14T07:01:46.000Z</time>
      </trkpt>
      <trkpt lat="22.791564" lon="108.919747">
        <ele>76.130850</ele>
        <time>2026-08-14T07:01:47.000Z</time>
      </trkpt>
      <trkpt lat="22.791535" lon="108.919797">
        <ele>76.102013</ele>
        <time>2026-08-14T07:01:48.000Z</time>
      </trkpt>
      <trkpt lat="22.791511" lon="108.919834">
        <ele>76.079928</ele>
        <time>2026-08-14T07:01:49.000Z</time>
      </trkpt>
      <trkpt lat="22.791480" lon="108.919877">
        <ele>76.071224</ele>
        <time>2026-08-14T07:01:50.000Z</time>
      </trkpt>
      <trkpt lat="22.791446" lon="108.919925">
        <ele>76.115936</ele>
        <time>2026-08-14T07:01:51.000Z</time>
      </trkpt>
      <trkpt lat="22.791416" lon="108.919973">
        <ele>76.158772</ele>
        <time>2026-08-14T07:01:52.000Z</time>
      </trkpt>
      <trkpt lat="22.791383" lon="108.920025">
        <ele>76.205403</ele>
        <time>2026-08-14T07:01:53.000Z</time>
      </trkpt>
      <trkpt lat="22.791352" lon="108.920076">
        <ele>76.250526</ele>
        <time>2026-08-14T07:01:54.000Z</time>
      </trkpt>
      <trkpt lat="22.791321" lon="108.920124">
        <ele>76.293817</ele>
        <time>2026-08-14T07:01:55.000Z</time>
      </trkpt>
      <trkpt lat="22.791290" lon="108.920174">
        <ele>76.338325</ele>
        <time>2026-08-14T07:01:56.000Z</time>
      </trkpt>
      <trkpt lat="22.791249" lon="108.920216">
        <ele>76.383509</ele>
        <time>2026-08-14T07:01:57.000Z</time>
      </trkpt>
      <trkpt lat="22.791218" lon="108.920263">
        <ele>76.426197</ele>
        <time>2026-08-14T07:01:58.000Z</time>
      </trkpt>
      <trkpt lat="22.791186" lon="108.920309">
        <ele>76.468763</ele>
        <time>2026-08-14T07:01:59.000Z</time>
      </trkpt>
      <trkpt lat="22.791154" lon="108.920359">
        <ele>76.513724</ele>
        <time>2026-08-14T07:02:00.000Z</time>
      </trkpt>
      <trkpt lat="22.791124" lon="108.920398">
        <ele>76.551243</ele>
        <time>2026-08-14T07:02:01.000Z</time>
      </trkpt>
      <trkpt lat="22.791100" lon="108.920431">
        <ele>76.582290</ele>
        <time>2026-08-14T07:02:02.000Z</time>
      </trkpt>
      <trkpt lat="22.791079" lon="108.920455">
        <ele>76.606732</ele>
        <time>2026-08-14T07:02:03.000Z</time>
      </trkpt>
      <trkpt lat="22.791065" lon="108.920474">
        <ele>76.624698</ele>
        <time>2026-08-14T07:02:04.000Z</time>
      </trkpt>
      <trkpt lat="22.791051" lon="108.920489">
        <ele>76.640465</ele>
        <time>2026-08-14T07:02:05.000Z</time>
      </trkpt>
      <trkpt lat="22.791043" lon="108.920497">
        <ele>76.649183</ele>
        <time>2026-08-14T07:02:06.000Z</time>
      </trkpt>
      <trkpt lat="22.791043" lon="108.920502">
        <ele>76.652877</ele>
        <time>2026-08-14T07:02:07.000Z</time>
      </trkpt>
      <trkpt lat="22.791038" lon="108.920503">
        <ele>76.656950</ele>
        <time>2026-08-14T07:02:08.000Z</time>
      </trkpt>
      <trkpt lat="22.791042" lon="108.920673">
        <ele>76.782565</ele>
        <time>2026-08-14T07:09:09.000Z</time>
      </trkpt>
      <trkpt lat="22.791027" lon="108.920694">
        <ele>76.802188</ele>
        <time>2026-08-14T07:09:10.000Z</time>
      </trkpt>
      <trkpt lat="22.791009" lon="108.920715">
        <ele>76.823368</ele>
        <time>2026-08-14T07:09:11.000Z</time>
      </trkpt>
      <trkpt lat="22.790993" lon="108.920737">
        <ele>76.844067</ele>
        <time>2026-08-14T07:09:12.000Z</time>
      </trkpt>
      <trkpt lat="22.790979" lon="108.920759">
        <ele>76.863813</ele>
        <time>2026-08-14T07:09:13.000Z</time>
      </trkpt>
      <trkpt lat="22.790963" lon="108.920781">
        <ele>76.884511</ele>
        <time>2026-08-14T07:09:14.000Z</time>
      </trkpt>
      <trkpt lat="22.790947" lon="108.920805">
        <ele>76.906389</ele>
        <time>2026-08-14T07:09:15.000Z</time>
      </trkpt>
      <trkpt lat="22.790926" lon="108.920827">
        <ele>76.929781</ele>
        <time>2026-08-14T07:09:16.000Z</time>
      </trkpt>
      <trkpt lat="22.790907" lon="108.920852">
        <ele>76.953713</ele>
        <time>2026-08-14T07:09:17.000Z</time>
      </trkpt>
      <trkpt lat="22.790887" lon="108.920879">
        <ele>76.979298</ele>
        <time>2026-08-14T07:09:18.000Z</time>
      </trkpt>
      <trkpt lat="22.790868" lon="108.920907">
        <ele>77.004979</ele>
        <time>2026-08-14T07:09:19.000Z</time>
      </trkpt>
      <trkpt lat="22.790849" lon="108.920937">
        <ele>77.031864</ele>
        <time>2026-08-14T07:09:20.000Z</time>
      </trkpt>
      <trkpt lat="22.790830" lon="108.920969">
        <ele>77.059979</ele>
        <time>2026-08-14T07:09:21.000Z</time>
      </trkpt>
      <trkpt lat="22.790809" lon="108.920999">
        <ele>77.087803</ele>
        <time>2026-08-14T07:09:22.000Z</time>
      </trkpt>
      <trkpt lat="22.790788" lon="108.921032">
        <ele>77.117423</ele>
        <time>2026-08-14T07:09:23.000Z</time>
      </trkpt>
      <trkpt lat="22.790767" lon="108.921066">
        <ele>77.147653</ele>
        <time>2026-08-14T07:09:24.000Z</time>
      </trkpt>
      <trkpt lat="22.790745" lon="108.921100">
        <ele>77.178336</ele>
        <time>2026-08-14T07:09:25.000Z</time>
      </trkpt>
      <trkpt lat="22.790724" lon="108.921134">
        <ele>77.208566</ele>
        <time>2026-08-14T07:09:26.000Z</time>
      </trkpt>
      <trkpt lat="22.790701" lon="108.921167">
        <ele>77.239124</ele>
        <time>2026-08-14T07:09:27.000Z</time>
      </trkpt>
      <trkpt lat="22.790678" lon="108.921198">
        <ele>77.268517</ele>
        <time>2026-08-14T07:09:28.000Z</time>
      </trkpt>
      <trkpt lat="22.790655" lon="108.921231">
        <ele>77.299075</ele>
        <time>2026-08-14T07:09:29.000Z</time>
      </trkpt>
      <trkpt lat="22.790629" lon="108.921263">
        <ele>77.330582</ele>
        <time>2026-08-14T07:09:30.000Z</time>
      </trkpt>
      <trkpt lat="22.790606" lon="108.921297">
        <ele>77.361732</ele>
        <time>2026-08-14T07:09:31.000Z</time>
      </trkpt>
      <trkpt lat="22.790583" lon="108.921332">
        <ele>77.393481</ele>
        <time>2026-08-14T07:09:32.000Z</time>
      </trkpt>
      <trkpt lat="22.790560" lon="108.921367">
        <ele>77.425230</ele>
        <time>2026-08-14T07:09:33.000Z</time>
      </trkpt>
      <trkpt lat="22.790538" lon="108.921402">
        <ele>77.456521</ele>
        <time>2026-08-14T07:09:34.000Z</time>
      </trkpt>
      <trkpt lat="22.790518" lon="108.921437">
        <ele>77.486938</ele>
        <time>2026-08-14T07:09:35.000Z</time>
      </trkpt>
      <trkpt lat="22.790496" lon="108.921474">
        <ele>77.507043</ele>
        <time>2026-08-14T07:09:36.000Z</time>
      </trkpt>
      <trkpt lat="22.790473" lon="108.921510">
        <ele>77.516983</ele>
        <time>2026-08-14T07:09:37.000Z</time>
      </trkpt>
      <trkpt lat="22.790453" lon="108.921546">
        <ele>77.526522</ele>
        <time>2026-08-14T07:09:38.000Z</time>
      </trkpt>
      <trkpt lat="22.790433" lon="108.921584">
        <ele>77.536452</ele>
        <time>2026-08-14T07:09:39.000Z</time>
      </trkpt>
      <trkpt lat="22.790411" lon="108.921621">
        <ele>77.546444</ele>
        <time>2026-08-14T07:09:40.000Z</time>
      </trkpt>
      <trkpt lat="22.790388" lon="108.921657">
        <ele>77.556383</ele>
        <time>2026-08-14T07:09:41.000Z</time>
      </trkpt>
      <trkpt lat="22.790369" lon="108.921695">
        <ele>77.566194</ele>
        <time>2026-08-14T07:09:42.000Z</time>
      </trkpt>
      <trkpt lat="22.790348" lon="108.921734">
        <ele>77.576444</ele>
        <time>2026-08-14T07:09:43.000Z</time>
      </trkpt>
      <trkpt lat="22.790328" lon="108.921773">
        <ele>77.586571</ele>
        <time>2026-08-14T07:09:44.000Z</time>
      </trkpt>
      <trkpt lat="22.790310" lon="108.921814">
        <ele>77.596877</ele>
        <time>2026-08-14T07:09:45.000Z</time>
      </trkpt>
      <trkpt lat="22.790292" lon="108.921854">
        <ele>77.606978</ele>
        <time>2026-08-14T07:09:46.000Z</time>
      </trkpt>
      <trkpt lat="22.790275" lon="108.921894">
        <ele>77.616974</ele>
        <time>2026-08-14T07:09:47.000Z</time>
      </trkpt>
      <trkpt lat="22.790257" lon="108.921936">
        <ele>77.627485</ele>
        <time>2026-08-14T07:09:48.000Z</time>
      </trkpt>
      <trkpt lat="22.790240" lon="108.921976">
        <ele>77.637481</ele>
        <time>2026-08-14T07:09:49.000Z</time>
      </trkpt>
      <trkpt lat="22.790224" lon="108.922017">
        <ele>77.647585</ele>
        <time>2026-08-14T07:09:50.000Z</time>
      </trkpt>
      <trkpt lat="22.790210" lon="108.922060">
        <ele>77.657934</ele>
        <time>2026-08-14T07:09:51.000Z</time>
      </trkpt>
      <trkpt lat="22.790198" lon="108.922103">
        <ele>77.668130</ele>
        <time>2026-08-14T07:09:52.000Z</time>
      </trkpt>
      <trkpt lat="22.790187" lon="108.922149">
        <ele>77.678914</ele>
        <time>2026-08-14T07:09:53.000Z</time>
      </trkpt>
      <trkpt lat="22.790177" lon="108.922197">
        <ele>77.690082</ele>
        <time>2026-08-14T07:09:54.000Z</time>
      </trkpt>
      <trkpt lat="22.790167" lon="108.922244">
        <ele>77.701029</ele>
        <time>2026-08-14T07:09:55.000Z</time>
      </trkpt>
      <trkpt lat="22.790157" lon="108.922293">
        <ele>77.712418</ele>
        <time>2026-08-14T07:09:56.000Z</time>
      </trkpt>
      <trkpt lat="22.790147" lon="108.922340">
        <ele>77.723365</ele>
        <time>2026-08-14T07:09:57.000Z</time>
      </trkpt>
      <trkpt lat="22.790139" lon="108.922387">
        <ele>77.734211</ele>
        <time>2026-08-14T07:09:58.000Z</time>
      </trkpt>
      <trkpt lat="22.790135" lon="108.922437">
        <ele>77.745601</ele>
        <time>2026-08-14T07:09:59.000Z</time>
      </trkpt>
      <trkpt lat="22.790132" lon="108.922486">
        <ele>77.756746</ele>
        <time>2026-08-14T07:10:00.000Z</time>
      </trkpt>
      <trkpt lat="22.790130" lon="108.922537">
        <ele>77.768330</ele>
        <time>2026-08-14T07:10:01.000Z</time>
      </trkpt>
      <trkpt lat="22.790127" lon="108.922587">
        <ele>77.779701</ele>
        <time>2026-08-14T07:10:02.000Z</time>
      </trkpt>
      <trkpt lat="22.790126" lon="108.922639">
        <ele>77.791505</ele>
        <time>2026-08-14T07:10:03.000Z</time>
      </trkpt>
      <trkpt lat="22.790126" lon="108.922691">
        <ele>77.803306</ele>
        <time>2026-08-14T07:10:04.000Z</time>
      </trkpt>
      <trkpt lat="22.790127" lon="108.922743">
        <ele>77.815109</ele>
        <time>2026-08-14T07:10:05.000Z</time>
      </trkpt>
      <trkpt lat="22.790130" lon="108.922795">
        <ele>77.826933</ele>
        <time>2026-08-14T07:10:06.000Z</time>
      </trkpt>
      <trkpt lat="22.790133" lon="108.922848">
        <ele>77.838984</ele>
        <time>2026-08-14T07:10:07.000Z</time>
      </trkpt>
      <trkpt lat="22.790137" lon="108.922901">
        <ele>77.851052</ele>
        <time>2026-08-14T07:10:08.000Z</time>
      </trkpt>
      <trkpt lat="22.790141" lon="108.922955">
        <ele>77.863346</ele>
        <time>2026-08-14T07:10:09.000Z</time>
      </trkpt>
      <trkpt lat="22.790147" lon="108.923007">
        <ele>77.875239</ele>
        <time>2026-08-14T07:10:10.000Z</time>
      </trkpt>
      <trkpt lat="22.790153" lon="108.923060">
        <ele>77.887357</ele>
        <time>2026-08-14T07:10:11.000Z</time>
      </trkpt>
      <trkpt lat="22.790158" lon="108.923114">
        <ele>77.899674</ele>
        <time>2026-08-14T07:10:12.000Z</time>
      </trkpt>
      <trkpt lat="22.790164" lon="108.923168">
        <ele>77.912017</ele>
        <time>2026-08-14T07:10:13.000Z</time>
      </trkpt>
      <trkpt lat="22.790169" lon="108.923221">
        <ele>77.924108</ele>
        <time>2026-08-14T07:10:14.000Z</time>
      </trkpt>
      <trkpt lat="22.790174" lon="108.923273">
        <ele>77.935973</ele>
        <time>2026-08-14T07:10:15.000Z</time>
      </trkpt>
      <trkpt lat="22.790180" lon="108.923326">
        <ele>77.955736</ele>
        <time>2026-08-14T07:10:16.000Z</time>
      </trkpt>
      <trkpt lat="22.790185" lon="108.923379">
        <ele>77.992137</ele>
        <time>2026-08-14T07:10:17.000Z</time>
      </trkpt>
      <trkpt lat="22.790192" lon="108.923434">
        <ele>78.030072</ele>
        <time>2026-08-14T07:10:18.000Z</time>
      </trkpt>
      <trkpt lat="22.790198" lon="108.923488">
        <ele>78.067234</ele>
        <time>2026-08-14T07:10:19.000Z</time>
      </trkpt>
      <trkpt lat="22.790203" lon="108.923541">
        <ele>78.103635</ele>
        <time>2026-08-14T07:10:20.000Z</time>
      </trkpt>
      <trkpt lat="22.790211" lon="108.923595">
        <ele>78.141004</ele>
        <time>2026-08-14T07:10:21.000Z</time>
      </trkpt>
      <trkpt lat="22.790218" lon="108.923647">
        <ele>78.176909</ele>
        <time>2026-08-14T07:10:22.000Z</time>
      </trkpt>
      <trkpt lat="22.790222" lon="108.923700">
        <ele>78.213242</ele>
        <time>2026-08-14T07:10:23.000Z</time>
      </trkpt>
      <trkpt lat="22.790223" lon="108.923755">
        <ele>78.250828</ele>
        <time>2026-08-14T07:10:24.000Z</time>
      </trkpt>
      <trkpt lat="22.790226" lon="108.923806">
        <ele>78.285744</ele>
        <time>2026-08-14T07:10:25.000Z</time>
      </trkpt>
      <trkpt lat="22.790230" lon="108.923857">
        <ele>78.320715</ele>
        <time>2026-08-14T07:10:26.000Z</time>
      </trkpt>
      <trkpt lat="22.790231" lon="108.923906">
        <ele>78.354202</ele>
        <time>2026-08-14T07:10:27.000Z</time>
      </trkpt>
      <trkpt lat="22.790232" lon="108.923957">
        <ele>78.389056</ele>
        <time>2026-08-14T07:10:28.000Z</time>
      </trkpt>
      <trkpt lat="22.790234" lon="108.924006">
        <ele>78.422567</ele>
        <time>2026-08-14T07:10:29.000Z</time>
      </trkpt>
      <trkpt lat="22.790234" lon="108.924054">
        <ele>78.455363</ele>
        <time>2026-08-14T07:10:30.000Z</time>
      </trkpt>
      <trkpt lat="22.790230" lon="108.924102">
        <ele>78.488293</ele>
        <time>2026-08-14T07:10:31.000Z</time>
      </trkpt>
      <trkpt lat="22.790227" lon="108.924150">
        <ele>78.521164</ele>
        <time>2026-08-14T07:10:32.000Z</time>
      </trkpt>
      <trkpt lat="22.790226" lon="108.924197">
        <ele>78.553284</ele>
        <time>2026-08-14T07:10:33.000Z</time>
      </trkpt>
      <trkpt lat="22.790222" lon="108.924244">
        <ele>78.585533</ele>
        <time>2026-08-14T07:10:34.000Z</time>
      </trkpt>
      <trkpt lat="22.790221" lon="108.924290">
        <ele>78.616971</ele>
        <time>2026-08-14T07:10:35.000Z</time>
      </trkpt>
      <trkpt lat="22.790222" lon="108.924337">
        <ele>78.649092</ele>
        <time>2026-08-14T07:10:36.000Z</time>
      </trkpt>
      <trkpt lat="22.790219" lon="108.924385">
        <ele>78.681963</ele>
        <time>2026-08-14T07:10:37.000Z</time>
      </trkpt>
      <trkpt lat="22.790216" lon="108.924432">
        <ele>78.714153</ele>
        <time>2026-08-14T07:10:38.000Z</time>
      </trkpt>
      <trkpt lat="22.790213" lon="108.924482">
        <ele>78.748387</ele>
        <time>2026-08-14T07:10:39.000Z</time>
      </trkpt>
      <trkpt lat="22.790209" lon="108.924531">
        <ele>78.781997</ele>
        <time>2026-08-14T07:10:40.000Z</time>
      </trkpt>
      <trkpt lat="22.790207" lon="108.924579">
        <ele>78.814826</ele>
        <time>2026-08-14T07:10:41.000Z</time>
      </trkpt>
      <trkpt lat="22.790206" lon="108.924626">
        <ele>78.846947</ele>
        <time>2026-08-14T07:10:42.000Z</time>
      </trkpt>
      <trkpt lat="22.790201" lon="108.924675">
        <ele>78.880631</ele>
        <time>2026-08-14T07:10:43.000Z</time>
      </trkpt>
      <trkpt lat="22.790195" lon="108.924721">
        <ele>78.912373</ele>
        <time>2026-08-14T07:10:44.000Z</time>
      </trkpt>
      <trkpt lat="22.790188" lon="108.924769">
        <ele>78.945576</ele>
        <time>2026-08-14T07:10:45.000Z</time>
      </trkpt>
      <trkpt lat="22.790182" lon="108.924815">
        <ele>78.977318</ele>
        <time>2026-08-14T07:10:46.000Z</time>
      </trkpt>
      <trkpt lat="22.790174" lon="108.924861">
        <ele>79.009302</ele>
        <time>2026-08-14T07:10:47.000Z</time>
      </trkpt>
      <trkpt lat="22.790167" lon="108.924907">
        <ele>79.041156</ele>
        <time>2026-08-14T07:10:48.000Z</time>
      </trkpt>
      <trkpt lat="22.790160" lon="108.924952">
        <ele>79.072337</ele>
        <time>2026-08-14T07:10:49.000Z</time>
      </trkpt>
      <trkpt lat="22.790152" lon="108.924999">
        <ele>79.104992</ele>
        <time>2026-08-14T07:10:50.000Z</time>
      </trkpt>
      <trkpt lat="22.790145" lon="108.925046">
        <ele>79.137521</ele>
        <time>2026-08-14T07:10:51.000Z</time>
      </trkpt>
      <trkpt lat="22.790138" lon="108.925091">
        <ele>79.168701</ele>
        <time>2026-08-14T07:10:52.000Z</time>
      </trkpt>
      <trkpt lat="22.790133" lon="108.925136">
        <ele>79.199670</ele>
        <time>2026-08-14T07:10:53.000Z</time>
      </trkpt>
      <trkpt lat="22.790125" lon="108.925182">
        <ele>79.231653</ele>
        <time>2026-08-14T07:10:54.000Z</time>
      </trkpt>
      <trkpt lat="22.790116" lon="108.925227">
        <ele>79.263115</ele>
        <time>2026-08-14T07:10:55.000Z</time>
      </trkpt>
      <trkpt lat="22.790110" lon="108.925272">
        <ele>79.307220</ele>
        <time>2026-08-14T07:10:56.000Z</time>
      </trkpt>
      <trkpt lat="22.790102" lon="108.925316">
        <ele>79.361485</ele>
        <time>2026-08-14T07:10:57.000Z</time>
      </trkpt>
      <trkpt lat="22.790092" lon="108.925361">
        <ele>79.417494</ele>
        <time>2026-08-14T07:10:58.000Z</time>
      </trkpt>
      <trkpt lat="22.790082" lon="108.925404">
        <ele>79.471153</ele>
        <time>2026-08-14T07:10:59.000Z</time>
      </trkpt>
      <trkpt lat="22.790073" lon="108.925446">
        <ele>79.523327</ele>
        <time>2026-08-14T07:11:00.000Z</time>
      </trkpt>
      <trkpt lat="22.790064" lon="108.925487">
        <ele>79.574323</ele>
        <time>2026-08-14T07:11:01.000Z</time>
      </trkpt>
      <trkpt lat="22.790055" lon="108.925528">
        <ele>79.625319</ele>
        <time>2026-08-14T07:11:02.000Z</time>
      </trkpt>
      <trkpt lat="22.790046" lon="108.925569">
        <ele>79.676316</ele>
        <time>2026-08-14T07:11:03.000Z</time>
      </trkpt>
      <trkpt lat="22.790039" lon="108.925610">
        <ele>79.726769</ele>
        <time>2026-08-14T07:11:04.000Z</time>
      </trkpt>
      <trkpt lat="22.790031" lon="108.925651">
        <ele>79.777477</ele>
        <time>2026-08-14T07:11:05.000Z</time>
      </trkpt>
      <trkpt lat="22.790022" lon="108.925692">
        <ele>79.828473</ele>
        <time>2026-08-14T07:11:06.000Z</time>
      </trkpt>
      <trkpt lat="22.790013" lon="108.925734">
        <ele>79.880647</ele>
        <time>2026-08-14T07:11:07.000Z</time>
      </trkpt>
      <trkpt lat="22.790004" lon="108.925776">
        <ele>79.932822</ele>
        <time>2026-08-14T07:11:08.000Z</time>
      </trkpt>
      <trkpt lat="22.789995" lon="108.925817">
        <ele>79.983818</ele>
        <time>2026-08-14T07:11:09.000Z</time>
      </trkpt>
      <trkpt lat="22.789982" lon="108.925861">
        <ele>80.039724</ele>
        <time>2026-08-14T07:11:10.000Z</time>
      </trkpt>
      <trkpt lat="22.789971" lon="108.925900">
        <ele>80.089073</ele>
        <time>2026-08-14T07:11:11.000Z</time>
      </trkpt>
      <trkpt lat="22.789962" lon="108.925939">
        <ele>80.137718</ele>
        <time>2026-08-14T07:11:12.000Z</time>
      </trkpt>
      <trkpt lat="22.789953" lon="108.925978">
        <ele>80.186364</ele>
        <time>2026-08-14T07:11:13.000Z</time>
      </trkpt>
      <trkpt lat="22.789944" lon="108.926017">
        <ele>80.235009</ele>
        <time>2026-08-14T07:11:14.000Z</time>
      </trkpt>
      <trkpt lat="22.789934" lon="108.926057">
        <ele>80.285156</ele>
        <time>2026-08-14T07:11:15.000Z</time>
      </trkpt>
      <trkpt lat="22.789925" lon="108.926099">
        <ele>80.337331</ele>
        <time>2026-08-14T07:11:16.000Z</time>
      </trkpt>
      <trkpt lat="22.789915" lon="108.926141">
        <ele>80.389817</ele>
        <time>2026-08-14T07:11:17.000Z</time>
      </trkpt>
      <trkpt lat="22.789905" lon="108.926184">
        <ele>80.443477</ele>
        <time>2026-08-14T07:11:18.000Z</time>
      </trkpt>
      <trkpt lat="22.789893" lon="108.926227">
        <ele>80.497838</ele>
        <time>2026-08-14T07:11:19.000Z</time>
      </trkpt>
      <trkpt lat="22.789881" lon="108.926267">
        <ele>80.548735</ele>
        <time>2026-08-14T07:11:20.000Z</time>
      </trkpt>
      <trkpt lat="22.789869" lon="108.926310">
        <ele>80.603096</ele>
        <time>2026-08-14T07:11:21.000Z</time>
      </trkpt>
      <trkpt lat="22.789861" lon="108.926353">
        <ele>80.656174</ele>
        <time>2026-08-14T07:11:22.000Z</time>
      </trkpt>
      <trkpt lat="22.789851" lon="108.926395">
        <ele>80.708661</ele>
        <time>2026-08-14T07:11:23.000Z</time>
      </trkpt>
      <trkpt lat="22.789841" lon="108.926437">
        <ele>80.761148</ele>
        <time>2026-08-14T07:11:24.000Z</time>
      </trkpt>
      <trkpt lat="22.789828" lon="108.926478">
        <ele>80.813609</ele>
        <time>2026-08-14T07:11:25.000Z</time>
      </trkpt>
      <trkpt lat="22.789814" lon="108.926520">
        <ele>80.867649</ele>
        <time>2026-08-14T07:11:26.000Z</time>
      </trkpt>
      <trkpt lat="22.789803" lon="108.926562">
        <ele>80.920479</ele>
        <time>2026-08-14T07:11:27.000Z</time>
      </trkpt>
      <trkpt lat="22.789791" lon="108.926605">
        <ele>80.974840</ele>
        <time>2026-08-14T07:11:28.000Z</time>
      </trkpt>
      <trkpt lat="22.789778" lon="108.926648">
        <ele>81.029596</ele>
        <time>2026-08-14T07:11:29.000Z</time>
      </trkpt>
      <trkpt lat="22.789766" lon="108.926691">
        <ele>81.083957</ele>
        <time>2026-08-14T07:11:30.000Z</time>
      </trkpt>
      <trkpt lat="22.789754" lon="108.926737">
        <ele>81.141801</ele>
        <time>2026-08-14T07:11:31.000Z</time>
      </trkpt>
      <trkpt lat="22.789743" lon="108.926784">
        <ele>81.200475</ele>
        <time>2026-08-14T07:11:32.000Z</time>
      </trkpt>
      <trkpt lat="22.789729" lon="108.926830">
        <ele>81.259089</ele>
        <time>2026-08-14T07:11:33.000Z</time>
      </trkpt>
      <trkpt lat="22.789716" lon="108.926874">
        <ele>81.314995</ele>
        <time>2026-08-14T07:11:34.000Z</time>
      </trkpt>
      <trkpt lat="22.789701" lon="108.926917">
        <ele>81.370625</ele>
        <time>2026-08-14T07:11:35.000Z</time>
      </trkpt>
      <trkpt lat="22.789686" lon="108.926961">
        <ele>81.427388</ele>
        <time>2026-08-14T07:11:36.000Z</time>
      </trkpt>
      <trkpt lat="22.789671" lon="108.927006">
        <ele>81.485287</ele>
        <time>2026-08-14T07:11:37.000Z</time>
      </trkpt>
      <trkpt lat="22.789656" lon="108.927048">
        <ele>81.539786</ele>
        <time>2026-08-14T07:11:38.000Z</time>
      </trkpt>
      <trkpt lat="22.789641" lon="108.927092">
        <ele>81.596549</ele>
        <time>2026-08-14T07:11:39.000Z</time>
      </trkpt>
      <trkpt lat="22.789627" lon="108.927137">
        <ele>81.635973</ele>
        <time>2026-08-14T07:11:40.000Z</time>
      </trkpt>
      <trkpt lat="22.789612" lon="108.927183">
        <ele>81.628943</ele>
        <time>2026-08-14T07:11:41.000Z</time>
      </trkpt>
      <trkpt lat="22.789597" lon="108.927229">
        <ele>81.621912</ele>
        <time>2026-08-14T07:11:42.000Z</time>
      </trkpt>
      <trkpt lat="22.789583" lon="108.927275">
        <ele>81.614933</ele>
        <time>2026-08-14T07:11:43.000Z</time>
      </trkpt>
      <trkpt lat="22.789568" lon="108.927321">
        <ele>81.607902</ele>
        <time>2026-08-14T07:11:44.000Z</time>
      </trkpt>
      <trkpt lat="22.789553" lon="108.927366">
        <ele>81.601008</ele>
        <time>2026-08-14T07:11:45.000Z</time>
      </trkpt>
      <trkpt lat="22.789537" lon="108.927411">
        <ele>81.594059</ele>
        <time>2026-08-14T07:11:46.000Z</time>
      </trkpt>
      <trkpt lat="22.789520" lon="108.927456">
        <ele>81.587052</ele>
        <time>2026-08-14T07:11:47.000Z</time>
      </trkpt>
      <trkpt lat="22.789502" lon="108.927500">
        <ele>81.580116</ele>
        <time>2026-08-14T07:11:48.000Z</time>
      </trkpt>
      <trkpt lat="22.789484" lon="108.927545">
        <ele>81.573048</ele>
        <time>2026-08-14T07:11:49.000Z</time>
      </trkpt>
      <trkpt lat="22.789468" lon="108.927591">
        <ele>81.565964</ele>
        <time>2026-08-14T07:11:50.000Z</time>
      </trkpt>
      <trkpt lat="22.789451" lon="108.927636">
        <ele>81.558957</ele>
        <time>2026-08-14T07:11:51.000Z</time>
      </trkpt>
      <trkpt lat="22.789431" lon="108.927681">
        <ele>81.551759</ele>
        <time>2026-08-14T07:11:52.000Z</time>
      </trkpt>
      <trkpt lat="22.789412" lon="108.927726">
        <ele>81.544628</ele>
        <time>2026-08-14T07:11:53.000Z</time>
      </trkpt>
      <trkpt lat="22.789394" lon="108.927774">
        <ele>81.537161</ele>
        <time>2026-08-14T07:11:54.000Z</time>
      </trkpt>
      <trkpt lat="22.789376" lon="108.927821">
        <ele>81.529828</ele>
        <time>2026-08-14T07:11:55.000Z</time>
      </trkpt>
      <trkpt lat="22.789356" lon="108.927867">
        <ele>81.522500</ele>
        <time>2026-08-14T07:11:56.000Z</time>
      </trkpt>
      <trkpt lat="22.789338" lon="108.927915">
        <ele>81.515034</ele>
        <time>2026-08-14T07:11:57.000Z</time>
      </trkpt>
      <trkpt lat="22.789319" lon="108.927963">
        <ele>81.507507</ele>
        <time>2026-08-14T07:11:58.000Z</time>
      </trkpt>
      <trkpt lat="22.789299" lon="108.928010">
        <ele>81.500049</ele>
        <time>2026-08-14T07:11:59.000Z</time>
      </trkpt>
      <trkpt lat="22.789278" lon="108.928057">
        <ele>81.492523</ele>
        <time>2026-08-14T07:12:00.000Z</time>
      </trkpt>
      <trkpt lat="22.789259" lon="108.928106">
        <ele>81.484864</ele>
        <time>2026-08-14T07:12:01.000Z</time>
      </trkpt>
      <trkpt lat="22.789239" lon="108.928155">
        <ele>81.477143</ele>
        <time>2026-08-14T07:12:02.000Z</time>
      </trkpt>
      <trkpt lat="22.789219" lon="108.928202">
        <ele>81.469684</ele>
        <time>2026-08-14T07:12:03.000Z</time>
      </trkpt>
      <trkpt lat="22.789198" lon="108.928249">
        <ele>81.462159</ele>
        <time>2026-08-14T07:12:04.000Z</time>
      </trkpt>
      <trkpt lat="22.789176" lon="108.928296">
        <ele>81.454564</ele>
        <time>2026-08-14T07:12:05.000Z</time>
      </trkpt>
      <trkpt lat="22.789155" lon="108.928343">
        <ele>81.447039</ele>
        <time>2026-08-14T07:12:06.000Z</time>
      </trkpt>
      <trkpt lat="22.789132" lon="108.928392">
        <ele>81.439116</ele>
        <time>2026-08-14T07:12:07.000Z</time>
      </trkpt>
      <trkpt lat="22.789110" lon="108.928441">
        <ele>81.431263</ele>
        <time>2026-08-14T07:12:08.000Z</time>
      </trkpt>
      <trkpt lat="22.789086" lon="108.928491">
        <ele>81.423141</ele>
        <time>2026-08-14T07:12:09.000Z</time>
      </trkpt>
      <trkpt lat="22.789062" lon="108.928541">
        <ele>81.415019</ele>
        <time>2026-08-14T07:12:10.000Z</time>
      </trkpt>
      <trkpt lat="22.789038" lon="108.928591">
        <ele>81.406897</ele>
        <time>2026-08-14T07:12:11.000Z</time>
      </trkpt>
      <trkpt lat="22.789015" lon="108.928640">
        <ele>81.398974</ele>
        <time>2026-08-14T07:12:12.000Z</time>
      </trkpt>
      <trkpt lat="22.788992" lon="108.928690">
        <ele>81.390923</ele>
        <time>2026-08-14T07:12:13.000Z</time>
      </trkpt>
      <trkpt lat="22.788970" lon="108.928741">
        <ele>81.382810</ele>
        <time>2026-08-14T07:12:14.000Z</time>
      </trkpt>
      <trkpt lat="22.788946" lon="108.928790">
        <ele>81.374815</ele>
        <time>2026-08-14T07:12:15.000Z</time>
      </trkpt>
      <trkpt lat="22.788921" lon="108.928840">
        <ele>81.366620</ele>
        <time>2026-08-14T07:12:16.000Z</time>
      </trkpt>
      <trkpt lat="22.788896" lon="108.928889">
        <ele>81.358550</ele>
        <time>2026-08-14T07:12:17.000Z</time>
      </trkpt>
      <trkpt lat="22.788870" lon="108.928940">
        <ele>81.346556</ele>
        <time>2026-08-14T07:12:18.000Z</time>
      </trkpt>
      <trkpt lat="22.788843" lon="108.928991">
        <ele>81.333491</ele>
        <time>2026-08-14T07:12:19.000Z</time>
      </trkpt>
      <trkpt lat="22.788816" lon="108.929042">
        <ele>81.320425</ele>
        <time>2026-08-14T07:12:20.000Z</time>
      </trkpt>
      <trkpt lat="22.788789" lon="108.929093">
        <ele>81.307359</ele>
        <time>2026-08-14T07:12:21.000Z</time>
      </trkpt>
      <trkpt lat="22.788760" lon="108.929144">
        <ele>81.294047</ele>
        <time>2026-08-14T07:12:22.000Z</time>
      </trkpt>
      <trkpt lat="22.788730" lon="108.929195">
        <ele>81.280606</ele>
        <time>2026-08-14T07:12:23.000Z</time>
      </trkpt>
      <trkpt lat="22.788703" lon="108.929248">
        <ele>81.267153</ele>
        <time>2026-08-14T07:12:24.000Z</time>
      </trkpt>
      <trkpt lat="22.788673" lon="108.929297">
        <ele>81.254085</ele>
        <time>2026-08-14T07:12:25.000Z</time>
      </trkpt>
      <trkpt lat="22.788639" lon="108.929348">
        <ele>81.240103</ele>
        <time>2026-08-14T07:12:26.000Z</time>
      </trkpt>
      <trkpt lat="22.788605" lon="108.929397">
        <ele>81.226478</ele>
        <time>2026-08-14T07:12:27.000Z</time>
      </trkpt>
      <trkpt lat="22.788571" lon="108.929445">
        <ele>81.213029</ele>
        <time>2026-08-14T07:12:28.000Z</time>
      </trkpt>
      <trkpt lat="22.788535" lon="108.929492">
        <ele>81.199454</ele>
        <time>2026-08-14T07:12:29.000Z</time>
      </trkpt>
      <trkpt lat="22.788497" lon="108.929539">
        <ele>81.185566</ele>
        <time>2026-08-14T07:12:30.000Z</time>
      </trkpt>
      <trkpt lat="22.788457" lon="108.929586">
        <ele>81.171355</ele>
        <time>2026-08-14T07:12:31.000Z</time>
      </trkpt>
      <trkpt lat="22.788415" lon="108.929633">
        <ele>81.156813</ele>
        <time>2026-08-14T07:12:32.000Z</time>
      </trkpt>
      <trkpt lat="22.788373" lon="108.929678">
        <ele>81.142586</ele>
        <time>2026-08-14T07:12:33.000Z</time>
      </trkpt>
      <trkpt lat="22.788329" lon="108.929722">
        <ele>81.128165</ele>
        <time>2026-08-14T07:12:34.000Z</time>
      </trkpt>
      <trkpt lat="22.788284" lon="108.929766">
        <ele>81.113565</ele>
        <time>2026-08-14T07:12:35.000Z</time>
      </trkpt>
      <trkpt lat="22.788237" lon="108.929809">
        <ele>81.098748</ele>
        <time>2026-08-14T07:12:36.000Z</time>
      </trkpt>
      <trkpt lat="22.788190" lon="108.929851">
        <ele>81.084073</ele>
        <time>2026-08-14T07:12:37.000Z</time>
      </trkpt>
      <trkpt lat="22.788141" lon="108.929892">
        <ele>81.069160</ele>
        <time>2026-08-14T07:12:38.000Z</time>
      </trkpt>
      <trkpt lat="22.788092" lon="108.929932">
        <ele>81.054382</ele>
        <time>2026-08-14T07:12:39.000Z</time>
      </trkpt>
      <trkpt lat="22.788041" lon="108.929970">
        <ele>81.039471</ele>
        <time>2026-08-14T07:12:40.000Z</time>
      </trkpt>
      <trkpt lat="22.787990" lon="108.930007">
        <ele>81.024686</ele>
        <time>2026-08-14T07:12:41.000Z</time>
      </trkpt>
      <trkpt lat="22.787938" lon="108.930042">
        <ele>81.009938</ele>
        <time>2026-08-14T07:12:42.000Z</time>
      </trkpt>
      <trkpt lat="22.787885" lon="108.930075">
        <ele>80.995212</ele>
        <time>2026-08-14T07:12:43.000Z</time>
      </trkpt>
      <trkpt lat="22.787832" lon="108.930107">
        <ele>80.980594</ele>
        <time>2026-08-14T07:12:44.000Z</time>
      </trkpt>
      <trkpt lat="22.787778" lon="108.930139">
        <ele>80.965766</ele>
        <time>2026-08-14T07:12:45.000Z</time>
      </trkpt>
      <trkpt lat="22.787724" lon="108.930171">
        <ele>80.950938</ele>
        <time>2026-08-14T07:12:46.000Z</time>
      </trkpt>
      <trkpt lat="22.787671" lon="108.930202">
        <ele>80.936427</ele>
        <time>2026-08-14T07:12:47.000Z</time>
      </trkpt>
      <trkpt lat="22.787618" lon="108.930232">
        <ele>80.918759</ele>
        <time>2026-08-14T07:12:48.000Z</time>
      </trkpt>
      <trkpt lat="22.787565" lon="108.930265">
        <ele>80.868048</ele>
        <time>2026-08-14T07:12:49.000Z</time>
      </trkpt>
      <trkpt lat="22.787511" lon="108.930296">
        <ele>80.817349</ele>
        <time>2026-08-14T07:12:50.000Z</time>
      </trkpt>
      <trkpt lat="22.787458" lon="108.930328">
        <ele>80.767014</ele>
        <time>2026-08-14T07:12:51.000Z</time>
      </trkpt>
      <trkpt lat="22.787404" lon="108.930360">
        <ele>80.715953</ele>
        <time>2026-08-14T07:12:52.000Z</time>
      </trkpt>
      <trkpt lat="22.787351" lon="108.930393">
        <ele>80.665242</ele>
        <time>2026-08-14T07:12:53.000Z</time>
      </trkpt>
      <trkpt lat="22.787298" lon="108.930424">
        <ele>80.615275</ele>
        <time>2026-08-14T07:12:54.000Z</time>
      </trkpt>
      <trkpt lat="22.787245" lon="108.930457">
        <ele>80.564564</ele>
        <time>2026-08-14T07:12:55.000Z</time>
      </trkpt>
      <trkpt lat="22.787192" lon="108.930490">
        <ele>80.513853</ele>
        <time>2026-08-14T07:12:56.000Z</time>
      </trkpt>
      <trkpt lat="22.787139" lon="108.930526">
        <ele>80.461961</ele>
        <time>2026-08-14T07:12:57.000Z</time>
      </trkpt>
      <trkpt lat="22.787088" lon="108.930560">
        <ele>80.412286</ele>
        <time>2026-08-14T07:12:58.000Z</time>
      </trkpt>
      <trkpt lat="22.787037" lon="108.930595">
        <ele>80.362206</ele>
        <time>2026-08-14T07:12:59.000Z</time>
      </trkpt>
      <trkpt lat="22.786986" lon="108.930631">
        <ele>80.311713</ele>
        <time>2026-08-14T07:13:00.000Z</time>
      </trkpt>
      <trkpt lat="22.786936" lon="108.930666">
        <ele>80.262332</ele>
        <time>2026-08-14T07:13:01.000Z</time>
      </trkpt>
      <trkpt lat="22.786886" lon="108.930702">
        <ele>80.212532</ele>
        <time>2026-08-14T07:13:02.000Z</time>
      </trkpt>
      <trkpt lat="22.786835" lon="108.930736">
        <ele>80.162857</ele>
        <time>2026-08-14T07:13:03.000Z</time>
      </trkpt>
      <trkpt lat="22.786783" lon="108.930771">
        <ele>80.112074</ele>
        <time>2026-08-14T07:13:04.000Z</time>
      </trkpt>
      <trkpt lat="22.786733" lon="108.930809">
        <ele>80.061412</ele>
        <time>2026-08-14T07:13:05.000Z</time>
      </trkpt>
      <trkpt lat="22.786683" lon="108.930848">
        <ele>80.010307</ele>
        <time>2026-08-14T07:13:06.000Z</time>
      </trkpt>
      <trkpt lat="22.786634" lon="108.930888">
        <ele>79.959418</ele>
        <time>2026-08-14T07:13:07.000Z</time>
      </trkpt>
      <trkpt lat="22.786587" lon="108.930927">
        <ele>79.910312</ele>
        <time>2026-08-14T07:13:08.000Z</time>
      </trkpt>
      <trkpt lat="22.786540" lon="108.930968">
        <ele>79.860263</ele>
        <time>2026-08-14T07:13:09.000Z</time>
      </trkpt>
      <trkpt lat="22.786494" lon="108.931009">
        <ele>79.810857</ele>
        <time>2026-08-14T07:13:10.000Z</time>
      </trkpt>
      <trkpt lat="22.786447" lon="108.931049">
        <ele>79.761283</ele>
        <time>2026-08-14T07:13:11.000Z</time>
      </trkpt>
      <trkpt lat="22.786401" lon="108.931090">
        <ele>79.711877</ele>
        <time>2026-08-14T07:13:12.000Z</time>
      </trkpt>
      <trkpt lat="22.786355" lon="108.931133">
        <ele>79.661486</ele>
        <time>2026-08-14T07:13:13.000Z</time>
      </trkpt>
      <trkpt lat="22.786310" lon="108.931176">
        <ele>79.611721</ele>
        <time>2026-08-14T07:13:14.000Z</time>
      </trkpt>
      <trkpt lat="22.786262" lon="108.931221">
        <ele>79.559073</ele>
        <time>2026-08-14T07:13:15.000Z</time>
      </trkpt>
      <trkpt lat="22.786215" lon="108.931268">
        <ele>79.506026</ele>
        <time>2026-08-14T07:13:16.000Z</time>
      </trkpt>
      <trkpt lat="22.786168" lon="108.931317">
        <ele>79.451930</ele>
        <time>2026-08-14T07:13:17.000Z</time>
      </trkpt>
      <trkpt lat="22.786120" lon="108.931366">
        <ele>79.399952</ele>
        <time>2026-08-14T07:13:18.000Z</time>
      </trkpt>
      <trkpt lat="22.786073" lon="108.931414">
        <ele>79.350720</ele>
        <time>2026-08-14T07:13:19.000Z</time>
      </trkpt>
      <trkpt lat="22.786026" lon="108.931464">
        <ele>79.300514</ele>
        <time>2026-08-14T07:13:20.000Z</time>
      </trkpt>
      <trkpt lat="22.785978" lon="108.931513">
        <ele>79.250245</ele>
        <time>2026-08-14T07:13:21.000Z</time>
      </trkpt>
      <trkpt lat="22.785931" lon="108.931562">
        <ele>79.200528</ele>
        <time>2026-08-14T07:13:22.000Z</time>
      </trkpt>
      <trkpt lat="22.785885" lon="108.931611">
        <ele>79.151359</ele>
        <time>2026-08-14T07:13:23.000Z</time>
      </trkpt>
      <trkpt lat="22.785839" lon="108.931662">
        <ele>79.101194</ele>
        <time>2026-08-14T07:13:24.000Z</time>
      </trkpt>
      <trkpt lat="22.785793" lon="108.931713">
        <ele>79.051029</ele>
        <time>2026-08-14T07:13:25.000Z</time>
      </trkpt>
      <trkpt lat="22.785747" lon="108.931765">
        <ele>79.000359</ele>
        <time>2026-08-14T07:13:26.000Z</time>
      </trkpt>
      <trkpt lat="22.785699" lon="108.931816">
        <ele>78.949116</ele>
        <time>2026-08-14T07:13:27.000Z</time>
      </trkpt>
      <trkpt lat="22.785650" lon="108.931867">
        <ele>78.897326</ele>
        <time>2026-08-14T07:13:28.000Z</time>
      </trkpt>
      <trkpt lat="22.785601" lon="108.931919">
        <ele>78.845046</ele>
        <time>2026-08-14T07:13:29.000Z</time>
      </trkpt>
      <trkpt lat="22.785550" lon="108.931972">
        <ele>78.791181</ele>
        <time>2026-08-14T07:13:30.000Z</time>
      </trkpt>
      <trkpt lat="22.785500" lon="108.932024">
        <ele>78.738353</ele>
        <time>2026-08-14T07:13:31.000Z</time>
      </trkpt>
      <trkpt lat="22.785452" lon="108.932076">
        <ele>78.686616</ele>
        <time>2026-08-14T07:13:32.000Z</time>
      </trkpt>
      <trkpt lat="22.785404" lon="108.932126">
        <ele>78.635862</ele>
        <time>2026-08-14T07:13:33.000Z</time>
      </trkpt>
      <trkpt lat="22.785357" lon="108.932176">
        <ele>78.585656</ele>
        <time>2026-08-14T07:13:34.000Z</time>
      </trkpt>
      <trkpt lat="22.785311" lon="108.932226">
        <ele>78.535991</ele>
        <time>2026-08-14T07:13:35.000Z</time>
      </trkpt>
      <trkpt lat="22.785266" lon="108.932276">
        <ele>78.486862</ele>
        <time>2026-08-14T07:13:36.000Z</time>
      </trkpt>
      <trkpt lat="22.785222" lon="108.932326">
        <ele>78.438262</ele>
        <time>2026-08-14T07:13:37.000Z</time>
      </trkpt>
      <trkpt lat="22.785177" lon="108.932375">
        <ele>78.389634</ele>
        <time>2026-08-14T07:13:38.000Z</time>
      </trkpt>
      <trkpt lat="22.785132" lon="108.932423">
        <ele>78.341501</ele>
        <time>2026-08-14T07:13:39.000Z</time>
      </trkpt>
      <trkpt lat="22.785086" lon="108.932472">
        <ele>78.292331</ele>
        <time>2026-08-14T07:13:40.000Z</time>
      </trkpt>
      <trkpt lat="22.785041" lon="108.932521">
        <ele>78.243703</ele>
        <time>2026-08-14T07:13:41.000Z</time>
      </trkpt>
      <trkpt lat="22.784996" lon="108.932571">
        <ele>78.194574</ele>
        <time>2026-08-14T07:13:42.000Z</time>
      </trkpt>
      <trkpt lat="22.784952" lon="108.932620">
        <ele>78.146481</ele>
        <time>2026-08-14T07:13:43.000Z</time>
      </trkpt>
      <trkpt lat="22.784907" lon="108.932669">
        <ele>78.097852</ele>
        <time>2026-08-14T07:13:44.000Z</time>
      </trkpt>
      <trkpt lat="22.784861" lon="108.932718">
        <ele>78.056165</ele>
        <time>2026-08-14T07:13:45.000Z</time>
      </trkpt>
      <trkpt lat="22.784815" lon="108.932767">
        <ele>78.042216</ele>
        <time>2026-08-14T07:13:46.000Z</time>
      </trkpt>
      <trkpt lat="22.784769" lon="108.932814">
        <ele>78.028545</ele>
        <time>2026-08-14T07:13:47.000Z</time>
      </trkpt>
      <trkpt lat="22.784723" lon="108.932862">
        <ele>78.014736</ele>
        <time>2026-08-14T07:13:48.000Z</time>
      </trkpt>
      <trkpt lat="22.784679" lon="108.932910">
        <ele>78.001235</ele>
        <time>2026-08-14T07:13:49.000Z</time>
      </trkpt>
      <trkpt lat="22.784633" lon="108.932957">
        <ele>77.987563</ele>
        <time>2026-08-14T07:13:50.000Z</time>
      </trkpt>
      <trkpt lat="22.784589" lon="108.933004">
        <ele>77.974203</ele>
        <time>2026-08-14T07:13:51.000Z</time>
      </trkpt>
      <trkpt lat="22.784545" lon="108.933052">
        <ele>77.960703</ele>
        <time>2026-08-14T07:13:52.000Z</time>
      </trkpt>
      <trkpt lat="22.784501" lon="108.933100">
        <ele>77.947202</ele>
        <time>2026-08-14T07:13:53.000Z</time>
      </trkpt>
      <trkpt lat="22.784458" lon="108.933147">
        <ele>77.933995</ele>
        <time>2026-08-14T07:13:54.000Z</time>
      </trkpt>
      <trkpt lat="22.784416" lon="108.933195">
        <ele>77.920796</ele>
        <time>2026-08-14T07:13:55.000Z</time>
      </trkpt>
      <trkpt lat="22.784373" lon="108.933242">
        <ele>77.907590</ele>
        <time>2026-08-14T07:13:56.000Z</time>
      </trkpt>
      <trkpt lat="22.784328" lon="108.933288">
        <ele>77.894212</ele>
        <time>2026-08-14T07:13:57.000Z</time>
      </trkpt>
      <trkpt lat="22.784283" lon="108.933334">
        <ele>77.880835</ele>
        <time>2026-08-14T07:13:58.000Z</time>
      </trkpt>
      <trkpt lat="22.784238" lon="108.933380">
        <ele>77.867457</ele>
        <time>2026-08-14T07:13:59.000Z</time>
      </trkpt>
      <trkpt lat="22.784192" lon="108.933425">
        <ele>77.854056</ele>
        <time>2026-08-14T07:14:00.000Z</time>
      </trkpt>
      <trkpt lat="22.784146" lon="108.933472">
        <ele>77.840384</ele>
        <time>2026-08-14T07:14:01.000Z</time>
      </trkpt>
      <trkpt lat="22.784100" lon="108.933520">
        <ele>77.826575</ele>
        <time>2026-08-14T07:14:02.000Z</time>
      </trkpt>
      <trkpt lat="22.784054" lon="108.933568">
        <ele>77.812766</ele>
        <time>2026-08-14T07:14:03.000Z</time>
      </trkpt>
      <trkpt lat="22.784007" lon="108.933615">
        <ele>77.798936</ele>
        <time>2026-08-14T07:14:04.000Z</time>
      </trkpt>
      <trkpt lat="22.783960" lon="108.933661">
        <ele>77.785241</ele>
        <time>2026-08-14T07:14:05.000Z</time>
      </trkpt>
      <trkpt lat="22.783912" lon="108.933708">
        <ele>77.771251</ele>
        <time>2026-08-14T07:14:06.000Z</time>
      </trkpt>
      <trkpt lat="22.783863" lon="108.933755">
        <ele>77.757100</ele>
        <time>2026-08-14T07:14:07.000Z</time>
      </trkpt>
      <trkpt lat="22.783815" lon="108.933803">
        <ele>77.742976</ele>
        <time>2026-08-14T07:14:08.000Z</time>
      </trkpt>
      <trkpt lat="22.783766" lon="108.933851">
        <ele>77.728692</ele>
        <time>2026-08-14T07:14:09.000Z</time>
      </trkpt>
      <trkpt lat="22.783718" lon="108.933898">
        <ele>77.714702</ele>
        <time>2026-08-14T07:14:10.000Z</time>
      </trkpt>
      <trkpt lat="22.783668" lon="108.933943">
        <ele>77.700646</ele>
        <time>2026-08-14T07:14:11.000Z</time>
      </trkpt>
      <trkpt lat="22.783617" lon="108.933989">
        <ele>77.686297</ele>
        <time>2026-08-14T07:14:12.000Z</time>
      </trkpt>
      <trkpt lat="22.783566" lon="108.934036">
        <ele>77.671819</ele>
        <time>2026-08-14T07:14:13.000Z</time>
      </trkpt>
      <trkpt lat="22.783514" lon="108.934083">
        <ele>77.643009</ele>
        <time>2026-08-14T07:14:14.000Z</time>
      </trkpt>
      <trkpt lat="22.783462" lon="108.934130">
        <ele>77.612208</ele>
        <time>2026-08-14T07:14:15.000Z</time>
      </trkpt>
      <trkpt lat="22.783409" lon="108.934176">
        <ele>77.581319</ele>
        <time>2026-08-14T07:14:16.000Z</time>
      </trkpt>
      <trkpt lat="22.783355" lon="108.934223">
        <ele>77.549814</ele>
        <time>2026-08-14T07:14:17.000Z</time>
      </trkpt>
      <trkpt lat="22.783301" lon="108.934269">
        <ele>77.518569</ele>
        <time>2026-08-14T07:14:18.000Z</time>
      </trkpt>
      <trkpt lat="22.783245" lon="108.934314">
        <ele>77.486854</ele>
        <time>2026-08-14T07:14:19.000Z</time>
      </trkpt>
      <trkpt lat="22.783191" lon="108.934360">
        <ele>77.455609</ele>
        <time>2026-08-14T07:14:20.000Z</time>
      </trkpt>
      <trkpt lat="22.783136" lon="108.934407">
        <ele>77.423747</ele>
        <time>2026-08-14T07:14:21.000Z</time>
      </trkpt>
      <trkpt lat="22.783078" lon="108.934454">
        <ele>77.390802</ele>
        <time>2026-08-14T07:14:22.000Z</time>
      </trkpt>
      <trkpt lat="22.783020" lon="108.934502">
        <ele>77.357604</ele>
        <time>2026-08-14T07:14:23.000Z</time>
      </trkpt>
      <trkpt lat="22.782962" lon="108.934549">
        <ele>77.324659</ele>
        <time>2026-08-14T07:14:24.000Z</time>
      </trkpt>
      <trkpt lat="22.782904" lon="108.934595">
        <ele>77.291963</ele>
        <time>2026-08-14T07:14:25.000Z</time>
      </trkpt>
      <trkpt lat="22.782845" lon="108.934642">
        <ele>77.258653</ele>
        <time>2026-08-14T07:14:26.000Z</time>
      </trkpt>
      <trkpt lat="22.782787" lon="108.934690">
        <ele>77.225455</ele>
        <time>2026-08-14T07:14:27.000Z</time>
      </trkpt>
      <trkpt lat="22.782727" lon="108.934739">
        <ele>77.191278</ele>
        <time>2026-08-14T07:14:28.000Z</time>
      </trkpt>
      <trkpt lat="22.782668" lon="108.934788">
        <ele>77.157464</ele>
        <time>2026-08-14T07:14:29.000Z</time>
      </trkpt>
      <trkpt lat="22.782610" lon="108.934836">
        <ele>77.124266</ele>
        <time>2026-08-14T07:14:30.000Z</time>
      </trkpt>
      <trkpt lat="22.782550" lon="108.934884">
        <ele>77.090340</ele>
        <time>2026-08-14T07:14:31.000Z</time>
      </trkpt>
      <trkpt lat="22.782492" lon="108.934932">
        <ele>77.057142</ele>
        <time>2026-08-14T07:14:32.000Z</time>
      </trkpt>
      <trkpt lat="22.782435" lon="108.934979">
        <ele>77.024560</ele>
        <time>2026-08-14T07:14:33.000Z</time>
      </trkpt>
      <trkpt lat="22.782376" lon="108.935026">
        <ele>76.991249</ele>
        <time>2026-08-14T07:14:34.000Z</time>
      </trkpt>
      <trkpt lat="22.782319" lon="108.935073">
        <ele>76.958667</ele>
        <time>2026-08-14T07:14:35.000Z</time>
      </trkpt>
      <trkpt lat="22.782261" lon="108.935119">
        <ele>76.925971</ele>
        <time>2026-08-14T07:14:36.000Z</time>
      </trkpt>
      <trkpt lat="22.782205" lon="108.935161">
        <ele>76.894990</ele>
        <time>2026-08-14T07:14:37.000Z</time>
      </trkpt>
      <trkpt lat="22.782150" lon="108.935203">
        <ele>76.864382</ele>
        <time>2026-08-14T07:14:38.000Z</time>
      </trkpt>
      <trkpt lat="22.782097" lon="108.935247">
        <ele>76.868292</ele>
        <time>2026-08-14T07:14:39.000Z</time>
      </trkpt>
      <trkpt lat="22.782046" lon="108.935292">
        <ele>76.896843</ele>
        <time>2026-08-14T07:14:40.000Z</time>
      </trkpt>
      <trkpt lat="22.781994" lon="108.935339">
        <ele>76.926239</ele>
        <time>2026-08-14T07:14:41.000Z</time>
      </trkpt>
      <trkpt lat="22.781942" lon="108.935385">
        <ele>76.955380</ele>
        <time>2026-08-14T07:14:42.000Z</time>
      </trkpt>
      <trkpt lat="22.781892" lon="108.935429">
        <ele>76.983342</ele>
        <time>2026-08-14T07:14:43.000Z</time>
      </trkpt>
      <trkpt lat="22.781843" lon="108.935473">
        <ele>77.010969</ele>
        <time>2026-08-14T07:14:44.000Z</time>
      </trkpt>
      <trkpt lat="22.781796" lon="108.935515">
        <ele>77.037415</ele>
        <time>2026-08-14T07:14:45.000Z</time>
      </trkpt>
      <trkpt lat="22.781752" lon="108.935555">
        <ele>77.062348</ele>
        <time>2026-08-14T07:14:46.000Z</time>
      </trkpt>
      <trkpt lat="22.781709" lon="108.935596">
        <ele>77.087212</ele>
        <time>2026-08-14T07:14:47.000Z</time>
      </trkpt>
      <trkpt lat="22.781667" lon="108.935638">
        <ele>77.112021</ele>
        <time>2026-08-14T07:14:48.000Z</time>
      </trkpt>
      <trkpt lat="22.781626" lon="108.935682">
        <ele>77.137069</ele>
        <time>2026-08-14T07:14:49.000Z</time>
      </trkpt>
      <trkpt lat="22.781584" lon="108.935727">
        <ele>77.162708</ele>
        <time>2026-08-14T07:14:50.000Z</time>
      </trkpt>
      <trkpt lat="22.781544" lon="108.935774">
        <ele>77.188318</ele>
        <time>2026-08-14T07:14:51.000Z</time>
      </trkpt>
      <trkpt lat="22.781506" lon="108.935822">
        <ele>77.213650</ele>
        <time>2026-08-14T07:14:52.000Z</time>
      </trkpt>
      <trkpt lat="22.781467" lon="108.935869">
        <ele>77.238968</ele>
        <time>2026-08-14T07:14:53.000Z</time>
      </trkpt>
      <trkpt lat="22.781430" lon="108.935914">
        <ele>77.263110</ele>
        <time>2026-08-14T07:14:54.000Z</time>
      </trkpt>
      <trkpt lat="22.781394" lon="108.935962">
        <ele>77.287886</ele>
        <time>2026-08-14T07:14:55.000Z</time>
      </trkpt>
      <trkpt lat="22.781358" lon="108.936011">
        <ele>77.312972</ele>
        <time>2026-08-14T07:14:56.000Z</time>
      </trkpt>
      <trkpt lat="22.781324" lon="108.936059">
        <ele>77.337209</ele>
        <time>2026-08-14T07:14:57.000Z</time>
      </trkpt>
      <trkpt lat="22.781289" lon="108.936109">
        <ele>77.362345</ele>
        <time>2026-08-14T07:14:58.000Z</time>
      </trkpt>
      <trkpt lat="22.781256" lon="108.936161">
        <ele>77.387621</ele>
        <time>2026-08-14T07:14:59.000Z</time>
      </trkpt>
      <trkpt lat="22.781223" lon="108.936212">
        <ele>77.412569</ele>
        <time>2026-08-14T07:15:00.000Z</time>
      </trkpt>
      <trkpt lat="22.781191" lon="108.936264">
        <ele>77.437602</ele>
        <time>2026-08-14T07:15:01.000Z</time>
      </trkpt>
      <trkpt lat="22.781159" lon="108.936318">
        <ele>77.463304</ele>
        <time>2026-08-14T07:15:02.000Z</time>
      </trkpt>
      <trkpt lat="22.781128" lon="108.936372">
        <ele>77.488774</ele>
        <time>2026-08-14T07:15:03.000Z</time>
      </trkpt>
      <trkpt lat="22.781098" lon="108.936427">
        <ele>77.514362</ele>
        <time>2026-08-14T07:15:04.000Z</time>
      </trkpt>
      <trkpt lat="22.781070" lon="108.936483">
        <ele>77.539869</ele>
        <time>2026-08-14T07:15:05.000Z</time>
      </trkpt>
      <trkpt lat="22.781042" lon="108.936540">
        <ele>77.565729</ele>
        <time>2026-08-14T07:15:06.000Z</time>
      </trkpt>
      <trkpt lat="22.781015" lon="108.936598">
        <ele>77.591745</ele>
        <time>2026-08-14T07:15:07.000Z</time>
      </trkpt>
      <trkpt lat="22.780988" lon="108.936655">
        <ele>77.617404</ele>
        <time>2026-08-14T07:15:08.000Z</time>
      </trkpt>
      <trkpt lat="22.780961" lon="108.936710">
        <ele>77.637602</ele>
        <time>2026-08-14T07:15:09.000Z</time>
      </trkpt>
      <trkpt lat="22.780936" lon="108.936765">
        <ele>77.650115</ele>
        <time>2026-08-14T07:15:10.000Z</time>
      </trkpt>
      <trkpt lat="22.780912" lon="108.936818">
        <ele>77.662163</ele>
        <time>2026-08-14T07:15:11.000Z</time>
      </trkpt>
      <trkpt lat="22.780890" lon="108.936870">
        <ele>77.673838</ele>
        <time>2026-08-14T07:15:12.000Z</time>
      </trkpt>
      <trkpt lat="22.780867" lon="108.936923">
        <ele>77.685791</ele>
        <time>2026-08-14T07:15:13.000Z</time>
      </trkpt>
      <trkpt lat="22.780845" lon="108.936976">
        <ele>77.697651</ele>
        <time>2026-08-14T07:15:14.000Z</time>
      </trkpt>
      <trkpt lat="22.780822" lon="108.937030">
        <ele>77.709789</ele>
        <time>2026-08-14T07:15:15.000Z</time>
      </trkpt>
      <trkpt lat="22.780801" lon="108.937084">
        <ele>77.721748</ele>
        <time>2026-08-14T07:15:16.000Z</time>
      </trkpt>
      <trkpt lat="22.780779" lon="108.937139">
        <ele>77.733982</ele>
        <time>2026-08-14T07:15:17.000Z</time>
      </trkpt>
      <trkpt lat="22.780758" lon="108.937192">
        <ele>77.745753</ele>
        <time>2026-08-14T07:15:18.000Z</time>
      </trkpt>
      <trkpt lat="22.780736" lon="108.937246">
        <ele>77.757800</ele>
        <time>2026-08-14T07:15:19.000Z</time>
      </trkpt>
      <trkpt lat="22.780715" lon="108.937300">
        <ele>77.769759</ele>
        <time>2026-08-14T07:15:20.000Z</time>
      </trkpt>
      <trkpt lat="22.780695" lon="108.937354">
        <ele>77.781633</ele>
        <time>2026-08-14T07:15:21.000Z</time>
      </trkpt>
      <trkpt lat="22.780674" lon="108.937409">
        <ele>77.793781</ele>
        <time>2026-08-14T07:15:22.000Z</time>
      </trkpt>
      <trkpt lat="22.780653" lon="108.937463">
        <ele>77.805740</ele>
        <time>2026-08-14T07:15:23.000Z</time>
      </trkpt>
      <trkpt lat="22.780632" lon="108.937518">
        <ele>77.817887</ele>
        <time>2026-08-14T07:15:24.000Z</time>
      </trkpt>
      <trkpt lat="22.780612" lon="108.937574">
        <ele>77.830141</ele>
        <time>2026-08-14T07:15:25.000Z</time>
      </trkpt>
      <trkpt lat="22.780591" lon="108.937631">
        <ele>77.842666</ele>
        <time>2026-08-14T07:15:26.000Z</time>
      </trkpt>
      <trkpt lat="22.780571" lon="108.937689">
        <ele>77.855302</ele>
        <time>2026-08-14T07:15:27.000Z</time>
      </trkpt>
      <trkpt lat="22.780551" lon="108.937745">
        <ele>77.867557</ele>
        <time>2026-08-14T07:15:28.000Z</time>
      </trkpt>
      <trkpt lat="22.780532" lon="108.937802">
        <ele>77.879924</ele>
        <time>2026-08-14T07:15:29.000Z</time>
      </trkpt>
      <trkpt lat="22.780514" lon="108.937858">
        <ele>77.892026</ele>
        <time>2026-08-14T07:15:30.000Z</time>
      </trkpt>
      <trkpt lat="22.780496" lon="108.937914">
        <ele>77.904128</ele>
        <time>2026-08-14T07:15:31.000Z</time>
      </trkpt>
      <trkpt lat="22.780477" lon="108.937971">
        <ele>77.916495</ele>
        <time>2026-08-14T07:15:32.000Z</time>
      </trkpt>
      <trkpt lat="22.780460" lon="108.938026">
        <ele>77.928332</ele>
        <time>2026-08-14T07:15:33.000Z</time>
      </trkpt>
      <trkpt lat="22.780443" lon="108.938083">
        <ele>77.940557</ele>
        <time>2026-08-14T07:15:34.000Z</time>
      </trkpt>
      <trkpt lat="22.780426" lon="108.938139">
        <ele>77.952587</ele>
        <time>2026-08-14T07:15:35.000Z</time>
      </trkpt>
      <trkpt lat="22.780410" lon="108.938196">
        <ele>77.964745</ele>
        <time>2026-08-14T07:15:36.000Z</time>
      </trkpt>
      <trkpt lat="22.780395" lon="108.938253">
        <ele>77.976841</ele>
        <time>2026-08-14T07:15:37.000Z</time>
      </trkpt>
      <trkpt lat="22.780381" lon="108.938310">
        <ele>77.988878</ele>
        <time>2026-08-14T07:15:38.000Z</time>
      </trkpt>
      <trkpt lat="22.780368" lon="108.938367">
        <ele>78.000859</ele>
        <time>2026-08-14T07:15:39.000Z</time>
      </trkpt>
      <trkpt lat="22.780356" lon="108.938424">
        <ele>78.012790</ele>
        <time>2026-08-14T07:15:40.000Z</time>
      </trkpt>
      <trkpt lat="22.780342" lon="108.938480">
        <ele>78.024629</ele>
        <time>2026-08-14T07:15:41.000Z</time>
      </trkpt>
      <trkpt lat="22.780331" lon="108.938536">
        <ele>78.042441</ele>
        <time>2026-08-14T07:15:42.000Z</time>
      </trkpt>
      <trkpt lat="22.780321" lon="108.938592">
        <ele>78.066871</ele>
        <time>2026-08-14T07:15:43.000Z</time>
      </trkpt>
      <trkpt lat="22.780311" lon="108.938649">
        <ele>78.091722</ele>
        <time>2026-08-14T07:15:44.000Z</time>
      </trkpt>
      <trkpt lat="22.780302" lon="108.938704">
        <ele>78.115646</ele>
        <time>2026-08-14T07:15:45.000Z</time>
      </trkpt>
      <trkpt lat="22.780293" lon="108.938759">
        <ele>78.139570</ele>
        <time>2026-08-14T07:15:46.000Z</time>
      </trkpt>
      <trkpt lat="22.780284" lon="108.938815">
        <ele>78.163916</ele>
        <time>2026-08-14T07:15:47.000Z</time>
      </trkpt>
      <trkpt lat="22.780275" lon="108.938869">
        <ele>78.187419</ele>
        <time>2026-08-14T07:15:48.000Z</time>
      </trkpt>
      <trkpt lat="22.780268" lon="108.938924">
        <ele>78.211198</ele>
        <time>2026-08-14T07:15:49.000Z</time>
      </trkpt>
      <trkpt lat="22.780261" lon="108.938979">
        <ele>78.234978</ele>
        <time>2026-08-14T07:15:50.000Z</time>
      </trkpt>
      <trkpt lat="22.780255" lon="108.939033">
        <ele>78.258273</ele>
        <time>2026-08-14T07:15:51.000Z</time>
      </trkpt>
      <trkpt lat="22.780251" lon="108.939087">
        <ele>78.281475</ele>
        <time>2026-08-14T07:15:52.000Z</time>
      </trkpt>
      <trkpt lat="22.780247" lon="108.939142">
        <ele>78.305104</ele>
        <time>2026-08-14T07:15:53.000Z</time>
      </trkpt>
      <trkpt lat="22.780244" lon="108.939196">
        <ele>78.328274</ele>
        <time>2026-08-14T07:15:54.000Z</time>
      </trkpt>
      <trkpt lat="22.780241" lon="108.939251">
        <ele>78.351871</ele>
        <time>2026-08-14T07:15:55.000Z</time>
      </trkpt>
      <trkpt lat="22.780239" lon="108.939306">
        <ele>78.375446</ele>
        <time>2026-08-14T07:15:56.000Z</time>
      </trkpt>
      <trkpt lat="22.780238" lon="108.939360">
        <ele>78.398578</ele>
        <time>2026-08-14T07:15:57.000Z</time>
      </trkpt>
      <trkpt lat="22.780237" lon="108.939414">
        <ele>78.421711</ele>
        <time>2026-08-14T07:15:58.000Z</time>
      </trkpt>
      <trkpt lat="22.780236" lon="108.939467">
        <ele>78.444415</ele>
        <time>2026-08-14T07:15:59.000Z</time>
      </trkpt>
      <trkpt lat="22.780237" lon="108.939519">
        <ele>78.466691</ele>
        <time>2026-08-14T07:16:00.000Z</time>
      </trkpt>
      <trkpt lat="22.780237" lon="108.939570">
        <ele>78.488534</ele>
        <time>2026-08-14T07:16:01.000Z</time>
      </trkpt>
      <trkpt lat="22.780236" lon="108.939621">
        <ele>78.510382</ele>
        <time>2026-08-14T07:16:02.000Z</time>
      </trkpt>
      <trkpt lat="22.780236" lon="108.939672">
        <ele>78.532224</ele>
        <time>2026-08-14T07:16:03.000Z</time>
      </trkpt>
      <trkpt lat="22.780238" lon="108.939722">
        <ele>78.553659</ele>
        <time>2026-08-14T07:16:04.000Z</time>
      </trkpt>
      <trkpt lat="22.780241" lon="108.939773">
        <ele>78.575547</ele>
        <time>2026-08-14T07:16:05.000Z</time>
      </trkpt>
      <trkpt lat="22.780244" lon="108.939824">
        <ele>78.597434</ele>
        <time>2026-08-14T07:16:06.000Z</time>
      </trkpt>
      <trkpt lat="22.780246" lon="108.939873">
        <ele>78.618441</ele>
        <time>2026-08-14T07:16:07.000Z</time>
      </trkpt>
      <trkpt lat="22.780246" lon="108.939922">
        <ele>78.639427</ele>
        <time>2026-08-14T07:16:08.000Z</time>
      </trkpt>
      <trkpt lat="22.780248" lon="108.939970">
        <ele>78.660006</ele>
        <time>2026-08-14T07:16:09.000Z</time>
      </trkpt>
      <trkpt lat="22.780250" lon="108.940019">
        <ele>78.681013</ele>
        <time>2026-08-14T07:16:10.000Z</time>
      </trkpt>
      <trkpt lat="22.780253" lon="108.940068">
        <ele>78.702046</ele>
        <time>2026-08-14T07:16:11.000Z</time>
      </trkpt>
      <trkpt lat="22.780257" lon="108.940116">
        <ele>78.722687</ele>
        <time>2026-08-14T07:16:12.000Z</time>
      </trkpt>
      <trkpt lat="22.780261" lon="108.940165">
        <ele>78.743756</ele>
        <time>2026-08-14T07:16:13.000Z</time>
      </trkpt>
      <trkpt lat="22.780264" lon="108.940215">
        <ele>78.765216</ele>
        <time>2026-08-14T07:16:14.000Z</time>
      </trkpt>
      <trkpt lat="22.780268" lon="108.940265">
        <ele>78.786711</ele>
        <time>2026-08-14T07:16:15.000Z</time>
      </trkpt>
      <trkpt lat="22.780271" lon="108.940314">
        <ele>78.807743</ele>
        <time>2026-08-14T07:16:16.000Z</time>
      </trkpt>
      <trkpt lat="22.780273" lon="108.940364">
        <ele>78.829178</ele>
        <time>2026-08-14T07:16:17.000Z</time>
      </trkpt>
      <trkpt lat="22.780276" lon="108.940415">
        <ele>78.851065</ele>
        <time>2026-08-14T07:16:18.000Z</time>
      </trkpt>
      <trkpt lat="22.780281" lon="108.940465">
        <ele>78.882187</ele>
        <time>2026-08-14T07:16:19.000Z</time>
      </trkpt>
      <trkpt lat="22.780284" lon="108.940516">
        <ele>78.937094</ele>
        <time>2026-08-14T07:16:20.000Z</time>
      </trkpt>
      <trkpt lat="22.780287" lon="108.940565">
        <ele>78.989857</ele>
        <time>2026-08-14T07:16:21.000Z</time>
      </trkpt>
      <trkpt lat="22.780290" lon="108.940616">
        <ele>79.044765</ele>
        <time>2026-08-14T07:16:22.000Z</time>
      </trkpt>
      <trkpt lat="22.780294" lon="108.940666">
        <ele>79.098689</ele>
        <time>2026-08-14T07:16:23.000Z</time>
      </trkpt>
      <trkpt lat="22.780298" lon="108.940715">
        <ele>79.151542</ele>
        <time>2026-08-14T07:16:24.000Z</time>
      </trkpt>
      <trkpt lat="22.780302" lon="108.940764">
        <ele>79.204395</ele>
        <time>2026-08-14T07:16:25.000Z</time>
      </trkpt>
      <trkpt lat="22.780304" lon="108.940812">
        <ele>79.256021</ele>
        <time>2026-08-14T07:16:26.000Z</time>
      </trkpt>
      <trkpt lat="22.780304" lon="108.940859">
        <ele>79.306519</ele>
        <time>2026-08-14T07:16:27.000Z</time>
      </trkpt>
      <trkpt lat="22.780307" lon="108.940905">
        <ele>79.356067</ele>
        <time>2026-08-14T07:16:28.000Z</time>
      </trkpt>
      <trkpt lat="22.780308" lon="108.940951">
        <ele>79.405505</ele>
        <time>2026-08-14T07:16:29.000Z</time>
      </trkpt>
      <trkpt lat="22.780305" lon="108.940993">
        <ele>79.450766</ele>
        <time>2026-08-14T07:16:30.000Z</time>
      </trkpt>
      <trkpt lat="22.780302" lon="108.941040">
        <ele>79.501386</ele>
        <time>2026-08-14T07:16:31.000Z</time>
      </trkpt>
      <trkpt lat="22.780316" lon="108.941084">
        <ele>79.551397</ele>
        <time>2026-08-14T07:16:32.000Z</time>
      </trkpt>
      <trkpt lat="22.780321" lon="108.941130">
        <ele>79.601163</ele>
        <time>2026-08-14T07:16:33.000Z</time>
      </trkpt>
      <trkpt lat="22.780327" lon="108.941178">
        <ele>79.653208</ele>
        <time>2026-08-14T07:16:34.000Z</time>
      </trkpt>
      <trkpt lat="22.780336" lon="108.941224">
        <ele>79.703733</ele>
        <time>2026-08-14T07:16:35.000Z</time>
      </trkpt>
      <trkpt lat="22.780346" lon="108.941272">
        <ele>79.756606</ele>
        <time>2026-08-14T07:16:36.000Z</time>
      </trkpt>
      <trkpt lat="22.780352" lon="108.941320">
        <ele>79.808650</ele>
        <time>2026-08-14T07:16:37.000Z</time>
      </trkpt>
      <trkpt lat="22.780361" lon="108.941371">
        <ele>79.864441</ele>
        <time>2026-08-14T07:16:38.000Z</time>
      </trkpt>
      <trkpt lat="22.780368" lon="108.941422">
        <ele>79.919841</ele>
        <time>2026-08-14T07:16:39.000Z</time>
      </trkpt>
      <trkpt lat="22.780375" lon="108.941474">
        <ele>79.976304</ele>
        <time>2026-08-14T07:16:40.000Z</time>
      </trkpt>
      <trkpt lat="22.780382" lon="108.941526">
        <ele>80.032767</ele>
        <time>2026-08-14T07:16:41.000Z</time>
      </trkpt>
      <trkpt lat="22.780392" lon="108.941580">
        <ele>80.091946</ele>
        <time>2026-08-14T07:16:42.000Z</time>
      </trkpt>
      <trkpt lat="22.780402" lon="108.941632">
        <ele>80.149019</ele>
        <time>2026-08-14T07:16:43.000Z</time>
      </trkpt>
      <trkpt lat="22.780411" lon="108.941684">
        <ele>80.205865</ele>
        <time>2026-08-14T07:16:44.000Z</time>
      </trkpt>
      <trkpt lat="22.780414" lon="108.941735">
        <ele>80.260773</ele>
        <time>2026-08-14T07:16:45.000Z</time>
      </trkpt>
      <trkpt lat="22.780418" lon="108.941788">
        <ele>80.317908</ele>
        <time>2026-08-14T07:16:46.000Z</time>
      </trkpt>
      <trkpt lat="22.780425" lon="108.941842">
        <ele>80.376498</ele>
        <time>2026-08-14T07:16:47.000Z</time>
      </trkpt>
      <trkpt lat="22.780425" lon="108.941892">
        <ele>80.430220</ele>
        <time>2026-08-14T07:16:48.000Z</time>
      </trkpt>
      <trkpt lat="22.780425" lon="108.941943">
        <ele>80.485016</ele>
        <time>2026-08-14T07:16:49.000Z</time>
      </trkpt>
      <trkpt lat="22.780432" lon="108.941996">
        <ele>80.542543</ele>
        <time>2026-08-14T07:16:50.000Z</time>
      </trkpt>
      <trkpt lat="22.780443" lon="108.942050">
        <ele>80.601961</ele>
        <time>2026-08-14T07:16:51.000Z</time>
      </trkpt>
      <trkpt lat="22.780453" lon="108.942104">
        <ele>80.661140</ele>
        <time>2026-08-14T07:16:52.000Z</time>
      </trkpt>
      <trkpt lat="22.780465" lon="108.942158">
        <ele>80.720820</ele>
        <time>2026-08-14T07:16:53.000Z</time>
      </trkpt>
      <trkpt lat="22.780475" lon="108.942212">
        <ele>80.779999</ele>
        <time>2026-08-14T07:16:54.000Z</time>
      </trkpt>
      <trkpt lat="22.780487" lon="108.942266">
        <ele>80.839680</ele>
        <time>2026-08-14T07:16:55.000Z</time>
      </trkpt>
      <trkpt lat="22.780496" lon="108.942321">
        <ele>80.899697</ele>
        <time>2026-08-14T07:16:56.000Z</time>
      </trkpt>
      <trkpt lat="22.780505" lon="108.942373">
        <ele>80.956543</ele>
        <time>2026-08-14T07:16:57.000Z</time>
      </trkpt>
      <trkpt lat="22.780517" lon="108.942427">
        <ele>81.005978</ele>
        <time>2026-08-14T07:16:58.000Z</time>
      </trkpt>
      <trkpt lat="22.780526" lon="108.942481">
        <ele>81.053740</ele>
        <time>2026-08-14T07:16:59.000Z</time>
      </trkpt>
      <trkpt lat="22.780538" lon="108.942534">
        <ele>81.101239</ele>
        <time>2026-08-14T07:17:00.000Z</time>
      </trkpt>
      <trkpt lat="22.780550" lon="108.942589">
        <ele>81.150431</ele>
        <time>2026-08-14T07:17:01.000Z</time>
      </trkpt>
      <trkpt lat="22.780564" lon="108.942643">
        <ele>81.199254</ele>
        <time>2026-08-14T07:17:02.000Z</time>
      </trkpt>
      <trkpt lat="22.780579" lon="108.942697">
        <ele>81.248340</ele>
        <time>2026-08-14T07:17:03.000Z</time>
      </trkpt>
      <trkpt lat="22.780594" lon="108.942750">
        <ele>81.296593</ele>
        <time>2026-08-14T07:17:04.000Z</time>
      </trkpt>
      <trkpt lat="22.780607" lon="108.942804">
        <ele>81.345169</ele>
        <time>2026-08-14T07:17:05.000Z</time>
      </trkpt>
      <trkpt lat="22.780617" lon="108.942857">
        <ele>81.392254</ele>
        <time>2026-08-14T07:17:06.000Z</time>
      </trkpt>
      <trkpt lat="22.780627" lon="108.942911">
        <ele>81.440192</ele>
        <time>2026-08-14T07:17:07.000Z</time>
      </trkpt>
      <trkpt lat="22.780638" lon="108.942966">
        <ele>81.489175</ele>
        <time>2026-08-14T07:17:08.000Z</time>
      </trkpt>
      <trkpt lat="22.780646" lon="108.943019">
        <ele>81.535918</ele>
        <time>2026-08-14T07:17:09.000Z</time>
      </trkpt>
      <trkpt lat="22.780656" lon="108.943072">
        <ele>81.583003</ele>
        <time>2026-08-14T07:17:10.000Z</time>
      </trkpt>
      <trkpt lat="22.780675" lon="108.943123">
        <ele>81.630879</ele>
        <time>2026-08-14T07:17:11.000Z</time>
      </trkpt>
      <trkpt lat="22.780693" lon="108.943177">
        <ele>81.680855</ele>
        <time>2026-08-14T07:17:12.000Z</time>
      </trkpt>
      <trkpt lat="22.780708" lon="108.943231">
        <ele>81.729942</ele>
        <time>2026-08-14T07:17:13.000Z</time>
      </trkpt>
      <trkpt lat="22.780724" lon="108.943285">
        <ele>81.779308</ele>
        <time>2026-08-14T07:17:14.000Z</time>
      </trkpt>
      <trkpt lat="22.780735" lon="108.943336">
        <ele>81.824895</ele>
        <time>2026-08-14T07:17:15.000Z</time>
      </trkpt>
      <trkpt lat="22.780746" lon="108.943388">
        <ele>81.871330</ele>
        <time>2026-08-14T07:17:16.000Z</time>
      </trkpt>
      <trkpt lat="22.780755" lon="108.943441">
        <ele>81.918235</ele>
        <time>2026-08-14T07:17:17.000Z</time>
      </trkpt>
      <trkpt lat="22.780764" lon="108.943492">
        <ele>81.963429</ele>
        <time>2026-08-14T07:17:18.000Z</time>
      </trkpt>
      <trkpt lat="22.780775" lon="108.943542">
        <ele>82.008169</ele>
        <time>2026-08-14T07:17:19.000Z</time>
      </trkpt>
      <trkpt lat="22.780785" lon="108.943592">
        <ele>82.052699</ele>
        <time>2026-08-14T07:17:20.000Z</time>
      </trkpt>
      <trkpt lat="22.780797" lon="108.943641">
        <ele>82.096825</ele>
        <time>2026-08-14T07:17:21.000Z</time>
      </trkpt>
      <trkpt lat="22.780811" lon="108.943689">
        <ele>82.140643</ele>
        <time>2026-08-14T07:17:22.000Z</time>
      </trkpt>
      <trkpt lat="22.780825" lon="108.943739">
        <ele>82.186124</ele>
        <time>2026-08-14T07:17:23.000Z</time>
      </trkpt>
      <trkpt lat="22.780838" lon="108.943790">
        <ele>82.232177</ele>
        <time>2026-08-14T07:17:24.000Z</time>
      </trkpt>
      <trkpt lat="22.780849" lon="108.943841">
        <ele>82.277764</ele>
        <time>2026-08-14T07:17:25.000Z</time>
      </trkpt>
      <trkpt lat="22.780859" lon="108.943892">
        <ele>82.323145</ele>
        <time>2026-08-14T07:17:26.000Z</time>
      </trkpt>
      <trkpt lat="22.780870" lon="108.943942">
        <ele>82.367885</ele>
        <time>2026-08-14T07:17:27.000Z</time>
      </trkpt>
      <trkpt lat="22.780880" lon="108.943993">
        <ele>82.413266</ele>
        <time>2026-08-14T07:17:28.000Z</time>
      </trkpt>
      <trkpt lat="22.780889" lon="108.944043">
        <ele>82.457605</ele>
        <time>2026-08-14T07:17:29.000Z</time>
      </trkpt>
      <trkpt lat="22.780897" lon="108.944094">
        <ele>82.502631</ele>
        <time>2026-08-14T07:17:30.000Z</time>
      </trkpt>
      <trkpt lat="22.780908" lon="108.944144">
        <ele>82.547371</ele>
        <time>2026-08-14T07:17:31.000Z</time>
      </trkpt>
      <trkpt lat="22.780918" lon="108.944194">
        <ele>82.591901</ele>
        <time>2026-08-14T07:17:32.000Z</time>
      </trkpt>
      <trkpt lat="22.780926" lon="108.944245">
        <ele>82.636927</ele>
        <time>2026-08-14T07:17:33.000Z</time>
      </trkpt>
      <trkpt lat="22.780934" lon="108.944294">
        <ele>82.640415</ele>
        <time>2026-08-14T07:17:34.000Z</time>
      </trkpt>
      <trkpt lat="22.780943" lon="108.944344">
        <ele>82.596652</ele>
        <time>2026-08-14T07:17:35.000Z</time>
      </trkpt>
      <trkpt lat="22.780952" lon="108.944395">
        <ele>82.552046</ele>
        <time>2026-08-14T07:17:36.000Z</time>
      </trkpt>
      <trkpt lat="22.780960" lon="108.944445">
        <ele>82.508453</ele>
        <time>2026-08-14T07:17:37.000Z</time>
      </trkpt>
      <trkpt lat="22.780969" lon="108.944496">
        <ele>82.463847</ele>
        <time>2026-08-14T07:17:38.000Z</time>
      </trkpt>
      <trkpt lat="22.780979" lon="108.944546">
        <ele>82.419897</ele>
        <time>2026-08-14T07:17:39.000Z</time>
      </trkpt>
      <trkpt lat="22.780991" lon="108.944597">
        <ele>82.374682</ele>
        <time>2026-08-14T07:17:40.000Z</time>
      </trkpt>
      <trkpt lat="22.781002" lon="108.944647">
        <ele>82.330525</ele>
        <time>2026-08-14T07:17:41.000Z</time>
      </trkpt>
      <trkpt lat="22.781012" lon="108.944699">
        <ele>82.284894</ele>
        <time>2026-08-14T07:17:42.000Z</time>
      </trkpt>
      <trkpt lat="22.781022" lon="108.944749">
        <ele>82.240944</ele>
        <time>2026-08-14T07:17:43.000Z</time>
      </trkpt>
      <trkpt lat="22.781032" lon="108.944800">
        <ele>82.196153</ele>
        <time>2026-08-14T07:17:44.000Z</time>
      </trkpt>
      <trkpt lat="22.781041" lon="108.944850">
        <ele>82.152391</ele>
        <time>2026-08-14T07:17:45.000Z</time>
      </trkpt>
      <trkpt lat="22.781049" lon="108.944902">
        <ele>82.107104</ele>
        <time>2026-08-14T07:17:46.000Z</time>
      </trkpt>
      <trkpt lat="22.781058" lon="108.944955">
        <ele>82.060810</ele>
        <time>2026-08-14T07:17:47.000Z</time>
      </trkpt>
      <trkpt lat="22.781067" lon="108.945009">
        <ele>82.013670</ele>
        <time>2026-08-14T07:17:48.000Z</time>
      </trkpt>
      <trkpt lat="22.781076" lon="108.945062">
        <ele>81.967376</ele>
        <time>2026-08-14T07:17:49.000Z</time>
      </trkpt>
      <trkpt lat="22.781086" lon="108.945114">
        <ele>81.921745</ele>
        <time>2026-08-14T07:17:50.000Z</time>
      </trkpt>
      <trkpt lat="22.781094" lon="108.945166">
        <ele>81.876458</ele>
        <time>2026-08-14T07:17:51.000Z</time>
      </trkpt>
      <trkpt lat="22.781103" lon="108.945219">
        <ele>81.830164</ele>
        <time>2026-08-14T07:17:52.000Z</time>
      </trkpt>
      <trkpt lat="22.781114" lon="108.945273">
        <ele>81.782657</ele>
        <time>2026-08-14T07:17:53.000Z</time>
      </trkpt>
      <trkpt lat="22.781125" lon="108.945328">
        <ele>81.734312</ele>
        <time>2026-08-14T07:17:54.000Z</time>
      </trkpt>
      <trkpt lat="22.781134" lon="108.945383">
        <ele>81.686327</ele>
        <time>2026-08-14T07:17:55.000Z</time>
      </trkpt>
      <trkpt lat="22.781144" lon="108.945438">
        <ele>81.638171</ele>
        <time>2026-08-14T07:17:56.000Z</time>
      </trkpt>
      <trkpt lat="22.781155" lon="108.945496">
        <ele>81.587304</ele>
        <time>2026-08-14T07:17:57.000Z</time>
      </trkpt>
      <trkpt lat="22.781168" lon="108.945554">
        <ele>81.536029</ele>
        <time>2026-08-14T07:17:58.000Z</time>
      </trkpt>
      <trkpt lat="22.781181" lon="108.945612">
        <ele>81.484754</ele>
        <time>2026-08-14T07:17:59.000Z</time>
      </trkpt>
      <trkpt lat="22.781193" lon="108.945672">
        <ele>81.432014</ele>
        <time>2026-08-14T07:18:00.000Z</time>
      </trkpt>
      <trkpt lat="22.781203" lon="108.945732">
        <ele>81.379637</ele>
        <time>2026-08-14T07:18:01.000Z</time>
      </trkpt>
      <trkpt lat="22.781215" lon="108.945794">
        <ele>81.325216</ele>
        <time>2026-08-14T07:18:02.000Z</time>
      </trkpt>
      <trkpt lat="22.781227" lon="108.945857">
        <ele>81.269954</ele>
        <time>2026-08-14T07:18:03.000Z</time>
      </trkpt>
      <trkpt lat="22.781240" lon="108.945921">
        <ele>81.213658</ele>
        <time>2026-08-14T07:18:04.000Z</time>
      </trkpt>
      <trkpt lat="22.781252" lon="108.945987">
        <ele>81.155870</ele>
        <time>2026-08-14T07:18:05.000Z</time>
      </trkpt>
      <trkpt lat="22.781263" lon="108.946052">
        <ele>81.099101</ele>
        <time>2026-08-14T07:18:06.000Z</time>
      </trkpt>
      <trkpt lat="22.781275" lon="108.946118">
        <ele>81.041313</ele>
        <time>2026-08-14T07:18:07.000Z</time>
      </trkpt>
      <trkpt lat="22.781286" lon="108.946183">
        <ele>80.984544</ele>
        <time>2026-08-14T07:18:08.000Z</time>
      </trkpt>
      <trkpt lat="22.781298" lon="108.946250">
        <ele>80.855105</ele>
        <time>2026-08-14T07:18:09.000Z</time>
      </trkpt>
      <trkpt lat="22.781311" lon="108.946318">
        <ele>80.723201</ele>
        <time>2026-08-14T07:18:10.000Z</time>
      </trkpt>
      <trkpt lat="22.781323" lon="108.946388">
        <ele>80.587967</ele>
        <time>2026-08-14T07:18:11.000Z</time>
      </trkpt>
      <trkpt lat="22.781336" lon="108.946458">
        <ele>80.452342</ele>
        <time>2026-08-14T07:18:12.000Z</time>
      </trkpt>
      <trkpt lat="22.781349" lon="108.946530">
        <ele>80.312991</ele>
        <time>2026-08-14T07:18:13.000Z</time>
      </trkpt>
      <trkpt lat="22.781360" lon="108.946604">
        <ele>80.170623</ele>
        <time>2026-08-14T07:18:14.000Z</time>
      </trkpt>
      <trkpt lat="22.781372" lon="108.946678">
        <ele>80.027913</ele>
        <time>2026-08-14T07:18:15.000Z</time>
      </trkpt>
      <trkpt lat="22.781385" lon="108.946753">
        <ele>79.882966</ele>
        <time>2026-08-14T07:18:16.000Z</time>
      </trkpt>
      <trkpt lat="22.781399" lon="108.946828">
        <ele>79.737624</ele>
        <time>2026-08-14T07:18:17.000Z</time>
      </trkpt>
      <trkpt lat="22.781414" lon="108.946904">
        <ele>79.590002</ele>
        <time>2026-08-14T07:18:18.000Z</time>
      </trkpt>
      <trkpt lat="22.781428" lon="108.946978">
        <ele>79.446521</ele>
        <time>2026-08-14T07:18:19.000Z</time>
      </trkpt>
      <trkpt lat="22.781442" lon="108.947053">
        <ele>79.301179</ele>
        <time>2026-08-14T07:18:20.000Z</time>
      </trkpt>
      <trkpt lat="22.781454" lon="108.947128">
        <ele>79.156599</ele>
        <time>2026-08-14T07:18:21.000Z</time>
      </trkpt>
      <trkpt lat="22.781468" lon="108.947202">
        <ele>79.013118</ele>
        <time>2026-08-14T07:18:22.000Z</time>
      </trkpt>
      <trkpt lat="22.781482" lon="108.947275">
        <ele>78.871497</ele>
        <time>2026-08-14T07:18:23.000Z</time>
      </trkpt>
      <trkpt lat="22.781495" lon="108.947348">
        <ele>78.730281</ele>
        <time>2026-08-14T07:18:24.000Z</time>
      </trkpt>
      <trkpt lat="22.781508" lon="108.947424">
        <ele>78.583467</ele>
        <time>2026-08-14T07:18:25.000Z</time>
      </trkpt>
      <trkpt lat="22.781519" lon="108.947498">
        <ele>78.441100</ele>
        <time>2026-08-14T07:18:26.000Z</time>
      </trkpt>
      <trkpt lat="22.781532" lon="108.947570">
        <ele>78.301749</ele>
        <time>2026-08-14T07:18:27.000Z</time>
      </trkpt>
      <trkpt lat="22.781545" lon="108.947644">
        <ele>78.158668</ele>
        <time>2026-08-14T07:18:28.000Z</time>
      </trkpt>
      <trkpt lat="22.781558" lon="108.947717">
        <ele>78.017452</ele>
        <time>2026-08-14T07:18:29.000Z</time>
      </trkpt>
      <trkpt lat="22.781572" lon="108.947788">
        <ele>77.879548</ele>
        <time>2026-08-14T07:18:30.000Z</time>
      </trkpt>
      <trkpt lat="22.781585" lon="108.947859">
        <ele>77.742061</ele>
        <time>2026-08-14T07:18:31.000Z</time>
      </trkpt>
      <trkpt lat="22.781597" lon="108.947929">
        <ele>77.606827</ele>
        <time>2026-08-14T07:18:32.000Z</time>
      </trkpt>
      <trkpt lat="22.781609" lon="108.947999">
        <ele>77.471594</ele>
        <time>2026-08-14T07:18:33.000Z</time>
      </trkpt>
      <trkpt lat="22.781622" lon="108.948067">
        <ele>77.339690</ele>
        <time>2026-08-14T07:18:34.000Z</time>
      </trkpt>
      <trkpt lat="22.781634" lon="108.948136">
        <ele>77.303807</ele>
        <time>2026-08-14T07:18:35.000Z</time>
      </trkpt>
      <trkpt lat="22.781645" lon="108.948204">
        <ele>77.348422</ele>
        <time>2026-08-14T07:18:36.000Z</time>
      </trkpt>
      <trkpt lat="22.781655" lon="108.948271">
        <ele>77.392284</ele>
        <time>2026-08-14T07:18:37.000Z</time>
      </trkpt>
      <trkpt lat="22.781666" lon="108.948336">
        <ele>77.434991</ele>
        <time>2026-08-14T07:18:38.000Z</time>
      </trkpt>
      <trkpt lat="22.781676" lon="108.948399">
        <ele>77.476303</ele>
        <time>2026-08-14T07:18:39.000Z</time>
      </trkpt>
      <trkpt lat="22.781687" lon="108.948460">
        <ele>77.516470</ele>
        <time>2026-08-14T07:18:40.000Z</time>
      </trkpt>
      <trkpt lat="22.781698" lon="108.948521">
        <ele>77.556637</ele>
        <time>2026-08-14T07:18:41.000Z</time>
      </trkpt>
      <trkpt lat="22.781707" lon="108.948581">
        <ele>77.595921</ele>
        <time>2026-08-14T07:18:42.000Z</time>
      </trkpt>
      <trkpt lat="22.781714" lon="108.948641">
        <ele>77.635005</ele>
        <time>2026-08-14T07:18:43.000Z</time>
      </trkpt>
      <trkpt lat="22.781721" lon="108.948698">
        <ele>77.672166</ele>
        <time>2026-08-14T07:18:44.000Z</time>
      </trkpt>
      <trkpt lat="22.781727" lon="108.948755">
        <ele>77.709240</ele>
        <time>2026-08-14T07:18:45.000Z</time>
      </trkpt>
      <trkpt lat="22.781735" lon="108.948810">
        <ele>77.745223</ele>
        <time>2026-08-14T07:18:46.000Z</time>
      </trkpt>
      <trkpt lat="22.781743" lon="108.948864">
        <ele>77.780567</ele>
        <time>2026-08-14T07:18:47.000Z</time>
      </trkpt>
      <trkpt lat="22.781751" lon="108.948918">
        <ele>77.815912</ele>
        <time>2026-08-14T07:18:48.000Z</time>
      </trkpt>
      <trkpt lat="22.781759" lon="108.948970">
        <ele>77.849981</ele>
        <time>2026-08-14T07:18:49.000Z</time>
      </trkpt>
      <trkpt lat="22.781766" lon="108.949021">
        <ele>77.883302</ele>
        <time>2026-08-14T07:18:50.000Z</time>
      </trkpt>
      <trkpt lat="22.781775" lon="108.949070">
        <ele>77.915590</ele>
        <time>2026-08-14T07:18:51.000Z</time>
      </trkpt>
      <trkpt lat="22.781784" lon="108.949119">
        <ele>77.947877</ele>
        <time>2026-08-14T07:18:52.000Z</time>
      </trkpt>
      <trkpt lat="22.781792" lon="108.949169">
        <ele>77.980672</ele>
        <time>2026-08-14T07:18:53.000Z</time>
      </trkpt>
      <trkpt lat="22.781798" lon="108.949218">
        <ele>78.012616</ele>
        <time>2026-08-14T07:18:54.000Z</time>
      </trkpt>
      <trkpt lat="22.781805" lon="108.949268">
        <ele>78.045298</ele>
        <time>2026-08-14T07:18:55.000Z</time>
      </trkpt>
      <trkpt lat="22.781810" lon="108.949318">
        <ele>78.077799</ele>
        <time>2026-08-14T07:18:56.000Z</time>
      </trkpt>
      <trkpt lat="22.781818" lon="108.949366">
        <ele>78.109321</ele>
        <time>2026-08-14T07:18:57.000Z</time>
      </trkpt>
      <trkpt lat="22.781825" lon="108.949414">
        <ele>78.140726</ele>
        <time>2026-08-14T07:18:58.000Z</time>
      </trkpt>
      <trkpt lat="22.781831" lon="108.949461">
        <ele>78.171389</ele>
        <time>2026-08-14T07:18:59.000Z</time>
      </trkpt>
      <trkpt lat="22.781836" lon="108.949509">
        <ele>78.202606</ele>
        <time>2026-08-14T07:19:00.000Z</time>
      </trkpt>
      <trkpt lat="22.781842" lon="108.949556">
        <ele>78.233269</ele>
        <time>2026-08-14T07:19:01.000Z</time>
      </trkpt>
      <trkpt lat="22.781848" lon="108.949604">
        <ele>78.264572</ele>
        <time>2026-08-14T07:19:02.000Z</time>
      </trkpt>
      <trkpt lat="22.781854" lon="108.949651">
        <ele>78.295235</ele>
        <time>2026-08-14T07:19:03.000Z</time>
      </trkpt>
      <trkpt lat="22.781860" lon="108.949698">
        <ele>78.325898</ele>
        <time>2026-08-14T07:19:04.000Z</time>
      </trkpt>
      <trkpt lat="22.781866" lon="108.949745">
        <ele>78.356560</ele>
        <time>2026-08-14T07:19:05.000Z</time>
      </trkpt>
      <trkpt lat="22.781873" lon="108.949792">
        <ele>78.387327</ele>
        <time>2026-08-14T07:19:06.000Z</time>
      </trkpt>
      <trkpt lat="22.781880" lon="108.949839">
        <ele>78.418094</ele>
        <time>2026-08-14T07:19:07.000Z</time>
      </trkpt>
      <trkpt lat="22.781885" lon="108.949885">
        <ele>78.448027</ele>
        <time>2026-08-14T07:19:08.000Z</time>
      </trkpt>
      <trkpt lat="22.781890" lon="108.949932">
        <ele>78.478601</ele>
        <time>2026-08-14T07:19:09.000Z</time>
      </trkpt>
      <trkpt lat="22.781896" lon="108.949977">
        <ele>78.507984</ele>
        <time>2026-08-14T07:19:10.000Z</time>
      </trkpt>
      <trkpt lat="22.781902" lon="108.950020">
        <ele>78.536089</ele>
        <time>2026-08-14T07:19:11.000Z</time>
      </trkpt>
      <trkpt lat="22.781907" lon="108.950063">
        <ele>78.587506</ele>
        <time>2026-08-14T07:19:12.000Z</time>
      </trkpt>
      <trkpt lat="22.781912" lon="108.950106">
        <ele>78.642454</ele>
        <time>2026-08-14T07:19:13.000Z</time>
      </trkpt>
      <trkpt lat="22.781918" lon="108.950151">
        <ele>78.700099</ele>
        <time>2026-08-14T07:19:14.000Z</time>
      </trkpt>
      <trkpt lat="22.781923" lon="108.950194">
        <ele>78.755047</ele>
        <time>2026-08-14T07:19:15.000Z</time>
      </trkpt>
      <trkpt lat="22.781927" lon="108.950237">
        <ele>78.809839</ele>
        <time>2026-08-14T07:19:16.000Z</time>
      </trkpt>
      <trkpt lat="22.781931" lon="108.950281">
        <ele>78.865893</ele>
        <time>2026-08-14T07:19:17.000Z</time>
      </trkpt>
      <trkpt lat="22.781937" lon="108.950323">
        <ele>78.919777</ele>
        <time>2026-08-14T07:19:18.000Z</time>
      </trkpt>
      <trkpt lat="22.781944" lon="108.950366">
        <ele>78.975136</ele>
        <time>2026-08-14T07:19:19.000Z</time>
      </trkpt>
      <trkpt lat="22.781950" lon="108.950410">
        <ele>79.031526</ele>
        <time>2026-08-14T07:19:20.000Z</time>
      </trkpt>
      <trkpt lat="22.781955" lon="108.950455">
        <ele>79.088990</ele>
        <time>2026-08-14T07:19:21.000Z</time>
      </trkpt>
      <trkpt lat="22.781960" lon="108.950500">
        <ele>79.146455</ele>
        <time>2026-08-14T07:19:22.000Z</time>
      </trkpt>
      <trkpt lat="22.781965" lon="108.950544">
        <ele>79.202660</ele>
        <time>2026-08-14T07:19:23.000Z</time>
      </trkpt>
      <trkpt lat="22.781970" lon="108.950588">
        <ele>79.258866</ele>
        <time>2026-08-14T07:19:24.000Z</time>
      </trkpt>
      <trkpt lat="22.781973" lon="108.950631">
        <ele>79.313538</ele>
        <time>2026-08-14T07:19:25.000Z</time>
      </trkpt>
      <trkpt lat="22.781976" lon="108.950674">
        <ele>79.368209</ele>
        <time>2026-08-14T07:19:26.000Z</time>
      </trkpt>
      <trkpt lat="22.781980" lon="108.950720">
        <ele>79.426787</ele>
        <time>2026-08-14T07:19:27.000Z</time>
      </trkpt>
      <trkpt lat="22.781986" lon="108.950764">
        <ele>79.483178</ele>
        <time>2026-08-14T07:19:28.000Z</time>
      </trkpt>
      <trkpt lat="22.781992" lon="108.950809">
        <ele>79.540823</ele>
        <time>2026-08-14T07:19:29.000Z</time>
      </trkpt>
      <trkpt lat="22.781997" lon="108.950853">
        <ele>79.597028</ele>
        <time>2026-08-14T07:19:30.000Z</time>
      </trkpt>
      <trkpt lat="22.782003" lon="108.950898">
        <ele>79.654673</ele>
        <time>2026-08-14T07:19:31.000Z</time>
      </trkpt>
      <trkpt lat="22.782009" lon="108.950944">
        <ele>79.713573</ele>
        <time>2026-08-14T07:19:32.000Z</time>
      </trkpt>
      <trkpt lat="22.782015" lon="108.950989">
        <ele>79.771218</ele>
        <time>2026-08-14T07:19:33.000Z</time>
      </trkpt>
      <trkpt lat="22.782015" lon="108.951034">
        <ele>79.828269</ele>
        <time>2026-08-14T07:19:34.000Z</time>
      </trkpt>
      <trkpt lat="22.782016" lon="108.951077">
        <ele>79.882803</ele>
        <time>2026-08-14T07:19:35.000Z</time>
      </trkpt>
      <trkpt lat="22.782018" lon="108.951122">
        <ele>79.939920</ele>
        <time>2026-08-14T07:19:36.000Z</time>
      </trkpt>
      <trkpt lat="22.782021" lon="108.951166">
        <ele>79.995856</ele>
        <time>2026-08-14T07:19:37.000Z</time>
      </trkpt>
      <trkpt lat="22.782025" lon="108.951209">
        <ele>80.050649</ele>
        <time>2026-08-14T07:19:38.000Z</time>
      </trkpt>
      <trkpt lat="22.782031" lon="108.951253">
        <ele>80.107039</ele>
        <time>2026-08-14T07:19:39.000Z</time>
      </trkpt>
      <trkpt lat="22.782036" lon="108.951297">
        <ele>80.163245</ele>
        <time>2026-08-14T07:19:40.000Z</time>
      </trkpt>
      <trkpt lat="22.782040" lon="108.951342">
        <ele>80.220561</ele>
        <time>2026-08-14T07:19:41.000Z</time>
      </trkpt>
      <trkpt lat="22.782045" lon="108.951389">
        <ele>80.280543</ele>
        <time>2026-08-14T07:19:42.000Z</time>
      </trkpt>
      <trkpt lat="22.782050" lon="108.951436">
        <ele>80.340525</ele>
        <time>2026-08-14T07:19:43.000Z</time>
      </trkpt>
      <trkpt lat="22.782054" lon="108.951482">
        <ele>80.399103</ele>
        <time>2026-08-14T07:19:44.000Z</time>
      </trkpt>
      <trkpt lat="22.782058" lon="108.951527">
        <ele>80.456419</ele>
        <time>2026-08-14T07:19:45.000Z</time>
      </trkpt>
      <trkpt lat="22.782063" lon="108.951573">
        <ele>80.515142</ele>
        <time>2026-08-14T07:19:46.000Z</time>
      </trkpt>
      <trkpt lat="22.782067" lon="108.951619">
        <ele>80.573720</ele>
        <time>2026-08-14T07:19:47.000Z</time>
      </trkpt>
      <trkpt lat="22.782071" lon="108.951665">
        <ele>80.632298</ele>
        <time>2026-08-14T07:19:48.000Z</time>
      </trkpt>
      <trkpt lat="22.782076" lon="108.951710">
        <ele>80.689762</ele>
        <time>2026-08-14T07:19:49.000Z</time>
      </trkpt>
      <trkpt lat="22.782081" lon="108.951756">
        <ele>80.748486</ele>
        <time>2026-08-14T07:19:50.000Z</time>
      </trkpt>
      <trkpt lat="22.782085" lon="108.951802">
        <ele>80.807063</ele>
        <time>2026-08-14T07:19:51.000Z</time>
      </trkpt>
      <trkpt lat="22.782089" lon="108.951849">
        <ele>80.866904</ele>
        <time>2026-08-14T07:19:52.000Z</time>
      </trkpt>
      <trkpt lat="22.782093" lon="108.951896">
        <ele>80.926744</ele>
        <time>2026-08-14T07:19:53.000Z</time>
      </trkpt>
      <trkpt lat="22.782096" lon="108.951942">
        <ele>80.985209</ele>
        <time>2026-08-14T07:19:54.000Z</time>
      </trkpt>
      <trkpt lat="22.782099" lon="108.951987">
        <ele>81.054570</ele>
        <time>2026-08-14T07:19:55.000Z</time>
      </trkpt>
      <trkpt lat="22.782102" lon="108.952033">
        <ele>81.137250</ele>
        <time>2026-08-14T07:19:56.000Z</time>
      </trkpt>
      <trkpt lat="22.782105" lon="108.952080">
        <ele>81.221719</ele>
        <time>2026-08-14T07:19:57.000Z</time>
      </trkpt>
      <trkpt lat="22.782110" lon="108.952126">
        <ele>81.304764</ele>
        <time>2026-08-14T07:19:58.000Z</time>
      </trkpt>
      <trkpt lat="22.782113" lon="108.952174">
        <ele>81.391021</ele>
        <time>2026-08-14T07:19:59.000Z</time>
      </trkpt>
      <trkpt lat="22.782117" lon="108.952221">
        <ele>81.475646</ele>
        <time>2026-08-14T07:20:00.000Z</time>
      </trkpt>
      <trkpt lat="22.782121" lon="108.952268">
        <ele>81.560272</ele>
        <time>2026-08-14T07:20:01.000Z</time>
      </trkpt>
      <trkpt lat="22.782125" lon="108.952316">
        <ele>81.646682</ele>
        <time>2026-08-14T07:20:02.000Z</time>
      </trkpt>
      <trkpt lat="22.782130" lon="108.952363">
        <ele>81.731508</ele>
        <time>2026-08-14T07:20:03.000Z</time>
      </trkpt>
      <trkpt lat="22.782134" lon="108.952410">
        <ele>81.816134</ele>
        <time>2026-08-14T07:20:04.000Z</time>
      </trkpt>
      <trkpt lat="22.782137" lon="108.952456">
        <ele>81.898814</ele>
        <time>2026-08-14T07:20:05.000Z</time>
      </trkpt>
      <trkpt lat="22.782141" lon="108.952502">
        <ele>81.981654</ele>
        <time>2026-08-14T07:20:06.000Z</time>
      </trkpt>
      <trkpt lat="22.782146" lon="108.952549">
        <ele>82.066480</ele>
        <time>2026-08-14T07:20:07.000Z</time>
      </trkpt>
      <trkpt lat="22.782150" lon="108.952595">
        <ele>82.149320</ele>
        <time>2026-08-14T07:20:08.000Z</time>
      </trkpt>
      <trkpt lat="22.782153" lon="108.952642">
        <ele>82.233789</ele>
        <time>2026-08-14T07:20:09.000Z</time>
      </trkpt>
      <trkpt lat="22.782157" lon="108.952689">
        <ele>82.318414</ele>
        <time>2026-08-14T07:20:10.000Z</time>
      </trkpt>
      <trkpt lat="22.782161" lon="108.952734">
        <ele>82.399469</ele>
        <time>2026-08-14T07:20:11.000Z</time>
      </trkpt>
      <trkpt lat="22.782165" lon="108.952780">
        <ele>82.482309</ele>
        <time>2026-08-14T07:20:12.000Z</time>
      </trkpt>
      <trkpt lat="22.782169" lon="108.952825">
        <ele>82.563364</ele>
        <time>2026-08-14T07:20:13.000Z</time>
      </trkpt>
      <trkpt lat="22.782174" lon="108.952871">
        <ele>82.646409</ele>
        <time>2026-08-14T07:20:14.000Z</time>
      </trkpt>
      <trkpt lat="22.782177" lon="108.952916">
        <ele>82.727301</ele>
        <time>2026-08-14T07:20:15.000Z</time>
      </trkpt>
      <trkpt lat="22.782181" lon="108.952961">
        <ele>82.808356</ele>
        <time>2026-08-14T07:20:16.000Z</time>
      </trkpt>
      <trkpt lat="22.782185" lon="108.953005">
        <ele>82.887627</ele>
        <time>2026-08-14T07:20:17.000Z</time>
      </trkpt>
      <trkpt lat="22.782190" lon="108.953049">
        <ele>82.967112</ele>
        <time>2026-08-14T07:20:18.000Z</time>
      </trkpt>
      <trkpt lat="22.782196" lon="108.953092">
        <ele>83.045085</ele>
        <time>2026-08-14T07:20:19.000Z</time>
      </trkpt>
      <trkpt lat="22.782203" lon="108.953132">
        <ele>83.118082</ele>
        <time>2026-08-14T07:20:20.000Z</time>
      </trkpt>
      <trkpt lat="22.782208" lon="108.953171">
        <ele>83.188679</ele>
        <time>2026-08-14T07:20:21.000Z</time>
      </trkpt>
      <trkpt lat="22.782211" lon="108.953211">
        <ele>83.260632</ele>
        <time>2026-08-14T07:20:22.000Z</time>
      </trkpt>
      <trkpt lat="22.782215" lon="108.953251">
        <ele>83.332769</ele>
        <time>2026-08-14T07:20:23.000Z</time>
      </trkpt>
      <trkpt lat="22.782220" lon="108.953291">
        <ele>83.405142</ele>
        <time>2026-08-14T07:20:24.000Z</time>
      </trkpt>
      <trkpt lat="22.782227" lon="108.953331">
        <ele>83.478139</ele>
        <time>2026-08-14T07:20:25.000Z</time>
      </trkpt>
      <trkpt lat="22.782231" lon="108.953371">
        <ele>83.550276</ele>
        <time>2026-08-14T07:20:26.000Z</time>
      </trkpt>
      <trkpt lat="22.782233" lon="108.953411">
        <ele>83.622098</ele>
        <time>2026-08-14T07:20:27.000Z</time>
      </trkpt>
      <trkpt lat="22.782233" lon="108.953449">
        <ele>83.690229</ele>
        <time>2026-08-14T07:20:28.000Z</time>
      </trkpt>
      <trkpt lat="22.782235" lon="108.953486">
        <ele>83.756680</ele>
        <time>2026-08-14T07:20:29.000Z</time>
      </trkpt>
      <trkpt lat="22.782239" lon="108.953523">
        <ele>83.823473</ele>
        <time>2026-08-14T07:20:30.000Z</time>
      </trkpt>
      <trkpt lat="22.782242" lon="108.953564">
        <ele>83.897213</ele>
        <time>2026-08-14T07:20:31.000Z</time>
      </trkpt>
      <trkpt lat="22.782247" lon="108.953605">
        <ele>83.971363</ele>
        <time>2026-08-14T07:20:32.000Z</time>
      </trkpt>
      <trkpt lat="22.782253" lon="108.953647">
        <ele>84.047564</ele>
        <time>2026-08-14T07:20:33.000Z</time>
      </trkpt>
      <trkpt lat="22.782257" lon="108.953690">
        <ele>84.125050</ele>
        <time>2026-08-14T07:20:34.000Z</time>
      </trkpt>
      <trkpt lat="22.782262" lon="108.953733">
        <ele>84.202756</ele>
        <time>2026-08-14T07:20:35.000Z</time>
      </trkpt>
      <trkpt lat="22.782265" lon="108.953777">
        <ele>84.281860</ele>
        <time>2026-08-14T07:20:36.000Z</time>
      </trkpt>
      <trkpt lat="22.782269" lon="108.953823">
        <ele>84.364700</ele>
        <time>2026-08-14T07:20:37.000Z</time>
      </trkpt>
      <trkpt lat="22.782273" lon="108.953868">
        <ele>84.445755</ele>
        <time>2026-08-14T07:20:38.000Z</time>
      </trkpt>
      <trkpt lat="22.782278" lon="108.953914">
        <ele>84.529370</ele>
        <time>2026-08-14T07:20:39.000Z</time>
      </trkpt>
      <trkpt lat="22.782283" lon="108.953959">
        <ele>84.613198</ele>
        <time>2026-08-14T07:20:40.000Z</time>
      </trkpt>
      <trkpt lat="22.782289" lon="108.954004">
        <ele>84.697289</ele>
        <time>2026-08-14T07:20:41.000Z</time>
      </trkpt>
      <trkpt lat="22.782294" lon="108.954048">
        <ele>84.779281</ele>
        <time>2026-08-14T07:20:42.000Z</time>
      </trkpt>
      <trkpt lat="22.782299" lon="108.954092">
        <ele>84.861274</ele>
        <time>2026-08-14T07:20:43.000Z</time>
      </trkpt>
      <trkpt lat="22.782303" lon="108.954137">
        <ele>84.944885</ele>
        <time>2026-08-14T07:20:44.000Z</time>
      </trkpt>
      <trkpt lat="22.782307" lon="108.954181">
        <ele>85.026656</ele>
        <time>2026-08-14T07:20:45.000Z</time>
      </trkpt>
      <trkpt lat="22.782312" lon="108.954227">
        <ele>85.112321</ele>
        <time>2026-08-14T07:20:46.000Z</time>
      </trkpt>
      <trkpt lat="22.782316" lon="108.954272">
        <ele>85.195932</ele>
        <time>2026-08-14T07:20:47.000Z</time>
      </trkpt>
      <trkpt lat="22.782318" lon="108.954318">
        <ele>85.281102</ele>
        <time>2026-08-14T07:20:48.000Z</time>
      </trkpt>
      <trkpt lat="22.782322" lon="108.954364">
        <ele>85.366555</ele>
        <time>2026-08-14T07:20:49.000Z</time>
      </trkpt>
      <trkpt lat="22.782325" lon="108.954410">
        <ele>85.451843</ele>
        <time>2026-08-14T07:20:50.000Z</time>
      </trkpt>
      <trkpt lat="22.782331" lon="108.954456">
        <ele>85.537765</ele>
        <time>2026-08-14T07:20:51.000Z</time>
      </trkpt>
      <trkpt lat="22.782336" lon="108.954502">
        <ele>85.623430</ele>
        <time>2026-08-14T07:20:52.000Z</time>
      </trkpt>
      <trkpt lat="22.782342" lon="108.954548">
        <ele>85.709352</ele>
        <time>2026-08-14T07:20:53.000Z</time>
      </trkpt>
      <trkpt lat="22.782348" lon="108.954593">
        <ele>85.793443</ele>
        <time>2026-08-14T07:20:54.000Z</time>
      </trkpt>
      <trkpt lat="22.782351" lon="108.954639">
        <ele>85.878731</ele>
        <time>2026-08-14T07:20:55.000Z</time>
      </trkpt>
      <trkpt lat="22.782356" lon="108.954685">
        <ele>85.964396</ele>
        <time>2026-08-14T07:20:56.000Z</time>
      </trkpt>
      <trkpt lat="22.782359" lon="108.954731">
        <ele>86.049683</ele>
        <time>2026-08-14T07:20:57.000Z</time>
      </trkpt>
      <trkpt lat="22.782362" lon="108.954777">
        <ele>86.134971</ele>
        <time>2026-08-14T07:20:58.000Z</time>
      </trkpt>
      <trkpt lat="22.782367" lon="108.954824">
        <ele>86.222473</ele>
        <time>2026-08-14T07:20:59.000Z</time>
      </trkpt>
      <trkpt lat="22.782370" lon="108.954871">
        <ele>86.309605</ele>
        <time>2026-08-14T07:21:00.000Z</time>
      </trkpt>
      <trkpt lat="22.782373" lon="108.954918">
        <ele>86.396738</ele>
        <time>2026-08-14T07:21:01.000Z</time>
      </trkpt>
      <trkpt lat="22.782379" lon="108.954965">
        <ele>86.484492</ele>
        <time>2026-08-14T07:21:02.000Z</time>
      </trkpt>
      <trkpt lat="22.782382" lon="108.955011">
        <ele>86.569780</ele>
        <time>2026-08-14T07:21:03.000Z</time>
      </trkpt>
      <trkpt lat="22.782385" lon="108.955057">
        <ele>86.655068</ele>
        <time>2026-08-14T07:21:04.000Z</time>
      </trkpt>
      <trkpt lat="22.782387" lon="108.955103">
        <ele>86.740237</ele>
        <time>2026-08-14T07:21:05.000Z</time>
      </trkpt>
      <trkpt lat="22.782392" lon="108.955149">
        <ele>86.825902</ele>
        <time>2026-08-14T07:21:06.000Z</time>
      </trkpt>
      <trkpt lat="22.782397" lon="108.955193">
        <ele>86.907894</ele>
        <time>2026-08-14T07:21:07.000Z</time>
      </trkpt>
      <trkpt lat="22.782403" lon="108.955236">
        <ele>86.988326</ele>
        <time>2026-08-14T07:21:08.000Z</time>
      </trkpt>
      <trkpt lat="22.782408" lon="108.955280">
        <ele>87.070318</ele>
        <time>2026-08-14T07:21:09.000Z</time>
      </trkpt>
      <trkpt lat="22.782410" lon="108.955324">
        <ele>87.151793</ele>
        <time>2026-08-14T07:21:10.000Z</time>
      </trkpt>
      <trkpt lat="22.782414" lon="108.955369">
        <ele>87.235405</ele>
        <time>2026-08-14T07:21:11.000Z</time>
      </trkpt>
      <trkpt lat="22.782420" lon="108.955413">
        <ele>87.317667</ele>
        <time>2026-08-14T07:21:12.000Z</time>
      </trkpt>
      <trkpt lat="22.782424" lon="108.955456">
        <ele>87.397597</ele>
        <time>2026-08-14T07:21:13.000Z</time>
      </trkpt>
      <trkpt lat="22.782430" lon="108.955501">
        <ele>87.481689</ele>
        <time>2026-08-14T07:21:14.000Z</time>
      </trkpt>
      <trkpt lat="22.782436" lon="108.955544">
        <ele>87.562121</ele>
        <time>2026-08-14T07:21:15.000Z</time>
      </trkpt>
      <trkpt lat="22.782441" lon="108.955588">
        <ele>87.644113</ele>
        <time>2026-08-14T07:21:16.000Z</time>
      </trkpt>
      <trkpt lat="22.782446" lon="108.955632">
        <ele>87.726105</ele>
        <time>2026-08-14T07:21:17.000Z</time>
      </trkpt>
      <trkpt lat="22.782452" lon="108.955675">
        <ele>87.806537</ele>
        <time>2026-08-14T07:21:18.000Z</time>
      </trkpt>
      <trkpt lat="22.782458" lon="108.955719">
        <ele>87.888799</ele>
        <time>2026-08-14T07:21:19.000Z</time>
      </trkpt>
      <trkpt lat="22.782464" lon="108.955763">
        <ele>87.971060</ele>
        <time>2026-08-14T07:21:20.000Z</time>
      </trkpt>
      <trkpt lat="22.782470" lon="108.955806">
        <ele>88.051493</ele>
        <time>2026-08-14T07:21:21.000Z</time>
      </trkpt>
      <trkpt lat="22.782477" lon="108.955849">
        <ele>88.125309</ele>
        <time>2026-08-14T07:21:22.000Z</time>
      </trkpt>
      <trkpt lat="22.782484" lon="108.955892">
        <ele>88.164554</ele>
        <time>2026-08-14T07:21:23.000Z</time>
      </trkpt>
      <trkpt lat="22.782492" lon="108.955935">
        <ele>88.203981</ele>
        <time>2026-08-14T07:21:24.000Z</time>
      </trkpt>
      <trkpt lat="22.782502" lon="108.955978">
        <ele>88.243840</ele>
        <time>2026-08-14T07:21:25.000Z</time>
      </trkpt>
      <trkpt lat="22.782512" lon="108.956022">
        <ele>88.284570</ele>
        <time>2026-08-14T07:21:26.000Z</time>
      </trkpt>
      <trkpt lat="22.782521" lon="108.956066">
        <ele>88.325078</ele>
        <time>2026-08-14T07:21:27.000Z</time>
      </trkpt>
      <trkpt lat="22.782529" lon="108.956111">
        <ele>88.366268</ele>
        <time>2026-08-14T07:21:28.000Z</time>
      </trkpt>
      <trkpt lat="22.782539" lon="108.956156">
        <ele>88.407872</ele>
        <time>2026-08-14T07:21:29.000Z</time>
      </trkpt>
      <trkpt lat="22.782550" lon="108.956202">
        <ele>88.450584</ele>
        <time>2026-08-14T07:21:30.000Z</time>
      </trkpt>
      <trkpt lat="22.782561" lon="108.956247">
        <ele>88.492427</ele>
        <time>2026-08-14T07:21:31.000Z</time>
      </trkpt>
      <trkpt lat="22.782573" lon="108.956292">
        <ele>88.534530</ele>
        <time>2026-08-14T07:21:32.000Z</time>
      </trkpt>
      <trkpt lat="22.782585" lon="108.956337">
        <ele>88.576633</ele>
        <time>2026-08-14T07:21:33.000Z</time>
      </trkpt>
      <trkpt lat="22.782595" lon="108.956384">
        <ele>88.619986</ele>
        <time>2026-08-14T07:21:34.000Z</time>
      </trkpt>
      <trkpt lat="22.782607" lon="108.956432">
        <ele>88.664686</ele>
        <time>2026-08-14T07:21:35.000Z</time>
      </trkpt>
      <trkpt lat="22.782621" lon="108.956479">
        <ele>88.709079</ele>
        <time>2026-08-14T07:21:36.000Z</time>
      </trkpt>
      <trkpt lat="22.782635" lon="108.956526">
        <ele>88.753472</ele>
        <time>2026-08-14T07:21:37.000Z</time>
      </trkpt>
      <trkpt lat="22.782647" lon="108.956573">
        <ele>88.797304</ele>
        <time>2026-08-14T07:21:38.000Z</time>
      </trkpt>
      <trkpt lat="22.782659" lon="108.956620">
        <ele>88.841137</ele>
        <time>2026-08-14T07:21:39.000Z</time>
      </trkpt>
      <trkpt lat="22.782671" lon="108.956668">
        <ele>88.885837</ele>
        <time>2026-08-14T07:21:40.000Z</time>
      </trkpt>
      <trkpt lat="22.782683" lon="108.956715">
        <ele>88.929669</ele>
        <time>2026-08-14T07:21:41.000Z</time>
      </trkpt>
      <trkpt lat="22.782697" lon="108.956762">
        <ele>88.974062</ele>
        <time>2026-08-14T07:21:42.000Z</time>
      </trkpt>
      <trkpt lat="22.782711" lon="108.956810">
        <ele>89.019311</ele>
        <time>2026-08-14T07:21:43.000Z</time>
      </trkpt>
      <trkpt lat="22.782726" lon="108.956858">
        <ele>89.064863</ele>
        <time>2026-08-14T07:21:44.000Z</time>
      </trkpt>
      <trkpt lat="22.782740" lon="108.956904">
        <ele>89.108402</ele>
        <time>2026-08-14T07:21:45.000Z</time>
      </trkpt>
      <trkpt lat="22.782755" lon="108.956952">
        <ele>89.153954</ele>
        <time>2026-08-14T07:21:46.000Z</time>
      </trkpt>
      <trkpt lat="22.782770" lon="108.956999">
        <ele>89.198656</ele>
        <time>2026-08-14T07:21:47.000Z</time>
      </trkpt>
      <trkpt lat="22.782785" lon="108.957046">
        <ele>89.243359</ele>
        <time>2026-08-14T07:21:48.000Z</time>
      </trkpt>
      <trkpt lat="22.782801" lon="108.957095">
        <ele>89.290079</ele>
        <time>2026-08-14T07:21:49.000Z</time>
      </trkpt>
      <trkpt lat="22.782816" lon="108.957144">
        <ele>89.336484</ele>
        <time>2026-08-14T07:21:50.000Z</time>
      </trkpt>
      <trkpt lat="22.782831" lon="108.957192">
        <ele>89.382036</ele>
        <time>2026-08-14T07:21:51.000Z</time>
      </trkpt>
      <trkpt lat="22.782846" lon="108.957241">
        <ele>89.428441</ele>
        <time>2026-08-14T07:21:52.000Z</time>
      </trkpt>
      <trkpt lat="22.782862" lon="108.957290">
        <ele>89.475162</ele>
        <time>2026-08-14T07:21:53.000Z</time>
      </trkpt>
      <trkpt lat="22.782878" lon="108.957340">
        <ele>89.522731</ele>
        <time>2026-08-14T07:21:54.000Z</time>
      </trkpt>
      <trkpt lat="22.782892" lon="108.957390">
        <ele>89.569697</ele>
        <time>2026-08-14T07:21:55.000Z</time>
      </trkpt>
      <trkpt lat="22.782906" lon="108.957439">
        <ele>89.615803</ele>
        <time>2026-08-14T07:21:56.000Z</time>
      </trkpt>
      <trkpt lat="22.782921" lon="108.957489">
        <ele>89.663062</ele>
        <time>2026-08-14T07:21:57.000Z</time>
      </trkpt>
      <trkpt lat="22.782935" lon="108.957540">
        <ele>89.710888</ele>
        <time>2026-08-14T07:21:58.000Z</time>
      </trkpt>
      <trkpt lat="22.782950" lon="108.957592">
        <ele>89.759859</ele>
        <time>2026-08-14T07:21:59.000Z</time>
      </trkpt>
      <trkpt lat="22.782964" lon="108.957642">
        <ele>89.806825</ele>
        <time>2026-08-14T07:22:00.000Z</time>
      </trkpt>
      <trkpt lat="22.782978" lon="108.957693">
        <ele>89.854651</ele>
        <time>2026-08-14T07:22:01.000Z</time>
      </trkpt>
      <trkpt lat="22.782990" lon="108.957745">
        <ele>89.863142</ele>
        <time>2026-08-14T07:22:02.000Z</time>
      </trkpt>
      <trkpt lat="22.783001" lon="108.957798">
        <ele>89.848827</ele>
        <time>2026-08-14T07:22:03.000Z</time>
      </trkpt>
      <trkpt lat="22.783013" lon="108.957851">
        <ele>89.834446</ele>
        <time>2026-08-14T07:22:04.000Z</time>
      </trkpt>
      <trkpt lat="22.783025" lon="108.957905">
        <ele>89.819810</ele>
        <time>2026-08-14T07:22:05.000Z</time>
      </trkpt>
      <trkpt lat="22.783036" lon="108.957958">
        <ele>89.805494</ele>
        <time>2026-08-14T07:22:06.000Z</time>
      </trkpt>
      <trkpt lat="22.783046" lon="108.958013">
        <ele>89.790723</ele>
        <time>2026-08-14T07:22:07.000Z</time>
      </trkpt>
      <trkpt lat="22.783054" lon="108.958068">
        <ele>89.776051</ele>
        <time>2026-08-14T07:22:08.000Z</time>
      </trkpt>
      <trkpt lat="22.783061" lon="108.958123">
        <ele>89.761421</ele>
        <time>2026-08-14T07:22:09.000Z</time>
      </trkpt>
      <trkpt lat="22.783068" lon="108.958179">
        <ele>89.746530</ele>
        <time>2026-08-14T07:22:10.000Z</time>
      </trkpt>
      <trkpt lat="22.783074" lon="108.958233">
        <ele>89.732198</ele>
        <time>2026-08-14T07:22:11.000Z</time>
      </trkpt>
      <trkpt lat="22.783079" lon="108.958287">
        <ele>89.717897</ele>
        <time>2026-08-14T07:22:12.000Z</time>
      </trkpt>
      <trkpt lat="22.783083" lon="108.958342">
        <ele>89.703359</ele>
        <time>2026-08-14T07:22:13.000Z</time>
      </trkpt>
      <trkpt lat="22.783086" lon="108.958397">
        <ele>89.688842</ele>
        <time>2026-08-14T07:22:14.000Z</time>
      </trkpt>
      <trkpt lat="22.783087" lon="108.958454">
        <ele>89.673819</ele>
        <time>2026-08-14T07:22:15.000Z</time>
      </trkpt>
      <trkpt lat="22.783087" lon="108.958510">
        <ele>89.659063</ele>
        <time>2026-08-14T07:22:16.000Z</time>
      </trkpt>
      <trkpt lat="22.783086" lon="108.958567">
        <ele>89.644041</ele>
        <time>2026-08-14T07:22:17.000Z</time>
      </trkpt>
      <trkpt lat="22.783085" lon="108.958624">
        <ele>89.629018</ele>
        <time>2026-08-14T07:22:18.000Z</time>
      </trkpt>
      <trkpt lat="22.783081" lon="108.958681">
        <ele>89.613955</ele>
        <time>2026-08-14T07:22:19.000Z</time>
      </trkpt>
      <trkpt lat="22.783077" lon="108.958738">
        <ele>89.598892</ele>
        <time>2026-08-14T07:22:20.000Z</time>
      </trkpt>
      <trkpt lat="22.783073" lon="108.958794">
        <ele>89.584092</ele>
        <time>2026-08-14T07:22:21.000Z</time>
      </trkpt>
      <trkpt lat="22.783069" lon="108.958851">
        <ele>89.569029</ele>
        <time>2026-08-14T07:22:22.000Z</time>
      </trkpt>
      <trkpt lat="22.783062" lon="108.958907">
        <ele>89.554138</ele>
        <time>2026-08-14T07:22:23.000Z</time>
      </trkpt>
      <trkpt lat="22.783054" lon="108.958963">
        <ele>89.539206</ele>
        <time>2026-08-14T07:22:24.000Z</time>
      </trkpt>
      <trkpt lat="22.783045" lon="108.959019">
        <ele>89.524227</ele>
        <time>2026-08-14T07:22:25.000Z</time>
      </trkpt>
      <trkpt lat="22.783035" lon="108.959077">
        <ele>89.508679</ele>
        <time>2026-08-14T07:22:26.000Z</time>
      </trkpt>
      <trkpt lat="22.783026" lon="108.959137">
        <ele>89.492661</ele>
        <time>2026-08-14T07:22:27.000Z</time>
      </trkpt>
      <trkpt lat="22.783016" lon="108.959196">
        <ele>89.476854</ele>
        <time>2026-08-14T07:22:28.000Z</time>
      </trkpt>
      <trkpt lat="22.783004" lon="108.959255">
        <ele>89.460934</ele>
        <time>2026-08-14T07:22:29.000Z</time>
      </trkpt>
      <trkpt lat="22.782991" lon="108.959314">
        <ele>89.444949</ele>
        <time>2026-08-14T07:22:30.000Z</time>
      </trkpt>
      <trkpt lat="22.782977" lon="108.959373">
        <ele>89.428896</ele>
        <time>2026-08-14T07:22:31.000Z</time>
      </trkpt>
      <trkpt lat="22.782962" lon="108.959433">
        <ele>89.412515</ele>
        <time>2026-08-14T07:22:32.000Z</time>
      </trkpt>
      <trkpt lat="22.782947" lon="108.959492">
        <ele>89.396388</ele>
        <time>2026-08-14T07:22:33.000Z</time>
      </trkpt>
      <trkpt lat="22.782930" lon="108.959550">
        <ele>89.380351</ele>
        <time>2026-08-14T07:22:34.000Z</time>
      </trkpt>
      <trkpt lat="22.782912" lon="108.959609">
        <ele>89.363976</ele>
        <time>2026-08-14T07:22:35.000Z</time>
      </trkpt>
      <trkpt lat="22.782894" lon="108.959667">
        <ele>89.301813</ele>
        <time>2026-08-14T07:22:36.000Z</time>
      </trkpt>
      <trkpt lat="22.782874" lon="108.959726">
        <ele>89.210753</ele>
        <time>2026-08-14T07:22:37.000Z</time>
      </trkpt>
      <trkpt lat="22.782854" lon="108.959785">
        <ele>89.119694</ele>
        <time>2026-08-14T07:22:38.000Z</time>
      </trkpt>
      <trkpt lat="22.782834" lon="108.959847">
        <ele>89.024544</ele>
        <time>2026-08-14T07:22:39.000Z</time>
      </trkpt>
      <trkpt lat="22.782814" lon="108.959910">
        <ele>88.928025</ele>
        <time>2026-08-14T07:22:40.000Z</time>
      </trkpt>
      <trkpt lat="22.782793" lon="108.959973">
        <ele>88.830983</ele>
        <time>2026-08-14T07:22:41.000Z</time>
      </trkpt>
      <trkpt lat="22.782771" lon="108.960036">
        <ele>88.733396</ele>
        <time>2026-08-14T07:22:42.000Z</time>
      </trkpt>
      <trkpt lat="22.782750" lon="108.960100">
        <ele>88.634991</ele>
        <time>2026-08-14T07:22:43.000Z</time>
      </trkpt>
      <trkpt lat="22.782731" lon="108.960162">
        <ele>88.540348</ele>
        <time>2026-08-14T07:22:44.000Z</time>
      </trkpt>
      <trkpt lat="22.782713" lon="108.960225">
        <ele>88.444806</ele>
        <time>2026-08-14T07:22:45.000Z</time>
      </trkpt>
      <trkpt lat="22.782696" lon="108.960289">
        <ele>88.348326</ele>
        <time>2026-08-14T07:22:46.000Z</time>
      </trkpt>
      <trkpt lat="22.782676" lon="108.960353">
        <ele>88.250437</ele>
        <time>2026-08-14T07:22:47.000Z</time>
      </trkpt>
      <trkpt lat="22.782655" lon="108.960417">
        <ele>88.152032</ele>
        <time>2026-08-14T07:22:48.000Z</time>
      </trkpt>
      <trkpt lat="22.782635" lon="108.960482">
        <ele>88.052769</ele>
        <time>2026-08-14T07:22:49.000Z</time>
      </trkpt>
      <trkpt lat="22.782617" lon="108.960549">
        <ele>87.951678</ele>
        <time>2026-08-14T07:22:50.000Z</time>
      </trkpt>
      <trkpt lat="22.782600" lon="108.960615">
        <ele>87.852411</ele>
        <time>2026-08-14T07:22:51.000Z</time>
      </trkpt>
      <trkpt lat="22.782582" lon="108.960682">
        <ele>87.751320</ele>
        <time>2026-08-14T07:22:52.000Z</time>
      </trkpt>
      <trkpt lat="22.782564" lon="108.960750">
        <ele>87.648837</ele>
        <time>2026-08-14T07:22:53.000Z</time>
      </trkpt>
      <trkpt lat="22.782547" lon="108.960818">
        <ele>87.546776</ele>
        <time>2026-08-14T07:22:54.000Z</time>
      </trkpt>
      <trkpt lat="22.782530" lon="108.960888">
        <ele>87.441917</ele>
        <time>2026-08-14T07:22:55.000Z</time>
      </trkpt>
      <trkpt lat="22.782513" lon="108.960957">
        <ele>87.338458</ele>
        <time>2026-08-14T07:22:56.000Z</time>
      </trkpt>
      <trkpt lat="22.782497" lon="108.961027">
        <ele>87.233988</ele>
        <time>2026-08-14T07:22:57.000Z</time>
      </trkpt>
      <trkpt lat="22.782481" lon="108.961098">
        <ele>87.128111</ele>
        <time>2026-08-14T07:22:58.000Z</time>
      </trkpt>
      <trkpt lat="22.782468" lon="108.961171">
        <ele>87.020410</ele>
        <time>2026-08-14T07:22:59.000Z</time>
      </trkpt>
      <trkpt lat="22.782456" lon="108.961245">
        <ele>86.911570</ele>
        <time>2026-08-14T07:23:00.000Z</time>
      </trkpt>
      <trkpt lat="22.782444" lon="108.961320">
        <ele>86.801302</ele>
        <time>2026-08-14T07:23:01.000Z</time>
      </trkpt>
      <trkpt lat="22.782431" lon="108.961393">
        <ele>86.693602</ele>
        <time>2026-08-14T07:23:02.000Z</time>
      </trkpt>
      <trkpt lat="22.782419" lon="108.961467">
        <ele>86.584761</ele>
        <time>2026-08-14T07:23:03.000Z</time>
      </trkpt>
      <trkpt lat="22.782409" lon="108.961542">
        <ele>86.507397</ele>
        <time>2026-08-14T07:23:04.000Z</time>
      </trkpt>
      <trkpt lat="22.782400" lon="108.961616">
        <ele>86.460597</ele>
        <time>2026-08-14T07:23:05.000Z</time>
      </trkpt>
      <trkpt lat="22.782392" lon="108.961691">
        <ele>86.413259</ele>
        <time>2026-08-14T07:23:06.000Z</time>
      </trkpt>
      <trkpt lat="22.782385" lon="108.961766">
        <ele>86.365993</ele>
        <time>2026-08-14T07:23:07.000Z</time>
      </trkpt>
      <trkpt lat="22.782379" lon="108.961841">
        <ele>86.318792</ele>
        <time>2026-08-14T07:23:08.000Z</time>
      </trkpt>
      <trkpt lat="22.782374" lon="108.961917">
        <ele>86.271018</ele>
        <time>2026-08-14T07:23:09.000Z</time>
      </trkpt>
      <trkpt lat="22.782368" lon="108.961992">
        <ele>86.223817</ele>
        <time>2026-08-14T07:23:10.000Z</time>
      </trkpt>
      <trkpt lat="22.782362" lon="108.962068">
        <ele>86.175990</ele>
        <time>2026-08-14T07:23:11.000Z</time>
      </trkpt>
      <trkpt lat="22.782358" lon="108.962143">
        <ele>86.128887</ele>
        <time>2026-08-14T07:23:12.000Z</time>
      </trkpt>
      <trkpt lat="22.782355" lon="108.962216">
        <ele>86.083070</ele>
        <time>2026-08-14T07:23:13.000Z</time>
      </trkpt>
      <trkpt lat="22.782353" lon="108.962290">
        <ele>86.036652</ele>
        <time>2026-08-14T07:23:14.000Z</time>
      </trkpt>
      <trkpt lat="22.782353" lon="108.962363">
        <ele>85.990881</ele>
        <time>2026-08-14T07:23:15.000Z</time>
      </trkpt>
      <trkpt lat="22.782354" lon="108.962436">
        <ele>85.945105</ele>
        <time>2026-08-14T07:23:16.000Z</time>
      </trkpt>
      <trkpt lat="22.782353" lon="108.962509">
        <ele>85.899329</ele>
        <time>2026-08-14T07:23:17.000Z</time>
      </trkpt>
      <trkpt lat="22.782350" lon="108.962577">
        <ele>85.856644</ele>
        <time>2026-08-14T07:23:18.000Z</time>
      </trkpt>
      <trkpt lat="22.782346" lon="108.962642">
        <ele>85.815798</ele>
        <time>2026-08-14T07:23:19.000Z</time>
      </trkpt>
      <trkpt lat="22.782349" lon="108.962708">
        <ele>85.774366</ele>
        <time>2026-08-14T07:23:20.000Z</time>
      </trkpt>
      <trkpt lat="22.782353" lon="108.962774">
        <ele>85.732895</ele>
        <time>2026-08-14T07:23:21.000Z</time>
      </trkpt>
      <trkpt lat="22.782361" lon="108.962838">
        <ele>85.692399</ele>
        <time>2026-08-14T07:23:22.000Z</time>
      </trkpt>
      <trkpt lat="22.782364" lon="108.962903">
        <ele>85.651593</ele>
        <time>2026-08-14T07:23:23.000Z</time>
      </trkpt>
      <trkpt lat="22.782368" lon="108.962967">
        <ele>85.611373</ele>
        <time>2026-08-14T07:23:24.000Z</time>
      </trkpt>
      <trkpt lat="22.782375" lon="108.963031">
        <ele>85.570964</ele>
        <time>2026-08-14T07:23:25.000Z</time>
      </trkpt>
      <trkpt lat="22.782384" lon="108.963095">
        <ele>85.530372</ele>
        <time>2026-08-14T07:23:26.000Z</time>
      </trkpt>
      <trkpt lat="22.782394" lon="108.963158">
        <ele>85.490289</ele>
        <time>2026-08-14T07:23:27.000Z</time>
      </trkpt>
      <trkpt lat="22.782402" lon="108.963219">
        <ele>85.451657</ele>
        <time>2026-08-14T07:23:28.000Z</time>
      </trkpt>
      <trkpt lat="22.782413" lon="108.963275">
        <ele>85.415757</ele>
        <time>2026-08-14T07:23:29.000Z</time>
      </trkpt>
      <trkpt lat="22.782424" lon="108.963330">
        <ele>85.380470</ele>
        <time>2026-08-14T07:23:30.000Z</time>
      </trkpt>
      <trkpt lat="22.782434" lon="108.963388">
        <ele>85.343474</ele>
        <time>2026-08-14T07:23:31.000Z</time>
      </trkpt>
      <trkpt lat="22.782442" lon="108.963449">
        <ele>85.316921</ele>
        <time>2026-08-14T07:23:32.000Z</time>
      </trkpt>
      <trkpt lat="22.782451" lon="108.963507">
        <ele>85.388441</ele>
        <time>2026-08-14T07:23:33.000Z</time>
      </trkpt>
      <trkpt lat="22.782460" lon="108.963563">
        <ele>85.457564</ele>
        <time>2026-08-14T07:23:34.000Z</time>
      </trkpt>
      <trkpt lat="22.782470" lon="108.963617">
        <ele>85.524540</ele>
        <time>2026-08-14T07:23:35.000Z</time>
      </trkpt>
      <trkpt lat="22.782482" lon="108.963671">
        <ele>85.592085</ele>
        <time>2026-08-14T07:23:36.000Z</time>
      </trkpt>
      <trkpt lat="22.782493" lon="108.963724">
        <ele>85.658146</ele>
        <time>2026-08-14T07:23:37.000Z</time>
      </trkpt>
      <trkpt lat="22.782505" lon="108.963774">
        <ele>85.720972</ele>
        <time>2026-08-14T07:23:38.000Z</time>
      </trkpt>
      <trkpt lat="22.782516" lon="108.963823">
        <ele>85.782297</ele>
        <time>2026-08-14T07:23:39.000Z</time>
      </trkpt>
      <trkpt lat="22.782529" lon="108.963871">
        <ele>85.843131</ele>
        <time>2026-08-14T07:23:40.000Z</time>
      </trkpt>
      <trkpt lat="22.782542" lon="108.963917">
        <ele>85.901636</ele>
        <time>2026-08-14T07:23:41.000Z</time>
      </trkpt>
      <trkpt lat="22.782555" lon="108.963963">
        <ele>85.960141</ele>
        <time>2026-08-14T07:23:42.000Z</time>
      </trkpt>
      <trkpt lat="22.782569" lon="108.964009">
        <ele>86.019046</ele>
        <time>2026-08-14T07:23:43.000Z</time>
      </trkpt>
      <trkpt lat="22.782581" lon="108.964055">
        <ele>86.077178</ele>
        <time>2026-08-14T07:23:44.000Z</time>
      </trkpt>
      <trkpt lat="22.782594" lon="108.964100">
        <ele>86.134522</ele>
        <time>2026-08-14T07:23:45.000Z</time>
      </trkpt>
      <trkpt lat="22.782608" lon="108.964144">
        <ele>86.191122</ele>
        <time>2026-08-14T07:23:46.000Z</time>
      </trkpt>
      <trkpt lat="22.782623" lon="108.964188">
        <ele>86.248167</ele>
        <time>2026-08-14T07:23:47.000Z</time>
      </trkpt>
      <trkpt lat="22.782637" lon="108.964232">
        <ele>86.304767</ele>
        <time>2026-08-14T07:23:48.000Z</time>
      </trkpt>
      <trkpt lat="22.782649" lon="108.964275">
        <ele>86.359398</ele>
        <time>2026-08-14T07:23:49.000Z</time>
      </trkpt>
      <trkpt lat="22.782663" lon="108.964317">
        <ele>86.413706</ele>
        <time>2026-08-14T07:23:50.000Z</time>
      </trkpt>
      <trkpt lat="22.782678" lon="108.964358">
        <ele>86.467343</ele>
        <time>2026-08-14T07:23:51.000Z</time>
      </trkpt>
      <trkpt lat="22.782692" lon="108.964398">
        <ele>86.519370</ele>
        <time>2026-08-14T07:23:52.000Z</time>
      </trkpt>
      <trkpt lat="22.782706" lon="108.964439">
        <ele>86.572536</ele>
        <time>2026-08-14T07:23:53.000Z</time>
      </trkpt>
      <trkpt lat="22.782722" lon="108.964481">
        <ele>86.627796</ele>
        <time>2026-08-14T07:23:54.000Z</time>
      </trkpt>
      <trkpt lat="22.782740" lon="108.964525">
        <ele>86.686330</ele>
        <time>2026-08-14T07:23:55.000Z</time>
      </trkpt>
      <trkpt lat="22.782758" lon="108.964568">
        <ele>86.743755</ele>
        <time>2026-08-14T07:23:56.000Z</time>
      </trkpt>
      <trkpt lat="22.782775" lon="108.964611">
        <ele>86.800648</ele>
        <time>2026-08-14T07:23:57.000Z</time>
      </trkpt>
      <trkpt lat="22.782792" lon="108.964655">
        <ele>86.858660</ele>
        <time>2026-08-14T07:23:58.000Z</time>
      </trkpt>
      <trkpt lat="22.782810" lon="108.964700">
        <ele>86.918308</ele>
        <time>2026-08-14T07:23:59.000Z</time>
      </trkpt>
      <trkpt lat="22.782828" lon="108.964744">
        <ele>86.976842</ele>
        <time>2026-08-14T07:24:00.000Z</time>
      </trkpt>
      <trkpt lat="22.782849" lon="108.964790">
        <ele>87.039260</ele>
        <time>2026-08-14T07:24:01.000Z</time>
      </trkpt>
      <trkpt lat="22.782868" lon="108.964833">
        <ele>87.097243</ele>
        <time>2026-08-14T07:24:02.000Z</time>
      </trkpt>
      <trkpt lat="22.782887" lon="108.964876">
        <ele>87.155225</ele>
        <time>2026-08-14T07:24:03.000Z</time>
      </trkpt>
      <trkpt lat="22.782908" lon="108.964919">
        <ele>87.214396</ele>
        <time>2026-08-14T07:24:04.000Z</time>
      </trkpt>
      <trkpt lat="22.782930" lon="108.964962">
        <ele>87.274195</ele>
        <time>2026-08-14T07:24:05.000Z</time>
      </trkpt>
      <trkpt lat="22.782952" lon="108.965005">
        <ele>87.333994</ele>
        <time>2026-08-14T07:24:06.000Z</time>
      </trkpt>
      <trkpt lat="22.782973" lon="108.965048">
        <ele>87.393165</ele>
        <time>2026-08-14T07:24:07.000Z</time>
      </trkpt>
      <trkpt lat="22.782995" lon="108.965089">
        <ele>87.450850</ele>
        <time>2026-08-14T07:24:08.000Z</time>
      </trkpt>
      <trkpt lat="22.783018" lon="108.965129">
        <ele>87.508174</ele>
        <time>2026-08-14T07:24:09.000Z</time>
      </trkpt>
      <trkpt lat="22.783039" lon="108.965168">
        <ele>87.563093</ele>
        <time>2026-08-14T07:24:10.000Z</time>
      </trkpt>
      <trkpt lat="22.783060" lon="108.965208">
        <ele>87.619066</ele>
        <time>2026-08-14T07:24:11.000Z</time>
      </trkpt>
      <trkpt lat="22.783079" lon="108.965249">
        <ele>87.674865</ele>
        <time>2026-08-14T07:24:12.000Z</time>
      </trkpt>
      <trkpt lat="22.783098" lon="108.965290">
        <ele>87.721219</ele>
        <time>2026-08-14T07:24:13.000Z</time>
      </trkpt>
      <trkpt lat="22.783118" lon="108.965331">
        <ele>87.766855</ele>
        <time>2026-08-14T07:24:14.000Z</time>
      </trkpt>
      <trkpt lat="22.783137" lon="108.965372">
        <ele>87.812001</ele>
        <time>2026-08-14T07:24:15.000Z</time>
      </trkpt>
      <trkpt lat="22.783157" lon="108.965412">
        <ele>87.856770</ele>
        <time>2026-08-14T07:24:16.000Z</time>
      </trkpt>
      <trkpt lat="22.783177" lon="108.965454">
        <ele>87.903278</ele>
        <time>2026-08-14T07:24:17.000Z</time>
      </trkpt>
      <trkpt lat="22.783198" lon="108.965496">
        <ele>87.950285</ele>
        <time>2026-08-14T07:24:18.000Z</time>
      </trkpt>
      <trkpt lat="22.783218" lon="108.965537">
        <ele>87.995921</ele>
        <time>2026-08-14T07:24:19.000Z</time>
      </trkpt>
      <trkpt lat="22.783237" lon="108.965577">
        <ele>88.040191</ele>
        <time>2026-08-14T07:24:20.000Z</time>
      </trkpt>
      <trkpt lat="22.783258" lon="108.965619">
        <ele>88.087198</ele>
        <time>2026-08-14T07:24:21.000Z</time>
      </trkpt>
      <trkpt lat="22.783279" lon="108.965661">
        <ele>88.134205</ele>
        <time>2026-08-14T07:24:22.000Z</time>
      </trkpt>
      <trkpt lat="22.783300" lon="108.965704">
        <ele>88.182079</ele>
        <time>2026-08-14T07:24:23.000Z</time>
      </trkpt>
      <trkpt lat="22.783320" lon="108.965746">
        <ele>88.228587</ele>
        <time>2026-08-14T07:24:24.000Z</time>
      </trkpt>
      <trkpt lat="22.783342" lon="108.965789">
        <ele>88.276970</ele>
        <time>2026-08-14T07:24:25.000Z</time>
      </trkpt>
      <trkpt lat="22.783365" lon="108.965830">
        <ele>88.324188</ele>
        <time>2026-08-14T07:24:26.000Z</time>
      </trkpt>
      <trkpt lat="22.783386" lon="108.965871">
        <ele>88.370333</ele>
        <time>2026-08-14T07:24:27.000Z</time>
      </trkpt>
      <trkpt lat="22.783409" lon="108.965915">
        <ele>88.420096</ele>
        <time>2026-08-14T07:24:28.000Z</time>
      </trkpt>
      <trkpt lat="22.783431" lon="108.965956">
        <ele>88.466768</ele>
        <time>2026-08-14T07:24:29.000Z</time>
      </trkpt>
      <trkpt lat="22.783453" lon="108.965998">
        <ele>88.514293</ele>
        <time>2026-08-14T07:24:30.000Z</time>
      </trkpt>
      <trkpt lat="22.783475" lon="108.966041">
        <ele>88.562676</ele>
        <time>2026-08-14T07:24:31.000Z</time>
      </trkpt>
      <trkpt lat="22.783496" lon="108.966084">
        <ele>88.610550</ele>
        <time>2026-08-14T07:24:32.000Z</time>
      </trkpt>
      <trkpt lat="22.783517" lon="108.966127">
        <ele>88.658424</ele>
        <time>2026-08-14T07:24:33.000Z</time>
      </trkpt>
      <trkpt lat="22.783537" lon="108.966170">
        <ele>88.705808</ele>
        <time>2026-08-14T07:24:34.000Z</time>
      </trkpt>
      <trkpt lat="22.783556" lon="108.966216">
        <ele>88.755399</ele>
        <time>2026-08-14T07:24:35.000Z</time>
      </trkpt>
      <trkpt lat="22.783577" lon="108.966261">
        <ele>88.805021</ele>
        <time>2026-08-14T07:24:36.000Z</time>
      </trkpt>
      <trkpt lat="22.783597" lon="108.966304">
        <ele>88.852405</ele>
        <time>2026-08-14T07:24:37.000Z</time>
      </trkpt>
      <trkpt lat="22.783615" lon="108.966347">
        <ele>88.898867</ele>
        <time>2026-08-14T07:24:38.000Z</time>
      </trkpt>
      <trkpt lat="22.783633" lon="108.966389">
        <ele>88.944435</ele>
        <time>2026-08-14T07:24:39.000Z</time>
      </trkpt>
      <trkpt lat="22.783652" lon="108.966431">
        <ele>88.990463</ele>
        <time>2026-08-14T07:24:40.000Z</time>
      </trkpt>
      <trkpt lat="22.783670" lon="108.966474">
        <ele>89.036924</ele>
        <time>2026-08-14T07:24:41.000Z</time>
      </trkpt>
      <trkpt lat="22.783687" lon="108.966518">
        <ele>89.083861</ele>
        <time>2026-08-14T07:24:42.000Z</time>
      </trkpt>
      <trkpt lat="22.783705" lon="108.966561">
        <ele>89.130323</ele>
        <time>2026-08-14T07:24:43.000Z</time>
      </trkpt>
      <trkpt lat="22.783723" lon="108.966605">
        <ele>89.177682</ele>
        <time>2026-08-14T07:24:44.000Z</time>
      </trkpt>
      <trkpt lat="22.783741" lon="108.966648">
        <ele>89.224144</ele>
        <time>2026-08-14T07:24:45.000Z</time>
      </trkpt>
      <trkpt lat="22.783758" lon="108.966693">
        <ele>89.271990</ele>
        <time>2026-08-14T07:24:46.000Z</time>
      </trkpt>
      <trkpt lat="22.783775" lon="108.966739">
        <ele>89.320747</ele>
        <time>2026-08-14T07:24:47.000Z</time>
      </trkpt>
      <trkpt lat="22.783793" lon="108.966784">
        <ele>89.369008</ele>
        <time>2026-08-14T07:24:48.000Z</time>
      </trkpt>
      <trkpt lat="22.783809" lon="108.966829">
        <ele>89.416459</ele>
        <time>2026-08-14T07:24:49.000Z</time>
      </trkpt>
      <trkpt lat="22.783824" lon="108.966876">
        <ele>89.465392</ele>
        <time>2026-08-14T07:24:50.000Z</time>
      </trkpt>
      <trkpt lat="22.783838" lon="108.966923">
        <ele>89.513986</ele>
        <time>2026-08-14T07:24:51.000Z</time>
      </trkpt>
      <trkpt lat="22.783851" lon="108.966970">
        <ele>89.562263</ele>
        <time>2026-08-14T07:24:52.000Z</time>
      </trkpt>
      <trkpt lat="22.783864" lon="108.967017">
        <ele>89.607500</ele>
        <time>2026-08-14T07:24:53.000Z</time>
      </trkpt>
      <trkpt lat="22.783878" lon="108.967064">
        <ele>89.641321</ele>
        <time>2026-08-14T07:24:54.000Z</time>
      </trkpt>
      <trkpt lat="22.783893" lon="108.967111">
        <ele>89.675379</ele>
        <time>2026-08-14T07:24:55.000Z</time>
      </trkpt>
      <trkpt lat="22.783907" lon="108.967158">
        <ele>89.709201</ele>
        <time>2026-08-14T07:24:56.000Z</time>
      </trkpt>
      <trkpt lat="22.783921" lon="108.967205">
        <ele>89.743023</ele>
        <time>2026-08-14T07:24:57.000Z</time>
      </trkpt>
      <trkpt lat="22.783935" lon="108.967254">
        <ele>89.778150</ele>
        <time>2026-08-14T07:24:58.000Z</time>
      </trkpt>
      <trkpt lat="22.783949" lon="108.967301">
        <ele>89.811972</ele>
        <time>2026-08-14T07:24:59.000Z</time>
      </trkpt>
      <trkpt lat="22.783962" lon="108.967349">
        <ele>89.846230</ele>
        <time>2026-08-14T07:25:00.000Z</time>
      </trkpt>
      <trkpt lat="22.783975" lon="108.967399">
        <ele>89.881803</ele>
        <time>2026-08-14T07:25:01.000Z</time>
      </trkpt>
      <trkpt lat="22.783986" lon="108.967447">
        <ele>89.915672</ele>
        <time>2026-08-14T07:25:02.000Z</time>
      </trkpt>
      <trkpt lat="22.783996" lon="108.967498">
        <ele>89.951376</ele>
        <time>2026-08-14T07:25:03.000Z</time>
      </trkpt>
      <trkpt lat="22.784006" lon="108.967550">
        <ele>89.987750</ele>
        <time>2026-08-14T07:25:04.000Z</time>
      </trkpt>
      <trkpt lat="22.784017" lon="108.967601">
        <ele>90.023616</ele>
        <time>2026-08-14T07:25:05.000Z</time>
      </trkpt>
      <trkpt lat="22.784028" lon="108.967652">
        <ele>90.059481</ele>
        <time>2026-08-14T07:25:06.000Z</time>
      </trkpt>
      <trkpt lat="22.784037" lon="108.967703">
        <ele>90.095038</ele>
        <time>2026-08-14T07:25:07.000Z</time>
      </trkpt>
      <trkpt lat="22.784045" lon="108.967754">
        <ele>90.130463</ele>
        <time>2026-08-14T07:25:08.000Z</time>
      </trkpt>
      <trkpt lat="22.784052" lon="108.967806">
        <ele>90.166448</ele>
        <time>2026-08-14T07:25:09.000Z</time>
      </trkpt>
      <trkpt lat="22.784060" lon="108.967857">
        <ele>90.201873</ele>
        <time>2026-08-14T07:25:10.000Z</time>
      </trkpt>
      <trkpt lat="22.784068" lon="108.967908">
        <ele>90.237298</ele>
        <time>2026-08-14T07:25:11.000Z</time>
      </trkpt>
      <trkpt lat="22.784075" lon="108.967959">
        <ele>90.272605</ele>
        <time>2026-08-14T07:25:12.000Z</time>
      </trkpt>
      <trkpt lat="22.784082" lon="108.968011">
        <ele>90.308591</ele>
        <time>2026-08-14T07:25:13.000Z</time>
      </trkpt>
      <trkpt lat="22.784089" lon="108.968062">
        <ele>90.343898</ele>
        <time>2026-08-14T07:25:14.000Z</time>
      </trkpt>
      <trkpt lat="22.784094" lon="108.968114">
        <ele>90.379699</ele>
        <time>2026-08-14T07:25:15.000Z</time>
      </trkpt>
      <trkpt lat="22.784101" lon="108.968166">
        <ele>90.415684</ele>
        <time>2026-08-14T07:25:16.000Z</time>
      </trkpt>
      <trkpt lat="22.784108" lon="108.968219">
        <ele>90.452347</ele>
        <time>2026-08-14T07:25:17.000Z</time>
      </trkpt>
      <trkpt lat="22.784114" lon="108.968273">
        <ele>90.489592</ele>
        <time>2026-08-14T07:25:18.000Z</time>
      </trkpt>
      <trkpt lat="22.784119" lon="108.968326">
        <ele>90.526074</ele>
        <time>2026-08-14T07:25:19.000Z</time>
      </trkpt>
      <trkpt lat="22.784124" lon="108.968378">
        <ele>90.561874</ele>
        <time>2026-08-14T07:25:20.000Z</time>
      </trkpt>
      <trkpt lat="22.784130" lon="108.968431">
        <ele>90.598439</ele>
        <time>2026-08-14T07:25:21.000Z</time>
      </trkpt>
      <trkpt lat="22.784137" lon="108.968484">
        <ele>90.635102</ele>
        <time>2026-08-14T07:25:22.000Z</time>
      </trkpt>
      <trkpt lat="22.784143" lon="108.968536">
        <ele>90.670988</ele>
        <time>2026-08-14T07:25:23.000Z</time>
      </trkpt>
      <trkpt lat="22.784147" lon="108.968588">
        <ele>90.706719</ele>
        <time>2026-08-14T07:25:24.000Z</time>
      </trkpt>
      <trkpt lat="22.784151" lon="108.968641">
        <ele>90.743133</ele>
        <time>2026-08-14T07:25:25.000Z</time>
      </trkpt>
      <trkpt lat="22.784157" lon="108.968694">
        <ele>90.779698</ele>
        <time>2026-08-14T07:25:26.000Z</time>
      </trkpt>
      <trkpt lat="22.784163" lon="108.968747">
        <ele>90.816263</ele>
        <time>2026-08-14T07:25:27.000Z</time>
      </trkpt>
      <trkpt lat="22.784168" lon="108.968800">
        <ele>90.852744</ele>
        <time>2026-08-14T07:25:28.000Z</time>
      </trkpt>
      <trkpt lat="22.784173" lon="108.968853">
        <ele>90.889226</ele>
        <time>2026-08-14T07:25:29.000Z</time>
      </trkpt>
      <trkpt lat="22.784177" lon="108.968905">
        <ele>90.924958</ele>
        <time>2026-08-14T07:25:30.000Z</time>
      </trkpt>
      <trkpt lat="22.784183" lon="108.968958">
        <ele>90.958694</ele>
        <time>2026-08-14T07:25:31.000Z</time>
      </trkpt>
      <trkpt lat="22.784188" lon="108.969011">
        <ele>90.991064</ele>
        <time>2026-08-14T07:25:32.000Z</time>
      </trkpt>
      <trkpt lat="22.784194" lon="108.969064">
        <ele>91.023509</ele>
        <time>2026-08-14T07:25:33.000Z</time>
      </trkpt>
      <trkpt lat="22.784199" lon="108.969117">
        <ele>91.055880</ele>
        <time>2026-08-14T07:25:34.000Z</time>
      </trkpt>
      <trkpt lat="22.784204" lon="108.969168">
        <ele>91.087042</ele>
        <time>2026-08-14T07:25:35.000Z</time>
      </trkpt>
      <trkpt lat="22.784210" lon="108.969220">
        <ele>91.118884</ele>
        <time>2026-08-14T07:25:36.000Z</time>
      </trkpt>
      <trkpt lat="22.784214" lon="108.969273">
        <ele>91.151194</ele>
        <time>2026-08-14T07:25:37.000Z</time>
      </trkpt>
      <trkpt lat="22.784219" lon="108.969325">
        <ele>91.182960</ele>
        <time>2026-08-14T07:25:38.000Z</time>
      </trkpt>
      <trkpt lat="22.784225" lon="108.969377">
        <ele>91.214802</ele>
        <time>2026-08-14T07:25:39.000Z</time>
      </trkpt>
      <trkpt lat="22.784232" lon="108.969430">
        <ele>91.247333</ele>
        <time>2026-08-14T07:25:40.000Z</time>
      </trkpt>
      <trkpt lat="22.784239" lon="108.969482">
        <ele>91.279263</ele>
        <time>2026-08-14T07:25:41.000Z</time>
      </trkpt>
      <trkpt lat="22.784244" lon="108.969534">
        <ele>91.311030</ele>
        <time>2026-08-14T07:25:42.000Z</time>
      </trkpt>
      <trkpt lat="22.784250" lon="108.969587">
        <ele>91.343474</ele>
        <time>2026-08-14T07:25:43.000Z</time>
      </trkpt>
      <trkpt lat="22.784255" lon="108.969640">
        <ele>91.375845</ele>
        <time>2026-08-14T07:25:44.000Z</time>
      </trkpt>
      <trkpt lat="22.784261" lon="108.969694">
        <ele>91.408893</ele>
        <time>2026-08-14T07:25:45.000Z</time>
      </trkpt>
      <trkpt lat="22.784267" lon="108.969750">
        <ele>91.443147</ele>
        <time>2026-08-14T07:25:46.000Z</time>
      </trkpt>
      <trkpt lat="22.784272" lon="108.969805">
        <ele>91.476727</ele>
        <time>2026-08-14T07:25:47.000Z</time>
      </trkpt>
      <trkpt lat="22.784278" lon="108.969861">
        <ele>91.510982</ele>
        <time>2026-08-14T07:25:48.000Z</time>
      </trkpt>
      <trkpt lat="22.784283" lon="108.969916">
        <ele>91.544562</ele>
        <time>2026-08-14T07:25:49.000Z</time>
      </trkpt>
      <trkpt lat="22.784288" lon="108.969972">
        <ele>91.578746</ele>
        <time>2026-08-14T07:25:50.000Z</time>
      </trkpt>
      <trkpt lat="22.784293" lon="108.970028">
        <ele>91.612931</ele>
        <time>2026-08-14T07:25:51.000Z</time>
      </trkpt>
      <trkpt lat="22.784299" lon="108.970083">
        <ele>91.646582</ele>
        <time>2026-08-14T07:25:52.000Z</time>
      </trkpt>
      <trkpt lat="22.784305" lon="108.970139">
        <ele>91.680836</ele>
        <time>2026-08-14T07:25:53.000Z</time>
      </trkpt>
      <trkpt lat="22.784311" lon="108.970196">
        <ele>91.715694</ele>
        <time>2026-08-14T07:25:54.000Z</time>
      </trkpt>
      <trkpt lat="22.784317" lon="108.970251">
        <ele>91.749345</ele>
        <time>2026-08-14T07:25:55.000Z</time>
      </trkpt>
      <trkpt lat="22.784324" lon="108.970306">
        <ele>91.783080</ele>
        <time>2026-08-14T07:25:56.000Z</time>
      </trkpt>
      <trkpt lat="22.784330" lon="108.970361">
        <ele>91.816731</ele>
        <time>2026-08-14T07:25:57.000Z</time>
      </trkpt>
      <trkpt lat="22.784335" lon="108.970418">
        <ele>91.851520</ele>
        <time>2026-08-14T07:25:58.000Z</time>
      </trkpt>
      <trkpt lat="22.784340" lon="108.970475">
        <ele>91.886310</ele>
        <time>2026-08-14T07:25:59.000Z</time>
      </trkpt>
      <trkpt lat="22.784347" lon="108.970533">
        <ele>91.921851</ele>
        <time>2026-08-14T07:26:00.000Z</time>
      </trkpt>
      <trkpt lat="22.784355" lon="108.970590">
        <ele>91.956883</ele>
        <time>2026-08-14T07:26:01.000Z</time>
      </trkpt>
      <trkpt lat="22.784362" lon="108.970646">
        <ele>91.991220</ele>
        <time>2026-08-14T07:26:02.000Z</time>
      </trkpt>
      <trkpt lat="22.784370" lon="108.970704">
        <ele>92.026853</ele>
        <time>2026-08-14T07:26:03.000Z</time>
      </trkpt>
      <trkpt lat="22.784376" lon="108.970762">
        <ele>92.062314</ele>
        <time>2026-08-14T07:26:04.000Z</time>
      </trkpt>
      <trkpt lat="22.784382" lon="108.970820">
        <ele>92.097776</ele>
        <time>2026-08-14T07:26:05.000Z</time>
      </trkpt>
      <trkpt lat="22.784389" lon="108.970878">
        <ele>92.135709</ele>
        <time>2026-08-14T07:26:06.000Z</time>
      </trkpt>
      <trkpt lat="22.784395" lon="108.970935">
        <ele>92.177782</ele>
        <time>2026-08-14T07:26:07.000Z</time>
      </trkpt>
      <trkpt lat="22.784401" lon="108.970992">
        <ele>92.219854</ele>
        <time>2026-08-14T07:26:08.000Z</time>
      </trkpt>
      <trkpt lat="22.784407" lon="108.971050">
        <ele>92.262656</ele>
        <time>2026-08-14T07:26:09.000Z</time>
      </trkpt>
      <trkpt lat="22.784413" lon="108.971106">
        <ele>92.304000</ele>
        <time>2026-08-14T07:26:10.000Z</time>
      </trkpt>
      <trkpt lat="22.784420" lon="108.971163">
        <ele>92.346170</ele>
        <time>2026-08-14T07:26:11.000Z</time>
      </trkpt>
      <trkpt lat="22.784427" lon="108.971220">
        <ele>92.388340</ele>
        <time>2026-08-14T07:26:12.000Z</time>
      </trkpt>
      <trkpt lat="22.784434" lon="108.971278">
        <ele>92.431238</ele>
        <time>2026-08-14T07:26:13.000Z</time>
      </trkpt>
      <trkpt lat="22.784442" lon="108.971335">
        <ele>92.473520</ele>
        <time>2026-08-14T07:26:14.000Z</time>
      </trkpt>
      <trkpt lat="22.784450" lon="108.971391">
        <ele>92.515078</ele>
        <time>2026-08-14T07:26:15.000Z</time>
      </trkpt>
      <trkpt lat="22.784459" lon="108.971449">
        <ele>92.558211</ele>
        <time>2026-08-14T07:26:16.000Z</time>
      </trkpt>
      <trkpt lat="22.784467" lon="108.971507">
        <ele>92.601218</ele>
        <time>2026-08-14T07:26:17.000Z</time>
      </trkpt>
      <trkpt lat="22.784477" lon="108.971563">
        <ele>92.643049</ele>
        <time>2026-08-14T07:26:18.000Z</time>
      </trkpt>
      <trkpt lat="22.784487" lon="108.971620">
        <ele>92.685600</ele>
        <time>2026-08-14T07:26:19.000Z</time>
      </trkpt>
      <trkpt lat="22.784498" lon="108.971677">
        <ele>92.728307</ele>
        <time>2026-08-14T07:26:20.000Z</time>
      </trkpt>
      <trkpt lat="22.784510" lon="108.971733">
        <ele>92.770470</ele>
        <time>2026-08-14T07:26:21.000Z</time>
      </trkpt>
      <trkpt lat="22.784521" lon="108.971788">
        <ele>92.811742</ele>
        <time>2026-08-14T07:26:22.000Z</time>
      </trkpt>
      <trkpt lat="22.784531" lon="108.971844">
        <ele>92.853573</ele>
        <time>2026-08-14T07:26:23.000Z</time>
      </trkpt>
      <trkpt lat="22.784543" lon="108.971899">
        <ele>92.895021</ele>
        <time>2026-08-14T07:26:24.000Z</time>
      </trkpt>
      <trkpt lat="22.784557" lon="108.971953">
        <ele>92.936158</ele>
        <time>2026-08-14T07:26:25.000Z</time>
      </trkpt>
      <trkpt lat="22.784571" lon="108.972007">
        <ele>92.977295</ele>
        <time>2026-08-14T07:26:26.000Z</time>
      </trkpt>
      <trkpt lat="22.784585" lon="108.972060">
        <ele>93.017727</ele>
        <time>2026-08-14T07:26:27.000Z</time>
      </trkpt>
      <trkpt lat="22.784599" lon="108.972113">
        <ele>93.058158</ele>
        <time>2026-08-14T07:26:28.000Z</time>
      </trkpt>
      <trkpt lat="22.784613" lon="108.972167">
        <ele>93.099295</ele>
        <time>2026-08-14T07:26:29.000Z</time>
      </trkpt>
      <trkpt lat="22.784629" lon="108.972221">
        <ele>93.140891</ele>
        <time>2026-08-14T07:26:30.000Z</time>
      </trkpt>
      <trkpt lat="22.784644" lon="108.972274">
        <ele>93.181549</ele>
        <time>2026-08-14T07:26:31.000Z</time>
      </trkpt>
      <trkpt lat="22.784661" lon="108.972327">
        <ele>93.222701</ele>
        <time>2026-08-14T07:26:32.000Z</time>
      </trkpt>
      <trkpt lat="22.784678" lon="108.972379">
        <ele>93.263162</ele>
        <time>2026-08-14T07:26:33.000Z</time>
      </trkpt>
      <trkpt lat="22.784695" lon="108.972430">
        <ele>93.302932</ele>
        <time>2026-08-14T07:26:34.000Z</time>
      </trkpt>
      <trkpt lat="22.784713" lon="108.972481">
        <ele>93.342980</ele>
        <time>2026-08-14T07:26:35.000Z</time>
      </trkpt>
      <trkpt lat="22.784731" lon="108.972530">
        <ele>93.381661</ele>
        <time>2026-08-14T07:26:36.000Z</time>
      </trkpt>
      <trkpt lat="22.784750" lon="108.972578">
        <ele>93.419969</ele>
        <time>2026-08-14T07:26:37.000Z</time>
      </trkpt>
      <trkpt lat="22.784769" lon="108.972627">
        <ele>93.458952</ele>
        <time>2026-08-14T07:26:38.000Z</time>
      </trkpt>
      <trkpt lat="22.784787" lon="108.972675">
        <ele>93.496953</ele>
        <time>2026-08-14T07:26:39.000Z</time>
      </trkpt>
      <trkpt lat="22.784805" lon="108.972722">
        <ele>93.534276</ele>
        <time>2026-08-14T07:26:40.000Z</time>
      </trkpt>
      <trkpt lat="22.784823" lon="108.972770">
        <ele>93.594939</ele>
        <time>2026-08-14T07:26:41.000Z</time>
      </trkpt>
      <trkpt lat="22.784844" lon="108.972817">
        <ele>93.676994</ele>
        <time>2026-08-14T07:26:42.000Z</time>
      </trkpt>
      <trkpt lat="22.784863" lon="108.972863">
        <ele>93.756186</ele>
        <time>2026-08-14T07:26:43.000Z</time>
      </trkpt>
      <trkpt lat="22.784881" lon="108.972908">
        <ele>93.833252</ele>
        <time>2026-08-14T07:26:44.000Z</time>
      </trkpt>
      <trkpt lat="22.784901" lon="108.972953">
        <ele>93.911736</ele>
        <time>2026-08-14T07:26:45.000Z</time>
      </trkpt>
      <trkpt lat="22.784922" lon="108.972996">
        <ele>93.988186</ele>
        <time>2026-08-14T07:26:46.000Z</time>
      </trkpt>
      <trkpt lat="22.784943" lon="108.973040">
        <ele>94.066027</ele>
        <time>2026-08-14T07:26:47.000Z</time>
      </trkpt>
      <trkpt lat="22.784964" lon="108.973083">
        <ele>94.142476</ele>
        <time>2026-08-14T07:26:48.000Z</time>
      </trkpt>
      <trkpt lat="22.784985" lon="108.973124">
        <ele>94.216163</ele>
        <time>2026-08-14T07:26:49.000Z</time>
      </trkpt>
      <trkpt lat="22.785008" lon="108.973166">
        <ele>94.292911</ele>
        <time>2026-08-14T07:26:50.000Z</time>
      </trkpt>
      <trkpt lat="22.785031" lon="108.973206">
        <ele>94.366974</ele>
        <time>2026-08-14T07:26:51.000Z</time>
      </trkpt>
      <trkpt lat="22.785054" lon="108.973245">
        <ele>94.439710</ele>
        <time>2026-08-14T07:26:52.000Z</time>
      </trkpt>
      <trkpt lat="22.785076" lon="108.973284">
        <ele>94.511541</ele>
        <time>2026-08-14T07:26:53.000Z</time>
      </trkpt>
      <trkpt lat="22.785096" lon="108.973323">
        <ele>94.581654</ele>
        <time>2026-08-14T07:26:54.000Z</time>
      </trkpt>
      <trkpt lat="22.785117" lon="108.973361">
        <ele>94.651259</ele>
        <time>2026-08-14T07:26:55.000Z</time>
      </trkpt>
      <trkpt lat="22.785140" lon="108.973399">
        <ele>94.722675</ele>
        <time>2026-08-14T07:26:56.000Z</time>
      </trkpt>
      <trkpt lat="22.785162" lon="108.973437">
        <ele>94.793171</ele>
        <time>2026-08-14T07:26:57.000Z</time>
      </trkpt>
      <trkpt lat="22.785183" lon="108.973475">
        <ele>94.862776</ele>
        <time>2026-08-14T07:26:58.000Z</time>
      </trkpt>
      <trkpt lat="22.785205" lon="108.973513">
        <ele>94.933272</ele>
        <time>2026-08-14T07:26:59.000Z</time>
      </trkpt>
      <trkpt lat="22.785229" lon="108.973552">
        <ele>95.006939</ele>
        <time>2026-08-14T07:27:00.000Z</time>
      </trkpt>
      <trkpt lat="22.785253" lon="108.973592">
        <ele>95.081918</ele>
        <time>2026-08-14T07:27:01.000Z</time>
      </trkpt>
      <trkpt lat="22.785276" lon="108.973632">
        <ele>95.155982</ele>
        <time>2026-08-14T07:27:02.000Z</time>
      </trkpt>
      <trkpt lat="22.785300" lon="108.973672">
        <ele>95.230961</ele>
        <time>2026-08-14T07:27:03.000Z</time>
      </trkpt>
      <trkpt lat="22.785324" lon="108.973713">
        <ele>95.307262</ele>
        <time>2026-08-14T07:27:04.000Z</time>
      </trkpt>
      <trkpt lat="22.785349" lon="108.973752">
        <ele>95.381889</ele>
        <time>2026-08-14T07:27:05.000Z</time>
      </trkpt>
      <trkpt lat="22.785373" lon="108.973791">
        <ele>95.455556</ele>
        <time>2026-08-14T07:27:06.000Z</time>
      </trkpt>
      <trkpt lat="22.785396" lon="108.973830">
        <ele>95.528291</ele>
        <time>2026-08-14T07:27:07.000Z</time>
      </trkpt>
      <trkpt lat="22.785422" lon="108.973869">
        <ele>95.603904</ele>
        <time>2026-08-14T07:27:08.000Z</time>
      </trkpt>
      <trkpt lat="22.785448" lon="108.973908">
        <ele>95.679516</ele>
        <time>2026-08-14T07:27:09.000Z</time>
      </trkpt>
      <trkpt lat="22.785473" lon="108.973946">
        <ele>95.752858</ele>
        <time>2026-08-14T07:27:10.000Z</time>
      </trkpt>
      <trkpt lat="22.785497" lon="108.973985">
        <ele>95.826526</ele>
        <time>2026-08-14T07:27:11.000Z</time>
      </trkpt>
      <trkpt lat="22.785521" lon="108.974026">
        <ele>95.902826</ele>
        <time>2026-08-14T07:27:12.000Z</time>
      </trkpt>
      <trkpt lat="22.785546" lon="108.974066">
        <ele>95.978748</ele>
        <time>2026-08-14T07:27:13.000Z</time>
      </trkpt>
      <trkpt lat="22.785569" lon="108.974105">
        <ele>96.051483</ele>
        <time>2026-08-14T07:27:14.000Z</time>
      </trkpt>
      <trkpt lat="22.785591" lon="108.974144">
        <ele>96.123315</ele>
        <time>2026-08-14T07:27:15.000Z</time>
      </trkpt>
      <trkpt lat="22.785614" lon="108.974183">
        <ele>96.196050</ele>
        <time>2026-08-14T07:27:16.000Z</time>
      </trkpt>
      <trkpt lat="22.785637" lon="108.974221">
        <ele>96.267466</ele>
        <time>2026-08-14T07:27:17.000Z</time>
      </trkpt>
      <trkpt lat="22.785660" lon="108.974260">
        <ele>96.340201</ele>
        <time>2026-08-14T07:27:18.000Z</time>
      </trkpt>
      <trkpt lat="22.785684" lon="108.974298">
        <ele>96.412567</ele>
        <time>2026-08-14T07:27:19.000Z</time>
      </trkpt>
      <trkpt lat="22.785709" lon="108.974335">
        <ele>96.484636</ele>
        <time>2026-08-14T07:27:20.000Z</time>
      </trkpt>
      <trkpt lat="22.785733" lon="108.974372">
        <ele>96.555711</ele>
        <time>2026-08-14T07:27:21.000Z</time>
      </trkpt>
      <trkpt lat="22.785758" lon="108.974410">
        <ele>96.626415</ele>
        <time>2026-08-14T07:27:22.000Z</time>
      </trkpt>
      <trkpt lat="22.785780" lon="108.974449">
        <ele>96.681933</ele>
        <time>2026-08-14T07:27:23.000Z</time>
      </trkpt>
      <trkpt lat="22.785802" lon="108.974488">
        <ele>96.737450</ele>
        <time>2026-08-14T07:27:24.000Z</time>
      </trkpt>
      <trkpt lat="22.785823" lon="108.974526">
        <ele>96.791246</ele>
        <time>2026-08-14T07:27:25.000Z</time>
      </trkpt>
      <trkpt lat="22.785844" lon="108.974565">
        <ele>96.846088</ele>
        <time>2026-08-14T07:27:26.000Z</time>
      </trkpt>
      <trkpt lat="22.785864" lon="108.974604">
        <ele>96.900277</ele>
        <time>2026-08-14T07:27:27.000Z</time>
      </trkpt>
      <trkpt lat="22.785883" lon="108.974642">
        <ele>96.952767</ele>
        <time>2026-08-14T07:27:28.000Z</time>
      </trkpt>
      <trkpt lat="22.785903" lon="108.974681">
        <ele>97.006956</ele>
        <time>2026-08-14T07:27:29.000Z</time>
      </trkpt>
      <trkpt lat="22.785923" lon="108.974719">
        <ele>97.060088</ele>
        <time>2026-08-14T07:27:30.000Z</time>
      </trkpt>
      <trkpt lat="22.785943" lon="108.974758">
        <ele>97.114277</ele>
        <time>2026-08-14T07:27:31.000Z</time>
      </trkpt>
      <trkpt lat="22.785962" lon="108.974798">
        <ele>97.168914</ele>
        <time>2026-08-14T07:27:32.000Z</time>
      </trkpt>
      <trkpt lat="22.785980" lon="108.974839">
        <ele>97.224055</ele>
        <time>2026-08-14T07:27:33.000Z</time>
      </trkpt>
      <trkpt lat="22.785998" lon="108.974879">
        <ele>97.278103</ele>
        <time>2026-08-14T07:27:34.000Z</time>
      </trkpt>
      <trkpt lat="22.786017" lon="108.974919">
        <ele>97.332740</ele>
        <time>2026-08-14T07:27:35.000Z</time>
      </trkpt>
      <trkpt lat="22.786034" lon="108.974959">
        <ele>97.386223</ele>
        <time>2026-08-14T07:27:36.000Z</time>
      </trkpt>
      <trkpt lat="22.786049" lon="108.974999">
        <ele>97.438657</ele>
        <time>2026-08-14T07:27:37.000Z</time>
      </trkpt>
      <trkpt lat="22.786064" lon="108.975039">
        <ele>97.491092</ele>
        <time>2026-08-14T07:27:38.000Z</time>
      </trkpt>
      <trkpt lat="22.786079" lon="108.975081">
        <ele>97.545783</ele>
        <time>2026-08-14T07:27:39.000Z</time>
      </trkpt>
      <trkpt lat="22.786093" lon="108.975123">
        <ele>97.600013</ele>
        <time>2026-08-14T07:27:40.000Z</time>
      </trkpt>
      <trkpt lat="22.786106" lon="108.975165">
        <ele>97.653809</ele>
        <time>2026-08-14T07:27:41.000Z</time>
      </trkpt>
      <trkpt lat="22.786119" lon="108.975206">
        <ele>97.706456</ele>
        <time>2026-08-14T07:27:42.000Z</time>
      </trkpt>
      <trkpt lat="22.786128" lon="108.975247">
        <ele>97.757632</ele>
        <time>2026-08-14T07:27:43.000Z</time>
      </trkpt>
      <trkpt lat="22.786139" lon="108.975287">
        <ele>97.808317</ele>
        <time>2026-08-14T07:27:44.000Z</time>
      </trkpt>
      <trkpt lat="22.786150" lon="108.975328">
        <ele>97.860167</ele>
        <time>2026-08-14T07:27:45.000Z</time>
      </trkpt>
      <trkpt lat="22.786161" lon="108.975372">
        <ele>97.915524</ele>
        <time>2026-08-14T07:27:46.000Z</time>
      </trkpt>
      <trkpt lat="22.786171" lon="108.975415">
        <ele>97.969372</ele>
        <time>2026-08-14T07:27:47.000Z</time>
      </trkpt>
      <trkpt lat="22.786178" lon="108.975458">
        <ele>98.022393</ele>
        <time>2026-08-14T07:27:48.000Z</time>
      </trkpt>
      <trkpt lat="22.786185" lon="108.975502">
        <ele>98.076610</ele>
        <time>2026-08-14T07:27:49.000Z</time>
      </trkpt>
      <trkpt lat="22.786191" lon="108.975547">
        <ele>98.131820</ele>
        <time>2026-08-14T07:27:50.000Z</time>
      </trkpt>
      <trkpt lat="22.786196" lon="108.975592">
        <ele>98.186857</ele>
        <time>2026-08-14T07:27:51.000Z</time>
      </trkpt>
      <trkpt lat="22.786201" lon="108.975639">
        <ele>98.244306</ele>
        <time>2026-08-14T07:27:52.000Z</time>
      </trkpt>
      <trkpt lat="22.786205" lon="108.975686">
        <ele>98.301619</ele>
        <time>2026-08-14T07:27:53.000Z</time>
      </trkpt>
      <trkpt lat="22.786209" lon="108.975732">
        <ele>98.357723</ele>
        <time>2026-08-14T07:27:54.000Z</time>
      </trkpt>
      <trkpt lat="22.786212" lon="108.975779">
        <ele>98.414930</ele>
        <time>2026-08-14T07:27:55.000Z</time>
      </trkpt>
      <trkpt lat="22.786214" lon="108.975827">
        <ele>98.473273</ele>
        <time>2026-08-14T07:27:56.000Z</time>
      </trkpt>
      <trkpt lat="22.786216" lon="108.975876">
        <ele>98.532830</ele>
        <time>2026-08-14T07:27:57.000Z</time>
      </trkpt>
      <trkpt lat="22.786217" lon="108.975924">
        <ele>98.591130</ele>
        <time>2026-08-14T07:27:58.000Z</time>
      </trkpt>
      <trkpt lat="22.786217" lon="108.975972">
        <ele>98.649414</ele>
        <time>2026-08-14T07:27:59.000Z</time>
      </trkpt>
      <trkpt lat="22.786215" lon="108.976021">
        <ele>98.708971</ele>
        <time>2026-08-14T07:28:00.000Z</time>
      </trkpt>
      <trkpt lat="22.786214" lon="108.976068">
        <ele>98.766056</ele>
        <time>2026-08-14T07:28:01.000Z</time>
      </trkpt>
      <trkpt lat="22.786213" lon="108.976115">
        <ele>98.823142</ele>
        <time>2026-08-14T07:28:02.000Z</time>
      </trkpt>
      <trkpt lat="22.786210" lon="108.976163">
        <ele>98.881560</ele>
        <time>2026-08-14T07:28:03.000Z</time>
      </trkpt>
      <trkpt lat="22.786206" lon="108.976210">
        <ele>98.938873</ele>
        <time>2026-08-14T07:28:04.000Z</time>
      </trkpt>
      <trkpt lat="22.786201" lon="108.976258">
        <ele>98.987731</ele>
        <time>2026-08-14T07:28:05.000Z</time>
      </trkpt>
      <trkpt lat="22.786196" lon="108.976306">
        <ele>98.995054</ele>
        <time>2026-08-14T07:28:06.000Z</time>
      </trkpt>
      <trkpt lat="22.786190" lon="108.976354">
        <ele>99.002398</ele>
        <time>2026-08-14T07:28:07.000Z</time>
      </trkpt>
      <trkpt lat="22.786184" lon="108.976403">
        <ele>99.009892</ele>
        <time>2026-08-14T07:28:08.000Z</time>
      </trkpt>
      <trkpt lat="22.786177" lon="108.976451">
        <ele>99.017259</ele>
        <time>2026-08-14T07:28:09.000Z</time>
      </trkpt>
      <trkpt lat="22.786170" lon="108.976498">
        <ele>99.024477</ele>
        <time>2026-08-14T07:28:10.000Z</time>
      </trkpt>
      <trkpt lat="22.786162" lon="108.976545">
        <ele>99.031723</ele>
        <time>2026-08-14T07:28:11.000Z</time>
      </trkpt>
      <trkpt lat="22.786153" lon="108.976591">
        <ele>99.038852</ele>
        <time>2026-08-14T07:28:12.000Z</time>
      </trkpt>
      <trkpt lat="22.786144" lon="108.976636">
        <ele>99.045833</ele>
        <time>2026-08-14T07:28:13.000Z</time>
      </trkpt>
      <trkpt lat="22.786133" lon="108.976681">
        <ele>99.052891</ele>
        <time>2026-08-14T07:28:14.000Z</time>
      </trkpt>
      <trkpt lat="22.786120" lon="108.976725">
        <ele>99.059896</ele>
        <time>2026-08-14T07:28:15.000Z</time>
      </trkpt>
      <trkpt lat="22.786108" lon="108.976770">
        <ele>99.066997</ele>
        <time>2026-08-14T07:28:16.000Z</time>
      </trkpt>
      <trkpt lat="22.786097" lon="108.976814">
        <ele>99.073909</ele>
        <time>2026-08-14T07:28:17.000Z</time>
      </trkpt>
      <trkpt lat="22.786084" lon="108.976858">
        <ele>99.080914</ele>
        <time>2026-08-14T07:28:18.000Z</time>
      </trkpt>
      <trkpt lat="22.786070" lon="108.976903">
        <ele>99.088114</ele>
        <time>2026-08-14T07:28:19.000Z</time>
      </trkpt>
      <trkpt lat="22.786054" lon="108.976947">
        <ele>99.095285</ele>
        <time>2026-08-14T07:28:20.000Z</time>
      </trkpt>
      <trkpt lat="22.786038" lon="108.976991">
        <ele>99.102455</ele>
        <time>2026-08-14T07:28:21.000Z</time>
      </trkpt>
      <trkpt lat="22.786022" lon="108.977036">
        <ele>99.109767</ele>
        <time>2026-08-14T07:28:22.000Z</time>
      </trkpt>
      <trkpt lat="22.786005" lon="108.977080">
        <ele>99.117000</ele>
        <time>2026-08-14T07:28:23.000Z</time>
      </trkpt>
      <trkpt lat="22.785988" lon="108.977126">
        <ele>99.124513</ele>
        <time>2026-08-14T07:28:24.000Z</time>
      </trkpt>
      <trkpt lat="22.785971" lon="108.977171">
        <ele>99.131886</ele>
        <time>2026-08-14T07:28:25.000Z</time>
      </trkpt>
      <trkpt lat="22.785955" lon="108.977217">
        <ele>99.139340</ele>
        <time>2026-08-14T07:28:26.000Z</time>
      </trkpt>
      <trkpt lat="22.785938" lon="108.977263">
        <ele>99.146853</ele>
        <time>2026-08-14T07:28:27.000Z</time>
      </trkpt>
      <trkpt lat="22.785921" lon="108.977309">
        <ele>99.154366</ele>
        <time>2026-08-14T07:28:28.000Z</time>
      </trkpt>
      <trkpt lat="22.785903" lon="108.977355">
        <ele>99.161942</ele>
        <time>2026-08-14T07:28:29.000Z</time>
      </trkpt>
      <trkpt lat="22.785885" lon="108.977402">
        <ele>99.169658</ele>
        <time>2026-08-14T07:28:30.000Z</time>
      </trkpt>
      <trkpt lat="22.785868" lon="108.977448">
        <ele>99.177171</ele>
        <time>2026-08-14T07:28:31.000Z</time>
      </trkpt>
      <trkpt lat="22.785850" lon="108.977495">
        <ele>99.184887</ele>
        <time>2026-08-14T07:28:32.000Z</time>
      </trkpt>
      <trkpt lat="22.785832" lon="108.977544">
        <ele>99.192883</ele>
        <time>2026-08-14T07:28:33.000Z</time>
      </trkpt>
      <trkpt lat="22.785814" lon="108.977593">
        <ele>99.200880</ele>
        <time>2026-08-14T07:28:34.000Z</time>
      </trkpt>
      <trkpt lat="22.785796" lon="108.977642">
        <ele>99.208877</ele>
        <time>2026-08-14T07:28:35.000Z</time>
      </trkpt>
      <trkpt lat="22.785780" lon="108.977692">
        <ele>99.216900</ele>
        <time>2026-08-14T07:28:36.000Z</time>
      </trkpt>
      <trkpt lat="22.785763" lon="108.977742">
        <ele>99.224980</ele>
        <time>2026-08-14T07:28:37.000Z</time>
      </trkpt>
      <trkpt lat="22.785746" lon="108.977792">
        <ele>99.233059</ele>
        <time>2026-08-14T07:28:38.000Z</time>
      </trkpt>
      <trkpt lat="22.785728" lon="108.977842">
        <ele>99.241197</ele>
        <time>2026-08-14T07:28:39.000Z</time>
      </trkpt>
      <trkpt lat="22.785709" lon="108.977891">
        <ele>99.249256</ele>
        <time>2026-08-14T07:28:40.000Z</time>
      </trkpt>
      <trkpt lat="22.785692" lon="108.977942">
        <ele>99.257477</ele>
        <time>2026-08-14T07:28:41.000Z</time>
      </trkpt>
      <trkpt lat="22.785675" lon="108.977994">
        <ele>99.265842</ele>
        <time>2026-08-14T07:28:42.000Z</time>
      </trkpt>
      <trkpt lat="22.785659" lon="108.978046">
        <ele>99.274153</ele>
        <time>2026-08-14T07:28:43.000Z</time>
      </trkpt>
      <trkpt lat="22.785642" lon="108.978099">
        <ele>99.280003</ele>
        <time>2026-08-14T07:28:44.000Z</time>
      </trkpt>
      <trkpt lat="22.785625" lon="108.978151">
        <ele>99.248791</ele>
        <time>2026-08-14T07:28:45.000Z</time>
      </trkpt>
      <trkpt lat="22.785607" lon="108.978204">
        <ele>99.216838</ele>
        <time>2026-08-14T07:28:46.000Z</time>
      </trkpt>
      <trkpt lat="22.785590" lon="108.978257">
        <ele>99.185093</ele>
        <time>2026-08-14T07:28:47.000Z</time>
      </trkpt>
      <trkpt lat="22.785575" lon="108.978311">
        <ele>99.153187</ele>
        <time>2026-08-14T07:28:48.000Z</time>
      </trkpt>
      <trkpt lat="22.785562" lon="108.978367">
        <ele>99.120518</ele>
        <time>2026-08-14T07:28:49.000Z</time>
      </trkpt>
      <trkpt lat="22.785548" lon="108.978423">
        <ele>99.087694</ele>
        <time>2026-08-14T07:28:50.000Z</time>
      </trkpt>
      <trkpt lat="22.785534" lon="108.978480">
        <ele>99.054323</ele>
        <time>2026-08-14T07:28:51.000Z</time>
      </trkpt>
      <trkpt lat="22.785521" lon="108.978536">
        <ele>99.021654</ele>
        <time>2026-08-14T07:28:52.000Z</time>
      </trkpt>
      <trkpt lat="22.785507" lon="108.978593">
        <ele>98.988284</ele>
        <time>2026-08-14T07:28:53.000Z</time>
      </trkpt>
      <trkpt lat="22.785493" lon="108.978651">
        <ele>98.954366</ele>
        <time>2026-08-14T07:28:54.000Z</time>
      </trkpt>
      <trkpt lat="22.785483" lon="108.978711">
        <ele>98.919873</ele>
        <time>2026-08-14T07:28:55.000Z</time>
      </trkpt>
      <trkpt lat="22.785472" lon="108.978770">
        <ele>98.885820</ele>
        <time>2026-08-14T07:28:56.000Z</time>
      </trkpt>
      <trkpt lat="22.785460" lon="108.978829">
        <ele>98.851640</ele>
        <time>2026-08-14T07:28:57.000Z</time>
      </trkpt>
      <trkpt lat="22.785451" lon="108.978888">
        <ele>98.817809</ele>
        <time>2026-08-14T07:28:58.000Z</time>
      </trkpt>
      <trkpt lat="22.785442" lon="108.978947">
        <ele>98.783977</ele>
        <time>2026-08-14T07:28:59.000Z</time>
      </trkpt>
      <trkpt lat="22.785432" lon="108.979008">
        <ele>98.748927</ele>
        <time>2026-08-14T07:29:00.000Z</time>
      </trkpt>
      <trkpt lat="22.785422" lon="108.979070">
        <ele>98.713320</ele>
        <time>2026-08-14T07:29:01.000Z</time>
      </trkpt>
      <trkpt lat="22.785413" lon="108.979133">
        <ele>98.677254</ele>
        <time>2026-08-14T07:29:02.000Z</time>
      </trkpt>
      <trkpt lat="22.785404" lon="108.979197">
        <ele>98.640630</ele>
        <time>2026-08-14T07:29:03.000Z</time>
      </trkpt>
      <trkpt lat="22.785398" lon="108.979261">
        <ele>98.604237</ele>
        <time>2026-08-14T07:29:04.000Z</time>
      </trkpt>
      <trkpt lat="22.785392" lon="108.979325">
        <ele>98.567844</ele>
        <time>2026-08-14T07:29:05.000Z</time>
      </trkpt>
      <trkpt lat="22.785385" lon="108.979390">
        <ele>98.530822</ele>
        <time>2026-08-14T07:29:06.000Z</time>
      </trkpt>
      <trkpt lat="22.785380" lon="108.979454">
        <ele>98.494487</ele>
        <time>2026-08-14T07:29:07.000Z</time>
      </trkpt>
      <trkpt lat="22.785376" lon="108.979519">
        <ele>98.457633</ele>
        <time>2026-08-14T07:29:08.000Z</time>
      </trkpt>
      <trkpt lat="22.785372" lon="108.979584">
        <ele>98.420780</ele>
        <time>2026-08-14T07:29:09.000Z</time>
      </trkpt>
      <trkpt lat="22.785368" lon="108.979649">
        <ele>98.383926</ele>
        <time>2026-08-14T07:29:10.000Z</time>
      </trkpt>
      <trkpt lat="22.785364" lon="108.979713">
        <ele>98.347637</ele>
        <time>2026-08-14T07:29:11.000Z</time>
      </trkpt>
      <trkpt lat="22.785361" lon="108.979777">
        <ele>98.311384</ele>
        <time>2026-08-14T07:29:12.000Z</time>
      </trkpt>
      <trkpt lat="22.785359" lon="108.979842">
        <ele>98.274592</ele>
        <time>2026-08-14T07:29:13.000Z</time>
      </trkpt>
      <trkpt lat="22.785356" lon="108.979907">
        <ele>98.237774</ele>
        <time>2026-08-14T07:29:14.000Z</time>
      </trkpt>
      <trkpt lat="22.785354" lon="108.979973">
        <ele>98.200416</ele>
        <time>2026-08-14T07:29:15.000Z</time>
      </trkpt>
      <trkpt lat="22.785353" lon="108.980039">
        <ele>98.171259</ele>
        <time>2026-08-14T07:29:16.000Z</time>
      </trkpt>
      <trkpt lat="22.785352" lon="108.980106">
        <ele>98.153539</ele>
        <time>2026-08-14T07:29:17.000Z</time>
      </trkpt>
      <trkpt lat="22.785349" lon="108.980171">
        <ele>98.136328</ele>
        <time>2026-08-14T07:29:18.000Z</time>
      </trkpt>
      <trkpt lat="22.785348" lon="108.980237">
        <ele>98.118872</ele>
        <time>2026-08-14T07:29:19.000Z</time>
      </trkpt>
      <trkpt lat="22.785347" lon="108.980303">
        <ele>98.101416</ele>
        <time>2026-08-14T07:29:20.000Z</time>
      </trkpt>
      <trkpt lat="22.785348" lon="108.980370">
        <ele>98.083696</ele>
        <time>2026-08-14T07:29:21.000Z</time>
      </trkpt>
      <trkpt lat="22.785349" lon="108.980436">
        <ele>98.066240</ele>
        <time>2026-08-14T07:29:22.000Z</time>
      </trkpt>
      <trkpt lat="22.785349" lon="108.980502">
        <ele>98.048787</ele>
        <time>2026-08-14T07:29:23.000Z</time>
      </trkpt>
      <trkpt lat="22.785350" lon="108.980568">
        <ele>98.031331</ele>
        <time>2026-08-14T07:29:24.000Z</time>
      </trkpt>
      <trkpt lat="22.785350" lon="108.980635">
        <ele>98.013613</ele>
        <time>2026-08-14T07:29:25.000Z</time>
      </trkpt>
      <trkpt lat="22.785352" lon="108.980701">
        <ele>97.996150</ele>
        <time>2026-08-14T07:29:26.000Z</time>
      </trkpt>
      <trkpt lat="22.785352" lon="108.980768">
        <ele>97.978431</ele>
        <time>2026-08-14T07:29:27.000Z</time>
      </trkpt>
      <trkpt lat="22.785350" lon="108.980833">
        <ele>97.961233</ele>
        <time>2026-08-14T07:29:28.000Z</time>
      </trkpt>
      <trkpt lat="22.785348" lon="108.980899">
        <ele>97.943770</ele>
        <time>2026-08-14T07:29:29.000Z</time>
      </trkpt>
      <trkpt lat="22.785347" lon="108.980965">
        <ele>97.926314</ele>
        <time>2026-08-14T07:29:30.000Z</time>
      </trkpt>
      <trkpt lat="22.785347" lon="108.981032">
        <ele>97.908596</ele>
        <time>2026-08-14T07:29:31.000Z</time>
      </trkpt>
      <trkpt lat="22.785347" lon="108.981098">
        <ele>97.891142</ele>
        <time>2026-08-14T07:29:32.000Z</time>
      </trkpt>
      <trkpt lat="22.785347" lon="108.981164">
        <ele>97.873689</ele>
        <time>2026-08-14T07:29:33.000Z</time>
      </trkpt>
      <trkpt lat="22.785347" lon="108.981229">
        <ele>97.856499</ele>
        <time>2026-08-14T07:29:34.000Z</time>
      </trkpt>
      <trkpt lat="22.785347" lon="108.981295">
        <ele>97.839046</ele>
        <time>2026-08-14T07:29:35.000Z</time>
      </trkpt>
      <trkpt lat="22.785347" lon="108.981360">
        <ele>97.821857</ele>
        <time>2026-08-14T07:29:36.000Z</time>
      </trkpt>
      <trkpt lat="22.785346" lon="108.981425">
        <ele>97.804665</ele>
        <time>2026-08-14T07:29:37.000Z</time>
      </trkpt>
      <trkpt lat="22.785346" lon="108.981490">
        <ele>97.787476</ele>
        <time>2026-08-14T07:29:38.000Z</time>
      </trkpt>
      <trkpt lat="22.785345" lon="108.981554">
        <ele>97.770549</ele>
        <time>2026-08-14T07:29:39.000Z</time>
      </trkpt>
      <trkpt lat="22.785346" lon="108.981618">
        <ele>97.753622</ele>
        <time>2026-08-14T07:29:40.000Z</time>
      </trkpt>
      <trkpt lat="22.785346" lon="108.981681">
        <ele>97.736961</ele>
        <time>2026-08-14T07:29:41.000Z</time>
      </trkpt>
      <trkpt lat="22.785347" lon="108.981746">
        <ele>97.719770</ele>
        <time>2026-08-14T07:29:42.000Z</time>
      </trkpt>
      <trkpt lat="22.785348" lon="108.981811">
        <ele>97.702578</ele>
        <time>2026-08-14T07:29:43.000Z</time>
      </trkpt>
      <trkpt lat="22.785347" lon="108.981875">
        <ele>97.685651</ele>
        <time>2026-08-14T07:29:44.000Z</time>
      </trkpt>
      <trkpt lat="22.785348" lon="108.981939">
        <ele>97.668724</ele>
        <time>2026-08-14T07:29:45.000Z</time>
      </trkpt>
      <trkpt lat="22.785349" lon="108.982003">
        <ele>97.675059</ele>
        <time>2026-08-14T07:29:46.000Z</time>
      </trkpt>
      <trkpt lat="22.785351" lon="108.982066">
        <ele>97.694499</ele>
        <time>2026-08-14T07:29:47.000Z</time>
      </trkpt>
      <trkpt lat="22.785353" lon="108.982130">
        <ele>97.714247</ele>
        <time>2026-08-14T07:29:48.000Z</time>
      </trkpt>
      <trkpt lat="22.785353" lon="108.982195">
        <ele>97.734292</ele>
        <time>2026-08-14T07:29:49.000Z</time>
      </trkpt>
      <trkpt lat="22.785353" lon="108.982259">
        <ele>97.754028</ele>
        <time>2026-08-14T07:29:50.000Z</time>
      </trkpt>
      <trkpt lat="22.785354" lon="108.982322">
        <ele>97.773460</ele>
        <time>2026-08-14T07:29:51.000Z</time>
      </trkpt>
      <trkpt lat="22.785355" lon="108.982385">
        <ele>97.792891</ele>
        <time>2026-08-14T07:29:52.000Z</time>
      </trkpt>
      <trkpt lat="22.785353" lon="108.982448">
        <ele>97.812331</ele>
        <time>2026-08-14T07:29:53.000Z</time>
      </trkpt>
      <trkpt lat="22.785351" lon="108.982510">
        <ele>97.831462</ele>
        <time>2026-08-14T07:29:54.000Z</time>
      </trkpt>
      <trkpt lat="22.785348" lon="108.982572">
        <ele>97.850608</ele>
        <time>2026-08-14T07:29:55.000Z</time>
      </trkpt>
      <trkpt lat="22.785346" lon="108.982634">
        <ele>97.869740</ele>
        <time>2026-08-14T07:29:56.000Z</time>
      </trkpt>
      <trkpt lat="22.785345" lon="108.982696">
        <ele>97.888863</ele>
        <time>2026-08-14T07:29:57.000Z</time>
      </trkpt>
      <trkpt lat="22.785345" lon="108.982758">
        <ele>97.907983</ele>
        <time>2026-08-14T07:29:58.000Z</time>
      </trkpt>
      <trkpt lat="22.785344" lon="108.982820">
        <ele>97.927106</ele>
        <time>2026-08-14T07:29:59.000Z</time>
      </trkpt>
      <trkpt lat="22.785343" lon="108.982881">
        <ele>97.945920</ele>
        <time>2026-08-14T07:30:00.000Z</time>
      </trkpt>
      <trkpt lat="22.785342" lon="108.982943">
        <ele>97.965043</ele>
        <time>2026-08-14T07:30:01.000Z</time>
      </trkpt>
      <trkpt lat="22.785342" lon="108.983005">
        <ele>97.984163</ele>
        <time>2026-08-14T07:30:02.000Z</time>
      </trkpt>
      <trkpt lat="22.785342" lon="108.983066">
        <ele>98.002974</ele>
        <time>2026-08-14T07:30:03.000Z</time>
      </trkpt>
      <trkpt lat="22.785341" lon="108.983126">
        <ele>98.021481</ele>
        <time>2026-08-14T07:30:04.000Z</time>
      </trkpt>
      <trkpt lat="22.785339" lon="108.983186">
        <ele>98.039996</ele>
        <time>2026-08-14T07:30:05.000Z</time>
      </trkpt>
      <trkpt lat="22.785337" lon="108.983245">
        <ele>98.058203</ele>
        <time>2026-08-14T07:30:06.000Z</time>
      </trkpt>
      <trkpt lat="22.785336" lon="108.983303">
        <ele>98.076092</ele>
        <time>2026-08-14T07:30:07.000Z</time>
      </trkpt>
      <trkpt lat="22.785335" lon="108.983362">
        <ele>98.094290</ele>
        <time>2026-08-14T07:30:08.000Z</time>
      </trkpt>
      <trkpt lat="22.785335" lon="108.983421">
        <ele>98.112485</ele>
        <time>2026-08-14T07:30:09.000Z</time>
      </trkpt>
      <trkpt lat="22.785335" lon="108.983479">
        <ele>98.130371</ele>
        <time>2026-08-14T07:30:10.000Z</time>
      </trkpt>
      <trkpt lat="22.785335" lon="108.983537">
        <ele>98.148258</ele>
        <time>2026-08-14T07:30:11.000Z</time>
      </trkpt>
      <trkpt lat="22.785332" lon="108.983596">
        <ele>98.166480</ele>
        <time>2026-08-14T07:30:12.000Z</time>
      </trkpt>
      <trkpt lat="22.785330" lon="108.983654">
        <ele>98.184379</ele>
        <time>2026-08-14T07:30:13.000Z</time>
      </trkpt>
      <trkpt lat="22.785327" lon="108.983714">
        <ele>98.202909</ele>
        <time>2026-08-14T07:30:14.000Z</time>
      </trkpt>
      <trkpt lat="22.785323" lon="108.983775">
        <ele>98.221768</ele>
        <time>2026-08-14T07:30:15.000Z</time>
      </trkpt>
      <trkpt lat="22.785321" lon="108.983835">
        <ele>98.240284</ele>
        <time>2026-08-14T07:30:16.000Z</time>
      </trkpt>
      <trkpt lat="22.785318" lon="108.983894">
        <ele>98.258506</ele>
        <time>2026-08-14T07:30:17.000Z</time>
      </trkpt>
      <trkpt lat="22.785316" lon="108.983953">
        <ele>98.247039</ele>
        <time>2026-08-14T07:30:18.000Z</time>
      </trkpt>
      <trkpt lat="22.785312" lon="108.984014">
        <ele>98.221314</ele>
        <time>2026-08-14T07:30:19.000Z</time>
      </trkpt>
      <trkpt lat="22.785308" lon="108.984074">
        <ele>98.196008</ele>
        <time>2026-08-14T07:30:20.000Z</time>
      </trkpt>
      <trkpt lat="22.785305" lon="108.984132">
        <ele>98.171570</ele>
        <time>2026-08-14T07:30:21.000Z</time>
      </trkpt>
      <trkpt lat="22.785302" lon="108.984192">
        <ele>98.146293</ele>
        <time>2026-08-14T07:30:22.000Z</time>
      </trkpt>
      <trkpt lat="22.785298" lon="108.984253">
        <ele>98.120567</ele>
        <time>2026-08-14T07:30:23.000Z</time>
      </trkpt>
      <trkpt lat="22.785295" lon="108.984312">
        <ele>98.095710</ele>
        <time>2026-08-14T07:30:24.000Z</time>
      </trkpt>
      <trkpt lat="22.785294" lon="108.984373">
        <ele>98.070045</ele>
        <time>2026-08-14T07:30:25.000Z</time>
      </trkpt>
      <trkpt lat="22.785292" lon="108.984434">
        <ele>98.044368</ele>
        <time>2026-08-14T07:30:26.000Z</time>
      </trkpt>
      <trkpt lat="22.785288" lon="108.984494">
        <ele>98.019062</ele>
        <time>2026-08-14T07:30:27.000Z</time>
      </trkpt>
      <trkpt lat="22.785284" lon="108.984556">
        <ele>97.992917</ele>
        <time>2026-08-14T07:30:28.000Z</time>
      </trkpt>
      <trkpt lat="22.785278" lon="108.984617">
        <ele>97.967111</ele>
        <time>2026-08-14T07:30:29.000Z</time>
      </trkpt>
      <trkpt lat="22.785271" lon="108.984677">
        <ele>97.941669</ele>
        <time>2026-08-14T07:30:30.000Z</time>
      </trkpt>
      <trkpt lat="22.785266" lon="108.984738">
        <ele>97.915907</ele>
        <time>2026-08-14T07:30:31.000Z</time>
      </trkpt>
      <trkpt lat="22.785259" lon="108.984799">
        <ele>97.890048</ele>
        <time>2026-08-14T07:30:32.000Z</time>
      </trkpt>
      <trkpt lat="22.785251" lon="108.984860">
        <ele>97.864129</ele>
        <time>2026-08-14T07:30:33.000Z</time>
      </trkpt>
      <trkpt lat="22.785244" lon="108.984920">
        <ele>97.838688</ele>
        <time>2026-08-14T07:30:34.000Z</time>
      </trkpt>
      <trkpt lat="22.785235" lon="108.984979">
        <ele>97.813531</ele>
        <time>2026-08-14T07:30:35.000Z</time>
      </trkpt>
      <trkpt lat="22.785226" lon="108.985037">
        <ele>97.788789</ele>
        <time>2026-08-14T07:30:36.000Z</time>
      </trkpt>
      <trkpt lat="22.785216" lon="108.985095">
        <ele>97.763967</ele>
        <time>2026-08-14T07:30:37.000Z</time>
      </trkpt>
      <trkpt lat="22.785207" lon="108.985154">
        <ele>97.738810</ele>
        <time>2026-08-14T07:30:38.000Z</time>
      </trkpt>
      <trkpt lat="22.785197" lon="108.985212">
        <ele>97.713988</ele>
        <time>2026-08-14T07:30:39.000Z</time>
      </trkpt>
      <trkpt lat="22.785189" lon="108.985272">
        <ele>97.688486</ele>
        <time>2026-08-14T07:30:40.000Z</time>
      </trkpt>
      <trkpt lat="22.785180" lon="108.985332">
        <ele>97.662913</ele>
        <time>2026-08-14T07:30:41.000Z</time>
      </trkpt>
      <trkpt lat="22.785172" lon="108.985392">
        <ele>97.637411</ele>
        <time>2026-08-14T07:30:42.000Z</time>
      </trkpt>
      <trkpt lat="22.785166" lon="108.985451">
        <ele>97.612441</ele>
        <time>2026-08-14T07:30:43.000Z</time>
      </trkpt>
      <trkpt lat="22.785160" lon="108.985510">
        <ele>97.587471</ele>
        <time>2026-08-14T07:30:44.000Z</time>
      </trkpt>
      <trkpt lat="22.785153" lon="108.985569">
        <ele>97.562446</ele>
        <time>2026-08-14T07:30:45.000Z</time>
      </trkpt>
      <trkpt lat="22.785145" lon="108.985630">
        <ele>97.536527</ele>
        <time>2026-08-14T07:30:46.000Z</time>
      </trkpt>
      <trkpt lat="22.785137" lon="108.985691">
        <ele>97.510608</ele>
        <time>2026-08-14T07:30:47.000Z</time>
      </trkpt>
      <trkpt lat="22.785127" lon="108.985752">
        <ele>97.484545</ele>
        <time>2026-08-14T07:30:48.000Z</time>
      </trkpt>
      <trkpt lat="22.785116" lon="108.985814">
        <ele>97.457985</ele>
        <time>2026-08-14T07:30:49.000Z</time>
      </trkpt>
      <trkpt lat="22.785104" lon="108.985875">
        <ele>97.403203</ele>
        <time>2026-08-14T07:30:50.000Z</time>
      </trkpt>
      <trkpt lat="22.785092" lon="108.985934">
        <ele>97.315981</ele>
        <time>2026-08-14T07:30:51.000Z</time>
      </trkpt>
      <trkpt lat="22.785079" lon="108.985994">
        <ele>97.227004</ele>
        <time>2026-08-14T07:30:52.000Z</time>
      </trkpt>
      <trkpt lat="22.785070" lon="108.986050">
        <ele>97.144942</ele>
        <time>2026-08-14T07:30:53.000Z</time>
      </trkpt>
      <trkpt lat="22.785060" lon="108.986102">
        <ele>97.068257</ele>
        <time>2026-08-14T07:30:54.000Z</time>
      </trkpt>
      <trkpt lat="22.785052" lon="108.986147">
        <ele>97.002097</ele>
        <time>2026-08-14T07:30:55.000Z</time>
      </trkpt>
      <trkpt lat="22.785052" lon="108.986189">
        <ele>96.941465</ele>
        <time>2026-08-14T07:30:56.000Z</time>
      </trkpt>
      <trkpt lat="22.785047" lon="108.986227">
        <ele>96.886051</ele>
        <time>2026-08-14T07:30:57.000Z</time>
      </trkpt>
      <trkpt lat="22.785045" lon="108.986267">
        <ele>96.828221</ele>
        <time>2026-08-14T07:30:58.000Z</time>
      </trkpt>
      <trkpt lat="22.785040" lon="108.986303">
        <ele>96.775664</ele>
        <time>2026-08-14T07:30:59.000Z</time>
      </trkpt>
      <trkpt lat="22.785032" lon="108.986338">
        <ele>96.723607</ele>
        <time>2026-08-14T07:31:00.000Z</time>
      </trkpt>
      <trkpt lat="22.785027" lon="108.986370">
        <ele>96.676752</ele>
        <time>2026-08-14T07:31:01.000Z</time>
      </trkpt>
      <trkpt lat="22.785022" lon="108.986400">
        <ele>96.632742</ele>
        <time>2026-08-14T07:31:02.000Z</time>
      </trkpt>
      <trkpt lat="22.785019" lon="108.986432">
        <ele>96.586307</ele>
        <time>2026-08-14T07:31:03.000Z</time>
      </trkpt>
      <trkpt lat="22.785015" lon="108.986464">
        <ele>96.539688</ele>
        <time>2026-08-14T07:31:04.000Z</time>
      </trkpt>
      <trkpt lat="22.785009" lon="108.986492">
        <ele>96.498189</ele>
        <time>2026-08-14T07:31:05.000Z</time>
      </trkpt>
      <trkpt lat="22.785004" lon="108.986516">
        <ele>96.462669</ele>
        <time>2026-08-14T07:31:06.000Z</time>
      </trkpt>
      <trkpt lat="22.784997" lon="108.986542">
        <ele>96.423567</ele>
        <time>2026-08-14T07:31:07.000Z</time>
      </trkpt>
      <trkpt lat="22.784995" lon="108.986568">
        <ele>96.385902</ele>
        <time>2026-08-14T07:31:08.000Z</time>
      </trkpt>
      <trkpt lat="22.785003" lon="108.986595">
        <ele>96.344961</ele>
        <time>2026-08-14T07:31:09.000Z</time>
      </trkpt>
      <trkpt lat="22.785019" lon="108.986616">
        <ele>96.305632</ele>
        <time>2026-08-14T07:31:10.000Z</time>
      </trkpt>
      <trkpt lat="22.785038" lon="108.986634">
        <ele>96.266131</ele>
        <time>2026-08-14T07:31:11.000Z</time>
      </trkpt>
      <trkpt lat="22.785060" lon="108.986654">
        <ele>96.221183</ele>
        <time>2026-08-14T07:31:12.000Z</time>
      </trkpt>
      <trkpt lat="22.785085" lon="108.986673">
        <ele>96.173385</ele>
        <time>2026-08-14T07:31:13.000Z</time>
      </trkpt>
      <trkpt lat="22.785113" lon="108.986696">
        <ele>96.118388</ele>
        <time>2026-08-14T07:31:14.000Z</time>
      </trkpt>
      <trkpt lat="22.785145" lon="108.986719">
        <ele>96.058279</ele>
        <time>2026-08-14T07:31:15.000Z</time>
      </trkpt>
      <trkpt lat="22.785177" lon="108.986746">
        <ele>95.994797</ele>
        <time>2026-08-14T07:31:16.000Z</time>
      </trkpt>
      <trkpt lat="22.785209" lon="108.986771">
        <ele>95.933046</ele>
        <time>2026-08-14T07:31:17.000Z</time>
      </trkpt>
      <trkpt lat="22.785243" lon="108.986790">
        <ele>95.873158</ele>
        <time>2026-08-14T07:31:18.000Z</time>
      </trkpt>
      <trkpt lat="22.785279" lon="108.986806">
        <ele>95.812239</ele>
        <time>2026-08-14T07:31:19.000Z</time>
      </trkpt>
      <trkpt lat="22.785315" lon="108.986823">
        <ele>95.750759</ele>
        <time>2026-08-14T07:31:20.000Z</time>
      </trkpt>
      <trkpt lat="22.785351" lon="108.986836">
        <ele>95.691348</ele>
        <time>2026-08-14T07:31:21.000Z</time>
      </trkpt>
      <trkpt lat="22.785386" lon="108.986850">
        <ele>95.632936</ele>
        <time>2026-08-14T07:31:22.000Z</time>
      </trkpt>
      <trkpt lat="22.785421" lon="108.986866">
        <ele>95.573464</ele>
        <time>2026-08-14T07:31:23.000Z</time>
      </trkpt>
      <trkpt lat="22.785457" lon="108.986884">
        <ele>95.511393</ele>
        <time>2026-08-14T07:31:24.000Z</time>
      </trkpt>
      <trkpt lat="22.785494" lon="108.986900">
        <ele>95.449023</ele>
        <time>2026-08-14T07:31:25.000Z</time>
      </trkpt>
      <trkpt lat="22.785530" lon="108.986916">
        <ele>95.388105</ele>
        <time>2026-08-14T07:31:26.000Z</time>
      </trkpt>
      <trkpt lat="22.785567" lon="108.986934">
        <ele>95.324609</ele>
        <time>2026-08-14T07:31:27.000Z</time>
      </trkpt>
      <trkpt lat="22.785606" lon="108.986951">
        <ele>95.258795</ele>
        <time>2026-08-14T07:31:28.000Z</time>
      </trkpt>
      <trkpt lat="22.785645" lon="108.986968">
        <ele>95.192981</ele>
        <time>2026-08-14T07:31:29.000Z</time>
      </trkpt>
      <trkpt lat="22.785683" lon="108.986985">
        <ele>95.128618</ele>
        <time>2026-08-14T07:31:30.000Z</time>
      </trkpt>
      <trkpt lat="22.785722" lon="108.986998">
        <ele>95.064732</ele>
        <time>2026-08-14T07:31:31.000Z</time>
      </trkpt>
      <trkpt lat="22.785760" lon="108.987006">
        <ele>95.004121</ele>
        <time>2026-08-14T07:31:32.000Z</time>
      </trkpt>
      <trkpt lat="22.785795" lon="108.987009">
        <ele>94.949146</ele>
        <time>2026-08-14T07:31:33.000Z</time>
      </trkpt>
      <trkpt lat="22.785826" lon="108.987012">
        <ele>94.900413</ele>
        <time>2026-08-14T07:31:34.000Z</time>
      </trkpt>
      <trkpt lat="22.785854" lon="108.987017">
        <ele>94.855980</ele>
        <time>2026-08-14T07:31:35.000Z</time>
      </trkpt>
      <trkpt lat="22.785881" lon="108.987027">
        <ele>94.811306</ele>
        <time>2026-08-14T07:31:36.000Z</time>
      </trkpt>
      <trkpt lat="22.785908" lon="108.987038">
        <ele>94.766145</ele>
        <time>2026-08-14T07:31:37.000Z</time>
      </trkpt>
      <trkpt lat="22.785931" lon="108.987045">
        <ele>94.728740</ele>
        <time>2026-08-14T07:31:38.000Z</time>
      </trkpt>
      <trkpt lat="22.785948" lon="108.987047">
        <ele>94.701965</ele>
        <time>2026-08-14T07:31:39.000Z</time>
      </trkpt>
      <trkpt lat="22.785959" lon="108.987044">
        <ele>94.684205</ele>
        <time>2026-08-14T07:31:40.000Z</time>
      </trkpt>
      <trkpt lat="22.785963" lon="108.987042">
        <ele>94.677308</ele>
        <time>2026-08-14T07:31:41.000Z</time>
      </trkpt>
      <trkpt lat="22.785963" lon="108.987042">
        <ele>94.677308</ele>
        <time>2026-08-14T07:31:42.000Z</time>
      </trkpt>
      <trkpt lat="22.785994" lon="108.987065">
        <ele>94.620314</ele>
        <time>2026-08-14T07:32:44.000Z</time>
      </trkpt>
      <trkpt lat="22.786010" lon="108.987076">
        <ele>94.596888</ele>
        <time>2026-08-14T07:32:45.000Z</time>
      </trkpt>
      <trkpt lat="22.786026" lon="108.987085">
        <ele>94.574599</ele>
        <time>2026-08-14T07:32:46.000Z</time>
      </trkpt>
      <trkpt lat="22.786040" lon="108.987090">
        <ele>94.556372</ele>
        <time>2026-08-14T07:32:47.000Z</time>
      </trkpt>
      <trkpt lat="22.786052" lon="108.987094">
        <ele>94.540848</ele>
        <time>2026-08-14T07:32:48.000Z</time>
      </trkpt>
      <trkpt lat="22.786058" lon="108.987097">
        <ele>94.532677</ele>
        <time>2026-08-14T07:32:49.000Z</time>
      </trkpt>
      <trkpt lat="22.786058" lon="108.987097">
        <ele>94.532677</ele>
        <time>2026-08-14T07:32:51.000Z</time>
      </trkpt>
      <trkpt lat="22.786104" lon="108.987146">
        <ele>94.452947</ele>
        <time>2026-08-14T07:33:02.000Z</time>
      </trkpt>
      <trkpt lat="22.786124" lon="108.987163">
        <ele>94.421525</ele>
        <time>2026-08-14T07:33:03.000Z</time>
      </trkpt>
      <trkpt lat="22.786149" lon="108.987176">
        <ele>94.387240</ele>
        <time>2026-08-14T07:33:04.000Z</time>
      </trkpt>
      <trkpt lat="22.786177" lon="108.987191">
        <ele>94.348621</ele>
        <time>2026-08-14T07:33:05.000Z</time>
      </trkpt>
      <trkpt lat="22.786208" lon="108.987207">
        <ele>94.306167</ele>
        <time>2026-08-14T07:33:06.000Z</time>
      </trkpt>
      <trkpt lat="22.786243" lon="108.987227">
        <ele>94.257246</ele>
        <time>2026-08-14T07:33:07.000Z</time>
      </trkpt>
      <trkpt lat="22.786276" lon="108.987247">
        <ele>94.210499</ele>
        <time>2026-08-14T07:33:08.000Z</time>
      </trkpt>
      <trkpt lat="22.786310" lon="108.987266">
        <ele>94.163201</ele>
        <time>2026-08-14T07:33:09.000Z</time>
      </trkpt>
      <trkpt lat="22.786348" lon="108.987286">
        <ele>94.110969</ele>
        <time>2026-08-14T07:33:10.000Z</time>
      </trkpt>
      <trkpt lat="22.786387" lon="108.987305">
        <ele>94.058099</ele>
        <time>2026-08-14T07:33:11.000Z</time>
      </trkpt>
      <trkpt lat="22.786427" lon="108.987324">
        <ele>94.004098</ele>
        <time>2026-08-14T07:33:12.000Z</time>
      </trkpt>
      <trkpt lat="22.786465" lon="108.987344">
        <ele>93.951866</ele>
        <time>2026-08-14T07:33:13.000Z</time>
      </trkpt>
      <trkpt lat="22.786505" lon="108.987364">
        <ele>93.897399</ele>
        <time>2026-08-14T07:33:14.000Z</time>
      </trkpt>
      <trkpt lat="22.786545" lon="108.987383">
        <ele>93.843398</ele>
        <time>2026-08-14T07:33:15.000Z</time>
      </trkpt>
      <trkpt lat="22.786585" lon="108.987402">
        <ele>93.789398</ele>
        <time>2026-08-14T07:33:16.000Z</time>
      </trkpt>
      <trkpt lat="22.786626" lon="108.987421">
        <ele>93.734262</ele>
        <time>2026-08-14T07:33:17.000Z</time>
      </trkpt>
      <trkpt lat="22.786666" lon="108.987440">
        <ele>93.680262</ele>
        <time>2026-08-14T07:33:18.000Z</time>
      </trkpt>
      <trkpt lat="22.786706" lon="108.987458">
        <ele>93.626708</ele>
        <time>2026-08-14T07:33:19.000Z</time>
      </trkpt>
      <trkpt lat="22.786747" lon="108.987477">
        <ele>93.571573</ele>
        <time>2026-08-14T07:33:20.000Z</time>
      </trkpt>
      <trkpt lat="22.786788" lon="108.987496">
        <ele>93.516437</ele>
        <time>2026-08-14T07:33:21.000Z</time>
      </trkpt>
      <trkpt lat="22.786830" lon="108.987515">
        <ele>93.460163</ele>
        <time>2026-08-14T07:33:22.000Z</time>
      </trkpt>
      <trkpt lat="22.786871" lon="108.987535">
        <ele>93.404569</ele>
        <time>2026-08-14T07:33:23.000Z</time>
      </trkpt>
      <trkpt lat="22.786911" lon="108.987554">
        <ele>93.350569</ele>
        <time>2026-08-14T07:33:24.000Z</time>
      </trkpt>
      <trkpt lat="22.786951" lon="108.987574">
        <ele>93.296101</ele>
        <time>2026-08-14T07:33:25.000Z</time>
      </trkpt>
      <trkpt lat="22.786990" lon="108.987594">
        <ele>93.242754</ele>
        <time>2026-08-14T07:33:26.000Z</time>
      </trkpt>
      <trkpt lat="22.787029" lon="108.987615">
        <ele>93.188909</ele>
        <time>2026-08-14T07:33:27.000Z</time>
      </trkpt>
      <trkpt lat="22.787070" lon="108.987636">
        <ele>93.132839</ele>
        <time>2026-08-14T07:33:28.000Z</time>
      </trkpt>
      <trkpt lat="22.787112" lon="108.987655">
        <ele>93.076564</ele>
        <time>2026-08-14T07:33:29.000Z</time>
      </trkpt>
      <trkpt lat="22.787152" lon="108.987674">
        <ele>93.022564</ele>
        <time>2026-08-14T07:33:30.000Z</time>
      </trkpt>
      <trkpt lat="22.787194" lon="108.987692">
        <ele>92.966718</ele>
        <time>2026-08-14T07:33:31.000Z</time>
      </trkpt>
      <trkpt lat="22.787237" lon="108.987709">
        <ele>92.910121</ele>
        <time>2026-08-14T07:33:32.000Z</time>
      </trkpt>
      <trkpt lat="22.787277" lon="108.987728">
        <ele>92.856120</ele>
        <time>2026-08-14T07:33:33.000Z</time>
      </trkpt>
      <trkpt lat="22.787317" lon="108.987748">
        <ele>92.801653</ele>
        <time>2026-08-14T07:33:34.000Z</time>
      </trkpt>
      <trkpt lat="22.787354" lon="108.987767">
        <ele>92.751029</ele>
        <time>2026-08-14T07:33:35.000Z</time>
      </trkpt>
      <trkpt lat="22.787391" lon="108.987784">
        <ele>92.701337</ele>
        <time>2026-08-14T07:33:36.000Z</time>
      </trkpt>
      <trkpt lat="22.787427" lon="108.987802">
        <ele>92.652316</ele>
        <time>2026-08-14T07:33:37.000Z</time>
      </trkpt>
      <trkpt lat="22.787463" lon="108.987821">
        <ele>92.602807</ele>
        <time>2026-08-14T07:33:38.000Z</time>
      </trkpt>
      <trkpt lat="22.787500" lon="108.987840">
        <ele>92.552183</ele>
        <time>2026-08-14T07:33:39.000Z</time>
      </trkpt>
      <trkpt lat="22.787539" lon="108.987858">
        <ele>92.499770</ele>
        <time>2026-08-14T07:33:40.000Z</time>
      </trkpt>
      <trkpt lat="22.787580" lon="108.987873">
        <ele>92.446262</ele>
        <time>2026-08-14T07:33:41.000Z</time>
      </trkpt>
      <trkpt lat="22.787621" lon="108.987890">
        <ele>92.402411</ele>
        <time>2026-08-14T07:33:42.000Z</time>
      </trkpt>
      <trkpt lat="22.787664" lon="108.987910">
        <ele>92.399920</ele>
        <time>2026-08-14T07:33:43.000Z</time>
      </trkpt>
      <trkpt lat="22.787708" lon="108.987931">
        <ele>92.397360</ele>
        <time>2026-08-14T07:33:44.000Z</time>
      </trkpt>
      <trkpt lat="22.787753" lon="108.987954">
        <ele>92.394711</ele>
        <time>2026-08-14T07:33:45.000Z</time>
      </trkpt>
      <trkpt lat="22.787799" lon="108.987978">
        <ele>92.391993</ele>
        <time>2026-08-14T07:33:46.000Z</time>
      </trkpt>
      <trkpt lat="22.787845" lon="108.988003">
        <ele>92.389253</ele>
        <time>2026-08-14T07:33:47.000Z</time>
      </trkpt>
      <trkpt lat="22.787894" lon="108.988028">
        <ele>92.386370</ele>
        <time>2026-08-14T07:33:48.000Z</time>
      </trkpt>
      <trkpt lat="22.787945" lon="108.988052">
        <ele>92.383409</ele>
        <time>2026-08-14T07:33:49.000Z</time>
      </trkpt>
      <trkpt lat="22.787995" lon="108.988076">
        <ele>92.380498</ele>
        <time>2026-08-14T07:33:50.000Z</time>
      </trkpt>
      <trkpt lat="22.788044" lon="108.988100">
        <ele>92.377635</ele>
        <time>2026-08-14T07:33:51.000Z</time>
      </trkpt>
      <trkpt lat="22.788092" lon="108.988123">
        <ele>92.374841</ele>
        <time>2026-08-14T07:33:52.000Z</time>
      </trkpt>
      <trkpt lat="22.788140" lon="108.988144">
        <ele>92.372085</ele>
        <time>2026-08-14T07:33:53.000Z</time>
      </trkpt>
      <trkpt lat="22.788188" lon="108.988165">
        <ele>92.369329</ele>
        <time>2026-08-14T07:33:54.000Z</time>
      </trkpt>
      <trkpt lat="22.788236" lon="108.988189">
        <ele>92.366514</ele>
        <time>2026-08-14T07:33:55.000Z</time>
      </trkpt>
      <trkpt lat="22.788284" lon="108.988213">
        <ele>92.363700</ele>
        <time>2026-08-14T07:33:56.000Z</time>
      </trkpt>
      <trkpt lat="22.788331" lon="108.988236">
        <ele>92.360954</ele>
        <time>2026-08-14T07:33:57.000Z</time>
      </trkpt>
      <trkpt lat="22.788379" lon="108.988260">
        <ele>92.358140</ele>
        <time>2026-08-14T07:33:58.000Z</time>
      </trkpt>
      <trkpt lat="22.788425" lon="108.988283">
        <ele>92.355442</ele>
        <time>2026-08-14T07:33:59.000Z</time>
      </trkpt>
      <trkpt lat="22.788473" lon="108.988305">
        <ele>92.352668</ele>
        <time>2026-08-14T07:34:00.000Z</time>
      </trkpt>
      <trkpt lat="22.788520" lon="108.988326">
        <ele>92.349961</ele>
        <time>2026-08-14T07:34:01.000Z</time>
      </trkpt>
      <trkpt lat="22.788567" lon="108.988348">
        <ele>92.347235</ele>
        <time>2026-08-14T07:34:02.000Z</time>
      </trkpt>
      <trkpt lat="22.788612" lon="108.988369">
        <ele>92.344626</ele>
        <time>2026-08-14T07:34:03.000Z</time>
      </trkpt>
      <trkpt lat="22.788658" lon="108.988390">
        <ele>92.341969</ele>
        <time>2026-08-14T07:34:04.000Z</time>
      </trkpt>
      <trkpt lat="22.788704" lon="108.988410">
        <ele>92.339330</ele>
        <time>2026-08-14T07:34:05.000Z</time>
      </trkpt>
      <trkpt lat="22.788750" lon="108.988431">
        <ele>92.336672</ele>
        <time>2026-08-14T07:34:06.000Z</time>
      </trkpt>
      <trkpt lat="22.788796" lon="108.988452">
        <ele>92.334015</ele>
        <time>2026-08-14T07:34:07.000Z</time>
      </trkpt>
      <trkpt lat="22.788843" lon="108.988472">
        <ele>92.331326</ele>
        <time>2026-08-14T07:34:08.000Z</time>
      </trkpt>
      <trkpt lat="22.788888" lon="108.988493">
        <ele>92.328718</ele>
        <time>2026-08-14T07:34:09.000Z</time>
      </trkpt>
      <trkpt lat="22.788932" lon="108.988512">
        <ele>92.326196</ele>
        <time>2026-08-14T07:34:10.000Z</time>
      </trkpt>
      <trkpt lat="22.788974" lon="108.988529">
        <ele>92.323809</ele>
        <time>2026-08-14T07:34:11.000Z</time>
      </trkpt>
      <trkpt lat="22.789017" lon="108.988546">
        <ele>92.321372</ele>
        <time>2026-08-14T07:34:12.000Z</time>
      </trkpt>
      <trkpt lat="22.789057" lon="108.988562">
        <ele>92.319102</ele>
        <time>2026-08-14T07:34:13.000Z</time>
      </trkpt>
      <trkpt lat="22.789096" lon="108.988574">
        <ele>92.316943</ele>
        <time>2026-08-14T07:34:14.000Z</time>
      </trkpt>
      <trkpt lat="22.789135" lon="108.988584">
        <ele>92.314809</ele>
        <time>2026-08-14T07:34:15.000Z</time>
      </trkpt>
      <trkpt lat="22.789173" lon="108.988595">
        <ele>92.312715</ele>
        <time>2026-08-14T07:34:16.000Z</time>
      </trkpt>
      <trkpt lat="22.789212" lon="108.988606">
        <ele>92.310569</ele>
        <time>2026-08-14T07:34:17.000Z</time>
      </trkpt>
      <trkpt lat="22.789250" lon="108.988617">
        <ele>92.308475</ele>
        <time>2026-08-14T07:34:18.000Z</time>
      </trkpt>
      <trkpt lat="22.789289" lon="108.988627">
        <ele>92.327055</ele>
        <time>2026-08-14T07:34:19.000Z</time>
      </trkpt>
      <trkpt lat="22.789326" lon="108.988637">
        <ele>92.380135</ele>
        <time>2026-08-14T07:34:20.000Z</time>
      </trkpt>
      <trkpt lat="22.789361" lon="108.988648">
        <ele>92.430860</ele>
        <time>2026-08-14T07:34:21.000Z</time>
      </trkpt>
      <trkpt lat="22.789392" lon="108.988657">
        <ele>92.475532</ele>
        <time>2026-08-14T07:34:22.000Z</time>
      </trkpt>
      <trkpt lat="22.789419" lon="108.988665">
        <ele>92.514494</ele>
        <time>2026-08-14T07:34:23.000Z</time>
      </trkpt>
      <trkpt lat="22.789443" lon="108.988672">
        <ele>92.549089</ele>
        <time>2026-08-14T07:34:24.000Z</time>
      </trkpt>
      <trkpt lat="22.789466" lon="108.988679">
        <ele>92.582342</ele>
        <time>2026-08-14T07:34:25.000Z</time>
      </trkpt>
      <trkpt lat="22.789489" lon="108.988684">
        <ele>92.614995</ele>
        <time>2026-08-14T07:34:26.000Z</time>
      </trkpt>
      <trkpt lat="22.789512" lon="108.988687">
        <ele>92.647242</ele>
        <time>2026-08-14T07:34:27.000Z</time>
      </trkpt>
      <trkpt lat="22.789534" lon="108.988689">
        <ele>92.677974</ele>
        <time>2026-08-14T07:34:28.000Z</time>
      </trkpt>
      <trkpt lat="22.789555" lon="108.988691">
        <ele>92.707319</ele>
        <time>2026-08-14T07:34:29.000Z</time>
      </trkpt>
      <trkpt lat="22.789574" lon="108.988697">
        <ele>92.734866</ele>
        <time>2026-08-14T07:34:30.000Z</time>
      </trkpt>
      <trkpt lat="22.789593" lon="108.988702">
        <ele>92.762082</ele>
        <time>2026-08-14T07:34:31.000Z</time>
      </trkpt>
      <trkpt lat="22.789608" lon="108.988711">
        <ele>92.785944</ele>
        <time>2026-08-14T07:34:32.000Z</time>
      </trkpt>
      <trkpt lat="22.789618" lon="108.988721">
        <ele>92.804877</ele>
        <time>2026-08-14T07:34:33.000Z</time>
      </trkpt>
      <trkpt lat="22.789625" lon="108.988730">
        <ele>92.819989</ele>
        <time>2026-08-14T07:34:34.000Z</time>
      </trkpt>
      <trkpt lat="22.789629" lon="108.988734">
        <ele>92.827562</ele>
        <time>2026-08-14T07:34:35.000Z</time>
      </trkpt>
      <trkpt lat="22.789585" lon="108.988813">
        <ele>92.946012</ele>
        <time>2026-08-14T07:35:00.000Z</time>
      </trkpt>
      <trkpt lat="22.789573" lon="108.988826">
        <ele>92.969621</ele>
        <time>2026-08-14T07:35:01.000Z</time>
      </trkpt>
      <trkpt lat="22.789561" lon="108.988835">
        <ele>92.989929</ele>
        <time>2026-08-14T07:35:02.000Z</time>
      </trkpt>
      <trkpt lat="22.789554" lon="108.988844">
        <ele>93.005041</ele>
        <time>2026-08-14T07:35:03.000Z</time>
      </trkpt>
      <trkpt lat="22.789550" lon="108.988851">
        <ele>93.015610</ele>
        <time>2026-08-14T07:35:04.000Z</time>
      </trkpt>
      <trkpt lat="22.789550" lon="108.988854">
        <ele>93.019460</ele>
        <time>2026-08-14T07:35:05.000Z</time>
      </trkpt>
      <trkpt lat="22.789551" lon="108.988856">
        <ele>93.022380</ele>
        <time>2026-08-14T07:35:06.000Z</time>
      </trkpt>
      <trkpt lat="22.789638" lon="108.988814">
        <ele>93.154939</ele>
        <time>2026-08-14T07:35:25.000Z</time>
      </trkpt>
      <trkpt lat="22.789650" lon="108.988790">
        <ele>93.189978</ele>
        <time>2026-08-14T07:35:26.000Z</time>
      </trkpt>
      <trkpt lat="22.789667" lon="108.988767">
        <ele>93.227810</ele>
        <time>2026-08-14T07:35:27.000Z</time>
      </trkpt>
      <trkpt lat="22.789687" lon="108.988748">
        <ele>93.264819</ele>
        <time>2026-08-14T07:35:28.000Z</time>
      </trkpt>
      <trkpt lat="22.789711" lon="108.988739">
        <ele>93.300168</ele>
        <time>2026-08-14T07:35:29.000Z</time>
      </trkpt>
      <trkpt lat="22.789735" lon="108.988735">
        <ele>93.333969</ele>
        <time>2026-08-14T07:35:30.000Z</time>
      </trkpt>
      <trkpt lat="22.789759" lon="108.988731">
        <ele>93.367769</ele>
        <time>2026-08-14T07:35:31.000Z</time>
      </trkpt>
      <trkpt lat="22.789786" lon="108.988726">
        <ele>93.405898</ele>
        <time>2026-08-14T07:35:32.000Z</time>
      </trkpt>
      <trkpt lat="22.789814" lon="108.988723">
        <ele>93.445064</ele>
        <time>2026-08-14T07:35:33.000Z</time>
      </trkpt>
      <trkpt lat="22.789842" lon="108.988720">
        <ele>93.484231</ele>
        <time>2026-08-14T07:35:34.000Z</time>
      </trkpt>
      <trkpt lat="22.789869" lon="108.988712">
        <ele>93.523192</ele>
        <time>2026-08-14T07:35:35.000Z</time>
      </trkpt>
      <trkpt lat="22.789896" lon="108.988704">
        <ele>93.562154</ele>
        <time>2026-08-14T07:35:36.000Z</time>
      </trkpt>
      <trkpt lat="22.789926" lon="108.988695">
        <ele>93.605483</ele>
        <time>2026-08-14T07:35:37.000Z</time>
      </trkpt>
      <trkpt lat="22.789955" lon="108.988687">
        <ele>93.647137</ele>
        <time>2026-08-14T07:35:38.000Z</time>
      </trkpt>
      <trkpt lat="22.789982" lon="108.988681">
        <ele>93.685502</ele>
        <time>2026-08-14T07:35:39.000Z</time>
      </trkpt>
      <trkpt lat="22.790007" lon="108.988677">
        <ele>93.720679</ele>
        <time>2026-08-14T07:35:40.000Z</time>
      </trkpt>
      <trkpt lat="22.790032" lon="108.988673">
        <ele>93.755856</ele>
        <time>2026-08-14T07:35:41.000Z</time>
      </trkpt>
      <trkpt lat="22.790056" lon="108.988668">
        <ele>93.789876</ele>
        <time>2026-08-14T07:35:42.000Z</time>
      </trkpt>
      <trkpt lat="22.790082" lon="108.988658">
        <ele>93.828276</ele>
        <time>2026-08-14T07:35:43.000Z</time>
      </trkpt>
      <trkpt lat="22.790109" lon="108.988647">
        <ele>93.868425</ele>
        <time>2026-08-14T07:35:44.000Z</time>
      </trkpt>
      <trkpt lat="22.790139" lon="108.988636">
        <ele>93.912507</ele>
        <time>2026-08-14T07:35:45.000Z</time>
      </trkpt>
      <trkpt lat="22.790168" lon="108.988624">
        <ele>93.955713</ele>
        <time>2026-08-14T07:35:46.000Z</time>
      </trkpt>
      <trkpt lat="22.790198" lon="108.988610">
        <ele>94.001175</ele>
        <time>2026-08-14T07:35:47.000Z</time>
      </trkpt>
      <trkpt lat="22.790232" lon="108.988596">
        <ele>94.051800</ele>
        <time>2026-08-14T07:35:48.000Z</time>
      </trkpt>
      <trkpt lat="22.790266" lon="108.988583">
        <ele>94.101983</ele>
        <time>2026-08-14T07:35:49.000Z</time>
      </trkpt>
      <trkpt lat="22.790301" lon="108.988571">
        <ele>94.153080</ele>
        <time>2026-08-14T07:35:50.000Z</time>
      </trkpt>
      <trkpt lat="22.790335" lon="108.988558">
        <ele>94.203263</ele>
        <time>2026-08-14T07:35:51.000Z</time>
      </trkpt>
      <trkpt lat="22.790367" lon="108.988554">
        <ele>94.248103</ele>
        <time>2026-08-14T07:35:52.000Z</time>
      </trkpt>
      <trkpt lat="22.790394" lon="108.988561">
        <ele>94.286746</ele>
        <time>2026-08-14T07:35:53.000Z</time>
      </trkpt>
      <trkpt lat="22.790409" lon="108.988577">
        <ele>94.316031</ele>
        <time>2026-08-14T07:35:54.000Z</time>
      </trkpt>
      <trkpt lat="22.790418" lon="108.988605">
        <ele>94.354086</ele>
        <time>2026-08-14T07:35:55.000Z</time>
      </trkpt>
      <trkpt lat="22.790425" lon="108.988637">
        <ele>94.396293</ele>
        <time>2026-08-14T07:35:56.000Z</time>
      </trkpt>
      <trkpt lat="22.790430" lon="108.988670">
        <ele>94.439212</ele>
        <time>2026-08-14T07:35:57.000Z</time>
      </trkpt>
      <trkpt lat="22.790436" lon="108.988705">
        <ele>94.484899</ele>
        <time>2026-08-14T07:35:58.000Z</time>
      </trkpt>
      <trkpt lat="22.790441" lon="108.988740">
        <ele>94.530352</ele>
        <time>2026-08-14T07:35:59.000Z</time>
      </trkpt>
      <trkpt lat="22.790444" lon="108.988772">
        <ele>94.571631</ele>
        <time>2026-08-14T07:36:00.000Z</time>
      </trkpt>
      <trkpt lat="22.790451" lon="108.988806">
        <ele>94.616340</ele>
        <time>2026-08-14T07:36:01.000Z</time>
      </trkpt>
      <trkpt lat="22.790462" lon="108.988841">
        <ele>94.663795</ele>
        <time>2026-08-14T07:36:02.000Z</time>
      </trkpt>
      <trkpt lat="22.790470" lon="108.988872">
        <ele>94.705108</ele>
        <time>2026-08-14T07:36:03.000Z</time>
      </trkpt>
      <trkpt lat="22.790478" lon="108.988904">
        <ele>94.747658</ele>
        <time>2026-08-14T07:36:04.000Z</time>
      </trkpt>
      <trkpt lat="22.790487" lon="108.988939">
        <ele>94.794290</ele>
        <time>2026-08-14T07:36:05.000Z</time>
      </trkpt>
      <trkpt lat="22.790494" lon="108.988974">
        <ele>94.820323</ele>
        <time>2026-08-14T07:36:06.000Z</time>
      </trkpt>
      <trkpt lat="22.790505" lon="108.989009">
        <ele>94.835599</ele>
        <time>2026-08-14T07:36:07.000Z</time>
      </trkpt>
      <trkpt lat="22.790511" lon="108.989043">
        <ele>94.849901</ele>
        <time>2026-08-14T07:36:08.000Z</time>
      </trkpt>
      <trkpt lat="22.790514" lon="108.989077">
        <ele>94.864012</ele>
        <time>2026-08-14T07:36:09.000Z</time>
      </trkpt>
      <trkpt lat="22.790513" lon="108.989110">
        <ele>94.877653</ele>
        <time>2026-08-14T07:36:10.000Z</time>
      </trkpt>
      <trkpt lat="22.790515" lon="108.989143">
        <ele>94.891315</ele>
        <time>2026-08-14T07:36:11.000Z</time>
      </trkpt>
      <trkpt lat="22.790511" lon="108.989181">
        <ele>94.907117</ele>
        <time>2026-08-14T07:36:12.000Z</time>
      </trkpt>
      <trkpt lat="22.790505" lon="108.989216">
        <ele>94.921824</ele>
        <time>2026-08-14T07:36:13.000Z</time>
      </trkpt>
      <trkpt lat="22.790497" lon="108.989251">
        <ele>94.936722</ele>
        <time>2026-08-14T07:36:14.000Z</time>
      </trkpt>
      <trkpt lat="22.790494" lon="108.989287">
        <ele>94.951655</ele>
        <time>2026-08-14T07:36:15.000Z</time>
      </trkpt>
      <trkpt lat="22.790491" lon="108.989324">
        <ele>94.967000</ele>
        <time>2026-08-14T07:36:16.000Z</time>
      </trkpt>
      <trkpt lat="22.790493" lon="108.989363">
        <ele>94.983137</ele>
        <time>2026-08-14T07:36:17.000Z</time>
      </trkpt>
      <trkpt lat="22.790493" lon="108.989400">
        <ele>94.998423</ele>
        <time>2026-08-14T07:36:18.000Z</time>
      </trkpt>
      <trkpt lat="22.790488" lon="108.989439">
        <ele>95.014690</ele>
        <time>2026-08-14T07:36:19.000Z</time>
      </trkpt>
      <trkpt lat="22.790486" lon="108.989476">
        <ele>95.030003</ele>
        <time>2026-08-14T07:36:20.000Z</time>
      </trkpt>
      <trkpt lat="22.790483" lon="108.989513">
        <ele>95.045348</ele>
        <time>2026-08-14T07:36:21.000Z</time>
      </trkpt>
      <trkpt lat="22.790486" lon="108.989551">
        <ele>95.061104</ele>
        <time>2026-08-14T07:36:22.000Z</time>
      </trkpt>
      <trkpt lat="22.790483" lon="108.989584">
        <ele>95.074804</ele>
        <time>2026-08-14T07:36:23.000Z</time>
      </trkpt>
      <trkpt lat="22.790476" lon="108.989613">
        <ele>95.087189</ele>
        <time>2026-08-14T07:36:24.000Z</time>
      </trkpt>
      <trkpt lat="22.790471" lon="108.989644">
        <ele>95.100190</ele>
        <time>2026-08-14T07:36:25.000Z</time>
      </trkpt>
      <trkpt lat="22.790462" lon="108.989670">
        <ele>95.111664</ele>
        <time>2026-08-14T07:36:26.000Z</time>
      </trkpt>
      <trkpt lat="22.790458" lon="108.989702">
        <ele>95.125005</ele>
        <time>2026-08-14T07:36:27.000Z</time>
      </trkpt>
      <trkpt lat="22.790456" lon="108.989735">
        <ele>95.138668</ele>
        <time>2026-08-14T07:36:28.000Z</time>
      </trkpt>
      <trkpt lat="22.790454" lon="108.989765">
        <ele>95.151095</ele>
        <time>2026-08-14T07:36:29.000Z</time>
      </trkpt>
      <trkpt lat="22.790454" lon="108.989794">
        <ele>95.163075</ele>
        <time>2026-08-14T07:36:30.000Z</time>
      </trkpt>
      <trkpt lat="22.790459" lon="108.989827">
        <ele>95.176892</ele>
        <time>2026-08-14T07:36:31.000Z</time>
      </trkpt>
      <trkpt lat="22.790469" lon="108.989856">
        <ele>95.189683</ele>
        <time>2026-08-14T07:36:32.000Z</time>
      </trkpt>
      <trkpt lat="22.790479" lon="108.989882">
        <ele>95.201322</ele>
        <time>2026-08-14T07:36:33.000Z</time>
      </trkpt>
      <trkpt lat="22.790488" lon="108.989911">
        <ele>95.213964</ele>
        <time>2026-08-14T07:36:34.000Z</time>
      </trkpt>
      <trkpt lat="22.790494" lon="108.989933">
        <ele>95.223442</ele>
        <time>2026-08-14T07:36:35.000Z</time>
      </trkpt>
      <trkpt lat="22.790498" lon="108.989950">
        <ele>95.230690</ele>
        <time>2026-08-14T07:36:36.000Z</time>
      </trkpt>
      <trkpt lat="22.790499" lon="108.989957">
        <ele>95.233617</ele>
        <time>2026-08-14T07:36:37.000Z</time>
      </trkpt>
      <trkpt lat="22.790513" lon="108.990044">
        <ele>95.270103</ele>
        <time>2026-08-14T07:37:42.000Z</time>
      </trkpt>
      <trkpt lat="22.790512" lon="108.990073">
        <ele>95.282092</ele>
        <time>2026-08-14T07:37:43.000Z</time>
      </trkpt>
      <trkpt lat="22.790508" lon="108.990106">
        <ele>95.295843</ele>
        <time>2026-08-14T07:37:44.000Z</time>
      </trkpt>
      <trkpt lat="22.790504" lon="108.990138">
        <ele>95.309184</ele>
        <time>2026-08-14T07:37:45.000Z</time>
      </trkpt>
      <trkpt lat="22.790502" lon="108.990170">
        <ele>95.322435</ele>
        <time>2026-08-14T07:37:46.000Z</time>
      </trkpt>
      <trkpt lat="22.790499" lon="108.990205">
        <ele>95.336957</ele>
        <time>2026-08-14T07:37:47.000Z</time>
      </trkpt>
      <trkpt lat="22.790499" lon="108.990243">
        <ele>95.352656</ele>
        <time>2026-08-14T07:37:48.000Z</time>
      </trkpt>
      <trkpt lat="22.790499" lon="108.990281">
        <ele>95.368355</ele>
        <time>2026-08-14T07:37:49.000Z</time>
      </trkpt>
      <trkpt lat="22.790502" lon="108.990322">
        <ele>95.385347</ele>
        <time>2026-08-14T07:37:50.000Z</time>
      </trkpt>
      <trkpt lat="22.790502" lon="108.990364">
        <ele>95.402699</ele>
        <time>2026-08-14T07:37:51.000Z</time>
      </trkpt>
      <trkpt lat="22.790502" lon="108.990405">
        <ele>95.419637</ele>
        <time>2026-08-14T07:37:52.000Z</time>
      </trkpt>
      <trkpt lat="22.790507" lon="108.990444">
        <ele>95.435904</ele>
        <time>2026-08-14T07:37:53.000Z</time>
      </trkpt>
      <trkpt lat="22.790510" lon="108.990476">
        <ele>95.449193</ele>
        <time>2026-08-14T07:37:54.000Z</time>
      </trkpt>
      <trkpt lat="22.790512" lon="108.990504">
        <ele>95.460795</ele>
        <time>2026-08-14T07:37:55.000Z</time>
      </trkpt>
      <trkpt lat="22.790515" lon="108.990524">
        <ele>95.469167</ele>
        <time>2026-08-14T07:37:56.000Z</time>
      </trkpt>
      <trkpt lat="22.790521" lon="108.990535">
        <ele>95.474447</ele>
        <time>2026-08-14T07:37:57.000Z</time>
      </trkpt>
      <trkpt lat="22.790528" lon="108.990542">
        <ele>95.478714</ele>
        <time>2026-08-14T07:37:58.000Z</time>
      </trkpt>
      <trkpt lat="22.790542" lon="108.990547">
        <ele>95.485319</ele>
        <time>2026-08-14T07:37:59.000Z</time>
      </trkpt>
      <trkpt lat="22.790564" lon="108.990548">
        <ele>95.495186</ele>
        <time>2026-08-14T07:38:00.000Z</time>
      </trkpt>
      <trkpt lat="22.790588" lon="108.990545">
        <ele>95.506012</ele>
        <time>2026-08-14T07:38:01.000Z</time>
      </trkpt>
      <trkpt lat="22.790612" lon="108.990538">
        <ele>95.517149</ele>
        <time>2026-08-14T07:38:02.000Z</time>
      </trkpt>
      <trkpt lat="22.790638" lon="108.990532">
        <ele>95.529061</ele>
        <time>2026-08-14T07:38:03.000Z</time>
      </trkpt>
      <trkpt lat="22.790666" lon="108.990523">
        <ele>95.542147</ele>
        <time>2026-08-14T07:38:04.000Z</time>
      </trkpt>
      <trkpt lat="22.790695" lon="108.990519">
        <ele>95.555248</ele>
        <time>2026-08-14T07:38:05.000Z</time>
      </trkpt>
      <trkpt lat="22.790725" lon="108.990514">
        <ele>95.568849</ele>
        <time>2026-08-14T07:38:06.000Z</time>
      </trkpt>
      <trkpt lat="22.790756" lon="108.990509">
        <ele>95.582893</ele>
        <time>2026-08-14T07:38:07.000Z</time>
      </trkpt>
      <trkpt lat="22.790787" lon="108.990500">
        <ele>95.597274</ele>
        <time>2026-08-14T07:38:08.000Z</time>
      </trkpt>
      <trkpt lat="22.790816" lon="108.990491">
        <ele>95.610791</ele>
        <time>2026-08-14T07:38:09.000Z</time>
      </trkpt>
      <trkpt lat="22.790843" lon="108.990482">
        <ele>95.617384</ele>
        <time>2026-08-14T07:38:10.000Z</time>
      </trkpt>
      <trkpt lat="22.790873" lon="108.990474">
        <ele>95.618464</ele>
        <time>2026-08-14T07:38:11.000Z</time>
      </trkpt>
      <trkpt lat="22.790900" lon="108.990465">
        <ele>95.619452</ele>
        <time>2026-08-14T07:38:12.000Z</time>
      </trkpt>
      <trkpt lat="22.790927" lon="108.990455">
        <ele>95.620450</ele>
        <time>2026-08-14T07:38:13.000Z</time>
      </trkpt>
      <trkpt lat="22.790955" lon="108.990448">
        <ele>95.621455</ele>
        <time>2026-08-14T07:38:14.000Z</time>
      </trkpt>
      <trkpt lat="22.790983" lon="108.990445">
        <ele>95.622439</ele>
        <time>2026-08-14T07:38:15.000Z</time>
      </trkpt>
      <trkpt lat="22.791011" lon="108.990442">
        <ele>95.623423</ele>
        <time>2026-08-14T07:38:16.000Z</time>
      </trkpt>
      <trkpt lat="22.791039" lon="108.990438">
        <ele>95.624411</ele>
        <time>2026-08-14T07:38:17.000Z</time>
      </trkpt>
      <trkpt lat="22.791066" lon="108.990435">
        <ele>95.625360</ele>
        <time>2026-08-14T07:38:18.000Z</time>
      </trkpt>
      <trkpt lat="22.791094" lon="108.990433">
        <ele>95.626342</ele>
        <time>2026-08-14T07:38:19.000Z</time>
      </trkpt>
      <trkpt lat="22.791122" lon="108.990432">
        <ele>95.627322</ele>
        <time>2026-08-14T07:38:20.000Z</time>
      </trkpt>
      <trkpt lat="22.791151" lon="108.990433">
        <ele>95.628336</ele>
        <time>2026-08-14T07:38:21.000Z</time>
      </trkpt>
      <trkpt lat="22.791181" lon="108.990437">
        <ele>95.629394</ele>
        <time>2026-08-14T07:38:22.000Z</time>
      </trkpt>
      <trkpt lat="22.791212" lon="108.990443">
        <ele>95.630495</ele>
        <time>2026-08-14T07:38:23.000Z</time>
      </trkpt>
      <trkpt lat="22.791242" lon="108.990449">
        <ele>95.631562</ele>
        <time>2026-08-14T07:38:24.000Z</time>
      </trkpt>
      <trkpt lat="22.791271" lon="108.990453">
        <ele>95.632584</ele>
        <time>2026-08-14T07:38:25.000Z</time>
      </trkpt>
      <trkpt lat="22.791300" lon="108.990455">
        <ele>95.633601</ele>
        <time>2026-08-14T07:38:26.000Z</time>
      </trkpt>
      <trkpt lat="22.791329" lon="108.990455">
        <ele>95.634615</ele>
        <time>2026-08-14T07:38:27.000Z</time>
      </trkpt>
      <trkpt lat="22.791356" lon="108.990454">
        <ele>95.635560</ele>
        <time>2026-08-14T07:38:28.000Z</time>
      </trkpt>
      <trkpt lat="22.791382" lon="108.990452">
        <ele>95.636472</ele>
        <time>2026-08-14T07:38:29.000Z</time>
      </trkpt>
      <trkpt lat="22.791409" lon="108.990450">
        <ele>95.637418</ele>
        <time>2026-08-14T07:38:30.000Z</time>
      </trkpt>
      <trkpt lat="22.791435" lon="108.990447">
        <ele>95.638333</ele>
        <time>2026-08-14T07:38:31.000Z</time>
      </trkpt>
      <trkpt lat="22.791461" lon="108.990440">
        <ele>95.639270</ele>
        <time>2026-08-14T07:38:32.000Z</time>
      </trkpt>
      <trkpt lat="22.791487" lon="108.990434">
        <ele>95.640199</ele>
        <time>2026-08-14T07:38:33.000Z</time>
      </trkpt>
      <trkpt lat="22.791513" lon="108.990425">
        <ele>95.641154</ele>
        <time>2026-08-14T07:38:34.000Z</time>
      </trkpt>
      <trkpt lat="22.791539" lon="108.990416">
        <ele>95.642108</ele>
        <time>2026-08-14T07:38:35.000Z</time>
      </trkpt>
      <trkpt lat="22.791565" lon="108.990409">
        <ele>95.643045</ele>
        <time>2026-08-14T07:38:36.000Z</time>
      </trkpt>
      <trkpt lat="22.791590" lon="108.990404">
        <ele>95.643935</ele>
        <time>2026-08-14T07:38:37.000Z</time>
      </trkpt>
      <trkpt lat="22.791614" lon="108.990399">
        <ele>95.644789</ele>
        <time>2026-08-14T07:38:38.000Z</time>
      </trkpt>
      <trkpt lat="22.791635" lon="108.990395">
        <ele>95.645535</ele>
        <time>2026-08-14T07:38:39.000Z</time>
      </trkpt>
      <trkpt lat="22.791654" lon="108.990391">
        <ele>95.646212</ele>
        <time>2026-08-14T07:38:40.000Z</time>
      </trkpt>
      <trkpt lat="22.791676" lon="108.990388">
        <ele>95.646988</ele>
        <time>2026-08-14T07:38:41.000Z</time>
      </trkpt>
      <trkpt lat="22.791699" lon="108.990384">
        <ele>95.647802</ele>
        <time>2026-08-14T07:38:42.000Z</time>
      </trkpt>
      <trkpt lat="22.791724" lon="108.990379">
        <ele>95.648691</ele>
        <time>2026-08-14T07:38:43.000Z</time>
      </trkpt>
      <trkpt lat="22.791750" lon="108.990375">
        <ele>95.649610</ele>
        <time>2026-08-14T07:38:44.000Z</time>
      </trkpt>
      <trkpt lat="22.791776" lon="108.990371">
        <ele>95.650528</ele>
        <time>2026-08-14T07:38:45.000Z</time>
      </trkpt>
      <trkpt lat="22.791801" lon="108.990368">
        <ele>95.651408</ele>
        <time>2026-08-14T07:38:46.000Z</time>
      </trkpt>
      <trkpt lat="22.791825" lon="108.990367">
        <ele>95.652248</ele>
        <time>2026-08-14T07:38:47.000Z</time>
      </trkpt>
      <trkpt lat="22.791847" lon="108.990370">
        <ele>95.653024</ele>
        <time>2026-08-14T07:38:48.000Z</time>
      </trkpt>
      <trkpt lat="22.791867" lon="108.990381">
        <ele>95.653808</ele>
        <time>2026-08-14T07:38:49.000Z</time>
      </trkpt>
      <trkpt lat="22.791886" lon="108.990399">
        <ele>95.654690</ele>
        <time>2026-08-14T07:38:50.000Z</time>
      </trkpt>
      <trkpt lat="22.791902" lon="108.990423">
        <ele>95.655645</ele>
        <time>2026-08-14T07:38:51.000Z</time>
      </trkpt>
      <trkpt lat="22.791910" lon="108.990451">
        <ele>95.656591</ele>
        <time>2026-08-14T07:38:52.000Z</time>
      </trkpt>
      <trkpt lat="22.791911" lon="108.990479">
        <ele>95.657494</ele>
        <time>2026-08-14T07:38:53.000Z</time>
      </trkpt>
      <trkpt lat="22.791913" lon="108.990507">
        <ele>95.658400</ele>
        <time>2026-08-14T07:38:54.000Z</time>
      </trkpt>
      <trkpt lat="22.791914" lon="108.990537">
        <ele>95.659368</ele>
        <time>2026-08-14T07:38:55.000Z</time>
      </trkpt>
      <trkpt lat="22.791915" lon="108.990570">
        <ele>95.660432</ele>
        <time>2026-08-14T07:38:56.000Z</time>
      </trkpt>
      <trkpt lat="22.791917" lon="108.990604">
        <ele>95.661531</ele>
        <time>2026-08-14T07:38:57.000Z</time>
      </trkpt>
      <trkpt lat="22.791921" lon="108.990633">
        <ele>95.662476</ele>
        <time>2026-08-14T07:38:58.000Z</time>
      </trkpt>
      <trkpt lat="22.791926" lon="108.990659">
        <ele>95.663333</ele>
        <time>2026-08-14T07:38:59.000Z</time>
      </trkpt>
      <trkpt lat="22.791932" lon="108.990686">
        <ele>95.664228</ele>
        <time>2026-08-14T07:39:00.000Z</time>
      </trkpt>
      <trkpt lat="22.791937" lon="108.990716">
        <ele>95.665211</ele>
        <time>2026-08-14T07:39:01.000Z</time>
      </trkpt>
      <trkpt lat="22.791939" lon="108.990748">
        <ele>95.666246</ele>
        <time>2026-08-14T07:39:02.000Z</time>
      </trkpt>
      <trkpt lat="22.791940" lon="108.990783">
        <ele>95.667375</ele>
        <time>2026-08-14T07:39:03.000Z</time>
      </trkpt>
      <trkpt lat="22.791942" lon="108.990818">
        <ele>95.668505</ele>
        <time>2026-08-14T07:39:04.000Z</time>
      </trkpt>
      <trkpt lat="22.791942" lon="108.990852">
        <ele>95.669602</ele>
        <time>2026-08-14T07:39:05.000Z</time>
      </trkpt>
      <trkpt lat="22.791941" lon="108.990886">
        <ele>95.670699</ele>
        <time>2026-08-14T07:39:06.000Z</time>
      </trkpt>
      <trkpt lat="22.791940" lon="108.990919">
        <ele>95.671763</ele>
        <time>2026-08-14T07:39:07.000Z</time>
      </trkpt>
      <trkpt lat="22.791941" lon="108.990952">
        <ele>95.672828</ele>
        <time>2026-08-14T07:39:08.000Z</time>
      </trkpt>
      <trkpt lat="22.791944" lon="108.990984">
        <ele>95.673865</ele>
        <time>2026-08-14T07:39:09.000Z</time>
      </trkpt>
      <trkpt lat="22.791947" lon="108.991016">
        <ele>95.674902</ele>
        <time>2026-08-14T07:39:10.000Z</time>
      </trkpt>
      <trkpt lat="22.791948" lon="108.991048">
        <ele>95.675935</ele>
        <time>2026-08-14T07:39:11.000Z</time>
      </trkpt>
      <trkpt lat="22.791948" lon="108.991082">
        <ele>95.677031</ele>
        <time>2026-08-14T07:39:12.000Z</time>
      </trkpt>
      <trkpt lat="22.791948" lon="108.991115">
        <ele>95.678095</ele>
        <time>2026-08-14T07:39:13.000Z</time>
      </trkpt>
      <trkpt lat="22.791949" lon="108.991149">
        <ele>95.679192</ele>
        <time>2026-08-14T07:39:14.000Z</time>
      </trkpt>
      <trkpt lat="22.791951" lon="108.991183">
        <ele>95.683817</ele>
        <time>2026-08-14T07:39:15.000Z</time>
      </trkpt>
      <trkpt lat="22.791953" lon="108.991217">
        <ele>95.692496</ele>
        <time>2026-08-14T07:39:16.000Z</time>
      </trkpt>
      <trkpt lat="22.791953" lon="108.991250">
        <ele>95.700902</ele>
        <time>2026-08-14T07:39:17.000Z</time>
      </trkpt>
      <trkpt lat="22.791953" lon="108.991282">
        <ele>95.709054</ele>
        <time>2026-08-14T07:39:18.000Z</time>
      </trkpt>
      <trkpt lat="22.791953" lon="108.991315">
        <ele>95.717461</ele>
        <time>2026-08-14T07:39:19.000Z</time>
      </trkpt>
      <trkpt lat="22.791953" lon="108.991348">
        <ele>95.725867</ele>
        <time>2026-08-14T07:39:20.000Z</time>
      </trkpt>
      <trkpt lat="22.791953" lon="108.991380">
        <ele>95.734019</ele>
        <time>2026-08-14T07:39:21.000Z</time>
      </trkpt>
      <trkpt lat="22.791953" lon="108.991413">
        <ele>95.742425</ele>
        <time>2026-08-14T07:39:22.000Z</time>
      </trkpt>
      <trkpt lat="22.791954" lon="108.991447">
        <ele>95.751091</ele>
        <time>2026-08-14T07:39:23.000Z</time>
      </trkpt>
      <trkpt lat="22.791954" lon="108.991481">
        <ele>95.759752</ele>
        <time>2026-08-14T07:39:24.000Z</time>
      </trkpt>
      <trkpt lat="22.791955" lon="108.991515">
        <ele>95.768418</ele>
        <time>2026-08-14T07:39:25.000Z</time>
      </trkpt>
      <trkpt lat="22.791955" lon="108.991550">
        <ele>95.777334</ele>
        <time>2026-08-14T07:39:26.000Z</time>
      </trkpt>
      <trkpt lat="22.791957" lon="108.991585">
        <ele>95.786267</ele>
        <time>2026-08-14T07:39:27.000Z</time>
      </trkpt>
      <trkpt lat="22.791959" lon="108.991619">
        <ele>95.794946</ele>
        <time>2026-08-14T07:39:28.000Z</time>
      </trkpt>
      <trkpt lat="22.791961" lon="108.991652">
        <ele>95.803370</ele>
        <time>2026-08-14T07:39:29.000Z</time>
      </trkpt>
      <trkpt lat="22.791962" lon="108.991685">
        <ele>95.811781</ele>
        <time>2026-08-14T07:39:30.000Z</time>
      </trkpt>
      <trkpt lat="22.791964" lon="108.991717">
        <ele>95.819952</ele>
        <time>2026-08-14T07:39:31.000Z</time>
      </trkpt>
      <trkpt lat="22.791966" lon="108.991746">
        <ele>95.827360</ele>
        <time>2026-08-14T07:39:32.000Z</time>
      </trkpt>
      <trkpt lat="22.791969" lon="108.991773">
        <ele>95.834288</ele>
        <time>2026-08-14T07:39:33.000Z</time>
      </trkpt>
      <trkpt lat="22.791973" lon="108.991799">
        <ele>95.841003</ele>
        <time>2026-08-14T07:39:34.000Z</time>
      </trkpt>
      <trkpt lat="22.791976" lon="108.991824">
        <ele>95.847425</ele>
        <time>2026-08-14T07:39:35.000Z</time>
      </trkpt>
      <trkpt lat="22.791979" lon="108.991849">
        <ele>95.853847</ele>
        <time>2026-08-14T07:39:36.000Z</time>
      </trkpt>
      <trkpt lat="22.791982" lon="108.991874">
        <ele>95.860270</ele>
        <time>2026-08-14T07:39:37.000Z</time>
      </trkpt>
      <trkpt lat="22.791984" lon="108.991898">
        <ele>95.866408</ele>
        <time>2026-08-14T07:39:38.000Z</time>
      </trkpt>
      <trkpt lat="22.791985" lon="108.991920">
        <ele>95.872019</ele>
        <time>2026-08-14T07:39:39.000Z</time>
      </trkpt>
      <trkpt lat="22.791986" lon="108.991944">
        <ele>95.878140</ele>
        <time>2026-08-14T07:39:40.000Z</time>
      </trkpt>
      <trkpt lat="22.791989" lon="108.991970">
        <ele>95.884814</ele>
        <time>2026-08-14T07:39:41.000Z</time>
      </trkpt>
      <trkpt lat="22.791992" lon="108.991997">
        <ele>95.891742</ele>
        <time>2026-08-14T07:39:42.000Z</time>
      </trkpt>
      <trkpt lat="22.791993" lon="108.992024">
        <ele>95.898626</ele>
        <time>2026-08-14T07:39:43.000Z</time>
      </trkpt>
      <trkpt lat="22.791995" lon="108.992051">
        <ele>95.905526</ele>
        <time>2026-08-14T07:39:44.000Z</time>
      </trkpt>
      <trkpt lat="22.792001" lon="108.992078">
        <ele>95.912601</ele>
        <time>2026-08-14T07:39:45.000Z</time>
      </trkpt>
      <trkpt lat="22.792008" lon="108.992105">
        <ele>95.919746</ele>
        <time>2026-08-14T07:39:46.000Z</time>
      </trkpt>
      <trkpt lat="22.792014" lon="108.992133">
        <ele>95.927069</ele>
        <time>2026-08-14T07:39:47.000Z</time>
      </trkpt>
      <trkpt lat="22.792020" lon="108.992161">
        <ele>95.934392</ele>
        <time>2026-08-14T07:39:48.000Z</time>
      </trkpt>
      <trkpt lat="22.792026" lon="108.992190">
        <ele>95.941963</ele>
        <time>2026-08-14T07:39:49.000Z</time>
      </trkpt>
      <trkpt lat="22.792029" lon="108.992219">
        <ele>95.949397</ele>
        <time>2026-08-14T07:39:50.000Z</time>
      </trkpt>
      <trkpt lat="22.792034" lon="108.992249">
        <ele>95.957163</ele>
        <time>2026-08-14T07:39:51.000Z</time>
      </trkpt>
      <trkpt lat="22.792041" lon="108.992279">
        <ele>95.965046</ele>
        <time>2026-08-14T07:39:52.000Z</time>
      </trkpt>
      <trkpt lat="22.792047" lon="108.992308">
        <ele>95.972618</ele>
        <time>2026-08-14T07:39:53.000Z</time>
      </trkpt>
      <trkpt lat="22.792053" lon="108.992340">
        <ele>95.980936</ele>
        <time>2026-08-14T07:39:54.000Z</time>
      </trkpt>
      <trkpt lat="22.792061" lon="108.992369">
        <ele>95.988647</ele>
        <time>2026-08-14T07:39:55.000Z</time>
      </trkpt>
      <trkpt lat="22.792069" lon="108.992396">
        <ele>95.995872</ele>
        <time>2026-08-14T07:39:56.000Z</time>
      </trkpt>
      <trkpt lat="22.792076" lon="108.992421">
        <ele>96.002528</ele>
        <time>2026-08-14T07:39:57.000Z</time>
      </trkpt>
      <trkpt lat="22.792079" lon="108.992448">
        <ele>96.009455</ele>
        <time>2026-08-14T07:39:58.000Z</time>
      </trkpt>
      <trkpt lat="22.792080" lon="108.992473">
        <ele>96.015830</ele>
        <time>2026-08-14T07:39:59.000Z</time>
      </trkpt>
      <trkpt lat="22.792084" lon="108.992499">
        <ele>96.022545</ele>
        <time>2026-08-14T07:40:00.000Z</time>
      </trkpt>
      <trkpt lat="22.792088" lon="108.992528">
        <ele>96.030015</ele>
        <time>2026-08-14T07:40:01.000Z</time>
      </trkpt>
      <trkpt lat="22.792092" lon="108.992558">
        <ele>96.037736</ele>
        <time>2026-08-14T07:40:02.000Z</time>
      </trkpt>
      <trkpt lat="22.792095" lon="108.992589">
        <ele>96.045677</ele>
        <time>2026-08-14T07:40:03.000Z</time>
      </trkpt>
      <trkpt lat="22.792101" lon="108.992621">
        <ele>96.053995</ele>
        <time>2026-08-14T07:40:04.000Z</time>
      </trkpt>
      <trkpt lat="22.792104" lon="108.992654">
        <ele>96.062443</ele>
        <time>2026-08-14T07:40:05.000Z</time>
      </trkpt>
      <trkpt lat="22.792106" lon="108.992687">
        <ele>96.070867</ele>
        <time>2026-08-14T07:40:06.000Z</time>
      </trkpt>
      <trkpt lat="22.792111" lon="108.992720">
        <ele>96.079386</ele>
        <time>2026-08-14T07:40:07.000Z</time>
      </trkpt>
      <trkpt lat="22.792120" lon="108.992752">
        <ele>96.087909</ele>
        <time>2026-08-14T07:40:08.000Z</time>
      </trkpt>
      <trkpt lat="22.792127" lon="108.992784">
        <ele>96.096287</ele>
        <time>2026-08-14T07:40:09.000Z</time>
      </trkpt>
      <trkpt lat="22.792130" lon="108.992815">
        <ele>96.104228</ele>
        <time>2026-08-14T07:40:10.000Z</time>
      </trkpt>
      <trkpt lat="22.792133" lon="108.992844">
        <ele>96.111661</ele>
        <time>2026-08-14T07:40:11.000Z</time>
      </trkpt>
      <trkpt lat="22.792136" lon="108.992873">
        <ele>96.119095</ele>
        <time>2026-08-14T07:40:12.000Z</time>
      </trkpt>
      <trkpt lat="22.792139" lon="108.992904">
        <ele>96.127036</ele>
        <time>2026-08-14T07:40:13.000Z</time>
      </trkpt>
      <trkpt lat="22.792142" lon="108.992937">
        <ele>96.135483</ele>
        <time>2026-08-14T07:40:14.000Z</time>
      </trkpt>
      <trkpt lat="22.792146" lon="108.992970">
        <ele>96.143962</ele>
        <time>2026-08-14T07:40:15.000Z</time>
      </trkpt>
      <trkpt lat="22.792150" lon="108.993005">
        <ele>96.152946</ele>
        <time>2026-08-14T07:40:16.000Z</time>
      </trkpt>
      <trkpt lat="22.792152" lon="108.993039">
        <ele>96.161625</ele>
        <time>2026-08-14T07:40:17.000Z</time>
      </trkpt>
      <trkpt lat="22.792155" lon="108.993073">
        <ele>96.170326</ele>
        <time>2026-08-14T07:40:18.000Z</time>
      </trkpt>
      <trkpt lat="22.792160" lon="108.993108">
        <ele>96.163518</ele>
        <time>2026-08-14T07:40:19.000Z</time>
      </trkpt>
      <trkpt lat="22.792166" lon="108.993141">
        <ele>96.119343</ele>
        <time>2026-08-14T07:40:20.000Z</time>
      </trkpt>
      <trkpt lat="22.792172" lon="108.993174">
        <ele>96.075168</ele>
        <time>2026-08-14T07:40:21.000Z</time>
      </trkpt>
      <trkpt lat="22.792177" lon="108.993207">
        <ele>96.031247</ele>
        <time>2026-08-14T07:40:22.000Z</time>
      </trkpt>
      <trkpt lat="22.792183" lon="108.993239">
        <ele>95.988359</ele>
        <time>2026-08-14T07:40:23.000Z</time>
      </trkpt>
      <trkpt lat="22.792191" lon="108.993268">
        <ele>95.948604</ele>
        <time>2026-08-14T07:40:24.000Z</time>
      </trkpt>
      <trkpt lat="22.792199" lon="108.993296">
        <ele>95.910105</ele>
        <time>2026-08-14T07:40:25.000Z</time>
      </trkpt>
      <trkpt lat="22.792205" lon="108.993320">
        <ele>95.877447</ele>
        <time>2026-08-14T07:40:26.000Z</time>
      </trkpt>
      <trkpt lat="22.792213" lon="108.993343">
        <ele>95.845161</ele>
        <time>2026-08-14T07:40:27.000Z</time>
      </trkpt>
      <trkpt lat="22.792220" lon="108.993364">
        <ele>95.815834</ele>
        <time>2026-08-14T07:40:28.000Z</time>
      </trkpt>
      <trkpt lat="22.792228" lon="108.993385">
        <ele>95.785992</ele>
        <time>2026-08-14T07:40:29.000Z</time>
      </trkpt>
      <trkpt lat="22.792234" lon="108.993408">
        <ele>95.754599</ele>
        <time>2026-08-14T07:40:30.000Z</time>
      </trkpt>
      <trkpt lat="22.792242" lon="108.993432">
        <ele>95.721082</ele>
        <time>2026-08-14T07:40:31.000Z</time>
      </trkpt>
      <trkpt lat="22.792251" lon="108.993454">
        <ele>95.689471</ele>
        <time>2026-08-14T07:40:32.000Z</time>
      </trkpt>
      <trkpt lat="22.792264" lon="108.993477">
        <ele>95.654040</ele>
        <time>2026-08-14T07:40:33.000Z</time>
      </trkpt>
      <trkpt lat="22.792279" lon="108.993500">
        <ele>95.617039</ele>
        <time>2026-08-14T07:40:34.000Z</time>
      </trkpt>
      <trkpt lat="22.792298" lon="108.993523">
        <ele>95.576479</ele>
        <time>2026-08-14T07:40:35.000Z</time>
      </trkpt>
      <trkpt lat="22.792318" lon="108.993547">
        <ele>95.533991</ele>
        <time>2026-08-14T07:40:36.000Z</time>
      </trkpt>
      <trkpt lat="22.792337" lon="108.993573">
        <ele>95.490417</ele>
        <time>2026-08-14T07:40:37.000Z</time>
      </trkpt>
      <trkpt lat="22.792356" lon="108.993602">
        <ele>95.443692</ele>
        <time>2026-08-14T07:40:38.000Z</time>
      </trkpt>
      <trkpt lat="22.792374" lon="108.993634">
        <ele>95.394461</ele>
        <time>2026-08-14T07:40:39.000Z</time>
      </trkpt>
      <trkpt lat="22.792393" lon="108.993666">
        <ele>95.344472</ele>
        <time>2026-08-14T07:40:40.000Z</time>
      </trkpt>
      <trkpt lat="22.792412" lon="108.993698">
        <ele>95.294483</ele>
        <time>2026-08-14T07:40:41.000Z</time>
      </trkpt>
      <trkpt lat="22.792427" lon="108.993731">
        <ele>95.246161</ele>
        <time>2026-08-14T07:40:42.000Z</time>
      </trkpt>
      <trkpt lat="22.792439" lon="108.993761">
        <ele>95.203213</ele>
        <time>2026-08-14T07:40:43.000Z</time>
      </trkpt>
      <trkpt lat="22.792446" lon="108.993790">
        <ele>95.163842</ele>
        <time>2026-08-14T07:40:44.000Z</time>
      </trkpt>
      <trkpt lat="22.792446" lon="108.993822">
        <ele>95.121815</ele>
        <time>2026-08-14T07:40:45.000Z</time>
      </trkpt>
      <trkpt lat="22.792443" lon="108.993854">
        <ele>95.079572</ele>
        <time>2026-08-14T07:40:46.000Z</time>
      </trkpt>
      <trkpt lat="22.792437" lon="108.993889">
        <ele>95.032817</ele>
        <time>2026-08-14T07:40:47.000Z</time>
      </trkpt>
      <trkpt lat="22.792430" lon="108.993925">
        <ele>94.984497</ele>
        <time>2026-08-14T07:40:48.000Z</time>
      </trkpt>
      <trkpt lat="22.792423" lon="108.993965">
        <ele>94.931025</ele>
        <time>2026-08-14T07:40:49.000Z</time>
      </trkpt>
      <trkpt lat="22.792421" lon="108.994005">
        <ele>94.878415</ele>
        <time>2026-08-14T07:40:50.000Z</time>
      </trkpt>
      <trkpt lat="22.792418" lon="108.994047">
        <ele>94.823089</ele>
        <time>2026-08-14T07:40:51.000Z</time>
      </trkpt>
      <trkpt lat="22.792406" lon="108.994102">
        <ele>94.748860</ele>
        <time>2026-08-14T07:40:52.000Z</time>
      </trkpt>
      <trkpt lat="22.792398" lon="108.994150">
        <ele>94.684798</ele>
        <time>2026-08-14T07:40:53.000Z</time>
      </trkpt>
      <trkpt lat="22.792389" lon="108.994199">
        <ele>94.619180</ele>
        <time>2026-08-14T07:40:54.000Z</time>
      </trkpt>
      <trkpt lat="22.792383" lon="108.994247">
        <ele>94.555563</ele>
        <time>2026-08-14T07:40:55.000Z</time>
      </trkpt>
      <trkpt lat="22.792376" lon="108.994297">
        <ele>94.489143</ele>
        <time>2026-08-14T07:40:56.000Z</time>
      </trkpt>
      <trkpt lat="22.792368" lon="108.994346">
        <ele>94.423788</ele>
        <time>2026-08-14T07:40:57.000Z</time>
      </trkpt>
      <trkpt lat="22.792360" lon="108.994396">
        <ele>94.357140</ele>
        <time>2026-08-14T07:40:58.000Z</time>
      </trkpt>
      <trkpt lat="22.792352" lon="108.994445">
        <ele>94.291785</ele>
        <time>2026-08-14T07:40:59.000Z</time>
      </trkpt>
      <trkpt lat="22.792344" lon="108.994496">
        <ele>94.223842</ele>
        <time>2026-08-14T07:41:00.000Z</time>
      </trkpt>
      <trkpt lat="22.792339" lon="108.994545">
        <ele>94.159096</ele>
        <time>2026-08-14T07:41:01.000Z</time>
      </trkpt>
      <trkpt lat="22.792334" lon="108.994593">
        <ele>94.095654</ele>
        <time>2026-08-14T07:41:02.000Z</time>
      </trkpt>
      <trkpt lat="22.792328" lon="108.994644">
        <ele>94.028131</ele>
        <time>2026-08-14T07:41:03.000Z</time>
      </trkpt>
      <trkpt lat="22.792322" lon="108.994696">
        <ele>93.959305</ele>
        <time>2026-08-14T07:41:04.000Z</time>
      </trkpt>
      <trkpt lat="22.792317" lon="108.994748">
        <ele>93.890641</ele>
        <time>2026-08-14T07:41:05.000Z</time>
      </trkpt>
      <trkpt lat="22.792311" lon="108.994801">
        <ele>93.820511</ele>
        <time>2026-08-14T07:41:06.000Z</time>
      </trkpt>
      <trkpt lat="22.792305" lon="108.994856">
        <ele>93.747773</ele>
        <time>2026-08-14T07:41:07.000Z</time>
      </trkpt>
      <trkpt lat="22.792299" lon="108.994911">
        <ele>93.675036</ele>
        <time>2026-08-14T07:41:08.000Z</time>
      </trkpt>
      <trkpt lat="22.792293" lon="108.994966">
        <ele>93.624239</ele>
        <time>2026-08-14T07:41:09.000Z</time>
      </trkpt>
      <trkpt lat="22.792286" lon="108.995020">
        <ele>93.681682</ele>
        <time>2026-08-14T07:41:10.000Z</time>
      </trkpt>
      <trkpt lat="22.792278" lon="108.995076">
        <ele>93.741376</ele>
        <time>2026-08-14T07:41:11.000Z</time>
      </trkpt>
      <trkpt lat="22.792271" lon="108.995132">
        <ele>93.800906</ele>
        <time>2026-08-14T07:41:12.000Z</time>
      </trkpt>
      <trkpt lat="22.792264" lon="108.995189">
        <ele>93.861480</ele>
        <time>2026-08-14T07:41:13.000Z</time>
      </trkpt>
      <trkpt lat="22.792257" lon="108.995244">
        <ele>93.919967</ele>
        <time>2026-08-14T07:41:14.000Z</time>
      </trkpt>
      <trkpt lat="22.792250" lon="108.995299">
        <ele>93.978453</ele>
        <time>2026-08-14T07:41:15.000Z</time>
      </trkpt>
      <trkpt lat="22.792242" lon="108.995354">
        <ele>94.037107</ele>
        <time>2026-08-14T07:41:16.000Z</time>
      </trkpt>
      <trkpt lat="22.792234" lon="108.995411">
        <ele>94.097843</ele>
        <time>2026-08-14T07:41:17.000Z</time>
      </trkpt>
      <trkpt lat="22.792226" lon="108.995468">
        <ele>94.158578</ele>
        <time>2026-08-14T07:41:18.000Z</time>
      </trkpt>
      <trkpt lat="22.792219" lon="108.995525">
        <ele>94.219152</ele>
        <time>2026-08-14T07:41:19.000Z</time>
      </trkpt>
      <trkpt lat="22.792212" lon="108.995581">
        <ele>94.278683</ele>
        <time>2026-08-14T07:41:20.000Z</time>
      </trkpt>
      <trkpt lat="22.792206" lon="108.995638">
        <ele>94.339116</ele>
        <time>2026-08-14T07:41:21.000Z</time>
      </trkpt>
      <trkpt lat="22.792201" lon="108.995694">
        <ele>94.398383</ele>
        <time>2026-08-14T07:41:22.000Z</time>
      </trkpt>
      <trkpt lat="22.792195" lon="108.995749">
        <ele>94.456724</ele>
        <time>2026-08-14T07:41:23.000Z</time>
      </trkpt>
      <trkpt lat="22.792189" lon="108.995803">
        <ele>94.514019</ele>
        <time>2026-08-14T07:41:24.000Z</time>
      </trkpt>
      <trkpt lat="22.792183" lon="108.995856">
        <ele>94.570269</ele>
        <time>2026-08-14T07:41:25.000Z</time>
      </trkpt>
      <trkpt lat="22.792178" lon="108.995912">
        <ele>94.629535</ele>
        <time>2026-08-14T07:41:26.000Z</time>
      </trkpt>
      <trkpt lat="22.792172" lon="108.995968">
        <ele>94.688923</ele>
        <time>2026-08-14T07:41:27.000Z</time>
      </trkpt>
      <trkpt lat="22.792166" lon="108.996024">
        <ele>94.748310</ele>
        <time>2026-08-14T07:41:28.000Z</time>
      </trkpt>
      <trkpt lat="22.792157" lon="108.996081">
        <ele>94.809228</ele>
        <time>2026-08-14T07:41:29.000Z</time>
      </trkpt>
      <trkpt lat="22.792148" lon="108.996136">
        <ele>94.868071</ele>
        <time>2026-08-14T07:41:30.000Z</time>
      </trkpt>
      <trkpt lat="22.792139" lon="108.996189">
        <ele>94.924840</ele>
        <time>2026-08-14T07:41:31.000Z</time>
      </trkpt>
      <trkpt lat="22.792130" lon="108.996242">
        <ele>94.981610</ele>
        <time>2026-08-14T07:41:32.000Z</time>
      </trkpt>
      <trkpt lat="22.792121" lon="108.996295">
        <ele>95.038379</ele>
        <time>2026-08-14T07:41:33.000Z</time>
      </trkpt>
      <trkpt lat="22.792113" lon="108.996345">
        <ele>95.091836</ele>
        <time>2026-08-14T07:41:34.000Z</time>
      </trkpt>
      <trkpt lat="22.792105" lon="108.996394">
        <ele>95.144256</ele>
        <time>2026-08-14T07:41:35.000Z</time>
      </trkpt>
      <trkpt lat="22.792097" lon="108.996443">
        <ele>95.196676</ele>
        <time>2026-08-14T07:41:36.000Z</time>
      </trkpt>
      <trkpt lat="22.792091" lon="108.996492">
        <ele>95.248746</ele>
        <time>2026-08-14T07:41:37.000Z</time>
      </trkpt>
      <trkpt lat="22.792085" lon="108.996541">
        <ele>95.300816</ele>
        <time>2026-08-14T07:41:38.000Z</time>
      </trkpt>
      <trkpt lat="22.792079" lon="108.996587">
        <ele>95.349755</ele>
        <time>2026-08-14T07:41:39.000Z</time>
      </trkpt>
      <trkpt lat="22.792074" lon="108.996633">
        <ele>95.398547</ele>
        <time>2026-08-14T07:41:40.000Z</time>
      </trkpt>
      <trkpt lat="22.792069" lon="108.996677">
        <ele>95.445247</ele>
        <time>2026-08-14T07:41:41.000Z</time>
      </trkpt>
      <trkpt lat="22.792064" lon="108.996722">
        <ele>95.492993</ele>
        <time>2026-08-14T07:41:42.000Z</time>
      </trkpt>
      <trkpt lat="22.792062" lon="108.996765">
        <ele>95.538347</ele>
        <time>2026-08-14T07:41:43.000Z</time>
      </trkpt>
      <trkpt lat="22.792060" lon="108.996810">
        <ele>95.585805</ele>
        <time>2026-08-14T07:41:44.000Z</time>
      </trkpt>
      <trkpt lat="22.792056" lon="108.996855">
        <ele>95.633428</ele>
        <time>2026-08-14T07:41:45.000Z</time>
      </trkpt>
      <trkpt lat="22.792055" lon="108.996899">
        <ele>95.677152</ele>
        <time>2026-08-14T07:41:46.000Z</time>
      </trkpt>
      <trkpt lat="22.792052" lon="108.996942">
        <ele>95.710768</ele>
        <time>2026-08-14T07:41:47.000Z</time>
      </trkpt>
      <trkpt lat="22.792049" lon="108.996985">
        <ele>95.744384</ele>
        <time>2026-08-14T07:41:48.000Z</time>
      </trkpt>
      <trkpt lat="22.792044" lon="108.997027">
        <ele>95.777396</ele>
        <time>2026-08-14T07:41:49.000Z</time>
      </trkpt>
      <trkpt lat="22.792041" lon="108.997069">
        <ele>95.810234</ele>
        <time>2026-08-14T07:41:50.000Z</time>
      </trkpt>
      <trkpt lat="22.792039" lon="108.997111">
        <ele>95.843018</ele>
        <time>2026-08-14T07:41:51.000Z</time>
      </trkpt>
      <trkpt lat="22.792035" lon="108.997154">
        <ele>95.876708</ele>
        <time>2026-08-14T07:41:52.000Z</time>
      </trkpt>
      <trkpt lat="22.792031" lon="108.997196">
        <ele>95.909623</ele>
        <time>2026-08-14T07:41:53.000Z</time>
      </trkpt>
      <trkpt lat="22.792028" lon="108.997236">
        <ele>95.940907</ele>
        <time>2026-08-14T07:41:54.000Z</time>
      </trkpt>
      <trkpt lat="22.792025" lon="108.997274">
        <ele>95.970638</ele>
        <time>2026-08-14T07:41:55.000Z</time>
      </trkpt>
      <trkpt lat="22.792022" lon="108.997312">
        <ele>96.000368</ele>
        <time>2026-08-14T07:41:56.000Z</time>
      </trkpt>
      <trkpt lat="22.792018" lon="108.997349">
        <ele>96.029408</ele>
        <time>2026-08-14T07:41:57.000Z</time>
      </trkpt>
      <trkpt lat="22.792016" lon="108.997386">
        <ele>96.058301</ele>
        <time>2026-08-14T07:41:58.000Z</time>
      </trkpt>
      <trkpt lat="22.792014" lon="108.997424">
        <ele>96.087971</ele>
        <time>2026-08-14T07:41:59.000Z</time>
      </trkpt>
      <trkpt lat="22.792012" lon="108.997464">
        <ele>96.119198</ele>
        <time>2026-08-14T07:42:00.000Z</time>
      </trkpt>
      <trkpt lat="22.792010" lon="108.997504">
        <ele>96.150425</ele>
        <time>2026-08-14T07:42:01.000Z</time>
      </trkpt>
      <trkpt lat="22.792008" lon="108.997544">
        <ele>96.181652</ele>
        <time>2026-08-14T07:42:02.000Z</time>
      </trkpt>
      <trkpt lat="22.792006" lon="108.997585">
        <ele>96.213658</ele>
        <time>2026-08-14T07:42:03.000Z</time>
      </trkpt>
      <trkpt lat="22.792003" lon="108.997626">
        <ele>96.245719</ele>
        <time>2026-08-14T07:42:04.000Z</time>
      </trkpt>
      <trkpt lat="22.791999" lon="108.997667">
        <ele>96.277858</ele>
        <time>2026-08-14T07:42:05.000Z</time>
      </trkpt>
      <trkpt lat="22.791996" lon="108.997709">
        <ele>96.310696</ele>
        <time>2026-08-14T07:42:06.000Z</time>
      </trkpt>
      <trkpt lat="22.791993" lon="108.997754">
        <ele>96.345867</ele>
        <time>2026-08-14T07:42:07.000Z</time>
      </trkpt>
      <trkpt lat="22.791991" lon="108.997799">
        <ele>96.380987</ele>
        <time>2026-08-14T07:42:08.000Z</time>
      </trkpt>
      <trkpt lat="22.791987" lon="108.997846">
        <ele>96.417780</ele>
        <time>2026-08-14T07:42:09.000Z</time>
      </trkpt>
      <trkpt lat="22.791984" lon="108.997893">
        <ele>96.454506</ele>
        <time>2026-08-14T07:42:10.000Z</time>
      </trkpt>
      <trkpt lat="22.791982" lon="108.997941">
        <ele>96.491962</ele>
        <time>2026-08-14T07:42:11.000Z</time>
      </trkpt>
      <trkpt lat="22.791978" lon="108.997991">
        <ele>96.531085</ele>
        <time>2026-08-14T07:42:12.000Z</time>
      </trkpt>
      <trkpt lat="22.791974" lon="108.998040">
        <ele>96.569431</ele>
        <time>2026-08-14T07:42:13.000Z</time>
      </trkpt>
      <trkpt lat="22.791969" lon="108.998090">
        <ele>96.608636</ele>
        <time>2026-08-14T07:42:14.000Z</time>
      </trkpt>
      <trkpt lat="22.791964" lon="108.998142">
        <ele>96.649392</ele>
        <time>2026-08-14T07:42:15.000Z</time>
      </trkpt>
      <trkpt lat="22.791959" lon="108.998193">
        <ele>96.689372</ele>
        <time>2026-08-14T07:42:16.000Z</time>
      </trkpt>
      <trkpt lat="22.791956" lon="108.998244">
        <ele>96.729209</ele>
        <time>2026-08-14T07:42:17.000Z</time>
      </trkpt>
      <trkpt lat="22.791954" lon="108.998293">
        <ele>96.767443</ele>
        <time>2026-08-14T07:42:18.000Z</time>
      </trkpt>
      <trkpt lat="22.791950" lon="108.998344">
        <ele>96.807343</ele>
        <time>2026-08-14T07:42:19.000Z</time>
      </trkpt>
      <trkpt lat="22.791946" lon="108.998395">
        <ele>96.847243</ele>
        <time>2026-08-14T07:42:20.000Z</time>
      </trkpt>
      <trkpt lat="22.791943" lon="108.998447">
        <ele>96.887858</ele>
        <time>2026-08-14T07:42:21.000Z</time>
      </trkpt>
      <trkpt lat="22.791938" lon="108.998498">
        <ele>96.927838</ele>
        <time>2026-08-14T07:42:22.000Z</time>
      </trkpt>
      <trkpt lat="22.791934" lon="108.998548">
        <ele>96.966961</ele>
        <time>2026-08-14T07:42:23.000Z</time>
      </trkpt>
      <trkpt lat="22.791931" lon="108.998597">
        <ele>97.005242</ele>
        <time>2026-08-14T07:42:24.000Z</time>
      </trkpt>
      <trkpt lat="22.791929" lon="108.998645">
        <ele>97.042698</ele>
        <time>2026-08-14T07:42:25.000Z</time>
      </trkpt>
      <trkpt lat="22.791929" lon="108.998692">
        <ele>97.079336</ele>
        <time>2026-08-14T07:42:26.000Z</time>
      </trkpt>
      <trkpt lat="22.791933" lon="108.998738">
        <ele>97.115353</ele>
        <time>2026-08-14T07:42:27.000Z</time>
      </trkpt>
      <trkpt lat="22.791943" lon="108.998783">
        <ele>97.151437</ele>
        <time>2026-08-14T07:42:28.000Z</time>
      </trkpt>
      <trkpt lat="22.791954" lon="108.998828">
        <ele>97.187728</ele>
        <time>2026-08-14T07:42:29.000Z</time>
      </trkpt>
      <trkpt lat="22.791965" lon="108.998873">
        <ele>97.183462</ele>
        <time>2026-08-14T07:42:30.000Z</time>
      </trkpt>
      <trkpt lat="22.791976" lon="108.998919">
        <ele>97.175697</ele>
        <time>2026-08-14T07:42:31.000Z</time>
      </trkpt>
      <trkpt lat="22.791985" lon="108.998964">
        <ele>97.168173</ele>
        <time>2026-08-14T07:42:32.000Z</time>
      </trkpt>
      <trkpt lat="22.791994" lon="108.999011">
        <ele>97.160329</ele>
        <time>2026-08-14T07:42:33.000Z</time>
      </trkpt>
      <trkpt lat="22.792005" lon="108.999055">
        <ele>97.152880</ele>
        <time>2026-08-14T07:42:34.000Z</time>
      </trkpt>
      <trkpt lat="22.792015" lon="108.999099">
        <ele>97.145476</ele>
        <time>2026-08-14T07:42:35.000Z</time>
      </trkpt>
      <trkpt lat="22.792026" lon="108.999142">
        <ele>97.138184</ele>
        <time>2026-08-14T07:42:36.000Z</time>
      </trkpt>
      <trkpt lat="22.792037" lon="108.999181">
        <ele>97.131520</ele>
        <time>2026-08-14T07:42:37.000Z</time>
      </trkpt>
      <trkpt lat="22.792044" lon="108.999221">
        <ele>97.124868</ele>
        <time>2026-08-14T07:42:38.000Z</time>
      </trkpt>
      <trkpt lat="22.792050" lon="108.999256">
        <ele>97.119051</ele>
        <time>2026-08-14T07:42:39.000Z</time>
      </trkpt>
      <trkpt lat="22.792056" lon="108.999286">
        <ele>97.114035</ele>
        <time>2026-08-14T07:42:40.000Z</time>
      </trkpt>
      <trkpt lat="22.792064" lon="108.999310">
        <ele>97.109865</ele>
        <time>2026-08-14T07:42:41.000Z</time>
      </trkpt>
      <trkpt lat="22.792064" lon="108.999334">
        <ele>97.105944</ele>
        <time>2026-08-14T07:42:42.000Z</time>
      </trkpt>
      <trkpt lat="22.792058" lon="108.999356">
        <ele>97.102195</ele>
        <time>2026-08-14T07:42:43.000Z</time>
      </trkpt>
      <trkpt lat="22.792054" lon="108.999377">
        <ele>97.098691</ele>
        <time>2026-08-14T07:42:44.000Z</time>
      </trkpt>
      <trkpt lat="22.792054" lon="108.999400">
        <ele>97.094933</ele>
        <time>2026-08-14T07:42:45.000Z</time>
      </trkpt>
      <trkpt lat="22.792067" lon="108.999423">
        <ele>97.090525</ele>
        <time>2026-08-14T07:42:46.000Z</time>
      </trkpt>
      <trkpt lat="22.792085" lon="108.999437">
        <ele>97.086600</ele>
        <time>2026-08-14T07:42:47.000Z</time>
      </trkpt>
      <trkpt lat="22.792114" lon="108.999439">
        <ele>97.081449</ele>
        <time>2026-08-14T07:42:48.000Z</time>
      </trkpt>
      <trkpt lat="22.792149" lon="108.999438">
        <ele>97.075244</ele>
        <time>2026-08-14T07:42:49.000Z</time>
      </trkpt>
      <trkpt lat="22.792183" lon="108.999432">
        <ele>97.069139</ele>
        <time>2026-08-14T07:42:50.000Z</time>
      </trkpt>
      <trkpt lat="22.792219" lon="108.999418">
        <ele>97.062361</ele>
        <time>2026-08-14T07:42:51.000Z</time>
      </trkpt>
      <trkpt lat="22.792254" lon="108.999402">
        <ele>97.055629</ele>
        <time>2026-08-14T07:42:52.000Z</time>
      </trkpt>
      <trkpt lat="22.792290" lon="108.999386">
        <ele>97.048734</ele>
        <time>2026-08-14T07:42:53.000Z</time>
      </trkpt>
      <trkpt lat="22.792326" lon="108.999379">
        <ele>97.042252</ele>
        <time>2026-08-14T07:42:54.000Z</time>
      </trkpt>
      <trkpt lat="22.792365" lon="108.999373">
        <ele>97.035271</ele>
        <time>2026-08-14T07:42:55.000Z</time>
      </trkpt>
      <trkpt lat="22.792404" lon="108.999365">
        <ele>97.028236</ele>
        <time>2026-08-14T07:42:56.000Z</time>
      </trkpt>
      <trkpt lat="22.792444" lon="108.999358">
        <ele>97.021055</ele>
        <time>2026-08-14T07:42:57.000Z</time>
      </trkpt>
      <trkpt lat="22.792483" lon="108.999351">
        <ele>97.014049</ele>
        <time>2026-08-14T07:42:58.000Z</time>
      </trkpt>
      <trkpt lat="22.792521" lon="108.999343">
        <ele>97.007188</ele>
        <time>2026-08-14T07:42:59.000Z</time>
      </trkpt>
      <trkpt lat="22.792554" lon="108.999333">
        <ele>97.001116</ele>
        <time>2026-08-14T07:43:00.000Z</time>
      </trkpt>
      <trkpt lat="22.792593" lon="108.999329">
        <ele>96.994173</ele>
        <time>2026-08-14T07:43:01.000Z</time>
      </trkpt>
      <trkpt lat="22.792633" lon="108.999325">
        <ele>96.987053</ele>
        <time>2026-08-14T07:43:02.000Z</time>
      </trkpt>
      <trkpt lat="22.792676" lon="108.999317">
        <ele>96.979321</ele>
        <time>2026-08-14T07:43:03.000Z</time>
      </trkpt>
      <trkpt lat="22.792718" lon="108.999308">
        <ele>96.971733</ele>
        <time>2026-08-14T07:43:04.000Z</time>
      </trkpt>
      <trkpt lat="22.792762" lon="108.999300">
        <ele>96.963826</ele>
        <time>2026-08-14T07:43:05.000Z</time>
      </trkpt>
      <trkpt lat="22.792808" lon="108.999292">
        <ele>96.955569</ele>
        <time>2026-08-14T07:43:06.000Z</time>
      </trkpt>
      <trkpt lat="22.792854" lon="108.999288">
        <ele>96.947390</ele>
        <time>2026-08-14T07:43:07.000Z</time>
      </trkpt>
      <trkpt lat="22.792900" lon="108.999287">
        <ele>96.939236</ele>
        <time>2026-08-14T07:43:08.000Z</time>
      </trkpt>
      <trkpt lat="22.792947" lon="108.999285">
        <ele>96.930900</ele>
        <time>2026-08-14T07:43:09.000Z</time>
      </trkpt>
      <trkpt lat="22.792996" lon="108.999283">
        <ele>96.922209</ele>
        <time>2026-08-14T07:43:10.000Z</time>
      </trkpt>
      <trkpt lat="22.793046" lon="108.999284">
        <ele>96.913346</ele>
        <time>2026-08-14T07:43:11.000Z</time>
      </trkpt>
      <trkpt lat="22.793096" lon="108.999288">
        <ele>96.904460</ele>
        <time>2026-08-14T07:43:12.000Z</time>
      </trkpt>
      <trkpt lat="22.793146" lon="108.999291">
        <ele>96.895585</ele>
        <time>2026-08-14T07:43:13.000Z</time>
      </trkpt>
      <trkpt lat="22.793192" lon="108.999296">
        <ele>96.887391</ele>
        <time>2026-08-14T07:43:14.000Z</time>
      </trkpt>
      <trkpt lat="22.793243" lon="108.999303">
        <ele>96.878280</ele>
        <time>2026-08-14T07:43:15.000Z</time>
      </trkpt>
      <trkpt lat="22.793297" lon="108.999310">
        <ele>96.860123</ele>
        <time>2026-08-14T07:43:16.000Z</time>
      </trkpt>
      <trkpt lat="22.793348" lon="108.999319">
        <ele>96.825537</ele>
        <time>2026-08-14T07:43:17.000Z</time>
      </trkpt>
      <trkpt lat="22.793399" lon="108.999331">
        <ele>96.790606</ele>
        <time>2026-08-14T07:43:18.000Z</time>
      </trkpt>
      <trkpt lat="22.793450" lon="108.999342">
        <ele>96.755800</ele>
        <time>2026-08-14T07:43:19.000Z</time>
      </trkpt>
      <trkpt lat="22.793500" lon="108.999355">
        <ele>96.721384</ele>
        <time>2026-08-14T07:43:20.000Z</time>
      </trkpt>
      <trkpt lat="22.793550" lon="108.999371">
        <ele>96.686490</ele>
        <time>2026-08-14T07:43:21.000Z</time>
      </trkpt>
      <trkpt lat="22.793598" lon="108.999386">
        <ele>96.653054</ele>
        <time>2026-08-14T07:43:22.000Z</time>
      </trkpt>
      <trkpt lat="22.793648" lon="108.999402">
        <ele>96.618160</ele>
        <time>2026-08-14T07:43:23.000Z</time>
      </trkpt>
      <trkpt lat="22.793697" lon="108.999418">
        <ele>96.583907</ele>
        <time>2026-08-14T07:43:24.000Z</time>
      </trkpt>
      <trkpt lat="22.793747" lon="108.999435">
        <ele>96.548834</ele>
        <time>2026-08-14T07:43:25.000Z</time>
      </trkpt>
      <trkpt lat="22.793795" lon="108.999455">
        <ele>96.514415</ele>
        <time>2026-08-14T07:43:26.000Z</time>
      </trkpt>
      <trkpt lat="22.793843" lon="108.999474">
        <ele>96.480214</ele>
        <time>2026-08-14T07:43:27.000Z</time>
      </trkpt>
      <trkpt lat="22.793890" lon="108.999494">
        <ele>96.446419</ele>
        <time>2026-08-14T07:43:28.000Z</time>
      </trkpt>
      <trkpt lat="22.793934" lon="108.999516">
        <ele>96.413989</ele>
        <time>2026-08-14T07:43:29.000Z</time>
      </trkpt>
      <trkpt lat="22.793980" lon="108.999537">
        <ele>96.380583</ele>
        <time>2026-08-14T07:43:30.000Z</time>
      </trkpt>
      <trkpt lat="22.794023" lon="108.999564">
        <ele>96.347326</ele>
        <time>2026-08-14T07:43:31.000Z</time>
      </trkpt>
      <trkpt lat="22.794066" lon="108.999592">
        <ele>96.313755</ele>
        <time>2026-08-14T07:43:32.000Z</time>
      </trkpt>
      <trkpt lat="22.794110" lon="108.999618">
        <ele>96.280217</ele>
        <time>2026-08-14T07:43:33.000Z</time>
      </trkpt>
      <trkpt lat="22.794152" lon="108.999645">
        <ele>96.247537</ele>
        <time>2026-08-14T07:43:34.000Z</time>
      </trkpt>
      <trkpt lat="22.794196" lon="108.999671">
        <ele>96.213999</ele>
        <time>2026-08-14T07:43:35.000Z</time>
      </trkpt>
      <trkpt lat="22.794241" lon="108.999699">
        <ele>96.179274</ele>
        <time>2026-08-14T07:43:36.000Z</time>
      </trkpt>
      <trkpt lat="22.794283" lon="108.999727">
        <ele>96.146276</ele>
        <time>2026-08-14T07:43:37.000Z</time>
      </trkpt>
      <trkpt lat="22.794324" lon="108.999755">
        <ele>96.113846</ele>
        <time>2026-08-14T07:43:38.000Z</time>
      </trkpt>
      <trkpt lat="22.794367" lon="108.999785">
        <ele>96.079624</ele>
        <time>2026-08-14T07:43:39.000Z</time>
      </trkpt>
      <trkpt lat="22.794410" lon="108.999814">
        <ele>96.045731</ele>
        <time>2026-08-14T07:43:40.000Z</time>
      </trkpt>
      <trkpt lat="22.794454" lon="108.999842">
        <ele>96.011585</ele>
        <time>2026-08-14T07:43:41.000Z</time>
      </trkpt>
      <trkpt lat="22.794497" lon="108.999872">
        <ele>95.977363</ele>
        <time>2026-08-14T07:43:42.000Z</time>
      </trkpt>
      <trkpt lat="22.794543" lon="108.999901">
        <ele>95.941750</ele>
        <time>2026-08-14T07:43:43.000Z</time>
      </trkpt>
      <trkpt lat="22.794588" lon="108.999931">
        <ele>95.906395</ele>
        <time>2026-08-14T07:43:44.000Z</time>
      </trkpt>
      <trkpt lat="22.794635" lon="108.999963">
        <ele>95.869251</ele>
        <time>2026-08-14T07:43:45.000Z</time>
      </trkpt>
      <trkpt lat="22.794682" lon="108.999998">
        <ele>95.831091</ele>
        <time>2026-08-14T07:43:46.000Z</time>
      </trkpt>
      <trkpt lat="22.794727" lon="109.000031">
        <ele>95.794732</ele>
        <time>2026-08-14T07:43:47.000Z</time>
      </trkpt>
      <trkpt lat="22.794772" lon="109.000066">
        <ele>95.757668</ele>
        <time>2026-08-14T07:43:48.000Z</time>
      </trkpt>
      <trkpt lat="22.794815" lon="109.000101">
        <ele>95.721683</ele>
        <time>2026-08-14T07:43:49.000Z</time>
      </trkpt>
      <trkpt lat="22.794859" lon="109.000136">
        <ele>95.685161</ele>
        <time>2026-08-14T07:43:50.000Z</time>
      </trkpt>
      <trkpt lat="22.794905" lon="109.000171">
        <ele>95.643541</ele>
        <time>2026-08-14T07:43:51.000Z</time>
      </trkpt>
      <trkpt lat="22.794952" lon="109.000205">
        <ele>95.598228</ele>
        <time>2026-08-14T07:43:52.000Z</time>
      </trkpt>
      <trkpt lat="22.794999" lon="109.000239">
        <ele>95.552915</ele>
        <time>2026-08-14T07:43:53.000Z</time>
      </trkpt>
      <trkpt lat="22.795047" lon="109.000272">
        <ele>95.507333</ele>
        <time>2026-08-14T07:43:54.000Z</time>
      </trkpt>
      <trkpt lat="22.795094" lon="109.000307">
        <ele>95.461605</ele>
        <time>2026-08-14T07:43:55.000Z</time>
      </trkpt>
      <trkpt lat="22.795142" lon="109.000344">
        <ele>95.414373</ele>
        <time>2026-08-14T07:43:56.000Z</time>
      </trkpt>
      <trkpt lat="22.795189" lon="109.000381">
        <ele>95.367793</ele>
        <time>2026-08-14T07:43:57.000Z</time>
      </trkpt>
      <trkpt lat="22.795237" lon="109.000417">
        <ele>95.320986</ele>
        <time>2026-08-14T07:43:58.000Z</time>
      </trkpt>
      <trkpt lat="22.795285" lon="109.000453">
        <ele>95.274178</ele>
        <time>2026-08-14T07:43:59.000Z</time>
      </trkpt>
      <trkpt lat="22.795331" lon="109.000489">
        <ele>95.228681</ele>
        <time>2026-08-14T07:44:00.000Z</time>
      </trkpt>
      <trkpt lat="22.795378" lon="109.000524">
        <ele>95.182954</ele>
        <time>2026-08-14T07:44:01.000Z</time>
      </trkpt>
      <trkpt lat="22.795423" lon="109.000559">
        <ele>95.138540</ele>
        <time>2026-08-14T07:44:02.000Z</time>
      </trkpt>
      <trkpt lat="22.795467" lon="109.000593">
        <ele>95.095208</ele>
        <time>2026-08-14T07:44:03.000Z</time>
      </trkpt>
      <trkpt lat="22.795513" lon="109.000628">
        <ele>95.050140</ele>
        <time>2026-08-14T07:44:04.000Z</time>
      </trkpt>
      <trkpt lat="22.795557" lon="109.000663">
        <ele>95.006375</ele>
        <time>2026-08-14T07:44:05.000Z</time>
      </trkpt>
      <trkpt lat="22.795602" lon="109.000698">
        <ele>94.961961</ele>
        <time>2026-08-14T07:44:06.000Z</time>
      </trkpt>
      <trkpt lat="22.795648" lon="109.000733">
        <ele>94.916892</ele>
        <time>2026-08-14T07:44:07.000Z</time>
      </trkpt>
      <trkpt lat="22.795696" lon="109.000768">
        <ele>94.870502</ele>
        <time>2026-08-14T07:44:08.000Z</time>
      </trkpt>
      <trkpt lat="22.795745" lon="109.000803">
        <ele>94.823443</ele>
        <time>2026-08-14T07:44:09.000Z</time>
      </trkpt>
      <trkpt lat="22.795796" lon="109.000835">
        <ele>94.776185</ele>
        <time>2026-08-14T07:44:10.000Z</time>
      </trkpt>
      <trkpt lat="22.795850" lon="109.000865">
        <ele>94.727522</ele>
        <time>2026-08-14T07:44:11.000Z</time>
      </trkpt>
      <trkpt lat="22.795905" lon="109.000894">
        <ele>94.678471</ele>
        <time>2026-08-14T07:44:12.000Z</time>
      </trkpt>
      <trkpt lat="22.795961" lon="109.000921">
        <ele>94.629316</ele>
        <time>2026-08-14T07:44:13.000Z</time>
      </trkpt>
      <trkpt lat="22.796016" lon="109.000947">
        <ele>94.581194</ele>
        <time>2026-08-14T07:44:14.000Z</time>
      </trkpt>
      <trkpt lat="22.796071" lon="109.000970">
        <ele>94.533913</ele>
        <time>2026-08-14T07:44:15.000Z</time>
      </trkpt>
      <trkpt lat="22.796127" lon="109.000991">
        <ele>94.486388</ele>
        <time>2026-08-14T07:44:16.000Z</time>
      </trkpt>
      <trkpt lat="22.796184" lon="109.001009">
        <ele>94.438770</ele>
        <time>2026-08-14T07:44:17.000Z</time>
      </trkpt>
      <trkpt lat="22.796239" lon="109.001025">
        <ele>94.393096</ele>
        <time>2026-08-14T07:44:18.000Z</time>
      </trkpt>
      <trkpt lat="22.796295" lon="109.001040">
        <ele>94.346829</ele>
        <time>2026-08-14T07:44:19.000Z</time>
      </trkpt>
      <trkpt lat="22.796353" lon="109.001054">
        <ele>94.299170</ele>
        <time>2026-08-14T07:44:20.000Z</time>
      </trkpt>
      <trkpt lat="22.796410" lon="109.001067">
        <ele>94.252451</ele>
        <time>2026-08-14T07:44:21.000Z</time>
      </trkpt>
      <trkpt lat="22.796467" lon="109.001078">
        <ele>94.231072</ele>
        <time>2026-08-14T07:44:22.000Z</time>
      </trkpt>
      <trkpt lat="22.796523" lon="109.001089">
        <ele>94.245409</ele>
        <time>2026-08-14T07:44:23.000Z</time>
      </trkpt>
      <trkpt lat="22.796580" lon="109.001097">
        <ele>94.259889</ele>
        <time>2026-08-14T07:44:24.000Z</time>
      </trkpt>
      <trkpt lat="22.796636" lon="109.001104">
        <ele>94.274090</ele>
        <time>2026-08-14T07:44:25.000Z</time>
      </trkpt>
      <trkpt lat="22.796692" lon="109.001109">
        <ele>94.288245</ele>
        <time>2026-08-14T07:44:26.000Z</time>
      </trkpt>
      <trkpt lat="22.796748" lon="109.001115">
        <ele>94.302422</ele>
        <time>2026-08-14T07:44:27.000Z</time>
      </trkpt>
      <trkpt lat="22.796803" lon="109.001124">
        <ele>94.316434</ele>
        <time>2026-08-14T07:44:28.000Z</time>
      </trkpt>
      <trkpt lat="22.796858" lon="109.001130">
        <ele>94.330360</ele>
        <time>2026-08-14T07:44:29.000Z</time>
      </trkpt>
      <trkpt lat="22.796911" lon="109.001133">
        <ele>94.343730</ele>
        <time>2026-08-14T07:44:30.000Z</time>
      </trkpt>
      <trkpt lat="22.796966" lon="109.001134">
        <ele>94.357588</ele>
        <time>2026-08-14T07:44:31.000Z</time>
      </trkpt>
      <trkpt lat="22.797019" lon="109.001135">
        <ele>94.370942</ele>
        <time>2026-08-14T07:44:32.000Z</time>
      </trkpt>
      <trkpt lat="22.797072" lon="109.001138">
        <ele>94.384312</ele>
        <time>2026-08-14T07:44:33.000Z</time>
      </trkpt>
      <trkpt lat="22.797123" lon="109.001144">
        <ele>94.397235</ele>
        <time>2026-08-14T07:44:34.000Z</time>
      </trkpt>
      <trkpt lat="22.797175" lon="109.001148">
        <ele>94.410368</ele>
        <time>2026-08-14T07:44:35.000Z</time>
      </trkpt>
      <trkpt lat="22.797233" lon="109.001153">
        <ele>94.425026</ele>
        <time>2026-08-14T07:44:36.000Z</time>
      </trkpt>
      <trkpt lat="22.797291" lon="109.001157">
        <ele>94.439667</ele>
        <time>2026-08-14T07:44:37.000Z</time>
      </trkpt>
      <trkpt lat="22.797348" lon="109.001161">
        <ele>94.454057</ele>
        <time>2026-08-14T07:44:38.000Z</time>
      </trkpt>
      <trkpt lat="22.797405" lon="109.001164">
        <ele>94.468433</ele>
        <time>2026-08-14T07:44:39.000Z</time>
      </trkpt>
      <trkpt lat="22.797461" lon="109.001168">
        <ele>94.482571</ele>
        <time>2026-08-14T07:44:40.000Z</time>
      </trkpt>
      <trkpt lat="22.797517" lon="109.001169">
        <ele>94.496681</ele>
        <time>2026-08-14T07:44:41.000Z</time>
      </trkpt>
      <trkpt lat="22.797571" lon="109.001171">
        <ele>94.510293</ele>
        <time>2026-08-14T07:44:42.000Z</time>
      </trkpt>
      <trkpt lat="22.797625" lon="109.001173">
        <ele>94.523905</ele>
        <time>2026-08-14T07:44:43.000Z</time>
      </trkpt>
      <trkpt lat="22.797677" lon="109.001174">
        <ele>94.537007</ele>
        <time>2026-08-14T07:44:44.000Z</time>
      </trkpt>
      <trkpt lat="22.797729" lon="109.001175">
        <ele>94.550109</ele>
        <time>2026-08-14T07:44:45.000Z</time>
      </trkpt>
      <trkpt lat="22.797779" lon="109.001176">
        <ele>94.562707</ele>
        <time>2026-08-14T07:44:46.000Z</time>
      </trkpt>
      <trkpt lat="22.797830" lon="109.001179">
        <ele>94.575574</ele>
        <time>2026-08-14T07:44:47.000Z</time>
      </trkpt>
      <trkpt lat="22.797882" lon="109.001182">
        <ele>94.588693</ele>
        <time>2026-08-14T07:44:48.000Z</time>
      </trkpt>
      <trkpt lat="22.797935" lon="109.001184">
        <ele>94.602053</ele>
        <time>2026-08-14T07:44:49.000Z</time>
      </trkpt>
      <trkpt lat="22.797987" lon="109.001183">
        <ele>94.615155</ele>
        <time>2026-08-14T07:44:50.000Z</time>
      </trkpt>
      <trkpt lat="22.798034" lon="109.001178">
        <ele>94.627052</ele>
        <time>2026-08-14T07:44:51.000Z</time>
      </trkpt>
      <trkpt lat="22.798083" lon="109.001175">
        <ele>94.639416</ele>
        <time>2026-08-14T07:44:52.000Z</time>
      </trkpt>
      <trkpt lat="22.798130" lon="109.001173">
        <ele>94.651265</ele>
        <time>2026-08-14T07:44:53.000Z</time>
      </trkpt>
      <trkpt lat="22.798173" lon="109.001176">
        <ele>94.662120</ele>
        <time>2026-08-14T07:44:54.000Z</time>
      </trkpt>
      <trkpt lat="22.798217" lon="109.001184">
        <ele>94.673360</ele>
        <time>2026-08-14T07:44:55.000Z</time>
      </trkpt>
      <trkpt lat="22.798257" lon="109.001191">
        <ele>94.688592</ele>
        <time>2026-08-14T07:44:56.000Z</time>
      </trkpt>
      <trkpt lat="22.798296" lon="109.001198">
        <ele>94.707881</ele>
        <time>2026-08-14T07:44:57.000Z</time>
      </trkpt>
      <trkpt lat="22.798335" lon="109.001205">
        <ele>94.727171</ele>
        <time>2026-08-14T07:44:58.000Z</time>
      </trkpt>
      <trkpt lat="22.798376" lon="109.001219">
        <ele>94.748145</ele>
        <time>2026-08-14T07:44:59.000Z</time>
      </trkpt>
      <trkpt lat="22.798420" lon="109.001231">
        <ele>94.770283</ele>
        <time>2026-08-14T07:45:00.000Z</time>
      </trkpt>
      <trkpt lat="22.798465" lon="109.001236">
        <ele>94.792356</ele>
        <time>2026-08-14T07:45:01.000Z</time>
      </trkpt>
      <trkpt lat="22.798512" lon="109.001240">
        <ele>94.815361</ele>
        <time>2026-08-14T07:45:02.000Z</time>
      </trkpt>
      <trkpt lat="22.798562" lon="109.001240">
        <ele>94.839759</ele>
        <time>2026-08-14T07:45:03.000Z</time>
      </trkpt>
      <trkpt lat="22.798608" lon="109.001239">
        <ele>94.862209</ele>
        <time>2026-08-14T07:45:04.000Z</time>
      </trkpt>
      <trkpt lat="22.798652" lon="109.001237">
        <ele>94.883698</ele>
        <time>2026-08-14T07:45:05.000Z</time>
      </trkpt>
      <trkpt lat="22.798698" lon="109.001235">
        <ele>94.906163</ele>
        <time>2026-08-14T07:45:06.000Z</time>
      </trkpt>
      <trkpt lat="22.798744" lon="109.001234">
        <ele>94.928613</ele>
        <time>2026-08-14T07:45:07.000Z</time>
      </trkpt>
      <trkpt lat="22.798792" lon="109.001232">
        <ele>94.952053</ele>
        <time>2026-08-14T07:45:08.000Z</time>
      </trkpt>
      <trkpt lat="22.798838" lon="109.001231">
        <ele>94.974503</ele>
        <time>2026-08-14T07:45:09.000Z</time>
      </trkpt>
      <trkpt lat="22.798887" lon="109.001232">
        <ele>94.998417</ele>
        <time>2026-08-14T07:45:10.000Z</time>
      </trkpt>
      <trkpt lat="22.798937" lon="109.001234">
        <ele>95.022832</ele>
        <time>2026-08-14T07:45:11.000Z</time>
      </trkpt>
      <trkpt lat="22.798979" lon="109.001239">
        <ele>95.043449</ele>
        <time>2026-08-14T07:45:12.000Z</time>
      </trkpt>
      <trkpt lat="22.799025" lon="109.001239">
        <ele>95.065896</ele>
        <time>2026-08-14T07:45:13.000Z</time>
      </trkpt>
      <trkpt lat="22.799072" lon="109.001248">
        <ele>95.089184</ele>
        <time>2026-08-14T07:45:14.000Z</time>
      </trkpt>
      <trkpt lat="22.799118" lon="109.001256">
        <ele>95.111917</ele>
        <time>2026-08-14T07:45:15.000Z</time>
      </trkpt>
      <trkpt lat="22.799157" lon="109.001268">
        <ele>95.131698</ele>
        <time>2026-08-14T07:45:16.000Z</time>
      </trkpt>
      <trkpt lat="22.799201" lon="109.001291">
        <ele>95.155531</ele>
        <time>2026-08-14T07:45:17.000Z</time>
      </trkpt>
      <trkpt lat="22.799243" lon="109.001313">
        <ele>95.178290</ele>
        <time>2026-08-14T07:45:18.000Z</time>
      </trkpt>
      <trkpt lat="22.799286" lon="109.001337">
        <ele>95.201887</ele>
        <time>2026-08-14T07:45:19.000Z</time>
      </trkpt>
      <trkpt lat="22.799334" lon="109.001358">
        <ele>95.227142</ele>
        <time>2026-08-14T07:45:20.000Z</time>
      </trkpt>
      <trkpt lat="22.799382" lon="109.001383">
        <ele>95.253124</ele>
        <time>2026-08-14T07:45:21.000Z</time>
      </trkpt>
      <trkpt lat="22.799428" lon="109.001410">
        <ele>95.278645</ele>
        <time>2026-08-14T07:45:22.000Z</time>
      </trkpt>
      <trkpt lat="22.799468" lon="109.001439">
        <ele>95.302122</ele>
        <time>2026-08-14T07:45:23.000Z</time>
      </trkpt>
      <trkpt lat="22.799505" lon="109.001470">
        <ele>95.324935</ele>
        <time>2026-08-14T07:45:24.000Z</time>
      </trkpt>
      <trkpt lat="22.799545" lon="109.001503">
        <ele>95.349456</ele>
        <time>2026-08-14T07:45:25.000Z</time>
      </trkpt>
      <trkpt lat="22.799585" lon="109.001533">
        <ele>95.373186</ele>
        <time>2026-08-14T07:45:26.000Z</time>
      </trkpt>
      <trkpt lat="22.799624" lon="109.001562">
        <ele>95.396258</ele>
        <time>2026-08-14T07:45:27.000Z</time>
      </trkpt>
      <trkpt lat="22.799662" lon="109.001590">
        <ele>95.418674</ele>
        <time>2026-08-14T07:45:28.000Z</time>
      </trkpt>
      <trkpt lat="22.799700" lon="109.001619">
        <ele>95.441345</ele>
        <time>2026-08-14T07:45:29.000Z</time>
      </trkpt>
      <trkpt lat="22.799738" lon="109.001647">
        <ele>95.463761</ele>
        <time>2026-08-14T07:45:30.000Z</time>
      </trkpt>
      <trkpt lat="22.799779" lon="109.001674">
        <ele>95.487166</ele>
        <time>2026-08-14T07:45:31.000Z</time>
      </trkpt>
      <trkpt lat="22.799821" lon="109.001702">
        <ele>95.511221</ele>
        <time>2026-08-14T07:45:32.000Z</time>
      </trkpt>
      <trkpt lat="22.799863" lon="109.001728">
        <ele>95.534818</ele>
        <time>2026-08-14T07:45:33.000Z</time>
      </trkpt>
      <trkpt lat="22.799901" lon="109.001756">
        <ele>95.557482</ele>
        <time>2026-08-14T07:45:34.000Z</time>
      </trkpt>
      <trkpt lat="22.799940" lon="109.001782">
        <ele>95.583881</ele>
        <time>2026-08-14T07:45:35.000Z</time>
      </trkpt>
      <trkpt lat="22.799980" lon="109.001807">
        <ele>95.610505</ele>
        <time>2026-08-14T07:45:36.000Z</time>
      </trkpt>
      <trkpt lat="22.800024" lon="109.001832">
        <ele>95.639150</ele>
        <time>2026-08-14T07:45:37.000Z</time>
      </trkpt>
      <trkpt lat="22.800062" lon="109.001856">
        <ele>95.664509</ele>
        <time>2026-08-14T07:45:38.000Z</time>
      </trkpt>
      <trkpt lat="22.800099" lon="109.001881">
        <ele>95.689649</ele>
        <time>2026-08-14T07:45:39.000Z</time>
      </trkpt>
      <trkpt lat="22.800136" lon="109.001905">
        <ele>95.714511</ele>
        <time>2026-08-14T07:45:40.000Z</time>
      </trkpt>
      <trkpt lat="22.800170" lon="109.001928">
        <ele>95.737619</ele>
        <time>2026-08-14T07:45:41.000Z</time>
      </trkpt>
      <trkpt lat="22.800203" lon="109.001952">
        <ele>95.760532</ele>
        <time>2026-08-14T07:45:42.000Z</time>
      </trkpt>
      <trkpt lat="22.800236" lon="109.001975">
        <ele>95.783154</ele>
        <time>2026-08-14T07:45:43.000Z</time>
      </trkpt>
      <trkpt lat="22.800268" lon="109.001996">
        <ele>95.804723</ele>
        <time>2026-08-14T07:45:44.000Z</time>
      </trkpt>
      <trkpt lat="22.800304" lon="109.002016">
        <ele>95.828049</ele>
        <time>2026-08-14T07:45:45.000Z</time>
      </trkpt>
      <trkpt lat="22.800337" lon="109.002037">
        <ele>95.850113</ele>
        <time>2026-08-14T07:45:46.000Z</time>
      </trkpt>
      <trkpt lat="22.800369" lon="109.002060">
        <ele>95.872252</ele>
        <time>2026-08-14T07:45:47.000Z</time>
      </trkpt>
      <trkpt lat="22.800403" lon="109.002081">
        <ele>95.894816</ele>
        <time>2026-08-14T07:45:48.000Z</time>
      </trkpt>
      <trkpt lat="22.800438" lon="109.002103">
        <ele>95.918144</ele>
        <time>2026-08-14T07:45:49.000Z</time>
      </trkpt>
      <trkpt lat="22.800472" lon="109.002126">
        <ele>95.941253</ele>
        <time>2026-08-14T07:45:50.000Z</time>
      </trkpt>
      <trkpt lat="22.800506" lon="109.002150">
        <ele>95.964647</ele>
        <time>2026-08-14T07:45:51.000Z</time>
      </trkpt>
      <trkpt lat="22.800538" lon="109.002175">
        <ele>95.987390</ele>
        <time>2026-08-14T07:45:52.000Z</time>
      </trkpt>
      <trkpt lat="22.800571" lon="109.002201">
        <ele>96.010911</ele>
        <time>2026-08-14T07:45:53.000Z</time>
      </trkpt>
      <trkpt lat="22.800606" lon="109.002226">
        <ele>96.035079</ele>
        <time>2026-08-14T07:45:54.000Z</time>
      </trkpt>
      <trkpt lat="22.800640" lon="109.002250">
        <ele>96.058474</ele>
        <time>2026-08-14T07:45:55.000Z</time>
      </trkpt>
      <trkpt lat="22.800669" lon="109.002273">
        <ele>96.079192</ele>
        <time>2026-08-14T07:45:56.000Z</time>
      </trkpt>
      <trkpt lat="22.800699" lon="109.002295">
        <ele>96.100075</ele>
        <time>2026-08-14T07:45:57.000Z</time>
      </trkpt>
      <trkpt lat="22.800729" lon="109.002318">
        <ele>96.121262</ele>
        <time>2026-08-14T07:45:58.000Z</time>
      </trkpt>
      <trkpt lat="22.800765" lon="109.002341">
        <ele>96.145357</ele>
        <time>2026-08-14T07:45:59.000Z</time>
      </trkpt>
      <trkpt lat="22.800803" lon="109.002365">
        <ele>96.170716</ele>
        <time>2026-08-14T07:46:00.000Z</time>
      </trkpt>
      <trkpt lat="22.800840" lon="109.002390">
        <ele>96.195855</ele>
        <time>2026-08-14T07:46:01.000Z</time>
      </trkpt>
      <trkpt lat="22.800874" lon="109.002416">
        <ele>96.219845</ele>
        <time>2026-08-14T07:46:02.000Z</time>
      </trkpt>
      <trkpt lat="22.800910" lon="109.002442">
        <ele>96.244788</ele>
        <time>2026-08-14T07:46:03.000Z</time>
      </trkpt>
      <trkpt lat="22.800946" lon="109.002467">
        <ele>96.269439</ele>
        <time>2026-08-14T07:46:04.000Z</time>
      </trkpt>
      <trkpt lat="22.800985" lon="109.002492">
        <ele>96.295565</ele>
        <time>2026-08-14T07:46:05.000Z</time>
      </trkpt>
      <trkpt lat="22.801020" lon="109.002517">
        <ele>96.319732</ele>
        <time>2026-08-14T07:46:06.000Z</time>
      </trkpt>
      <trkpt lat="22.801057" lon="109.002542">
        <ele>96.344872</ele>
        <time>2026-08-14T07:46:07.000Z</time>
      </trkpt>
      <trkpt lat="22.801093" lon="109.002566">
        <ele>96.369241</ele>
        <time>2026-08-14T07:46:08.000Z</time>
      </trkpt>
      <trkpt lat="22.801132" lon="109.002589">
        <ele>96.394841</ele>
        <time>2026-08-14T07:46:09.000Z</time>
      </trkpt>
      <trkpt lat="22.801165" lon="109.002612">
        <ele>96.417463</ele>
        <time>2026-08-14T07:46:10.000Z</time>
      </trkpt>
      <trkpt lat="22.801199" lon="109.002635">
        <ele>96.440571</ele>
        <time>2026-08-14T07:46:11.000Z</time>
      </trkpt>
      <trkpt lat="22.801232" lon="109.002658">
        <ele>96.463192</ele>
        <time>2026-08-14T07:46:12.000Z</time>
      </trkpt>
      <trkpt lat="22.801268" lon="109.002682">
        <ele>96.487561</ele>
        <time>2026-08-14T07:46:13.000Z</time>
      </trkpt>
      <trkpt lat="22.801303" lon="109.002704">
        <ele>96.510890</ele>
        <time>2026-08-14T07:46:14.000Z</time>
      </trkpt>
      <trkpt lat="22.801333" lon="109.002729">
        <ele>96.532707</ele>
        <time>2026-08-14T07:46:15.000Z</time>
      </trkpt>
      <trkpt lat="22.801368" lon="109.002752">
        <ele>96.556307</ele>
        <time>2026-08-14T07:46:16.000Z</time>
      </trkpt>
      <trkpt lat="22.801401" lon="109.002772">
        <ele>96.578108</ele>
        <time>2026-08-14T07:46:17.000Z</time>
      </trkpt>
      <trkpt lat="22.801436" lon="109.002795">
        <ele>96.605919</ele>
        <time>2026-08-14T07:46:18.000Z</time>
      </trkpt>
      <trkpt lat="22.801473" lon="109.002814">
        <ele>96.641170</ele>
        <time>2026-08-14T07:46:19.000Z</time>
      </trkpt>
      <trkpt lat="22.801504" lon="109.002836">
        <ele>96.673070</ele>
        <time>2026-08-14T07:46:20.000Z</time>
      </trkpt>
      <trkpt lat="22.801535" lon="109.002859">
        <ele>96.705412</ele>
        <time>2026-08-14T07:46:21.000Z</time>
      </trkpt>
      <trkpt lat="22.801565" lon="109.002879">
        <ele>96.735734</ele>
        <time>2026-08-14T07:46:22.000Z</time>
      </trkpt>
      <trkpt lat="22.801591" lon="109.002898">
        <ele>96.762730</ele>
        <time>2026-08-14T07:46:23.000Z</time>
      </trkpt>
      <trkpt lat="22.801619" lon="109.002918">
        <ele>96.791599</ele>
        <time>2026-08-14T07:46:24.000Z</time>
      </trkpt>
      <trkpt lat="22.801649" lon="109.002937">
        <ele>96.821514</ele>
        <time>2026-08-14T07:46:25.000Z</time>
      </trkpt>
      <trkpt lat="22.801680" lon="109.002957">
        <ele>96.852573</ele>
        <time>2026-08-14T07:46:26.000Z</time>
      </trkpt>
      <trkpt lat="22.801711" lon="109.002977">
        <ele>96.883633</ele>
        <time>2026-08-14T07:46:27.000Z</time>
      </trkpt>
      <trkpt lat="22.801742" lon="109.002997">
        <ele>96.914692</ele>
        <time>2026-08-14T07:46:28.000Z</time>
      </trkpt>
      <trkpt lat="22.801774" lon="109.003018">
        <ele>96.946898</ele>
        <time>2026-08-14T07:46:29.000Z</time>
      </trkpt>
      <trkpt lat="22.801806" lon="109.003036">
        <ele>96.977939</ele>
        <time>2026-08-14T07:46:30.000Z</time>
      </trkpt>
      <trkpt lat="22.801840" lon="109.003054">
        <ele>97.010518</ele>
        <time>2026-08-14T07:46:31.000Z</time>
      </trkpt>
      <trkpt lat="22.801868" lon="109.003077">
        <ele>97.040762</ele>
        <time>2026-08-14T07:46:32.000Z</time>
      </trkpt>
      <trkpt lat="22.801893" lon="109.003102">
        <ele>97.070042</ele>
        <time>2026-08-14T07:46:33.000Z</time>
      </trkpt>
      <trkpt lat="22.801927" lon="109.003123">
        <ele>97.103734</ele>
        <time>2026-08-14T07:46:34.000Z</time>
      </trkpt>
      <trkpt lat="22.801956" lon="109.003146">
        <ele>97.134669</ele>
        <time>2026-08-14T07:46:35.000Z</time>
      </trkpt>
      <trkpt lat="22.801987" lon="109.003167">
        <ele>97.166141</ele>
        <time>2026-08-14T07:46:36.000Z</time>
      </trkpt>
      <trkpt lat="22.802017" lon="109.003189">
        <ele>97.197325</ele>
        <time>2026-08-14T07:46:37.000Z</time>
      </trkpt>
      <trkpt lat="22.802047" lon="109.003212">
        <ele>97.228959</ele>
        <time>2026-08-14T07:46:38.000Z</time>
      </trkpt>
      <trkpt lat="22.802077" lon="109.003234">
        <ele>97.260142</ele>
        <time>2026-08-14T07:46:39.000Z</time>
      </trkpt>
      <trkpt lat="22.802109" lon="109.003254">
        <ele>97.291945</ele>
        <time>2026-08-14T07:46:40.000Z</time>
      </trkpt>
      <trkpt lat="22.802140" lon="109.003275">
        <ele>97.323417</ele>
        <time>2026-08-14T07:46:41.000Z</time>
      </trkpt>
      <trkpt lat="22.802172" lon="109.003298">
        <ele>97.356473</ele>
        <time>2026-08-14T07:46:42.000Z</time>
      </trkpt>
      <trkpt lat="22.802206" lon="109.003322">
        <ele>97.391404</ele>
        <time>2026-08-14T07:46:43.000Z</time>
      </trkpt>
      <trkpt lat="22.802239" lon="109.003348">
        <ele>97.426526</ele>
        <time>2026-08-14T07:46:44.000Z</time>
      </trkpt>
      <trkpt lat="22.802275" lon="109.003371">
        <ele>97.462504</ele>
        <time>2026-08-14T07:46:45.000Z</time>
      </trkpt>
      <trkpt lat="22.802308" lon="109.003394">
        <ele>97.496281</ele>
        <time>2026-08-14T07:46:46.000Z</time>
      </trkpt>
      <trkpt lat="22.802343" lon="109.003415">
        <ele>97.530723</ele>
        <time>2026-08-14T07:46:47.000Z</time>
      </trkpt>
      <trkpt lat="22.802377" lon="109.003437">
        <ele>97.564814</ele>
        <time>2026-08-14T07:46:48.000Z</time>
      </trkpt>
      <trkpt lat="22.802411" lon="109.003461">
        <ele>97.599746</ele>
        <time>2026-08-14T07:46:49.000Z</time>
      </trkpt>
      <trkpt lat="22.802445" lon="109.003483">
        <ele>97.633837</ele>
        <time>2026-08-14T07:46:50.000Z</time>
      </trkpt>
      <trkpt lat="22.802481" lon="109.003505">
        <ele>97.669418</ele>
        <time>2026-08-14T07:46:51.000Z</time>
      </trkpt>
      <trkpt lat="22.802516" lon="109.003528">
        <ele>97.704657</ele>
        <time>2026-08-14T07:46:52.000Z</time>
      </trkpt>
      <trkpt lat="22.802552" lon="109.003552">
        <ele>97.741044</ele>
        <time>2026-08-14T07:46:53.000Z</time>
      </trkpt>
      <trkpt lat="22.802588" lon="109.003578">
        <ele>97.778286</ele>
        <time>2026-08-14T07:46:54.000Z</time>
      </trkpt>
      <trkpt lat="22.802624" lon="109.003602">
        <ele>97.814673</ele>
        <time>2026-08-14T07:46:55.000Z</time>
      </trkpt>
      <trkpt lat="22.802660" lon="109.003626">
        <ele>97.851060</ele>
        <time>2026-08-14T07:46:56.000Z</time>
      </trkpt>
      <trkpt lat="22.802698" lon="109.003650">
        <ele>97.888925</ele>
        <time>2026-08-14T07:46:57.000Z</time>
      </trkpt>
      <trkpt lat="22.802735" lon="109.003675">
        <ele>97.926462</ele>
        <time>2026-08-14T07:46:58.000Z</time>
      </trkpt>
      <trkpt lat="22.802772" lon="109.003700">
        <ele>97.963999</ele>
        <time>2026-08-14T07:46:59.000Z</time>
      </trkpt>
      <trkpt lat="22.802810" lon="109.003724">
        <ele>98.001864</ele>
        <time>2026-08-14T07:47:00.000Z</time>
      </trkpt>
      <trkpt lat="22.802847" lon="109.003749">
        <ele>98.039400</ele>
        <time>2026-08-14T07:47:01.000Z</time>
      </trkpt>
      <trkpt lat="22.802885" lon="109.003776">
        <ele>98.078518</ele>
        <time>2026-08-14T07:47:02.000Z</time>
      </trkpt>
      <trkpt lat="22.802926" lon="109.003801">
        <ele>98.119019</ele>
        <time>2026-08-14T07:47:03.000Z</time>
      </trkpt>
      <trkpt lat="22.802966" lon="109.003827">
        <ele>98.155189</ele>
        <time>2026-08-14T07:47:04.000Z</time>
      </trkpt>
      <trkpt lat="22.803005" lon="109.003852">
        <ele>98.185130</ele>
        <time>2026-08-14T07:47:05.000Z</time>
      </trkpt>
      <trkpt lat="22.803045" lon="109.003878">
        <ele>98.215952</ele>
        <time>2026-08-14T07:47:06.000Z</time>
      </trkpt>
      <trkpt lat="22.803084" lon="109.003904">
        <ele>98.246208</ele>
        <time>2026-08-14T07:47:07.000Z</time>
      </trkpt>
      <trkpt lat="22.803122" lon="109.003930">
        <ele>98.275903</ele>
        <time>2026-08-14T07:47:08.000Z</time>
      </trkpt>
      <trkpt lat="22.803161" lon="109.003957">
        <ele>98.306483</ele>
        <time>2026-08-14T07:47:09.000Z</time>
      </trkpt>
      <trkpt lat="22.803200" lon="109.003983">
        <ele>98.336739</ele>
        <time>2026-08-14T07:47:10.000Z</time>
      </trkpt>
      <trkpt lat="22.803239" lon="109.004010">
        <ele>98.367319</ele>
        <time>2026-08-14T07:47:11.000Z</time>
      </trkpt>
      <trkpt lat="22.803278" lon="109.004037">
        <ele>98.397899</ele>
        <time>2026-08-14T07:47:12.000Z</time>
      </trkpt>
      <trkpt lat="22.803318" lon="109.004065">
        <ele>98.429364</ele>
        <time>2026-08-14T07:47:13.000Z</time>
      </trkpt>
      <trkpt lat="22.803358" lon="109.004092">
        <ele>98.460502</ele>
        <time>2026-08-14T07:47:14.000Z</time>
      </trkpt>
      <trkpt lat="22.803398" lon="109.004117">
        <ele>98.491015</ele>
        <time>2026-08-14T07:47:15.000Z</time>
      </trkpt>
      <trkpt lat="22.803438" lon="109.004143">
        <ele>98.521836</ele>
        <time>2026-08-14T07:47:16.000Z</time>
      </trkpt>
      <trkpt lat="22.803479" lon="109.004168">
        <ele>98.552923</ele>
        <time>2026-08-14T07:47:17.000Z</time>
      </trkpt>
      <trkpt lat="22.803519" lon="109.004194">
        <ele>98.583745</ele>
        <time>2026-08-14T07:47:18.000Z</time>
      </trkpt>
      <trkpt lat="22.803561" lon="109.004220">
        <ele>98.615707</ele>
        <time>2026-08-14T07:47:19.000Z</time>
      </trkpt>
      <trkpt lat="22.803602" lon="109.004246">
        <ele>98.647097</ele>
        <time>2026-08-14T07:47:20.000Z</time>
      </trkpt>
      <trkpt lat="22.803645" lon="109.004270">
        <ele>98.679060</ele>
        <time>2026-08-14T07:47:21.000Z</time>
      </trkpt>
      <trkpt lat="22.803687" lon="109.004293">
        <ele>98.710157</ele>
        <time>2026-08-14T07:47:22.000Z</time>
      </trkpt>
      <trkpt lat="22.803729" lon="109.004315">
        <ele>98.740984</ele>
        <time>2026-08-14T07:47:23.000Z</time>
      </trkpt>
      <trkpt lat="22.803769" lon="109.004336">
        <ele>98.770356</ele>
        <time>2026-08-14T07:47:24.000Z</time>
      </trkpt>
      <trkpt lat="22.803810" lon="109.004355">
        <ele>98.799825</ele>
        <time>2026-08-14T07:47:25.000Z</time>
      </trkpt>
      <trkpt lat="22.803851" lon="109.004374">
        <ele>98.829293</ele>
        <time>2026-08-14T07:47:26.000Z</time>
      </trkpt>
      <trkpt lat="22.803892" lon="109.004392">
        <ele>98.858528</ele>
        <time>2026-08-14T07:47:27.000Z</time>
      </trkpt>
      <trkpt lat="22.803934" lon="109.004409">
        <ele>98.888158</ele>
        <time>2026-08-14T07:47:28.000Z</time>
      </trkpt>
      <trkpt lat="22.803975" lon="109.004427">
        <ele>98.917392</ele>
        <time>2026-08-14T07:47:29.000Z</time>
      </trkpt>
      <trkpt lat="22.804019" lon="109.004442">
        <ele>98.947877</ele>
        <time>2026-08-14T07:47:30.000Z</time>
      </trkpt>
      <trkpt lat="22.804063" lon="109.004456">
        <ele>98.978184</ele>
        <time>2026-08-14T07:47:31.000Z</time>
      </trkpt>
      <trkpt lat="22.804109" lon="109.004467">
        <ele>99.009318</ele>
        <time>2026-08-14T07:47:32.000Z</time>
      </trkpt>
      <trkpt lat="22.804153" lon="109.004478">
        <ele>99.039163</ele>
        <time>2026-08-14T07:47:33.000Z</time>
      </trkpt>
      <trkpt lat="22.804199" lon="109.004487">
        <ele>99.070058</ele>
        <time>2026-08-14T07:47:34.000Z</time>
      </trkpt>
      <trkpt lat="22.804245" lon="109.004497">
        <ele>99.101066</ele>
        <time>2026-08-14T07:47:35.000Z</time>
      </trkpt>
      <trkpt lat="22.804292" lon="109.004505">
        <ele>99.132512</ele>
        <time>2026-08-14T07:47:36.000Z</time>
      </trkpt>
      <trkpt lat="22.804338" lon="109.004512">
        <ele>99.163213</ele>
        <time>2026-08-14T07:47:37.000Z</time>
      </trkpt>
      <trkpt lat="22.804384" lon="109.004518">
        <ele>99.193837</ele>
        <time>2026-08-14T07:47:38.000Z</time>
      </trkpt>
      <trkpt lat="22.804430" lon="109.004525">
        <ele>99.224539</ele>
        <time>2026-08-14T07:47:39.000Z</time>
      </trkpt>
      <trkpt lat="22.804478" lon="109.004532">
        <ele>99.256550</ele>
        <time>2026-08-14T07:47:40.000Z</time>
      </trkpt>
      <trkpt lat="22.804527" lon="109.004537">
        <ele>99.289080</ele>
        <time>2026-08-14T07:47:41.000Z</time>
      </trkpt>
      <trkpt lat="22.804575" lon="109.004543">
        <ele>99.321016</ele>
        <time>2026-08-14T07:47:42.000Z</time>
      </trkpt>
      <trkpt lat="22.804623" lon="109.004549">
        <ele>99.361702</ele>
        <time>2026-08-14T07:47:43.000Z</time>
      </trkpt>
      <trkpt lat="22.804672" lon="109.004555">
        <ele>99.407203</ele>
        <time>2026-08-14T07:47:44.000Z</time>
      </trkpt>
      <trkpt lat="22.804720" lon="109.004562">
        <ele>99.451893</ele>
        <time>2026-08-14T07:47:45.000Z</time>
      </trkpt>
      <trkpt lat="22.804768" lon="109.004568">
        <ele>99.496477</ele>
        <time>2026-08-14T07:47:46.000Z</time>
      </trkpt>
      <trkpt lat="22.804816" lon="109.004576">
        <ele>99.541288</ele>
        <time>2026-08-14T07:47:47.000Z</time>
      </trkpt>
      <trkpt lat="22.804864" lon="109.004584">
        <ele>99.586099</ele>
        <time>2026-08-14T07:47:48.000Z</time>
      </trkpt>
      <trkpt lat="22.804912" lon="109.004592">
        <ele>99.630909</ele>
        <time>2026-08-14T07:47:49.000Z</time>
      </trkpt>
      <trkpt lat="22.804959" lon="109.004598">
        <ele>99.674577</ele>
        <time>2026-08-14T07:47:50.000Z</time>
      </trkpt>
      <trkpt lat="22.805007" lon="109.004606">
        <ele>99.719388</ele>
        <time>2026-08-14T07:47:51.000Z</time>
      </trkpt>
      <trkpt lat="22.805054" lon="109.004613">
        <ele>99.763163</ele>
        <time>2026-08-14T07:47:52.000Z</time>
      </trkpt>
      <trkpt lat="22.805102" lon="109.004619">
        <ele>99.807748</ele>
        <time>2026-08-14T07:47:53.000Z</time>
      </trkpt>
      <trkpt lat="22.805149" lon="109.004624">
        <ele>99.851324</ele>
        <time>2026-08-14T07:47:54.000Z</time>
      </trkpt>
      <trkpt lat="22.805195" lon="109.004630">
        <ele>99.894075</ele>
        <time>2026-08-14T07:47:55.000Z</time>
      </trkpt>
      <trkpt lat="22.805240" lon="109.004635">
        <ele>99.935816</ele>
        <time>2026-08-14T07:47:56.000Z</time>
      </trkpt>
      <trkpt lat="22.805284" lon="109.004640">
        <ele>99.976638</ele>
        <time>2026-08-14T07:47:57.000Z</time>
      </trkpt>
      <trkpt lat="22.805327" lon="109.004644">
        <ele>100.016461</ele>
        <time>2026-08-14T07:47:58.000Z</time>
      </trkpt>
      <trkpt lat="22.805370" lon="109.004648">
        <ele>100.056284</ele>
        <time>2026-08-14T07:47:59.000Z</time>
      </trkpt>
      <trkpt lat="22.805413" lon="109.004652">
        <ele>100.096107</ele>
        <time>2026-08-14T07:48:00.000Z</time>
      </trkpt>
      <trkpt lat="22.805454" lon="109.004657">
        <ele>100.134178</ele>
        <time>2026-08-14T07:48:01.000Z</time>
      </trkpt>
      <trkpt lat="22.805493" lon="109.004660">
        <ele>100.170255</ele>
        <time>2026-08-14T07:48:02.000Z</time>
      </trkpt>
      <trkpt lat="22.805531" lon="109.004665">
        <ele>100.205576</ele>
        <time>2026-08-14T07:48:03.000Z</time>
      </trkpt>
      <trkpt lat="22.805570" lon="109.004667">
        <ele>100.241602</ele>
        <time>2026-08-14T07:48:04.000Z</time>
      </trkpt>
      <trkpt lat="22.805608" lon="109.004667">
        <ele>100.276666</ele>
        <time>2026-08-14T07:48:05.000Z</time>
      </trkpt>
      <trkpt lat="22.805646" lon="109.004668">
        <ele>100.311740</ele>
        <time>2026-08-14T07:48:06.000Z</time>
      </trkpt>
      <trkpt lat="22.805683" lon="109.004668">
        <ele>100.345881</ele>
        <time>2026-08-14T07:48:07.000Z</time>
      </trkpt>
      <trkpt lat="22.805723" lon="109.004670">
        <ele>100.382830</ele>
        <time>2026-08-14T07:48:08.000Z</time>
      </trkpt>
      <trkpt lat="22.805764" lon="109.004670">
        <ele>100.420662</ele>
        <time>2026-08-14T07:48:09.000Z</time>
      </trkpt>
      <trkpt lat="22.805803" lon="109.004668">
        <ele>100.456689</ele>
        <time>2026-08-14T07:48:10.000Z</time>
      </trkpt>
      <trkpt lat="22.805842" lon="109.004667">
        <ele>100.492685</ele>
        <time>2026-08-14T07:48:11.000Z</time>
      </trkpt>
      <trkpt lat="22.805881" lon="109.004666">
        <ele>100.528682</ele>
        <time>2026-08-14T07:48:12.000Z</time>
      </trkpt>
      <trkpt lat="22.805922" lon="109.004665">
        <ele>100.566524</ele>
        <time>2026-08-14T07:48:13.000Z</time>
      </trkpt>
      <trkpt lat="22.805962" lon="109.004664">
        <ele>100.603443</ele>
        <time>2026-08-14T07:48:14.000Z</time>
      </trkpt>
      <trkpt lat="22.806000" lon="109.004663">
        <ele>100.638517</ele>
        <time>2026-08-14T07:48:15.000Z</time>
      </trkpt>
      <trkpt lat="22.806040" lon="109.004663">
        <ele>100.675426</ele>
        <time>2026-08-14T07:48:16.000Z</time>
      </trkpt>
      <trkpt lat="22.806080" lon="109.004662">
        <ele>100.712345</ele>
        <time>2026-08-14T07:48:17.000Z</time>
      </trkpt>
      <trkpt lat="22.806119" lon="109.004659">
        <ele>100.748422</ele>
        <time>2026-08-14T07:48:18.000Z</time>
      </trkpt>
      <trkpt lat="22.806158" lon="109.004659">
        <ele>100.784409</ele>
        <time>2026-08-14T07:48:19.000Z</time>
      </trkpt>
      <trkpt lat="22.806197" lon="109.004657">
        <ele>100.820436</ele>
        <time>2026-08-14T07:48:20.000Z</time>
      </trkpt>
      <trkpt lat="22.806237" lon="109.004655">
        <ele>100.857384</ele>
        <time>2026-08-14T07:48:21.000Z</time>
      </trkpt>
      <trkpt lat="22.806276" lon="109.004653">
        <ele>100.893411</ele>
        <time>2026-08-14T07:48:22.000Z</time>
      </trkpt>
      <trkpt lat="22.806316" lon="109.004652">
        <ele>100.930330</ele>
        <time>2026-08-14T07:48:23.000Z</time>
      </trkpt>
      <trkpt lat="22.806355" lon="109.004651">
        <ele>100.966327</ele>
        <time>2026-08-14T07:48:24.000Z</time>
      </trkpt>
      <trkpt lat="22.806395" lon="109.004650">
        <ele>101.005156</ele>
        <time>2026-08-14T07:48:25.000Z</time>
      </trkpt>
      <trkpt lat="22.806434" lon="109.004649">
        <ele>101.046557</ele>
        <time>2026-08-14T07:48:26.000Z</time>
      </trkpt>
      <trkpt lat="22.806473" lon="109.004648">
        <ele>101.087958</ele>
        <time>2026-08-14T07:48:27.000Z</time>
      </trkpt>
      <trkpt lat="22.806513" lon="109.004646">
        <ele>101.130455</ele>
        <time>2026-08-14T07:48:28.000Z</time>
      </trkpt>
      <trkpt lat="22.806555" lon="109.004644">
        <ele>101.175071</ele>
        <time>2026-08-14T07:48:29.000Z</time>
      </trkpt>
      <trkpt lat="22.806596" lon="109.004642">
        <ele>101.218628</ele>
        <time>2026-08-14T07:48:30.000Z</time>
      </trkpt>
      <trkpt lat="22.806635" lon="109.004642">
        <ele>101.260017</ele>
        <time>2026-08-14T07:48:31.000Z</time>
      </trkpt>
      <trkpt lat="22.806676" lon="109.004641">
        <ele>101.303541</ele>
        <time>2026-08-14T07:48:32.000Z</time>
      </trkpt>
      <trkpt lat="22.806717" lon="109.004639">
        <ele>101.347097</ele>
        <time>2026-08-14T07:48:33.000Z</time>
      </trkpt>
      <trkpt lat="22.806757" lon="109.004637">
        <ele>101.389593</ele>
        <time>2026-08-14T07:48:34.000Z</time>
      </trkpt>
      <trkpt lat="22.806798" lon="109.004636">
        <ele>101.433117</ele>
        <time>2026-08-14T07:48:35.000Z</time>
      </trkpt>
      <trkpt lat="22.806839" lon="109.004634">
        <ele>101.476673</ele>
        <time>2026-08-14T07:48:36.000Z</time>
      </trkpt>
      <trkpt lat="22.806881" lon="109.004632">
        <ele>101.521290</ele>
        <time>2026-08-14T07:48:37.000Z</time>
      </trkpt>
      <trkpt lat="22.806922" lon="109.004630">
        <ele>101.564846</ele>
        <time>2026-08-14T07:48:38.000Z</time>
      </trkpt>
      <trkpt lat="22.806965" lon="109.004628">
        <ele>101.610523</ele>
        <time>2026-08-14T07:48:39.000Z</time>
      </trkpt>
      <trkpt lat="22.807009" lon="109.004628">
        <ele>101.657219</ele>
        <time>2026-08-14T07:48:40.000Z</time>
      </trkpt>
      <trkpt lat="22.807053" lon="109.004629">
        <ele>101.703926</ele>
        <time>2026-08-14T07:48:41.000Z</time>
      </trkpt>
      <trkpt lat="22.807099" lon="109.004628">
        <ele>101.752754</ele>
        <time>2026-08-14T07:48:42.000Z</time>
      </trkpt>
      <trkpt lat="22.807144" lon="109.004625">
        <ele>101.800602</ele>
        <time>2026-08-14T07:48:43.000Z</time>
      </trkpt>
      <trkpt lat="22.807187" lon="109.004622">
        <ele>101.846331</ele>
        <time>2026-08-14T07:48:44.000Z</time>
      </trkpt>
      <trkpt lat="22.807230" lon="109.004619">
        <ele>101.892060</ele>
        <time>2026-08-14T07:48:45.000Z</time>
      </trkpt>
      <trkpt lat="22.807272" lon="109.004617">
        <ele>101.936677</ele>
        <time>2026-08-14T07:48:46.000Z</time>
      </trkpt>
      <trkpt lat="22.807314" lon="109.004615">
        <ele>101.981294</ele>
        <time>2026-08-14T07:48:47.000Z</time>
      </trkpt>
      <trkpt lat="22.807357" lon="109.004615">
        <ele>102.026929</ele>
        <time>2026-08-14T07:48:48.000Z</time>
      </trkpt>
      <trkpt lat="22.807400" lon="109.004615">
        <ele>102.072563</ele>
        <time>2026-08-14T07:48:49.000Z</time>
      </trkpt>
      <trkpt lat="22.807442" lon="109.004614">
        <ele>102.117148</ele>
        <time>2026-08-14T07:48:50.000Z</time>
      </trkpt>
      <trkpt lat="22.807485" lon="109.004610">
        <ele>102.162950</ele>
        <time>2026-08-14T07:48:51.000Z</time>
      </trkpt>
      <trkpt lat="22.807527" lon="109.004607">
        <ele>102.207621</ele>
        <time>2026-08-14T07:48:52.000Z</time>
      </trkpt>
      <trkpt lat="22.807572" lon="109.004606">
        <ele>102.255388</ele>
        <time>2026-08-14T07:48:53.000Z</time>
      </trkpt>
      <trkpt lat="22.807615" lon="109.004604">
        <ele>102.301065</ele>
        <time>2026-08-14T07:48:54.000Z</time>
      </trkpt>
      <trkpt lat="22.807657" lon="109.004603">
        <ele>102.345649</ele>
        <time>2026-08-14T07:48:55.000Z</time>
      </trkpt>
      <trkpt lat="22.807698" lon="109.004601">
        <ele>102.389206</ele>
        <time>2026-08-14T07:48:56.000Z</time>
      </trkpt>
      <trkpt lat="22.807740" lon="109.004598">
        <ele>102.433876</ele>
        <time>2026-08-14T07:48:57.000Z</time>
      </trkpt>
      <trkpt lat="22.807781" lon="109.004595">
        <ele>102.477487</ele>
        <time>2026-08-14T07:48:58.000Z</time>
      </trkpt>
      <trkpt lat="22.807822" lon="109.004593">
        <ele>102.521044</ele>
        <time>2026-08-14T07:48:59.000Z</time>
      </trkpt>
      <trkpt lat="22.807864" lon="109.004592">
        <ele>102.565628</ele>
        <time>2026-08-14T07:49:00.000Z</time>
      </trkpt>
      <trkpt lat="22.807906" lon="109.004590">
        <ele>102.610245</ele>
        <time>2026-08-14T07:49:01.000Z</time>
      </trkpt>
      <trkpt lat="22.807949" lon="109.004589">
        <ele>102.655890</ele>
        <time>2026-08-14T07:49:02.000Z</time>
      </trkpt>
      <trkpt lat="22.807993" lon="109.004589">
        <ele>102.702586</ele>
        <time>2026-08-14T07:49:03.000Z</time>
      </trkpt>
      <trkpt lat="22.808035" lon="109.004588">
        <ele>102.747171</ele>
        <time>2026-08-14T07:49:04.000Z</time>
      </trkpt>
      <trkpt lat="22.808078" lon="109.004587">
        <ele>102.792816</ele>
        <time>2026-08-14T07:49:05.000Z</time>
      </trkpt>
      <trkpt lat="22.808120" lon="109.004585">
        <ele>102.837433</ele>
        <time>2026-08-14T07:49:06.000Z</time>
      </trkpt>
      <trkpt lat="22.808165" lon="109.004582">
        <ele>102.885280</ele>
        <time>2026-08-14T07:49:07.000Z</time>
      </trkpt>
      <trkpt lat="22.808208" lon="109.004580">
        <ele>102.896376</ele>
        <time>2026-08-14T07:49:08.000Z</time>
      </trkpt>
      <trkpt lat="22.808250" lon="109.004578">
        <ele>102.892121</ele>
        <time>2026-08-14T07:49:09.000Z</time>
      </trkpt>
      <trkpt lat="22.808294" lon="109.004578">
        <ele>102.887668</ele>
        <time>2026-08-14T07:49:10.000Z</time>
      </trkpt>
      <trkpt lat="22.808337" lon="109.004578">
        <ele>102.883316</ele>
        <time>2026-08-14T07:49:11.000Z</time>
      </trkpt>
      <trkpt lat="22.808379" lon="109.004578">
        <ele>102.879065</ele>
        <time>2026-08-14T07:49:12.000Z</time>
      </trkpt>
      <trkpt lat="22.808421" lon="109.004575">
        <ele>102.874805</ele>
        <time>2026-08-14T07:49:13.000Z</time>
      </trkpt>
      <trkpt lat="22.808461" lon="109.004571">
        <ele>102.870740</ele>
        <time>2026-08-14T07:49:14.000Z</time>
      </trkpt>
      <trkpt lat="22.808500" lon="109.004568">
        <ele>102.866783</ele>
        <time>2026-08-14T07:49:15.000Z</time>
      </trkpt>
      <trkpt lat="22.808537" lon="109.004567">
        <ele>102.863037</ele>
        <time>2026-08-14T07:49:16.000Z</time>
      </trkpt>
      <trkpt lat="22.808574" lon="109.004568">
        <ele>102.859291</ele>
        <time>2026-08-14T07:49:17.000Z</time>
      </trkpt>
      <trkpt lat="22.808610" lon="109.004564">
        <ele>102.855628</ele>
        <time>2026-08-14T07:49:18.000Z</time>
      </trkpt>
      <trkpt lat="22.808643" lon="109.004556">
        <ele>102.852206</ele>
        <time>2026-08-14T07:49:19.000Z</time>
      </trkpt>
      <trkpt lat="22.808678" lon="109.004552">
        <ele>102.848644</ele>
        <time>2026-08-14T07:49:20.000Z</time>
      </trkpt>
      <trkpt lat="22.808714" lon="109.004555">
        <ele>102.844990</ele>
        <time>2026-08-14T07:49:21.000Z</time>
      </trkpt>
      <trkpt lat="22.808753" lon="109.004559">
        <ele>102.841025</ele>
        <time>2026-08-14T07:49:22.000Z</time>
      </trkpt>
      <trkpt lat="22.808793" lon="109.004563">
        <ele>102.836960</ele>
        <time>2026-08-14T07:49:23.000Z</time>
      </trkpt>
      <trkpt lat="22.808835" lon="109.004567">
        <ele>102.832693</ele>
        <time>2026-08-14T07:49:24.000Z</time>
      </trkpt>
      <trkpt lat="22.808877" lon="109.004571">
        <ele>102.828425</ele>
        <time>2026-08-14T07:49:25.000Z</time>
      </trkpt>
      <trkpt lat="22.808921" lon="109.004575">
        <ele>102.823957</ele>
        <time>2026-08-14T07:49:26.000Z</time>
      </trkpt>
      <trkpt lat="22.808965" lon="109.004580">
        <ele>102.819479</ele>
        <time>2026-08-14T07:49:27.000Z</time>
      </trkpt>
      <trkpt lat="22.809010" lon="109.004584">
        <ele>102.814909</ele>
        <time>2026-08-14T07:49:28.000Z</time>
      </trkpt>
      <trkpt lat="22.809056" lon="109.004588">
        <ele>102.810239</ele>
        <time>2026-08-14T07:49:29.000Z</time>
      </trkpt>
      <trkpt lat="22.809104" lon="109.004593">
        <ele>102.805358</ele>
        <time>2026-08-14T07:49:30.000Z</time>
      </trkpt>
      <trkpt lat="22.809153" lon="109.004596">
        <ele>102.800391</ele>
        <time>2026-08-14T07:49:31.000Z</time>
      </trkpt>
      <trkpt lat="22.809202" lon="109.004599">
        <ele>102.795424</ele>
        <time>2026-08-14T07:49:32.000Z</time>
      </trkpt>
      <trkpt lat="22.809252" lon="109.004603">
        <ele>102.790350</ele>
        <time>2026-08-14T07:49:33.000Z</time>
      </trkpt>
      <trkpt lat="22.809303" lon="109.004607">
        <ele>102.785175</ele>
        <time>2026-08-14T07:49:34.000Z</time>
      </trkpt>
      <trkpt lat="22.809355" lon="109.004612">
        <ele>102.779891</ele>
        <time>2026-08-14T07:49:35.000Z</time>
      </trkpt>
      <trkpt lat="22.809406" lon="109.004619">
        <ele>102.774689</ele>
        <time>2026-08-14T07:49:36.000Z</time>
      </trkpt>
      <trkpt lat="22.809459" lon="109.004623">
        <ele>102.769311</ele>
        <time>2026-08-14T07:49:37.000Z</time>
      </trkpt>
      <trkpt lat="22.809512" lon="109.004629">
        <ele>102.763918</ele>
        <time>2026-08-14T07:49:38.000Z</time>
      </trkpt>
      <trkpt lat="22.809565" lon="109.004635">
        <ele>102.758525</ele>
        <time>2026-08-14T07:49:39.000Z</time>
      </trkpt>
      <trkpt lat="22.809619" lon="109.004642">
        <ele>102.753021</ele>
        <time>2026-08-14T07:49:40.000Z</time>
      </trkpt>
      <trkpt lat="22.809673" lon="109.004650">
        <ele>102.747505</ele>
        <time>2026-08-14T07:49:41.000Z</time>
      </trkpt>
      <trkpt lat="22.809728" lon="109.004659">
        <ele>102.741875</ele>
        <time>2026-08-14T07:49:42.000Z</time>
      </trkpt>
      <trkpt lat="22.809783" lon="109.004670">
        <ele>102.736215</ele>
        <time>2026-08-14T07:49:43.000Z</time>
      </trkpt>
      <trkpt lat="22.809837" lon="109.004678">
        <ele>102.730699</ele>
        <time>2026-08-14T07:49:44.000Z</time>
      </trkpt>
      <trkpt lat="22.809888" lon="109.004686">
        <ele>102.725484</ele>
        <time>2026-08-14T07:49:45.000Z</time>
      </trkpt>
      <trkpt lat="22.809940" lon="109.004695">
        <ele>102.720154</ele>
        <time>2026-08-14T07:49:46.000Z</time>
      </trkpt>
      <trkpt lat="22.809992" lon="109.004707">
        <ele>102.719195</ele>
        <time>2026-08-14T07:49:47.000Z</time>
      </trkpt>
      <trkpt lat="22.810043" lon="109.004718">
        <ele>102.722970</ele>
        <time>2026-08-14T07:49:48.000Z</time>
      </trkpt>
      <trkpt lat="22.810093" lon="109.004729">
        <ele>102.726674</ele>
        <time>2026-08-14T07:49:49.000Z</time>
      </trkpt>
      <trkpt lat="22.810142" lon="109.004739">
        <ele>102.730294</ele>
        <time>2026-08-14T07:49:50.000Z</time>
      </trkpt>
      <trkpt lat="22.810188" lon="109.004750">
        <ele>102.733714</ele>
        <time>2026-08-14T07:49:51.000Z</time>
      </trkpt>
      <trkpt lat="22.810233" lon="109.004760">
        <ele>102.737049</ele>
        <time>2026-08-14T07:49:52.000Z</time>
      </trkpt>
      <trkpt lat="22.810278" lon="109.004769">
        <ele>102.740371</ele>
        <time>2026-08-14T07:49:53.000Z</time>
      </trkpt>
      <trkpt lat="22.810324" lon="109.004778">
        <ele>102.743764</ele>
        <time>2026-08-14T07:49:54.000Z</time>
      </trkpt>
      <trkpt lat="22.810370" lon="109.004789">
        <ele>102.747184</ele>
        <time>2026-08-14T07:49:55.000Z</time>
      </trkpt>
      <trkpt lat="22.810417" lon="109.004800">
        <ele>102.750675</ele>
        <time>2026-08-14T07:49:56.000Z</time>
      </trkpt>
      <trkpt lat="22.810465" lon="109.004811">
        <ele>102.754237</ele>
        <time>2026-08-14T07:49:57.000Z</time>
      </trkpt>
      <trkpt lat="22.810512" lon="109.004823">
        <ele>102.757743</ele>
        <time>2026-08-14T07:49:58.000Z</time>
      </trkpt>
      <trkpt lat="22.810560" lon="109.004835">
        <ele>102.761319</ele>
        <time>2026-08-14T07:49:59.000Z</time>
      </trkpt>
      <trkpt lat="22.810608" lon="109.004847">
        <ele>102.764895</ele>
        <time>2026-08-14T07:50:00.000Z</time>
      </trkpt>
      <trkpt lat="22.810657" lon="109.004858">
        <ele>102.768528</ele>
        <time>2026-08-14T07:50:01.000Z</time>
      </trkpt>
      <trkpt lat="22.810703" lon="109.004868">
        <ele>102.771934</ele>
        <time>2026-08-14T07:50:02.000Z</time>
      </trkpt>
      <trkpt lat="22.810750" lon="109.004879">
        <ele>102.775425</ele>
        <time>2026-08-14T07:50:03.000Z</time>
      </trkpt>
      <trkpt lat="22.810798" lon="109.004890">
        <ele>102.778987</ele>
        <time>2026-08-14T07:50:04.000Z</time>
      </trkpt>
      <trkpt lat="22.810848" lon="109.004900">
        <ele>102.782678</ele>
        <time>2026-08-14T07:50:05.000Z</time>
      </trkpt>
      <trkpt lat="22.810898" lon="109.004911">
        <ele>102.786382</ele>
        <time>2026-08-14T07:50:06.000Z</time>
      </trkpt>
      <trkpt lat="22.810947" lon="109.004923">
        <ele>102.790029</ele>
        <time>2026-08-14T07:50:07.000Z</time>
      </trkpt>
      <trkpt lat="22.810997" lon="109.004934">
        <ele>102.793733</ele>
        <time>2026-08-14T07:50:08.000Z</time>
      </trkpt>
      <trkpt lat="22.811048" lon="109.004945">
        <ele>102.797508</ele>
        <time>2026-08-14T07:50:09.000Z</time>
      </trkpt>
      <trkpt lat="22.811098" lon="109.004957">
        <ele>102.801226</ele>
        <time>2026-08-14T07:50:10.000Z</time>
      </trkpt>
      <trkpt lat="22.811149" lon="109.004968">
        <ele>102.805002</ele>
        <time>2026-08-14T07:50:11.000Z</time>
      </trkpt>
      <trkpt lat="22.811198" lon="109.004978">
        <ele>102.808621</ele>
        <time>2026-08-14T07:50:12.000Z</time>
      </trkpt>
      <trkpt lat="22.811250" lon="109.004989">
        <ele>102.812468</ele>
        <time>2026-08-14T07:50:13.000Z</time>
      </trkpt>
      <trkpt lat="22.811301" lon="109.005001">
        <ele>102.816257</ele>
        <time>2026-08-14T07:50:14.000Z</time>
      </trkpt>
      <trkpt lat="22.811351" lon="109.005013">
        <ele>102.819975</ele>
        <time>2026-08-14T07:50:15.000Z</time>
      </trkpt>
      <trkpt lat="22.811400" lon="109.005025">
        <ele>102.823622</ele>
        <time>2026-08-14T07:50:16.000Z</time>
      </trkpt>
      <trkpt lat="22.811447" lon="109.005038">
        <ele>102.827143</ele>
        <time>2026-08-14T07:50:17.000Z</time>
      </trkpt>
      <trkpt lat="22.811493" lon="109.005051">
        <ele>102.830594</ele>
        <time>2026-08-14T07:50:18.000Z</time>
      </trkpt>
      <trkpt lat="22.811539" lon="109.005063">
        <ele>102.834029</ele>
        <time>2026-08-14T07:50:19.000Z</time>
      </trkpt>
      <trkpt lat="22.811584" lon="109.005074">
        <ele>102.837378</ele>
        <time>2026-08-14T07:50:20.000Z</time>
      </trkpt>
      <trkpt lat="22.811627" lon="109.005083">
        <ele>102.840558</ele>
        <time>2026-08-14T07:50:21.000Z</time>
      </trkpt>
      <trkpt lat="22.811667" lon="109.005092">
        <ele>102.843524</ele>
        <time>2026-08-14T07:50:22.000Z</time>
      </trkpt>
      <trkpt lat="22.811706" lon="109.005102">
        <ele>102.846433</ele>
        <time>2026-08-14T07:50:23.000Z</time>
      </trkpt>
      <trkpt lat="22.811744" lon="109.005114">
        <ele>102.865779</ele>
        <time>2026-08-14T07:50:24.000Z</time>
      </trkpt>
      <trkpt lat="22.811783" lon="109.005126">
        <ele>102.904051</ele>
        <time>2026-08-14T07:50:25.000Z</time>
      </trkpt>
      <trkpt lat="22.811821" lon="109.005139">
        <ele>102.941667</ele>
        <time>2026-08-14T07:50:26.000Z</time>
      </trkpt>
      <trkpt lat="22.811859" lon="109.005152">
        <ele>102.979284</ele>
        <time>2026-08-14T07:50:27.000Z</time>
      </trkpt>
      <trkpt lat="22.811895" lon="109.005164">
        <ele>103.014839</ele>
        <time>2026-08-14T07:50:28.000Z</time>
      </trkpt>
      <trkpt lat="22.811932" lon="109.005174">
        <ele>103.050837</ele>
        <time>2026-08-14T07:50:29.000Z</time>
      </trkpt>
      <trkpt lat="22.811969" lon="109.005184">
        <ele>103.086836</ele>
        <time>2026-08-14T07:50:30.000Z</time>
      </trkpt>
      <trkpt lat="22.812005" lon="109.005194">
        <ele>103.121919</ele>
        <time>2026-08-14T07:50:31.000Z</time>
      </trkpt>
      <trkpt lat="22.812039" lon="109.005204">
        <ele>103.155177</ele>
        <time>2026-08-14T07:50:32.000Z</time>
      </trkpt>
      <trkpt lat="22.812074" lon="109.005214">
        <ele>103.189346</ele>
        <time>2026-08-14T07:50:33.000Z</time>
      </trkpt>
      <trkpt lat="22.812109" lon="109.005227">
        <ele>103.224272</ele>
        <time>2026-08-14T07:50:34.000Z</time>
      </trkpt>
      <trkpt lat="22.812143" lon="109.005240">
        <ele>103.258306</ele>
        <time>2026-08-14T07:50:35.000Z</time>
      </trkpt>
      <trkpt lat="22.812174" lon="109.005249">
        <ele>103.288602</ele>
        <time>2026-08-14T07:50:36.000Z</time>
      </trkpt>
      <trkpt lat="22.812208" lon="109.005258">
        <ele>103.321643</ele>
        <time>2026-08-14T07:50:37.000Z</time>
      </trkpt>
      <trkpt lat="22.812242" lon="109.005269">
        <ele>103.355139</ele>
        <time>2026-08-14T07:50:38.000Z</time>
      </trkpt>
      <trkpt lat="22.812277" lon="109.005281">
        <ele>103.389792</ele>
        <time>2026-08-14T07:50:39.000Z</time>
      </trkpt>
      <trkpt lat="22.812310" lon="109.005292">
        <ele>103.422384</ele>
        <time>2026-08-14T07:50:40.000Z</time>
      </trkpt>
      <trkpt lat="22.812342" lon="109.005306">
        <ele>103.454959</ele>
        <time>2026-08-14T07:50:41.000Z</time>
      </trkpt>
      <trkpt lat="22.812377" lon="109.005317">
        <ele>103.489360</ele>
        <time>2026-08-14T07:50:42.000Z</time>
      </trkpt>
      <trkpt lat="22.812411" lon="109.005329">
        <ele>103.523115</ele>
        <time>2026-08-14T07:50:43.000Z</time>
      </trkpt>
      <trkpt lat="22.812445" lon="109.005340">
        <ele>103.556611</ele>
        <time>2026-08-14T07:50:44.000Z</time>
      </trkpt>
      <trkpt lat="22.812481" lon="109.005350">
        <ele>103.591694</ele>
        <time>2026-08-14T07:50:45.000Z</time>
      </trkpt>
      <trkpt lat="22.812516" lon="109.005360">
        <ele>103.625864</ele>
        <time>2026-08-14T07:50:46.000Z</time>
      </trkpt>
      <trkpt lat="22.812550" lon="109.005370">
        <ele>103.659121</ele>
        <time>2026-08-14T07:50:47.000Z</time>
      </trkpt>
      <trkpt lat="22.812586" lon="109.005384">
        <ele>103.695226</ele>
        <time>2026-08-14T07:50:48.000Z</time>
      </trkpt>
      <trkpt lat="22.812624" lon="109.005399">
        <ele>103.733402</ele>
        <time>2026-08-14T07:50:49.000Z</time>
      </trkpt>
      <trkpt lat="22.812663" lon="109.005414">
        <ele>103.772466</ele>
        <time>2026-08-14T07:50:50.000Z</time>
      </trkpt>
      <trkpt lat="22.812702" lon="109.005429">
        <ele>103.811531</ele>
        <time>2026-08-14T07:50:51.000Z</time>
      </trkpt>
      <trkpt lat="22.812742" lon="109.005443">
        <ele>103.851211</ele>
        <time>2026-08-14T07:50:52.000Z</time>
      </trkpt>
      <trkpt lat="22.812783" lon="109.005458">
        <ele>103.892060</ele>
        <time>2026-08-14T07:50:53.000Z</time>
      </trkpt>
      <trkpt lat="22.812824" lon="109.005472">
        <ele>103.932639</ele>
        <time>2026-08-14T07:50:54.000Z</time>
      </trkpt>
      <trkpt lat="22.812866" lon="109.005486">
        <ele>103.974120</ele>
        <time>2026-08-14T07:50:55.000Z</time>
      </trkpt>
      <trkpt lat="22.812909" lon="109.005499">
        <ele>104.016262</ele>
        <time>2026-08-14T07:50:56.000Z</time>
      </trkpt>
      <trkpt lat="22.812952" lon="109.005511">
        <ele>104.058179</ele>
        <time>2026-08-14T07:50:57.000Z</time>
      </trkpt>
      <trkpt lat="22.812995" lon="109.005525">
        <ele>104.100563</ele>
        <time>2026-08-14T07:50:58.000Z</time>
      </trkpt>
      <trkpt lat="22.813038" lon="109.005538">
        <ele>104.142706</ele>
        <time>2026-08-14T07:50:59.000Z</time>
      </trkpt>
      <trkpt lat="22.813082" lon="109.005552">
        <ele>104.185995</ele>
        <time>2026-08-14T07:51:00.000Z</time>
      </trkpt>
      <trkpt lat="22.813124" lon="109.005567">
        <ele>104.227740</ele>
        <time>2026-08-14T07:51:01.000Z</time>
      </trkpt>
      <trkpt lat="22.813166" lon="109.005583">
        <ele>104.269765</ele>
        <time>2026-08-14T07:51:02.000Z</time>
      </trkpt>
      <trkpt lat="22.813207" lon="109.005599">
        <ele>104.310900</ele>
        <time>2026-08-14T07:51:03.000Z</time>
      </trkpt>
      <trkpt lat="22.813249" lon="109.005616">
        <ele>104.353221</ele>
        <time>2026-08-14T07:51:04.000Z</time>
      </trkpt>
      <trkpt lat="22.813291" lon="109.005632">
        <ele>104.395246</ele>
        <time>2026-08-14T07:51:05.000Z</time>
      </trkpt>
      <trkpt lat="22.813333" lon="109.005646">
        <ele>104.436727</ele>
        <time>2026-08-14T07:51:06.000Z</time>
      </trkpt>
      <trkpt lat="22.813376" lon="109.005661">
        <ele>104.479369</ele>
        <time>2026-08-14T07:51:07.000Z</time>
      </trkpt>
      <trkpt lat="22.813416" lon="109.005675">
        <ele>104.519049</ele>
        <time>2026-08-14T07:51:08.000Z</time>
      </trkpt>
      <trkpt lat="22.813455" lon="109.005688">
        <ele>104.563966</ele>
        <time>2026-08-14T07:51:09.000Z</time>
      </trkpt>
      <trkpt lat="22.813494" lon="109.005701">
        <ele>104.623785</ele>
        <time>2026-08-14T07:51:10.000Z</time>
      </trkpt>
      <trkpt lat="22.813532" lon="109.005714">
        <ele>104.682205</ele>
        <time>2026-08-14T07:51:11.000Z</time>
      </trkpt>
      <trkpt lat="22.813572" lon="109.005725">
        <ele>104.742707</ele>
        <time>2026-08-14T07:51:12.000Z</time>
      </trkpt>
      <trkpt lat="22.813609" lon="109.005738">
        <ele>104.799729</ele>
        <time>2026-08-14T07:51:13.000Z</time>
      </trkpt>
      <trkpt lat="22.813645" lon="109.005750">
        <ele>104.854947</ele>
        <time>2026-08-14T07:51:14.000Z</time>
      </trkpt>
      <trkpt lat="22.813683" lon="109.005761">
        <ele>104.912611</ele>
        <time>2026-08-14T07:51:15.000Z</time>
      </trkpt>
      <trkpt lat="22.813720" lon="109.005772">
        <ele>104.968860</ele>
        <time>2026-08-14T07:51:16.000Z</time>
      </trkpt>
      <trkpt lat="22.813756" lon="109.005786">
        <ele>105.024931</ele>
        <time>2026-08-14T07:51:17.000Z</time>
      </trkpt>
      <trkpt lat="22.813794" lon="109.005798">
        <ele>105.082958</ele>
        <time>2026-08-14T07:51:18.000Z</time>
      </trkpt>
      <trkpt lat="22.813833" lon="109.005809">
        <ele>105.142040</ele>
        <time>2026-08-14T07:51:19.000Z</time>
      </trkpt>
      <trkpt lat="22.813872" lon="109.005817">
        <ele>105.200234</ele>
        <time>2026-08-14T07:51:20.000Z</time>
      </trkpt>
      <trkpt lat="22.813912" lon="109.005826">
        <ele>105.260129</ele>
        <time>2026-08-14T07:51:21.000Z</time>
      </trkpt>
      <trkpt lat="22.813953" lon="109.005835">
        <ele>105.321461</ele>
        <time>2026-08-14T07:51:22.000Z</time>
      </trkpt>
      <trkpt lat="22.813994" lon="109.005846">
        <ele>105.383385</ele>
        <time>2026-08-14T07:51:23.000Z</time>
      </trkpt>
      <trkpt lat="22.814037" lon="109.005855">
        <ele>105.447594</ele>
        <time>2026-08-14T07:51:24.000Z</time>
      </trkpt>
      <trkpt lat="22.814084" lon="109.005865">
        <ele>105.517817</ele>
        <time>2026-08-14T07:51:25.000Z</time>
      </trkpt>
      <trkpt lat="22.814132" lon="109.005875">
        <ele>105.589479</ele>
        <time>2026-08-14T07:51:26.000Z</time>
      </trkpt>
      <trkpt lat="22.814178" lon="109.005887">
        <ele>105.658846</ele>
        <time>2026-08-14T07:51:27.000Z</time>
      </trkpt>
      <trkpt lat="22.814225" lon="109.005903">
        <ele>105.731069</ele>
        <time>2026-08-14T07:51:28.000Z</time>
      </trkpt>
      <trkpt lat="22.814273" lon="109.005919">
        <ele>105.804693</ele>
        <time>2026-08-14T07:51:29.000Z</time>
      </trkpt>
      <trkpt lat="22.814320" lon="109.005935">
        <ele>105.876916</ele>
        <time>2026-08-14T07:51:30.000Z</time>
      </trkpt>
      <trkpt lat="22.814370" lon="109.005951">
        <ele>105.953348</ele>
        <time>2026-08-14T07:51:31.000Z</time>
      </trkpt>
      <trkpt lat="22.814421" lon="109.005967">
        <ele>106.031187</ele>
        <time>2026-08-14T07:51:32.000Z</time>
      </trkpt>
      <trkpt lat="22.814471" lon="109.005980">
        <ele>106.106572</ele>
        <time>2026-08-14T07:51:33.000Z</time>
      </trkpt>
      <trkpt lat="22.814521" lon="109.005993">
        <ele>106.181956</ele>
        <time>2026-08-14T07:51:34.000Z</time>
      </trkpt>
      <trkpt lat="22.814570" lon="109.006009">
        <ele>106.256983</ele>
        <time>2026-08-14T07:51:35.000Z</time>
      </trkpt>
      <trkpt lat="22.814621" lon="109.006024">
        <ele>106.334457</ele>
        <time>2026-08-14T07:51:36.000Z</time>
      </trkpt>
      <trkpt lat="22.814672" lon="109.006039">
        <ele>106.411932</ele>
        <time>2026-08-14T07:51:37.000Z</time>
      </trkpt>
      <trkpt lat="22.814724" lon="109.006053">
        <ele>106.490485</ele>
        <time>2026-08-14T07:51:38.000Z</time>
      </trkpt>
      <trkpt lat="22.814774" lon="109.006069">
        <ele>106.566917</ele>
        <time>2026-08-14T07:51:39.000Z</time>
      </trkpt>
      <trkpt lat="22.814825" lon="109.006085">
        <ele>106.644756</ele>
        <time>2026-08-14T07:51:40.000Z</time>
      </trkpt>
      <trkpt lat="22.814872" lon="109.006100">
        <ele>106.716586</ele>
        <time>2026-08-14T07:51:41.000Z</time>
      </trkpt>
      <trkpt lat="22.814921" lon="109.006114">
        <ele>106.790879</ele>
        <time>2026-08-14T07:51:42.000Z</time>
      </trkpt>
      <trkpt lat="22.814971" lon="109.006128">
        <ele>106.866590</ele>
        <time>2026-08-14T07:51:43.000Z</time>
      </trkpt>
      <trkpt lat="22.815020" lon="109.006141">
        <ele>106.940550</ele>
        <time>2026-08-14T07:51:44.000Z</time>
      </trkpt>
      <trkpt lat="22.815067" lon="109.006155">
        <ele>107.012010</ele>
        <time>2026-08-14T07:51:45.000Z</time>
      </trkpt>
      <trkpt lat="22.815119" lon="109.006172">
        <ele>107.091638</ele>
        <time>2026-08-14T07:51:46.000Z</time>
      </trkpt>
      <trkpt lat="22.815169" lon="109.006187">
        <ele>107.167698</ele>
        <time>2026-08-14T07:51:47.000Z</time>
      </trkpt>
      <trkpt lat="22.815216" lon="109.006202">
        <ele>107.264350</ele>
        <time>2026-08-14T07:51:48.000Z</time>
      </trkpt>
      <trkpt lat="22.815260" lon="109.006216">
        <ele>107.361167</ele>
        <time>2026-08-14T07:51:49.000Z</time>
      </trkpt>
      <trkpt lat="22.815304" lon="109.006229">
        <ele>107.457454</ele>
        <time>2026-08-14T07:51:50.000Z</time>
      </trkpt>
      <trkpt lat="22.815343" lon="109.006243">
        <ele>107.544191</ele>
        <time>2026-08-14T07:51:51.000Z</time>
      </trkpt>
      <trkpt lat="22.815382" lon="109.006256">
        <ele>107.630336</ele>
        <time>2026-08-14T07:51:52.000Z</time>
      </trkpt>
      <trkpt lat="22.815420" lon="109.006266">
        <ele>107.712898</ele>
        <time>2026-08-14T07:51:53.000Z</time>
      </trkpt>
      <trkpt lat="22.815456" lon="109.006275">
        <ele>107.790902</ele>
        <time>2026-08-14T07:51:54.000Z</time>
      </trkpt>
      <trkpt lat="22.815495" lon="109.006285">
        <ele>107.875516</ele>
        <time>2026-08-14T07:51:55.000Z</time>
      </trkpt>
      <trkpt lat="22.815530" lon="109.006295">
        <ele>107.951937</ele>
        <time>2026-08-14T07:51:56.000Z</time>
      </trkpt>
      <trkpt lat="22.815572" lon="109.006301">
        <ele>108.041383</ele>
        <time>2026-08-14T07:51:57.000Z</time>
      </trkpt>
      <trkpt lat="22.815604" lon="109.006312">
        <ele>108.112259</ele>
        <time>2026-08-14T07:51:58.000Z</time>
      </trkpt>
      <trkpt lat="22.815635" lon="109.006325">
        <ele>108.182434</ele>
        <time>2026-08-14T07:51:59.000Z</time>
      </trkpt>
      <trkpt lat="22.815667" lon="109.006337">
        <ele>108.253922</ele>
        <time>2026-08-14T07:52:00.000Z</time>
      </trkpt>
      <trkpt lat="22.815698" lon="109.006345">
        <ele>108.321203</ele>
        <time>2026-08-14T07:52:01.000Z</time>
      </trkpt>
      <trkpt lat="22.815729" lon="109.006356">
        <ele>108.390070</ele>
        <time>2026-08-14T07:52:02.000Z</time>
      </trkpt>
      <trkpt lat="22.815760" lon="109.006369">
        <ele>108.460245</ele>
        <time>2026-08-14T07:52:03.000Z</time>
      </trkpt>
      <trkpt lat="22.815793" lon="109.006382">
        <ele>108.534374</ele>
        <time>2026-08-14T07:52:04.000Z</time>
      </trkpt>
      <trkpt lat="22.815827" lon="109.006396">
        <ele>108.611160</ele>
        <time>2026-08-14T07:52:05.000Z</time>
      </trkpt>
      <trkpt lat="22.815860" lon="109.006410">
        <ele>108.685975</ele>
        <time>2026-08-14T07:52:06.000Z</time>
      </trkpt>
      <trkpt lat="22.815892" lon="109.006421">
        <ele>108.756852</ele>
        <time>2026-08-14T07:52:07.000Z</time>
      </trkpt>
      <trkpt lat="22.815924" lon="109.006433">
        <ele>108.828340</ele>
        <time>2026-08-14T07:52:08.000Z</time>
      </trkpt>
      <trkpt lat="22.815955" lon="109.006447">
        <ele>108.899240</ele>
        <time>2026-08-14T07:52:09.000Z</time>
      </trkpt>
      <trkpt lat="22.815986" lon="109.006461">
        <ele>108.970139</ele>
        <time>2026-08-14T07:52:10.000Z</time>
      </trkpt>
      <trkpt lat="22.816016" lon="109.006476">
        <ele>109.039886</ele>
        <time>2026-08-14T07:52:11.000Z</time>
      </trkpt>
      <trkpt lat="22.816043" lon="109.006490">
        <ele>109.103072</ele>
        <time>2026-08-14T07:52:12.000Z</time>
      </trkpt>
      <trkpt lat="22.816070" lon="109.006504">
        <ele>109.166257</ele>
        <time>2026-08-14T07:52:13.000Z</time>
      </trkpt>
      <trkpt lat="22.816099" lon="109.006521">
        <ele>109.235856</ele>
        <time>2026-08-14T07:52:14.000Z</time>
      </trkpt>
      <trkpt lat="22.816131" lon="109.006537">
        <ele>109.310253</ele>
        <time>2026-08-14T07:52:15.000Z</time>
      </trkpt>
      <trkpt lat="22.816162" lon="109.006553">
        <ele>109.382737</ele>
        <time>2026-08-14T07:52:16.000Z</time>
      </trkpt>
      <trkpt lat="22.816190" lon="109.006568">
        <ele>109.448673</ele>
        <time>2026-08-14T07:52:17.000Z</time>
      </trkpt>
      <trkpt lat="22.816217" lon="109.006583">
        <ele>109.512721</ele>
        <time>2026-08-14T07:52:18.000Z</time>
      </trkpt>
      <trkpt lat="22.816256" lon="109.006592">
        <ele>109.596910</ele>
        <time>2026-08-14T07:52:19.000Z</time>
      </trkpt>
      <trkpt lat="22.816290" lon="109.006605">
        <ele>109.673027</ele>
        <time>2026-08-14T07:52:20.000Z</time>
      </trkpt>
      <trkpt lat="22.816326" lon="109.006619">
        <ele>109.753775</ele>
        <time>2026-08-14T07:52:21.000Z</time>
      </trkpt>
      <trkpt lat="22.816366" lon="109.006635">
        <ele>109.843790</ele>
        <time>2026-08-14T07:52:22.000Z</time>
      </trkpt>
      <trkpt lat="22.816405" lon="109.006652">
        <ele>109.932534</ele>
        <time>2026-08-14T07:52:23.000Z</time>
      </trkpt>
      <trkpt lat="22.816446" lon="109.006668">
        <ele>110.024534</ele>
        <time>2026-08-14T07:52:24.000Z</time>
      </trkpt>
      <trkpt lat="22.816487" lon="109.006683">
        <ele>110.115893</ele>
        <time>2026-08-14T07:52:25.000Z</time>
      </trkpt>
      <trkpt lat="22.816532" lon="109.006698">
        <ele>110.215291</ele>
        <time>2026-08-14T07:52:26.000Z</time>
      </trkpt>
      <trkpt lat="22.816578" lon="109.006713">
        <ele>110.316710</ele>
        <time>2026-08-14T07:52:27.000Z</time>
      </trkpt>
      <trkpt lat="22.816623" lon="109.006729">
        <ele>110.416697</ele>
        <time>2026-08-14T07:52:28.000Z</time>
      </trkpt>
      <trkpt lat="22.816671" lon="109.006745">
        <ele>110.522722</ele>
        <time>2026-08-14T07:52:29.000Z</time>
      </trkpt>
      <trkpt lat="22.816719" lon="109.006762">
        <ele>110.629335</ele>
        <time>2026-08-14T07:52:30.000Z</time>
      </trkpt>
      <trkpt lat="22.816767" lon="109.006782">
        <ele>110.737902</ele>
        <time>2026-08-14T07:52:31.000Z</time>
      </trkpt>
      <trkpt lat="22.816814" lon="109.006801">
        <ele>110.843806</ele>
        <time>2026-08-14T07:52:32.000Z</time>
      </trkpt>
      <trkpt lat="22.816859" lon="109.006811">
        <ele>110.940793</ele>
        <time>2026-08-14T07:52:33.000Z</time>
      </trkpt>
      <trkpt lat="22.816905" lon="109.006828">
        <ele>111.040998</ele>
        <time>2026-08-14T07:52:34.000Z</time>
      </trkpt>
      <trkpt lat="22.816952" lon="109.006847">
        <ele>111.142834</ele>
        <time>2026-08-14T07:52:35.000Z</time>
      </trkpt>
      <trkpt lat="22.816999" lon="109.006867">
        <ele>111.245338</ele>
        <time>2026-08-14T07:52:36.000Z</time>
      </trkpt>
      <trkpt lat="22.817045" lon="109.006887">
        <ele>111.345955</ele>
        <time>2026-08-14T07:52:37.000Z</time>
      </trkpt>
      <trkpt lat="22.817094" lon="109.006905">
        <ele>111.450990</ele>
        <time>2026-08-14T07:52:38.000Z</time>
      </trkpt>
      <trkpt lat="22.817141" lon="109.006922">
        <ele>111.551580</ele>
        <time>2026-08-14T07:52:39.000Z</time>
      </trkpt>
      <trkpt lat="22.817187" lon="109.006939">
        <ele>111.650246</ele>
        <time>2026-08-14T07:52:40.000Z</time>
      </trkpt>
      <trkpt lat="22.817230" lon="109.006956">
        <ele>111.743168</ele>
        <time>2026-08-14T07:52:41.000Z</time>
      </trkpt>
      <trkpt lat="22.817272" lon="109.006974">
        <ele>111.834855</ele>
        <time>2026-08-14T07:52:42.000Z</time>
      </trkpt>
      <trkpt lat="22.817315" lon="109.006990">
        <ele>111.927152</ele>
        <time>2026-08-14T07:52:43.000Z</time>
      </trkpt>
      <trkpt lat="22.817357" lon="109.007006">
        <ele>112.017531</ele>
        <time>2026-08-14T07:52:44.000Z</time>
      </trkpt>
      <trkpt lat="22.817400" lon="109.007023">
        <ele>112.110452</ele>
        <time>2026-08-14T07:52:45.000Z</time>
      </trkpt>
      <trkpt lat="22.817439" lon="109.007039">
        <ele>112.195108</ele>
        <time>2026-08-14T07:52:46.000Z</time>
      </trkpt>
      <trkpt lat="22.817477" lon="109.007054">
        <ele>112.277209</ele>
        <time>2026-08-14T07:52:47.000Z</time>
      </trkpt>
      <trkpt lat="22.817518" lon="109.007068">
        <ele>112.364479</ele>
        <time>2026-08-14T07:52:48.000Z</time>
      </trkpt>
      <trkpt lat="22.817559" lon="109.007082">
        <ele>112.451749</ele>
        <time>2026-08-14T07:52:49.000Z</time>
      </trkpt>
      <trkpt lat="22.817601" lon="109.007096">
        <ele>112.540958</ele>
        <time>2026-08-14T07:52:50.000Z</time>
      </trkpt>
      <trkpt lat="22.817641" lon="109.007111">
        <ele>112.626887</ele>
        <time>2026-08-14T07:52:51.000Z</time>
      </trkpt>
      <trkpt lat="22.817682" lon="109.007128">
        <ele>112.716003</ele>
        <time>2026-08-14T07:52:52.000Z</time>
      </trkpt>
      <trkpt lat="22.817727" lon="109.007149">
        <ele>112.815463</ele>
        <time>2026-08-14T07:52:53.000Z</time>
      </trkpt>
      <trkpt lat="22.817773" lon="109.007170">
        <ele>112.916791</ele>
        <time>2026-08-14T07:52:54.000Z</time>
      </trkpt>
      <trkpt lat="22.817817" lon="109.007187">
        <ele>113.011622</ele>
        <time>2026-08-14T07:52:55.000Z</time>
      </trkpt>
      <trkpt lat="22.817861" lon="109.007205">
        <ele>113.107097</ele>
        <time>2026-08-14T07:52:56.000Z</time>
      </trkpt>
      <trkpt lat="22.817906" lon="109.007221">
        <ele>113.203245</ele>
        <time>2026-08-14T07:52:57.000Z</time>
      </trkpt>
      <trkpt lat="22.817950" lon="109.007237">
        <ele>113.297464</ele>
        <time>2026-08-14T07:52:58.000Z</time>
      </trkpt>
      <trkpt lat="22.817995" lon="109.007253">
        <ele>113.393612</ele>
        <time>2026-08-14T07:52:59.000Z</time>
      </trkpt>
      <trkpt lat="22.818038" lon="109.007272">
        <ele>113.487880</ele>
        <time>2026-08-14T07:53:00.000Z</time>
      </trkpt>
      <trkpt lat="22.818079" lon="109.007290">
        <ele>113.577682</ele>
        <time>2026-08-14T07:53:01.000Z</time>
      </trkpt>
      <trkpt lat="22.818119" lon="109.007306">
        <ele>113.664240</ele>
        <time>2026-08-14T07:53:02.000Z</time>
      </trkpt>
      <trkpt lat="22.818154" lon="109.007320">
        <ele>113.739978</ele>
        <time>2026-08-14T07:53:03.000Z</time>
      </trkpt>
      <trkpt lat="22.818187" lon="109.007334">
        <ele>113.811920</ele>
        <time>2026-08-14T07:53:04.000Z</time>
      </trkpt>
      <trkpt lat="22.818228" lon="109.007350">
        <ele>113.900386</ele>
        <time>2026-08-14T07:53:05.000Z</time>
      </trkpt>
      <trkpt lat="22.818267" lon="109.007367">
        <ele>113.985721</ele>
        <time>2026-08-14T07:53:06.000Z</time>
      </trkpt>
      <trkpt lat="22.818306" lon="109.007384">
        <ele>114.071057</ele>
        <time>2026-08-14T07:53:07.000Z</time>
      </trkpt>
      <trkpt lat="22.818344" lon="109.007401">
        <ele>114.154512</ele>
        <time>2026-08-14T07:53:08.000Z</time>
      </trkpt>
      <trkpt lat="22.818383" lon="109.007415">
        <ele>114.237918</ele>
        <time>2026-08-14T07:53:09.000Z</time>
      </trkpt>
      <trkpt lat="22.818419" lon="109.007429">
        <ele>114.315564</ele>
        <time>2026-08-14T07:53:10.000Z</time>
      </trkpt>
      <trkpt lat="22.818452" lon="109.007446">
        <ele>114.389736</ele>
        <time>2026-08-14T07:53:11.000Z</time>
      </trkpt>
      <trkpt lat="22.818485" lon="109.007460">
        <ele>114.461678</ele>
        <time>2026-08-14T07:53:12.000Z</time>
      </trkpt>
      <trkpt lat="22.818517" lon="109.007472">
        <ele>114.530420</ele>
        <time>2026-08-14T07:53:13.000Z</time>
      </trkpt>
      <trkpt lat="22.818546" lon="109.007487">
        <ele>114.595650</ele>
        <time>2026-08-14T07:53:14.000Z</time>
      </trkpt>
      <trkpt lat="22.818576" lon="109.007501">
        <ele>114.666799</ele>
        <time>2026-08-14T07:53:15.000Z</time>
      </trkpt>
      <trkpt lat="22.818609" lon="109.007513">
        <ele>114.749172</ele>
        <time>2026-08-14T07:53:16.000Z</time>
      </trkpt>
      <trkpt lat="22.818643" lon="109.007523">
        <ele>114.832546</ele>
        <time>2026-08-14T07:53:17.000Z</time>
      </trkpt>
      <trkpt lat="22.818675" lon="109.007534">
        <ele>114.911993</ele>
        <time>2026-08-14T07:53:18.000Z</time>
      </trkpt>
      <trkpt lat="22.818707" lon="109.007546">
        <ele>114.992126</ele>
        <time>2026-08-14T07:53:19.000Z</time>
      </trkpt>
      <trkpt lat="22.818739" lon="109.007560">
        <ele>115.073788</ele>
        <time>2026-08-14T07:53:20.000Z</time>
      </trkpt>
      <trkpt lat="22.818773" lon="109.007573">
        <ele>115.159108</ele>
        <time>2026-08-14T07:53:21.000Z</time>
      </trkpt>
      <trkpt lat="22.818808" lon="109.007585">
        <ele>115.245982</ele>
        <time>2026-08-14T07:53:22.000Z</time>
      </trkpt>
      <trkpt lat="22.818843" lon="109.007596">
        <ele>115.332224</ele>
        <time>2026-08-14T07:53:23.000Z</time>
      </trkpt>
      <trkpt lat="22.818878" lon="109.007607">
        <ele>115.418466</ele>
        <time>2026-08-14T07:53:24.000Z</time>
      </trkpt>
      <trkpt lat="22.818930" lon="109.007610">
        <ele>115.541711</ele>
        <time>2026-08-14T07:53:25.000Z</time>
      </trkpt>
      <trkpt lat="22.818967" lon="109.007624">
        <ele>115.634454</ele>
        <time>2026-08-14T07:53:26.000Z</time>
      </trkpt>
      <trkpt lat="22.818998" lon="109.007637">
        <ele>115.713113</ele>
        <time>2026-08-14T07:53:27.000Z</time>
      </trkpt>
      <trkpt lat="22.819028" lon="109.007649">
        <ele>115.788788</ele>
        <time>2026-08-14T07:53:28.000Z</time>
      </trkpt>
      <trkpt lat="22.819056" lon="109.007657">
        <ele>115.857316</ele>
        <time>2026-08-14T07:53:29.000Z</time>
      </trkpt>
      <trkpt lat="22.819083" lon="109.007664">
        <ele>115.923018</ele>
        <time>2026-08-14T07:53:30.000Z</time>
      </trkpt>
      <trkpt lat="22.819110" lon="109.007671">
        <ele>115.988719</ele>
        <time>2026-08-14T07:53:31.000Z</time>
      </trkpt>
      <trkpt lat="22.819135" lon="109.007679">
        <ele>116.050408</ele>
        <time>2026-08-14T07:53:32.000Z</time>
      </trkpt>
      <trkpt lat="22.819163" lon="109.007690">
        <ele>116.120888</ele>
        <time>2026-08-14T07:53:33.000Z</time>
      </trkpt>
      <trkpt lat="22.819188" lon="109.007700">
        <ele>116.183950</ele>
        <time>2026-08-14T07:53:34.000Z</time>
      </trkpt>
      <trkpt lat="22.819216" lon="109.007709">
        <ele>116.253066</ele>
        <time>2026-08-14T07:53:35.000Z</time>
      </trkpt>
      <trkpt lat="22.819245" lon="109.007718">
        <ele>116.324455</ele>
        <time>2026-08-14T07:53:36.000Z</time>
      </trkpt>
      <trkpt lat="22.819274" lon="109.007729">
        <ele>116.397164</ele>
        <time>2026-08-14T07:53:37.000Z</time>
      </trkpt>
      <trkpt lat="22.819302" lon="109.007738">
        <ele>116.466281</ele>
        <time>2026-08-14T07:53:38.000Z</time>
      </trkpt>
      <trkpt lat="22.819329" lon="109.007747">
        <ele>116.533131</ele>
        <time>2026-08-14T07:53:39.000Z</time>
      </trkpt>
      <trkpt lat="22.819358" lon="109.007757">
        <ele>116.605150</ele>
        <time>2026-08-14T07:53:40.000Z</time>
      </trkpt>
      <trkpt lat="22.819387" lon="109.007769">
        <ele>116.678609</ele>
        <time>2026-08-14T07:53:41.000Z</time>
      </trkpt>
      <trkpt lat="22.819417" lon="109.007778">
        <ele>116.752275</ele>
        <time>2026-08-14T07:53:42.000Z</time>
      </trkpt>
      <trkpt lat="22.819446" lon="109.007786">
        <ele>116.823095</ele>
        <time>2026-08-14T07:53:43.000Z</time>
      </trkpt>
      <trkpt lat="22.819476" lon="109.007798">
        <ele>116.898770</ele>
        <time>2026-08-14T07:53:44.000Z</time>
      </trkpt>
      <trkpt lat="22.819509" lon="109.007810">
        <ele>116.981143</ele>
        <time>2026-08-14T07:53:45.000Z</time>
      </trkpt>
      <trkpt lat="22.819543" lon="109.007823">
        <ele>117.066463</ele>
        <time>2026-08-14T07:53:46.000Z</time>
      </trkpt>
      <trkpt lat="22.819578" lon="109.007837">
        <ele>117.154750</ele>
        <time>2026-08-14T07:53:47.000Z</time>
      </trkpt>
      <trkpt lat="22.819615" lon="109.007848">
        <ele>117.245548</ele>
        <time>2026-08-14T07:53:48.000Z</time>
      </trkpt>
      <trkpt lat="22.819650" lon="109.007860">
        <ele>117.332422</ele>
        <time>2026-08-14T07:53:49.000Z</time>
      </trkpt>
      <trkpt lat="22.819684" lon="109.007873">
        <ele>117.417743</ele>
        <time>2026-08-14T07:53:50.000Z</time>
      </trkpt>
      <trkpt lat="22.819717" lon="109.007886">
        <ele>117.500835</ele>
        <time>2026-08-14T07:53:51.000Z</time>
      </trkpt>
      <trkpt lat="22.819750" lon="109.007898">
        <ele>117.583208</ele>
        <time>2026-08-14T07:53:52.000Z</time>
      </trkpt>
      <trkpt lat="22.819784" lon="109.007909">
        <ele>117.667179</ele>
        <time>2026-08-14T07:53:53.000Z</time>
      </trkpt>
      <trkpt lat="22.819818" lon="109.007920">
        <ele>117.751150</ele>
        <time>2026-08-14T07:53:54.000Z</time>
      </trkpt>
      <trkpt lat="22.819849" lon="109.007932">
        <ele>117.829050</ele>
        <time>2026-08-14T07:53:55.000Z</time>
      </trkpt>
      <trkpt lat="22.819881" lon="109.007944">
        <ele>117.909182</ele>
        <time>2026-08-14T07:53:56.000Z</time>
      </trkpt>
      <trkpt lat="22.819915" lon="109.007956">
        <ele>117.993803</ele>
        <time>2026-08-14T07:53:57.000Z</time>
      </trkpt>
      <trkpt lat="22.819948" lon="109.007969">
        <ele>118.076895</ele>
        <time>2026-08-14T07:53:58.000Z</time>
      </trkpt>
      <trkpt lat="22.819981" lon="109.007983">
        <ele>118.160756</ele>
        <time>2026-08-14T07:53:59.000Z</time>
      </trkpt>
      <trkpt lat="22.820013" lon="109.007998">
        <ele>118.243259</ele>
        <time>2026-08-14T07:54:00.000Z</time>
      </trkpt>
      <trkpt lat="22.820050" lon="109.008012">
        <ele>118.336002</ele>
        <time>2026-08-14T07:54:01.000Z</time>
      </trkpt>
      <trkpt lat="22.820084" lon="109.008026">
        <ele>118.422072</ele>
        <time>2026-08-14T07:54:02.000Z</time>
      </trkpt>
      <trkpt lat="22.820118" lon="109.008041">
        <ele>118.508940</ele>
        <time>2026-08-14T07:54:03.000Z</time>
      </trkpt>
      <trkpt lat="22.820153" lon="109.008056">
        <ele>118.598005</ele>
        <time>2026-08-14T07:54:04.000Z</time>
      </trkpt>
      <trkpt lat="22.820188" lon="109.008071">
        <ele>118.687070</ele>
        <time>2026-08-14T07:54:05.000Z</time>
      </trkpt>
      <trkpt lat="22.820223" lon="109.008086">
        <ele>118.776135</ele>
        <time>2026-08-14T07:54:06.000Z</time>
      </trkpt>
      <trkpt lat="22.820260" lon="109.008100">
        <ele>118.868878</ele>
        <time>2026-08-14T07:54:07.000Z</time>
      </trkpt>
      <trkpt lat="22.820296" lon="109.008114">
        <ele>118.870600</ele>
        <time>2026-08-14T07:54:08.000Z</time>
      </trkpt>
      <trkpt lat="22.820332" lon="109.008127">
        <ele>118.846054</ele>
        <time>2026-08-14T07:54:09.000Z</time>
      </trkpt>
      <trkpt lat="22.820370" lon="109.008142">
        <ele>118.819894</ele>
        <time>2026-08-14T07:54:10.000Z</time>
      </trkpt>
      <trkpt lat="22.820407" lon="109.008158">
        <ele>118.794126</ele>
        <time>2026-08-14T07:54:11.000Z</time>
      </trkpt>
      <trkpt lat="22.820445" lon="109.008174">
        <ele>118.767756</ele>
        <time>2026-08-14T07:54:12.000Z</time>
      </trkpt>
      <trkpt lat="22.820484" lon="109.008190">
        <ele>118.740782</ele>
        <time>2026-08-14T07:54:13.000Z</time>
      </trkpt>
      <trkpt lat="22.820523" lon="109.008205">
        <ele>118.714013</ele>
        <time>2026-08-14T07:54:14.000Z</time>
      </trkpt>
      <trkpt lat="22.820566" lon="109.008222">
        <ele>118.684405</ele>
        <time>2026-08-14T07:54:15.000Z</time>
      </trkpt>
      <trkpt lat="22.820611" lon="109.008241">
        <ele>118.653167</ele>
        <time>2026-08-14T07:54:16.000Z</time>
      </trkpt>
      <trkpt lat="22.820657" lon="109.008260">
        <ele>118.621324</ele>
        <time>2026-08-14T07:54:17.000Z</time>
      </trkpt>
      <trkpt lat="22.820703" lon="109.008280">
        <ele>118.589264</ele>
        <time>2026-08-14T07:54:18.000Z</time>
      </trkpt>
      <trkpt lat="22.820751" lon="109.008301">
        <ele>118.555782</ele>
        <time>2026-08-14T07:54:19.000Z</time>
      </trkpt>
      <trkpt lat="22.820799" lon="109.008322">
        <ele>118.522299</ele>
        <time>2026-08-14T07:54:20.000Z</time>
      </trkpt>
      <trkpt lat="22.820845" lon="109.008344">
        <ele>118.489777</ele>
        <time>2026-08-14T07:54:21.000Z</time>
      </trkpt>
      <trkpt lat="22.820891" lon="109.008368">
        <ele>118.456756</ele>
        <time>2026-08-14T07:54:22.000Z</time>
      </trkpt>
      <trkpt lat="22.820938" lon="109.008393">
        <ele>118.422892</ele>
        <time>2026-08-14T07:54:23.000Z</time>
      </trkpt>
      <trkpt lat="22.820988" lon="109.008419">
        <ele>118.387022</ele>
        <time>2026-08-14T07:54:24.000Z</time>
      </trkpt>
      <trkpt lat="22.821040" lon="109.008447">
        <ele>118.349466</ele>
        <time>2026-08-14T07:54:25.000Z</time>
      </trkpt>
      <trkpt lat="22.821091" lon="109.008476">
        <ele>118.312215</ele>
        <time>2026-08-14T07:54:26.000Z</time>
      </trkpt>
      <trkpt lat="22.821143" lon="109.008505">
        <ele>118.274390</ele>
        <time>2026-08-14T07:54:27.000Z</time>
      </trkpt>
      <trkpt lat="22.821196" lon="109.008534">
        <ele>118.235989</ele>
        <time>2026-08-14T07:54:28.000Z</time>
      </trkpt>
      <trkpt lat="22.821250" lon="109.008564">
        <ele>118.196741</ele>
        <time>2026-08-14T07:54:29.000Z</time>
      </trkpt>
      <trkpt lat="22.821304" lon="109.008595">
        <ele>118.157217</ele>
        <time>2026-08-14T07:54:30.000Z</time>
      </trkpt>
      <trkpt lat="22.821358" lon="109.008627">
        <ele>118.117411</ele>
        <time>2026-08-14T07:54:31.000Z</time>
      </trkpt>
      <trkpt lat="22.821411" lon="109.008658">
        <ele>118.078458</ele>
        <time>2026-08-14T07:54:32.000Z</time>
      </trkpt>
      <trkpt lat="22.821464" lon="109.008689">
        <ele>118.039505</ele>
        <time>2026-08-14T07:54:33.000Z</time>
      </trkpt>
      <trkpt lat="22.821516" lon="109.008721">
        <ele>118.000830</ele>
        <time>2026-08-14T07:54:34.000Z</time>
      </trkpt>
      <trkpt lat="22.821567" lon="109.008753">
        <ele>117.962716</ele>
        <time>2026-08-14T07:54:35.000Z</time>
      </trkpt>
      <trkpt lat="22.821618" lon="109.008784">
        <ele>117.924897</ele>
        <time>2026-08-14T07:54:36.000Z</time>
      </trkpt>
      <trkpt lat="22.821669" lon="109.008813">
        <ele>117.887646</ele>
        <time>2026-08-14T07:54:37.000Z</time>
      </trkpt>
      <trkpt lat="22.821716" lon="109.008842">
        <ele>117.852667</ele>
        <time>2026-08-14T07:54:38.000Z</time>
      </trkpt>
      <trkpt lat="22.821763" lon="109.008870">
        <ele>117.817979</ele>
        <time>2026-08-14T07:54:39.000Z</time>
      </trkpt>
      <trkpt lat="22.821811" lon="109.008897">
        <ele>117.783001</ele>
        <time>2026-08-14T07:54:40.000Z</time>
      </trkpt>
      <trkpt lat="22.821858" lon="109.008923">
        <ele>117.748870</ele>
        <time>2026-08-14T07:54:41.000Z</time>
      </trkpt>
      <trkpt lat="22.821904" lon="109.008950">
        <ele>117.704192</ele>
        <time>2026-08-14T07:54:42.000Z</time>
      </trkpt>
      <trkpt lat="22.821949" lon="109.008977">
        <ele>117.638192</ele>
        <time>2026-08-14T07:54:43.000Z</time>
      </trkpt>
      <trkpt lat="22.821991" lon="109.009002">
        <ele>117.576707</ele>
        <time>2026-08-14T07:54:44.000Z</time>
      </trkpt>
      <trkpt lat="22.822033" lon="109.009024">
        <ele>117.516848</ele>
        <time>2026-08-14T07:54:45.000Z</time>
      </trkpt>
      <trkpt lat="22.822075" lon="109.009044">
        <ele>117.457979</ele>
        <time>2026-08-14T07:54:46.000Z</time>
      </trkpt>
      <trkpt lat="22.822115" lon="109.009062">
        <ele>117.402399</ele>
        <time>2026-08-14T07:54:47.000Z</time>
      </trkpt>
      <trkpt lat="22.822152" lon="109.009079">
        <ele>117.350828</ele>
        <time>2026-08-14T07:54:48.000Z</time>
      </trkpt>
      <trkpt lat="22.822186" lon="109.009093">
        <ele>117.304154</ele>
        <time>2026-08-14T07:54:49.000Z</time>
      </trkpt>
      <trkpt lat="22.822222" lon="109.009104">
        <ele>117.256151</ele>
        <time>2026-08-14T07:54:50.000Z</time>
      </trkpt>
      <trkpt lat="22.822256" lon="109.009114">
        <ele>117.210939</ele>
        <time>2026-08-14T07:54:51.000Z</time>
      </trkpt>
      <trkpt lat="22.822291" lon="109.009125">
        <ele>117.164171</ele>
        <time>2026-08-14T07:54:52.000Z</time>
      </trkpt>
      <trkpt lat="22.822326" lon="109.009133">
        <ele>117.118263</ele>
        <time>2026-08-14T07:54:53.000Z</time>
      </trkpt>
      <trkpt lat="22.822362" lon="109.009141">
        <ele>117.071100</ele>
        <time>2026-08-14T07:54:54.000Z</time>
      </trkpt>
      <trkpt lat="22.822403" lon="109.009151">
        <ele>117.017164</ele>
        <time>2026-08-14T07:54:55.000Z</time>
      </trkpt>
      <trkpt lat="22.822444" lon="109.009161">
        <ele>116.963229</ele>
        <time>2026-08-14T07:54:56.000Z</time>
      </trkpt>
      <trkpt lat="22.822489" lon="109.009169">
        <ele>116.904703</ele>
        <time>2026-08-14T07:54:57.000Z</time>
      </trkpt>
      <trkpt lat="22.822536" lon="109.009177">
        <ele>116.843642</ele>
        <time>2026-08-14T07:54:58.000Z</time>
      </trkpt>
      <trkpt lat="22.822583" lon="109.009184">
        <ele>116.782754</ele>
        <time>2026-08-14T07:54:59.000Z</time>
      </trkpt>
      <trkpt lat="22.822634" lon="109.009187">
        <ele>116.717201</ele>
        <time>2026-08-14T07:55:00.000Z</time>
      </trkpt>
      <trkpt lat="22.822688" lon="109.009190">
        <ele>116.647804</ele>
        <time>2026-08-14T07:55:01.000Z</time>
      </trkpt>
      <trkpt lat="22.822745" lon="109.009193">
        <ele>116.574560</ele>
        <time>2026-08-14T07:55:02.000Z</time>
      </trkpt>
      <trkpt lat="22.822802" lon="109.009197">
        <ele>116.501250</ele>
        <time>2026-08-14T07:55:03.000Z</time>
      </trkpt>
      <trkpt lat="22.822862" lon="109.009203">
        <ele>116.423916</ele>
        <time>2026-08-14T07:55:04.000Z</time>
      </trkpt>
      <trkpt lat="22.822923" lon="109.009210">
        <ele>116.345188</ele>
        <time>2026-08-14T07:55:05.000Z</time>
      </trkpt>
      <trkpt lat="22.822986" lon="109.009217">
        <ele>116.263907</ele>
        <time>2026-08-14T07:55:06.000Z</time>
      </trkpt>
      <trkpt lat="22.823049" lon="109.009224">
        <ele>116.182626</ele>
        <time>2026-08-14T07:55:07.000Z</time>
      </trkpt>
      <trkpt lat="22.823113" lon="109.009228">
        <ele>116.100348</ele>
        <time>2026-08-14T07:55:08.000Z</time>
      </trkpt>
      <trkpt lat="22.823178" lon="109.009233">
        <ele>116.016714</ele>
        <time>2026-08-14T07:55:09.000Z</time>
      </trkpt>
      <trkpt lat="22.823245" lon="109.009241">
        <ele>115.930203</ele>
        <time>2026-08-14T07:55:10.000Z</time>
      </trkpt>
      <trkpt lat="22.823312" lon="109.009249">
        <ele>115.843691</ele>
        <time>2026-08-14T07:55:11.000Z</time>
      </trkpt>
      <trkpt lat="22.823376" lon="109.009257">
        <ele>115.761007</ele>
        <time>2026-08-14T07:55:12.000Z</time>
      </trkpt>
      <trkpt lat="22.823440" lon="109.009262">
        <ele>115.678652</ele>
        <time>2026-08-14T07:55:13.000Z</time>
      </trkpt>
      <trkpt lat="22.823505" lon="109.009268">
        <ele>115.594926</ele>
        <time>2026-08-14T07:55:14.000Z</time>
      </trkpt>
      <trkpt lat="22.823566" lon="109.009271">
        <ele>115.516554</ele>
        <time>2026-08-14T07:55:15.000Z</time>
      </trkpt>
      <trkpt lat="22.823627" lon="109.009274">
        <ele>115.438183</ele>
        <time>2026-08-14T07:55:16.000Z</time>
      </trkpt>
      <trkpt lat="22.823685" lon="109.009280">
        <ele>115.315081</ele>
        <time>2026-08-14T07:55:17.000Z</time>
      </trkpt>
      <trkpt lat="22.823743" lon="109.009284">
        <ele>115.173940</ele>
        <time>2026-08-14T07:55:18.000Z</time>
      </trkpt>
      <trkpt lat="22.823803" lon="109.009289">
        <ele>115.027798</ele>
        <time>2026-08-14T07:55:19.000Z</time>
      </trkpt>
      <trkpt lat="22.823862" lon="109.009295">
        <ele>114.883884</ele>
        <time>2026-08-14T07:55:20.000Z</time>
      </trkpt>
      <trkpt lat="22.823919" lon="109.009300">
        <ele>114.745005</ele>
        <time>2026-08-14T07:55:21.000Z</time>
      </trkpt>
      <trkpt lat="22.823977" lon="109.009304">
        <ele>114.603864</ele>
        <time>2026-08-14T07:55:22.000Z</time>
      </trkpt>
      <trkpt lat="22.824038" lon="109.009311">
        <ele>114.454895</ele>
        <time>2026-08-14T07:55:23.000Z</time>
      </trkpt>
      <trkpt lat="22.824094" lon="109.009314">
        <ele>114.318730</ele>
        <time>2026-08-14T07:55:24.000Z</time>
      </trkpt>
      <trkpt lat="22.824148" lon="109.009317">
        <ele>114.187416</ele>
        <time>2026-08-14T07:55:25.000Z</time>
      </trkpt>
      <trkpt lat="22.824201" lon="109.009320">
        <ele>114.058527</ele>
        <time>2026-08-14T07:55:26.000Z</time>
      </trkpt>
      <trkpt lat="22.824250" lon="109.009323">
        <ele>113.939338</ele>
        <time>2026-08-14T07:55:27.000Z</time>
      </trkpt>
      <trkpt lat="22.824300" lon="109.009324">
        <ele>113.817889</ele>
        <time>2026-08-14T07:55:28.000Z</time>
      </trkpt>
      <trkpt lat="22.824348" lon="109.009324">
        <ele>113.701318</ele>
        <time>2026-08-14T07:55:29.000Z</time>
      </trkpt>
      <trkpt lat="22.824393" lon="109.009324">
        <ele>113.592033</ele>
        <time>2026-08-14T07:55:30.000Z</time>
      </trkpt>
      <trkpt lat="22.824439" lon="109.009325">
        <ele>113.480297</ele>
        <time>2026-08-14T07:55:31.000Z</time>
      </trkpt>
      <trkpt lat="22.824484" lon="109.009326">
        <ele>113.370988</ele>
        <time>2026-08-14T07:55:32.000Z</time>
      </trkpt>
      <trkpt lat="22.824528" lon="109.009329">
        <ele>113.263921</ele>
        <time>2026-08-14T07:55:33.000Z</time>
      </trkpt>
      <trkpt lat="22.824574" lon="109.009333">
        <ele>113.151849</ele>
        <time>2026-08-14T07:55:34.000Z</time>
      </trkpt>
      <trkpt lat="22.824621" lon="109.009338">
        <ele>113.037159</ele>
        <time>2026-08-14T07:55:35.000Z</time>
      </trkpt>
      <trkpt lat="22.824671" lon="109.009344">
        <ele>112.914990</ele>
        <time>2026-08-14T07:55:36.000Z</time>
      </trkpt>
      <trkpt lat="22.824724" lon="109.009351">
        <ele>112.785326</ele>
        <time>2026-08-14T07:55:37.000Z</time>
      </trkpt>
      <trkpt lat="22.824777" lon="109.009359">
        <ele>112.655373</ele>
        <time>2026-08-14T07:55:38.000Z</time>
      </trkpt>
      <trkpt lat="22.824832" lon="109.009369">
        <ele>112.519939</ele>
        <time>2026-08-14T07:55:39.000Z</time>
      </trkpt>
      <trkpt lat="22.824890" lon="109.009378">
        <ele>112.377650</ele>
        <time>2026-08-14T07:55:40.000Z</time>
      </trkpt>
      <trkpt lat="22.824953" lon="109.009389">
        <ele>112.222682</ele>
        <time>2026-08-14T07:55:41.000Z</time>
      </trkpt>
      <trkpt lat="22.825016" lon="109.009399">
        <ele>112.068053</ele>
        <time>2026-08-14T07:55:42.000Z</time>
      </trkpt>
      <trkpt lat="22.825081" lon="109.009408">
        <ele>111.908917</ele>
        <time>2026-08-14T07:55:43.000Z</time>
      </trkpt>
      <trkpt lat="22.825151" lon="109.009419">
        <ele>111.737143</ele>
        <time>2026-08-14T07:55:44.000Z</time>
      </trkpt>
      <trkpt lat="22.825224" lon="109.009431">
        <ele>111.557835</ele>
        <time>2026-08-14T07:55:45.000Z</time>
      </trkpt>
      <trkpt lat="22.825299" lon="109.009445">
        <ele>111.373017</ele>
        <time>2026-08-14T07:55:46.000Z</time>
      </trkpt>
      <trkpt lat="22.825376" lon="109.009459">
        <ele>111.183410</ele>
        <time>2026-08-14T07:55:47.000Z</time>
      </trkpt>
      <trkpt lat="22.825457" lon="109.009475">
        <ele>111.014207</ele>
        <time>2026-08-14T07:55:48.000Z</time>
      </trkpt>
      <trkpt lat="22.825540" lon="109.009493">
        <ele>110.904424</ele>
        <time>2026-08-14T07:55:49.000Z</time>
      </trkpt>
      <trkpt lat="22.825624" lon="109.009512">
        <ele>110.793131</ele>
        <time>2026-08-14T07:55:50.000Z</time>
      </trkpt>
      <trkpt lat="22.825708" lon="109.009531">
        <ele>110.681837</ele>
        <time>2026-08-14T07:55:51.000Z</time>
      </trkpt>
      <trkpt lat="22.825793" lon="109.009551">
        <ele>110.569027</ele>
        <time>2026-08-14T07:55:52.000Z</time>
      </trkpt>
      <trkpt lat="22.825879" lon="109.009570">
        <ele>110.455193</ele>
        <time>2026-08-14T07:55:53.000Z</time>
      </trkpt>
      <trkpt lat="22.825962" lon="109.009590">
        <ele>110.344916</ele>
        <time>2026-08-14T07:55:54.000Z</time>
      </trkpt>
      <trkpt lat="22.826043" lon="109.009611">
        <ele>110.236898</ele>
        <time>2026-08-14T07:55:55.000Z</time>
      </trkpt>
      <trkpt lat="22.826121" lon="109.009634">
        <ele>110.132060</ele>
        <time>2026-08-14T07:55:56.000Z</time>
      </trkpt>
      <trkpt lat="22.826197" lon="109.009657">
        <ele>110.029722</ele>
        <time>2026-08-14T07:55:57.000Z</time>
      </trkpt>
      <trkpt lat="22.826268" lon="109.009683">
        <ele>109.932529</ele>
        <time>2026-08-14T07:55:58.000Z</time>
      </trkpt>
      <trkpt lat="22.826337" lon="109.009711">
        <ele>109.836978</ele>
        <time>2026-08-14T07:55:59.000Z</time>
      </trkpt>
      <trkpt lat="22.826406" lon="109.009740">
        <ele>109.741003</ele>
        <time>2026-08-14T07:56:00.000Z</time>
      </trkpt>
      <trkpt lat="22.826472" lon="109.009769">
        <ele>109.648645</ele>
        <time>2026-08-14T07:56:01.000Z</time>
      </trkpt>
      <trkpt lat="22.826532" lon="109.009798">
        <ele>109.563450</ele>
        <time>2026-08-14T07:56:02.000Z</time>
      </trkpt>
      <trkpt lat="22.826590" lon="109.009826">
        <ele>109.481111</ele>
        <time>2026-08-14T07:56:03.000Z</time>
      </trkpt>
      <trkpt lat="22.826644" lon="109.009854">
        <ele>109.403484</ele>
        <time>2026-08-14T07:56:04.000Z</time>
      </trkpt>
      <trkpt lat="22.826697" lon="109.009883">
        <ele>109.326494</ele>
        <time>2026-08-14T07:56:05.000Z</time>
      </trkpt>
      <trkpt lat="22.826748" lon="109.009910">
        <ele>109.252890</ele>
        <time>2026-08-14T07:56:06.000Z</time>
      </trkpt>
      <trkpt lat="22.826800" lon="109.009936">
        <ele>109.178627</ele>
        <time>2026-08-14T07:56:07.000Z</time>
      </trkpt>
      <trkpt lat="22.826851" lon="109.009961">
        <ele>109.106041</ele>
        <time>2026-08-14T07:56:08.000Z</time>
      </trkpt>
      <trkpt lat="22.826901" lon="109.009986">
        <ele>109.034634</ele>
        <time>2026-08-14T07:56:09.000Z</time>
      </trkpt>
      <trkpt lat="22.826952" lon="109.010012">
        <ele>108.961547</ele>
        <time>2026-08-14T07:56:10.000Z</time>
      </trkpt>
      <trkpt lat="22.827003" lon="109.010037">
        <ele>108.888960</ele>
        <time>2026-08-14T07:56:11.000Z</time>
      </trkpt>
      <trkpt lat="22.827054" lon="109.010061">
        <ele>108.816857</ele>
        <time>2026-08-14T07:56:12.000Z</time>
      </trkpt>
      <trkpt lat="22.827105" lon="109.010084">
        <ele>108.745221</ele>
        <time>2026-08-14T07:56:13.000Z</time>
      </trkpt>
      <trkpt lat="22.827157" lon="109.010107">
        <ele>108.648157</ele>
        <time>2026-08-14T07:56:14.000Z</time>
      </trkpt>
      <trkpt lat="22.827211" lon="109.010130">
        <ele>108.531631</ele>
        <time>2026-08-14T07:56:15.000Z</time>
      </trkpt>
      <trkpt lat="22.827265" lon="109.010153">
        <ele>108.415105</ele>
        <time>2026-08-14T07:56:16.000Z</time>
      </trkpt>
      <trkpt lat="22.827318" lon="109.010176">
        <ele>108.300447</ele>
        <time>2026-08-14T07:56:17.000Z</time>
      </trkpt>
      <trkpt lat="22.827370" lon="109.010202">
        <ele>108.185439</ele>
        <time>2026-08-14T07:56:18.000Z</time>
      </trkpt>
      <trkpt lat="22.827423" lon="109.010230">
        <ele>108.067030</ele>
        <time>2026-08-14T07:56:19.000Z</time>
      </trkpt>
      <trkpt lat="22.827472" lon="109.010259">
        <ele>107.954915</ele>
        <time>2026-08-14T07:56:20.000Z</time>
      </trkpt>
      <trkpt lat="22.827519" lon="109.010290">
        <ele>107.844433</ele>
        <time>2026-08-14T07:56:21.000Z</time>
      </trkpt>
      <trkpt lat="22.827567" lon="109.010323">
        <ele>107.730290</ele>
        <time>2026-08-14T07:56:22.000Z</time>
      </trkpt>
      <trkpt lat="22.827614" lon="109.010355">
        <ele>107.618835</ele>
        <time>2026-08-14T07:56:23.000Z</time>
      </trkpt>
      <trkpt lat="22.827662" lon="109.010386">
        <ele>107.506631</ele>
        <time>2026-08-14T07:56:24.000Z</time>
      </trkpt>
      <trkpt lat="22.827709" lon="109.010417">
        <ele>107.396148</ele>
        <time>2026-08-14T07:56:25.000Z</time>
      </trkpt>
      <trkpt lat="22.827758" lon="109.010448">
        <ele>107.282214</ele>
        <time>2026-08-14T07:56:26.000Z</time>
      </trkpt>
      <trkpt lat="22.827808" lon="109.010479">
        <ele>107.166540</ele>
        <time>2026-08-14T07:56:27.000Z</time>
      </trkpt>
      <trkpt lat="22.827860" lon="109.010510">
        <ele>107.047361</ele>
        <time>2026-08-14T07:56:28.000Z</time>
      </trkpt>
      <trkpt lat="22.827910" lon="109.010543">
        <ele>106.929806</ele>
        <time>2026-08-14T07:56:29.000Z</time>
      </trkpt>
      <trkpt lat="22.827962" lon="109.010577">
        <ele>106.807855</ele>
        <time>2026-08-14T07:56:30.000Z</time>
      </trkpt>
      <trkpt lat="22.828013" lon="109.010613">
        <ele>106.685642</ele>
        <time>2026-08-14T07:56:31.000Z</time>
      </trkpt>
      <trkpt lat="22.828066" lon="109.010650">
        <ele>106.559049</ele>
        <time>2026-08-14T07:56:32.000Z</time>
      </trkpt>
      <trkpt lat="22.828119" lon="109.010688">
        <ele>106.431446</ele>
        <time>2026-08-14T07:56:33.000Z</time>
      </trkpt>
      <trkpt lat="22.828173" lon="109.010725">
        <ele>106.303160</ele>
        <time>2026-08-14T07:56:34.000Z</time>
      </trkpt>
      <trkpt lat="22.828226" lon="109.010764">
        <ele>106.174526</ele>
        <time>2026-08-14T07:56:35.000Z</time>
      </trkpt>
      <trkpt lat="22.828279" lon="109.010806">
        <ele>106.042695</ele>
        <time>2026-08-14T07:56:36.000Z</time>
      </trkpt>
      <trkpt lat="22.828330" lon="109.010849">
        <ele>105.912959</ele>
        <time>2026-08-14T07:56:37.000Z</time>
      </trkpt>
      <trkpt lat="22.828381" lon="109.010894">
        <ele>105.780918</ele>
        <time>2026-08-14T07:56:38.000Z</time>
      </trkpt>
      <trkpt lat="22.828429" lon="109.010941">
        <ele>105.651045</ele>
        <time>2026-08-14T07:56:39.000Z</time>
      </trkpt>
      <trkpt lat="22.828475" lon="109.010991">
        <ele>105.520256</ele>
        <time>2026-08-14T07:56:40.000Z</time>
      </trkpt>
      <trkpt lat="22.828522" lon="109.011042">
        <ele>105.386737</ele>
        <time>2026-08-14T07:56:41.000Z</time>
      </trkpt>
      <trkpt lat="22.828568" lon="109.011093">
        <ele>105.254631</ele>
        <time>2026-08-14T07:56:42.000Z</time>
      </trkpt>
      <trkpt lat="22.828614" lon="109.011144">
        <ele>105.122524</ele>
        <time>2026-08-14T07:56:43.000Z</time>
      </trkpt>
      <trkpt lat="22.828660" lon="109.011196">
        <ele>104.934330</ele>
        <time>2026-08-14T07:56:44.000Z</time>
      </trkpt>
      <trkpt lat="22.828707" lon="109.011248">
        <ele>104.735068</ele>
        <time>2026-08-14T07:56:45.000Z</time>
      </trkpt>
      <trkpt lat="22.828754" lon="109.011300">
        <ele>104.535806</ele>
        <time>2026-08-14T07:56:46.000Z</time>
      </trkpt>
      <trkpt lat="22.828803" lon="109.011355">
        <ele>104.326522</ele>
        <time>2026-08-14T07:56:47.000Z</time>
      </trkpt>
      <trkpt lat="22.828853" lon="109.011410">
        <ele>104.115165</ele>
        <time>2026-08-14T07:56:48.000Z</time>
      </trkpt>
      <trkpt lat="22.828903" lon="109.011467">
        <ele>103.899877</ele>
        <time>2026-08-14T07:56:49.000Z</time>
      </trkpt>
      <trkpt lat="22.828952" lon="109.011525">
        <ele>103.684616</ele>
        <time>2026-08-14T07:56:50.000Z</time>
      </trkpt>
      <trkpt lat="22.829003" lon="109.011584">
        <ele>103.463313</ele>
        <time>2026-08-14T07:56:51.000Z</time>
      </trkpt>
      <trkpt lat="22.829059" lon="109.011642">
        <ele>103.233500</ele>
        <time>2026-08-14T07:56:52.000Z</time>
      </trkpt>
      <trkpt lat="22.829115" lon="109.011702">
        <ele>102.999876</ele>
        <time>2026-08-14T07:56:53.000Z</time>
      </trkpt>
      <trkpt lat="22.829171" lon="109.011763">
        <ele>102.764321</ele>
        <time>2026-08-14T07:56:54.000Z</time>
      </trkpt>
      <trkpt lat="22.829229" lon="109.011823">
        <ele>102.526436</ele>
        <time>2026-08-14T07:56:55.000Z</time>
      </trkpt>
      <trkpt lat="22.829290" lon="109.011883">
        <ele>102.282029</ele>
        <time>2026-08-14T07:56:56.000Z</time>
      </trkpt>
      <trkpt lat="22.829352" lon="109.011941">
        <ele>102.039022</ele>
        <time>2026-08-14T07:56:57.000Z</time>
      </trkpt>
      <trkpt lat="22.829414" lon="109.011996">
        <ele>101.801294</ele>
        <time>2026-08-14T07:56:58.000Z</time>
      </trkpt>
      <trkpt lat="22.829478" lon="109.012051">
        <ele>101.558940</ele>
        <time>2026-08-14T07:56:59.000Z</time>
      </trkpt>
      <trkpt lat="22.829540" lon="109.012104">
        <ele>101.324637</ele>
        <time>2026-08-14T07:57:00.000Z</time>
      </trkpt>
      <trkpt lat="22.829599" lon="109.012157">
        <ele>101.097262</ele>
        <time>2026-08-14T07:57:01.000Z</time>
      </trkpt>
      <trkpt lat="22.829655" lon="109.012208">
        <ele>100.880231</ele>
        <time>2026-08-14T07:57:02.000Z</time>
      </trkpt>
      <trkpt lat="22.829712" lon="109.012257">
        <ele>100.664359</ele>
        <time>2026-08-14T07:57:03.000Z</time>
      </trkpt>
      <trkpt lat="22.829767" lon="109.012303">
        <ele>100.458218</ele>
        <time>2026-08-14T07:57:04.000Z</time>
      </trkpt>
      <trkpt lat="22.829822" lon="109.012348">
        <ele>100.253736</ele>
        <time>2026-08-14T07:57:05.000Z</time>
      </trkpt>
      <trkpt lat="22.829877" lon="109.012392">
        <ele>100.050890</ele>
        <time>2026-08-14T07:57:06.000Z</time>
      </trkpt>
      <trkpt lat="22.829933" lon="109.012436">
        <ele>99.845647</ele>
        <time>2026-08-14T07:57:07.000Z</time>
      </trkpt>
      <trkpt lat="22.829988" lon="109.012478">
        <ele>99.789248</ele>
        <time>2026-08-14T07:57:08.000Z</time>
      </trkpt>
      <trkpt lat="22.830045" lon="109.012521">
        <ele>99.832255</ele>
        <time>2026-08-14T07:57:09.000Z</time>
      </trkpt>
      <trkpt lat="22.830101" lon="109.012563">
        <ele>99.874428</ele>
        <time>2026-08-14T07:57:10.000Z</time>
      </trkpt>
      <trkpt lat="22.830155" lon="109.012607">
        <ele>99.916263</ele>
        <time>2026-08-14T07:57:11.000Z</time>
      </trkpt>
      <trkpt lat="22.830209" lon="109.012650">
        <ele>99.957758</ele>
        <time>2026-08-14T07:57:12.000Z</time>
      </trkpt>
      <trkpt lat="22.830264" lon="109.012691">
        <ele>99.999096</ele>
        <time>2026-08-14T07:57:13.000Z</time>
      </trkpt>
      <trkpt lat="22.830320" lon="109.012733">
        <ele>100.041269</ele>
        <time>2026-08-14T07:57:14.000Z</time>
      </trkpt>
      <trkpt lat="22.830376" lon="109.012773">
        <ele>100.082803</ele>
        <time>2026-08-14T07:57:15.000Z</time>
      </trkpt>
      <trkpt lat="22.830432" lon="109.012811">
        <ele>100.123720</ele>
        <time>2026-08-14T07:57:16.000Z</time>
      </trkpt>
      <trkpt lat="22.830486" lon="109.012849">
        <ele>100.163592</ele>
        <time>2026-08-14T07:57:17.000Z</time>
      </trkpt>
      <trkpt lat="22.830540" lon="109.012886">
        <ele>100.203156</ele>
        <time>2026-08-14T07:57:18.000Z</time>
      </trkpt>
      <trkpt lat="22.830593" lon="109.012923">
        <ele>100.242198</ele>
        <time>2026-08-14T07:57:19.000Z</time>
      </trkpt>
      <trkpt lat="22.830647" lon="109.012958">
        <ele>100.281165</ele>
        <time>2026-08-14T07:57:20.000Z</time>
      </trkpt>
      <trkpt lat="22.830699" lon="109.012992">
        <ele>100.318775</ele>
        <time>2026-08-14T07:57:21.000Z</time>
      </trkpt>
      <trkpt lat="22.830750" lon="109.013027">
        <ele>100.356158</ele>
        <time>2026-08-14T07:57:22.000Z</time>
      </trkpt>
      <trkpt lat="22.830800" lon="109.013061">
        <ele>100.392713</ele>
        <time>2026-08-14T07:57:23.000Z</time>
      </trkpt>
      <trkpt lat="22.830849" lon="109.013094">
        <ele>100.428440</ele>
        <time>2026-08-14T07:57:24.000Z</time>
      </trkpt>
      <trkpt lat="22.830898" lon="109.013128">
        <ele>100.464472</ele>
        <time>2026-08-14T07:57:25.000Z</time>
      </trkpt>
      <trkpt lat="22.830945" lon="109.013159">
        <ele>100.498545</ele>
        <time>2026-08-14T07:57:26.000Z</time>
      </trkpt>
      <trkpt lat="22.830993" lon="109.013191">
        <ele>100.533445</ele>
        <time>2026-08-14T07:57:27.000Z</time>
      </trkpt>
      <trkpt lat="22.831040" lon="109.013221">
        <ele>100.567226</ele>
        <time>2026-08-14T07:57:28.000Z</time>
      </trkpt>
      <trkpt lat="22.831085" lon="109.013252">
        <ele>100.600247</ele>
        <time>2026-08-14T07:57:29.000Z</time>
      </trkpt>
      <trkpt lat="22.831130" lon="109.013284">
        <ele>100.633577</ele>
        <time>2026-08-14T07:57:30.000Z</time>
      </trkpt>
      <trkpt lat="22.831174" lon="109.013314">
        <ele>100.665770</ele>
        <time>2026-08-14T07:57:31.000Z</time>
      </trkpt>
      <trkpt lat="22.831219" lon="109.013344">
        <ele>100.698488</ele>
        <time>2026-08-14T07:57:32.000Z</time>
      </trkpt>
      <trkpt lat="22.831261" lon="109.013373">
        <ele>100.729329</ele>
        <time>2026-08-14T07:57:33.000Z</time>
      </trkpt>
      <trkpt lat="22.831298" lon="109.013399">
        <ele>100.756637</ele>
        <time>2026-08-14T07:57:34.000Z</time>
      </trkpt>
      <trkpt lat="22.831332" lon="109.013423">
        <ele>100.781764</ele>
        <time>2026-08-14T07:57:35.000Z</time>
      </trkpt>
      <trkpt lat="22.831366" lon="109.013445">
        <ele>100.806288</ele>
        <time>2026-08-14T07:57:36.000Z</time>
      </trkpt>
      <trkpt lat="22.831398" lon="109.013464">
        <ele>100.828886</ele>
        <time>2026-08-14T07:57:37.000Z</time>
      </trkpt>
      <trkpt lat="22.831426" lon="109.013485">
        <ele>100.849972</ele>
        <time>2026-08-14T07:57:38.000Z</time>
      </trkpt>
      <trkpt lat="22.831453" lon="109.013506">
        <ele>100.870552</ele>
        <time>2026-08-14T07:57:39.000Z</time>
      </trkpt>
      <trkpt lat="22.831477" lon="109.013528">
        <ele>100.914822</ele>
        <time>2026-08-14T07:57:40.000Z</time>
      </trkpt>
      <trkpt lat="22.831502" lon="109.013548">
        <ele>100.976441</ele>
        <time>2026-08-14T07:57:41.000Z</time>
      </trkpt>
      <trkpt lat="22.831527" lon="109.013569">
        <ele>101.039162</ele>
        <time>2026-08-14T07:57:42.000Z</time>
      </trkpt>
      <trkpt lat="22.831548" lon="109.013588">
        <ele>101.093406</ele>
        <time>2026-08-14T07:57:43.000Z</time>
      </trkpt>
      <trkpt lat="22.831567" lon="109.013608">
        <ele>101.145921</ele>
        <time>2026-08-14T07:57:44.000Z</time>
      </trkpt>
      <trkpt lat="22.831587" lon="109.013629">
        <ele>101.201134</ele>
        <time>2026-08-14T07:57:45.000Z</time>
      </trkpt>
      <trkpt lat="22.831606" lon="109.013649">
        <ele>101.253650</ele>
        <time>2026-08-14T07:57:46.000Z</time>
      </trkpt>
      <trkpt lat="22.831625" lon="109.013671">
        <ele>101.308774</ele>
        <time>2026-08-14T07:57:47.000Z</time>
      </trkpt>
      <trkpt lat="22.831643" lon="109.013695">
        <ele>101.365349</ele>
        <time>2026-08-14T07:57:48.000Z</time>
      </trkpt>
      <trkpt lat="22.831661" lon="109.013719">
        <ele>101.421923</ele>
        <time>2026-08-14T07:57:49.000Z</time>
      </trkpt>
      <trkpt lat="22.831676" lon="109.013744">
        <ele>101.476465</ele>
        <time>2026-08-14T07:57:50.000Z</time>
      </trkpt>
      <trkpt lat="22.831693" lon="109.013772">
        <ele>101.537769</ele>
        <time>2026-08-14T07:57:51.000Z</time>
      </trkpt>
      <trkpt lat="22.831710" lon="109.013800">
        <ele>101.599074</ele>
        <time>2026-08-14T07:57:52.000Z</time>
      </trkpt>
      <trkpt lat="22.831731" lon="109.013829">
        <ele>101.666505</ele>
        <time>2026-08-14T07:57:53.000Z</time>
      </trkpt>
      <trkpt lat="22.831750" lon="109.013858">
        <ele>101.731560</ele>
        <time>2026-08-14T07:57:54.000Z</time>
      </trkpt>
      <trkpt lat="22.831771" lon="109.013888">
        <ele>101.800439</ele>
        <time>2026-08-14T07:57:55.000Z</time>
      </trkpt>
      <trkpt lat="22.831793" lon="109.013920">
        <ele>101.873432</ele>
        <time>2026-08-14T07:57:56.000Z</time>
      </trkpt>
      <trkpt lat="22.831817" lon="109.013952">
        <ele>101.948864</ele>
        <time>2026-08-14T07:57:57.000Z</time>
      </trkpt>
      <trkpt lat="22.831840" lon="109.013984">
        <ele>102.023060</ele>
        <time>2026-08-14T07:57:58.000Z</time>
      </trkpt>
      <trkpt lat="22.831863" lon="109.014015">
        <ele>102.095823</ele>
        <time>2026-08-14T07:57:59.000Z</time>
      </trkpt>
      <trkpt lat="22.831889" lon="109.014046">
        <ele>102.172458</ele>
        <time>2026-08-14T07:58:00.000Z</time>
      </trkpt>
      <trkpt lat="22.831914" lon="109.014076">
        <ele>102.246407</ele>
        <time>2026-08-14T07:58:01.000Z</time>
      </trkpt>
      <trkpt lat="22.831940" lon="109.014106">
        <ele>102.321700</ele>
        <time>2026-08-14T07:58:02.000Z</time>
      </trkpt>
      <trkpt lat="22.831965" lon="109.014137">
        <ele>102.397014</ele>
        <time>2026-08-14T07:58:03.000Z</time>
      </trkpt>
      <trkpt lat="22.831990" lon="109.014166">
        <ele>102.469617</ele>
        <time>2026-08-14T07:58:04.000Z</time>
      </trkpt>
      <trkpt lat="22.832016" lon="109.014195">
        <ele>102.543588</ele>
        <time>2026-08-14T07:58:05.000Z</time>
      </trkpt>
      <trkpt lat="22.832044" lon="109.014222">
        <ele>102.617901</ele>
        <time>2026-08-14T07:58:06.000Z</time>
      </trkpt>
      <trkpt lat="22.832071" lon="109.014250">
        <ele>102.691995</ele>
        <time>2026-08-14T07:58:07.000Z</time>
      </trkpt>
      <trkpt lat="22.832099" lon="109.014279">
        <ele>102.768786</ele>
        <time>2026-08-14T07:58:08.000Z</time>
      </trkpt>
      <trkpt lat="22.832128" lon="109.014307">
        <ele>102.845797</ele>
        <time>2026-08-14T07:58:09.000Z</time>
      </trkpt>
      <trkpt lat="22.832155" lon="109.014337">
        <ele>102.922462</ele>
        <time>2026-08-14T07:58:10.000Z</time>
      </trkpt>
      <trkpt lat="22.832184" lon="109.014366">
        <ele>103.000700</ele>
        <time>2026-08-14T07:58:11.000Z</time>
      </trkpt>
      <trkpt lat="22.832212" lon="109.014394">
        <ele>103.076240</ele>
        <time>2026-08-14T07:58:12.000Z</time>
      </trkpt>
      <trkpt lat="22.832240" lon="109.014421">
        <ele>103.150553</ele>
        <time>2026-08-14T07:58:13.000Z</time>
      </trkpt>
      <trkpt lat="22.832268" lon="109.014448">
        <ele>103.224866</ele>
        <time>2026-08-14T07:58:14.000Z</time>
      </trkpt>
      <trkpt lat="22.832296" lon="109.014475">
        <ele>103.299179</ele>
        <time>2026-08-14T07:58:15.000Z</time>
      </trkpt>
      <trkpt lat="22.832323" lon="109.014502">
        <ele>103.372022</ele>
        <time>2026-08-14T07:58:16.000Z</time>
      </trkpt>
      <trkpt lat="22.832352" lon="109.014530">
        <ele>103.449032</ele>
        <time>2026-08-14T07:58:17.000Z</time>
      </trkpt>
      <trkpt lat="22.832380" lon="109.014558">
        <ele>103.524572</ele>
        <time>2026-08-14T07:58:18.000Z</time>
      </trkpt>
      <trkpt lat="22.832408" lon="109.014587">
        <ele>103.601363</ele>
        <time>2026-08-14T07:58:19.000Z</time>
      </trkpt>
      <trkpt lat="22.832437" lon="109.014615">
        <ele>103.678373</ele>
        <time>2026-08-14T07:58:20.000Z</time>
      </trkpt>
      <trkpt lat="22.832466" lon="109.014642">
        <ele>103.754181</ele>
        <time>2026-08-14T07:58:21.000Z</time>
      </trkpt>
      <trkpt lat="22.832495" lon="109.014670">
        <ele>103.831191</ele>
        <time>2026-08-14T07:58:22.000Z</time>
      </trkpt>
      <trkpt lat="22.832521" lon="109.014697">
        <ele>103.902587</ele>
        <time>2026-08-14T07:58:23.000Z</time>
      </trkpt>
      <trkpt lat="22.832548" lon="109.014723">
        <ele>103.974203</ele>
        <time>2026-08-14T07:58:24.000Z</time>
      </trkpt>
      <trkpt lat="22.832574" lon="109.014749">
        <ele>104.044347</ele>
        <time>2026-08-14T07:58:25.000Z</time>
      </trkpt>
      <trkpt lat="22.832599" lon="109.014775">
        <ele>104.113046</ele>
        <time>2026-08-14T07:58:26.000Z</time>
      </trkpt>
      <trkpt lat="22.832623" lon="109.014802">
        <ele>104.181630</ele>
        <time>2026-08-14T07:58:27.000Z</time>
      </trkpt>
      <trkpt lat="22.832650" lon="109.014826">
        <ele>104.250872</ele>
        <time>2026-08-14T07:58:28.000Z</time>
      </trkpt>
      <trkpt lat="22.832678" lon="109.014850">
        <ele>104.321661</ele>
        <time>2026-08-14T07:58:29.000Z</time>
      </trkpt>
      <trkpt lat="22.832707" lon="109.014875">
        <ele>104.395139</ele>
        <time>2026-08-14T07:58:30.000Z</time>
      </trkpt>
      <trkpt lat="22.832734" lon="109.014900">
        <ele>104.474722</ele>
        <time>2026-08-14T07:58:31.000Z</time>
      </trkpt>
      <trkpt lat="22.832761" lon="109.014924">
        <ele>104.578030</ele>
        <time>2026-08-14T07:58:32.000Z</time>
      </trkpt>
      <trkpt lat="22.832789" lon="109.014949">
        <ele>104.685356</ele>
        <time>2026-08-14T07:58:33.000Z</time>
      </trkpt>
      <trkpt lat="22.832816" lon="109.014975">
        <ele>104.792205</ele>
        <time>2026-08-14T07:58:34.000Z</time>
      </trkpt>
      <trkpt lat="22.832842" lon="109.015001">
        <ele>104.896858</ele>
        <time>2026-08-14T07:58:35.000Z</time>
      </trkpt>
      <trkpt lat="22.832868" lon="109.015026">
        <ele>104.999682</ele>
        <time>2026-08-14T07:58:36.000Z</time>
      </trkpt>
      <trkpt lat="22.832895" lon="109.015050">
        <ele>105.102990</ele>
        <time>2026-08-14T07:58:37.000Z</time>
      </trkpt>
      <trkpt lat="22.832922" lon="109.015073">
        <ele>105.204591</ele>
        <time>2026-08-14T07:58:38.000Z</time>
      </trkpt>
      <trkpt lat="22.832949" lon="109.015098">
        <ele>105.309649</ele>
        <time>2026-08-14T07:58:39.000Z</time>
      </trkpt>
      <trkpt lat="22.832976" lon="109.015121">
        <ele>105.411249</ele>
        <time>2026-08-14T07:58:40.000Z</time>
      </trkpt>
      <trkpt lat="22.833003" lon="109.015145">
        <ele>105.514557</ele>
        <time>2026-08-14T07:58:41.000Z</time>
      </trkpt>
      <trkpt lat="22.833029" lon="109.015169">
        <ele>105.615593</ele>
        <time>2026-08-14T07:58:42.000Z</time>
      </trkpt>
      <trkpt lat="22.833055" lon="109.015194">
        <ele>105.718417</ele>
        <time>2026-08-14T07:58:43.000Z</time>
      </trkpt>
      <trkpt lat="22.833081" lon="109.015219">
        <ele>105.821241</ele>
        <time>2026-08-14T07:58:44.000Z</time>
      </trkpt>
      <trkpt lat="22.833105" lon="109.015242">
        <ele>105.916016</ele>
        <time>2026-08-14T07:58:45.000Z</time>
      </trkpt>
      <trkpt lat="22.833129" lon="109.015266">
        <ele>106.012619</ele>
        <time>2026-08-14T07:58:46.000Z</time>
      </trkpt>
      <trkpt lat="22.833152" lon="109.015288">
        <ele>106.103370</ele>
        <time>2026-08-14T07:58:47.000Z</time>
      </trkpt>
      <trkpt lat="22.833173" lon="109.015309">
        <ele>106.187898</ele>
        <time>2026-08-14T07:58:48.000Z</time>
      </trkpt>
      <trkpt lat="22.833194" lon="109.015330">
        <ele>106.272426</ele>
        <time>2026-08-14T07:58:49.000Z</time>
      </trkpt>
      <trkpt lat="22.833215" lon="109.015349">
        <ele>106.353355</ele>
        <time>2026-08-14T07:58:50.000Z</time>
      </trkpt>
      <trkpt lat="22.833233" lon="109.015368">
        <ele>106.427683</ele>
        <time>2026-08-14T07:58:51.000Z</time>
      </trkpt>
      <trkpt lat="22.833251" lon="109.015384">
        <ele>106.496555</ele>
        <time>2026-08-14T07:58:52.000Z</time>
      </trkpt>
      <trkpt lat="22.833268" lon="109.015400">
        <ele>106.563164</ele>
        <time>2026-08-14T07:58:53.000Z</time>
      </trkpt>
      <trkpt lat="22.833286" lon="109.015413">
        <ele>106.627163</ele>
        <time>2026-08-14T07:58:54.000Z</time>
      </trkpt>
      <trkpt lat="22.833304" lon="109.015426">
        <ele>106.691162</ele>
        <time>2026-08-14T07:58:55.000Z</time>
      </trkpt>
      <trkpt lat="22.833321" lon="109.015444">
        <ele>106.761467</ele>
        <time>2026-08-14T07:58:56.000Z</time>
      </trkpt>
      <trkpt lat="22.833338" lon="109.015462">
        <ele>106.831771</ele>
        <time>2026-08-14T07:58:57.000Z</time>
      </trkpt>
      <trkpt lat="22.833352" lon="109.015478">
        <ele>106.891954</ele>
        <time>2026-08-14T07:58:58.000Z</time>
      </trkpt>
      <trkpt lat="22.833369" lon="109.015494">
        <ele>106.958563</ele>
        <time>2026-08-14T07:58:59.000Z</time>
      </trkpt>
      <trkpt lat="22.833387" lon="109.015510">
        <ele>107.027434</ele>
        <time>2026-08-14T07:59:00.000Z</time>
      </trkpt>
      <trkpt lat="22.833404" lon="109.015527">
        <ele>107.095861</ele>
        <time>2026-08-14T07:59:01.000Z</time>
      </trkpt>
      <trkpt lat="22.833420" lon="109.015545">
        <ele>107.164079</ele>
        <time>2026-08-14T07:59:02.000Z</time>
      </trkpt>
      <trkpt lat="22.833437" lon="109.015563">
        <ele>107.234383</ele>
        <time>2026-08-14T07:59:03.000Z</time>
      </trkpt>
      <trkpt lat="22.833454" lon="109.015580">
        <ele>107.302810</ele>
        <time>2026-08-14T07:59:04.000Z</time>
      </trkpt>
      <trkpt lat="22.833470" lon="109.015597">
        <ele>107.369091</ele>
        <time>2026-08-14T07:59:05.000Z</time>
      </trkpt>
      <trkpt lat="22.833485" lon="109.015616">
        <ele>107.437336</ele>
        <time>2026-08-14T07:59:06.000Z</time>
      </trkpt>
      <trkpt lat="22.833501" lon="109.015634">
        <ele>107.505553</ele>
        <time>2026-08-14T07:59:07.000Z</time>
      </trkpt>
      <trkpt lat="22.833519" lon="109.015653">
        <ele>107.579881</ele>
        <time>2026-08-14T07:59:08.000Z</time>
      </trkpt>
      <trkpt lat="22.833537" lon="109.015671">
        <ele>107.652333</ele>
        <time>2026-08-14T07:59:09.000Z</time>
      </trkpt>
      <trkpt lat="22.833554" lon="109.015688">
        <ele>107.720760</ele>
        <time>2026-08-14T07:59:10.000Z</time>
      </trkpt>
      <trkpt lat="22.833573" lon="109.015704">
        <ele>107.791946</ele>
        <time>2026-08-14T07:59:11.000Z</time>
      </trkpt>
      <trkpt lat="22.833593" lon="109.015721">
        <ele>107.867143</ele>
        <time>2026-08-14T07:59:12.000Z</time>
      </trkpt>
      <trkpt lat="22.833612" lon="109.015738">
        <ele>107.940034</ele>
        <time>2026-08-14T07:59:13.000Z</time>
      </trkpt>
      <trkpt lat="22.833634" lon="109.015756">
        <ele>108.021587</ele>
        <time>2026-08-14T07:59:14.000Z</time>
      </trkpt>
      <trkpt lat="22.833657" lon="109.015777">
        <ele>108.110558</ele>
        <time>2026-08-14T07:59:15.000Z</time>
      </trkpt>
      <trkpt lat="22.833682" lon="109.015797">
        <ele>108.202491</ele>
        <time>2026-08-14T07:59:16.000Z</time>
      </trkpt>
      <trkpt lat="22.833707" lon="109.015818">
        <ele>108.296069</ele>
        <time>2026-08-14T07:59:17.000Z</time>
      </trkpt>
      <trkpt lat="22.833733" lon="109.015839">
        <ele>108.392004</ele>
        <time>2026-08-14T07:59:18.000Z</time>
      </trkpt>
      <trkpt lat="22.833760" lon="109.015860">
        <ele>108.490329</ele>
        <time>2026-08-14T07:59:19.000Z</time>
      </trkpt>
      <trkpt lat="22.833787" lon="109.015882">
        <ele>108.590269</ele>
        <time>2026-08-14T07:59:20.000Z</time>
      </trkpt>
      <trkpt lat="22.833815" lon="109.015904">
        <ele>108.692590</ele>
        <time>2026-08-14T07:59:21.000Z</time>
      </trkpt>
      <trkpt lat="22.833844" lon="109.015928">
        <ele>108.800542</ele>
        <time>2026-08-14T07:59:22.000Z</time>
      </trkpt>
      <trkpt lat="22.833875" lon="109.015953">
        <ele>108.914863</ele>
        <time>2026-08-14T07:59:23.000Z</time>
      </trkpt>
      <trkpt lat="22.833908" lon="109.015980">
        <ele>109.037193</ele>
        <time>2026-08-14T07:59:24.000Z</time>
      </trkpt>
      <trkpt lat="22.833942" lon="109.016007">
        <ele>109.161899</ele>
        <time>2026-08-14T07:59:25.000Z</time>
      </trkpt>
      <trkpt lat="22.833977" lon="109.016033">
        <ele>109.287445</ele>
        <time>2026-08-14T07:59:26.000Z</time>
      </trkpt>
      <trkpt lat="22.834011" lon="109.016061">
        <ele>109.413781</ele>
        <time>2026-08-14T07:59:27.000Z</time>
      </trkpt>
      <trkpt lat="22.834044" lon="109.016091">
        <ele>109.541206</ele>
        <time>2026-08-14T07:59:28.000Z</time>
      </trkpt>
      <trkpt lat="22.834076" lon="109.016120">
        <ele>109.664610</ele>
        <time>2026-08-14T07:59:29.000Z</time>
      </trkpt>
      <trkpt lat="22.834108" lon="109.016152">
        <ele>109.783277</ele>
        <time>2026-08-14T07:59:30.000Z</time>
      </trkpt>
      <trkpt lat="22.834138" lon="109.016183">
        <ele>109.851576</ele>
        <time>2026-08-14T07:59:31.000Z</time>
      </trkpt>
      <trkpt lat="22.834167" lon="109.016216">
        <ele>109.920856</ele>
        <time>2026-08-14T07:59:32.000Z</time>
      </trkpt>
      <trkpt lat="22.834195" lon="109.016249">
        <ele>109.989010</ele>
        <time>2026-08-14T07:59:33.000Z</time>
      </trkpt>
      <trkpt lat="22.834221" lon="109.016282">
        <ele>110.054974</ele>
        <time>2026-08-14T07:59:34.000Z</time>
      </trkpt>
      <trkpt lat="22.834247" lon="109.016315">
        <ele>110.120939</ele>
        <time>2026-08-14T07:59:35.000Z</time>
      </trkpt>
      <trkpt lat="22.834271" lon="109.016349">
        <ele>110.186010</ele>
        <time>2026-08-14T07:59:36.000Z</time>
      </trkpt>
      <trkpt lat="22.834293" lon="109.016384">
        <ele>110.250380</ele>
        <time>2026-08-14T07:59:37.000Z</time>
      </trkpt>
      <trkpt lat="22.834313" lon="109.016418">
        <ele>110.311665</ele>
        <time>2026-08-14T07:59:38.000Z</time>
      </trkpt>
      <trkpt lat="22.834333" lon="109.016452">
        <ele>110.372950</ele>
        <time>2026-08-14T07:59:39.000Z</time>
      </trkpt>
      <trkpt lat="22.834353" lon="109.016482">
        <ele>110.429207</ele>
        <time>2026-08-14T07:59:40.000Z</time>
      </trkpt>
      <trkpt lat="22.834371" lon="109.016509">
        <ele>110.479839</ele>
        <time>2026-08-14T07:59:41.000Z</time>
      </trkpt>
      <trkpt lat="22.834386" lon="109.016535">
        <ele>110.526445</ele>
        <time>2026-08-14T07:59:42.000Z</time>
      </trkpt>
      <trkpt lat="22.834401" lon="109.016557">
        <ele>110.568025</ele>
        <time>2026-08-14T07:59:43.000Z</time>
      </trkpt>
      <trkpt lat="22.834415" lon="109.016574">
        <ele>110.602664</ele>
        <time>2026-08-14T07:59:44.000Z</time>
      </trkpt>
      <trkpt lat="22.834428" lon="109.016589">
        <ele>110.633949</ele>
        <time>2026-08-14T07:59:45.000Z</time>
      </trkpt>
      <trkpt lat="22.834440" lon="109.016605">
        <ele>110.665292</ele>
        <time>2026-08-14T07:59:46.000Z</time>
      </trkpt>
      <trkpt lat="22.834455" lon="109.016624">
        <ele>110.703304</ele>
        <time>2026-08-14T07:59:47.000Z</time>
      </trkpt>
      <trkpt lat="22.834468" lon="109.016645">
        <ele>110.741741</ele>
        <time>2026-08-14T07:59:48.000Z</time>
      </trkpt>
      <trkpt lat="22.834479" lon="109.016668">
        <ele>110.781112</ele>
        <time>2026-08-14T07:59:49.000Z</time>
      </trkpt>
      <trkpt lat="22.834492" lon="109.016690">
        <ele>110.820820</ele>
        <time>2026-08-14T07:59:50.000Z</time>
      </trkpt>
      <trkpt lat="22.834505" lon="109.016713">
        <ele>110.861814</ele>
        <time>2026-08-14T07:59:51.000Z</time>
      </trkpt>
      <trkpt lat="22.834519" lon="109.016735">
        <ele>110.902435</ele>
        <time>2026-08-14T07:59:52.000Z</time>
      </trkpt>
      <trkpt lat="22.834533" lon="109.016756">
        <ele>110.941815</ele>
        <time>2026-08-14T07:59:53.000Z</time>
      </trkpt>
      <trkpt lat="22.834548" lon="109.016779">
        <ele>110.984626</ele>
        <time>2026-08-14T07:59:54.000Z</time>
      </trkpt>
      <trkpt lat="22.834564" lon="109.016802">
        <ele>111.028410</ele>
        <time>2026-08-14T07:59:55.000Z</time>
      </trkpt>
      <trkpt lat="22.834580" lon="109.016824">
        <ele>111.070991</ele>
        <time>2026-08-14T07:59:56.000Z</time>
      </trkpt>
      <trkpt lat="22.834597" lon="109.016847">
        <ele>111.115787</ele>
        <time>2026-08-14T07:59:57.000Z</time>
      </trkpt>
      <trkpt lat="22.834615" lon="109.016869">
        <ele>111.160485</ele>
        <time>2026-08-14T07:59:58.000Z</time>
      </trkpt>
      <trkpt lat="22.834633" lon="109.016891">
        <ele>111.205184</ele>
        <time>2026-08-14T07:59:59.000Z</time>
      </trkpt>
      <trkpt lat="22.834652" lon="109.016917">
        <ele>111.255599</ele>
        <time>2026-08-14T08:00:00.000Z</time>
      </trkpt>
      <trkpt lat="22.834674" lon="109.016943">
        <ele>111.309228</ele>
        <time>2026-08-14T08:00:01.000Z</time>
      </trkpt>
      <trkpt lat="22.834697" lon="109.016963">
        <ele>111.357820</ele>
        <time>2026-08-14T08:00:02.000Z</time>
      </trkpt>
      <trkpt lat="22.834724" lon="109.016984">
        <ele>111.412587</ele>
        <time>2026-08-14T08:00:03.000Z</time>
      </trkpt>
      <trkpt lat="22.834751" lon="109.017007">
        <ele>111.469179</ele>
        <time>2026-08-14T08:00:04.000Z</time>
      </trkpt>
      <trkpt lat="22.834778" lon="109.017030">
        <ele>111.525770</ele>
        <time>2026-08-14T08:00:05.000Z</time>
      </trkpt>
      <trkpt lat="22.834807" lon="109.017053">
        <ele>111.584989</ele>
        <time>2026-08-14T08:00:06.000Z</time>
      </trkpt>
      <trkpt lat="22.834835" lon="109.017078">
        <ele>111.644770</ele>
        <time>2026-08-14T08:00:07.000Z</time>
      </trkpt>
      <trkpt lat="22.834864" lon="109.017103">
        <ele>111.705832</ele>
        <time>2026-08-14T08:00:08.000Z</time>
      </trkpt>
      <trkpt lat="22.834896" lon="109.017126">
        <ele>111.769112</ele>
        <time>2026-08-14T08:00:09.000Z</time>
      </trkpt>
      <trkpt lat="22.834929" lon="109.017149">
        <ele>111.833773</ele>
        <time>2026-08-14T08:00:10.000Z</time>
      </trkpt>
      <trkpt lat="22.834961" lon="109.017175">
        <ele>111.899679</ele>
        <time>2026-08-14T08:00:11.000Z</time>
      </trkpt>
      <trkpt lat="22.834993" lon="109.017201">
        <ele>111.965586</ele>
        <time>2026-08-14T08:00:12.000Z</time>
      </trkpt>
      <trkpt lat="22.835025" lon="109.017225">
        <ele>112.029718</ele>
        <time>2026-08-14T08:00:13.000Z</time>
      </trkpt>
      <trkpt lat="22.835058" lon="109.017251">
        <ele>112.096951</ele>
        <time>2026-08-14T08:00:14.000Z</time>
      </trkpt>
      <trkpt lat="22.835091" lon="109.017277">
        <ele>112.164185</ele>
        <time>2026-08-14T08:00:15.000Z</time>
      </trkpt>
      <trkpt lat="22.835125" lon="109.017303">
        <ele>112.232759</ele>
        <time>2026-08-14T08:00:16.000Z</time>
      </trkpt>
      <trkpt lat="22.835158" lon="109.017329">
        <ele>112.299993</ele>
        <time>2026-08-14T08:00:17.000Z</time>
      </trkpt>
      <trkpt lat="22.835192" lon="109.017355">
        <ele>112.368567</ele>
        <time>2026-08-14T08:00:18.000Z</time>
      </trkpt>
      <trkpt lat="22.835225" lon="109.017382">
        <ele>112.436705</ele>
        <time>2026-08-14T08:00:19.000Z</time>
      </trkpt>
      <trkpt lat="22.835258" lon="109.017410">
        <ele>112.505768</ele>
        <time>2026-08-14T08:00:20.000Z</time>
      </trkpt>
      <trkpt lat="22.835289" lon="109.017439">
        <ele>112.573247</ele>
        <time>2026-08-14T08:00:21.000Z</time>
      </trkpt>
      <trkpt lat="22.835321" lon="109.017468">
        <ele>112.641982</ele>
        <time>2026-08-14T08:00:22.000Z</time>
      </trkpt>
      <trkpt lat="22.835350" lon="109.017498">
        <ele>112.708039</ele>
        <time>2026-08-14T08:00:23.000Z</time>
      </trkpt>
      <trkpt lat="22.835377" lon="109.017529">
        <ele>112.770477</ele>
        <time>2026-08-14T08:00:24.000Z</time>
      </trkpt>
      <trkpt lat="22.835406" lon="109.017559">
        <ele>112.832314</ele>
        <time>2026-08-14T08:00:25.000Z</time>
      </trkpt>
      <trkpt lat="22.835434" lon="109.017588">
        <ele>112.892053</ele>
        <time>2026-08-14T08:00:26.000Z</time>
      </trkpt>
      <trkpt lat="22.835464" lon="109.017618">
        <ele>112.955016</ele>
        <time>2026-08-14T08:00:27.000Z</time>
      </trkpt>
      <trkpt lat="22.835493" lon="109.017647">
        <ele>113.015880</ele>
        <time>2026-08-14T08:00:28.000Z</time>
      </trkpt>
      <trkpt lat="22.835522" lon="109.017677">
        <ele>113.077717</ele>
        <time>2026-08-14T08:00:29.000Z</time>
      </trkpt>
      <trkpt lat="22.835551" lon="109.017705">
        <ele>113.137626</ele>
        <time>2026-08-14T08:00:30.000Z</time>
      </trkpt>
      <trkpt lat="22.835579" lon="109.017734">
        <ele>113.197365</ele>
        <time>2026-08-14T08:00:31.000Z</time>
      </trkpt>
      <trkpt lat="22.835605" lon="109.017763">
        <ele>113.254910</ele>
        <time>2026-08-14T08:00:32.000Z</time>
      </trkpt>
      <trkpt lat="22.835630" lon="109.017789">
        <ele>113.308353</ele>
        <time>2026-08-14T08:00:33.000Z</time>
      </trkpt>
      <trkpt lat="22.835656" lon="109.017815">
        <ele>113.362921</ele>
        <time>2026-08-14T08:00:34.000Z</time>
      </trkpt>
      <trkpt lat="22.835677" lon="109.017838">
        <ele>113.408970</ele>
        <time>2026-08-14T08:00:35.000Z</time>
      </trkpt>
      <trkpt lat="22.835696" lon="109.017860">
        <ele>113.451854</ele>
        <time>2026-08-14T08:00:36.000Z</time>
      </trkpt>
      <trkpt lat="22.835714" lon="109.017879">
        <ele>113.490609</ele>
        <time>2026-08-14T08:00:37.000Z</time>
      </trkpt>
      <trkpt lat="22.835732" lon="109.017896">
        <ele>113.527438</ele>
        <time>2026-08-14T08:00:38.000Z</time>
      </trkpt>
      <trkpt lat="22.835751" lon="109.017911">
        <ele>113.563701</ele>
        <time>2026-08-14T08:00:39.000Z</time>
      </trkpt>
      <trkpt lat="22.835771" lon="109.017926">
        <ele>113.601223</ele>
        <time>2026-08-14T08:00:40.000Z</time>
      </trkpt>
      <trkpt lat="22.835790" lon="109.017940">
        <ele>113.636668</ele>
        <time>2026-08-14T08:00:41.000Z</time>
      </trkpt>
      <trkpt lat="22.835811" lon="109.017955">
        <ele>113.675469</ele>
        <time>2026-08-14T08:00:42.000Z</time>
      </trkpt>
      <trkpt lat="22.835832" lon="109.017972">
        <ele>113.715904</ele>
        <time>2026-08-14T08:00:43.000Z</time>
      </trkpt>
      <trkpt lat="22.835853" lon="109.017987">
        <ele>113.754706</ele>
        <time>2026-08-14T08:00:44.000Z</time>
      </trkpt>
      <trkpt lat="22.835875" lon="109.018004">
        <ele>113.796388</ele>
        <time>2026-08-14T08:00:45.000Z</time>
      </trkpt>
      <trkpt lat="22.835898" lon="109.018020">
        <ele>113.838553</ele>
        <time>2026-08-14T08:00:46.000Z</time>
      </trkpt>
      <trkpt lat="22.835921" lon="109.018036">
        <ele>113.880717</ele>
        <time>2026-08-14T08:00:47.000Z</time>
      </trkpt>
      <trkpt lat="22.835944" lon="109.018053">
        <ele>113.923666</ele>
        <time>2026-08-14T08:00:48.000Z</time>
      </trkpt>
      <trkpt lat="22.835968" lon="109.018069">
        <ele>113.967138</ele>
        <time>2026-08-14T08:00:49.000Z</time>
      </trkpt>
      <trkpt lat="22.835991" lon="109.018081">
        <ele>114.006524</ele>
        <time>2026-08-14T08:00:50.000Z</time>
      </trkpt>
      <trkpt lat="22.836017" lon="109.018093">
        <ele>114.050129</ele>
        <time>2026-08-14T08:00:51.000Z</time>
      </trkpt>
      <trkpt lat="22.836045" lon="109.018106">
        <ele>114.097131</ele>
        <time>2026-08-14T08:00:52.000Z</time>
      </trkpt>
      <trkpt lat="22.836074" lon="109.018118">
        <ele>114.145031</ele>
        <time>2026-08-14T08:00:53.000Z</time>
      </trkpt>
      <trkpt lat="22.836104" lon="109.018131">
        <ele>114.194886</ele>
        <time>2026-08-14T08:00:54.000Z</time>
      </trkpt>
      <trkpt lat="22.836136" lon="109.018142">
        <ele>114.246690</ele>
        <time>2026-08-14T08:00:55.000Z</time>
      </trkpt>
      <trkpt lat="22.836170" lon="109.018153">
        <ele>114.301445</ele>
        <time>2026-08-14T08:00:56.000Z</time>
      </trkpt>
      <trkpt lat="22.836201" lon="109.018164">
        <ele>114.351781</ele>
        <time>2026-08-14T08:00:57.000Z</time>
      </trkpt>
      <trkpt lat="22.836232" lon="109.018177">
        <ele>114.403072</ele>
        <time>2026-08-14T08:00:58.000Z</time>
      </trkpt>
      <trkpt lat="22.836264" lon="109.018190">
        <ele>114.455805</ele>
        <time>2026-08-14T08:00:59.000Z</time>
      </trkpt>
      <trkpt lat="22.836294" lon="109.018202">
        <ele>114.505150</ele>
        <time>2026-08-14T08:01:00.000Z</time>
      </trkpt>
      <trkpt lat="22.836325" lon="109.018213">
        <ele>114.555486</ele>
        <time>2026-08-14T08:01:01.000Z</time>
      </trkpt>
      <trkpt lat="22.836356" lon="109.018225">
        <ele>114.606281</ele>
        <time>2026-08-14T08:01:02.000Z</time>
      </trkpt>
      <trkpt lat="22.836389" lon="109.018236">
        <ele>114.659559</ele>
        <time>2026-08-14T08:01:03.000Z</time>
      </trkpt>
      <trkpt lat="22.836423" lon="109.018251">
        <ele>114.716203</ele>
        <time>2026-08-14T08:01:04.000Z</time>
      </trkpt>
      <trkpt lat="22.836458" lon="109.018265">
        <ele>114.773772</ele>
        <time>2026-08-14T08:01:05.000Z</time>
      </trkpt>
      <trkpt lat="22.836490" lon="109.018279">
        <ele>114.827020</ele>
        <time>2026-08-14T08:01:06.000Z</time>
      </trkpt>
      <trkpt lat="22.836524" lon="109.018292">
        <ele>114.882655</ele>
        <time>2026-08-14T08:01:07.000Z</time>
      </trkpt>
      <trkpt lat="22.836560" lon="109.018307">
        <ele>114.942169</ele>
        <time>2026-08-14T08:01:08.000Z</time>
      </trkpt>
      <trkpt lat="22.836596" lon="109.018327">
        <ele>115.004587</ele>
        <time>2026-08-14T08:01:09.000Z</time>
      </trkpt>
      <trkpt lat="22.836633" lon="109.018345">
        <ele>115.067166</ele>
        <time>2026-08-14T08:01:10.000Z</time>
      </trkpt>
      <trkpt lat="22.836668" lon="109.018363">
        <ele>115.126941</ele>
        <time>2026-08-14T08:01:11.000Z</time>
      </trkpt>
      <trkpt lat="22.836702" lon="109.018380">
        <ele>115.184717</ele>
        <time>2026-08-14T08:01:12.000Z</time>
      </trkpt>
      <trkpt lat="22.836737" lon="109.018399">
        <ele>115.245115</ele>
        <time>2026-08-14T08:01:13.000Z</time>
      </trkpt>
      <trkpt lat="22.836770" lon="109.018417">
        <ele>115.302117</ele>
        <time>2026-08-14T08:01:14.000Z</time>
      </trkpt>
      <trkpt lat="22.836805" lon="109.018433">
        <ele>115.360730</ele>
        <time>2026-08-14T08:01:15.000Z</time>
      </trkpt>
      <trkpt lat="22.836842" lon="109.018448">
        <ele>115.421688</ele>
        <time>2026-08-14T08:01:16.000Z</time>
      </trkpt>
      <trkpt lat="22.836877" lon="109.018461">
        <ele>115.478780</ele>
        <time>2026-08-14T08:01:17.000Z</time>
      </trkpt>
      <trkpt lat="22.836912" lon="109.018476">
        <ele>115.530085</ele>
        <time>2026-08-14T08:01:18.000Z</time>
      </trkpt>
      <trkpt lat="22.836946" lon="109.018491">
        <ele>115.571531</ele>
        <time>2026-08-14T08:01:19.000Z</time>
      </trkpt>
      <trkpt lat="22.836989" lon="109.018502">
        <ele>115.621418</ele>
        <time>2026-08-14T08:01:20.000Z</time>
      </trkpt>
      <trkpt lat="22.837024" lon="109.018519">
        <ele>115.664719</ele>
        <time>2026-08-14T08:01:21.000Z</time>
      </trkpt>
      <trkpt lat="22.837059" lon="109.018537">
        <ele>115.708456</ele>
        <time>2026-08-14T08:01:22.000Z</time>
      </trkpt>
      <trkpt lat="22.837094" lon="109.018555">
        <ele>115.752193</ele>
        <time>2026-08-14T08:01:23.000Z</time>
      </trkpt>
      <trkpt lat="22.837128" lon="109.018572">
        <ele>115.794467</ele>
        <time>2026-08-14T08:01:24.000Z</time>
      </trkpt>
      <trkpt lat="22.837163" lon="109.018591">
        <ele>115.838659</ele>
        <time>2026-08-14T08:01:25.000Z</time>
      </trkpt>
      <trkpt lat="22.837198" lon="109.018609">
        <ele>115.882396</ele>
        <time>2026-08-14T08:01:26.000Z</time>
      </trkpt>
      <trkpt lat="22.837232" lon="109.018627">
        <ele>115.925116</ele>
        <time>2026-08-14T08:01:27.000Z</time>
      </trkpt>
      <trkpt lat="22.837265" lon="109.018648">
        <ele>115.968316</ele>
        <time>2026-08-14T08:01:28.000Z</time>
      </trkpt>
      <trkpt lat="22.837296" lon="109.018666">
        <ele>116.008018</ele>
        <time>2026-08-14T08:01:29.000Z</time>
      </trkpt>
      <trkpt lat="22.837328" lon="109.018688">
        <ele>116.050796</ele>
        <time>2026-08-14T08:01:30.000Z</time>
      </trkpt>
      <trkpt lat="22.837362" lon="109.018712">
        <ele>116.096598</ele>
        <time>2026-08-14T08:01:31.000Z</time>
      </trkpt>
      <trkpt lat="22.837397" lon="109.018738">
        <ele>116.144495</ele>
        <time>2026-08-14T08:01:32.000Z</time>
      </trkpt>
      <trkpt lat="22.837432" lon="109.018763">
        <ele>116.191813</ele>
        <time>2026-08-14T08:01:33.000Z</time>
      </trkpt>
      <trkpt lat="22.837463" lon="109.018788">
        <ele>116.235428</ele>
        <time>2026-08-14T08:01:34.000Z</time>
      </trkpt>
      <trkpt lat="22.837494" lon="109.018814">
        <ele>116.279672</ele>
        <time>2026-08-14T08:01:35.000Z</time>
      </trkpt>
      <trkpt lat="22.837522" lon="109.018842">
        <ele>116.322669</ele>
        <time>2026-08-14T08:01:36.000Z</time>
      </trkpt>
      <trkpt lat="22.837552" lon="109.018872">
        <ele>116.368738</ele>
        <time>2026-08-14T08:01:37.000Z</time>
      </trkpt>
      <trkpt lat="22.837585" lon="109.018899">
        <ele>116.415409</ele>
        <time>2026-08-14T08:01:38.000Z</time>
      </trkpt>
      <trkpt lat="22.837617" lon="109.018928">
        <ele>116.462489</ele>
        <time>2026-08-14T08:01:39.000Z</time>
      </trkpt>
      <trkpt lat="22.837648" lon="109.018960">
        <ele>116.510805</ele>
        <time>2026-08-14T08:01:40.000Z</time>
      </trkpt>
      <trkpt lat="22.837677" lon="109.018992">
        <ele>116.557510</ele>
        <time>2026-08-14T08:01:41.000Z</time>
      </trkpt>
      <trkpt lat="22.837709" lon="109.019026">
        <ele>116.608084</ele>
        <time>2026-08-14T08:01:42.000Z</time>
      </trkpt>
      <trkpt lat="22.837739" lon="109.019059">
        <ele>116.656323</ele>
        <time>2026-08-14T08:01:43.000Z</time>
      </trkpt>
      <trkpt lat="22.837769" lon="109.019093">
        <ele>116.705309</ele>
        <time>2026-08-14T08:01:44.000Z</time>
      </trkpt>
      <trkpt lat="22.837798" lon="109.019129">
        <ele>116.755068</ele>
        <time>2026-08-14T08:01:45.000Z</time>
      </trkpt>
      <trkpt lat="22.837823" lon="109.019169">
        <ele>116.805365</ele>
        <time>2026-08-14T08:01:46.000Z</time>
      </trkpt>
      <trkpt lat="22.837848" lon="109.019208">
        <ele>116.854805</ele>
        <time>2026-08-14T08:01:47.000Z</time>
      </trkpt>
      <trkpt lat="22.837872" lon="109.019249">
        <ele>116.905352</ele>
        <time>2026-08-14T08:01:48.000Z</time>
      </trkpt>
      <trkpt lat="22.837898" lon="109.019289">
        <ele>116.956292</ele>
        <time>2026-08-14T08:01:49.000Z</time>
      </trkpt>
      <trkpt lat="22.837926" lon="109.019331">
        <ele>117.010238</ele>
        <time>2026-08-14T08:01:50.000Z</time>
      </trkpt>
      <trkpt lat="22.837953" lon="109.019372">
        <ele>117.062679</ele>
        <time>2026-08-14T08:01:51.000Z</time>
      </trkpt>
      <trkpt lat="22.837980" lon="109.019412">
        <ele>117.114278</ele>
        <time>2026-08-14T08:01:52.000Z</time>
      </trkpt>
      <trkpt lat="22.838004" lon="109.019455">
        <ele>117.166594</ele>
        <time>2026-08-14T08:01:53.000Z</time>
      </trkpt>
      <trkpt lat="22.838029" lon="109.019497">
        <ele>117.218627</ele>
        <time>2026-08-14T08:01:54.000Z</time>
      </trkpt>
      <trkpt lat="22.838052" lon="109.019540">
        <ele>117.270367</ele>
        <time>2026-08-14T08:01:55.000Z</time>
      </trkpt>
      <trkpt lat="22.838074" lon="109.019581">
        <ele>117.319741</ele>
        <time>2026-08-14T08:01:56.000Z</time>
      </trkpt>
      <trkpt lat="22.838100" lon="109.019623">
        <ele>117.372395</ele>
        <time>2026-08-14T08:01:57.000Z</time>
      </trkpt>
      <trkpt lat="22.838123" lon="109.019662">
        <ele>117.420580</ele>
        <time>2026-08-14T08:01:58.000Z</time>
      </trkpt>
      <trkpt lat="22.838145" lon="109.019701">
        <ele>117.468166</ele>
        <time>2026-08-14T08:01:59.000Z</time>
      </trkpt>
      <trkpt lat="22.838165" lon="109.019740">
        <ele>117.514613</ele>
        <time>2026-08-14T08:02:00.000Z</time>
      </trkpt>
      <trkpt lat="22.838184" lon="109.019776">
        <ele>117.526207</ele>
        <time>2026-08-14T08:02:01.000Z</time>
      </trkpt>
      <trkpt lat="22.838203" lon="109.019811">
        <ele>117.480182</ele>
        <time>2026-08-14T08:02:02.000Z</time>
      </trkpt>
      <trkpt lat="22.838219" lon="109.019846">
        <ele>117.435915</ele>
        <time>2026-08-14T08:02:03.000Z</time>
      </trkpt>
      <trkpt lat="22.838233" lon="109.019877">
        <ele>117.396801</ele>
        <time>2026-08-14T08:02:04.000Z</time>
      </trkpt>
      <trkpt lat="22.838249" lon="109.019909">
        <ele>117.355551</ele>
        <time>2026-08-14T08:02:05.000Z</time>
      </trkpt>
      <trkpt lat="22.838264" lon="109.019940">
        <ele>117.315880</ele>
        <time>2026-08-14T08:02:06.000Z</time>
      </trkpt>
      <trkpt lat="22.838280" lon="109.019971">
        <ele>117.275623</ele>
        <time>2026-08-14T08:02:07.000Z</time>
      </trkpt>
      <trkpt lat="22.838295" lon="109.020000">
        <ele>117.237944</ele>
        <time>2026-08-14T08:02:08.000Z</time>
      </trkpt>
      <trkpt lat="22.838311" lon="109.020028">
        <ele>117.200615</ele>
        <time>2026-08-14T08:02:09.000Z</time>
      </trkpt>
      <trkpt lat="22.838326" lon="109.020056">
        <ele>117.163920</ele>
        <time>2026-08-14T08:02:10.000Z</time>
      </trkpt>
      <trkpt lat="22.838340" lon="109.020085">
        <ele>117.126826</ele>
        <time>2026-08-14T08:02:11.000Z</time>
      </trkpt>
      <trkpt lat="22.838355" lon="109.020116">
        <ele>117.087155</ele>
        <time>2026-08-14T08:02:12.000Z</time>
      </trkpt>
      <trkpt lat="22.838372" lon="109.020143">
        <ele>117.050106</ele>
        <time>2026-08-14T08:02:13.000Z</time>
      </trkpt>
      <trkpt lat="22.838391" lon="109.020171">
        <ele>117.010709</ele>
        <time>2026-08-14T08:02:14.000Z</time>
      </trkpt>
      <trkpt lat="22.838410" lon="109.020201">
        <ele>116.969465</ele>
        <time>2026-08-14T08:02:15.000Z</time>
      </trkpt>
      <trkpt lat="22.838429" lon="109.020234">
        <ele>116.925378</ele>
        <time>2026-08-14T08:02:16.000Z</time>
      </trkpt>
      <trkpt lat="22.838448" lon="109.020267">
        <ele>116.881291</ele>
        <time>2026-08-14T08:02:17.000Z</time>
      </trkpt>
      <trkpt lat="22.838471" lon="109.020298">
        <ele>116.836199</ele>
        <time>2026-08-14T08:02:18.000Z</time>
      </trkpt>
      <trkpt lat="22.838496" lon="109.020330">
        <ele>116.788668</ele>
        <time>2026-08-14T08:02:19.000Z</time>
      </trkpt>
      <trkpt lat="22.838522" lon="109.020366">
        <ele>116.736846</ele>
        <time>2026-08-14T08:02:20.000Z</time>
      </trkpt>
      <trkpt lat="22.838551" lon="109.020402">
        <ele>116.682671</ele>
        <time>2026-08-14T08:02:21.000Z</time>
      </trkpt>
      <trkpt lat="22.838582" lon="109.020441">
        <ele>116.624317</ele>
        <time>2026-08-14T08:02:22.000Z</time>
      </trkpt>
      <trkpt lat="22.838616" lon="109.020481">
        <ele>116.562663</ele>
        <time>2026-08-14T08:02:23.000Z</time>
      </trkpt>
      <trkpt lat="22.838653" lon="109.020523">
        <ele>116.496831</ele>
        <time>2026-08-14T08:02:24.000Z</time>
      </trkpt>
      <trkpt lat="22.838693" lon="109.020568">
        <ele>116.425993</ele>
        <time>2026-08-14T08:02:25.000Z</time>
      </trkpt>
      <trkpt lat="22.838735" lon="109.020615">
        <ele>116.351817</ele>
        <time>2026-08-14T08:02:26.000Z</time>
      </trkpt>
      <trkpt lat="22.838778" lon="109.020664">
        <ele>116.275156</ele>
        <time>2026-08-14T08:02:27.000Z</time>
      </trkpt>
      <trkpt lat="22.838824" lon="109.020712">
        <ele>116.196695</ele>
        <time>2026-08-14T08:02:28.000Z</time>
      </trkpt>
      <trkpt lat="22.838870" lon="109.020759">
        <ele>116.119015</ele>
        <time>2026-08-14T08:02:29.000Z</time>
      </trkpt>
      <trkpt lat="22.838919" lon="109.020807">
        <ele>116.037856</ele>
        <time>2026-08-14T08:02:30.000Z</time>
      </trkpt>
      <trkpt lat="22.838969" lon="109.020855">
        <ele>115.955780</ele>
        <time>2026-08-14T08:02:31.000Z</time>
      </trkpt>
      <trkpt lat="22.839022" lon="109.020903">
        <ele>115.870907</ele>
        <time>2026-08-14T08:02:32.000Z</time>
      </trkpt>
      <trkpt lat="22.839076" lon="109.020952">
        <ele>115.784363</ele>
        <time>2026-08-14T08:02:33.000Z</time>
      </trkpt>
      <trkpt lat="22.839130" lon="109.021002">
        <ele>115.697089</ele>
        <time>2026-08-14T08:02:34.000Z</time>
      </trkpt>
      <trkpt lat="22.839182" lon="109.021052">
        <ele>115.611670</ele>
        <time>2026-08-14T08:02:35.000Z</time>
      </trkpt>
      <trkpt lat="22.839234" lon="109.021102">
        <ele>115.526251</ele>
        <time>2026-08-14T08:02:36.000Z</time>
      </trkpt>
      <trkpt lat="22.839286" lon="109.021152">
        <ele>115.440832</ele>
        <time>2026-08-14T08:02:37.000Z</time>
      </trkpt>
      <trkpt lat="22.839339" lon="109.021202">
        <ele>115.354489</ele>
        <time>2026-08-14T08:02:38.000Z</time>
      </trkpt>
      <trkpt lat="22.839390" lon="109.021250">
        <ele>115.366960</ele>
        <time>2026-08-14T08:02:39.000Z</time>
      </trkpt>
      <trkpt lat="22.839440" lon="109.021299">
        <ele>115.416166</ele>
        <time>2026-08-14T08:02:40.000Z</time>
      </trkpt>
      <trkpt lat="22.839491" lon="109.021346">
        <ele>115.465034</ele>
        <time>2026-08-14T08:02:41.000Z</time>
      </trkpt>
      <trkpt lat="22.839541" lon="109.021396">
        <ele>115.514694</ele>
        <time>2026-08-14T08:02:42.000Z</time>
      </trkpt>
      <trkpt lat="22.839591" lon="109.021445">
        <ele>115.563900</ele>
        <time>2026-08-14T08:02:43.000Z</time>
      </trkpt>
      <trkpt lat="22.839639" lon="109.021494">
        <ele>115.612032</ele>
        <time>2026-08-14T08:02:44.000Z</time>
      </trkpt>
      <trkpt lat="22.839687" lon="109.021541">
        <ele>115.659251</ele>
        <time>2026-08-14T08:02:45.000Z</time>
      </trkpt>
      <trkpt lat="22.839734" lon="109.021589">
        <ele>115.706390</ele>
        <time>2026-08-14T08:02:46.000Z</time>
      </trkpt>
      <trkpt lat="22.839779" lon="109.021635">
        <ele>115.751542</ele>
        <time>2026-08-14T08:02:47.000Z</time>
      </trkpt>
      <trkpt lat="22.839823" lon="109.021678">
        <ele>115.794789</ele>
        <time>2026-08-14T08:02:48.000Z</time>
      </trkpt>
      <trkpt lat="22.839866" lon="109.021718">
        <ele>115.836155</ele>
        <time>2026-08-14T08:02:49.000Z</time>
      </trkpt>
      <trkpt lat="22.839905" lon="109.021758">
        <ele>115.875348</ele>
        <time>2026-08-14T08:02:50.000Z</time>
      </trkpt>
      <trkpt lat="22.839944" lon="109.021797">
        <ele>115.914083</ele>
        <time>2026-08-14T08:02:51.000Z</time>
      </trkpt>
      <trkpt lat="22.839980" lon="109.021834">
        <ele>115.950297</ele>
        <time>2026-08-14T08:02:52.000Z</time>
      </trkpt>
      <trkpt lat="22.840016" lon="109.021869">
        <ele>115.985599</ele>
        <time>2026-08-14T08:02:53.000Z</time>
      </trkpt>
      <trkpt lat="22.840048" lon="109.021903">
        <ele>116.018308</ele>
        <time>2026-08-14T08:02:54.000Z</time>
      </trkpt>
      <trkpt lat="22.840080" lon="109.021935">
        <ele>116.050091</ele>
        <time>2026-08-14T08:02:55.000Z</time>
      </trkpt>
      <trkpt lat="22.840113" lon="109.021965">
        <ele>116.081532</ele>
        <time>2026-08-14T08:02:56.000Z</time>
      </trkpt>
      <trkpt lat="22.840145" lon="109.021995">
        <ele>116.112418</ele>
        <time>2026-08-14T08:02:57.000Z</time>
      </trkpt>
      <trkpt lat="22.840175" lon="109.022025">
        <ele>116.142214</ele>
        <time>2026-08-14T08:02:58.000Z</time>
      </trkpt>
      <trkpt lat="22.840207" lon="109.022053">
        <ele>116.172237</ele>
        <time>2026-08-14T08:02:59.000Z</time>
      </trkpt>
      <trkpt lat="22.840240" lon="109.022080">
        <ele>116.202421</ele>
        <time>2026-08-14T08:03:00.000Z</time>
      </trkpt>
      <trkpt lat="22.840274" lon="109.022107">
        <ele>116.233193</ele>
        <time>2026-08-14T08:03:01.000Z</time>
      </trkpt>
      <trkpt lat="22.840310" lon="109.022133">
        <ele>116.264776</ele>
        <time>2026-08-14T08:03:02.000Z</time>
      </trkpt>
      <trkpt lat="22.840346" lon="109.022159">
        <ele>116.296360</ele>
        <time>2026-08-14T08:03:03.000Z</time>
      </trkpt>
      <trkpt lat="22.840384" lon="109.022184">
        <ele>116.328815</ele>
        <time>2026-08-14T08:03:04.000Z</time>
      </trkpt>
      <trkpt lat="22.840423" lon="109.022209">
        <ele>116.361898</ele>
        <time>2026-08-14T08:03:05.000Z</time>
      </trkpt>
      <trkpt lat="22.840462" lon="109.022232">
        <ele>116.394316</ele>
        <time>2026-08-14T08:03:06.000Z</time>
      </trkpt>
      <trkpt lat="22.840504" lon="109.022254">
        <ele>116.428377</ele>
        <time>2026-08-14T08:03:07.000Z</time>
      </trkpt>
      <trkpt lat="22.840546" lon="109.022277">
        <ele>116.462737</ele>
        <time>2026-08-14T08:03:08.000Z</time>
      </trkpt>
      <trkpt lat="22.840588" lon="109.022299">
        <ele>116.496798</ele>
        <time>2026-08-14T08:03:09.000Z</time>
      </trkpt>
      <trkpt lat="22.840631" lon="109.022321">
        <ele>116.531518</ele>
        <time>2026-08-14T08:03:10.000Z</time>
      </trkpt>
      <trkpt lat="22.840673" lon="109.022342">
        <ele>116.565292</ele>
        <time>2026-08-14T08:03:11.000Z</time>
      </trkpt>
      <trkpt lat="22.840713" lon="109.022363">
        <ele>116.597746</ele>
        <time>2026-08-14T08:03:12.000Z</time>
      </trkpt>
      <trkpt lat="22.840753" lon="109.022384">
        <ele>116.630199</ele>
        <time>2026-08-14T08:03:13.000Z</time>
      </trkpt>
      <trkpt lat="22.840795" lon="109.022403">
        <ele>116.567279</ele>
        <time>2026-08-14T08:03:14.000Z</time>
      </trkpt>
      <trkpt lat="22.840836" lon="109.022421">
        <ele>116.431077</ele>
        <time>2026-08-14T08:03:15.000Z</time>
      </trkpt>
      <trkpt lat="22.840876" lon="109.022439">
        <ele>116.297725</ele>
        <time>2026-08-14T08:03:16.000Z</time>
      </trkpt>
      <trkpt lat="22.840913" lon="109.022457">
        <ele>116.172857</ele>
        <time>2026-08-14T08:03:17.000Z</time>
      </trkpt>
      <trkpt lat="22.840952" lon="109.022476">
        <ele>116.041207</ele>
        <time>2026-08-14T08:03:18.000Z</time>
      </trkpt>
      <trkpt lat="22.840991" lon="109.022495">
        <ele>115.909558</ele>
        <time>2026-08-14T08:03:19.000Z</time>
      </trkpt>
      <trkpt lat="22.841029" lon="109.022514">
        <ele>115.780711</ele>
        <time>2026-08-14T08:03:20.000Z</time>
      </trkpt>
      <trkpt lat="22.841066" lon="109.022532">
        <ele>115.655843</ele>
        <time>2026-08-14T08:03:21.000Z</time>
      </trkpt>
      <trkpt lat="22.841104" lon="109.022550">
        <ele>115.528158</ele>
        <time>2026-08-14T08:03:22.000Z</time>
      </trkpt>
      <trkpt lat="22.841141" lon="109.022566">
        <ele>115.405502</ele>
        <time>2026-08-14T08:03:23.000Z</time>
      </trkpt>
      <trkpt lat="22.841177" lon="109.022584">
        <ele>115.283437</ele>
        <time>2026-08-14T08:03:24.000Z</time>
      </trkpt>
      <trkpt lat="22.841213" lon="109.022600">
        <ele>115.163636</ele>
        <time>2026-08-14T08:03:25.000Z</time>
      </trkpt>
      <trkpt lat="22.841247" lon="109.022616">
        <ele>115.049511</ele>
        <time>2026-08-14T08:03:26.000Z</time>
      </trkpt>
      <trkpt lat="22.841283" lon="109.022633">
        <ele>114.928607</ele>
        <time>2026-08-14T08:03:27.000Z</time>
      </trkpt>
      <trkpt lat="22.841319" lon="109.022651">
        <ele>114.806542</ele>
        <time>2026-08-14T08:03:28.000Z</time>
      </trkpt>
      <trkpt lat="22.841359" lon="109.022670">
        <ele>114.672077</ele>
        <time>2026-08-14T08:03:29.000Z</time>
      </trkpt>
      <trkpt lat="22.841399" lon="109.022691">
        <ele>114.535237</ele>
        <time>2026-08-14T08:03:30.000Z</time>
      </trkpt>
      <trkpt lat="22.841439" lon="109.022712">
        <ele>114.398397</ele>
        <time>2026-08-14T08:03:31.000Z</time>
      </trkpt>
      <trkpt lat="22.841480" lon="109.022735">
        <ele>114.256263</ele>
        <time>2026-08-14T08:03:32.000Z</time>
      </trkpt>
      <trkpt lat="22.841524" lon="109.022759">
        <ele>114.104610</ele>
        <time>2026-08-14T08:03:33.000Z</time>
      </trkpt>
      <trkpt lat="22.841569" lon="109.022783">
        <ele>113.950199</ele>
        <time>2026-08-14T08:03:34.000Z</time>
      </trkpt>
      <trkpt lat="22.841616" lon="109.022810">
        <ele>113.786431</ele>
        <time>2026-08-14T08:03:35.000Z</time>
      </trkpt>
      <trkpt lat="22.841665" lon="109.022837">
        <ele>113.617195</ele>
        <time>2026-08-14T08:03:36.000Z</time>
      </trkpt>
      <trkpt lat="22.841716" lon="109.022864">
        <ele>113.442445</ele>
        <time>2026-08-14T08:03:37.000Z</time>
      </trkpt>
      <trkpt lat="22.841771" lon="109.022893">
        <ele>113.254136</ele>
        <time>2026-08-14T08:03:38.000Z</time>
      </trkpt>
      <trkpt lat="22.841830" lon="109.022924">
        <ele>113.052266</ele>
        <time>2026-08-14T08:03:39.000Z</time>
      </trkpt>
      <trkpt lat="22.841891" lon="109.022957">
        <ele>112.842366</ele>
        <time>2026-08-14T08:03:40.000Z</time>
      </trkpt>
      <trkpt lat="22.841957" lon="109.022990">
        <ele>112.618580</ele>
        <time>2026-08-14T08:03:41.000Z</time>
      </trkpt>
      <trkpt lat="22.842026" lon="109.023024">
        <ele>112.385213</ele>
        <time>2026-08-14T08:03:42.000Z</time>
      </trkpt>
      <trkpt lat="22.842099" lon="109.023061">
        <ele>112.137095</ele>
        <time>2026-08-14T08:03:43.000Z</time>
      </trkpt>
      <trkpt lat="22.842173" lon="109.023095">
        <ele>111.889626</ele>
        <time>2026-08-14T08:03:44.000Z</time>
      </trkpt>
      <trkpt lat="22.842250" lon="109.023130">
        <ele>111.632542</ele>
        <time>2026-08-14T08:03:45.000Z</time>
      </trkpt>
      <trkpt lat="22.842329" lon="109.023163">
        <ele>111.371858</ele>
        <time>2026-08-14T08:03:46.000Z</time>
      </trkpt>
      <trkpt lat="22.842410" lon="109.023193">
        <ele>111.108290</ele>
        <time>2026-08-14T08:03:47.000Z</time>
      </trkpt>
      <trkpt lat="22.842488" lon="109.023220">
        <ele>111.078394</ele>
        <time>2026-08-14T08:03:48.000Z</time>
      </trkpt>
      <trkpt lat="22.842568" lon="109.023244">
        <ele>111.050058</ele>
        <time>2026-08-14T08:03:49.000Z</time>
      </trkpt>
      <trkpt lat="22.842644" lon="109.023266">
        <ele>111.023206</ele>
        <time>2026-08-14T08:03:50.000Z</time>
      </trkpt>
      <trkpt lat="22.842716" lon="109.023286">
        <ele>110.997833</ele>
        <time>2026-08-14T08:03:51.000Z</time>
      </trkpt>
      <trkpt lat="22.842787" lon="109.023305">
        <ele>110.972869</ele>
        <time>2026-08-14T08:03:52.000Z</time>
      </trkpt>
      <trkpt lat="22.842852" lon="109.023327">
        <ele>110.949624</ele>
        <time>2026-08-14T08:03:53.000Z</time>
      </trkpt>
      <trkpt lat="22.842915" lon="109.023352">
        <ele>110.926724</ele>
        <time>2026-08-14T08:03:54.000Z</time>
      </trkpt>
      <trkpt lat="22.842973" lon="109.023377">
        <ele>110.905419</ele>
        <time>2026-08-14T08:03:55.000Z</time>
      </trkpt>
      <trkpt lat="22.843028" lon="109.023400">
        <ele>110.885296</ele>
        <time>2026-08-14T08:03:56.000Z</time>
      </trkpt>
      <trkpt lat="22.843078" lon="109.023420">
        <ele>110.867104</ele>
        <time>2026-08-14T08:03:57.000Z</time>
      </trkpt>
      <trkpt lat="22.843124" lon="109.023437">
        <ele>110.850515</ele>
        <time>2026-08-14T08:03:58.000Z</time>
      </trkpt>
      <trkpt lat="22.843169" lon="109.023454">
        <ele>110.834248</ele>
        <time>2026-08-14T08:03:59.000Z</time>
      </trkpt>
      <trkpt lat="22.843214" lon="109.023470">
        <ele>110.818082</ele>
        <time>2026-08-14T08:04:00.000Z</time>
      </trkpt>
      <trkpt lat="22.843259" lon="109.023486">
        <ele>110.801916</ele>
        <time>2026-08-14T08:04:01.000Z</time>
      </trkpt>
      <trkpt lat="22.843304" lon="109.023504">
        <ele>110.785543</ele>
        <time>2026-08-14T08:04:02.000Z</time>
      </trkpt>
      <trkpt lat="22.843350" lon="109.023524">
        <ele>110.768626</ele>
        <time>2026-08-14T08:04:03.000Z</time>
      </trkpt>
      <trkpt lat="22.843397" lon="109.023545">
        <ele>110.751274</ele>
        <time>2026-08-14T08:04:04.000Z</time>
      </trkpt>
      <trkpt lat="22.843444" lon="109.023570">
        <ele>110.733405</ele>
        <time>2026-08-14T08:04:05.000Z</time>
      </trkpt>
      <trkpt lat="22.843493" lon="109.023594">
        <ele>110.715052</ele>
        <time>2026-08-14T08:04:06.000Z</time>
      </trkpt>
      <trkpt lat="22.843541" lon="109.023621">
        <ele>110.696594</ele>
        <time>2026-08-14T08:04:07.000Z</time>
      </trkpt>
      <trkpt lat="22.843591" lon="109.023648">
        <ele>110.677528</ele>
        <time>2026-08-14T08:04:08.000Z</time>
      </trkpt>
      <trkpt lat="22.843642" lon="109.023675">
        <ele>110.658156</ele>
        <time>2026-08-14T08:04:09.000Z</time>
      </trkpt>
      <trkpt lat="22.843693" lon="109.023702">
        <ele>110.638783</ele>
        <time>2026-08-14T08:04:10.000Z</time>
      </trkpt>
      <trkpt lat="22.843742" lon="109.023730">
        <ele>110.619878</ele>
        <time>2026-08-14T08:04:11.000Z</time>
      </trkpt>
      <trkpt lat="22.843791" lon="109.023760">
        <ele>110.600671</ele>
        <time>2026-08-14T08:04:12.000Z</time>
      </trkpt>
      <trkpt lat="22.843840" lon="109.023792">
        <ele>110.581147</ele>
        <time>2026-08-14T08:04:13.000Z</time>
      </trkpt>
      <trkpt lat="22.843888" lon="109.023826">
        <ele>110.561579</ele>
        <time>2026-08-14T08:04:14.000Z</time>
      </trkpt>
      <trkpt lat="22.843934" lon="109.023858">
        <ele>110.542925</ele>
        <time>2026-08-14T08:04:15.000Z</time>
      </trkpt>
      <trkpt lat="22.843981" lon="109.023891">
        <ele>110.523814</ele>
        <time>2026-08-14T08:04:16.000Z</time>
      </trkpt>
      <trkpt lat="22.844026" lon="109.023926">
        <ele>110.504913</ele>
        <time>2026-08-14T08:04:17.000Z</time>
      </trkpt>
      <trkpt lat="22.844068" lon="109.023963">
        <ele>110.527270</ele>
        <time>2026-08-14T08:04:18.000Z</time>
      </trkpt>
      <trkpt lat="22.844109" lon="109.024000">
        <ele>110.641150</ele>
        <time>2026-08-14T08:04:19.000Z</time>
      </trkpt>
      <trkpt lat="22.844148" lon="109.024038">
        <ele>110.753086</ele>
        <time>2026-08-14T08:04:20.000Z</time>
      </trkpt>
      <trkpt lat="22.844188" lon="109.024076">
        <ele>110.866619</ele>
        <time>2026-08-14T08:04:21.000Z</time>
      </trkpt>
      <trkpt lat="22.844226" lon="109.024116">
        <ele>110.979679</ele>
        <time>2026-08-14T08:04:22.000Z</time>
      </trkpt>
      <trkpt lat="22.844262" lon="109.024158">
        <ele>111.092563</ele>
        <time>2026-08-14T08:04:23.000Z</time>
      </trkpt>
      <trkpt lat="22.844297" lon="109.024201">
        <ele>111.205471</ele>
        <time>2026-08-14T08:04:24.000Z</time>
      </trkpt>
      <trkpt lat="22.844329" lon="109.024243">
        <ele>111.312720</ele>
        <time>2026-08-14T08:04:25.000Z</time>
      </trkpt>
      <trkpt lat="22.844357" lon="109.024287">
        <ele>111.417953</ele>
        <time>2026-08-14T08:04:26.000Z</time>
      </trkpt>
      <trkpt lat="22.844385" lon="109.024332">
        <ele>111.524811</ele>
        <time>2026-08-14T08:04:27.000Z</time>
      </trkpt>
      <trkpt lat="22.844411" lon="109.024376">
        <ele>111.627677</ele>
        <time>2026-08-14T08:04:28.000Z</time>
      </trkpt>
      <trkpt lat="22.844437" lon="109.024422">
        <ele>111.733878</ele>
        <time>2026-08-14T08:04:29.000Z</time>
      </trkpt>
      <trkpt lat="22.844461" lon="109.024470">
        <ele>111.841352</ele>
        <time>2026-08-14T08:04:30.000Z</time>
      </trkpt>
      <trkpt lat="22.844482" lon="109.024518">
        <ele>111.945922</ele>
        <time>2026-08-14T08:04:31.000Z</time>
      </trkpt>
      <trkpt lat="22.844503" lon="109.024567">
        <ele>112.052274</ele>
        <time>2026-08-14T08:04:32.000Z</time>
      </trkpt>
      <trkpt lat="22.844523" lon="109.024614">
        <ele>112.154157</ele>
        <time>2026-08-14T08:04:33.000Z</time>
      </trkpt>
      <trkpt lat="22.844544" lon="109.024660">
        <ele>112.255186</ele>
        <time>2026-08-14T08:04:34.000Z</time>
      </trkpt>
      <trkpt lat="22.844564" lon="109.024706">
        <ele>112.355285</ele>
        <time>2026-08-14T08:04:35.000Z</time>
      </trkpt>
      <trkpt lat="22.844584" lon="109.024749">
        <ele>112.450078</ele>
        <time>2026-08-14T08:04:36.000Z</time>
      </trkpt>
      <trkpt lat="22.844603" lon="109.024792">
        <ele>112.543928</ele>
        <time>2026-08-14T08:04:37.000Z</time>
      </trkpt>
      <trkpt lat="22.844620" lon="109.024836">
        <ele>112.637824</ele>
        <time>2026-08-14T08:04:38.000Z</time>
      </trkpt>
      <trkpt lat="22.844637" lon="109.024880">
        <ele>112.731720</ele>
        <time>2026-08-14T08:04:39.000Z</time>
      </trkpt>
      <trkpt lat="22.844656" lon="109.024922">
        <ele>112.823800</ele>
        <time>2026-08-14T08:04:40.000Z</time>
      </trkpt>
      <trkpt lat="22.844675" lon="109.024961">
        <ele>112.910618</ele>
        <time>2026-08-14T08:04:41.000Z</time>
      </trkpt>
      <trkpt lat="22.844691" lon="109.024998">
        <ele>112.991054</ele>
        <time>2026-08-14T08:04:42.000Z</time>
      </trkpt>
      <trkpt lat="22.844707" lon="109.025031">
        <ele>113.064439</ele>
        <time>2026-08-14T08:04:43.000Z</time>
      </trkpt>
      <trkpt lat="22.844722" lon="109.025063">
        <ele>113.135095</ele>
        <time>2026-08-14T08:04:44.000Z</time>
      </trkpt>
      <trkpt lat="22.844735" lon="109.025093">
        <ele>113.200337</ele>
        <time>2026-08-14T08:04:45.000Z</time>
      </trkpt>
      <trkpt lat="22.844747" lon="109.025118">
        <ele>113.255812</ele>
        <time>2026-08-14T08:04:46.000Z</time>
      </trkpt>
      <trkpt lat="22.844760" lon="109.025139">
        <ele>113.305600</ele>
        <time>2026-08-14T08:04:47.000Z</time>
      </trkpt>
      <trkpt lat="22.844773" lon="109.025160">
        <ele>113.355387</ele>
        <time>2026-08-14T08:04:48.000Z</time>
      </trkpt>
      <trkpt lat="22.844785" lon="109.025183">
        <ele>113.407403</ele>
        <time>2026-08-14T08:04:49.000Z</time>
      </trkpt>
      <trkpt lat="22.844796" lon="109.025208">
        <ele>113.461924</ele>
        <time>2026-08-14T08:04:50.000Z</time>
      </trkpt>
      <trkpt lat="22.844806" lon="109.025233">
        <ele>113.515559</ele>
        <time>2026-08-14T08:04:51.000Z</time>
      </trkpt>
      <trkpt lat="22.844817" lon="109.025257">
        <ele>113.568311</ele>
        <time>2026-08-14T08:04:52.000Z</time>
      </trkpt>
      <trkpt lat="22.844828" lon="109.025281">
        <ele>113.621063</ele>
        <time>2026-08-14T08:04:53.000Z</time>
      </trkpt>
      <trkpt lat="22.844837" lon="109.025306">
        <ele>113.673885</ele>
        <time>2026-08-14T08:04:54.000Z</time>
      </trkpt>
      <trkpt lat="22.844848" lon="109.025332">
        <ele>113.730188</ele>
        <time>2026-08-14T08:04:55.000Z</time>
      </trkpt>
      <trkpt lat="22.844863" lon="109.025358">
        <ele>113.790557</ele>
        <time>2026-08-14T08:04:56.000Z</time>
      </trkpt>
      <trkpt lat="22.844878" lon="109.025384">
        <ele>113.850926</ele>
        <time>2026-08-14T08:04:57.000Z</time>
      </trkpt>
      <trkpt lat="22.844893" lon="109.025411">
        <ele>113.912972</ele>
        <time>2026-08-14T08:04:58.000Z</time>
      </trkpt>
      <trkpt lat="22.844910" lon="109.025438">
        <ele>113.977326</ele>
        <time>2026-08-14T08:04:59.000Z</time>
      </trkpt>
      <trkpt lat="22.844926" lon="109.025465">
        <ele>114.040501</ele>
        <time>2026-08-14T08:05:00.000Z</time>
      </trkpt>
      <trkpt lat="22.844941" lon="109.025493">
        <ele>114.104240</ele>
        <time>2026-08-14T08:05:01.000Z</time>
      </trkpt>
      <trkpt lat="22.844956" lon="109.025522">
        <ele>114.169688</ele>
        <time>2026-08-14T08:05:02.000Z</time>
      </trkpt>
      <trkpt lat="22.844970" lon="109.025551">
        <ele>114.234118</ele>
        <time>2026-08-14T08:05:03.000Z</time>
      </trkpt>
      <trkpt lat="22.844986" lon="109.025580">
        <ele>114.300637</ele>
        <time>2026-08-14T08:05:04.000Z</time>
      </trkpt>
      <trkpt lat="22.845004" lon="109.025609">
        <ele>114.331982</ele>
        <time>2026-08-14T08:05:05.000Z</time>
      </trkpt>
      <trkpt lat="22.845021" lon="109.025639">
        <ele>114.329736</ele>
        <time>2026-08-14T08:05:06.000Z</time>
      </trkpt>
      <trkpt lat="22.845037" lon="109.025669">
        <ele>114.327526</ele>
        <time>2026-08-14T08:05:07.000Z</time>
      </trkpt>
      <trkpt lat="22.845053" lon="109.025699">
        <ele>114.325315</ele>
        <time>2026-08-14T08:05:08.000Z</time>
      </trkpt>
      <trkpt lat="22.845070" lon="109.025727">
        <ele>114.323177</ele>
        <time>2026-08-14T08:05:09.000Z</time>
      </trkpt>
      <trkpt lat="22.845087" lon="109.025757">
        <ele>114.320930</ele>
        <time>2026-08-14T08:05:10.000Z</time>
      </trkpt>
      <trkpt lat="22.845105" lon="109.025786">
        <ele>114.318701</ele>
        <time>2026-08-14T08:05:11.000Z</time>
      </trkpt>
      <trkpt lat="22.845122" lon="109.025814">
        <ele>114.316562</ele>
        <time>2026-08-14T08:05:12.000Z</time>
      </trkpt>
      <trkpt lat="22.845139" lon="109.025841">
        <ele>114.314477</ele>
        <time>2026-08-14T08:05:13.000Z</time>
      </trkpt>
      <trkpt lat="22.845156" lon="109.025867">
        <ele>114.312443</ele>
        <time>2026-08-14T08:05:14.000Z</time>
      </trkpt>
      <trkpt lat="22.845176" lon="109.025892">
        <ele>114.310332</ele>
        <time>2026-08-14T08:05:15.000Z</time>
      </trkpt>
      <trkpt lat="22.845195" lon="109.025919">
        <ele>114.308165</ele>
        <time>2026-08-14T08:05:16.000Z</time>
      </trkpt>
      <trkpt lat="22.845212" lon="109.025947">
        <ele>114.306027</ele>
        <time>2026-08-14T08:05:17.000Z</time>
      </trkpt>
      <trkpt lat="22.845232" lon="109.025974">
        <ele>114.303817</ele>
        <time>2026-08-14T08:05:18.000Z</time>
      </trkpt>
      <trkpt lat="22.845254" lon="109.026002">
        <ele>114.301471</ele>
        <time>2026-08-14T08:05:19.000Z</time>
      </trkpt>
      <trkpt lat="22.845278" lon="109.026031">
        <ele>114.298985</ele>
        <time>2026-08-14T08:05:20.000Z</time>
      </trkpt>
      <trkpt lat="22.845303" lon="109.026060">
        <ele>114.296452</ele>
        <time>2026-08-14T08:05:21.000Z</time>
      </trkpt>
      <trkpt lat="22.845329" lon="109.026090">
        <ele>114.293826</ele>
        <time>2026-08-14T08:05:22.000Z</time>
      </trkpt>
      <trkpt lat="22.845355" lon="109.026122">
        <ele>114.291105</ele>
        <time>2026-08-14T08:05:23.000Z</time>
      </trkpt>
      <trkpt lat="22.845381" lon="109.026156">
        <ele>114.288287</ele>
        <time>2026-08-14T08:05:24.000Z</time>
      </trkpt>
      <trkpt lat="22.845410" lon="109.026191">
        <ele>114.285285</ele>
        <time>2026-08-14T08:05:25.000Z</time>
      </trkpt>
      <trkpt lat="22.845441" lon="109.026228">
        <ele>114.282096</ele>
        <time>2026-08-14T08:05:26.000Z</time>
      </trkpt>
      <trkpt lat="22.845473" lon="109.026265">
        <ele>114.278860</ele>
        <time>2026-08-14T08:05:27.000Z</time>
      </trkpt>
      <trkpt lat="22.845509" lon="109.026303">
        <ele>114.275384</ele>
        <time>2026-08-14T08:05:28.000Z</time>
      </trkpt>
      <trkpt lat="22.845544" lon="109.026342">
        <ele>114.271912</ele>
        <time>2026-08-14T08:05:29.000Z</time>
      </trkpt>
      <trkpt lat="22.845578" lon="109.026382">
        <ele>114.268442</ele>
        <time>2026-08-14T08:05:30.000Z</time>
      </trkpt>
      <trkpt lat="22.845614" lon="109.026423">
        <ele>114.264830</ele>
        <time>2026-08-14T08:05:31.000Z</time>
      </trkpt>
      <trkpt lat="22.845653" lon="109.026465">
        <ele>114.261027</ele>
        <time>2026-08-14T08:05:32.000Z</time>
      </trkpt>
      <trkpt lat="22.845694" lon="109.026505">
        <ele>114.257212</ele>
        <time>2026-08-14T08:05:33.000Z</time>
      </trkpt>
      <trkpt lat="22.845734" lon="109.026545">
        <ele>114.253447</ele>
        <time>2026-08-14T08:05:34.000Z</time>
      </trkpt>
      <trkpt lat="22.845774" lon="109.026582">
        <ele>114.249810</ele>
        <time>2026-08-14T08:05:35.000Z</time>
      </trkpt>
      <trkpt lat="22.845808" lon="109.026624">
        <ele>114.246244</ele>
        <time>2026-08-14T08:05:36.000Z</time>
      </trkpt>
      <trkpt lat="22.845841" lon="109.026669">
        <ele>114.242577</ele>
        <time>2026-08-14T08:05:37.000Z</time>
      </trkpt>
      <trkpt lat="22.845876" lon="109.026714">
        <ele>114.238821</ele>
        <time>2026-08-14T08:05:38.000Z</time>
      </trkpt>
      <trkpt lat="22.845912" lon="109.026758">
        <ele>114.235069</ele>
        <time>2026-08-14T08:05:39.000Z</time>
      </trkpt>
      <trkpt lat="22.845950" lon="109.026802">
        <ele>114.231223</ele>
        <time>2026-08-14T08:05:40.000Z</time>
      </trkpt>
      <trkpt lat="22.845988" lon="109.026844">
        <ele>114.227469</ele>
        <time>2026-08-14T08:05:41.000Z</time>
      </trkpt>
      <trkpt lat="22.846026" lon="109.026885">
        <ele>114.223760</ele>
        <time>2026-08-14T08:05:42.000Z</time>
      </trkpt>
      <trkpt lat="22.846066" lon="109.026927">
        <ele>114.219908</ele>
        <time>2026-08-14T08:05:43.000Z</time>
      </trkpt>
      <trkpt lat="22.846106" lon="109.026968">
        <ele>114.216100</ele>
        <time>2026-08-14T08:05:44.000Z</time>
      </trkpt>
      <trkpt lat="22.846145" lon="109.027008">
        <ele>114.212386</ele>
        <time>2026-08-14T08:05:45.000Z</time>
      </trkpt>
      <trkpt lat="22.846184" lon="109.027048">
        <ele>114.208845</ele>
        <time>2026-08-14T08:05:46.000Z</time>
      </trkpt>
      <trkpt lat="22.846224" lon="109.027088">
        <ele>114.279789</ele>
        <time>2026-08-14T08:05:47.000Z</time>
      </trkpt>
      <trkpt lat="22.846265" lon="109.027125">
        <ele>114.349339</ele>
        <time>2026-08-14T08:05:48.000Z</time>
      </trkpt>
      <trkpt lat="22.846301" lon="109.027160">
        <ele>114.412381</ele>
        <time>2026-08-14T08:05:49.000Z</time>
      </trkpt>
      <trkpt lat="22.846338" lon="109.027195">
        <ele>114.476400</ele>
        <time>2026-08-14T08:05:50.000Z</time>
      </trkpt>
      <trkpt lat="22.846372" lon="109.027230">
        <ele>114.537524</ele>
        <time>2026-08-14T08:05:51.000Z</time>
      </trkpt>
      <trkpt lat="22.846406" lon="109.027262">
        <ele>114.596224</ele>
        <time>2026-08-14T08:05:52.000Z</time>
      </trkpt>
      <trkpt lat="22.846440" lon="109.027293">
        <ele>114.654145</ele>
        <time>2026-08-14T08:05:53.000Z</time>
      </trkpt>
      <trkpt lat="22.846473" lon="109.027325">
        <ele>114.711866</ele>
        <time>2026-08-14T08:05:54.000Z</time>
      </trkpt>
      <trkpt lat="22.846503" lon="109.027355">
        <ele>114.765074</ele>
        <time>2026-08-14T08:05:55.000Z</time>
      </trkpt>
      <trkpt lat="22.846534" lon="109.027385">
        <ele>114.819249</ele>
        <time>2026-08-14T08:05:56.000Z</time>
      </trkpt>
      <trkpt lat="22.846560" lon="109.027413">
        <ele>114.867025</ele>
        <time>2026-08-14T08:05:57.000Z</time>
      </trkpt>
      <trkpt lat="22.846584" lon="109.027440">
        <ele>114.912113</ele>
        <time>2026-08-14T08:05:58.000Z</time>
      </trkpt>
      <trkpt lat="22.846609" lon="109.027467">
        <ele>114.958116</ele>
        <time>2026-08-14T08:05:59.000Z</time>
      </trkpt>
      <trkpt lat="22.846634" lon="109.027492">
        <ele>115.002457</ele>
        <time>2026-08-14T08:06:00.000Z</time>
      </trkpt>
      <trkpt lat="22.846663" lon="109.027517">
        <ele>115.050763</ele>
        <time>2026-08-14T08:06:01.000Z</time>
      </trkpt>
      <trkpt lat="22.846691" lon="109.027540">
        <ele>115.096565</ele>
        <time>2026-08-14T08:06:02.000Z</time>
      </trkpt>
      <trkpt lat="22.846716" lon="109.027565">
        <ele>115.140905</ele>
        <time>2026-08-14T08:06:03.000Z</time>
      </trkpt>
      <trkpt lat="22.846742" lon="109.027589">
        <ele>115.185425</ele>
        <time>2026-08-14T08:06:04.000Z</time>
      </trkpt>
      <trkpt lat="22.846768" lon="109.027613">
        <ele>115.229945</ele>
        <time>2026-08-14T08:06:05.000Z</time>
      </trkpt>
      <trkpt lat="22.846794" lon="109.027635">
        <ele>115.272947</ele>
        <time>2026-08-14T08:06:06.000Z</time>
      </trkpt>
      <trkpt lat="22.846819" lon="109.027655">
        <ele>115.313456</ele>
        <time>2026-08-14T08:06:07.000Z</time>
      </trkpt>
      <trkpt lat="22.846845" lon="109.027675">
        <ele>115.355023</ele>
        <time>2026-08-14T08:06:08.000Z</time>
      </trkpt>
      <trkpt lat="22.846874" lon="109.027697">
        <ele>115.401172</ele>
        <time>2026-08-14T08:06:09.000Z</time>
      </trkpt>
      <trkpt lat="22.846905" lon="109.027721">
        <ele>115.450839</ele>
        <time>2026-08-14T08:06:10.000Z</time>
      </trkpt>
      <trkpt lat="22.846935" lon="109.027748">
        <ele>115.501673</ele>
        <time>2026-08-14T08:06:11.000Z</time>
      </trkpt>
      <trkpt lat="22.846964" lon="109.027775">
        <ele>115.551510</ele>
        <time>2026-08-14T08:06:12.000Z</time>
      </trkpt>
      <trkpt lat="22.846994" lon="109.027804">
        <ele>115.603912</ele>
        <time>2026-08-14T08:06:13.000Z</time>
      </trkpt>
      <trkpt lat="22.847026" lon="109.027831">
        <ele>115.656780</ele>
        <time>2026-08-14T08:06:14.000Z</time>
      </trkpt>
      <trkpt lat="22.847061" lon="109.027858">
        <ele>115.712788</ele>
        <time>2026-08-14T08:06:15.000Z</time>
      </trkpt>
      <trkpt lat="22.847094" lon="109.027885">
        <ele>115.766692</ele>
        <time>2026-08-14T08:06:16.000Z</time>
      </trkpt>
      <trkpt lat="22.847128" lon="109.027912">
        <ele>115.821642</ele>
        <time>2026-08-14T08:06:17.000Z</time>
      </trkpt>
      <trkpt lat="22.847161" lon="109.027941">
        <ele>115.877026</ele>
        <time>2026-08-14T08:06:18.000Z</time>
      </trkpt>
      <trkpt lat="22.847192" lon="109.027971">
        <ele>115.931201</ele>
        <time>2026-08-14T08:06:19.000Z</time>
      </trkpt>
      <trkpt lat="22.847226" lon="109.028000">
        <ele>115.987604</ele>
        <time>2026-08-14T08:06:20.000Z</time>
      </trkpt>
      <trkpt lat="22.847261" lon="109.028029">
        <ele>116.045039</ele>
        <time>2026-08-14T08:06:21.000Z</time>
      </trkpt>
      <trkpt lat="22.847295" lon="109.028058">
        <ele>116.101442</ele>
        <time>2026-08-14T08:06:22.000Z</time>
      </trkpt>
      <trkpt lat="22.847330" lon="109.028085">
        <ele>116.157451</ele>
        <time>2026-08-14T08:06:23.000Z</time>
      </trkpt>
      <trkpt lat="22.847365" lon="109.028111">
        <ele>116.212771</ele>
        <time>2026-08-14T08:06:24.000Z</time>
      </trkpt>
      <trkpt lat="22.847401" lon="109.028136">
        <ele>116.268516</ele>
        <time>2026-08-14T08:06:25.000Z</time>
      </trkpt>
      <trkpt lat="22.847434" lon="109.028165">
        <ele>116.323900</ele>
        <time>2026-08-14T08:06:26.000Z</time>
      </trkpt>
      <trkpt lat="22.847466" lon="109.028193">
        <ele>116.377514</ele>
        <time>2026-08-14T08:06:27.000Z</time>
      </trkpt>
      <trkpt lat="22.847500" lon="109.028222">
        <ele>116.433917</ele>
        <time>2026-08-14T08:06:28.000Z</time>
      </trkpt>
      <trkpt lat="22.847533" lon="109.028249">
        <ele>116.487821</ele>
        <time>2026-08-14T08:06:29.000Z</time>
      </trkpt>
      <trkpt lat="22.847566" lon="109.028278">
        <ele>116.543205</ele>
        <time>2026-08-14T08:06:30.000Z</time>
      </trkpt>
      <trkpt lat="22.847597" lon="109.028308">
        <ele>116.478434</ele>
        <time>2026-08-14T08:06:31.000Z</time>
      </trkpt>
      <trkpt lat="22.847628" lon="109.028338">
        <ele>116.382117</ele>
        <time>2026-08-14T08:06:32.000Z</time>
      </trkpt>
      <trkpt lat="22.847656" lon="109.028372">
        <ele>116.284679</ele>
        <time>2026-08-14T08:06:33.000Z</time>
      </trkpt>
      <trkpt lat="22.847684" lon="109.028407">
        <ele>116.185638</ele>
        <time>2026-08-14T08:06:34.000Z</time>
      </trkpt>
      <trkpt lat="22.847713" lon="109.028442">
        <ele>116.085061</ele>
        <time>2026-08-14T08:06:35.000Z</time>
      </trkpt>
      <trkpt lat="22.847742" lon="109.028479">
        <ele>115.981266</ele>
        <time>2026-08-14T08:06:36.000Z</time>
      </trkpt>
      <trkpt lat="22.847772" lon="109.028515">
        <ele>115.877550</ele>
        <time>2026-08-14T08:06:37.000Z</time>
      </trkpt>
      <trkpt lat="22.847802" lon="109.028551">
        <ele>115.773833</ele>
        <time>2026-08-14T08:06:38.000Z</time>
      </trkpt>
      <trkpt lat="22.847833" lon="109.028588">
        <ele>115.666976</ele>
        <time>2026-08-14T08:06:39.000Z</time>
      </trkpt>
      <trkpt lat="22.847866" lon="109.028627">
        <ele>115.553835</ele>
        <time>2026-08-14T08:06:40.000Z</time>
      </trkpt>
      <trkpt lat="22.847900" lon="109.028666">
        <ele>115.439113</ele>
        <time>2026-08-14T08:06:41.000Z</time>
      </trkpt>
      <trkpt lat="22.847936" lon="109.028707">
        <ele>115.318099</ele>
        <time>2026-08-14T08:06:42.000Z</time>
      </trkpt>
      <trkpt lat="22.847972" lon="109.028748">
        <ele>115.197085</ele>
        <time>2026-08-14T08:06:43.000Z</time>
      </trkpt>
      <trkpt lat="22.848009" lon="109.028791">
        <ele>115.071370</ele>
        <time>2026-08-14T08:06:44.000Z</time>
      </trkpt>
      <trkpt lat="22.848046" lon="109.028836">
        <ele>114.942499</ele>
        <time>2026-08-14T08:06:45.000Z</time>
      </trkpt>
      <trkpt lat="22.848083" lon="109.028883">
        <ele>114.810409</ele>
        <time>2026-08-14T08:06:46.000Z</time>
      </trkpt>
      <trkpt lat="22.848120" lon="109.028929">
        <ele>114.679935</ele>
        <time>2026-08-14T08:06:47.000Z</time>
      </trkpt>
      <trkpt lat="22.848158" lon="109.028975">
        <ele>114.547926</ele>
        <time>2026-08-14T08:06:48.000Z</time>
      </trkpt>
      <trkpt lat="22.848197" lon="109.029020">
        <ele>114.415922</ele>
        <time>2026-08-14T08:06:49.000Z</time>
      </trkpt>
      <trkpt lat="22.848236" lon="109.029063">
        <ele>114.286998</ele>
        <time>2026-08-14T08:06:50.000Z</time>
      </trkpt>
      <trkpt lat="22.848276" lon="109.029108">
        <ele>114.153395</ele>
        <time>2026-08-14T08:06:51.000Z</time>
      </trkpt>
      <trkpt lat="22.848315" lon="109.029152">
        <ele>114.022940</ele>
        <time>2026-08-14T08:06:52.000Z</time>
      </trkpt>
      <trkpt lat="22.848354" lon="109.029196">
        <ele>113.892484</ele>
        <time>2026-08-14T08:06:53.000Z</time>
      </trkpt>
      <trkpt lat="22.848392" lon="109.029241">
        <ele>113.762058</ele>
        <time>2026-08-14T08:06:54.000Z</time>
      </trkpt>
      <trkpt lat="22.848431" lon="109.029289">
        <ele>113.625314</ele>
        <time>2026-08-14T08:06:55.000Z</time>
      </trkpt>
      <trkpt lat="22.848471" lon="109.029337">
        <ele>113.487025</ele>
        <time>2026-08-14T08:06:56.000Z</time>
      </trkpt>
      <trkpt lat="22.848513" lon="109.029384">
        <ele>113.347126</ele>
        <time>2026-08-14T08:06:57.000Z</time>
      </trkpt>
      <trkpt lat="22.848557" lon="109.029433">
        <ele>113.200930</ele>
        <time>2026-08-14T08:06:58.000Z</time>
      </trkpt>
      <trkpt lat="22.848602" lon="109.029484">
        <ele>113.050049</ele>
        <time>2026-08-14T08:06:59.000Z</time>
      </trkpt>
      <trkpt lat="22.848647" lon="109.029536">
        <ele>112.897617</ele>
        <time>2026-08-14T08:07:00.000Z</time>
      </trkpt>
      <trkpt lat="22.848693" lon="109.029589">
        <ele>112.742040</ele>
        <time>2026-08-14T08:07:01.000Z</time>
      </trkpt>
      <trkpt lat="22.848739" lon="109.029643">
        <ele>112.584901</ele>
        <time>2026-08-14T08:07:02.000Z</time>
      </trkpt>
      <trkpt lat="22.848789" lon="109.029698">
        <ele>112.419809</ele>
        <time>2026-08-14T08:07:03.000Z</time>
      </trkpt>
      <trkpt lat="22.848838" lon="109.029754">
        <ele>112.255834</ele>
        <time>2026-08-14T08:07:04.000Z</time>
      </trkpt>
      <trkpt lat="22.848887" lon="109.029812">
        <ele>112.089048</ele>
        <time>2026-08-14T08:07:05.000Z</time>
      </trkpt>
      <trkpt lat="22.848937" lon="109.029871">
        <ele>111.919146</ele>
        <time>2026-08-14T08:07:06.000Z</time>
      </trkpt>
      <trkpt lat="22.848988" lon="109.029929">
        <ele>111.749217</ele>
        <time>2026-08-14T08:07:07.000Z</time>
      </trkpt>
      <trkpt lat="22.849039" lon="109.029988">
        <ele>111.577749</ele>
        <time>2026-08-14T08:07:08.000Z</time>
      </trkpt>
      <trkpt lat="22.849092" lon="109.030047">
        <ele>111.403102</ele>
        <time>2026-08-14T08:07:09.000Z</time>
      </trkpt>
      <trkpt lat="22.849146" lon="109.030110">
        <ele>111.220728</ele>
        <time>2026-08-14T08:07:10.000Z</time>
      </trkpt>
      <trkpt lat="22.849201" lon="109.030175">
        <ele>111.033679</ele>
        <time>2026-08-14T08:07:11.000Z</time>
      </trkpt>
      <trkpt lat="22.849255" lon="109.030242">
        <ele>110.845008</ele>
        <time>2026-08-14T08:07:12.000Z</time>
      </trkpt>
      <trkpt lat="22.849310" lon="109.030306">
        <ele>110.659515</ele>
        <time>2026-08-14T08:07:13.000Z</time>
      </trkpt>
      <trkpt lat="22.849366" lon="109.030370">
        <ele>110.472446</ele>
        <time>2026-08-14T08:07:14.000Z</time>
      </trkpt>
      <trkpt lat="22.849423" lon="109.030433">
        <ele>110.285304</ele>
        <time>2026-08-14T08:07:15.000Z</time>
      </trkpt>
      <trkpt lat="22.849479" lon="109.030495">
        <ele>110.101286</ele>
        <time>2026-08-14T08:07:16.000Z</time>
      </trkpt>
      <trkpt lat="22.849533" lon="109.030558">
        <ele>109.918912</ele>
        <time>2026-08-14T08:07:17.000Z</time>
      </trkpt>
      <trkpt lat="22.849586" lon="109.030618">
        <ele>109.742741</ele>
        <time>2026-08-14T08:07:18.000Z</time>
      </trkpt>
      <trkpt lat="22.849637" lon="109.030677">
        <ele>109.571273</ele>
        <time>2026-08-14T08:07:19.000Z</time>
      </trkpt>
      <trkpt lat="22.849688" lon="109.030735">
        <ele>109.401346</ele>
        <time>2026-08-14T08:07:20.000Z</time>
      </trkpt>
      <trkpt lat="22.849737" lon="109.030793">
        <ele>109.234561</ele>
        <time>2026-08-14T08:07:21.000Z</time>
      </trkpt>
      <trkpt lat="22.849785" lon="109.030849">
        <ele>109.072451</ele>
        <time>2026-08-14T08:07:22.000Z</time>
      </trkpt>
      <trkpt lat="22.849833" lon="109.030905">
        <ele>108.910341</ele>
        <time>2026-08-14T08:07:23.000Z</time>
      </trkpt>
      <trkpt lat="22.849884" lon="109.030959">
        <ele>108.746443</ele>
        <time>2026-08-14T08:07:24.000Z</time>
      </trkpt>
      <trkpt lat="22.849933" lon="109.031012">
        <ele>108.587308</ele>
        <time>2026-08-14T08:07:25.000Z</time>
      </trkpt>
      <trkpt lat="22.849979" lon="109.031064">
        <ele>108.434521</ele>
        <time>2026-08-14T08:07:26.000Z</time>
      </trkpt>
      <trkpt lat="22.850024" lon="109.031117">
        <ele>108.281765</ele>
        <time>2026-08-14T08:07:27.000Z</time>
      </trkpt>
      <trkpt lat="22.850070" lon="109.031169">
        <ele>108.306634</ele>
        <time>2026-08-14T08:07:28.000Z</time>
      </trkpt>
      <trkpt lat="22.850116" lon="109.031219">
        <ele>108.382952</ele>
        <time>2026-08-14T08:07:29.000Z</time>
      </trkpt>
      <trkpt lat="22.850162" lon="109.031268">
        <ele>108.458509</ele>
        <time>2026-08-14T08:07:30.000Z</time>
      </trkpt>
      <trkpt lat="22.850208" lon="109.031317">
        <ele>108.534066</ele>
        <time>2026-08-14T08:07:31.000Z</time>
      </trkpt>
      <trkpt lat="22.850251" lon="109.031367">
        <ele>108.607941</ele>
        <time>2026-08-14T08:07:32.000Z</time>
      </trkpt>
      <trkpt lat="22.850294" lon="109.031417">
        <ele>108.681815</ele>
        <time>2026-08-14T08:07:33.000Z</time>
      </trkpt>
      <trkpt lat="22.850338" lon="109.031467">
        <ele>108.756495</ele>
        <time>2026-08-14T08:07:34.000Z</time>
      </trkpt>
      <trkpt lat="22.850381" lon="109.031516">
        <ele>108.829584</ele>
        <time>2026-08-14T08:07:35.000Z</time>
      </trkpt>
      <trkpt lat="22.850423" lon="109.031564">
        <ele>108.901082</ele>
        <time>2026-08-14T08:07:36.000Z</time>
      </trkpt>
      <trkpt lat="22.850463" lon="109.031611">
        <ele>108.970190</ele>
        <time>2026-08-14T08:07:37.000Z</time>
      </trkpt>
      <trkpt lat="22.850504" lon="109.031657">
        <ele>109.039317</ele>
        <time>2026-08-14T08:07:38.000Z</time>
      </trkpt>
      <trkpt lat="22.850543" lon="109.031703">
        <ele>109.106836</ele>
        <time>2026-08-14T08:07:39.000Z</time>
      </trkpt>
      <trkpt lat="22.850580" lon="109.031748">
        <ele>109.171980</ele>
        <time>2026-08-14T08:07:40.000Z</time>
      </trkpt>
      <trkpt lat="22.850619" lon="109.031793">
        <ele>109.238707</ele>
        <time>2026-08-14T08:07:41.000Z</time>
      </trkpt>
      <trkpt lat="22.850658" lon="109.031837">
        <ele>109.304652</ele>
        <time>2026-08-14T08:07:42.000Z</time>
      </trkpt>
      <trkpt lat="22.850695" lon="109.031880">
        <ele>109.368201</ele>
        <time>2026-08-14T08:07:43.000Z</time>
      </trkpt>
      <trkpt lat="22.850730" lon="109.031922">
        <ele>109.429367</ele>
        <time>2026-08-14T08:07:44.000Z</time>
      </trkpt>
      <trkpt lat="22.850766" lon="109.031965">
        <ele>109.492121</ele>
        <time>2026-08-14T08:07:45.000Z</time>
      </trkpt>
      <trkpt lat="22.850803" lon="109.032007">
        <ele>109.554885</ele>
        <time>2026-08-14T08:07:46.000Z</time>
      </trkpt>
      <trkpt lat="22.850840" lon="109.032049">
        <ele>109.617648</ele>
        <time>2026-08-14T08:07:47.000Z</time>
      </trkpt>
      <trkpt lat="22.850877" lon="109.032090">
        <ele>109.679634</ele>
        <time>2026-08-14T08:07:48.000Z</time>
      </trkpt>
      <trkpt lat="22.850910" lon="109.032130">
        <ele>109.737627</ele>
        <time>2026-08-14T08:07:49.000Z</time>
      </trkpt>
      <trkpt lat="22.850945" lon="109.032171">
        <ele>109.797997</ele>
        <time>2026-08-14T08:07:50.000Z</time>
      </trkpt>
      <trkpt lat="22.850978" lon="109.032212">
        <ele>109.856798</ele>
        <time>2026-08-14T08:07:51.000Z</time>
      </trkpt>
      <trkpt lat="22.851011" lon="109.032253">
        <ele>109.915600</ele>
        <time>2026-08-14T08:07:52.000Z</time>
      </trkpt>
      <trkpt lat="22.851044" lon="109.032291">
        <ele>109.972001</ele>
        <time>2026-08-14T08:07:53.000Z</time>
      </trkpt>
      <trkpt lat="22.851076" lon="109.032329">
        <ele>110.027605</ele>
        <time>2026-08-14T08:07:54.000Z</time>
      </trkpt>
      <trkpt lat="22.851104" lon="109.032367">
        <ele>110.080160</ele>
        <time>2026-08-14T08:07:55.000Z</time>
      </trkpt>
      <trkpt lat="22.851133" lon="109.032404">
        <ele>110.132628</ele>
        <time>2026-08-14T08:07:56.000Z</time>
      </trkpt>
      <trkpt lat="22.851163" lon="109.032438">
        <ele>110.183475</ele>
        <time>2026-08-14T08:07:57.000Z</time>
      </trkpt>
      <trkpt lat="22.851191" lon="109.032474">
        <ele>110.234360</ele>
        <time>2026-08-14T08:07:58.000Z</time>
      </trkpt>
      <trkpt lat="22.851217" lon="109.032510">
        <ele>110.283767</ele>
        <time>2026-08-14T08:07:59.000Z</time>
      </trkpt>
      <trkpt lat="22.851246" lon="109.032546">
        <ele>110.335416</ele>
        <time>2026-08-14T08:08:00.000Z</time>
      </trkpt>
      <trkpt lat="22.851273" lon="109.032579">
        <ele>110.408709</ele>
        <time>2026-08-14T08:08:01.000Z</time>
      </trkpt>
      <trkpt lat="22.851300" lon="109.032612">
        <ele>110.499844</ele>
        <time>2026-08-14T08:08:02.000Z</time>
      </trkpt>
      <trkpt lat="22.851327" lon="109.032643">
        <ele>110.587933</ele>
        <time>2026-08-14T08:08:03.000Z</time>
      </trkpt>
      <trkpt lat="22.851352" lon="109.032675">
        <ele>110.674571</ele>
        <time>2026-08-14T08:08:04.000Z</time>
      </trkpt>
      <trkpt lat="22.851378" lon="109.032707">
        <ele>110.762674</ele>
        <time>2026-08-14T08:08:05.000Z</time>
      </trkpt>
      <trkpt lat="22.851400" lon="109.032742">
        <ele>110.850168</ele>
        <time>2026-08-14T08:08:06.000Z</time>
      </trkpt>
      <trkpt lat="22.851422" lon="109.032777">
        <ele>110.937661</ele>
        <time>2026-08-14T08:08:07.000Z</time>
      </trkpt>
      <trkpt lat="22.851444" lon="109.032811">
        <ele>111.023457</ele>
        <time>2026-08-14T08:08:08.000Z</time>
      </trkpt>
      <trkpt lat="22.851465" lon="109.032845">
        <ele>111.107984</ele>
        <time>2026-08-14T08:08:09.000Z</time>
      </trkpt>
      <trkpt lat="22.851485" lon="109.032878">
        <ele>111.189552</ele>
        <time>2026-08-14T08:08:10.000Z</time>
      </trkpt>
      <trkpt lat="22.851505" lon="109.032907">
        <ele>111.264355</ele>
        <time>2026-08-14T08:08:11.000Z</time>
      </trkpt>
      <trkpt lat="22.851524" lon="109.032934">
        <ele>111.334512</ele>
        <time>2026-08-14T08:08:12.000Z</time>
      </trkpt>
      <trkpt lat="22.851545" lon="109.032962">
        <ele>111.409067</ele>
        <time>2026-08-14T08:08:13.000Z</time>
      </trkpt>
      <trkpt lat="22.851563" lon="109.032992">
        <ele>111.482996</ele>
        <time>2026-08-14T08:08:14.000Z</time>
      </trkpt>
      <trkpt lat="22.851580" lon="109.033020">
        <ele>111.552242</ele>
        <time>2026-08-14T08:08:15.000Z</time>
      </trkpt>
      <trkpt lat="22.851596" lon="109.033047">
        <ele>111.618535</ele>
        <time>2026-08-14T08:08:16.000Z</time>
      </trkpt>
      <trkpt lat="22.851612" lon="109.033074">
        <ele>111.684828</ele>
        <time>2026-08-14T08:08:17.000Z</time>
      </trkpt>
      <trkpt lat="22.851629" lon="109.033101">
        <ele>111.752359</ele>
        <time>2026-08-14T08:08:18.000Z</time>
      </trkpt>
      <trkpt lat="22.851644" lon="109.033129">
        <ele>111.819244</ele>
        <time>2026-08-14T08:08:19.000Z</time>
      </trkpt>
      <trkpt lat="22.851661" lon="109.033158">
        <ele>111.890223</ele>
        <time>2026-08-14T08:08:20.000Z</time>
      </trkpt>
      <trkpt lat="22.851679" lon="109.033186">
        <ele>111.960727</ele>
        <time>2026-08-14T08:08:21.000Z</time>
      </trkpt>
      <trkpt lat="22.851696" lon="109.033214">
        <ele>112.029973</ele>
        <time>2026-08-14T08:08:22.000Z</time>
      </trkpt>
      <trkpt lat="22.851713" lon="109.033242">
        <ele>112.099219</ele>
        <time>2026-08-14T08:08:23.000Z</time>
      </trkpt>
      <trkpt lat="22.851729" lon="109.033268">
        <ele>112.163784</ele>
        <time>2026-08-14T08:08:24.000Z</time>
      </trkpt>
      <trkpt lat="22.851746" lon="109.033294">
        <ele>112.229621</ele>
        <time>2026-08-14T08:08:25.000Z</time>
      </trkpt>
      <trkpt lat="22.851762" lon="109.033321">
        <ele>112.295913</ele>
        <time>2026-08-14T08:08:26.000Z</time>
      </trkpt>
      <trkpt lat="22.851778" lon="109.033347">
        <ele>112.360478</ele>
        <time>2026-08-14T08:08:27.000Z</time>
      </trkpt>
      <trkpt lat="22.851794" lon="109.033372">
        <ele>112.423337</ele>
        <time>2026-08-14T08:08:28.000Z</time>
      </trkpt>
      <trkpt lat="22.851809" lon="109.033399">
        <ele>112.488445</ele>
        <time>2026-08-14T08:08:29.000Z</time>
      </trkpt>
      <trkpt lat="22.851824" lon="109.033424">
        <ele>112.550052</ele>
        <time>2026-08-14T08:08:30.000Z</time>
      </trkpt>
      <trkpt lat="22.851838" lon="109.033448">
        <ele>112.608711</ele>
        <time>2026-08-14T08:08:31.000Z</time>
      </trkpt>
      <trkpt lat="22.851854" lon="109.033470">
        <ele>112.666589</ele>
        <time>2026-08-14T08:08:32.000Z</time>
      </trkpt>
      <trkpt lat="22.851866" lon="109.033494">
        <ele>112.722978</ele>
        <time>2026-08-14T08:08:33.000Z</time>
      </trkpt>
      <trkpt lat="22.851878" lon="109.033516">
        <ele>112.775773</ele>
        <time>2026-08-14T08:08:34.000Z</time>
      </trkpt>
      <trkpt lat="22.851890" lon="109.033536">
        <ele>112.825059</ele>
        <time>2026-08-14T08:08:35.000Z</time>
      </trkpt>
      <trkpt lat="22.851903" lon="109.033554">
        <ele>112.872287</ele>
        <time>2026-08-14T08:08:36.000Z</time>
      </trkpt>
      <trkpt lat="22.851915" lon="109.033573">
        <ele>112.919856</ele>
        <time>2026-08-14T08:08:37.000Z</time>
      </trkpt>
      <trkpt lat="22.851930" lon="109.033589">
        <ele>112.966992</ele>
        <time>2026-08-14T08:08:38.000Z</time>
      </trkpt>
      <trkpt lat="22.851949" lon="109.033596">
        <ele>113.011958</ele>
        <time>2026-08-14T08:08:39.000Z</time>
      </trkpt>
      <trkpt lat="22.851969" lon="109.033598">
        <ele>113.056969</ele>
        <time>2026-08-14T08:08:40.000Z</time>
      </trkpt>
      <trkpt lat="22.851985" lon="109.033602">
        <ele>113.093764</ele>
        <time>2026-08-14T08:08:41.000Z</time>
      </trkpt>
      <trkpt lat="22.851994" lon="109.033607">
        <ele>113.116423</ele>
        <time>2026-08-14T08:08:42.000Z</time>
      </trkpt>
      <trkpt lat="22.851997" lon="109.033609">
        <ele>113.124314</ele>
        <time>2026-08-14T08:08:43.000Z</time>
      </trkpt>
      <trkpt lat="22.852025" lon="109.033667">
        <ele>113.259532</ele>
        <time>2026-08-14T08:09:34.000Z</time>
      </trkpt>
      <trkpt lat="22.852034" lon="109.033687">
        <ele>113.305496</ele>
        <time>2026-08-14T08:09:35.000Z</time>
      </trkpt>
      <trkpt lat="22.852047" lon="109.033713">
        <ele>113.366584</ele>
        <time>2026-08-14T08:09:36.000Z</time>
      </trkpt>
      <trkpt lat="22.852059" lon="109.033741">
        <ele>113.430356</ele>
        <time>2026-08-14T08:09:37.000Z</time>
      </trkpt>
      <trkpt lat="22.852071" lon="109.033771">
        <ele>113.497894</ele>
        <time>2026-08-14T08:09:38.000Z</time>
      </trkpt>
      <trkpt lat="22.852084" lon="109.033801">
        <ele>113.566356</ele>
        <time>2026-08-14T08:09:39.000Z</time>
      </trkpt>
      <trkpt lat="22.852099" lon="109.033832">
        <ele>113.638664</ele>
        <time>2026-08-14T08:09:40.000Z</time>
      </trkpt>
      <trkpt lat="22.852116" lon="109.033863">
        <ele>113.713162</ele>
        <time>2026-08-14T08:09:41.000Z</time>
      </trkpt>
      <trkpt lat="22.852132" lon="109.033897">
        <ele>113.792002</ele>
        <time>2026-08-14T08:09:42.000Z</time>
      </trkpt>
      <trkpt lat="22.852149" lon="109.033931">
        <ele>113.871886</ele>
        <time>2026-08-14T08:09:43.000Z</time>
      </trkpt>
      <trkpt lat="22.852171" lon="109.033966">
        <ele>113.959379</ele>
        <time>2026-08-14T08:09:44.000Z</time>
      </trkpt>
      <trkpt lat="22.852191" lon="109.034004">
        <ele>114.049751</ele>
        <time>2026-08-14T08:09:45.000Z</time>
      </trkpt>
      <trkpt lat="22.852212" lon="109.034043">
        <ele>114.143033</ele>
        <time>2026-08-14T08:09:46.000Z</time>
      </trkpt>
      <trkpt lat="22.852233" lon="109.034082">
        <ele>114.236315</ele>
        <time>2026-08-14T08:09:47.000Z</time>
      </trkpt>
      <trkpt lat="22.852256" lon="109.034121">
        <ele>114.331936</ele>
        <time>2026-08-14T08:09:48.000Z</time>
      </trkpt>
      <trkpt lat="22.852279" lon="109.034161">
        <ele>114.325205</ele>
        <time>2026-08-14T08:09:49.000Z</time>
      </trkpt>
      <trkpt lat="22.852302" lon="109.034200">
        <ele>114.192067</ele>
        <time>2026-08-14T08:09:50.000Z</time>
      </trkpt>
      <trkpt lat="22.852323" lon="109.034239">
        <ele>114.062187</ele>
        <time>2026-08-14T08:09:51.000Z</time>
      </trkpt>
      <trkpt lat="22.852344" lon="109.034281">
        <ele>113.924790</ele>
        <time>2026-08-14T08:09:52.000Z</time>
      </trkpt>
      <trkpt lat="22.852365" lon="109.034321">
        <ele>113.792419</ele>
        <time>2026-08-14T08:09:53.000Z</time>
      </trkpt>
      <trkpt lat="22.852385" lon="109.034361">
        <ele>113.661565</ele>
        <time>2026-08-14T08:09:54.000Z</time>
      </trkpt>
      <trkpt lat="22.852406" lon="109.034402">
        <ele>113.526688</ele>
        <time>2026-08-14T08:09:55.000Z</time>
      </trkpt>
      <trkpt lat="22.852429" lon="109.034442">
        <ele>113.391119</ele>
        <time>2026-08-14T08:09:56.000Z</time>
      </trkpt>
      <trkpt lat="22.852452" lon="109.034484">
        <ele>113.250639</ele>
        <time>2026-08-14T08:09:57.000Z</time>
      </trkpt>
      <trkpt lat="22.852475" lon="109.034527">
        <ele>113.107679</ele>
        <time>2026-08-14T08:09:58.000Z</time>
      </trkpt>
      <trkpt lat="22.852500" lon="109.034572">
        <ele>112.956592</ele>
        <time>2026-08-14T08:09:59.000Z</time>
      </trkpt>
      <trkpt lat="22.852524" lon="109.034617">
        <ele>112.807093</ele>
        <time>2026-08-14T08:10:00.000Z</time>
      </trkpt>
      <trkpt lat="22.852550" lon="109.034663">
        <ele>112.651928</ele>
        <time>2026-08-14T08:10:01.000Z</time>
      </trkpt>
      <trkpt lat="22.852577" lon="109.034711">
        <ele>112.490229</ele>
        <time>2026-08-14T08:10:02.000Z</time>
      </trkpt>
      <trkpt lat="22.852605" lon="109.034762">
        <ele>112.319532</ele>
        <time>2026-08-14T08:10:03.000Z</time>
      </trkpt>
      <trkpt lat="22.852634" lon="109.034815">
        <ele>112.142297</ele>
        <time>2026-08-14T08:10:04.000Z</time>
      </trkpt>
      <trkpt lat="22.852664" lon="109.034869">
        <ele>111.960993</ele>
        <time>2026-08-14T08:10:05.000Z</time>
      </trkpt>
      <trkpt lat="22.852695" lon="109.034926">
        <ele>111.770682</ele>
        <time>2026-08-14T08:10:06.000Z</time>
      </trkpt>
      <trkpt lat="22.852726" lon="109.034984">
        <ele>111.577890</ele>
        <time>2026-08-14T08:10:07.000Z</time>
      </trkpt>
      <trkpt lat="22.852760" lon="109.035043">
        <ele>111.377802</ele>
        <time>2026-08-14T08:10:08.000Z</time>
      </trkpt>
      <trkpt lat="22.852794" lon="109.035104">
        <ele>111.172817</ele>
        <time>2026-08-14T08:10:09.000Z</time>
      </trkpt>
      <trkpt lat="22.852830" lon="109.035166">
        <ele>110.962106</ele>
        <time>2026-08-14T08:10:10.000Z</time>
      </trkpt>
      <trkpt lat="22.852866" lon="109.035230">
        <ele>110.746508</ele>
        <time>2026-08-14T08:10:11.000Z</time>
      </trkpt>
      <trkpt lat="22.852904" lon="109.035293">
        <ele>110.530005</ele>
        <time>2026-08-14T08:10:12.000Z</time>
      </trkpt>
      <trkpt lat="22.852943" lon="109.035359">
        <ele>110.304566</ele>
        <time>2026-08-14T08:10:13.000Z</time>
      </trkpt>
      <trkpt lat="22.852982" lon="109.035427">
        <ele>110.074265</ele>
        <time>2026-08-14T08:10:14.000Z</time>
      </trkpt>
      <trkpt lat="22.853020" lon="109.035497">
        <ele>109.840662</ele>
        <time>2026-08-14T08:10:15.000Z</time>
      </trkpt>
      <trkpt lat="22.853059" lon="109.035569">
        <ele>109.600520</ele>
        <time>2026-08-14T08:10:16.000Z</time>
      </trkpt>
      <trkpt lat="22.853098" lon="109.035642">
        <ele>109.357894</ele>
        <time>2026-08-14T08:10:17.000Z</time>
      </trkpt>
      <trkpt lat="22.853137" lon="109.035713">
        <ele>109.120226</ele>
        <time>2026-08-14T08:10:18.000Z</time>
      </trkpt>
      <trkpt lat="22.853178" lon="109.035784">
        <ele>108.879304</ele>
        <time>2026-08-14T08:10:19.000Z</time>
      </trkpt>
      <trkpt lat="22.853219" lon="109.035855">
        <ele>108.760392</ele>
        <time>2026-08-14T08:10:20.000Z</time>
      </trkpt>
      <trkpt lat="22.853260" lon="109.035926">
        <ele>108.736999</ele>
        <time>2026-08-14T08:10:21.000Z</time>
      </trkpt>
      <trkpt lat="22.853300" lon="109.035997">
        <ele>108.713766</ele>
        <time>2026-08-14T08:10:22.000Z</time>
      </trkpt>
      <trkpt lat="22.853339" lon="109.036066">
        <ele>108.691167</ele>
        <time>2026-08-14T08:10:23.000Z</time>
      </trkpt>
      <trkpt lat="22.853378" lon="109.036134">
        <ele>108.668806</ele>
        <time>2026-08-14T08:10:24.000Z</time>
      </trkpt>
      <trkpt lat="22.853416" lon="109.036202">
        <ele>108.646603</ele>
        <time>2026-08-14T08:10:25.000Z</time>
      </trkpt>
      <trkpt lat="22.853455" lon="109.036270">
        <ele>108.624242</ele>
        <time>2026-08-14T08:10:26.000Z</time>
      </trkpt>
      <trkpt lat="22.853493" lon="109.036336">
        <ele>108.602515</ele>
        <time>2026-08-14T08:10:27.000Z</time>
      </trkpt>
      <trkpt lat="22.853531" lon="109.036400">
        <ele>108.581259</ele>
        <time>2026-08-14T08:10:28.000Z</time>
      </trkpt>
      <trkpt lat="22.853568" lon="109.036463">
        <ele>108.560402</ele>
        <time>2026-08-14T08:10:29.000Z</time>
      </trkpt>
      <trkpt lat="22.853604" lon="109.036526">
        <ele>108.539706</ele>
        <time>2026-08-14T08:10:30.000Z</time>
      </trkpt>
      <trkpt lat="22.853639" lon="109.036589">
        <ele>108.519168</ele>
        <time>2026-08-14T08:10:31.000Z</time>
      </trkpt>
      <trkpt lat="22.853674" lon="109.036651">
        <ele>108.498869</ele>
        <time>2026-08-14T08:10:32.000Z</time>
      </trkpt>
      <trkpt lat="22.853710" lon="109.036711">
        <ele>108.478880</ele>
        <time>2026-08-14T08:10:33.000Z</time>
      </trkpt>
      <trkpt lat="22.853745" lon="109.036771">
        <ele>108.459054</ele>
        <time>2026-08-14T08:10:34.000Z</time>
      </trkpt>
      <trkpt lat="22.853779" lon="109.036830">
        <ele>108.439627</ele>
        <time>2026-08-14T08:10:35.000Z</time>
      </trkpt>
      <trkpt lat="22.853812" lon="109.036889">
        <ele>108.420358</ele>
        <time>2026-08-14T08:10:36.000Z</time>
      </trkpt>
      <trkpt lat="22.853845" lon="109.036947">
        <ele>108.401327</ele>
        <time>2026-08-14T08:10:37.000Z</time>
      </trkpt>
      <trkpt lat="22.853878" lon="109.037004">
        <ele>108.382534</ele>
        <time>2026-08-14T08:10:38.000Z</time>
      </trkpt>
      <trkpt lat="22.853911" lon="109.037059">
        <ele>108.364211</ele>
        <time>2026-08-14T08:10:39.000Z</time>
      </trkpt>
      <trkpt lat="22.853944" lon="109.037114">
        <ele>108.345887</ele>
        <time>2026-08-14T08:10:40.000Z</time>
      </trkpt>
      <trkpt lat="22.853976" lon="109.037167">
        <ele>108.328197</ele>
        <time>2026-08-14T08:10:41.000Z</time>
      </trkpt>
      <trkpt lat="22.854008" lon="109.037221">
        <ele>108.310273</ele>
        <time>2026-08-14T08:10:42.000Z</time>
      </trkpt>
      <trkpt lat="22.854037" lon="109.037275">
        <ele>108.292824</ele>
        <time>2026-08-14T08:10:43.000Z</time>
      </trkpt>
      <trkpt lat="22.854065" lon="109.037326">
        <ele>108.276250</ele>
        <time>2026-08-14T08:10:44.000Z</time>
      </trkpt>
      <trkpt lat="22.854095" lon="109.037375">
        <ele>108.259826</ele>
        <time>2026-08-14T08:10:45.000Z</time>
      </trkpt>
      <trkpt lat="22.854123" lon="109.037425">
        <ele>108.243491</ele>
        <time>2026-08-14T08:10:46.000Z</time>
      </trkpt>
      <trkpt lat="22.854151" lon="109.037474">
        <ele>108.234912</ele>
        <time>2026-08-14T08:10:47.000Z</time>
      </trkpt>
      <trkpt lat="22.854179" lon="109.037523">
        <ele>108.320787</ele>
        <time>2026-08-14T08:10:48.000Z</time>
      </trkpt>
      <trkpt lat="22.854206" lon="109.037571">
        <ele>108.404546</ele>
        <time>2026-08-14T08:10:49.000Z</time>
      </trkpt>
      <trkpt lat="22.854233" lon="109.037617">
        <ele>108.485778</ele>
        <time>2026-08-14T08:10:50.000Z</time>
      </trkpt>
      <trkpt lat="22.854260" lon="109.037661">
        <ele>108.564513</ele>
        <time>2026-08-14T08:10:51.000Z</time>
      </trkpt>
      <trkpt lat="22.854286" lon="109.037705">
        <ele>108.642365</ele>
        <time>2026-08-14T08:10:52.000Z</time>
      </trkpt>
      <trkpt lat="22.854311" lon="109.037747">
        <ele>108.716836</ele>
        <time>2026-08-14T08:10:53.000Z</time>
      </trkpt>
      <trkpt lat="22.854336" lon="109.037789">
        <ele>108.791308</ele>
        <time>2026-08-14T08:10:54.000Z</time>
      </trkpt>
      <trkpt lat="22.854359" lon="109.037831">
        <ele>108.864076</ele>
        <time>2026-08-14T08:10:55.000Z</time>
      </trkpt>
      <trkpt lat="22.854383" lon="109.037871">
        <ele>108.935169</ele>
        <time>2026-08-14T08:10:56.000Z</time>
      </trkpt>
      <trkpt lat="22.854406" lon="109.037908">
        <ele>109.001644</ele>
        <time>2026-08-14T08:10:57.000Z</time>
      </trkpt>
      <trkpt lat="22.854428" lon="109.037943">
        <ele>109.064747</ele>
        <time>2026-08-14T08:10:58.000Z</time>
      </trkpt>
      <trkpt lat="22.854450" lon="109.037976">
        <ele>109.125412</ele>
        <time>2026-08-14T08:10:59.000Z</time>
      </trkpt>
      <trkpt lat="22.854470" lon="109.038009">
        <ele>109.184241</ele>
        <time>2026-08-14T08:11:00.000Z</time>
      </trkpt>
      <trkpt lat="22.854489" lon="109.038041">
        <ele>109.240939</ele>
        <time>2026-08-14T08:11:01.000Z</time>
      </trkpt>
      <trkpt lat="22.854507" lon="109.038072">
        <ele>109.295513</ele>
        <time>2026-08-14T08:11:02.000Z</time>
      </trkpt>
      <trkpt lat="22.854525" lon="109.038103">
        <ele>109.350087</ele>
        <time>2026-08-14T08:11:03.000Z</time>
      </trkpt>
      <trkpt lat="22.854543" lon="109.038133">
        <ele>109.403406</ele>
        <time>2026-08-14T08:11:04.000Z</time>
      </trkpt>
      <trkpt lat="22.854561" lon="109.038164">
        <ele>109.457980</ele>
        <time>2026-08-14T08:11:05.000Z</time>
      </trkpt>
      <trkpt lat="22.854579" lon="109.038196">
        <ele>109.513820</ele>
        <time>2026-08-14T08:11:06.000Z</time>
      </trkpt>
      <trkpt lat="22.854598" lon="109.038228">
        <ele>109.570518</ele>
        <time>2026-08-14T08:11:07.000Z</time>
      </trkpt>
      <trkpt lat="22.854616" lon="109.038261">
        <ele>109.627634</ele>
        <time>2026-08-14T08:11:08.000Z</time>
      </trkpt>
      <trkpt lat="22.854635" lon="109.038293">
        <ele>109.684333</ele>
        <time>2026-08-14T08:11:09.000Z</time>
      </trkpt>
      <trkpt lat="22.854653" lon="109.038325">
        <ele>109.740172</ele>
        <time>2026-08-14T08:11:10.000Z</time>
      </trkpt>
      <trkpt lat="22.854673" lon="109.038355">
        <ele>109.795322</ele>
        <time>2026-08-14T08:11:11.000Z</time>
      </trkpt>
      <trkpt lat="22.854695" lon="109.038383">
        <ele>109.850128</ele>
        <time>2026-08-14T08:11:12.000Z</time>
      </trkpt>
      <trkpt lat="22.854719" lon="109.038406">
        <ele>109.901880</ele>
        <time>2026-08-14T08:11:13.000Z</time>
      </trkpt>
      <trkpt lat="22.854744" lon="109.038426">
        <ele>109.952081</ele>
        <time>2026-08-14T08:11:14.000Z</time>
      </trkpt>
      <trkpt lat="22.854768" lon="109.038441">
        <ele>109.996846</ele>
        <time>2026-08-14T08:11:15.000Z</time>
      </trkpt>
      <trkpt lat="22.854791" lon="109.038454">
        <ele>110.038761</ele>
        <time>2026-08-14T08:11:16.000Z</time>
      </trkpt>
      <trkpt lat="22.854812" lon="109.038465">
        <ele>110.076451</ele>
        <time>2026-08-14T08:11:17.000Z</time>
      </trkpt>
      <trkpt lat="22.854832" lon="109.038476">
        <ele>110.112692</ele>
        <time>2026-08-14T08:11:18.000Z</time>
      </trkpt>
      <trkpt lat="22.854850" lon="109.038483">
        <ele>110.143597</ele>
        <time>2026-08-14T08:11:19.000Z</time>
      </trkpt>
      <trkpt lat="22.854863" lon="109.038485">
        <ele>110.164820</ele>
        <time>2026-08-14T08:11:20.000Z</time>
      </trkpt>
      <trkpt lat="22.854868" lon="109.038486">
        <ele>110.173037</ele>
        <time>2026-08-14T08:11:21.000Z</time>
      </trkpt>
      <trkpt lat="22.854836" lon="109.038519">
        <ele>110.244388</ele>
        <time>2026-08-14T08:15:49.000Z</time>
      </trkpt>
      <trkpt lat="22.854828" lon="109.038531">
        <ele>110.266448</ele>
        <time>2026-08-14T08:15:50.000Z</time>
      </trkpt>
      <trkpt lat="22.854823" lon="109.038549">
        <ele>110.294449</ele>
        <time>2026-08-14T08:15:51.000Z</time>
      </trkpt>
      <trkpt lat="22.854828" lon="109.038567">
        <ele>110.322450</ele>
        <time>2026-08-14T08:15:52.000Z</time>
      </trkpt>
      <trkpt lat="22.854837" lon="109.038585">
        <ele>110.352952</ele>
        <time>2026-08-14T08:15:53.000Z</time>
      </trkpt>
      <trkpt lat="22.854849" lon="109.038603">
        <ele>110.386042</ele>
        <time>2026-08-14T08:15:54.000Z</time>
      </trkpt>
      <trkpt lat="22.854862" lon="109.038623">
        <ele>110.422496</ele>
        <time>2026-08-14T08:15:55.000Z</time>
      </trkpt>
      <trkpt lat="22.854875" lon="109.038645">
        <ele>110.461421</ele>
        <time>2026-08-14T08:15:56.000Z</time>
      </trkpt>
      <trkpt lat="22.854888" lon="109.038668">
        <ele>110.501609</ele>
        <time>2026-08-14T08:15:57.000Z</time>
      </trkpt>
      <trkpt lat="22.854903" lon="109.038697">
        <ele>110.551141</ele>
        <time>2026-08-14T08:15:58.000Z</time>
      </trkpt>
      <trkpt lat="22.854919" lon="109.038727">
        <ele>110.602768</ele>
        <time>2026-08-14T08:15:59.000Z</time>
      </trkpt>
      <trkpt lat="22.854939" lon="109.038756">
        <ele>110.656718</ele>
        <time>2026-08-14T08:16:00.000Z</time>
      </trkpt>
      <trkpt lat="22.854960" lon="109.038785">
        <ele>110.711652</ele>
        <time>2026-08-14T08:16:01.000Z</time>
      </trkpt>
      <trkpt lat="22.854980" lon="109.038817">
        <ele>110.769242</ele>
        <time>2026-08-14T08:16:02.000Z</time>
      </trkpt>
      <trkpt lat="22.855000" lon="109.038848">
        <ele>110.825605</ele>
        <time>2026-08-14T08:16:03.000Z</time>
      </trkpt>
      <trkpt lat="22.855022" lon="109.038879">
        <ele>110.883883</ele>
        <time>2026-08-14T08:16:04.000Z</time>
      </trkpt>
      <trkpt lat="22.855045" lon="109.038911">
        <ele>110.944328</ele>
        <time>2026-08-14T08:16:05.000Z</time>
      </trkpt>
      <trkpt lat="22.855067" lon="109.038942">
        <ele>111.002605</ele>
        <time>2026-08-14T08:16:06.000Z</time>
      </trkpt>
      <trkpt lat="22.855090" lon="109.038974">
        <ele>111.063050</ele>
        <time>2026-08-14T08:16:07.000Z</time>
      </trkpt>
      <trkpt lat="22.855112" lon="109.039007">
        <ele>111.123715</ele>
        <time>2026-08-14T08:16:08.000Z</time>
      </trkpt>
      <trkpt lat="22.855134" lon="109.039040">
        <ele>111.155722</ele>
        <time>2026-08-14T08:16:09.000Z</time>
      </trkpt>
      <trkpt lat="22.855156" lon="109.039075">
        <ele>111.181637</ele>
        <time>2026-08-14T08:16:10.000Z</time>
      </trkpt>
      <trkpt lat="22.855178" lon="109.039109">
        <ele>111.207050</ele>
        <time>2026-08-14T08:16:11.000Z</time>
      </trkpt>
      <trkpt lat="22.855200" lon="109.039144">
        <ele>111.232966</ele>
        <time>2026-08-14T08:16:12.000Z</time>
      </trkpt>
      <trkpt lat="22.855223" lon="109.039179">
        <ele>111.259261</ele>
        <time>2026-08-14T08:16:13.000Z</time>
      </trkpt>
      <trkpt lat="22.855246" lon="109.039214">
        <ele>111.285556</ele>
        <time>2026-08-14T08:16:14.000Z</time>
      </trkpt>
      <trkpt lat="22.855269" lon="109.039249">
        <ele>111.311852</ele>
        <time>2026-08-14T08:16:15.000Z</time>
      </trkpt>
      <trkpt lat="22.855293" lon="109.039284">
        <ele>111.338538</ele>
        <time>2026-08-14T08:16:16.000Z</time>
      </trkpt>
      <trkpt lat="22.855317" lon="109.039319">
        <ele>111.365224</ele>
        <time>2026-08-14T08:16:17.000Z</time>
      </trkpt>
      <trkpt lat="22.855342" lon="109.039356">
        <ele>111.393289</ele>
        <time>2026-08-14T08:16:18.000Z</time>
      </trkpt>
      <trkpt lat="22.855367" lon="109.039395">
        <ele>111.422349</ele>
        <time>2026-08-14T08:16:19.000Z</time>
      </trkpt>
      <trkpt lat="22.855393" lon="109.039434">
        <ele>111.451794</ele>
        <time>2026-08-14T08:16:20.000Z</time>
      </trkpt>
      <trkpt lat="22.855419" lon="109.039473">
        <ele>111.481238</ele>
        <time>2026-08-14T08:16:21.000Z</time>
      </trkpt>
      <trkpt lat="22.855445" lon="109.039512">
        <ele>111.510683</ele>
        <time>2026-08-14T08:16:22.000Z</time>
      </trkpt>
      <trkpt lat="22.855471" lon="109.039552">
        <ele>111.540625</ele>
        <time>2026-08-14T08:16:23.000Z</time>
      </trkpt>
      <trkpt lat="22.855498" lon="109.039592">
        <ele>111.570954</ele>
        <time>2026-08-14T08:16:24.000Z</time>
      </trkpt>
      <trkpt lat="22.855525" lon="109.039631">
        <ele>111.600793</ele>
        <time>2026-08-14T08:16:25.000Z</time>
      </trkpt>
      <trkpt lat="22.855551" lon="109.039672">
        <ele>111.631237</ele>
        <time>2026-08-14T08:16:26.000Z</time>
      </trkpt>
      <trkpt lat="22.855578" lon="109.039711">
        <ele>111.661075</ele>
        <time>2026-08-14T08:16:27.000Z</time>
      </trkpt>
      <trkpt lat="22.855604" lon="109.039750">
        <ele>111.690519</ele>
        <time>2026-08-14T08:16:28.000Z</time>
      </trkpt>
      <trkpt lat="22.855630" lon="109.039791">
        <ele>111.720963</ele>
        <time>2026-08-14T08:16:29.000Z</time>
      </trkpt>
      <trkpt lat="22.855657" lon="109.039833">
        <ele>111.752288</ele>
        <time>2026-08-14T08:16:30.000Z</time>
      </trkpt>
      <trkpt lat="22.855682" lon="109.039875">
        <ele>111.782873</ele>
        <time>2026-08-14T08:16:31.000Z</time>
      </trkpt>
      <trkpt lat="22.855708" lon="109.039917">
        <ele>111.813823</ele>
        <time>2026-08-14T08:16:32.000Z</time>
      </trkpt>
      <trkpt lat="22.855735" lon="109.039956">
        <ele>111.843661</ele>
        <time>2026-08-14T08:16:33.000Z</time>
      </trkpt>
      <trkpt lat="22.855761" lon="109.039995">
        <ele>111.873105</ele>
        <time>2026-08-14T08:16:34.000Z</time>
      </trkpt>
      <trkpt lat="22.855786" lon="109.040035">
        <ele>111.902670</ele>
        <time>2026-08-14T08:16:35.000Z</time>
      </trkpt>
      <trkpt lat="22.855812" lon="109.040075">
        <ele>111.932612</ele>
        <time>2026-08-14T08:16:36.000Z</time>
      </trkpt>
      <trkpt lat="22.855839" lon="109.040115">
        <ele>111.962941</ele>
        <time>2026-08-14T08:16:37.000Z</time>
      </trkpt>
      <trkpt lat="22.855865" lon="109.040154">
        <ele>111.992386</ele>
        <time>2026-08-14T08:16:38.000Z</time>
      </trkpt>
      <trkpt lat="22.855890" lon="109.040194">
        <ele>112.021950</ele>
        <time>2026-08-14T08:16:39.000Z</time>
      </trkpt>
      <trkpt lat="22.855916" lon="109.040234">
        <ele>112.051892</ele>
        <time>2026-08-14T08:16:40.000Z</time>
      </trkpt>
      <trkpt lat="22.855943" lon="109.040274">
        <ele>112.082222</ele>
        <time>2026-08-14T08:16:41.000Z</time>
      </trkpt>
      <trkpt lat="22.855970" lon="109.040316">
        <ele>112.113547</ele>
        <time>2026-08-14T08:16:42.000Z</time>
      </trkpt>
      <trkpt lat="22.855995" lon="109.040357">
        <ele>112.143619</ele>
        <time>2026-08-14T08:16:43.000Z</time>
      </trkpt>
      <trkpt lat="22.856022" lon="109.040398">
        <ele>112.174444</ele>
        <time>2026-08-14T08:16:44.000Z</time>
      </trkpt>
      <trkpt lat="22.856049" lon="109.040438">
        <ele>112.204774</ele>
        <time>2026-08-14T08:16:45.000Z</time>
      </trkpt>
      <trkpt lat="22.856076" lon="109.040478">
        <ele>112.235103</ele>
        <time>2026-08-14T08:16:46.000Z</time>
      </trkpt>
      <trkpt lat="22.856102" lon="109.040518">
        <ele>112.265045</ele>
        <time>2026-08-14T08:16:47.000Z</time>
      </trkpt>
      <trkpt lat="22.856130" lon="109.040558">
        <ele>112.295772</ele>
        <time>2026-08-14T08:16:48.000Z</time>
      </trkpt>
      <trkpt lat="22.856158" lon="109.040598">
        <ele>112.326498</ele>
        <time>2026-08-14T08:16:49.000Z</time>
      </trkpt>
      <trkpt lat="22.856184" lon="109.040638">
        <ele>112.296701</ele>
        <time>2026-08-14T08:16:50.000Z</time>
      </trkpt>
      <trkpt lat="22.856210" lon="109.040678">
        <ele>112.259755</ele>
        <time>2026-08-14T08:16:51.000Z</time>
      </trkpt>
      <trkpt lat="22.856236" lon="109.040716">
        <ele>112.224031</ele>
        <time>2026-08-14T08:16:52.000Z</time>
      </trkpt>
      <trkpt lat="22.856263" lon="109.040753">
        <ele>112.188408</ele>
        <time>2026-08-14T08:16:53.000Z</time>
      </trkpt>
      <trkpt lat="22.856289" lon="109.040788">
        <ele>112.154475</ele>
        <time>2026-08-14T08:16:54.000Z</time>
      </trkpt>
      <trkpt lat="22.856312" lon="109.040822">
        <ele>112.122640</ele>
        <time>2026-08-14T08:16:55.000Z</time>
      </trkpt>
      <trkpt lat="22.856335" lon="109.040855">
        <ele>112.091410</ele>
        <time>2026-08-14T08:16:56.000Z</time>
      </trkpt>
      <trkpt lat="22.856357" lon="109.040888">
        <ele>112.060667</ele>
        <time>2026-08-14T08:16:57.000Z</time>
      </trkpt>
      <trkpt lat="22.856379" lon="109.040920">
        <ele>112.030532</ele>
        <time>2026-08-14T08:16:58.000Z</time>
      </trkpt>
      <trkpt lat="22.856402" lon="109.040954">
        <ele>111.998697</ele>
        <time>2026-08-14T08:16:59.000Z</time>
      </trkpt>
      <trkpt lat="22.856424" lon="109.040989">
        <ele>111.966719</ele>
        <time>2026-08-14T08:17:00.000Z</time>
      </trkpt>
      <trkpt lat="22.856447" lon="109.041023">
        <ele>111.934884</ele>
        <time>2026-08-14T08:17:01.000Z</time>
      </trkpt>
      <trkpt lat="22.856469" lon="109.041056">
        <ele>111.904141</ele>
        <time>2026-08-14T08:17:02.000Z</time>
      </trkpt>
      <trkpt lat="22.856490" lon="109.041089">
        <ele>111.873871</ele>
        <time>2026-08-14T08:17:03.000Z</time>
      </trkpt>
      <trkpt lat="22.856512" lon="109.041122">
        <ele>111.843128</ele>
        <time>2026-08-14T08:17:04.000Z</time>
      </trkpt>
      <trkpt lat="22.856536" lon="109.041157">
        <ele>111.810199</ele>
        <time>2026-08-14T08:17:05.000Z</time>
      </trkpt>
      <trkpt lat="22.856561" lon="109.041194">
        <ele>111.775569</ele>
        <time>2026-08-14T08:17:06.000Z</time>
      </trkpt>
      <trkpt lat="22.856587" lon="109.041232">
        <ele>111.739845</ele>
        <time>2026-08-14T08:17:07.000Z</time>
      </trkpt>
      <trkpt lat="22.856614" lon="109.041271">
        <ele>111.703027</ele>
        <time>2026-08-14T08:17:08.000Z</time>
      </trkpt>
      <trkpt lat="22.856642" lon="109.041313">
        <ele>111.663899</ele>
        <time>2026-08-14T08:17:09.000Z</time>
      </trkpt>
      <trkpt lat="22.856671" lon="109.041356">
        <ele>111.623680</ele>
        <time>2026-08-14T08:17:10.000Z</time>
      </trkpt>
      <trkpt lat="22.856702" lon="109.041399">
        <ele>111.582472</ele>
        <time>2026-08-14T08:17:11.000Z</time>
      </trkpt>
      <trkpt lat="22.856732" lon="109.041443">
        <ele>111.541159</ele>
        <time>2026-08-14T08:17:12.000Z</time>
      </trkpt>
      <trkpt lat="22.856763" lon="109.041490">
        <ele>111.497533</ele>
        <time>2026-08-14T08:17:13.000Z</time>
      </trkpt>
      <trkpt lat="22.856793" lon="109.041537">
        <ele>111.454379</ele>
        <time>2026-08-14T08:17:14.000Z</time>
      </trkpt>
      <trkpt lat="22.856824" lon="109.041584">
        <ele>111.410753</ele>
        <time>2026-08-14T08:17:15.000Z</time>
      </trkpt>
      <trkpt lat="22.856855" lon="109.041632">
        <ele>111.366512</ele>
        <time>2026-08-14T08:17:16.000Z</time>
      </trkpt>
      <trkpt lat="22.856887" lon="109.041679">
        <ele>111.322404</ele>
        <time>2026-08-14T08:17:17.000Z</time>
      </trkpt>
      <trkpt lat="22.856918" lon="109.041725">
        <ele>111.279390</ele>
        <time>2026-08-14T08:17:18.000Z</time>
      </trkpt>
      <trkpt lat="22.856950" lon="109.041773">
        <ele>111.234673</ele>
        <time>2026-08-14T08:17:19.000Z</time>
      </trkpt>
      <trkpt lat="22.856980" lon="109.041821">
        <ele>111.190897</ele>
        <time>2026-08-14T08:17:20.000Z</time>
      </trkpt>
      <trkpt lat="22.857010" lon="109.041870">
        <ele>111.146493</ele>
        <time>2026-08-14T08:17:21.000Z</time>
      </trkpt>
      <trkpt lat="22.857041" lon="109.041918">
        <ele>111.102252</ele>
        <time>2026-08-14T08:17:22.000Z</time>
      </trkpt>
      <trkpt lat="22.857073" lon="109.041965">
        <ele>111.058144</ele>
        <time>2026-08-14T08:17:23.000Z</time>
      </trkpt>
      <trkpt lat="22.857106" lon="109.042012">
        <ele>111.013545</ele>
        <time>2026-08-14T08:17:24.000Z</time>
      </trkpt>
      <trkpt lat="22.857139" lon="109.042060">
        <ele>110.968343</ele>
        <time>2026-08-14T08:17:25.000Z</time>
      </trkpt>
      <trkpt lat="22.857173" lon="109.042109">
        <ele>110.922046</ele>
        <time>2026-08-14T08:17:26.000Z</time>
      </trkpt>
      <trkpt lat="22.857210" lon="109.042158">
        <ele>110.874231</ele>
        <time>2026-08-14T08:17:27.000Z</time>
      </trkpt>
      <trkpt lat="22.857248" lon="109.042204">
        <ele>110.778054</ele>
        <time>2026-08-14T08:17:28.000Z</time>
      </trkpt>
      <trkpt lat="22.857288" lon="109.042250">
        <ele>110.648285</ele>
        <time>2026-08-14T08:17:29.000Z</time>
      </trkpt>
      <trkpt lat="22.857330" lon="109.042296">
        <ele>110.515420</ele>
        <time>2026-08-14T08:17:30.000Z</time>
      </trkpt>
      <trkpt lat="22.857374" lon="109.042343">
        <ele>110.377953</ele>
        <time>2026-08-14T08:17:31.000Z</time>
      </trkpt>
      <trkpt lat="22.857421" lon="109.042390">
        <ele>110.235648</ele>
        <time>2026-08-14T08:17:32.000Z</time>
      </trkpt>
      <trkpt lat="22.857471" lon="109.042437">
        <ele>110.088361</ele>
        <time>2026-08-14T08:17:33.000Z</time>
      </trkpt>
      <trkpt lat="22.857524" lon="109.042486">
        <ele>109.933333</ele>
        <time>2026-08-14T08:17:34.000Z</time>
      </trkpt>
      <trkpt lat="22.857579" lon="109.042534">
        <ele>109.776183</ele>
        <time>2026-08-14T08:17:35.000Z</time>
      </trkpt>
      <trkpt lat="22.857634" lon="109.042583">
        <ele>109.617739</ele>
        <time>2026-08-14T08:17:36.000Z</time>
      </trkpt>
      <trkpt lat="22.857690" lon="109.042630">
        <ele>109.460112</ele>
        <time>2026-08-14T08:17:37.000Z</time>
      </trkpt>
      <trkpt lat="22.857751" lon="109.042677">
        <ele>109.293538</ele>
        <time>2026-08-14T08:17:38.000Z</time>
      </trkpt>
      <trkpt lat="22.857812" lon="109.042722">
        <ele>109.129306</ele>
        <time>2026-08-14T08:17:39.000Z</time>
      </trkpt>
      <trkpt lat="22.857877" lon="109.042766">
        <ele>108.958730</ele>
        <time>2026-08-14T08:17:40.000Z</time>
      </trkpt>
      <trkpt lat="22.857946" lon="109.042807">
        <ele>108.783573</ele>
        <time>2026-08-14T08:17:41.000Z</time>
      </trkpt>
      <trkpt lat="22.858020" lon="109.042852">
        <ele>108.594700</ele>
        <time>2026-08-14T08:17:42.000Z</time>
      </trkpt>
      <trkpt lat="22.858094" lon="109.042902">
        <ele>108.400606</ele>
        <time>2026-08-14T08:17:43.000Z</time>
      </trkpt>
      <trkpt lat="22.858168" lon="109.042953">
        <ele>108.205420</ele>
        <time>2026-08-14T08:17:44.000Z</time>
      </trkpt>
      <trkpt lat="22.858242" lon="109.043008">
        <ele>108.005714</ele>
        <time>2026-08-14T08:17:45.000Z</time>
      </trkpt>
      <trkpt lat="22.858316" lon="109.043066">
        <ele>107.802467</ele>
        <time>2026-08-14T08:17:46.000Z</time>
      </trkpt>
      <trkpt lat="22.858389" lon="109.043124">
        <ele>107.601020</ele>
        <time>2026-08-14T08:17:47.000Z</time>
      </trkpt>
      <trkpt lat="22.858462" lon="109.043178">
        <ele>107.404310</ele>
        <time>2026-08-14T08:17:48.000Z</time>
      </trkpt>
      <trkpt lat="22.858533" lon="109.043231">
        <ele>107.212433</ele>
        <time>2026-08-14T08:17:49.000Z</time>
      </trkpt>
      <trkpt lat="22.858604" lon="109.043283">
        <ele>107.021712</ele>
        <time>2026-08-14T08:17:50.000Z</time>
      </trkpt>
      <trkpt lat="22.858675" lon="109.043335">
        <ele>106.863665</ele>
        <time>2026-08-14T08:17:51.000Z</time>
      </trkpt>
      <trkpt lat="22.858746" lon="109.043385">
        <ele>106.974084</ele>
        <time>2026-08-14T08:17:52.000Z</time>
      </trkpt>
      <trkpt lat="22.858809" lon="109.043434">
        <ele>107.075202</ele>
        <time>2026-08-14T08:17:53.000Z</time>
      </trkpt>
      <trkpt lat="22.858870" lon="109.043484">
        <ele>107.174931</ele>
        <time>2026-08-14T08:17:54.000Z</time>
      </trkpt>
      <trkpt lat="22.858934" lon="109.043535">
        <ele>107.278517</ele>
        <time>2026-08-14T08:17:55.000Z</time>
      </trkpt>
      <trkpt lat="22.858997" lon="109.043585">
        <ele>107.380340</ele>
        <time>2026-08-14T08:17:56.000Z</time>
      </trkpt>
      <trkpt lat="22.859062" lon="109.043632">
        <ele>107.482237</ele>
        <time>2026-08-14T08:17:57.000Z</time>
      </trkpt>
      <trkpt lat="22.859120" lon="109.043674">
        <ele>107.573202</ele>
        <time>2026-08-14T08:17:58.000Z</time>
      </trkpt>
      <trkpt lat="22.859170" lon="109.043707">
        <ele>107.649547</ele>
        <time>2026-08-14T08:17:59.000Z</time>
      </trkpt>
      <trkpt lat="22.859222" lon="109.043743">
        <ele>107.730015</ele>
        <time>2026-08-14T08:18:00.000Z</time>
      </trkpt>
      <trkpt lat="22.859286" lon="109.043785">
        <ele>107.827587</ele>
        <time>2026-08-14T08:18:01.000Z</time>
      </trkpt>
      <trkpt lat="22.859340" lon="109.043823">
        <ele>107.911550</ele>
        <time>2026-08-14T08:18:02.000Z</time>
      </trkpt>
      <trkpt lat="22.859397" lon="109.043857">
        <ele>107.996404</ele>
        <time>2026-08-14T08:18:03.000Z</time>
      </trkpt>
      <trkpt lat="22.859453" lon="109.043892">
        <ele>108.080711</ele>
        <time>2026-08-14T08:18:04.000Z</time>
      </trkpt>
      <trkpt lat="22.859513" lon="109.043925">
        <ele>108.168465</ele>
        <time>2026-08-14T08:18:05.000Z</time>
      </trkpt>
      <trkpt lat="22.859573" lon="109.043957">
        <ele>108.255682</ele>
        <time>2026-08-14T08:18:06.000Z</time>
      </trkpt>
      <trkpt lat="22.859633" lon="109.043983">
        <ele>108.339967</ele>
        <time>2026-08-14T08:18:07.000Z</time>
      </trkpt>
      <trkpt lat="22.859688" lon="109.044016">
        <ele>108.421956</ele>
        <time>2026-08-14T08:18:08.000Z</time>
      </trkpt>
      <trkpt lat="22.859741" lon="109.044048">
        <ele>108.501080</ele>
        <time>2026-08-14T08:18:09.000Z</time>
      </trkpt>
      <trkpt lat="22.859798" lon="109.044083">
        <ele>108.586520</ele>
        <time>2026-08-14T08:18:10.000Z</time>
      </trkpt>
      <trkpt lat="22.859854" lon="109.044115">
        <ele>108.669086</ele>
        <time>2026-08-14T08:18:11.000Z</time>
      </trkpt>
      <trkpt lat="22.859909" lon="109.044150">
        <ele>108.752264</ele>
        <time>2026-08-14T08:18:12.000Z</time>
      </trkpt>
      <trkpt lat="22.859964" lon="109.044185">
        <ele>108.835443</ele>
        <time>2026-08-14T08:18:13.000Z</time>
      </trkpt>
      <trkpt lat="22.860019" lon="109.044216">
        <ele>108.916296</ele>
        <time>2026-08-14T08:18:14.000Z</time>
      </trkpt>
      <trkpt lat="22.860071" lon="109.044245">
        <ele>108.992568</ele>
        <time>2026-08-14T08:18:15.000Z</time>
      </trkpt>
      <trkpt lat="22.860120" lon="109.044276">
        <ele>109.066562</ele>
        <time>2026-08-14T08:18:16.000Z</time>
      </trkpt>
      <trkpt lat="22.860170" lon="109.044306">
        <ele>109.141097</ele>
        <time>2026-08-14T08:18:17.000Z</time>
      </trkpt>
      <trkpt lat="22.860219" lon="109.044334">
        <ele>109.191901</ele>
        <time>2026-08-14T08:18:18.000Z</time>
      </trkpt>
      <trkpt lat="22.860267" lon="109.044364">
        <ele>109.162579</ele>
        <time>2026-08-14T08:18:19.000Z</time>
      </trkpt>
      <trkpt lat="22.860315" lon="109.044388">
        <ele>109.134603</ele>
        <time>2026-08-14T08:18:20.000Z</time>
      </trkpt>
      <trkpt lat="22.860366" lon="109.044417">
        <ele>109.104124</ele>
        <time>2026-08-14T08:18:21.000Z</time>
      </trkpt>
      <trkpt lat="22.860410" lon="109.044443">
        <ele>109.077604</ele>
        <time>2026-08-14T08:18:22.000Z</time>
      </trkpt>
      <trkpt lat="22.860453" lon="109.044474">
        <ele>109.050276</ele>
        <time>2026-08-14T08:18:23.000Z</time>
      </trkpt>
      <trkpt lat="22.860505" lon="109.044505">
        <ele>109.018870</ele>
        <time>2026-08-14T08:18:24.000Z</time>
      </trkpt>
      <trkpt lat="22.860553" lon="109.044530">
        <ele>108.990686</ele>
        <time>2026-08-14T08:18:25.000Z</time>
      </trkpt>
      <trkpt lat="22.860593" lon="109.044554">
        <ele>108.966491</ele>
        <time>2026-08-14T08:18:26.000Z</time>
      </trkpt>
      <trkpt lat="22.860632" lon="109.044580">
        <ele>108.942261</ele>
        <time>2026-08-14T08:18:27.000Z</time>
      </trkpt>
      <trkpt lat="22.860669" lon="109.044605">
        <ele>108.919189</ele>
        <time>2026-08-14T08:18:28.000Z</time>
      </trkpt>
      <trkpt lat="22.860704" lon="109.044631">
        <ele>108.896737</ele>
        <time>2026-08-14T08:18:29.000Z</time>
      </trkpt>
      <trkpt lat="22.860741" lon="109.044656">
        <ele>108.873664</ele>
        <time>2026-08-14T08:18:30.000Z</time>
      </trkpt>
      <trkpt lat="22.860780" lon="109.044681">
        <ele>108.849687</ele>
        <time>2026-08-14T08:18:31.000Z</time>
      </trkpt>
      <trkpt lat="22.860820" lon="109.044704">
        <ele>108.825724</ele>
        <time>2026-08-14T08:18:32.000Z</time>
      </trkpt>
      <trkpt lat="22.860857" lon="109.044731">
        <ele>108.802122</ele>
        <time>2026-08-14T08:18:33.000Z</time>
      </trkpt>
      <trkpt lat="22.860898" lon="109.044761">
        <ele>108.775945</ele>
        <time>2026-08-14T08:18:34.000Z</time>
      </trkpt>
      <trkpt lat="22.860939" lon="109.044790">
        <ele>108.750039</ele>
        <time>2026-08-14T08:18:35.000Z</time>
      </trkpt>
      <trkpt lat="22.860981" lon="109.044821">
        <ele>108.723151</ele>
        <time>2026-08-14T08:18:36.000Z</time>
      </trkpt>
      <trkpt lat="22.861023" lon="109.044849">
        <ele>108.697058</ele>
        <time>2026-08-14T08:18:37.000Z</time>
      </trkpt>
      <trkpt lat="22.861065" lon="109.044874">
        <ele>108.671700</ele>
        <time>2026-08-14T08:18:38.000Z</time>
      </trkpt>
      <trkpt lat="22.861106" lon="109.044902">
        <ele>108.646057</ele>
        <time>2026-08-14T08:18:39.000Z</time>
      </trkpt>
      <trkpt lat="22.861151" lon="109.044933">
        <ele>108.617842</ele>
        <time>2026-08-14T08:18:40.000Z</time>
      </trkpt>
      <trkpt lat="22.861198" lon="109.044967">
        <ele>108.587941</ele>
        <time>2026-08-14T08:18:41.000Z</time>
      </trkpt>
      <trkpt lat="22.861244" lon="109.044998">
        <ele>108.559277</ele>
        <time>2026-08-14T08:18:42.000Z</time>
      </trkpt>
      <trkpt lat="22.861290" lon="109.045030">
        <ele>108.530353</ele>
        <time>2026-08-14T08:18:43.000Z</time>
      </trkpt>
      <trkpt lat="22.861338" lon="109.045065">
        <ele>108.499742</ele>
        <time>2026-08-14T08:18:44.000Z</time>
      </trkpt>
      <trkpt lat="22.861387" lon="109.045103">
        <ele>108.467861</ele>
        <time>2026-08-14T08:18:45.000Z</time>
      </trkpt>
      <trkpt lat="22.861438" lon="109.045145">
        <ele>108.433970</ele>
        <time>2026-08-14T08:18:46.000Z</time>
      </trkpt>
      <trkpt lat="22.861488" lon="109.045186">
        <ele>108.400797</ele>
        <time>2026-08-14T08:18:47.000Z</time>
      </trkpt>
      <trkpt lat="22.861538" lon="109.045231">
        <ele>108.366411</ele>
        <time>2026-08-14T08:18:48.000Z</time>
      </trkpt>
      <trkpt lat="22.861592" lon="109.045279">
        <ele>108.329461</ele>
        <time>2026-08-14T08:18:49.000Z</time>
      </trkpt>
      <trkpt lat="22.861645" lon="109.045326">
        <ele>108.293230</ele>
        <time>2026-08-14T08:18:50.000Z</time>
      </trkpt>
      <trkpt lat="22.861693" lon="109.045379">
        <ele>108.256981</ele>
        <time>2026-08-14T08:18:51.000Z</time>
      </trkpt>
      <trkpt lat="22.861742" lon="109.045429">
        <ele>108.186751</ele>
        <time>2026-08-14T08:18:52.000Z</time>
      </trkpt>
      <trkpt lat="22.861792" lon="109.045482">
        <ele>108.097639</ele>
        <time>2026-08-14T08:18:53.000Z</time>
      </trkpt>
      <trkpt lat="22.861847" lon="109.045535">
        <ele>108.003861</ele>
        <time>2026-08-14T08:18:54.000Z</time>
      </trkpt>
      <trkpt lat="22.861899" lon="109.045586">
        <ele>107.914500</ele>
        <time>2026-08-14T08:18:55.000Z</time>
      </trkpt>
      <trkpt lat="22.861952" lon="109.045637">
        <ele>107.824189</ele>
        <time>2026-08-14T08:18:56.000Z</time>
      </trkpt>
      <trkpt lat="22.862004" lon="109.045686">
        <ele>107.736386</ele>
        <time>2026-08-14T08:18:57.000Z</time>
      </trkpt>
      <trkpt lat="22.862054" lon="109.045734">
        <ele>107.651275</ele>
        <time>2026-08-14T08:18:58.000Z</time>
      </trkpt>
      <trkpt lat="22.862102" lon="109.045782">
        <ele>107.568056</ele>
        <time>2026-08-14T08:18:59.000Z</time>
      </trkpt>
      <trkpt lat="22.862150" lon="109.045832">
        <ele>107.483228</ele>
        <time>2026-08-14T08:19:00.000Z</time>
      </trkpt>
      <trkpt lat="22.862198" lon="109.045882">
        <ele>107.398401</ele>
        <time>2026-08-14T08:19:01.000Z</time>
      </trkpt>
      <trkpt lat="22.862245" lon="109.045932">
        <ele>107.314488</ele>
        <time>2026-08-14T08:19:02.000Z</time>
      </trkpt>
      <trkpt lat="22.862293" lon="109.045982">
        <ele>107.229660</ele>
        <time>2026-08-14T08:19:03.000Z</time>
      </trkpt>
      <trkpt lat="22.862341" lon="109.046031">
        <ele>107.145641</ele>
        <time>2026-08-14T08:19:04.000Z</time>
      </trkpt>
      <trkpt lat="22.862388" lon="109.046080">
        <ele>107.062547</ele>
        <time>2026-08-14T08:19:05.000Z</time>
      </trkpt>
      <trkpt lat="22.862435" lon="109.046130">
        <ele>106.978634</ele>
        <time>2026-08-14T08:19:06.000Z</time>
      </trkpt>
      <trkpt lat="22.862482" lon="109.046180">
        <ele>106.894721</ele>
        <time>2026-08-14T08:19:07.000Z</time>
      </trkpt>
      <trkpt lat="22.862533" lon="109.046229">
        <ele>106.807877</ele>
        <time>2026-08-14T08:19:08.000Z</time>
      </trkpt>
      <trkpt lat="22.862584" lon="109.046279">
        <ele>106.720250</ele>
        <time>2026-08-14T08:19:09.000Z</time>
      </trkpt>
      <trkpt lat="22.862634" lon="109.046329">
        <ele>106.633564</ele>
        <time>2026-08-14T08:19:10.000Z</time>
      </trkpt>
      <trkpt lat="22.862683" lon="109.046381">
        <ele>106.546186</ele>
        <time>2026-08-14T08:19:11.000Z</time>
      </trkpt>
      <trkpt lat="22.862735" lon="109.046432">
        <ele>106.456825</ele>
        <time>2026-08-14T08:19:12.000Z</time>
      </trkpt>
      <trkpt lat="22.862788" lon="109.046484">
        <ele>106.365731</ele>
        <time>2026-08-14T08:19:13.000Z</time>
      </trkpt>
      <trkpt lat="22.862839" lon="109.046535">
        <ele>106.277311</ele>
        <time>2026-08-14T08:19:14.000Z</time>
      </trkpt>
      <trkpt lat="22.862887" lon="109.046587">
        <ele>106.190840</ele>
        <time>2026-08-14T08:19:15.000Z</time>
      </trkpt>
      <trkpt lat="22.862936" lon="109.046638">
        <ele>106.104279</ele>
        <time>2026-08-14T08:19:16.000Z</time>
      </trkpt>
      <trkpt lat="22.862984" lon="109.046692">
        <ele>106.016132</ele>
        <time>2026-08-14T08:19:17.000Z</time>
      </trkpt>
      <trkpt lat="22.863031" lon="109.046745">
        <ele>105.923046</ele>
        <time>2026-08-14T08:19:18.000Z</time>
      </trkpt>
      <trkpt lat="22.863078" lon="109.046799">
        <ele>105.810494</ele>
        <time>2026-08-14T08:19:19.000Z</time>
      </trkpt>
      <trkpt lat="22.863126" lon="109.046854">
        <ele>105.695711</ele>
        <time>2026-08-14T08:19:20.000Z</time>
      </trkpt>
      <trkpt lat="22.863175" lon="109.046907">
        <ele>105.581951</ele>
        <time>2026-08-14T08:19:21.000Z</time>
      </trkpt>
      <trkpt lat="22.863223" lon="109.046959">
        <ele>105.470425</ele>
        <time>2026-08-14T08:19:22.000Z</time>
      </trkpt>
      <trkpt lat="22.863273" lon="109.047012">
        <ele>105.355494</ele>
        <time>2026-08-14T08:19:23.000Z</time>
      </trkpt>
      <trkpt lat="22.863324" lon="109.047064">
        <ele>105.240423</ele>
        <time>2026-08-14T08:19:24.000Z</time>
      </trkpt>
      <trkpt lat="22.863372" lon="109.047117">
        <ele>105.127822</ele>
        <time>2026-08-14T08:19:25.000Z</time>
      </trkpt>
      <trkpt lat="22.863422" lon="109.047173">
        <ele>105.009670</ele>
        <time>2026-08-14T08:19:26.000Z</time>
      </trkpt>
      <trkpt lat="22.863472" lon="109.047230">
        <ele>104.890425</ele>
        <time>2026-08-14T08:19:27.000Z</time>
      </trkpt>
      <trkpt lat="22.863523" lon="109.047288">
        <ele>104.768949</ele>
        <time>2026-08-14T08:19:28.000Z</time>
      </trkpt>
      <trkpt lat="22.863576" lon="109.047347">
        <ele>104.644099</ele>
        <time>2026-08-14T08:19:29.000Z</time>
      </trkpt>
      <trkpt lat="22.863629" lon="109.047405">
        <ele>104.520330</ele>
        <time>2026-08-14T08:19:30.000Z</time>
      </trkpt>
      <trkpt lat="22.863679" lon="109.047465">
        <ele>104.397753</ele>
        <time>2026-08-14T08:19:31.000Z</time>
      </trkpt>
      <trkpt lat="22.863731" lon="109.047523">
        <ele>104.275136</ele>
        <time>2026-08-14T08:19:32.000Z</time>
      </trkpt>
      <trkpt lat="22.863785" lon="109.047580">
        <ele>104.151265</ele>
        <time>2026-08-14T08:19:33.000Z</time>
      </trkpt>
      <trkpt lat="22.863838" lon="109.047638">
        <ele>104.027495</ele>
        <time>2026-08-14T08:19:34.000Z</time>
      </trkpt>
      <trkpt lat="22.863892" lon="109.047697">
        <ele>103.901492</ele>
        <time>2026-08-14T08:19:35.000Z</time>
      </trkpt>
      <trkpt lat="22.863946" lon="109.047757">
        <ele>103.774410</ele>
        <time>2026-08-14T08:19:36.000Z</time>
      </trkpt>
      <trkpt lat="22.864002" lon="109.047817">
        <ele>103.645008</ele>
        <time>2026-08-14T08:19:37.000Z</time>
      </trkpt>
      <trkpt lat="22.864057" lon="109.047876">
        <ele>103.517841</ele>
        <time>2026-08-14T08:19:38.000Z</time>
      </trkpt>
      <trkpt lat="22.864111" lon="109.047936">
        <ele>103.390758</ele>
        <time>2026-08-14T08:19:39.000Z</time>
      </trkpt>
      <trkpt lat="22.864165" lon="109.047996">
        <ele>103.263676</ele>
        <time>2026-08-14T08:19:40.000Z</time>
      </trkpt>
      <trkpt lat="22.864218" lon="109.048054">
        <ele>103.139907</ele>
        <time>2026-08-14T08:19:41.000Z</time>
      </trkpt>
      <trkpt lat="22.864272" lon="109.048112">
        <ele>103.014975</ele>
        <time>2026-08-14T08:19:42.000Z</time>
      </trkpt>
      <trkpt lat="22.864325" lon="109.048169">
        <ele>102.926038</ele>
        <time>2026-08-14T08:19:43.000Z</time>
      </trkpt>
      <trkpt lat="22.864376" lon="109.048224">
        <ele>102.846648</ele>
        <time>2026-08-14T08:19:44.000Z</time>
      </trkpt>
      <trkpt lat="22.864426" lon="109.048279">
        <ele>102.768038</ele>
        <time>2026-08-14T08:19:45.000Z</time>
      </trkpt>
      <trkpt lat="22.864476" lon="109.048334">
        <ele>102.689427</ele>
        <time>2026-08-14T08:19:46.000Z</time>
      </trkpt>
      <trkpt lat="22.864526" lon="109.048389">
        <ele>102.610816</ele>
        <time>2026-08-14T08:19:47.000Z</time>
      </trkpt>
      <trkpt lat="22.864576" lon="109.048442">
        <ele>102.533641</ele>
        <time>2026-08-14T08:19:48.000Z</time>
      </trkpt>
      <trkpt lat="22.864625" lon="109.048495">
        <ele>102.457252</ele>
        <time>2026-08-14T08:19:49.000Z</time>
      </trkpt>
      <trkpt lat="22.864675" lon="109.048548">
        <ele>102.380076</ele>
        <time>2026-08-14T08:19:50.000Z</time>
      </trkpt>
      <trkpt lat="22.864724" lon="109.048599">
        <ele>102.305110</ele>
        <time>2026-08-14T08:19:51.000Z</time>
      </trkpt>
      <trkpt lat="22.864771" lon="109.048651">
        <ele>102.230998</ele>
        <time>2026-08-14T08:19:52.000Z</time>
      </trkpt>
      <trkpt lat="22.864819" lon="109.048704">
        <ele>102.155387</ele>
        <time>2026-08-14T08:19:53.000Z</time>
      </trkpt>
      <trkpt lat="22.864868" lon="109.048756">
        <ele>102.079713</ele>
        <time>2026-08-14T08:19:54.000Z</time>
      </trkpt>
      <trkpt lat="22.864916" lon="109.048808">
        <ele>102.004824</ele>
        <time>2026-08-14T08:19:55.000Z</time>
      </trkpt>
      <trkpt lat="22.864964" lon="109.048861">
        <ele>101.929213</ele>
        <time>2026-08-14T08:19:56.000Z</time>
      </trkpt>
      <trkpt lat="22.865013" lon="109.048914">
        <ele>101.852824</ele>
        <time>2026-08-14T08:19:57.000Z</time>
      </trkpt>
      <trkpt lat="22.865061" lon="109.048966">
        <ele>101.777935</ele>
        <time>2026-08-14T08:19:58.000Z</time>
      </trkpt>
      <trkpt lat="22.865110" lon="109.049019">
        <ele>101.701546</ele>
        <time>2026-08-14T08:19:59.000Z</time>
      </trkpt>
      <trkpt lat="22.865159" lon="109.049074">
        <ele>101.623707</ele>
        <time>2026-08-14T08:20:00.000Z</time>
      </trkpt>
      <trkpt lat="22.865207" lon="109.049129">
        <ele>101.546631</ele>
        <time>2026-08-14T08:20:01.000Z</time>
      </trkpt>
      <trkpt lat="22.865256" lon="109.049184">
        <ele>101.468792</ele>
        <time>2026-08-14T08:20:02.000Z</time>
      </trkpt>
      <trkpt lat="22.865305" lon="109.049239">
        <ele>101.390954</ele>
        <time>2026-08-14T08:20:03.000Z</time>
      </trkpt>
      <trkpt lat="22.865354" lon="109.049296">
        <ele>101.311639</ele>
        <time>2026-08-14T08:20:04.000Z</time>
      </trkpt>
      <trkpt lat="22.865404" lon="109.049353">
        <ele>101.231567</ele>
        <time>2026-08-14T08:20:05.000Z</time>
      </trkpt>
      <trkpt lat="22.865455" lon="109.049410">
        <ele>101.150731</ele>
        <time>2026-08-14T08:20:06.000Z</time>
      </trkpt>
      <trkpt lat="22.865508" lon="109.049467">
        <ele>101.068340</ele>
        <time>2026-08-14T08:20:07.000Z</time>
      </trkpt>
      <trkpt lat="22.865559" lon="109.049524">
        <ele>100.998077</ele>
        <time>2026-08-14T08:20:08.000Z</time>
      </trkpt>
      <trkpt lat="22.865610" lon="109.049581">
        <ele>100.957044</ele>
        <time>2026-08-14T08:20:09.000Z</time>
      </trkpt>
      <trkpt lat="22.865662" lon="109.049638">
        <ele>100.915618</ele>
        <time>2026-08-14T08:20:10.000Z</time>
      </trkpt>
      <trkpt lat="22.865714" lon="109.049695">
        <ele>100.874193</ele>
        <time>2026-08-14T08:20:11.000Z</time>
      </trkpt>
      <trkpt lat="22.865765" lon="109.049751">
        <ele>100.833528</ele>
        <time>2026-08-14T08:20:12.000Z</time>
      </trkpt>
      <trkpt lat="22.865817" lon="109.049806">
        <ele>100.792830</ele>
        <time>2026-08-14T08:20:13.000Z</time>
      </trkpt>
      <trkpt lat="22.865869" lon="109.049860">
        <ele>100.752491</ele>
        <time>2026-08-14T08:20:14.000Z</time>
      </trkpt>
      <trkpt lat="22.865921" lon="109.049914">
        <ele>100.712151</ele>
        <time>2026-08-14T08:20:15.000Z</time>
      </trkpt>
      <trkpt lat="22.865972" lon="109.049967">
        <ele>100.672574</ele>
        <time>2026-08-14T08:20:16.000Z</time>
      </trkpt>
      <trkpt lat="22.866024" lon="109.050018">
        <ele>100.633290</ele>
        <time>2026-08-14T08:20:17.000Z</time>
      </trkpt>
      <trkpt lat="22.866074" lon="109.050070">
        <ele>100.594474</ele>
        <time>2026-08-14T08:20:18.000Z</time>
      </trkpt>
      <trkpt lat="22.866124" lon="109.050122">
        <ele>100.555659</ele>
        <time>2026-08-14T08:20:19.000Z</time>
      </trkpt>
      <trkpt lat="22.866173" lon="109.050174">
        <ele>100.517246</ele>
        <time>2026-08-14T08:20:20.000Z</time>
      </trkpt>
      <trkpt lat="22.866223" lon="109.050226">
        <ele>100.478431</ele>
        <time>2026-08-14T08:20:21.000Z</time>
      </trkpt>
      <trkpt lat="22.866272" lon="109.050278">
        <ele>100.440019</ele>
        <time>2026-08-14T08:20:22.000Z</time>
      </trkpt>
      <trkpt lat="22.866320" lon="109.050329">
        <ele>100.402368</ele>
        <time>2026-08-14T08:20:23.000Z</time>
      </trkpt>
      <trkpt lat="22.866369" lon="109.050380">
        <ele>100.364314</ele>
        <time>2026-08-14T08:20:24.000Z</time>
      </trkpt>
      <trkpt lat="22.866419" lon="109.050430">
        <ele>100.326207</ele>
        <time>2026-08-14T08:20:25.000Z</time>
      </trkpt>
      <trkpt lat="22.866466" lon="109.050479">
        <ele>100.289677</ele>
        <time>2026-08-14T08:20:26.000Z</time>
      </trkpt>
      <trkpt lat="22.866508" lon="109.050532">
        <ele>100.253575</ele>
        <time>2026-08-14T08:20:27.000Z</time>
      </trkpt>
      <trkpt lat="22.866554" lon="109.050583">
        <ele>100.216717</ele>
        <time>2026-08-14T08:20:28.000Z</time>
      </trkpt>
      <trkpt lat="22.866601" lon="109.050633">
        <ele>100.179828</ele>
        <time>2026-08-14T08:20:29.000Z</time>
      </trkpt>
      <trkpt lat="22.866647" lon="109.050682">
        <ele>100.143700</ele>
        <time>2026-08-14T08:20:30.000Z</time>
      </trkpt>
      <trkpt lat="22.866691" lon="109.050727">
        <ele>100.109813</ele>
        <time>2026-08-14T08:20:31.000Z</time>
      </trkpt>
      <trkpt lat="22.866741" lon="109.050779">
        <ele>100.070998</ele>
        <time>2026-08-14T08:20:32.000Z</time>
      </trkpt>
      <trkpt lat="22.866788" lon="109.050830">
        <ele>100.033746</ele>
        <time>2026-08-14T08:20:33.000Z</time>
      </trkpt>
      <trkpt lat="22.866834" lon="109.050878">
        <ele>100.001313</ele>
        <time>2026-08-14T08:20:34.000Z</time>
      </trkpt>
      <trkpt lat="22.866880" lon="109.050925">
        <ele>100.007221</ele>
        <time>2026-08-14T08:20:35.000Z</time>
      </trkpt>
      <trkpt lat="22.866925" lon="109.050970">
        <ele>100.012943</ele>
        <time>2026-08-14T08:20:36.000Z</time>
      </trkpt>
      <trkpt lat="22.866967" lon="109.051017">
        <ele>100.018584</ele>
        <time>2026-08-14T08:20:37.000Z</time>
      </trkpt>
      <trkpt lat="22.867011" lon="109.051066">
        <ele>100.024480</ele>
        <time>2026-08-14T08:20:38.000Z</time>
      </trkpt>
      <trkpt lat="22.867054" lon="109.051115">
        <ele>100.030310</ele>
        <time>2026-08-14T08:20:39.000Z</time>
      </trkpt>
      <trkpt lat="22.867098" lon="109.051164">
        <ele>100.036205</ele>
        <time>2026-08-14T08:20:40.000Z</time>
      </trkpt>
      <trkpt lat="22.867141" lon="109.051211">
        <ele>100.041912</ele>
        <time>2026-08-14T08:20:41.000Z</time>
      </trkpt>
      <trkpt lat="22.867187" lon="109.051258">
        <ele>100.047820</ele>
        <time>2026-08-14T08:20:42.000Z</time>
      </trkpt>
      <trkpt lat="22.867232" lon="109.051305">
        <ele>100.053660</ele>
        <time>2026-08-14T08:20:43.000Z</time>
      </trkpt>
      <trkpt lat="22.867275" lon="109.051352">
        <ele>100.059367</ele>
        <time>2026-08-14T08:20:44.000Z</time>
      </trkpt>
      <trkpt lat="22.867320" lon="109.051396">
        <ele>100.065031</ele>
        <time>2026-08-14T08:20:45.000Z</time>
      </trkpt>
      <trkpt lat="22.867367" lon="109.051441">
        <ele>100.070892</ele>
        <time>2026-08-14T08:20:46.000Z</time>
      </trkpt>
      <trkpt lat="22.867411" lon="109.051487">
        <ele>100.076605</ele>
        <time>2026-08-14T08:20:47.000Z</time>
      </trkpt>
      <trkpt lat="22.867453" lon="109.051533">
        <ele>100.082185</ele>
        <time>2026-08-14T08:20:48.000Z</time>
      </trkpt>
      <trkpt lat="22.867496" lon="109.051579">
        <ele>100.087831</ele>
        <time>2026-08-14T08:20:49.000Z</time>
      </trkpt>
      <trkpt lat="22.867539" lon="109.051624">
        <ele>100.093417</ele>
        <time>2026-08-14T08:20:50.000Z</time>
      </trkpt>
      <trkpt lat="22.867581" lon="109.051670">
        <ele>100.098996</ele>
        <time>2026-08-14T08:20:51.000Z</time>
      </trkpt>
      <trkpt lat="22.867625" lon="109.051716">
        <ele>100.104709</ele>
        <time>2026-08-14T08:20:52.000Z</time>
      </trkpt>
      <trkpt lat="22.867669" lon="109.051761">
        <ele>100.110363</ele>
        <time>2026-08-14T08:20:53.000Z</time>
      </trkpt>
      <trkpt lat="22.867712" lon="109.051807">
        <ele>100.116009</ele>
        <time>2026-08-14T08:20:54.000Z</time>
      </trkpt>
      <trkpt lat="22.867755" lon="109.051853">
        <ele>100.121655</ele>
        <time>2026-08-14T08:20:55.000Z</time>
      </trkpt>
      <trkpt lat="22.867799" lon="109.051898">
        <ele>100.127309</ele>
        <time>2026-08-14T08:20:56.000Z</time>
      </trkpt>
      <trkpt lat="22.867841" lon="109.051942">
        <ele>100.132767</ele>
        <time>2026-08-14T08:20:57.000Z</time>
      </trkpt>
      <trkpt lat="22.867884" lon="109.051986">
        <ele>100.138294</ele>
        <time>2026-08-14T08:20:58.000Z</time>
      </trkpt>
      <trkpt lat="22.867924" lon="109.052030">
        <ele>100.143619</ele>
        <time>2026-08-14T08:20:59.000Z</time>
      </trkpt>
      <trkpt lat="22.867964" lon="109.052070">
        <ele>100.148706</ele>
        <time>2026-08-14T08:21:00.000Z</time>
      </trkpt>
      <trkpt lat="22.868004" lon="109.052110">
        <ele>100.153792</ele>
        <time>2026-08-14T08:21:01.000Z</time>
      </trkpt>
      <trkpt lat="22.868043" lon="109.052148">
        <ele>100.158693</ele>
        <time>2026-08-14T08:21:02.000Z</time>
      </trkpt>
      <trkpt lat="22.868080" lon="109.052186">
        <ele>100.163456</ele>
        <time>2026-08-14T08:21:03.000Z</time>
      </trkpt>
      <trkpt lat="22.868119" lon="109.052226">
        <ele>100.168474</ele>
        <time>2026-08-14T08:21:04.000Z</time>
      </trkpt>
      <trkpt lat="22.868160" lon="109.052265">
        <ele>100.134609</ele>
        <time>2026-08-14T08:21:05.000Z</time>
      </trkpt>
      <trkpt lat="22.868200" lon="109.052304">
        <ele>100.096499</ele>
        <time>2026-08-14T08:21:06.000Z</time>
      </trkpt>
      <trkpt lat="22.868238" lon="109.052343">
        <ele>100.059431</ele>
        <time>2026-08-14T08:21:07.000Z</time>
      </trkpt>
      <trkpt lat="22.868274" lon="109.052384">
        <ele>100.022446</ele>
        <time>2026-08-14T08:21:08.000Z</time>
      </trkpt>
      <trkpt lat="22.868313" lon="109.052424">
        <ele>99.984415</ele>
        <time>2026-08-14T08:21:09.000Z</time>
      </trkpt>
      <trkpt lat="22.868352" lon="109.052463">
        <ele>99.946829</ele>
        <time>2026-08-14T08:21:10.000Z</time>
      </trkpt>
      <trkpt lat="22.868391" lon="109.052501">
        <ele>99.909683</ele>
        <time>2026-08-14T08:21:11.000Z</time>
      </trkpt>
      <trkpt lat="22.868429" lon="109.052539">
        <ele>99.873061</ele>
        <time>2026-08-14T08:21:12.000Z</time>
      </trkpt>
      <trkpt lat="22.868469" lon="109.052579">
        <ele>99.834512</ele>
        <time>2026-08-14T08:21:13.000Z</time>
      </trkpt>
      <trkpt lat="22.868509" lon="109.052619">
        <ele>99.795962</ele>
        <time>2026-08-14T08:21:14.000Z</time>
      </trkpt>
      <trkpt lat="22.868550" lon="109.052658">
        <ele>99.757322</ele>
        <time>2026-08-14T08:21:15.000Z</time>
      </trkpt>
      <trkpt lat="22.868588" lon="109.052697">
        <ele>99.720255</ele>
        <time>2026-08-14T08:21:16.000Z</time>
      </trkpt>
      <trkpt lat="22.868631" lon="109.052737">
        <ele>99.680116</ele>
        <time>2026-08-14T08:21:17.000Z</time>
      </trkpt>
      <trkpt lat="22.868672" lon="109.052776">
        <ele>99.641476</ele>
        <time>2026-08-14T08:21:18.000Z</time>
      </trkpt>
      <trkpt lat="22.868714" lon="109.052815">
        <ele>99.602300</ele>
        <time>2026-08-14T08:21:19.000Z</time>
      </trkpt>
      <trkpt lat="22.868757" lon="109.052852">
        <ele>99.563407</ele>
        <time>2026-08-14T08:21:20.000Z</time>
      </trkpt>
      <trkpt lat="22.868797" lon="109.052889">
        <ele>99.526158</ele>
        <time>2026-08-14T08:21:21.000Z</time>
      </trkpt>
      <trkpt lat="22.868840" lon="109.052928">
        <ele>99.486441</ele>
        <time>2026-08-14T08:21:22.000Z</time>
      </trkpt>
      <trkpt lat="22.868881" lon="109.052969">
        <ele>99.446928</ele>
        <time>2026-08-14T08:21:23.000Z</time>
      </trkpt>
      <trkpt lat="22.868925" lon="109.053010">
        <ele>99.405826</ele>
        <time>2026-08-14T08:21:24.000Z</time>
      </trkpt>
      <trkpt lat="22.868970" lon="109.053052">
        <ele>99.363761</ele>
        <time>2026-08-14T08:21:25.000Z</time>
      </trkpt>
      <trkpt lat="22.869015" lon="109.053095">
        <ele>99.321267</ele>
        <time>2026-08-14T08:21:26.000Z</time>
      </trkpt>
      <trkpt lat="22.869060" lon="109.053138">
        <ele>99.278773</ele>
        <time>2026-08-14T08:21:27.000Z</time>
      </trkpt>
      <trkpt lat="22.869105" lon="109.053183">
        <ele>99.235405</ele>
        <time>2026-08-14T08:21:28.000Z</time>
      </trkpt>
      <trkpt lat="22.869152" lon="109.053229">
        <ele>99.190549</ele>
        <time>2026-08-14T08:21:29.000Z</time>
      </trkpt>
      <trkpt lat="22.869199" lon="109.053274">
        <ele>99.146129</ele>
        <time>2026-08-14T08:21:30.000Z</time>
      </trkpt>
      <trkpt lat="22.869245" lon="109.053318">
        <ele>99.102671</ele>
        <time>2026-08-14T08:21:31.000Z</time>
      </trkpt>
      <trkpt lat="22.869292" lon="109.053362">
        <ele>99.058680</ele>
        <time>2026-08-14T08:21:32.000Z</time>
      </trkpt>
      <trkpt lat="22.869340" lon="109.053407">
        <ele>99.013725</ele>
        <time>2026-08-14T08:21:33.000Z</time>
      </trkpt>
      <trkpt lat="22.869387" lon="109.053452">
        <ele>98.969304</ele>
        <time>2026-08-14T08:21:34.000Z</time>
      </trkpt>
      <trkpt lat="22.869434" lon="109.053496">
        <ele>98.925313</ele>
        <time>2026-08-14T08:21:35.000Z</time>
      </trkpt>
      <trkpt lat="22.869481" lon="109.053539">
        <ele>98.888197</ele>
        <time>2026-08-14T08:21:36.000Z</time>
      </trkpt>
      <trkpt lat="22.869528" lon="109.053582">
        <ele>98.867113</ele>
        <time>2026-08-14T08:21:37.000Z</time>
      </trkpt>
      <trkpt lat="22.869575" lon="109.053626">
        <ele>98.845824</ele>
        <time>2026-08-14T08:21:38.000Z</time>
      </trkpt>
      <trkpt lat="22.869622" lon="109.053669">
        <ele>98.824740</ele>
        <time>2026-08-14T08:21:39.000Z</time>
      </trkpt>
      <trkpt lat="22.869669" lon="109.053710">
        <ele>98.804059</ele>
        <time>2026-08-14T08:21:40.000Z</time>
      </trkpt>
      <trkpt lat="22.869717" lon="109.053752">
        <ele>98.782911</ele>
        <time>2026-08-14T08:21:41.000Z</time>
      </trkpt>
      <trkpt lat="22.869764" lon="109.053793">
        <ele>98.762229</ele>
        <time>2026-08-14T08:21:42.000Z</time>
      </trkpt>
      <trkpt lat="22.869812" lon="109.053835">
        <ele>98.741082</ele>
        <time>2026-08-14T08:21:43.000Z</time>
      </trkpt>
      <trkpt lat="22.869858" lon="109.053878">
        <ele>98.720259</ele>
        <time>2026-08-14T08:21:44.000Z</time>
      </trkpt>
      <trkpt lat="22.869905" lon="109.053922">
        <ele>98.698971</ele>
        <time>2026-08-14T08:21:45.000Z</time>
      </trkpt>
      <trkpt lat="22.869952" lon="109.053965">
        <ele>98.677887</ele>
        <time>2026-08-14T08:21:46.000Z</time>
      </trkpt>
      <trkpt lat="22.869999" lon="109.054007">
        <ele>98.657006</ele>
        <time>2026-08-14T08:21:47.000Z</time>
      </trkpt>
      <trkpt lat="22.870046" lon="109.054049">
        <ele>98.636124</ele>
        <time>2026-08-14T08:21:48.000Z</time>
      </trkpt>
      <trkpt lat="22.870094" lon="109.054092">
        <ele>98.614777</ele>
        <time>2026-08-14T08:21:49.000Z</time>
      </trkpt>
      <trkpt lat="22.870141" lon="109.054134">
        <ele>98.593896</ele>
        <time>2026-08-14T08:21:50.000Z</time>
      </trkpt>
      <trkpt lat="22.870188" lon="109.054176">
        <ele>98.573015</ele>
        <time>2026-08-14T08:21:51.000Z</time>
      </trkpt>
      <trkpt lat="22.870235" lon="109.054218">
        <ele>98.552133</ele>
        <time>2026-08-14T08:21:52.000Z</time>
      </trkpt>
      <trkpt lat="22.870283" lon="109.054260">
        <ele>98.530986</ele>
        <time>2026-08-14T08:21:53.000Z</time>
      </trkpt>
      <trkpt lat="22.870328" lon="109.054303">
        <ele>98.510422</ele>
        <time>2026-08-14T08:21:54.000Z</time>
      </trkpt>
      <trkpt lat="22.870374" lon="109.054344">
        <ele>98.490007</ele>
        <time>2026-08-14T08:21:55.000Z</time>
      </trkpt>
      <trkpt lat="22.870421" lon="109.054386">
        <ele>98.469125</ele>
        <time>2026-08-14T08:21:56.000Z</time>
      </trkpt>
      <trkpt lat="22.870468" lon="109.054427">
        <ele>98.448443</ele>
        <time>2026-08-14T08:21:57.000Z</time>
      </trkpt>
      <trkpt lat="22.870514" lon="109.054468">
        <ele>98.428028</ele>
        <time>2026-08-14T08:21:58.000Z</time>
      </trkpt>
      <trkpt lat="22.870560" lon="109.054509">
        <ele>98.407612</ele>
        <time>2026-08-14T08:21:59.000Z</time>
      </trkpt>
      <trkpt lat="22.870606" lon="109.054551">
        <ele>98.386994</ele>
        <time>2026-08-14T08:22:00.000Z</time>
      </trkpt>
      <trkpt lat="22.870651" lon="109.054591">
        <ele>98.367044</ele>
        <time>2026-08-14T08:22:01.000Z</time>
      </trkpt>
      <trkpt lat="22.870695" lon="109.054630">
        <ele>98.347560</ele>
        <time>2026-08-14T08:22:02.000Z</time>
      </trkpt>
      <trkpt lat="22.870739" lon="109.054670">
        <ele>98.327874</ele>
        <time>2026-08-14T08:22:03.000Z</time>
      </trkpt>
      <trkpt lat="22.870785" lon="109.054709">
        <ele>98.307853</ele>
        <time>2026-08-14T08:22:04.000Z</time>
      </trkpt>
      <trkpt lat="22.870830" lon="109.054748">
        <ele>98.288102</ele>
        <time>2026-08-14T08:22:05.000Z</time>
      </trkpt>
      <trkpt lat="22.870875" lon="109.054788">
        <ele>98.279720</ele>
        <time>2026-08-14T08:22:06.000Z</time>
      </trkpt>
      <trkpt lat="22.870921" lon="109.054825">
        <ele>98.284802</ele>
        <time>2026-08-14T08:22:07.000Z</time>
      </trkpt>
      <trkpt lat="22.870966" lon="109.054864">
        <ele>98.289913</ele>
        <time>2026-08-14T08:22:08.000Z</time>
      </trkpt>
      <trkpt lat="22.871010" lon="109.054905">
        <ele>98.295061</ele>
        <time>2026-08-14T08:22:09.000Z</time>
      </trkpt>
      <trkpt lat="22.871054" lon="109.054943">
        <ele>98.300052</ele>
        <time>2026-08-14T08:22:10.000Z</time>
      </trkpt>
      <trkpt lat="22.871098" lon="109.054981">
        <ele>98.305043</ele>
        <time>2026-08-14T08:22:11.000Z</time>
      </trkpt>
      <trkpt lat="22.871140" lon="109.055019">
        <ele>98.309897</ele>
        <time>2026-08-14T08:22:12.000Z</time>
      </trkpt>
      <trkpt lat="22.871183" lon="109.055057">
        <ele>98.314819</ele>
        <time>2026-08-14T08:22:13.000Z</time>
      </trkpt>
      <trkpt lat="22.871226" lon="109.055095">
        <ele>98.319741</ele>
        <time>2026-08-14T08:22:14.000Z</time>
      </trkpt>
      <trkpt lat="22.871269" lon="109.055133">
        <ele>98.324663</ele>
        <time>2026-08-14T08:22:15.000Z</time>
      </trkpt>
      <trkpt lat="22.871313" lon="109.055172">
        <ele>98.329705</ele>
        <time>2026-08-14T08:22:16.000Z</time>
      </trkpt>
      <trkpt lat="22.871356" lon="109.055211">
        <ele>98.334679</ele>
        <time>2026-08-14T08:22:17.000Z</time>
      </trkpt>
      <trkpt lat="22.871399" lon="109.055250">
        <ele>98.339653</ele>
        <time>2026-08-14T08:22:18.000Z</time>
      </trkpt>
      <trkpt lat="22.871443" lon="109.055288">
        <ele>98.344645</ele>
        <time>2026-08-14T08:22:19.000Z</time>
      </trkpt>
      <trkpt lat="22.871486" lon="109.055325">
        <ele>98.349515</ele>
        <time>2026-08-14T08:22:20.000Z</time>
      </trkpt>
      <trkpt lat="22.871529" lon="109.055362">
        <ele>98.354386</ele>
        <time>2026-08-14T08:22:21.000Z</time>
      </trkpt>
      <trkpt lat="22.871572" lon="109.055399">
        <ele>98.359257</ele>
        <time>2026-08-14T08:22:22.000Z</time>
      </trkpt>
      <trkpt lat="22.871613" lon="109.055437">
        <ele>98.364043</ele>
        <time>2026-08-14T08:22:23.000Z</time>
      </trkpt>
      <trkpt lat="22.871654" lon="109.055474">
        <ele>98.368776</ele>
        <time>2026-08-14T08:22:24.000Z</time>
      </trkpt>
      <trkpt lat="22.871695" lon="109.055513">
        <ele>98.373615</ele>
        <time>2026-08-14T08:22:25.000Z</time>
      </trkpt>
      <trkpt lat="22.871737" lon="109.055551">
        <ele>98.378468</ele>
        <time>2026-08-14T08:22:26.000Z</time>
      </trkpt>
      <trkpt lat="22.871778" lon="109.055588">
        <ele>98.383201</ele>
        <time>2026-08-14T08:22:27.000Z</time>
      </trkpt>
      <trkpt lat="22.871820" lon="109.055626">
        <ele>98.388055</ele>
        <time>2026-08-14T08:22:28.000Z</time>
      </trkpt>
      <trkpt lat="22.871861" lon="109.055664">
        <ele>98.392840</ele>
        <time>2026-08-14T08:22:29.000Z</time>
      </trkpt>
      <trkpt lat="22.871902" lon="109.055703">
        <ele>98.397680</ele>
        <time>2026-08-14T08:22:30.000Z</time>
      </trkpt>
      <trkpt lat="22.871943" lon="109.055741">
        <ele>98.402465</ele>
        <time>2026-08-14T08:22:31.000Z</time>
      </trkpt>
      <trkpt lat="22.871983" lon="109.055777">
        <ele>98.407078</ele>
        <time>2026-08-14T08:22:32.000Z</time>
      </trkpt>
      <trkpt lat="22.872024" lon="109.055813">
        <ele>98.411759</ele>
        <time>2026-08-14T08:22:33.000Z</time>
      </trkpt>
      <trkpt lat="22.872062" lon="109.055847">
        <ele>98.416130</ele>
        <time>2026-08-14T08:22:34.000Z</time>
      </trkpt>
      <trkpt lat="22.872102" lon="109.055882">
        <ele>98.420691</ele>
        <time>2026-08-14T08:22:35.000Z</time>
      </trkpt>
      <trkpt lat="22.872143" lon="109.055917">
        <ele>98.425321</ele>
        <time>2026-08-14T08:22:36.000Z</time>
      </trkpt>
      <trkpt lat="22.872184" lon="109.055952">
        <ele>98.429951</ele>
        <time>2026-08-14T08:22:37.000Z</time>
      </trkpt>
      <trkpt lat="22.872224" lon="109.055987">
        <ele>98.434512</ele>
        <time>2026-08-14T08:22:38.000Z</time>
      </trkpt>
      <trkpt lat="22.872264" lon="109.056021">
        <ele>98.441185</ele>
        <time>2026-08-14T08:22:39.000Z</time>
      </trkpt>
      <trkpt lat="22.872303" lon="109.056058">
        <ele>98.450690</ele>
        <time>2026-08-14T08:22:40.000Z</time>
      </trkpt>
      <trkpt lat="22.872342" lon="109.056094">
        <ele>98.460084</ele>
        <time>2026-08-14T08:22:41.000Z</time>
      </trkpt>
      <trkpt lat="22.872383" lon="109.056129">
        <ele>98.469655</ele>
        <time>2026-08-14T08:22:42.000Z</time>
      </trkpt>
      <trkpt lat="22.872422" lon="109.056163">
        <ele>98.478834</ele>
        <time>2026-08-14T08:22:43.000Z</time>
      </trkpt>
      <trkpt lat="22.872462" lon="109.056198">
        <ele>98.488262</ele>
        <time>2026-08-14T08:22:44.000Z</time>
      </trkpt>
      <trkpt lat="22.872504" lon="109.056233">
        <ele>98.497978</ele>
        <time>2026-08-14T08:22:45.000Z</time>
      </trkpt>
      <trkpt lat="22.872546" lon="109.056269">
        <ele>98.507798</ele>
        <time>2026-08-14T08:22:46.000Z</time>
      </trkpt>
      <trkpt lat="22.872586" lon="109.056304">
        <ele>98.517226</ele>
        <time>2026-08-14T08:22:47.000Z</time>
      </trkpt>
      <trkpt lat="22.872625" lon="109.056338">
        <ele>98.526404</ele>
        <time>2026-08-14T08:22:48.000Z</time>
      </trkpt>
      <trkpt lat="22.872665" lon="109.056372">
        <ele>98.535727</ele>
        <time>2026-08-14T08:22:49.000Z</time>
      </trkpt>
      <trkpt lat="22.872704" lon="109.056407">
        <ele>98.545013</ele>
        <time>2026-08-14T08:22:50.000Z</time>
      </trkpt>
      <trkpt lat="22.872743" lon="109.056443">
        <ele>98.554407</ele>
        <time>2026-08-14T08:22:51.000Z</time>
      </trkpt>
      <trkpt lat="22.872782" lon="109.056480">
        <ele>98.563911</ele>
        <time>2026-08-14T08:22:52.000Z</time>
      </trkpt>
      <trkpt lat="22.872820" lon="109.056516">
        <ele>98.573167</ele>
        <time>2026-08-14T08:22:53.000Z</time>
      </trkpt>
      <trkpt lat="22.872859" lon="109.056552">
        <ele>98.582561</ele>
        <time>2026-08-14T08:22:54.000Z</time>
      </trkpt>
      <trkpt lat="22.872898" lon="109.056588">
        <ele>98.591955</ele>
        <time>2026-08-14T08:22:55.000Z</time>
      </trkpt>
      <trkpt lat="22.872936" lon="109.056622">
        <ele>98.600991</ele>
        <time>2026-08-14T08:22:56.000Z</time>
      </trkpt>
      <trkpt lat="22.872974" lon="109.056658">
        <ele>98.610247</ele>
        <time>2026-08-14T08:22:57.000Z</time>
      </trkpt>
      <trkpt lat="22.873012" lon="109.056693">
        <ele>98.619391</ele>
        <time>2026-08-14T08:22:58.000Z</time>
      </trkpt>
      <trkpt lat="22.873050" lon="109.056727">
        <ele>98.628428</ele>
        <time>2026-08-14T08:22:59.000Z</time>
      </trkpt>
      <trkpt lat="22.873088" lon="109.056763">
        <ele>98.637683</ele>
        <time>2026-08-14T08:23:00.000Z</time>
      </trkpt>
      <trkpt lat="22.873126" lon="109.056801">
        <ele>98.647164</ele>
        <time>2026-08-14T08:23:01.000Z</time>
      </trkpt>
      <trkpt lat="22.873165" lon="109.056839">
        <ele>98.656781</ele>
        <time>2026-08-14T08:23:02.000Z</time>
      </trkpt>
      <trkpt lat="22.873201" lon="109.056878">
        <ele>98.666114</ele>
        <time>2026-08-14T08:23:03.000Z</time>
      </trkpt>
      <trkpt lat="22.873237" lon="109.056918">
        <ele>98.675567</ele>
        <time>2026-08-14T08:23:04.000Z</time>
      </trkpt>
      <trkpt lat="22.873275" lon="109.056957">
        <ele>98.685163</ele>
        <time>2026-08-14T08:23:05.000Z</time>
      </trkpt>
      <trkpt lat="22.873312" lon="109.056996">
        <ele>98.694627</ele>
        <time>2026-08-14T08:23:06.000Z</time>
      </trkpt>
      <trkpt lat="22.873349" lon="109.057033">
        <ele>98.703859</ele>
        <time>2026-08-14T08:23:07.000Z</time>
      </trkpt>
      <trkpt lat="22.873385" lon="109.057072">
        <ele>98.713192</ele>
        <time>2026-08-14T08:23:08.000Z</time>
      </trkpt>
      <trkpt lat="22.873420" lon="109.057110">
        <ele>98.722275</ele>
        <time>2026-08-14T08:23:09.000Z</time>
      </trkpt>
      <trkpt lat="22.873454" lon="109.057149">
        <ele>98.731352</ele>
        <time>2026-08-14T08:23:10.000Z</time>
      </trkpt>
      <trkpt lat="22.873490" lon="109.057187">
        <ele>98.740567</ele>
        <time>2026-08-14T08:23:11.000Z</time>
      </trkpt>
      <trkpt lat="22.873525" lon="109.057226">
        <ele>98.749771</ele>
        <time>2026-08-14T08:23:12.000Z</time>
      </trkpt>
      <trkpt lat="22.873561" lon="109.057265">
        <ele>98.759104</ele>
        <time>2026-08-14T08:23:13.000Z</time>
      </trkpt>
      <trkpt lat="22.873596" lon="109.057306">
        <ele>98.779206</ele>
        <time>2026-08-14T08:23:14.000Z</time>
      </trkpt>
      <trkpt lat="22.873631" lon="109.057348">
        <ele>98.855482</ele>
        <time>2026-08-14T08:23:15.000Z</time>
      </trkpt>
      <trkpt lat="22.873664" lon="109.057390">
        <ele>98.929829</ele>
        <time>2026-08-14T08:23:16.000Z</time>
      </trkpt>
      <trkpt lat="22.873697" lon="109.057434">
        <ele>99.006245</ele>
        <time>2026-08-14T08:23:17.000Z</time>
      </trkpt>
      <trkpt lat="22.873730" lon="109.057477">
        <ele>99.081621</ele>
        <time>2026-08-14T08:23:18.000Z</time>
      </trkpt>
      <trkpt lat="22.873762" lon="109.057520">
        <ele>99.156070</ele>
        <time>2026-08-14T08:23:19.000Z</time>
      </trkpt>
      <trkpt lat="22.873795" lon="109.057561">
        <ele>99.229396</ele>
        <time>2026-08-14T08:23:20.000Z</time>
      </trkpt>
      <trkpt lat="22.873827" lon="109.057604">
        <ele>99.303846</ele>
        <time>2026-08-14T08:23:21.000Z</time>
      </trkpt>
      <trkpt lat="22.873859" lon="109.057647">
        <ele>99.378295</ele>
        <time>2026-08-14T08:23:22.000Z</time>
      </trkpt>
      <trkpt lat="22.873890" lon="109.057690">
        <ele>99.451834</ele>
        <time>2026-08-14T08:23:23.000Z</time>
      </trkpt>
      <trkpt lat="22.873921" lon="109.057733">
        <ele>99.525373</ele>
        <time>2026-08-14T08:23:24.000Z</time>
      </trkpt>
      <trkpt lat="22.873953" lon="109.057775">
        <ele>99.598779</ele>
        <time>2026-08-14T08:23:25.000Z</time>
      </trkpt>
      <trkpt lat="22.873985" lon="109.057819">
        <ele>99.674281</ele>
        <time>2026-08-14T08:23:26.000Z</time>
      </trkpt>
      <trkpt lat="22.874016" lon="109.057863">
        <ele>99.748886</ele>
        <time>2026-08-14T08:23:27.000Z</time>
      </trkpt>
      <trkpt lat="22.874046" lon="109.057907">
        <ele>99.822611</ele>
        <time>2026-08-14T08:23:28.000Z</time>
      </trkpt>
      <trkpt lat="22.874076" lon="109.057951">
        <ele>99.896337</ele>
        <time>2026-08-14T08:23:29.000Z</time>
      </trkpt>
      <trkpt lat="22.874106" lon="109.057995">
        <ele>99.970063</ele>
        <time>2026-08-14T08:23:30.000Z</time>
      </trkpt>
      <trkpt lat="22.874135" lon="109.058037">
        <ele>100.040755</ele>
        <time>2026-08-14T08:23:31.000Z</time>
      </trkpt>
      <trkpt lat="22.874164" lon="109.058079">
        <ele>100.111447</ele>
        <time>2026-08-14T08:23:32.000Z</time>
      </trkpt>
      <trkpt lat="22.874190" lon="109.058118">
        <ele>100.176285</ele>
        <time>2026-08-14T08:23:33.000Z</time>
      </trkpt>
      <trkpt lat="22.874216" lon="109.058157">
        <ele>100.241122</ele>
        <time>2026-08-14T08:23:34.000Z</time>
      </trkpt>
      <trkpt lat="22.874244" lon="109.058194">
        <ele>100.305613</ele>
        <time>2026-08-14T08:23:35.000Z</time>
      </trkpt>
      <trkpt lat="22.874272" lon="109.058231">
        <ele>100.370103</ele>
        <time>2026-08-14T08:23:36.000Z</time>
      </trkpt>
      <trkpt lat="22.874298" lon="109.058266">
        <ele>100.430658</ele>
        <time>2026-08-14T08:23:37.000Z</time>
      </trkpt>
      <trkpt lat="22.874325" lon="109.058302">
        <ele>100.493180</ele>
        <time>2026-08-14T08:23:38.000Z</time>
      </trkpt>
      <trkpt lat="22.874351" lon="109.058336">
        <ele>100.552693</ele>
        <time>2026-08-14T08:23:39.000Z</time>
      </trkpt>
      <trkpt lat="22.874376" lon="109.058372">
        <ele>100.613411</ele>
        <time>2026-08-14T08:23:40.000Z</time>
      </trkpt>
      <trkpt lat="22.874398" lon="109.058407">
        <ele>100.670478</ele>
        <time>2026-08-14T08:23:41.000Z</time>
      </trkpt>
      <trkpt lat="22.874420" lon="109.058441">
        <ele>100.726437</ele>
        <time>2026-08-14T08:23:42.000Z</time>
      </trkpt>
      <trkpt lat="22.874443" lon="109.058475">
        <ele>100.783250</ele>
        <time>2026-08-14T08:23:43.000Z</time>
      </trkpt>
      <trkpt lat="22.874467" lon="109.058510">
        <ele>100.842014</ele>
        <time>2026-08-14T08:23:44.000Z</time>
      </trkpt>
      <trkpt lat="22.874492" lon="109.058546">
        <ele>100.902732</ele>
        <time>2026-08-14T08:23:45.000Z</time>
      </trkpt>
      <trkpt lat="22.874519" lon="109.058583">
        <ele>100.966305</ele>
        <time>2026-08-14T08:23:46.000Z</time>
      </trkpt>
      <trkpt lat="22.874545" lon="109.058619">
        <ele>101.027914</ele>
        <time>2026-08-14T08:23:47.000Z</time>
      </trkpt>
      <trkpt lat="22.874572" lon="109.058656">
        <ele>101.091486</ele>
        <time>2026-08-14T08:23:48.000Z</time>
      </trkpt>
      <trkpt lat="22.874598" lon="109.058694">
        <ele>101.155238</ele>
        <time>2026-08-14T08:23:49.000Z</time>
      </trkpt>
      <trkpt lat="22.874625" lon="109.058732">
        <ele>101.219871</ele>
        <time>2026-08-14T08:23:50.000Z</time>
      </trkpt>
      <trkpt lat="22.874653" lon="109.058770">
        <ele>101.285407</ele>
        <time>2026-08-14T08:23:51.000Z</time>
      </trkpt>
      <trkpt lat="22.874680" lon="109.058809">
        <ele>101.351113</ele>
        <time>2026-08-14T08:23:52.000Z</time>
      </trkpt>
      <trkpt lat="22.874708" lon="109.058847">
        <ele>101.403755</ele>
        <time>2026-08-14T08:23:53.000Z</time>
      </trkpt>
      <trkpt lat="22.874736" lon="109.058885">
        <ele>101.427595</ele>
        <time>2026-08-14T08:23:54.000Z</time>
      </trkpt>
      <trkpt lat="22.874765" lon="109.058924">
        <ele>101.452149</ele>
        <time>2026-08-14T08:23:55.000Z</time>
      </trkpt>
      <trkpt lat="22.874794" lon="109.058962">
        <ele>101.476325</ele>
        <time>2026-08-14T08:23:56.000Z</time>
      </trkpt>
      <trkpt lat="22.874821" lon="109.059000">
        <ele>101.499836</ele>
        <time>2026-08-14T08:23:57.000Z</time>
      </trkpt>
      <trkpt lat="22.874849" lon="109.059038">
        <ele>101.523675</ele>
        <time>2026-08-14T08:23:58.000Z</time>
      </trkpt>
      <trkpt lat="22.874877" lon="109.059077">
        <ele>101.547899</ele>
        <time>2026-08-14T08:23:59.000Z</time>
      </trkpt>
      <trkpt lat="22.874907" lon="109.059117">
        <ele>101.573170</ele>
        <time>2026-08-14T08:24:00.000Z</time>
      </trkpt>
      <trkpt lat="22.874935" lon="109.059156">
        <ele>101.597394</ele>
        <time>2026-08-14T08:24:01.000Z</time>
      </trkpt>
      <trkpt lat="22.874962" lon="109.059194">
        <ele>101.620905</ele>
        <time>2026-08-14T08:24:02.000Z</time>
      </trkpt>
      <trkpt lat="22.874988" lon="109.059234">
        <ele>101.644889</ele>
        <time>2026-08-14T08:24:03.000Z</time>
      </trkpt>
      <trkpt lat="22.875014" lon="109.059275">
        <ele>101.669275</ele>
        <time>2026-08-14T08:24:04.000Z</time>
      </trkpt>
      <trkpt lat="22.875041" lon="109.059307">
        <ele>101.690534</ele>
        <time>2026-08-14T08:24:05.000Z</time>
      </trkpt>
      <trkpt lat="22.875069" lon="109.059338">
        <ele>101.711803</ele>
        <time>2026-08-14T08:24:06.000Z</time>
      </trkpt>
      <trkpt lat="22.875098" lon="109.059375">
        <ele>101.735603</ele>
        <time>2026-08-14T08:24:07.000Z</time>
      </trkpt>
      <trkpt lat="22.875126" lon="109.059416">
        <ele>101.760607</ele>
        <time>2026-08-14T08:24:08.000Z</time>
      </trkpt>
      <trkpt lat="22.875153" lon="109.059457">
        <ele>101.785299</ele>
        <time>2026-08-14T08:24:09.000Z</time>
      </trkpt>
      <trkpt lat="22.875181" lon="109.059499">
        <ele>101.810698</ele>
        <time>2026-08-14T08:24:10.000Z</time>
      </trkpt>
      <trkpt lat="22.875210" lon="109.059540">
        <ele>101.836023</ele>
        <time>2026-08-14T08:24:11.000Z</time>
      </trkpt>
      <trkpt lat="22.875239" lon="109.059582">
        <ele>101.861738</ele>
        <time>2026-08-14T08:24:12.000Z</time>
      </trkpt>
      <trkpt lat="22.875269" lon="109.059623">
        <ele>101.887390</ele>
        <time>2026-08-14T08:24:13.000Z</time>
      </trkpt>
      <trkpt lat="22.875297" lon="109.059662">
        <ele>101.911614</ele>
        <time>2026-08-14T08:24:14.000Z</time>
      </trkpt>
      <trkpt lat="22.875323" lon="109.059702">
        <ele>101.935598</ele>
        <time>2026-08-14T08:24:15.000Z</time>
      </trkpt>
      <trkpt lat="22.875350" lon="109.059741">
        <ele>101.959499</ele>
        <time>2026-08-14T08:24:16.000Z</time>
      </trkpt>
      <trkpt lat="22.875376" lon="109.059780">
        <ele>101.983084</ele>
        <time>2026-08-14T08:24:17.000Z</time>
      </trkpt>
      <trkpt lat="22.875402" lon="109.059819">
        <ele>102.006669</ele>
        <time>2026-08-14T08:24:18.000Z</time>
      </trkpt>
      <trkpt lat="22.875429" lon="109.059858">
        <ele>102.030570</ele>
        <time>2026-08-14T08:24:19.000Z</time>
      </trkpt>
      <trkpt lat="22.875455" lon="109.059897">
        <ele>102.054155</ele>
        <time>2026-08-14T08:24:20.000Z</time>
      </trkpt>
      <trkpt lat="22.875482" lon="109.059935">
        <ele>102.077666</ele>
        <time>2026-08-14T08:24:21.000Z</time>
      </trkpt>
      <trkpt lat="22.875509" lon="109.059974">
        <ele>102.101567</ele>
        <time>2026-08-14T08:24:22.000Z</time>
      </trkpt>
      <trkpt lat="22.875536" lon="109.060012">
        <ele>102.125078</ele>
        <time>2026-08-14T08:24:23.000Z</time>
      </trkpt>
      <trkpt lat="22.875564" lon="109.060051">
        <ele>102.149302</ele>
        <time>2026-08-14T08:24:24.000Z</time>
      </trkpt>
      <trkpt lat="22.875590" lon="109.060090">
        <ele>102.172888</ele>
        <time>2026-08-14T08:24:25.000Z</time>
      </trkpt>
      <trkpt lat="22.875617" lon="109.060129">
        <ele>102.196789</ele>
        <time>2026-08-14T08:24:26.000Z</time>
      </trkpt>
      <trkpt lat="22.875643" lon="109.060169">
        <ele>102.220773</ele>
        <time>2026-08-14T08:24:27.000Z</time>
      </trkpt>
      <trkpt lat="22.875670" lon="109.060209">
        <ele>102.245067</ele>
        <time>2026-08-14T08:24:28.000Z</time>
      </trkpt>
      <trkpt lat="22.875696" lon="109.060250">
        <ele>102.269453</ele>
        <time>2026-08-14T08:24:29.000Z</time>
      </trkpt>
      <trkpt lat="22.875724" lon="109.060292">
        <ele>102.294852</ele>
        <time>2026-08-14T08:24:30.000Z</time>
      </trkpt>
      <trkpt lat="22.875752" lon="109.060334">
        <ele>102.320252</ele>
        <time>2026-08-14T08:24:31.000Z</time>
      </trkpt>
      <trkpt lat="22.875781" lon="109.060377">
        <ele>102.346360</ele>
        <time>2026-08-14T08:24:32.000Z</time>
      </trkpt>
      <trkpt lat="22.875812" lon="109.060420">
        <ele>102.288737</ele>
        <time>2026-08-14T08:24:33.000Z</time>
      </trkpt>
      <trkpt lat="22.875842" lon="109.060463">
        <ele>102.205158</ele>
        <time>2026-08-14T08:24:34.000Z</time>
      </trkpt>
      <trkpt lat="22.875872" lon="109.060506">
        <ele>102.121578</ele>
        <time>2026-08-14T08:24:35.000Z</time>
      </trkpt>
      <trkpt lat="22.875904" lon="109.060549">
        <ele>102.035926</ele>
        <time>2026-08-14T08:24:36.000Z</time>
      </trkpt>
      <trkpt lat="22.875936" lon="109.060593">
        <ele>101.949063</ele>
        <time>2026-08-14T08:24:37.000Z</time>
      </trkpt>
      <trkpt lat="22.875968" lon="109.060637">
        <ele>101.862200</ele>
        <time>2026-08-14T08:24:38.000Z</time>
      </trkpt>
      <trkpt lat="22.876001" lon="109.060681">
        <ele>101.774285</ele>
        <time>2026-08-14T08:24:39.000Z</time>
      </trkpt>
      <trkpt lat="22.876033" lon="109.060727">
        <ele>101.684968</ele>
        <time>2026-08-14T08:24:40.000Z</time>
      </trkpt>
      <trkpt lat="22.876065" lon="109.060773">
        <ele>101.595652</ele>
        <time>2026-08-14T08:24:41.000Z</time>
      </trkpt>
      <trkpt lat="22.876097" lon="109.060819">
        <ele>101.506336</ele>
        <time>2026-08-14T08:24:42.000Z</time>
      </trkpt>
      <trkpt lat="22.876129" lon="109.060866">
        <ele>101.415778</ele>
        <time>2026-08-14T08:24:43.000Z</time>
      </trkpt>
      <trkpt lat="22.876160" lon="109.060913">
        <ele>101.326210</ele>
        <time>2026-08-14T08:24:44.000Z</time>
      </trkpt>
      <trkpt lat="22.876192" lon="109.060958">
        <ele>101.238125</ele>
        <time>2026-08-14T08:24:45.000Z</time>
      </trkpt>
      <trkpt lat="22.876225" lon="109.061005">
        <ele>101.146558</ele>
        <time>2026-08-14T08:24:46.000Z</time>
      </trkpt>
      <trkpt lat="22.876258" lon="109.061054">
        <ele>101.052507</ele>
        <time>2026-08-14T08:24:47.000Z</time>
      </trkpt>
      <trkpt lat="22.876292" lon="109.061102">
        <ele>100.958687</ele>
        <time>2026-08-14T08:24:48.000Z</time>
      </trkpt>
      <trkpt lat="22.876327" lon="109.061152">
        <ele>100.861384</ele>
        <time>2026-08-14T08:24:49.000Z</time>
      </trkpt>
      <trkpt lat="22.876363" lon="109.061201">
        <ele>100.764270</ele>
        <time>2026-08-14T08:24:50.000Z</time>
      </trkpt>
      <trkpt lat="22.876399" lon="109.061248">
        <ele>100.669559</ele>
        <time>2026-08-14T08:24:51.000Z</time>
      </trkpt>
      <trkpt lat="22.876436" lon="109.061295">
        <ele>100.573765</ele>
        <time>2026-08-14T08:24:52.000Z</time>
      </trkpt>
      <trkpt lat="22.876471" lon="109.061343">
        <ele>100.478911</ele>
        <time>2026-08-14T08:24:53.000Z</time>
      </trkpt>
      <trkpt lat="22.876506" lon="109.061392">
        <ele>100.382836</ele>
        <time>2026-08-14T08:24:54.000Z</time>
      </trkpt>
      <trkpt lat="22.876541" lon="109.061441">
        <ele>100.286762</ele>
        <time>2026-08-14T08:24:55.000Z</time>
      </trkpt>
      <trkpt lat="22.876576" lon="109.061491">
        <ele>100.189459</ele>
        <time>2026-08-14T08:24:56.000Z</time>
      </trkpt>
      <trkpt lat="22.876611" lon="109.061542">
        <ele>100.090917</ele>
        <time>2026-08-14T08:24:57.000Z</time>
      </trkpt>
      <trkpt lat="22.876645" lon="109.061593">
        <ele>99.993371</ele>
        <time>2026-08-14T08:24:58.000Z</time>
      </trkpt>
      <trkpt lat="22.876683" lon="109.061644">
        <ele>99.891734</ele>
        <time>2026-08-14T08:24:59.000Z</time>
      </trkpt>
      <trkpt lat="22.876720" lon="109.061696">
        <ele>99.789925</ele>
        <time>2026-08-14T08:25:00.000Z</time>
      </trkpt>
      <trkpt lat="22.876757" lon="109.061750">
        <ele>99.685646</ele>
        <time>2026-08-14T08:25:01.000Z</time>
      </trkpt>
      <trkpt lat="22.876792" lon="109.061808">
        <ele>99.578210</ele>
        <time>2026-08-14T08:25:02.000Z</time>
      </trkpt>
      <trkpt lat="22.876829" lon="109.061869">
        <ele>99.465042</ele>
        <time>2026-08-14T08:25:03.000Z</time>
      </trkpt>
      <trkpt lat="22.876873" lon="109.061925">
        <ele>99.350997</ele>
        <time>2026-08-14T08:25:04.000Z</time>
      </trkpt>
      <trkpt lat="22.876921" lon="109.061983">
        <ele>99.255888</ele>
        <time>2026-08-14T08:25:05.000Z</time>
      </trkpt>
      <trkpt lat="22.876964" lon="109.062037">
        <ele>99.174412</ele>
        <time>2026-08-14T08:25:06.000Z</time>
      </trkpt>
      <trkpt lat="22.877005" lon="109.062096">
        <ele>99.090051</ele>
        <time>2026-08-14T08:25:07.000Z</time>
      </trkpt>
      <trkpt lat="22.877048" lon="109.062156">
        <ele>99.003278</ele>
        <time>2026-08-14T08:25:08.000Z</time>
      </trkpt>
      <trkpt lat="22.877090" lon="109.062217">
        <ele>98.916347</ele>
        <time>2026-08-14T08:25:09.000Z</time>
      </trkpt>
      <trkpt lat="22.877133" lon="109.062277">
        <ele>98.829574</ele>
        <time>2026-08-14T08:25:10.000Z</time>
      </trkpt>
      <trkpt lat="22.877175" lon="109.062336">
        <ele>98.744461</ele>
        <time>2026-08-14T08:25:11.000Z</time>
      </trkpt>
      <trkpt lat="22.877216" lon="109.062398">
        <ele>98.657342</ele>
        <time>2026-08-14T08:25:12.000Z</time>
      </trkpt>
      <trkpt lat="22.877259" lon="109.062460">
        <ele>98.568755</ele>
        <time>2026-08-14T08:25:13.000Z</time>
      </trkpt>
      <trkpt lat="22.877302" lon="109.062520">
        <ele>98.481982</ele>
        <time>2026-08-14T08:25:14.000Z</time>
      </trkpt>
      <trkpt lat="22.877345" lon="109.062581">
        <ele>98.394304</ele>
        <time>2026-08-14T08:25:15.000Z</time>
      </trkpt>
      <trkpt lat="22.877392" lon="109.062641">
        <ele>98.304403</ele>
        <time>2026-08-14T08:25:16.000Z</time>
      </trkpt>
      <trkpt lat="22.877437" lon="109.062700">
        <ele>98.216968</ele>
        <time>2026-08-14T08:25:17.000Z</time>
      </trkpt>
      <trkpt lat="22.877485" lon="109.062758">
        <ele>98.127970</ele>
        <time>2026-08-14T08:25:18.000Z</time>
      </trkpt>
      <trkpt lat="22.877531" lon="109.062816">
        <ele>98.040609</ele>
        <time>2026-08-14T08:25:19.000Z</time>
      </trkpt>
      <trkpt lat="22.877574" lon="109.062877">
        <ele>97.952932</ele>
        <time>2026-08-14T08:25:20.000Z</time>
      </trkpt>
      <trkpt lat="22.877614" lon="109.062938">
        <ele>97.867462</ele>
        <time>2026-08-14T08:25:21.000Z</time>
      </trkpt>
      <trkpt lat="22.877657" lon="109.062998">
        <ele>97.780689</ele>
        <time>2026-08-14T08:25:22.000Z</time>
      </trkpt>
      <trkpt lat="22.877698" lon="109.063060">
        <ele>97.693570</ele>
        <time>2026-08-14T08:25:23.000Z</time>
      </trkpt>
      <trkpt lat="22.877739" lon="109.063121">
        <ele>97.607376</ele>
        <time>2026-08-14T08:25:24.000Z</time>
      </trkpt>
      <trkpt lat="22.877778" lon="109.063180">
        <ele>97.524484</ele>
        <time>2026-08-14T08:25:25.000Z</time>
      </trkpt>
      <trkpt lat="22.877818" lon="109.063240">
        <ele>97.439942</ele>
        <time>2026-08-14T08:25:26.000Z</time>
      </trkpt>
      <trkpt lat="22.877860" lon="109.063300">
        <ele>97.353923</ele>
        <time>2026-08-14T08:25:27.000Z</time>
      </trkpt>
      <trkpt lat="22.877901" lon="109.063360">
        <ele>97.268649</ele>
        <time>2026-08-14T08:25:28.000Z</time>
      </trkpt>
      <trkpt lat="22.877946" lon="109.063417">
        <ele>97.182961</ele>
        <time>2026-08-14T08:25:29.000Z</time>
      </trkpt>
      <trkpt lat="22.877989" lon="109.063474">
        <ele>97.099464</ele>
        <time>2026-08-14T08:25:30.000Z</time>
      </trkpt>
      <trkpt lat="22.878033" lon="109.063531">
        <ele>97.140926</ele>
        <time>2026-08-14T08:25:31.000Z</time>
      </trkpt>
      <trkpt lat="22.878077" lon="109.063587">
        <ele>97.181963</ele>
        <time>2026-08-14T08:25:32.000Z</time>
      </trkpt>
      <trkpt lat="22.878116" lon="109.063644">
        <ele>97.221550</ele>
        <time>2026-08-14T08:25:33.000Z</time>
      </trkpt>
      <trkpt lat="22.878154" lon="109.063702">
        <ele>97.261232</ele>
        <time>2026-08-14T08:25:34.000Z</time>
      </trkpt>
      <trkpt lat="22.878195" lon="109.063760">
        <ele>97.301993</ele>
        <time>2026-08-14T08:25:35.000Z</time>
      </trkpt>
      <trkpt lat="22.878236" lon="109.063815">
        <ele>97.341441</ele>
        <time>2026-08-14T08:25:36.000Z</time>
      </trkpt>
      <trkpt lat="22.878279" lon="109.063868">
        <ele>97.380817</ele>
        <time>2026-08-14T08:25:37.000Z</time>
      </trkpt>
      <trkpt lat="22.878324" lon="109.063921">
        <ele>97.421003</ele>
        <time>2026-08-14T08:25:38.000Z</time>
      </trkpt>
      <trkpt lat="22.878366" lon="109.063974">
        <ele>97.459982</ele>
        <time>2026-08-14T08:25:39.000Z</time>
      </trkpt>
      <trkpt lat="22.878407" lon="109.064026">
        <ele>97.498143</ele>
        <time>2026-08-14T08:25:40.000Z</time>
      </trkpt>
      <trkpt lat="22.878449" lon="109.064076">
        <ele>97.535870</ele>
        <time>2026-08-14T08:25:41.000Z</time>
      </trkpt>
      <trkpt lat="22.878490" lon="109.064123">
        <ele>97.571959</ele>
        <time>2026-08-14T08:25:42.000Z</time>
      </trkpt>
      <trkpt lat="22.878533" lon="109.064167">
        <ele>97.607723</ele>
        <time>2026-08-14T08:25:43.000Z</time>
      </trkpt>
      <trkpt lat="22.878574" lon="109.064208">
        <ele>97.641461</ele>
        <time>2026-08-14T08:25:44.000Z</time>
      </trkpt>
      <trkpt lat="22.878617" lon="109.064247">
        <ele>97.675373</ele>
        <time>2026-08-14T08:25:45.000Z</time>
      </trkpt>
      <trkpt lat="22.878663" lon="109.064282">
        <ele>97.709371</ele>
        <time>2026-08-14T08:25:46.000Z</time>
      </trkpt>
      <trkpt lat="22.878708" lon="109.064315">
        <ele>97.742237</ele>
        <time>2026-08-14T08:25:47.000Z</time>
      </trkpt>
      <trkpt lat="22.878754" lon="109.064347">
        <ele>97.775302</ele>
        <time>2026-08-14T08:25:48.000Z</time>
      </trkpt>
      <trkpt lat="22.878799" lon="109.064380">
        <ele>97.808169</ele>
        <time>2026-08-14T08:25:49.000Z</time>
      </trkpt>
      <trkpt lat="22.878844" lon="109.064411">
        <ele>97.840424</ele>
        <time>2026-08-14T08:25:50.000Z</time>
      </trkpt>
      <trkpt lat="22.878889" lon="109.064442">
        <ele>97.872680</ele>
        <time>2026-08-14T08:25:51.000Z</time>
      </trkpt>
      <trkpt lat="22.878936" lon="109.064470">
        <ele>97.905126</ele>
        <time>2026-08-14T08:25:52.000Z</time>
      </trkpt>
      <trkpt lat="22.878981" lon="109.064497">
        <ele>97.936243</ele>
        <time>2026-08-14T08:25:53.000Z</time>
      </trkpt>
      <trkpt lat="22.879024" lon="109.064523">
        <ele>97.966032</ele>
        <time>2026-08-14T08:25:54.000Z</time>
      </trkpt>
      <trkpt lat="22.879068" lon="109.064550">
        <ele>97.996621</ele>
        <time>2026-08-14T08:25:55.000Z</time>
      </trkpt>
      <trkpt lat="22.879112" lon="109.064579">
        <ele>98.027774</ele>
        <time>2026-08-14T08:25:56.000Z</time>
      </trkpt>
      <trkpt lat="22.879159" lon="109.064607">
        <ele>98.060220</ele>
        <time>2026-08-14T08:25:57.000Z</time>
      </trkpt>
      <trkpt lat="22.879202" lon="109.064626">
        <ele>98.088317</ele>
        <time>2026-08-14T08:25:58.000Z</time>
      </trkpt>
      <trkpt lat="22.879242" lon="109.064651">
        <ele>98.116250</ele>
        <time>2026-08-14T08:25:59.000Z</time>
      </trkpt>
      <trkpt lat="22.879283" lon="109.064679">
        <ele>98.145566</ele>
        <time>2026-08-14T08:26:00.000Z</time>
      </trkpt>
      <trkpt lat="22.879326" lon="109.064711">
        <ele>98.177118</ele>
        <time>2026-08-14T08:26:01.000Z</time>
      </trkpt>
      <trkpt lat="22.879369" lon="109.064742">
        <ele>98.192086</ele>
        <time>2026-08-14T08:26:02.000Z</time>
      </trkpt>
      <trkpt lat="22.879413" lon="109.064775">
        <ele>98.198867</ele>
        <time>2026-08-14T08:26:03.000Z</time>
      </trkpt>
      <trkpt lat="22.879457" lon="109.064805">
        <ele>98.205454</ele>
        <time>2026-08-14T08:26:04.000Z</time>
      </trkpt>
      <trkpt lat="22.879501" lon="109.064829">
        <ele>98.211697</ele>
        <time>2026-08-14T08:26:05.000Z</time>
      </trkpt>
      <trkpt lat="22.879545" lon="109.064855">
        <ele>98.218049</ele>
        <time>2026-08-14T08:26:06.000Z</time>
      </trkpt>
      <trkpt lat="22.879588" lon="109.064884">
        <ele>98.224467</ele>
        <time>2026-08-14T08:26:07.000Z</time>
      </trkpt>
      <trkpt lat="22.879632" lon="109.064912">
        <ele>98.230934</ele>
        <time>2026-08-14T08:26:08.000Z</time>
      </trkpt>
      <trkpt lat="22.879675" lon="109.064941">
        <ele>98.237352</ele>
        <time>2026-08-14T08:26:09.000Z</time>
      </trkpt>
      <trkpt lat="22.879719" lon="109.064968">
        <ele>98.243760</ele>
        <time>2026-08-14T08:26:10.000Z</time>
      </trkpt>
      <trkpt lat="22.879765" lon="109.064996">
        <ele>98.250446</ele>
        <time>2026-08-14T08:26:11.000Z</time>
      </trkpt>
      <trkpt lat="22.879809" lon="109.065025">
        <ele>98.256973</ele>
        <time>2026-08-14T08:26:12.000Z</time>
      </trkpt>
      <trkpt lat="22.879857" lon="109.065052">
        <ele>98.263827</ele>
        <time>2026-08-14T08:26:13.000Z</time>
      </trkpt>
      <trkpt lat="22.879899" lon="109.065080">
        <ele>98.270076</ele>
        <time>2026-08-14T08:26:14.000Z</time>
      </trkpt>
      <trkpt lat="22.879940" lon="109.065110">
        <ele>98.276345</ele>
        <time>2026-08-14T08:26:15.000Z</time>
      </trkpt>
      <trkpt lat="22.879984" lon="109.065139">
        <ele>98.282871</ele>
        <time>2026-08-14T08:26:16.000Z</time>
      </trkpt>
      <trkpt lat="22.880026" lon="109.065168">
        <ele>98.289182</ele>
        <time>2026-08-14T08:26:17.000Z</time>
      </trkpt>
      <trkpt lat="22.880071" lon="109.065198">
        <ele>98.295877</ele>
        <time>2026-08-14T08:26:18.000Z</time>
      </trkpt>
      <trkpt lat="22.880113" lon="109.065225">
        <ele>98.302066</ele>
        <time>2026-08-14T08:26:19.000Z</time>
      </trkpt>
      <trkpt lat="22.880154" lon="109.065253">
        <ele>98.308207</ele>
        <time>2026-08-14T08:26:20.000Z</time>
      </trkpt>
      <trkpt lat="22.880194" lon="109.065279">
        <ele>98.314118</ele>
        <time>2026-08-14T08:26:21.000Z</time>
      </trkpt>
      <trkpt lat="22.880233" lon="109.065307">
        <ele>98.320046</ele>
        <time>2026-08-14T08:26:22.000Z</time>
      </trkpt>
      <trkpt lat="22.880274" lon="109.065336">
        <ele>98.326251</ele>
        <time>2026-08-14T08:26:23.000Z</time>
      </trkpt>
      <trkpt lat="22.880317" lon="109.065361">
        <ele>98.332435</ele>
        <time>2026-08-14T08:26:24.000Z</time>
      </trkpt>
      <trkpt lat="22.880360" lon="109.065389">
        <ele>98.338792</ele>
        <time>2026-08-14T08:26:25.000Z</time>
      </trkpt>
      <trkpt lat="22.880405" lon="109.065414">
        <ele>98.345201</ele>
        <time>2026-08-14T08:26:26.000Z</time>
      </trkpt>
      <trkpt lat="22.880450" lon="109.065440">
        <ele>98.351665</ele>
        <time>2026-08-14T08:26:27.000Z</time>
      </trkpt>
      <trkpt lat="22.880491" lon="109.065466">
        <ele>98.357685</ele>
        <time>2026-08-14T08:26:28.000Z</time>
      </trkpt>
      <trkpt lat="22.880533" lon="109.065496">
        <ele>98.364059</ele>
        <time>2026-08-14T08:26:29.000Z</time>
      </trkpt>
      <trkpt lat="22.880577" lon="109.065525">
        <ele>98.370585</ele>
        <time>2026-08-14T08:26:30.000Z</time>
      </trkpt>
      <trkpt lat="22.880621" lon="109.065553">
        <ele>98.377052</ele>
        <time>2026-08-14T08:26:31.000Z</time>
      </trkpt>
      <trkpt lat="22.880664" lon="109.065586">
        <ele>98.383728</ele>
        <time>2026-08-14T08:26:32.000Z</time>
      </trkpt>
      <trkpt lat="22.880711" lon="109.065614">
        <ele>98.390526</ele>
        <time>2026-08-14T08:26:33.000Z</time>
      </trkpt>
      <trkpt lat="22.880758" lon="109.065640">
        <ele>98.397214</ele>
        <time>2026-08-14T08:26:34.000Z</time>
      </trkpt>
      <trkpt lat="22.880799" lon="109.065667">
        <ele>98.403294</ele>
        <time>2026-08-14T08:26:35.000Z</time>
      </trkpt>
      <trkpt lat="22.880839" lon="109.065690">
        <ele>98.409032</ele>
        <time>2026-08-14T08:26:36.000Z</time>
      </trkpt>
      <trkpt lat="22.880883" lon="109.065718">
        <ele>98.415499</ele>
        <time>2026-08-14T08:26:37.000Z</time>
      </trkpt>
      <trkpt lat="22.880927" lon="109.065739">
        <ele>98.448488</ele>
        <time>2026-08-14T08:26:38.000Z</time>
      </trkpt>
      <trkpt lat="22.880967" lon="109.065768">
        <ele>98.482937</ele>
        <time>2026-08-14T08:26:39.000Z</time>
      </trkpt>
      <trkpt lat="22.881009" lon="109.065795">
        <ele>98.517895</ele>
        <time>2026-08-14T08:26:40.000Z</time>
      </trkpt>
      <trkpt lat="22.881052" lon="109.065826">
        <ele>98.554864</ele>
        <time>2026-08-14T08:26:41.000Z</time>
      </trkpt>
      <trkpt lat="22.881098" lon="109.065855">
        <ele>98.592960</ele>
        <time>2026-08-14T08:26:42.000Z</time>
      </trkpt>
      <trkpt lat="22.881143" lon="109.065882">
        <ele>98.629783</ele>
        <time>2026-08-14T08:26:43.000Z</time>
      </trkpt>
      <trkpt lat="22.881190" lon="109.065908">
        <ele>98.667562</ele>
        <time>2026-08-14T08:26:44.000Z</time>
      </trkpt>
      <trkpt lat="22.881237" lon="109.065934">
        <ele>98.705341</ele>
        <time>2026-08-14T08:26:45.000Z</time>
      </trkpt>
      <trkpt lat="22.881284" lon="109.065961">
        <ele>98.743424</ele>
        <time>2026-08-14T08:26:46.000Z</time>
      </trkpt>
      <trkpt lat="22.881330" lon="109.065988">
        <ele>98.780875</ele>
        <time>2026-08-14T08:26:47.000Z</time>
      </trkpt>
      <trkpt lat="22.881373" lon="109.066016">
        <ele>98.816786</ele>
        <time>2026-08-14T08:26:48.000Z</time>
      </trkpt>
      <trkpt lat="22.881418" lon="109.066045">
        <ele>98.854265</ele>
        <time>2026-08-14T08:26:49.000Z</time>
      </trkpt>
      <trkpt lat="22.881464" lon="109.066076">
        <ele>98.893042</ele>
        <time>2026-08-14T08:26:50.000Z</time>
      </trkpt>
      <trkpt lat="22.881509" lon="109.066106">
        <ele>98.930862</ele>
        <time>2026-08-14T08:26:51.000Z</time>
      </trkpt>
      <trkpt lat="22.881552" lon="109.066135">
        <ele>98.967117</ele>
        <time>2026-08-14T08:26:52.000Z</time>
      </trkpt>
      <trkpt lat="22.881594" lon="109.066165">
        <ele>99.003124</ele>
        <time>2026-08-14T08:26:53.000Z</time>
      </trkpt>
      <trkpt lat="22.881637" lon="109.066192">
        <ele>99.038700</ele>
        <time>2026-08-14T08:26:54.000Z</time>
      </trkpt>
      <trkpt lat="22.881681" lon="109.066221">
        <ele>99.075565</ele>
        <time>2026-08-14T08:26:55.000Z</time>
      </trkpt>
      <trkpt lat="22.881723" lon="109.066250">
        <ele>99.111214</ele>
        <time>2026-08-14T08:26:56.000Z</time>
      </trkpt>
      <trkpt lat="22.881767" lon="109.066278">
        <ele>99.147741</ele>
        <time>2026-08-14T08:26:57.000Z</time>
      </trkpt>
      <trkpt lat="22.881811" lon="109.066306">
        <ele>99.184268</ele>
        <time>2026-08-14T08:26:58.000Z</time>
      </trkpt>
      <trkpt lat="22.881856" lon="109.066335">
        <ele>99.221747</ele>
        <time>2026-08-14T08:26:59.000Z</time>
      </trkpt>
      <trkpt lat="22.881902" lon="109.066365">
        <ele>99.260179</ele>
        <time>2026-08-14T08:27:00.000Z</time>
      </trkpt>
      <trkpt lat="22.881947" lon="109.066393">
        <ele>99.297326</ele>
        <time>2026-08-14T08:27:01.000Z</time>
      </trkpt>
      <trkpt lat="22.881992" lon="109.066420">
        <ele>99.334149</ele>
        <time>2026-08-14T08:27:02.000Z</time>
      </trkpt>
      <trkpt lat="22.882037" lon="109.066446">
        <ele>99.370657</ele>
        <time>2026-08-14T08:27:03.000Z</time>
      </trkpt>
      <trkpt lat="22.882080" lon="109.066474">
        <ele>99.406568</ele>
        <time>2026-08-14T08:27:04.000Z</time>
      </trkpt>
      <trkpt lat="22.882122" lon="109.066505">
        <ele>99.442942</ele>
        <time>2026-08-14T08:27:05.000Z</time>
      </trkpt>
      <trkpt lat="22.882166" lon="109.066533">
        <ele>99.479469</ele>
        <time>2026-08-14T08:27:06.000Z</time>
      </trkpt>
      <trkpt lat="22.882208" lon="109.066559">
        <ele>99.514096</ele>
        <time>2026-08-14T08:27:07.000Z</time>
      </trkpt>
      <trkpt lat="22.882250" lon="109.066586">
        <ele>99.549054</ele>
        <time>2026-08-14T08:27:08.000Z</time>
      </trkpt>
      <trkpt lat="22.882292" lon="109.066613">
        <ele>99.584012</ele>
        <time>2026-08-14T08:27:09.000Z</time>
      </trkpt>
      <trkpt lat="22.882335" lon="109.066640">
        <ele>99.619588</ele>
        <time>2026-08-14T08:27:10.000Z</time>
      </trkpt>
      <trkpt lat="22.882378" lon="109.066667">
        <ele>99.655164</ele>
        <time>2026-08-14T08:27:11.000Z</time>
      </trkpt>
      <trkpt lat="22.882421" lon="109.066696">
        <ele>99.691419</ele>
        <time>2026-08-14T08:27:12.000Z</time>
      </trkpt>
      <trkpt lat="22.882465" lon="109.066727">
        <ele>99.723143</ele>
        <time>2026-08-14T08:27:13.000Z</time>
      </trkpt>
      <trkpt lat="22.882510" lon="109.066751">
        <ele>99.750684</ele>
        <time>2026-08-14T08:27:14.000Z</time>
      </trkpt>
      <trkpt lat="22.882556" lon="109.066770">
        <ele>99.777720</ele>
        <time>2026-08-14T08:27:15.000Z</time>
      </trkpt>
      <trkpt lat="22.882603" lon="109.066790">
        <ele>99.805450</ele>
        <time>2026-08-14T08:27:16.000Z</time>
      </trkpt>
      <trkpt lat="22.882646" lon="109.066817">
        <ele>99.832737</ele>
        <time>2026-08-14T08:27:17.000Z</time>
      </trkpt>
      <trkpt lat="22.882688" lon="109.066851">
        <ele>99.861517</ele>
        <time>2026-08-14T08:27:18.000Z</time>
      </trkpt>
      <trkpt lat="22.882734" lon="109.066884">
        <ele>99.891805</ele>
        <time>2026-08-14T08:27:19.000Z</time>
      </trkpt>
      <trkpt lat="22.882782" lon="109.066914">
        <ele>99.922229</ele>
        <time>2026-08-14T08:27:20.000Z</time>
      </trkpt>
      <trkpt lat="22.882829" lon="109.066942">
        <ele>99.951679</ele>
        <time>2026-08-14T08:27:21.000Z</time>
      </trkpt>
      <trkpt lat="22.882875" lon="109.066970">
        <ele>99.980649</ele>
        <time>2026-08-14T08:27:22.000Z</time>
      </trkpt>
      <trkpt lat="22.882921" lon="109.066995">
        <ele>100.008907</ele>
        <time>2026-08-14T08:27:23.000Z</time>
      </trkpt>
      <trkpt lat="22.882966" lon="109.067018">
        <ele>100.036228</ele>
        <time>2026-08-14T08:27:24.000Z</time>
      </trkpt>
      <trkpt lat="22.883009" lon="109.067040">
        <ele>100.062341</ele>
        <time>2026-08-14T08:27:25.000Z</time>
      </trkpt>
      <trkpt lat="22.883051" lon="109.067070">
        <ele>100.089958</ele>
        <time>2026-08-14T08:27:26.000Z</time>
      </trkpt>
      <trkpt lat="22.883094" lon="109.067098">
        <ele>100.117502</ele>
        <time>2026-08-14T08:27:27.000Z</time>
      </trkpt>
      <trkpt lat="22.883135" lon="109.067123">
        <ele>100.143334</ele>
        <time>2026-08-14T08:27:28.000Z</time>
      </trkpt>
      <trkpt lat="22.883178" lon="109.067151">
        <ele>100.170878</ele>
        <time>2026-08-14T08:27:29.000Z</time>
      </trkpt>
      <trkpt lat="22.883222" lon="109.067176">
        <ele>100.198158</ele>
        <time>2026-08-14T08:27:30.000Z</time>
      </trkpt>
      <trkpt lat="22.883266" lon="109.067201">
        <ele>100.225438</ele>
        <time>2026-08-14T08:27:31.000Z</time>
      </trkpt>
      <trkpt lat="22.883309" lon="109.067229">
        <ele>100.252982</ele>
        <time>2026-08-14T08:27:32.000Z</time>
      </trkpt>
      <trkpt lat="22.883350" lon="109.067258">
        <ele>100.279863</ele>
        <time>2026-08-14T08:27:33.000Z</time>
      </trkpt>
      <trkpt lat="22.883383" lon="109.067290">
        <ele>100.304169</ele>
        <time>2026-08-14T08:27:34.000Z</time>
      </trkpt>
      <trkpt lat="22.883414" lon="109.067322">
        <ele>100.327668</ele>
        <time>2026-08-14T08:27:35.000Z</time>
      </trkpt>
      <trkpt lat="22.883451" lon="109.067355">
        <ele>100.353974</ele>
        <time>2026-08-14T08:27:36.000Z</time>
      </trkpt>
      <trkpt lat="22.883493" lon="109.067380">
        <ele>100.380285</ele>
        <time>2026-08-14T08:27:37.000Z</time>
      </trkpt>
      <trkpt lat="22.883523" lon="109.067402">
        <ele>100.400173</ele>
        <time>2026-08-14T08:27:38.000Z</time>
      </trkpt>
      <trkpt lat="22.883558" lon="109.067427">
        <ele>100.423187</ele>
        <time>2026-08-14T08:27:39.000Z</time>
      </trkpt>
      <trkpt lat="22.883595" lon="109.067453">
        <ele>100.447398</ele>
        <time>2026-08-14T08:27:40.000Z</time>
      </trkpt>
      <trkpt lat="22.883637" lon="109.067473">
        <ele>100.472591</ele>
        <time>2026-08-14T08:27:41.000Z</time>
      </trkpt>
      <trkpt lat="22.883679" lon="109.067499">
        <ele>100.499150</ele>
        <time>2026-08-14T08:27:42.000Z</time>
      </trkpt>
      <trkpt lat="22.883720" lon="109.067525">
        <ele>100.525233</ele>
        <time>2026-08-14T08:27:43.000Z</time>
      </trkpt>
      <trkpt lat="22.883763" lon="109.067552">
        <ele>100.552520</ele>
        <time>2026-08-14T08:27:44.000Z</time>
      </trkpt>
      <trkpt lat="22.883804" lon="109.067575">
        <ele>100.577871</ele>
        <time>2026-08-14T08:27:45.000Z</time>
      </trkpt>
      <trkpt lat="22.883840" lon="109.067601">
        <ele>100.601623</ele>
        <time>2026-08-14T08:27:46.000Z</time>
      </trkpt>
      <trkpt lat="22.883876" lon="109.067627">
        <ele>100.625375</ele>
        <time>2026-08-14T08:27:47.000Z</time>
      </trkpt>
      <trkpt lat="22.883915" lon="109.067654">
        <ele>100.650784</ele>
        <time>2026-08-14T08:27:48.000Z</time>
      </trkpt>
      <trkpt lat="22.883951" lon="109.067677">
        <ele>100.673730</ele>
        <time>2026-08-14T08:27:49.000Z</time>
      </trkpt>
      <trkpt lat="22.883987" lon="109.067698">
        <ele>100.697176</ele>
        <time>2026-08-14T08:27:50.000Z</time>
      </trkpt>
      <trkpt lat="22.884022" lon="109.067719">
        <ele>100.724254</ele>
        <time>2026-08-14T08:27:51.000Z</time>
      </trkpt>
      <trkpt lat="22.884056" lon="109.067742">
        <ele>100.751380</ele>
        <time>2026-08-14T08:27:52.000Z</time>
      </trkpt>
      <trkpt lat="22.884089" lon="109.067763">
        <ele>100.777281</ele>
        <time>2026-08-14T08:27:53.000Z</time>
      </trkpt>
      <trkpt lat="22.884122" lon="109.067785">
        <ele>100.803503</ele>
        <time>2026-08-14T08:27:54.000Z</time>
      </trkpt>
      <trkpt lat="22.884153" lon="109.067806">
        <ele>100.828245</ele>
        <time>2026-08-14T08:27:55.000Z</time>
      </trkpt>
      <trkpt lat="22.884185" lon="109.067824">
        <ele>100.852648</ele>
        <time>2026-08-14T08:27:56.000Z</time>
      </trkpt>
      <trkpt lat="22.884211" lon="109.067846">
        <ele>100.874970</ele>
        <time>2026-08-14T08:27:57.000Z</time>
      </trkpt>
      <trkpt lat="22.884245" lon="109.067863">
        <ele>100.900316</ele>
        <time>2026-08-14T08:27:58.000Z</time>
      </trkpt>
      <trkpt lat="22.884281" lon="109.067881">
        <ele>100.927153</ele>
        <time>2026-08-14T08:27:59.000Z</time>
      </trkpt>
      <trkpt lat="22.884316" lon="109.067898">
        <ele>100.953116</ele>
        <time>2026-08-14T08:28:00.000Z</time>
      </trkpt>
      <trkpt lat="22.884348" lon="109.067920">
        <ele>100.978763</ele>
        <time>2026-08-14T08:28:01.000Z</time>
      </trkpt>
      <trkpt lat="22.884387" lon="109.067938">
        <ele>101.007458</ele>
        <time>2026-08-14T08:28:02.000Z</time>
      </trkpt>
      <trkpt lat="22.884418" lon="109.067958">
        <ele>101.031875</ele>
        <time>2026-08-14T08:28:03.000Z</time>
      </trkpt>
      <trkpt lat="22.884451" lon="109.067980">
        <ele>101.058097</ele>
        <time>2026-08-14T08:28:04.000Z</time>
      </trkpt>
      <trkpt lat="22.884483" lon="109.068002">
        <ele>101.083744</ele>
        <time>2026-08-14T08:28:05.000Z</time>
      </trkpt>
      <trkpt lat="22.884518" lon="109.068026">
        <ele>101.111775</ele>
        <time>2026-08-14T08:28:06.000Z</time>
      </trkpt>
      <trkpt lat="22.884554" lon="109.068053">
        <ele>101.141403</ele>
        <time>2026-08-14T08:28:07.000Z</time>
      </trkpt>
      <trkpt lat="22.884595" lon="109.068078">
        <ele>101.173245</ele>
        <time>2026-08-14T08:28:08.000Z</time>
      </trkpt>
      <trkpt lat="22.884635" lon="109.068101">
        <ele>101.203894</ele>
        <time>2026-08-14T08:28:09.000Z</time>
      </trkpt>
      <trkpt lat="22.884667" lon="109.068128">
        <ele>101.231337</ele>
        <time>2026-08-14T08:28:10.000Z</time>
      </trkpt>
      <trkpt lat="22.884699" lon="109.068157">
        <ele>101.259563</ele>
        <time>2026-08-14T08:28:11.000Z</time>
      </trkpt>
      <trkpt lat="22.884731" lon="109.068183">
        <ele>101.286627</ele>
        <time>2026-08-14T08:28:12.000Z</time>
      </trkpt>
      <trkpt lat="22.884761" lon="109.068203">
        <ele>101.310465</ele>
        <time>2026-08-14T08:28:13.000Z</time>
      </trkpt>
      <trkpt lat="22.884781" lon="109.068222">
        <ele>101.328461</ele>
        <time>2026-08-14T08:28:14.000Z</time>
      </trkpt>
      <trkpt lat="22.884806" lon="109.068237">
        <ele>101.347803</ele>
        <time>2026-08-14T08:28:15.000Z</time>
      </trkpt>
      <trkpt lat="22.884830" lon="109.068251">
        <ele>101.366251</ele>
        <time>2026-08-14T08:28:16.000Z</time>
      </trkpt>
      <trkpt lat="22.884848" lon="109.068265">
        <ele>101.381244</ele>
        <time>2026-08-14T08:28:17.000Z</time>
      </trkpt>
      <trkpt lat="22.884870" lon="109.068282">
        <ele>101.399529</ele>
        <time>2026-08-14T08:28:18.000Z</time>
      </trkpt>
      <trkpt lat="22.884892" lon="109.068302">
        <ele>101.418960</ele>
        <time>2026-08-14T08:28:19.000Z</time>
      </trkpt>
      <trkpt lat="22.884927" lon="109.068320">
        <ele>101.445183</ele>
        <time>2026-08-14T08:28:20.000Z</time>
      </trkpt>
      <trkpt lat="22.884963" lon="109.068343">
        <ele>101.473467</ele>
        <time>2026-08-14T08:28:21.000Z</time>
      </trkpt>
      <trkpt lat="22.884999" lon="109.068366">
        <ele>101.501752</ele>
        <time>2026-08-14T08:28:22.000Z</time>
      </trkpt>
      <trkpt lat="22.885037" lon="109.068387">
        <ele>101.530624</ele>
        <time>2026-08-14T08:28:23.000Z</time>
      </trkpt>
      <trkpt lat="22.885074" lon="109.068408">
        <ele>101.558894</ele>
        <time>2026-08-14T08:28:24.000Z</time>
      </trkpt>
      <trkpt lat="22.885108" lon="109.068429">
        <ele>101.585381</ele>
        <time>2026-08-14T08:28:25.000Z</time>
      </trkpt>
      <trkpt lat="22.885140" lon="109.068451">
        <ele>101.611029</ele>
        <time>2026-08-14T08:28:26.000Z</time>
      </trkpt>
      <trkpt lat="22.885173" lon="109.068475">
        <ele>101.637925</ele>
        <time>2026-08-14T08:28:27.000Z</time>
      </trkpt>
      <trkpt lat="22.885208" lon="109.068496">
        <ele>101.665002</ele>
        <time>2026-08-14T08:28:28.000Z</time>
      </trkpt>
      <trkpt lat="22.885242" lon="109.068520">
        <ele>101.692463</ele>
        <time>2026-08-14T08:28:29.000Z</time>
      </trkpt>
      <trkpt lat="22.885278" lon="109.068546">
        <ele>101.721741</ele>
        <time>2026-08-14T08:28:30.000Z</time>
      </trkpt>
      <trkpt lat="22.885311" lon="109.068571">
        <ele>101.748989</ele>
        <time>2026-08-14T08:28:31.000Z</time>
      </trkpt>
      <trkpt lat="22.885348" lon="109.068590">
        <ele>101.776703</ele>
        <time>2026-08-14T08:28:32.000Z</time>
      </trkpt>
      <trkpt lat="22.885387" lon="109.068609">
        <ele>101.805648</ele>
        <time>2026-08-14T08:28:33.000Z</time>
      </trkpt>
      <trkpt lat="22.885423" lon="109.068631">
        <ele>101.833621</ele>
        <time>2026-08-14T08:28:34.000Z</time>
      </trkpt>
      <trkpt lat="22.885456" lon="109.068650">
        <ele>101.858913</ele>
        <time>2026-08-14T08:28:35.000Z</time>
      </trkpt>
      <trkpt lat="22.885489" lon="109.068669">
        <ele>101.884206</ele>
        <time>2026-08-14T08:28:36.000Z</time>
      </trkpt>
      <trkpt lat="22.885519" lon="109.068691">
        <ele>101.908720</ele>
        <time>2026-08-14T08:28:37.000Z</time>
      </trkpt>
      <trkpt lat="22.885532" lon="109.068708">
        <ele>101.919332</ele>
        <time>2026-08-14T08:28:38.000Z</time>
      </trkpt>
      <trkpt lat="22.885547" lon="109.068720">
        <ele>101.928817</ele>
        <time>2026-08-14T08:28:39.000Z</time>
      </trkpt>
      <trkpt lat="22.885563" lon="109.068733">
        <ele>101.938989</ele>
        <time>2026-08-14T08:28:40.000Z</time>
      </trkpt>
      <trkpt lat="22.885585" lon="109.068751">
        <ele>101.953011</ele>
        <time>2026-08-14T08:28:41.000Z</time>
      </trkpt>
      <trkpt lat="22.885613" lon="109.068777">
        <ele>101.971766</ele>
        <time>2026-08-14T08:28:42.000Z</time>
      </trkpt>
      <trkpt lat="22.885643" lon="109.068802">
        <ele>101.991016</ele>
        <time>2026-08-14T08:28:43.000Z</time>
      </trkpt>
      <trkpt lat="22.885678" lon="109.068817">
        <ele>102.010168</ele>
        <time>2026-08-14T08:28:44.000Z</time>
      </trkpt>
      <trkpt lat="22.885712" lon="109.068828">
        <ele>102.028226</ele>
        <time>2026-08-14T08:28:45.000Z</time>
      </trkpt>
      <trkpt lat="22.885745" lon="109.068843">
        <ele>102.046435</ele>
        <time>2026-08-14T08:28:46.000Z</time>
      </trkpt>
      <trkpt lat="22.885777" lon="109.068859">
        <ele>102.064367</ele>
        <time>2026-08-14T08:28:47.000Z</time>
      </trkpt>
      <trkpt lat="22.885805" lon="109.068873">
        <ele>102.080057</ele>
        <time>2026-08-14T08:28:48.000Z</time>
      </trkpt>
      <trkpt lat="22.885833" lon="109.068889">
        <ele>102.096163</ele>
        <time>2026-08-14T08:28:49.000Z</time>
      </trkpt>
      <trkpt lat="22.885868" lon="109.068907">
        <ele>102.115875</ele>
        <time>2026-08-14T08:28:50.000Z</time>
      </trkpt>
      <trkpt lat="22.885903" lon="109.068929">
        <ele>102.136461</ele>
        <time>2026-08-14T08:28:51.000Z</time>
      </trkpt>
      <trkpt lat="22.885941" lon="109.068952">
        <ele>102.158605</ele>
        <time>2026-08-14T08:28:52.000Z</time>
      </trkpt>
      <trkpt lat="22.885976" lon="109.068977">
        <ele>102.179930</ele>
        <time>2026-08-14T08:28:53.000Z</time>
      </trkpt>
      <trkpt lat="22.886008" lon="109.069002">
        <ele>102.199998</ele>
        <time>2026-08-14T08:28:54.000Z</time>
      </trkpt>
      <trkpt lat="22.886041" lon="109.069030">
        <ele>102.221316</ele>
        <time>2026-08-14T08:28:55.000Z</time>
      </trkpt>
      <trkpt lat="22.886075" lon="109.069056">
        <ele>102.242485</ele>
        <time>2026-08-14T08:28:56.000Z</time>
      </trkpt>
      <trkpt lat="22.886109" lon="109.069081">
        <ele>102.263386</ele>
        <time>2026-08-14T08:28:57.000Z</time>
      </trkpt>
      <trkpt lat="22.886146" lon="109.069106">
        <ele>102.285569</ele>
        <time>2026-08-14T08:28:58.000Z</time>
      </trkpt>
      <trkpt lat="22.886183" lon="109.069131">
        <ele>102.307752</ele>
        <time>2026-08-14T08:28:59.000Z</time>
      </trkpt>
      <trkpt lat="22.886220" lon="109.069158">
        <ele>102.330444</ele>
        <time>2026-08-14T08:29:00.000Z</time>
      </trkpt>
      <trkpt lat="22.886257" lon="109.069188">
        <ele>102.353950</ele>
        <time>2026-08-14T08:29:01.000Z</time>
      </trkpt>
      <trkpt lat="22.886292" lon="109.069215">
        <ele>102.375804</ele>
        <time>2026-08-14T08:29:02.000Z</time>
      </trkpt>
      <trkpt lat="22.886327" lon="109.069246">
        <ele>102.398796</ele>
        <time>2026-08-14T08:29:03.000Z</time>
      </trkpt>
      <trkpt lat="22.886363" lon="109.069278">
        <ele>102.422479</ele>
        <time>2026-08-14T08:29:04.000Z</time>
      </trkpt>
      <trkpt lat="22.886402" lon="109.069302">
        <ele>102.445297</ele>
        <time>2026-08-14T08:29:05.000Z</time>
      </trkpt>
      <trkpt lat="22.886438" lon="109.069330">
        <ele>102.467839</ele>
        <time>2026-08-14T08:29:06.000Z</time>
      </trkpt>
      <trkpt lat="22.886476" lon="109.069355">
        <ele>102.490455</ele>
        <time>2026-08-14T08:29:07.000Z</time>
      </trkpt>
      <trkpt lat="22.886516" lon="109.069380">
        <ele>102.513947</ele>
        <time>2026-08-14T08:29:08.000Z</time>
      </trkpt>
      <trkpt lat="22.886552" lon="109.069401">
        <ele>102.534749</ele>
        <time>2026-08-14T08:29:09.000Z</time>
      </trkpt>
      <trkpt lat="22.886588" lon="109.069426">
        <ele>102.556501</ele>
        <time>2026-08-14T08:29:10.000Z</time>
      </trkpt>
      <trkpt lat="22.886628" lon="109.069451">
        <ele>102.579994</ele>
        <time>2026-08-14T08:29:11.000Z</time>
      </trkpt>
      <trkpt lat="22.886668" lon="109.069474">
        <ele>102.603033</ele>
        <time>2026-08-14T08:29:12.000Z</time>
      </trkpt>
      <trkpt lat="22.886709" lon="109.069499">
        <ele>102.626968</ele>
        <time>2026-08-14T08:29:13.000Z</time>
      </trkpt>
      <trkpt lat="22.886744" lon="109.069523">
        <ele>102.648039</ele>
        <time>2026-08-14T08:29:14.000Z</time>
      </trkpt>
      <trkpt lat="22.886786" lon="109.069542">
        <ele>102.671198</ele>
        <time>2026-08-14T08:29:15.000Z</time>
      </trkpt>
      <trkpt lat="22.886826" lon="109.069565">
        <ele>102.694237</ele>
        <time>2026-08-14T08:29:16.000Z</time>
      </trkpt>
      <trkpt lat="22.886860" lon="109.069586">
        <ele>102.714147</ele>
        <time>2026-08-14T08:29:17.000Z</time>
      </trkpt>
      <trkpt lat="22.886897" lon="109.069611">
        <ele>102.736330</ele>
        <time>2026-08-14T08:29:18.000Z</time>
      </trkpt>
      <trkpt lat="22.886938" lon="109.069638">
        <ele>102.760738</ele>
        <time>2026-08-14T08:29:19.000Z</time>
      </trkpt>
      <trkpt lat="22.886985" lon="109.069663">
        <ele>102.787377</ele>
        <time>2026-08-14T08:29:20.000Z</time>
      </trkpt>
      <trkpt lat="22.887028" lon="109.069689">
        <ele>102.812430</ele>
        <time>2026-08-14T08:29:21.000Z</time>
      </trkpt>
      <trkpt lat="22.887067" lon="109.069721">
        <ele>102.809681</ele>
        <time>2026-08-14T08:29:22.000Z</time>
      </trkpt>
      <trkpt lat="22.887103" lon="109.069758">
        <ele>102.777366</ele>
        <time>2026-08-14T08:29:23.000Z</time>
      </trkpt>
      <trkpt lat="22.887136" lon="109.069795">
        <ele>102.746442</ele>
        <time>2026-08-14T08:29:24.000Z</time>
      </trkpt>
      <trkpt lat="22.887165" lon="109.069838">
        <ele>102.714441</ele>
        <time>2026-08-14T08:29:25.000Z</time>
      </trkpt>
      <trkpt lat="22.887192" lon="109.069886">
        <ele>102.680669</ele>
        <time>2026-08-14T08:29:26.000Z</time>
      </trkpt>
      <trkpt lat="22.887215" lon="109.069927">
        <ele>102.651844</ele>
        <time>2026-08-14T08:29:27.000Z</time>
      </trkpt>
      <trkpt lat="22.887230" lon="109.069963">
        <ele>102.628118</ele>
        <time>2026-08-14T08:29:28.000Z</time>
      </trkpt>
      <trkpt lat="22.887235" lon="109.070003">
        <ele>102.603878</ele>
        <time>2026-08-14T08:29:29.000Z</time>
      </trkpt>
      <trkpt lat="22.887235" lon="109.070048">
        <ele>102.576856</ele>
        <time>2026-08-14T08:29:30.000Z</time>
      </trkpt>
      <trkpt lat="22.887246" lon="109.070093">
        <ele>102.548898</ele>
        <time>2026-08-14T08:29:31.000Z</time>
      </trkpt>
      <trkpt lat="22.887263" lon="109.070145">
        <ele>102.515765</ele>
        <time>2026-08-14T08:29:32.000Z</time>
      </trkpt>
      <trkpt lat="22.887278" lon="109.070195">
        <ele>102.484188</ele>
        <time>2026-08-14T08:29:33.000Z</time>
      </trkpt>
      <trkpt lat="22.887297" lon="109.070245">
        <ele>102.451710</ele>
        <time>2026-08-14T08:29:34.000Z</time>
      </trkpt>
      <trkpt lat="22.887316" lon="109.070294">
        <ele>102.419785</ele>
        <time>2026-08-14T08:29:35.000Z</time>
      </trkpt>
      <trkpt lat="22.887333" lon="109.070339">
        <ele>102.390579</ele>
        <time>2026-08-14T08:29:36.000Z</time>
      </trkpt>
      <trkpt lat="22.887343" lon="109.070376">
        <ele>102.367425</ele>
        <time>2026-08-14T08:29:37.000Z</time>
      </trkpt>
      <trkpt lat="22.887356" lon="109.070410">
        <ele>102.345319</ele>
        <time>2026-08-14T08:29:38.000Z</time>
      </trkpt>
      <trkpt lat="22.887375" lon="109.070443">
        <ele>102.321951</ele>
        <time>2026-08-14T08:29:39.000Z</time>
      </trkpt>
      <trkpt lat="22.887393" lon="109.070476">
        <ele>102.298922</ele>
        <time>2026-08-14T08:29:40.000Z</time>
      </trkpt>
      <trkpt lat="22.887409" lon="109.070516">
        <ele>102.272736</ele>
        <time>2026-08-14T08:29:41.000Z</time>
      </trkpt>
      <trkpt lat="22.887423" lon="109.070562">
        <ele>102.243645</ele>
        <time>2026-08-14T08:29:42.000Z</time>
      </trkpt>
      <trkpt lat="22.887435" lon="109.070609">
        <ele>102.214358</ele>
        <time>2026-08-14T08:29:43.000Z</time>
      </trkpt>
      <trkpt lat="22.887448" lon="109.070657">
        <ele>102.184315</ele>
        <time>2026-08-14T08:29:44.000Z</time>
      </trkpt>
      <trkpt lat="22.887464" lon="109.070709">
        <ele>102.151394</ele>
        <time>2026-08-14T08:29:45.000Z</time>
      </trkpt>
      <trkpt lat="22.887478" lon="109.070763">
        <ele>102.117707</ele>
        <time>2026-08-14T08:29:46.000Z</time>
      </trkpt>
      <trkpt lat="22.887493" lon="109.070816">
        <ele>102.084413</ele>
        <time>2026-08-14T08:29:47.000Z</time>
      </trkpt>
      <trkpt lat="22.887511" lon="109.070869">
        <ele>102.050493</ele>
        <time>2026-08-14T08:29:48.000Z</time>
      </trkpt>
      <trkpt lat="22.887532" lon="109.070922">
        <ele>102.015849</ele>
        <time>2026-08-14T08:29:49.000Z</time>
      </trkpt>
      <trkpt lat="22.887555" lon="109.070972">
        <ele>101.982289</ele>
        <time>2026-08-14T08:29:50.000Z</time>
      </trkpt>
      <trkpt lat="22.887578" lon="109.071025">
        <ele>101.947109</ele>
        <time>2026-08-14T08:29:51.000Z</time>
      </trkpt>
      <trkpt lat="22.887601" lon="109.071079">
        <ele>101.911384</ele>
        <time>2026-08-14T08:29:52.000Z</time>
      </trkpt>
      <trkpt lat="22.887629" lon="109.071132">
        <ele>101.874697</ele>
        <time>2026-08-14T08:29:53.000Z</time>
      </trkpt>
      <trkpt lat="22.887657" lon="109.071184">
        <ele>101.838529</ele>
        <time>2026-08-14T08:29:54.000Z</time>
      </trkpt>
      <trkpt lat="22.887690" lon="109.071240">
        <ele>101.798610</ele>
        <time>2026-08-14T08:29:55.000Z</time>
      </trkpt>
      <trkpt lat="22.887722" lon="109.071298">
        <ele>101.758014</ele>
        <time>2026-08-14T08:29:56.000Z</time>
      </trkpt>
      <trkpt lat="22.887754" lon="109.071355">
        <ele>101.717931</ele>
        <time>2026-08-14T08:29:57.000Z</time>
      </trkpt>
      <trkpt lat="22.887785" lon="109.071413">
        <ele>101.677665</ele>
        <time>2026-08-14T08:29:58.000Z</time>
      </trkpt>
      <trkpt lat="22.887814" lon="109.071473">
        <ele>101.630595</ele>
        <time>2026-08-14T08:29:59.000Z</time>
      </trkpt>
      <trkpt lat="22.887847" lon="109.071532">
        <ele>101.572450</ele>
        <time>2026-08-14T08:30:00.000Z</time>
      </trkpt>
      <trkpt lat="22.887884" lon="109.071591">
        <ele>101.512325</ele>
        <time>2026-08-14T08:30:01.000Z</time>
      </trkpt>
      <trkpt lat="22.887921" lon="109.071651">
        <ele>101.451502</ele>
        <time>2026-08-14T08:30:02.000Z</time>
      </trkpt>
      <trkpt lat="22.887958" lon="109.071710">
        <ele>101.391377</ele>
        <time>2026-08-14T08:30:03.000Z</time>
      </trkpt>
      <trkpt lat="22.887997" lon="109.071767">
        <ele>101.331565</ele>
        <time>2026-08-14T08:30:04.000Z</time>
      </trkpt>
      <trkpt lat="22.888037" lon="109.071829">
        <ele>101.267802</ele>
        <time>2026-08-14T08:30:05.000Z</time>
      </trkpt>
      <trkpt lat="22.888078" lon="109.071889">
        <ele>101.204871</ele>
        <time>2026-08-14T08:30:06.000Z</time>
      </trkpt>
      <trkpt lat="22.888116" lon="109.071948">
        <ele>101.144227</ele>
        <time>2026-08-14T08:30:07.000Z</time>
      </trkpt>
      <trkpt lat="22.888153" lon="109.072011">
        <ele>101.081288</ele>
        <time>2026-08-14T08:30:08.000Z</time>
      </trkpt>
      <trkpt lat="22.888192" lon="109.072074">
        <ele>101.017348</ele>
        <time>2026-08-14T08:30:09.000Z</time>
      </trkpt>
      <trkpt lat="22.888230" lon="109.072135">
        <ele>100.955315</ele>
        <time>2026-08-14T08:30:10.000Z</time>
      </trkpt>
      <trkpt lat="22.888269" lon="109.072197">
        <ele>100.892072</ele>
        <time>2026-08-14T08:30:11.000Z</time>
      </trkpt>
      <trkpt lat="22.888310" lon="109.072257">
        <ele>100.829141</ele>
        <time>2026-08-14T08:30:12.000Z</time>
      </trkpt>
      <trkpt lat="22.888351" lon="109.072318">
        <ele>100.765532</ele>
        <time>2026-08-14T08:30:13.000Z</time>
      </trkpt>
      <trkpt lat="22.888393" lon="109.072375">
        <ele>100.704045</ele>
        <time>2026-08-14T08:30:14.000Z</time>
      </trkpt>
      <trkpt lat="22.888436" lon="109.072430">
        <ele>100.643277</ele>
        <time>2026-08-14T08:30:15.000Z</time>
      </trkpt>
      <trkpt lat="22.888479" lon="109.072484">
        <ele>100.583149</ele>
        <time>2026-08-14T08:30:16.000Z</time>
      </trkpt>
      <trkpt lat="22.888522" lon="109.072541">
        <ele>100.521087</ele>
        <time>2026-08-14T08:30:17.000Z</time>
      </trkpt>
      <trkpt lat="22.888565" lon="109.072596">
        <ele>100.460320</ele>
        <time>2026-08-14T08:30:18.000Z</time>
      </trkpt>
      <trkpt lat="22.888609" lon="109.072651">
        <ele>100.398956</ele>
        <time>2026-08-14T08:30:19.000Z</time>
      </trkpt>
      <trkpt lat="22.888648" lon="109.072710">
        <ele>100.337784</ele>
        <time>2026-08-14T08:30:20.000Z</time>
      </trkpt>
      <trkpt lat="22.888691" lon="109.072764">
        <ele>100.277656</ele>
        <time>2026-08-14T08:30:21.000Z</time>
      </trkpt>
      <trkpt lat="22.888743" lon="109.072804">
        <ele>100.219378</ele>
        <time>2026-08-14T08:30:22.000Z</time>
      </trkpt>
      <trkpt lat="22.888796" lon="109.072843">
        <ele>100.160828</ele>
        <time>2026-08-14T08:30:23.000Z</time>
      </trkpt>
      <trkpt lat="22.888850" lon="109.072881">
        <ele>100.101981</ele>
        <time>2026-08-14T08:30:24.000Z</time>
      </trkpt>
      <trkpt lat="22.888905" lon="109.072917">
        <ele>100.043253</ele>
        <time>2026-08-14T08:30:25.000Z</time>
      </trkpt>
      <trkpt lat="22.888959" lon="109.072955">
        <ele>99.991042</ele>
        <time>2026-08-14T08:30:26.000Z</time>
      </trkpt>
      <trkpt lat="22.889016" lon="109.072992">
        <ele>99.947297</ele>
        <time>2026-08-14T08:30:27.000Z</time>
      </trkpt>
      <trkpt lat="22.889073" lon="109.073027">
        <ele>99.904163</ele>
        <time>2026-08-14T08:30:28.000Z</time>
      </trkpt>
      <trkpt lat="22.889130" lon="109.073053">
        <ele>99.863439</ele>
        <time>2026-08-14T08:30:29.000Z</time>
      </trkpt>
      <trkpt lat="22.889181" lon="109.073092">
        <ele>99.822349</ele>
        <time>2026-08-14T08:30:30.000Z</time>
      </trkpt>
      <trkpt lat="22.889235" lon="109.073124">
        <ele>99.781826</ele>
        <time>2026-08-14T08:30:31.000Z</time>
      </trkpt>
      <trkpt lat="22.889292" lon="109.073155">
        <ele>99.739833</ele>
        <time>2026-08-14T08:30:32.000Z</time>
      </trkpt>
      <trkpt lat="22.889350" lon="109.073185">
        <ele>99.697516</ele>
        <time>2026-08-14T08:30:33.000Z</time>
      </trkpt>
      <trkpt lat="22.889410" lon="109.073214">
        <ele>99.654255</ele>
        <time>2026-08-14T08:30:34.000Z</time>
      </trkpt>
      <trkpt lat="22.889470" lon="109.073241">
        <ele>99.611474</ele>
        <time>2026-08-14T08:30:35.000Z</time>
      </trkpt>
      <trkpt lat="22.889532" lon="109.073269">
        <ele>99.567244</ele>
        <time>2026-08-14T08:30:36.000Z</time>
      </trkpt>
      <trkpt lat="22.889593" lon="109.073297">
        <ele>99.523621</ele>
        <time>2026-08-14T08:30:37.000Z</time>
      </trkpt>
      <trkpt lat="22.889655" lon="109.073326">
        <ele>99.479154</ele>
        <time>2026-08-14T08:30:38.000Z</time>
      </trkpt>
      <trkpt lat="22.889716" lon="109.073355">
        <ele>99.435291</ele>
        <time>2026-08-14T08:30:39.000Z</time>
      </trkpt>
      <trkpt lat="22.889777" lon="109.073386">
        <ele>99.390928</ele>
        <time>2026-08-14T08:30:40.000Z</time>
      </trkpt>
      <trkpt lat="22.889838" lon="109.073416">
        <ele>99.346818</ele>
        <time>2026-08-14T08:30:41.000Z</time>
      </trkpt>
      <trkpt lat="22.889900" lon="109.073444">
        <ele>99.302587</ele>
        <time>2026-08-14T08:30:42.000Z</time>
      </trkpt>
      <trkpt lat="22.889962" lon="109.073473">
        <ele>99.258120</ele>
        <time>2026-08-14T08:30:43.000Z</time>
      </trkpt>
      <trkpt lat="22.890021" lon="109.073508">
        <ele>99.213835</ele>
        <time>2026-08-14T08:30:44.000Z</time>
      </trkpt>
      <trkpt lat="22.890082" lon="109.073538">
        <ele>99.169725</ele>
        <time>2026-08-14T08:30:45.000Z</time>
      </trkpt>
      <trkpt lat="22.890141" lon="109.073568">
        <ele>99.126812</ele>
        <time>2026-08-14T08:30:46.000Z</time>
      </trkpt>
      <trkpt lat="22.890199" lon="109.073598">
        <ele>99.084494</ele>
        <time>2026-08-14T08:30:47.000Z</time>
      </trkpt>
      <trkpt lat="22.890256" lon="109.073630">
        <ele>99.042226</ele>
        <time>2026-08-14T08:30:48.000Z</time>
      </trkpt>
      <trkpt lat="22.890312" lon="109.073667">
        <ele>98.999046</ele>
        <time>2026-08-14T08:30:49.000Z</time>
      </trkpt>
      <trkpt lat="22.890366" lon="109.073704">
        <ele>98.956985</ele>
        <time>2026-08-14T08:30:50.000Z</time>
      </trkpt>
      <trkpt lat="22.890419" lon="109.073742">
        <ele>98.915148</ele>
        <time>2026-08-14T08:30:51.000Z</time>
      </trkpt>
      <trkpt lat="22.890470" lon="109.073783">
        <ele>98.873347</ele>
        <time>2026-08-14T08:30:52.000Z</time>
      </trkpt>
      <trkpt lat="22.890517" lon="109.073825">
        <ele>98.833249</ele>
        <time>2026-08-14T08:30:53.000Z</time>
      </trkpt>
      <trkpt lat="22.890565" lon="109.073872">
        <ele>98.803015</ele>
        <time>2026-08-14T08:30:54.000Z</time>
      </trkpt>
      <trkpt lat="22.890611" lon="109.073918">
        <ele>98.777339</ele>
        <time>2026-08-14T08:30:55.000Z</time>
      </trkpt>
      <trkpt lat="22.890655" lon="109.073965">
        <ele>98.751996</ele>
        <time>2026-08-14T08:30:56.000Z</time>
      </trkpt>
      <trkpt lat="22.890699" lon="109.074010">
        <ele>98.727178</ele>
        <time>2026-08-14T08:30:57.000Z</time>
      </trkpt>
      <trkpt lat="22.890739" lon="109.074064">
        <ele>98.700973</ele>
        <time>2026-08-14T08:30:58.000Z</time>
      </trkpt>
      <trkpt lat="22.890780" lon="109.074114">
        <ele>98.675657</ele>
        <time>2026-08-14T08:30:59.000Z</time>
      </trkpt>
      <trkpt lat="22.890817" lon="109.074166">
        <ele>98.650808</ele>
        <time>2026-08-14T08:31:00.000Z</time>
      </trkpt>
      <trkpt lat="22.890852" lon="109.074217">
        <ele>98.626756</ele>
        <time>2026-08-14T08:31:01.000Z</time>
      </trkpt>
      <trkpt lat="22.890885" lon="109.074270">
        <ele>98.602563</ele>
        <time>2026-08-14T08:31:02.000Z</time>
      </trkpt>
      <trkpt lat="22.890918" lon="109.074322">
        <ele>98.578682</ele>
        <time>2026-08-14T08:31:03.000Z</time>
      </trkpt>
      <trkpt lat="22.890948" lon="109.074377">
        <ele>98.554508</ele>
        <time>2026-08-14T08:31:04.000Z</time>
      </trkpt>
      <trkpt lat="22.890980" lon="109.074438">
        <ele>98.527960</ele>
        <time>2026-08-14T08:31:05.000Z</time>
      </trkpt>
      <trkpt lat="22.891011" lon="109.074498">
        <ele>98.501943</ele>
        <time>2026-08-14T08:31:06.000Z</time>
      </trkpt>
      <trkpt lat="22.891042" lon="109.074561">
        <ele>98.474931</ele>
        <time>2026-08-14T08:31:07.000Z</time>
      </trkpt>
      <trkpt lat="22.891073" lon="109.074625">
        <ele>98.447585</ele>
        <time>2026-08-14T08:31:08.000Z</time>
      </trkpt>
      <trkpt lat="22.891101" lon="109.074689">
        <ele>98.420789</ele>
        <time>2026-08-14T08:31:09.000Z</time>
      </trkpt>
      <trkpt lat="22.891130" lon="109.074752">
        <ele>98.394154</ele>
        <time>2026-08-14T08:31:10.000Z</time>
      </trkpt>
      <trkpt lat="22.891156" lon="109.074815">
        <ele>98.368046</ele>
        <time>2026-08-14T08:31:11.000Z</time>
      </trkpt>
      <trkpt lat="22.891183" lon="109.074879">
        <ele>98.341424</ele>
        <time>2026-08-14T08:31:12.000Z</time>
      </trkpt>
      <trkpt lat="22.891213" lon="109.074943">
        <ele>98.314267</ele>
        <time>2026-08-14T08:31:13.000Z</time>
      </trkpt>
      <trkpt lat="22.891241" lon="109.075005">
        <ele>98.288153</ele>
        <time>2026-08-14T08:31:14.000Z</time>
      </trkpt>
      <trkpt lat="22.891269" lon="109.075067">
        <ele>98.262038</ele>
        <time>2026-08-14T08:31:15.000Z</time>
      </trkpt>
      <trkpt lat="22.891297" lon="109.075131">
        <ele>98.235243</ele>
        <time>2026-08-14T08:31:16.000Z</time>
      </trkpt>
      <trkpt lat="22.891324" lon="109.075193">
        <ele>98.209307</ele>
        <time>2026-08-14T08:31:17.000Z</time>
      </trkpt>
      <trkpt lat="22.891351" lon="109.075256">
        <ele>98.183029</ele>
        <time>2026-08-14T08:31:18.000Z</time>
      </trkpt>
      <trkpt lat="22.891377" lon="109.075317">
        <ele>98.157609</ele>
        <time>2026-08-14T08:31:19.000Z</time>
      </trkpt>
      <trkpt lat="22.891403" lon="109.075377">
        <ele>98.132532</ele>
        <time>2026-08-14T08:31:20.000Z</time>
      </trkpt>
      <trkpt lat="22.891430" lon="109.075437">
        <ele>98.107278</ele>
        <time>2026-08-14T08:31:21.000Z</time>
      </trkpt>
      <trkpt lat="22.891456" lon="109.075500">
        <ele>98.081931</ele>
        <time>2026-08-14T08:31:22.000Z</time>
      </trkpt>
      <trkpt lat="22.891483" lon="109.075562">
        <ele>98.061086</ele>
        <time>2026-08-14T08:31:23.000Z</time>
      </trkpt>
      <trkpt lat="22.891510" lon="109.075624">
        <ele>98.040241</ele>
        <time>2026-08-14T08:31:24.000Z</time>
      </trkpt>
      <trkpt lat="22.891534" lon="109.075686">
        <ele>98.019799</ele>
        <time>2026-08-14T08:31:25.000Z</time>
      </trkpt>
      <trkpt lat="22.891556" lon="109.075749">
        <ele>97.999320</ele>
        <time>2026-08-14T08:31:26.000Z</time>
      </trkpt>
      <trkpt lat="22.891582" lon="109.075812">
        <ele>97.978337</ele>
        <time>2026-08-14T08:31:27.000Z</time>
      </trkpt>
      <trkpt lat="22.891609" lon="109.075874">
        <ele>97.957492</ele>
        <time>2026-08-14T08:31:28.000Z</time>
      </trkpt>
      <trkpt lat="22.891636" lon="109.075937">
        <ele>97.936372</ele>
        <time>2026-08-14T08:31:29.000Z</time>
      </trkpt>
      <trkpt lat="22.891663" lon="109.075999">
        <ele>97.915527</ele>
        <time>2026-08-14T08:31:30.000Z</time>
      </trkpt>
      <trkpt lat="22.891690" lon="109.076062">
        <ele>97.894406</ele>
        <time>2026-08-14T08:31:31.000Z</time>
      </trkpt>
      <trkpt lat="22.891718" lon="109.076125">
        <ele>97.873145</ele>
        <time>2026-08-14T08:31:32.000Z</time>
      </trkpt>
      <trkpt lat="22.891747" lon="109.076186">
        <ele>97.852280</ele>
        <time>2026-08-14T08:31:33.000Z</time>
      </trkpt>
      <trkpt lat="22.891777" lon="109.076248">
        <ele>97.830993</ele>
        <time>2026-08-14T08:31:34.000Z</time>
      </trkpt>
      <trkpt lat="22.891807" lon="109.076310">
        <ele>97.809707</ele>
        <time>2026-08-14T08:31:35.000Z</time>
      </trkpt>
      <trkpt lat="22.891838" lon="109.076371">
        <ele>97.788531</ele>
        <time>2026-08-14T08:31:36.000Z</time>
      </trkpt>
      <trkpt lat="22.891867" lon="109.076432">
        <ele>97.767666</ele>
        <time>2026-08-14T08:31:37.000Z</time>
      </trkpt>
      <trkpt lat="22.891896" lon="109.076494">
        <ele>97.746531</ele>
        <time>2026-08-14T08:31:38.000Z</time>
      </trkpt>
      <trkpt lat="22.891926" lon="109.076555">
        <ele>97.725513</ele>
        <time>2026-08-14T08:31:39.000Z</time>
      </trkpt>
      <trkpt lat="22.891956" lon="109.076616">
        <ele>97.704494</ele>
        <time>2026-08-14T08:31:40.000Z</time>
      </trkpt>
      <trkpt lat="22.891987" lon="109.076676">
        <ele>97.683584</ele>
        <time>2026-08-14T08:31:41.000Z</time>
      </trkpt>
      <trkpt lat="22.892017" lon="109.076735">
        <ele>97.663101</ele>
        <time>2026-08-14T08:31:42.000Z</time>
      </trkpt>
      <trkpt lat="22.892049" lon="109.076794">
        <ele>97.642290</ele>
        <time>2026-08-14T08:31:43.000Z</time>
      </trkpt>
      <trkpt lat="22.892081" lon="109.076853">
        <ele>97.621479</ele>
        <time>2026-08-14T08:31:44.000Z</time>
      </trkpt>
      <trkpt lat="22.892112" lon="109.076913">
        <ele>97.600569</ele>
        <time>2026-08-14T08:31:45.000Z</time>
      </trkpt>
      <trkpt lat="22.892142" lon="109.076972">
        <ele>97.580085</ele>
        <time>2026-08-14T08:31:46.000Z</time>
      </trkpt>
      <trkpt lat="22.892171" lon="109.077032">
        <ele>97.559490</ele>
        <time>2026-08-14T08:31:47.000Z</time>
      </trkpt>
      <trkpt lat="22.892200" lon="109.077091">
        <ele>97.539164</ele>
        <time>2026-08-14T08:31:48.000Z</time>
      </trkpt>
      <trkpt lat="22.892229" lon="109.077150">
        <ele>97.518837</ele>
        <time>2026-08-14T08:31:49.000Z</time>
      </trkpt>
      <trkpt lat="22.892258" lon="109.077208">
        <ele>97.498778</ele>
        <time>2026-08-14T08:31:50.000Z</time>
      </trkpt>
      <trkpt lat="22.892287" lon="109.077268">
        <ele>97.491591</ele>
        <time>2026-08-14T08:31:51.000Z</time>
      </trkpt>
      <trkpt lat="22.892315" lon="109.077327">
        <ele>97.491591</ele>
        <time>2026-08-14T08:31:52.000Z</time>
      </trkpt>
      <trkpt lat="22.892345" lon="109.077387">
        <ele>97.491591</ele>
        <time>2026-08-14T08:31:53.000Z</time>
      </trkpt>
      <trkpt lat="22.892374" lon="109.077448">
        <ele>97.491591</ele>
        <time>2026-08-14T08:31:54.000Z</time>
      </trkpt>
      <trkpt lat="22.892403" lon="109.077507">
        <ele>97.491591</ele>
        <time>2026-08-14T08:31:55.000Z</time>
      </trkpt>
      <trkpt lat="22.892434" lon="109.077566">
        <ele>97.491591</ele>
        <time>2026-08-14T08:31:56.000Z</time>
      </trkpt>
      <trkpt lat="22.892465" lon="109.077627">
        <ele>97.491591</ele>
        <time>2026-08-14T08:31:57.000Z</time>
      </trkpt>
      <trkpt lat="22.892496" lon="109.077688">
        <ele>97.491591</ele>
        <time>2026-08-14T08:31:58.000Z</time>
      </trkpt>
      <trkpt lat="22.892527" lon="109.077749">
        <ele>97.491591</ele>
        <time>2026-08-14T08:31:59.000Z</time>
      </trkpt>
      <trkpt lat="22.892557" lon="109.077810">
        <ele>97.491591</ele>
        <time>2026-08-14T08:32:00.000Z</time>
      </trkpt>
      <trkpt lat="22.892587" lon="109.077870">
        <ele>97.491591</ele>
        <time>2026-08-14T08:32:01.000Z</time>
      </trkpt>
      <trkpt lat="22.892619" lon="109.077927">
        <ele>97.491591</ele>
        <time>2026-08-14T08:32:02.000Z</time>
      </trkpt>
      <trkpt lat="22.892645" lon="109.077977">
        <ele>97.491591</ele>
        <time>2026-08-14T08:32:03.000Z</time>
      </trkpt>
      <trkpt lat="22.892665" lon="109.078017">
        <ele>97.491591</ele>
        <time>2026-08-14T08:32:04.000Z</time>
      </trkpt>
      <trkpt lat="22.892680" lon="109.078051">
        <ele>97.491591</ele>
        <time>2026-08-14T08:32:05.000Z</time>
      </trkpt>
      <trkpt lat="22.892684" lon="109.078078">
        <ele>97.491591</ele>
        <time>2026-08-14T08:32:06.000Z</time>
      </trkpt>
      <trkpt lat="22.892682" lon="109.078102">
        <ele>97.491591</ele>
        <time>2026-08-14T08:32:07.000Z</time>
      </trkpt>
      <trkpt lat="22.892674" lon="109.078114">
        <ele>97.491591</ele>
        <time>2026-08-14T08:32:08.000Z</time>
      </trkpt>
      <trkpt lat="22.892665" lon="109.078121">
        <ele>97.491591</ele>
        <time>2026-08-14T08:32:09.000Z</time>
      </trkpt>
      <trkpt lat="22.892648" lon="109.078122">
        <ele>97.491591</ele>
        <time>2026-08-14T08:32:10.000Z</time>
      </trkpt>
      <trkpt lat="22.892628" lon="109.078121">
        <ele>97.491591</ele>
        <time>2026-08-14T08:32:11.000Z</time>
      </trkpt>
      <trkpt lat="22.892607" lon="109.078122">
        <ele>97.491591</ele>
        <time>2026-08-14T08:32:12.000Z</time>
      </trkpt>
      <trkpt lat="22.892595" lon="109.078120">
        <ele>97.491591</ele>
        <time>2026-08-14T08:32:13.000Z</time>
      </trkpt>
      <trkpt lat="22.892591" lon="109.078119">
        <ele>97.491591</ele>
        <time>2026-08-14T08:32:14.000Z</time>
      </trkpt>
      <trkpt lat="22.892591" lon="109.078119">
        <ele>97.491591</ele>
        <time>2026-08-14T08:32:15.000Z</time>
      </trkpt>
    </trkseg>
  </trk>
</gpx>